<?xml version="1.0"?>
<gpx
 version="1.1"
 creator="Satmap Active 20"
 xmlns:xsi="http://www.w3.org/2001/XMLSchema-instance"
 xmlns="http://www.topografix.com/GPX/1/1"
 xmlns:satmap="http://www.satmap.com/updates/xmlschemas/GpxExtensions/v2/GpxExtensions_v2.xsd"
 xsi:schemaLocation="http://www.topografix.com/GPX/1/1 http://www.topografix.com/GPX/1/1/gpx.xsd">
<metadata>
<time>2022-04-08T09:41:44Z</time>
<extensions>
<satmap:platform>43</satmap:platform>
<satmap:software version="3.12.831">SM15.exe</satmap:software>
<satmap:username>Jim Grant</satmap:username>
<satmap:network_ids>
<satmap:network_id type="wifi">00-23-A7-EC-D5-78</satmap:network_id>
<satmap:network_id type="bluetooth">80-BB-EB-D7-5B-7C</satmap:network_id>
</satmap:network_ids>
<satmap:snap_type>simple</satmap:snap_type>
</extensions>
</metadata>
<trk>
<name>2022-04-08_0941</name>
<desc>Track 1</desc>
<number>1</number>
<trkseg>
<trkpt lat="53.500145" lon="-1.683485"><ele>276</ele><time>2022-04-08T09:41:44Z</time><name>PT1</name></trkpt>
<trkpt lat="53.500144" lon="-1.683484"><ele>276</ele><time>2022-04-08T09:41:56Z</time><name>PT2</name></trkpt>
<trkpt lat="53.500155" lon="-1.683472"><ele>276</ele><time>2022-04-08T09:41:56Z</time><name>PT3</name></trkpt>
<trkpt lat="53.500166" lon="-1.683466"><ele>276</ele><time>2022-04-08T09:41:57Z</time><name>PT4</name></trkpt>
<trkpt lat="53.500172" lon="-1.683446"><ele>274</ele><time>2022-04-08T09:41:58Z</time><name>PT5</name></trkpt>
<trkpt lat="53.500178" lon="-1.683425"><ele>272</ele><time>2022-04-08T09:41:59Z</time><name>PT6</name></trkpt>
<trkpt lat="53.500178" lon="-1.683411"><ele>271</ele><time>2022-04-08T09:42:00Z</time><name>PT7</name></trkpt>
<trkpt lat="53.500182" lon="-1.683405"><ele>271</ele><time>2022-04-08T09:42:01Z</time><name>PT8</name></trkpt>
<trkpt lat="53.500185" lon="-1.683423"><ele>270</ele><time>2022-04-08T09:42:05Z</time><name>PT9</name></trkpt>
<trkpt lat="53.500186" lon="-1.683447"><ele>270</ele><time>2022-04-08T09:42:06Z</time><name>PT10</name></trkpt>
<trkpt lat="53.500190" lon="-1.683448"><ele>269</ele><time>2022-04-08T09:42:07Z</time><name>PT11</name></trkpt>
<trkpt lat="53.500195" lon="-1.683462"><ele>269</ele><time>2022-04-08T09:42:09Z</time><name>PT12</name></trkpt>
<trkpt lat="53.500188" lon="-1.683464"><ele>269</ele><time>2022-04-08T09:42:48Z</time><name>PT13</name></trkpt>
<trkpt lat="53.500183" lon="-1.683450"><ele>268</ele><time>2022-04-08T09:42:48Z</time><name>PT14</name></trkpt>
<trkpt lat="53.500182" lon="-1.683446"><ele>268</ele><time>2022-04-08T09:42:49Z</time><name>PT15</name></trkpt>
<trkpt lat="53.500182" lon="-1.683456"><ele>268</ele><time>2022-04-08T09:42:57Z</time><name>PT16</name></trkpt>
<trkpt lat="53.500171" lon="-1.683465"><ele>268</ele><time>2022-04-08T09:42:58Z</time><name>PT17</name></trkpt>
<trkpt lat="53.500167" lon="-1.683465"><ele>269</ele><time>2022-04-08T09:43:00Z</time><name>PT18</name></trkpt>
<trkpt lat="53.500165" lon="-1.683466"><ele>268</ele><time>2022-04-08T09:43:00Z</time><name>PT19</name></trkpt>
<trkpt lat="53.500161" lon="-1.683477"><ele>268</ele><time>2022-04-08T09:43:02Z</time><name>PT20</name></trkpt>
<trkpt lat="53.500163" lon="-1.683483"><ele>267</ele><time>2022-04-08T09:43:02Z</time><name>PT21</name></trkpt>
<trkpt lat="53.500164" lon="-1.683484"><ele>267</ele><time>2022-04-08T09:43:08Z</time><name>PT22</name></trkpt>
<trkpt lat="53.500168" lon="-1.683486"><ele>267</ele><time>2022-04-08T09:43:08Z</time><name>PT23</name></trkpt>
<trkpt lat="53.500166" lon="-1.683494"><ele>267</ele><time>2022-04-08T09:43:09Z</time><name>PT24</name></trkpt>
<trkpt lat="53.500167" lon="-1.683506"><ele>267</ele><time>2022-04-08T09:43:10Z</time><name>PT25</name></trkpt>
<trkpt lat="53.500163" lon="-1.683513"><ele>267</ele><time>2022-04-08T09:43:11Z</time><name>PT26</name></trkpt>
<trkpt lat="53.500157" lon="-1.683533"><ele>267</ele><time>2022-04-08T09:43:18Z</time><name>PT27</name></trkpt>
<trkpt lat="53.500141" lon="-1.683541"><ele>265</ele><time>2022-04-08T09:43:18Z</time><name>PT28</name></trkpt>
<trkpt lat="53.500134" lon="-1.683556"><ele>265</ele><time>2022-04-08T09:43:20Z</time><name>PT29</name></trkpt>
<trkpt lat="53.500129" lon="-1.683568"><ele>266</ele><time>2022-04-08T09:43:20Z</time><name>PT30</name></trkpt>
<trkpt lat="53.500120" lon="-1.683570"><ele>265</ele><time>2022-04-08T09:43:22Z</time><name>PT31</name></trkpt>
<trkpt lat="53.500115" lon="-1.683584"><ele>265</ele><time>2022-04-08T09:43:25Z</time><name>PT32</name></trkpt>
<trkpt lat="53.500110" lon="-1.683604"><ele>264</ele><time>2022-04-08T09:43:26Z</time><name>PT33</name></trkpt>
<trkpt lat="53.500113" lon="-1.683625"><ele>265</ele><time>2022-04-08T09:43:27Z</time><name>PT34</name></trkpt>
<trkpt lat="53.500111" lon="-1.683635"><ele>265</ele><time>2022-04-08T09:43:28Z</time><name>PT35</name></trkpt>
<trkpt lat="53.500104" lon="-1.683634"><ele>263</ele><time>2022-04-08T09:43:30Z</time><name>PT36</name></trkpt>
<trkpt lat="53.500101" lon="-1.683634"><ele>263</ele><time>2022-04-08T09:43:30Z</time><name>PT37</name></trkpt>
<trkpt lat="53.500103" lon="-1.683640"><ele>263</ele><time>2022-04-08T09:43:31Z</time><name>PT38</name></trkpt>
<trkpt lat="53.500107" lon="-1.683642"><ele>263</ele><time>2022-04-08T09:43:32Z</time><name>PT39</name></trkpt>
<trkpt lat="53.500114" lon="-1.683638"><ele>263</ele><time>2022-04-08T09:43:33Z</time><name>PT40</name></trkpt>
<trkpt lat="53.500120" lon="-1.683640"><ele>263</ele><time>2022-04-08T09:43:34Z</time><name>PT41</name></trkpt>
<trkpt lat="53.500124" lon="-1.683644"><ele>263</ele><time>2022-04-08T09:43:35Z</time><name>PT42</name></trkpt>
<trkpt lat="53.500129" lon="-1.683641"><ele>263</ele><time>2022-04-08T09:43:36Z</time><name>PT43</name></trkpt>
<trkpt lat="53.500128" lon="-1.683648"><ele>263</ele><time>2022-04-08T09:43:46Z</time><name>PT44</name></trkpt>
<trkpt lat="53.500132" lon="-1.683664"><ele>263</ele><time>2022-04-08T09:43:47Z</time><name>PT45</name></trkpt>
<trkpt lat="53.500135" lon="-1.683661"><ele>263</ele><time>2022-04-08T09:43:48Z</time><name>PT46</name></trkpt>
<trkpt lat="53.500137" lon="-1.683657"><ele>263</ele><time>2022-04-08T09:43:49Z</time><name>PT47</name></trkpt>
<trkpt lat="53.500132" lon="-1.683640"><ele>263</ele><time>2022-04-08T09:46:27Z</time><name>PT48</name></trkpt>
<trkpt lat="53.500133" lon="-1.683627"><ele>262</ele><time>2022-04-08T09:46:28Z</time><name>PT49</name></trkpt>
<trkpt lat="53.500134" lon="-1.683612"><ele>262</ele><time>2022-04-08T09:46:29Z</time><name>PT50</name></trkpt>
<trkpt lat="53.500134" lon="-1.683596"><ele>262</ele><time>2022-04-08T09:46:30Z</time><name>PT51</name></trkpt>
<trkpt lat="53.500108" lon="-1.683529"><ele>262</ele><time>2022-04-08T09:47:01Z</time><name>PT52</name></trkpt>
<trkpt lat="53.500082" lon="-1.683506"><ele>263</ele><time>2022-04-08T09:47:05Z</time><name>PT53</name></trkpt>
<trkpt lat="53.500061" lon="-1.683507"><ele>262</ele><time>2022-04-08T09:47:09Z</time><name>PT54</name></trkpt>
<trkpt lat="53.500026" lon="-1.683488"><ele>262</ele><time>2022-04-08T09:47:14Z</time><name>PT55</name></trkpt>
<trkpt lat="53.499995" lon="-1.683454"><ele>261</ele><time>2022-04-08T09:47:17Z</time><name>PT56</name></trkpt>
<trkpt lat="53.499967" lon="-1.683427"><ele>260</ele><time>2022-04-08T09:47:21Z</time><name>PT57</name></trkpt>
<trkpt lat="53.499936" lon="-1.683423"><ele>260</ele><time>2022-04-08T09:47:25Z</time><name>PT58</name></trkpt>
<trkpt lat="53.499930" lon="-1.683413"><ele>261</ele><time>2022-04-08T09:47:30Z</time><name>PT59</name></trkpt>
<trkpt lat="53.499933" lon="-1.683404"><ele>261</ele><time>2022-04-08T09:47:33Z</time><name>PT60</name></trkpt>
<trkpt lat="53.499903" lon="-1.683365"><ele>258</ele><time>2022-04-08T09:47:37Z</time><name>PT61</name></trkpt>
<trkpt lat="53.499870" lon="-1.683350"><ele>256</ele><time>2022-04-08T09:47:42Z</time><name>PT62</name></trkpt>
<trkpt lat="53.499841" lon="-1.683329"><ele>256</ele><time>2022-04-08T09:47:45Z</time><name>PT63</name></trkpt>
<trkpt lat="53.499808" lon="-1.683302"><ele>257</ele><time>2022-04-08T09:47:49Z</time><name>PT64</name></trkpt>
<trkpt lat="53.499784" lon="-1.683285"><ele>258</ele><time>2022-04-08T09:47:53Z</time><name>PT65</name></trkpt>
<trkpt lat="53.499758" lon="-1.683258"><ele>257</ele><time>2022-04-08T09:47:57Z</time><name>PT66</name></trkpt>
<trkpt lat="53.499740" lon="-1.683246"><ele>257</ele><time>2022-04-08T09:48:01Z</time><name>PT67</name></trkpt>
<trkpt lat="53.499732" lon="-1.683241"><ele>257</ele><time>2022-04-08T09:48:02Z</time><name>PT68</name></trkpt>
<trkpt lat="53.499715" lon="-1.683236"><ele>259</ele><time>2022-04-08T09:48:04Z</time><name>PT69</name></trkpt>
<trkpt lat="53.499705" lon="-1.683236"><ele>259</ele><time>2022-04-08T09:48:04Z</time><name>PT70</name></trkpt>
<trkpt lat="53.499698" lon="-1.683235"><ele>260</ele><time>2022-04-08T09:48:05Z</time><name>PT71</name></trkpt>
<trkpt lat="53.499689" lon="-1.683246"><ele>260</ele><time>2022-04-08T09:48:06Z</time><name>PT72</name></trkpt>
<trkpt lat="53.499680" lon="-1.683244"><ele>260</ele><time>2022-04-08T09:48:07Z</time><name>PT73</name></trkpt>
<trkpt lat="53.499671" lon="-1.683247"><ele>260</ele><time>2022-04-08T09:48:08Z</time><name>PT74</name></trkpt>
<trkpt lat="53.499662" lon="-1.683250"><ele>261</ele><time>2022-04-08T09:48:09Z</time><name>PT75</name></trkpt>
<trkpt lat="53.499657" lon="-1.683253"><ele>261</ele><time>2022-04-08T09:48:10Z</time><name>PT76</name></trkpt>
<trkpt lat="53.499651" lon="-1.683261"><ele>261</ele><time>2022-04-08T09:48:11Z</time><name>PT77</name></trkpt>
<trkpt lat="53.499645" lon="-1.683270"><ele>261</ele><time>2022-04-08T09:48:12Z</time><name>PT78</name></trkpt>
<trkpt lat="53.499640" lon="-1.683283"><ele>261</ele><time>2022-04-08T09:48:14Z</time><name>PT79</name></trkpt>
<trkpt lat="53.499633" lon="-1.683292"><ele>261</ele><time>2022-04-08T09:48:14Z</time><name>PT80</name></trkpt>
<trkpt lat="53.499623" lon="-1.683297"><ele>261</ele><time>2022-04-08T09:48:15Z</time><name>PT81</name></trkpt>
<trkpt lat="53.499613" lon="-1.683306"><ele>261</ele><time>2022-04-08T09:48:16Z</time><name>PT82</name></trkpt>
<trkpt lat="53.499608" lon="-1.683315"><ele>261</ele><time>2022-04-08T09:48:18Z</time><name>PT83</name></trkpt>
<trkpt lat="53.499601" lon="-1.683324"><ele>261</ele><time>2022-04-08T09:48:18Z</time><name>PT84</name></trkpt>
<trkpt lat="53.499597" lon="-1.683330"><ele>261</ele><time>2022-04-08T09:48:19Z</time><name>PT85</name></trkpt>
<trkpt lat="53.499595" lon="-1.683339"><ele>260</ele><time>2022-04-08T09:48:20Z</time><name>PT86</name></trkpt>
<trkpt lat="53.499589" lon="-1.683348"><ele>260</ele><time>2022-04-08T09:48:22Z</time><name>PT87</name></trkpt>
<trkpt lat="53.499580" lon="-1.683356"><ele>260</ele><time>2022-04-08T09:48:22Z</time><name>PT88</name></trkpt>
<trkpt lat="53.499576" lon="-1.683367"><ele>260</ele><time>2022-04-08T09:48:24Z</time><name>PT89</name></trkpt>
<trkpt lat="53.499575" lon="-1.683371"><ele>260</ele><time>2022-04-08T09:48:24Z</time><name>PT90</name></trkpt>
<trkpt lat="53.499564" lon="-1.683384"><ele>260</ele><time>2022-04-08T09:48:26Z</time><name>PT91</name></trkpt>
<trkpt lat="53.499554" lon="-1.683392"><ele>260</ele><time>2022-04-08T09:48:26Z</time><name>PT92</name></trkpt>
<trkpt lat="53.499542" lon="-1.683400"><ele>260</ele><time>2022-04-08T09:48:27Z</time><name>PT93</name></trkpt>
<trkpt lat="53.499531" lon="-1.683399"><ele>260</ele><time>2022-04-08T09:48:28Z</time><name>PT94</name></trkpt>
<trkpt lat="53.499523" lon="-1.683394"><ele>260</ele><time>2022-04-08T09:48:29Z</time><name>PT95</name></trkpt>
<trkpt lat="53.499517" lon="-1.683393"><ele>260</ele><time>2022-04-08T09:48:30Z</time><name>PT96</name></trkpt>
<trkpt lat="53.499514" lon="-1.683402"><ele>260</ele><time>2022-04-08T09:48:31Z</time><name>PT97</name></trkpt>
<trkpt lat="53.499509" lon="-1.683409"><ele>260</ele><time>2022-04-08T09:48:32Z</time><name>PT98</name></trkpt>
<trkpt lat="53.499504" lon="-1.683420"><ele>260</ele><time>2022-04-08T09:48:34Z</time><name>PT99</name></trkpt>
<trkpt lat="53.499497" lon="-1.683428"><ele>260</ele><time>2022-04-08T09:48:34Z</time><name>PT100</name></trkpt>
<trkpt lat="53.499493" lon="-1.683437"><ele>259</ele><time>2022-04-08T09:48:35Z</time><name>PT101</name></trkpt>
<trkpt lat="53.499489" lon="-1.683446"><ele>260</ele><time>2022-04-08T09:48:36Z</time><name>PT102</name></trkpt>
<trkpt lat="53.499486" lon="-1.683452"><ele>259</ele><time>2022-04-08T09:48:38Z</time><name>PT103</name></trkpt>
<trkpt lat="53.499482" lon="-1.683456"><ele>259</ele><time>2022-04-08T09:48:38Z</time><name>PT104</name></trkpt>
<trkpt lat="53.499478" lon="-1.683471"><ele>258</ele><time>2022-04-08T09:48:39Z</time><name>PT105</name></trkpt>
<trkpt lat="53.499471" lon="-1.683477"><ele>257</ele><time>2022-04-08T09:48:40Z</time><name>PT106</name></trkpt>
<trkpt lat="53.499464" lon="-1.683485"><ele>256</ele><time>2022-04-08T09:48:41Z</time><name>PT107</name></trkpt>
<trkpt lat="53.499460" lon="-1.683489"><ele>256</ele><time>2022-04-08T09:48:42Z</time><name>PT108</name></trkpt>
<trkpt lat="53.499455" lon="-1.683497"><ele>256</ele><time>2022-04-08T09:48:43Z</time><name>PT109</name></trkpt>
<trkpt lat="53.499449" lon="-1.683507"><ele>256</ele><time>2022-04-08T09:48:44Z</time><name>PT110</name></trkpt>
<trkpt lat="53.499442" lon="-1.683517"><ele>256</ele><time>2022-04-08T09:48:45Z</time><name>PT111</name></trkpt>
<trkpt lat="53.499432" lon="-1.683534"><ele>256</ele><time>2022-04-08T09:48:46Z</time><name>PT112</name></trkpt>
<trkpt lat="53.499428" lon="-1.683538"><ele>256</ele><time>2022-04-08T09:48:48Z</time><name>PT113</name></trkpt>
<trkpt lat="53.499426" lon="-1.683539"><ele>256</ele><time>2022-04-08T09:48:48Z</time><name>PT114</name></trkpt>
<trkpt lat="53.499419" lon="-1.683555"><ele>256</ele><time>2022-04-08T09:48:49Z</time><name>PT115</name></trkpt>
<trkpt lat="53.499410" lon="-1.683581"><ele>257</ele><time>2022-04-08T09:48:50Z</time><name>PT116</name></trkpt>
<trkpt lat="53.499402" lon="-1.683609"><ele>257</ele><time>2022-04-08T09:48:52Z</time><name>PT117</name></trkpt>
<trkpt lat="53.499393" lon="-1.683637"><ele>257</ele><time>2022-04-08T09:48:52Z</time><name>PT118</name></trkpt>
<trkpt lat="53.499390" lon="-1.683652"><ele>257</ele><time>2022-04-08T09:48:53Z</time><name>PT119</name></trkpt>
<trkpt lat="53.499381" lon="-1.683670"><ele>257</ele><time>2022-04-08T09:48:54Z</time><name>PT120</name></trkpt>
<trkpt lat="53.499379" lon="-1.683678"><ele>257</ele><time>2022-04-08T09:48:56Z</time><name>PT121</name></trkpt>
<trkpt lat="53.499374" lon="-1.683684"><ele>256</ele><time>2022-04-08T09:48:56Z</time><name>PT122</name></trkpt>
<trkpt lat="53.499369" lon="-1.683686"><ele>256</ele><time>2022-04-08T09:48:57Z</time><name>PT123</name></trkpt>
<trkpt lat="53.499364" lon="-1.683695"><ele>256</ele><time>2022-04-08T09:48:58Z</time><name>PT124</name></trkpt>
<trkpt lat="53.499358" lon="-1.683711"><ele>255</ele><time>2022-04-08T09:48:59Z</time><name>PT125</name></trkpt>
<trkpt lat="53.499351" lon="-1.683720"><ele>255</ele><time>2022-04-08T09:49:00Z</time><name>PT126</name></trkpt>
<trkpt lat="53.499340" lon="-1.683725"><ele>256</ele><time>2022-04-08T09:49:01Z</time><name>PT127</name></trkpt>
<trkpt lat="53.499334" lon="-1.683734"><ele>257</ele><time>2022-04-08T09:49:02Z</time><name>PT128</name></trkpt>
<trkpt lat="53.499333" lon="-1.683739"><ele>256</ele><time>2022-04-08T09:49:03Z</time><name>PT129</name></trkpt>
<trkpt lat="53.499339" lon="-1.683754"><ele>256</ele><time>2022-04-08T09:49:04Z</time><name>PT130</name></trkpt>
<trkpt lat="53.499337" lon="-1.683764"><ele>256</ele><time>2022-04-08T09:49:06Z</time><name>PT131</name></trkpt>
<trkpt lat="53.499338" lon="-1.683774"><ele>253</ele><time>2022-04-08T09:49:06Z</time><name>PT132</name></trkpt>
<trkpt lat="53.499326" lon="-1.683793"><ele>253</ele><time>2022-04-08T09:49:07Z</time><name>PT133</name></trkpt>
<trkpt lat="53.499318" lon="-1.683811"><ele>252</ele><time>2022-04-08T09:49:08Z</time><name>PT134</name></trkpt>
<trkpt lat="53.499315" lon="-1.683819"><ele>252</ele><time>2022-04-08T09:49:09Z</time><name>PT135</name></trkpt>
<trkpt lat="53.499317" lon="-1.683832"><ele>252</ele><time>2022-04-08T09:49:10Z</time><name>PT136</name></trkpt>
<trkpt lat="53.499316" lon="-1.683839"><ele>253</ele><time>2022-04-08T09:49:11Z</time><name>PT137</name></trkpt>
<trkpt lat="53.499314" lon="-1.683867"><ele>252</ele><time>2022-04-08T09:49:12Z</time><name>PT138</name></trkpt>
<trkpt lat="53.499312" lon="-1.683881"><ele>252</ele><time>2022-04-08T09:49:13Z</time><name>PT139</name></trkpt>
<trkpt lat="53.499311" lon="-1.683905"><ele>252</ele><time>2022-04-08T09:49:14Z</time><name>PT140</name></trkpt>
<trkpt lat="53.499308" lon="-1.683924"><ele>252</ele><time>2022-04-08T09:49:15Z</time><name>PT141</name></trkpt>
<trkpt lat="53.499296" lon="-1.683942"><ele>253</ele><time>2022-04-08T09:49:16Z</time><name>PT142</name></trkpt>
<trkpt lat="53.499289" lon="-1.683957"><ele>253</ele><time>2022-04-08T09:49:17Z</time><name>PT143</name></trkpt>
<trkpt lat="53.499286" lon="-1.683981"><ele>253</ele><time>2022-04-08T09:49:18Z</time><name>PT144</name></trkpt>
<trkpt lat="53.499280" lon="-1.684012"><ele>254</ele><time>2022-04-08T09:49:20Z</time><name>PT145</name></trkpt>
<trkpt lat="53.499276" lon="-1.684024"><ele>254</ele><time>2022-04-08T09:49:20Z</time><name>PT146</name></trkpt>
<trkpt lat="53.499272" lon="-1.684037"><ele>255</ele><time>2022-04-08T09:49:21Z</time><name>PT147</name></trkpt>
<trkpt lat="53.499263" lon="-1.684058"><ele>255</ele><time>2022-04-08T09:49:22Z</time><name>PT148</name></trkpt>
<trkpt lat="53.499253" lon="-1.684070"><ele>256</ele><time>2022-04-08T09:49:23Z</time><name>PT149</name></trkpt>
<trkpt lat="53.499245" lon="-1.684085"><ele>257</ele><time>2022-04-08T09:49:24Z</time><name>PT150</name></trkpt>
<trkpt lat="53.499240" lon="-1.684106"><ele>257</ele><time>2022-04-08T09:49:25Z</time><name>PT151</name></trkpt>
<trkpt lat="53.499238" lon="-1.684125"><ele>258</ele><time>2022-04-08T09:49:26Z</time><name>PT152</name></trkpt>
<trkpt lat="53.499235" lon="-1.684126"><ele>258</ele><time>2022-04-08T09:49:28Z</time><name>PT153</name></trkpt>
<trkpt lat="53.499232" lon="-1.684128"><ele>258</ele><time>2022-04-08T09:49:28Z</time><name>PT154</name></trkpt>
<trkpt lat="53.499226" lon="-1.684137"><ele>258</ele><time>2022-04-08T09:49:29Z</time><name>PT155</name></trkpt>
<trkpt lat="53.499220" lon="-1.684141"><ele>257</ele><time>2022-04-08T09:49:30Z</time><name>PT156</name></trkpt>
<trkpt lat="53.499212" lon="-1.684152"><ele>257</ele><time>2022-04-08T09:49:31Z</time><name>PT157</name></trkpt>
<trkpt lat="53.499202" lon="-1.684161"><ele>258</ele><time>2022-04-08T09:49:32Z</time><name>PT158</name></trkpt>
<trkpt lat="53.499194" lon="-1.684185"><ele>257</ele><time>2022-04-08T09:49:34Z</time><name>PT159</name></trkpt>
<trkpt lat="53.499187" lon="-1.684201"><ele>258</ele><time>2022-04-08T09:49:34Z</time><name>PT160</name></trkpt>
<trkpt lat="53.499183" lon="-1.684209"><ele>259</ele><time>2022-04-08T09:49:35Z</time><name>PT161</name></trkpt>
<trkpt lat="53.499182" lon="-1.684216"><ele>259</ele><time>2022-04-08T09:49:36Z</time><name>PT162</name></trkpt>
<trkpt lat="53.499171" lon="-1.684234"><ele>258</ele><time>2022-04-08T09:49:40Z</time><name>PT163</name></trkpt>
<trkpt lat="53.499165" lon="-1.684265"><ele>257</ele><time>2022-04-08T09:49:41Z</time><name>PT164</name></trkpt>
<trkpt lat="53.499158" lon="-1.684289"><ele>256</ele><time>2022-04-08T09:49:42Z</time><name>PT165</name></trkpt>
<trkpt lat="53.499148" lon="-1.684307"><ele>256</ele><time>2022-04-08T09:49:43Z</time><name>PT166</name></trkpt>
<trkpt lat="53.499138" lon="-1.684324"><ele>255</ele><time>2022-04-08T09:49:44Z</time><name>PT167</name></trkpt>
<trkpt lat="53.499123" lon="-1.684345"><ele>255</ele><time>2022-04-08T09:49:45Z</time><name>PT168</name></trkpt>
<trkpt lat="53.499117" lon="-1.684363"><ele>255</ele><time>2022-04-08T09:49:46Z</time><name>PT169</name></trkpt>
<trkpt lat="53.499106" lon="-1.684372"><ele>255</ele><time>2022-04-08T09:49:48Z</time><name>PT170</name></trkpt>
<trkpt lat="53.499095" lon="-1.684387"><ele>255</ele><time>2022-04-08T09:49:48Z</time><name>PT171</name></trkpt>
<trkpt lat="53.499086" lon="-1.684412"><ele>255</ele><time>2022-04-08T09:49:49Z</time><name>PT172</name></trkpt>
<trkpt lat="53.499073" lon="-1.684440"><ele>256</ele><time>2022-04-08T09:49:50Z</time><name>PT173</name></trkpt>
<trkpt lat="53.499064" lon="-1.684475"><ele>255</ele><time>2022-04-08T09:49:51Z</time><name>PT174</name></trkpt>
<trkpt lat="53.499057" lon="-1.684493"><ele>256</ele><time>2022-04-08T09:49:52Z</time><name>PT175</name></trkpt>
<trkpt lat="53.499047" lon="-1.684515"><ele>257</ele><time>2022-04-08T09:49:53Z</time><name>PT176</name></trkpt>
<trkpt lat="53.499034" lon="-1.684534"><ele>258</ele><time>2022-04-08T09:49:54Z</time><name>PT177</name></trkpt>
<trkpt lat="53.499027" lon="-1.684545"><ele>258</ele><time>2022-04-08T09:49:55Z</time><name>PT178</name></trkpt>
<trkpt lat="53.499021" lon="-1.684553"><ele>258</ele><time>2022-04-08T09:49:56Z</time><name>PT179</name></trkpt>
<trkpt lat="53.499011" lon="-1.684565"><ele>258</ele><time>2022-04-08T09:49:57Z</time><name>PT180</name></trkpt>
<trkpt lat="53.499004" lon="-1.684589"><ele>256</ele><time>2022-04-08T09:49:58Z</time><name>PT181</name></trkpt>
<trkpt lat="53.498996" lon="-1.684609"><ele>256</ele><time>2022-04-08T09:49:59Z</time><name>PT182</name></trkpt>
<trkpt lat="53.498987" lon="-1.684622"><ele>257</ele><time>2022-04-08T09:50:00Z</time><name>PT183</name></trkpt>
<trkpt lat="53.498965" lon="-1.684674"><ele>259</ele><time>2022-04-08T09:50:04Z</time><name>PT184</name></trkpt>
<trkpt lat="53.498940" lon="-1.684737"><ele>257</ele><time>2022-04-08T09:50:07Z</time><name>PT185</name></trkpt>
<trkpt lat="53.498914" lon="-1.684801"><ele>256</ele><time>2022-04-08T09:50:11Z</time><name>PT186</name></trkpt>
<trkpt lat="53.498881" lon="-1.684852"><ele>256</ele><time>2022-04-08T09:50:16Z</time><name>PT187</name></trkpt>
<trkpt lat="53.498842" lon="-1.684915"><ele>256</ele><time>2022-04-08T09:50:19Z</time><name>PT188</name></trkpt>
<trkpt lat="53.498808" lon="-1.684947"><ele>255</ele><time>2022-04-08T09:50:23Z</time><name>PT189</name></trkpt>
<trkpt lat="53.498785" lon="-1.685000"><ele>254</ele><time>2022-04-08T09:50:27Z</time><name>PT190</name></trkpt>
<trkpt lat="53.498754" lon="-1.685044"><ele>253</ele><time>2022-04-08T09:50:31Z</time><name>PT191</name></trkpt>
<trkpt lat="53.498732" lon="-1.685097"><ele>251</ele><time>2022-04-08T09:50:35Z</time><name>PT192</name></trkpt>
<trkpt lat="53.498715" lon="-1.685139"><ele>248</ele><time>2022-04-08T09:50:39Z</time><name>PT193</name></trkpt>
<trkpt lat="53.498697" lon="-1.685210"><ele>249</ele><time>2022-04-08T09:50:44Z</time><name>PT194</name></trkpt>
<trkpt lat="53.498661" lon="-1.685302"><ele>251</ele><time>2022-04-08T09:50:47Z</time><name>PT195</name></trkpt>
<trkpt lat="53.498617" lon="-1.685398"><ele>255</ele><time>2022-04-08T09:50:51Z</time><name>PT196</name></trkpt>
<trkpt lat="53.498589" lon="-1.685459"><ele>258</ele><time>2022-04-08T09:50:55Z</time><name>PT197</name></trkpt>
<trkpt lat="53.498562" lon="-1.685520"><ele>258</ele><time>2022-04-08T09:50:59Z</time><name>PT198</name></trkpt>
<trkpt lat="53.498547" lon="-1.685577"><ele>256</ele><time>2022-04-08T09:51:03Z</time><name>PT199</name></trkpt>
<trkpt lat="53.498530" lon="-1.685641"><ele>254</ele><time>2022-04-08T09:51:07Z</time><name>PT200</name></trkpt>
<trkpt lat="53.498506" lon="-1.685697"><ele>253</ele><time>2022-04-08T09:51:12Z</time><name>PT201</name></trkpt>
<trkpt lat="53.498484" lon="-1.685766"><ele>255</ele><time>2022-04-08T09:51:15Z</time><name>PT202</name></trkpt>
<trkpt lat="53.498476" lon="-1.685815"><ele>257</ele><time>2022-04-08T09:51:18Z</time><name>PT203</name></trkpt>
<trkpt lat="53.498474" lon="-1.685833"><ele>257</ele><time>2022-04-08T09:51:18Z</time><name>PT204</name></trkpt>
<trkpt lat="53.498468" lon="-1.685844"><ele>257</ele><time>2022-04-08T09:51:19Z</time><name>PT205</name></trkpt>
<trkpt lat="53.498466" lon="-1.685858"><ele>257</ele><time>2022-04-08T09:51:20Z</time><name>PT206</name></trkpt>
<trkpt lat="53.498468" lon="-1.685891"><ele>255</ele><time>2022-04-08T09:51:21Z</time><name>PT207</name></trkpt>
<trkpt lat="53.498465" lon="-1.685914"><ele>255</ele><time>2022-04-08T09:51:22Z</time><name>PT208</name></trkpt>
<trkpt lat="53.498463" lon="-1.685938"><ele>255</ele><time>2022-04-08T09:51:23Z</time><name>PT209</name></trkpt>
<trkpt lat="53.498457" lon="-1.685963"><ele>255</ele><time>2022-04-08T09:51:24Z</time><name>PT210</name></trkpt>
<trkpt lat="53.498452" lon="-1.685982"><ele>255</ele><time>2022-04-08T09:51:25Z</time><name>PT211</name></trkpt>
<trkpt lat="53.498449" lon="-1.686004"><ele>255</ele><time>2022-04-08T09:51:26Z</time><name>PT212</name></trkpt>
<trkpt lat="53.498450" lon="-1.686024"><ele>254</ele><time>2022-04-08T09:51:27Z</time><name>PT213</name></trkpt>
<trkpt lat="53.498446" lon="-1.686042"><ele>254</ele><time>2022-04-08T09:51:28Z</time><name>PT214</name></trkpt>
<trkpt lat="53.498439" lon="-1.686061"><ele>254</ele><time>2022-04-08T09:51:30Z</time><name>PT215</name></trkpt>
<trkpt lat="53.498432" lon="-1.686078"><ele>254</ele><time>2022-04-08T09:51:30Z</time><name>PT216</name></trkpt>
<trkpt lat="53.498425" lon="-1.686096"><ele>254</ele><time>2022-04-08T09:51:31Z</time><name>PT217</name></trkpt>
<trkpt lat="53.498419" lon="-1.686113"><ele>253</ele><time>2022-04-08T09:51:32Z</time><name>PT218</name></trkpt>
<trkpt lat="53.498418" lon="-1.686133"><ele>253</ele><time>2022-04-08T09:51:33Z</time><name>PT219</name></trkpt>
<trkpt lat="53.498409" lon="-1.686143"><ele>254</ele><time>2022-04-08T09:51:34Z</time><name>PT220</name></trkpt>
<trkpt lat="53.498403" lon="-1.686150"><ele>254</ele><time>2022-04-08T09:51:35Z</time><name>PT221</name></trkpt>
<trkpt lat="53.498405" lon="-1.686163"><ele>254</ele><time>2022-04-08T09:51:36Z</time><name>PT222</name></trkpt>
<trkpt lat="53.498403" lon="-1.686179"><ele>254</ele><time>2022-04-08T09:51:37Z</time><name>PT223</name></trkpt>
<trkpt lat="53.498402" lon="-1.686188"><ele>254</ele><time>2022-04-08T09:51:38Z</time><name>PT224</name></trkpt>
<trkpt lat="53.498397" lon="-1.686212"><ele>255</ele><time>2022-04-08T09:51:40Z</time><name>PT225</name></trkpt>
<trkpt lat="53.498396" lon="-1.686235"><ele>254</ele><time>2022-04-08T09:51:40Z</time><name>PT226</name></trkpt>
<trkpt lat="53.498392" lon="-1.686254"><ele>254</ele><time>2022-04-08T09:51:41Z</time><name>PT227</name></trkpt>
<trkpt lat="53.498389" lon="-1.686273"><ele>255</ele><time>2022-04-08T09:51:42Z</time><name>PT228</name></trkpt>
<trkpt lat="53.498384" lon="-1.686290"><ele>255</ele><time>2022-04-08T09:51:43Z</time><name>PT229</name></trkpt>
<trkpt lat="53.498379" lon="-1.686307"><ele>255</ele><time>2022-04-08T09:51:44Z</time><name>PT230</name></trkpt>
<trkpt lat="53.498376" lon="-1.686324"><ele>256</ele><time>2022-04-08T09:51:45Z</time><name>PT231</name></trkpt>
<trkpt lat="53.498378" lon="-1.686342"><ele>255</ele><time>2022-04-08T09:51:46Z</time><name>PT232</name></trkpt>
<trkpt lat="53.498378" lon="-1.686358"><ele>255</ele><time>2022-04-08T09:51:47Z</time><name>PT233</name></trkpt>
<trkpt lat="53.498377" lon="-1.686386"><ele>255</ele><time>2022-04-08T09:51:48Z</time><name>PT234</name></trkpt>
<trkpt lat="53.498375" lon="-1.686415"><ele>255</ele><time>2022-04-08T09:51:49Z</time><name>PT235</name></trkpt>
<trkpt lat="53.498370" lon="-1.686435"><ele>255</ele><time>2022-04-08T09:51:50Z</time><name>PT236</name></trkpt>
<trkpt lat="53.498365" lon="-1.686453"><ele>255</ele><time>2022-04-08T09:51:51Z</time><name>PT237</name></trkpt>
<trkpt lat="53.498364" lon="-1.686475"><ele>254</ele><time>2022-04-08T09:51:52Z</time><name>PT238</name></trkpt>
<trkpt lat="53.498364" lon="-1.686500"><ele>254</ele><time>2022-04-08T09:51:54Z</time><name>PT239</name></trkpt>
<trkpt lat="53.498360" lon="-1.686515"><ele>254</ele><time>2022-04-08T09:51:54Z</time><name>PT240</name></trkpt>
<trkpt lat="53.498356" lon="-1.686525"><ele>254</ele><time>2022-04-08T09:51:55Z</time><name>PT241</name></trkpt>
<trkpt lat="53.498357" lon="-1.686535"><ele>253</ele><time>2022-04-08T09:51:56Z</time><name>PT242</name></trkpt>
<trkpt lat="53.498359" lon="-1.686546"><ele>254</ele><time>2022-04-08T09:51:57Z</time><name>PT243</name></trkpt>
<trkpt lat="53.498361" lon="-1.686563"><ele>253</ele><time>2022-04-08T09:51:58Z</time><name>PT244</name></trkpt>
<trkpt lat="53.498355" lon="-1.686587"><ele>254</ele><time>2022-04-08T09:51:59Z</time><name>PT245</name></trkpt>
<trkpt lat="53.498356" lon="-1.686605"><ele>254</ele><time>2022-04-08T09:52:00Z</time><name>PT246</name></trkpt>
<trkpt lat="53.498358" lon="-1.686616"><ele>254</ele><time>2022-04-08T09:52:01Z</time><name>PT247</name></trkpt>
<trkpt lat="53.498360" lon="-1.686630"><ele>253</ele><time>2022-04-08T09:52:02Z</time><name>PT248</name></trkpt>
<trkpt lat="53.498357" lon="-1.686642"><ele>253</ele><time>2022-04-08T09:52:03Z</time><name>PT249</name></trkpt>
<trkpt lat="53.498353" lon="-1.686662"><ele>253</ele><time>2022-04-08T09:52:04Z</time><name>PT250</name></trkpt>
<trkpt lat="53.498351" lon="-1.686680"><ele>252</ele><time>2022-04-08T09:52:05Z</time><name>PT251</name></trkpt>
<trkpt lat="53.498350" lon="-1.686698"><ele>251</ele><time>2022-04-08T09:52:06Z</time><name>PT252</name></trkpt>
<trkpt lat="53.498349" lon="-1.686715"><ele>251</ele><time>2022-04-08T09:52:08Z</time><name>PT253</name></trkpt>
<trkpt lat="53.498353" lon="-1.686734"><ele>252</ele><time>2022-04-08T09:52:08Z</time><name>PT254</name></trkpt>
<trkpt lat="53.498355" lon="-1.686749"><ele>252</ele><time>2022-04-08T09:52:09Z</time><name>PT255</name></trkpt>
<trkpt lat="53.498359" lon="-1.686762"><ele>250</ele><time>2022-04-08T09:52:10Z</time><name>PT256</name></trkpt>
<trkpt lat="53.498363" lon="-1.686775"><ele>249</ele><time>2022-04-08T09:52:11Z</time><name>PT257</name></trkpt>
<trkpt lat="53.498360" lon="-1.686803"><ele>250</ele><time>2022-04-08T09:52:12Z</time><name>PT258</name></trkpt>
<trkpt lat="53.498347" lon="-1.686841"><ele>251</ele><time>2022-04-08T09:52:13Z</time><name>PT259</name></trkpt>
<trkpt lat="53.498342" lon="-1.686860"><ele>250</ele><time>2022-04-08T09:52:14Z</time><name>PT260</name></trkpt>
<trkpt lat="53.498344" lon="-1.686885"><ele>249</ele><time>2022-04-08T09:52:15Z</time><name>PT261</name></trkpt>
<trkpt lat="53.498340" lon="-1.686903"><ele>249</ele><time>2022-04-08T09:52:16Z</time><name>PT262</name></trkpt>
<trkpt lat="53.498342" lon="-1.686916"><ele>247</ele><time>2022-04-08T09:52:17Z</time><name>PT263</name></trkpt>
<trkpt lat="53.498334" lon="-1.686943"><ele>248</ele><time>2022-04-08T09:52:18Z</time><name>PT264</name></trkpt>
<trkpt lat="53.498329" lon="-1.686951"><ele>249</ele><time>2022-04-08T09:52:19Z</time><name>PT265</name></trkpt>
<trkpt lat="53.498322" lon="-1.686976"><ele>250</ele><time>2022-04-08T09:52:20Z</time><name>PT266</name></trkpt>
<trkpt lat="53.498321" lon="-1.686990"><ele>250</ele><time>2022-04-08T09:52:21Z</time><name>PT267</name></trkpt>
<trkpt lat="53.498324" lon="-1.687007"><ele>249</ele><time>2022-04-08T09:52:22Z</time><name>PT268</name></trkpt>
<trkpt lat="53.498322" lon="-1.687026"><ele>249</ele><time>2022-04-08T09:52:23Z</time><name>PT269</name></trkpt>
<trkpt lat="53.498324" lon="-1.687038"><ele>249</ele><time>2022-04-08T09:52:24Z</time><name>PT270</name></trkpt>
<trkpt lat="53.498319" lon="-1.687057"><ele>249</ele><time>2022-04-08T09:52:25Z</time><name>PT271</name></trkpt>
<trkpt lat="53.498320" lon="-1.687077"><ele>250</ele><time>2022-04-08T09:52:26Z</time><name>PT272</name></trkpt>
<trkpt lat="53.498317" lon="-1.687089"><ele>250</ele><time>2022-04-08T09:52:27Z</time><name>PT273</name></trkpt>
<trkpt lat="53.498313" lon="-1.687105"><ele>250</ele><time>2022-04-08T09:52:28Z</time><name>PT274</name></trkpt>
<trkpt lat="53.498310" lon="-1.687139"><ele>250</ele><time>2022-04-08T09:52:29Z</time><name>PT275</name></trkpt>
<trkpt lat="53.498302" lon="-1.687161"><ele>250</ele><time>2022-04-08T09:52:30Z</time><name>PT276</name></trkpt>
<trkpt lat="53.498298" lon="-1.687183"><ele>251</ele><time>2022-04-08T09:52:31Z</time><name>PT277</name></trkpt>
<trkpt lat="53.498295" lon="-1.687202"><ele>252</ele><time>2022-04-08T09:52:32Z</time><name>PT278</name></trkpt>
<trkpt lat="53.498293" lon="-1.687229"><ele>252</ele><time>2022-04-08T09:52:33Z</time><name>PT279</name></trkpt>
<trkpt lat="53.498291" lon="-1.687245"><ele>252</ele><time>2022-04-08T09:52:34Z</time><name>PT280</name></trkpt>
<trkpt lat="53.498292" lon="-1.687260"><ele>252</ele><time>2022-04-08T09:52:36Z</time><name>PT281</name></trkpt>
<trkpt lat="53.498291" lon="-1.687271"><ele>252</ele><time>2022-04-08T09:52:36Z</time><name>PT282</name></trkpt>
<trkpt lat="53.498295" lon="-1.687292"><ele>252</ele><time>2022-04-08T09:52:39Z</time><name>PT283</name></trkpt>
<trkpt lat="53.498296" lon="-1.687319"><ele>252</ele><time>2022-04-08T09:52:40Z</time><name>PT284</name></trkpt>
<trkpt lat="53.498300" lon="-1.687350"><ele>251</ele><time>2022-04-08T09:52:41Z</time><name>PT285</name></trkpt>
<trkpt lat="53.498298" lon="-1.687386"><ele>250</ele><time>2022-04-08T09:52:42Z</time><name>PT286</name></trkpt>
<trkpt lat="53.498296" lon="-1.687419"><ele>250</ele><time>2022-04-08T09:52:43Z</time><name>PT287</name></trkpt>
<trkpt lat="53.498294" lon="-1.687448"><ele>248</ele><time>2022-04-08T09:52:44Z</time><name>PT288</name></trkpt>
<trkpt lat="53.498296" lon="-1.687466"><ele>248</ele><time>2022-04-08T09:52:45Z</time><name>PT289</name></trkpt>
<trkpt lat="53.498300" lon="-1.687483"><ele>248</ele><time>2022-04-08T09:52:46Z</time><name>PT290</name></trkpt>
<trkpt lat="53.498306" lon="-1.687501"><ele>248</ele><time>2022-04-08T09:52:47Z</time><name>PT291</name></trkpt>
<trkpt lat="53.498304" lon="-1.687521"><ele>248</ele><time>2022-04-08T09:52:48Z</time><name>PT292</name></trkpt>
<trkpt lat="53.498299" lon="-1.687553"><ele>248</ele><time>2022-04-08T09:52:50Z</time><name>PT293</name></trkpt>
<trkpt lat="53.498295" lon="-1.687567"><ele>247</ele><time>2022-04-08T09:52:50Z</time><name>PT294</name></trkpt>
<trkpt lat="53.498293" lon="-1.687590"><ele>247</ele><time>2022-04-08T09:52:51Z</time><name>PT295</name></trkpt>
<trkpt lat="53.498290" lon="-1.687605"><ele>246</ele><time>2022-04-08T09:52:52Z</time><name>PT296</name></trkpt>
<trkpt lat="53.498288" lon="-1.687621"><ele>246</ele><time>2022-04-08T09:52:53Z</time><name>PT297</name></trkpt>
<trkpt lat="53.498290" lon="-1.687638"><ele>245</ele><time>2022-04-08T09:52:54Z</time><name>PT298</name></trkpt>
<trkpt lat="53.498289" lon="-1.687652"><ele>245</ele><time>2022-04-08T09:52:55Z</time><name>PT299</name></trkpt>
<trkpt lat="53.498284" lon="-1.687675"><ele>245</ele><time>2022-04-08T09:52:56Z</time><name>PT300</name></trkpt>
<trkpt lat="53.498278" lon="-1.687698"><ele>246</ele><time>2022-04-08T09:52:57Z</time><name>PT301</name></trkpt>
<trkpt lat="53.498274" lon="-1.687721"><ele>246</ele><time>2022-04-08T09:52:58Z</time><name>PT302</name></trkpt>
<trkpt lat="53.498271" lon="-1.687739"><ele>246</ele><time>2022-04-08T09:52:59Z</time><name>PT303</name></trkpt>
<trkpt lat="53.498266" lon="-1.687760"><ele>247</ele><time>2022-04-08T09:53:00Z</time><name>PT304</name></trkpt>
<trkpt lat="53.498260" lon="-1.687785"><ele>247</ele><time>2022-04-08T09:53:01Z</time><name>PT305</name></trkpt>
<trkpt lat="53.498256" lon="-1.687806"><ele>247</ele><time>2022-04-08T09:53:02Z</time><name>PT306</name></trkpt>
<trkpt lat="53.498253" lon="-1.687829"><ele>247</ele><time>2022-04-08T09:53:04Z</time><name>PT307</name></trkpt>
<trkpt lat="53.498255" lon="-1.687849"><ele>247</ele><time>2022-04-08T09:53:04Z</time><name>PT308</name></trkpt>
<trkpt lat="53.498254" lon="-1.687878"><ele>247</ele><time>2022-04-08T09:53:05Z</time><name>PT309</name></trkpt>
<trkpt lat="53.498256" lon="-1.687898"><ele>247</ele><time>2022-04-08T09:53:06Z</time><name>PT310</name></trkpt>
<trkpt lat="53.498254" lon="-1.687902"><ele>246</ele><time>2022-04-08T09:53:07Z</time><name>PT311</name></trkpt>
<trkpt lat="53.498252" lon="-1.687916"><ele>246</ele><time>2022-04-08T09:53:08Z</time><name>PT312</name></trkpt>
<trkpt lat="53.498250" lon="-1.687932"><ele>246</ele><time>2022-04-08T09:53:09Z</time><name>PT313</name></trkpt>
<trkpt lat="53.498246" lon="-1.687952"><ele>247</ele><time>2022-04-08T09:53:10Z</time><name>PT314</name></trkpt>
<trkpt lat="53.498244" lon="-1.687974"><ele>247</ele><time>2022-04-08T09:53:11Z</time><name>PT315</name></trkpt>
<trkpt lat="53.498243" lon="-1.687983"><ele>247</ele><time>2022-04-08T09:53:12Z</time><name>PT316</name></trkpt>
<trkpt lat="53.498241" lon="-1.687995"><ele>248</ele><time>2022-04-08T09:53:13Z</time><name>PT317</name></trkpt>
<trkpt lat="53.498238" lon="-1.688015"><ele>248</ele><time>2022-04-08T09:53:14Z</time><name>PT318</name></trkpt>
<trkpt lat="53.498234" lon="-1.688047"><ele>248</ele><time>2022-04-08T09:53:15Z</time><name>PT319</name></trkpt>
<trkpt lat="53.498234" lon="-1.688064"><ele>248</ele><time>2022-04-08T09:53:16Z</time><name>PT320</name></trkpt>
<trkpt lat="53.498234" lon="-1.688079"><ele>247</ele><time>2022-04-08T09:53:18Z</time><name>PT321</name></trkpt>
<trkpt lat="53.498237" lon="-1.688162"><ele>249</ele><time>2022-04-08T09:53:21Z</time><name>PT322</name></trkpt>
<trkpt lat="53.498223" lon="-1.688243"><ele>250</ele><time>2022-04-08T09:53:25Z</time><name>PT323</name></trkpt>
<trkpt lat="53.498215" lon="-1.688356"><ele>251</ele><time>2022-04-08T09:53:29Z</time><name>PT324</name></trkpt>
<trkpt lat="53.498223" lon="-1.688435"><ele>252</ele><time>2022-04-08T09:53:33Z</time><name>PT325</name></trkpt>
<trkpt lat="53.498223" lon="-1.688529"><ele>251</ele><time>2022-04-08T09:53:37Z</time><name>PT326</name></trkpt>
<trkpt lat="53.498208" lon="-1.688640"><ele>252</ele><time>2022-04-08T09:53:41Z</time><name>PT327</name></trkpt>
<trkpt lat="53.498217" lon="-1.688728"><ele>252</ele><time>2022-04-08T09:53:45Z</time><name>PT328</name></trkpt>
<trkpt lat="53.498234" lon="-1.688788"><ele>250</ele><time>2022-04-08T09:53:49Z</time><name>PT329</name></trkpt>
<trkpt lat="53.498232" lon="-1.688857"><ele>250</ele><time>2022-04-08T09:53:53Z</time><name>PT330</name></trkpt>
<trkpt lat="53.498234" lon="-1.688943"><ele>250</ele><time>2022-04-08T09:53:57Z</time><name>PT331</name></trkpt>
<trkpt lat="53.498222" lon="-1.689014"><ele>250</ele><time>2022-04-08T09:54:01Z</time><name>PT332</name></trkpt>
<trkpt lat="53.498250" lon="-1.689083"><ele>251</ele><time>2022-04-08T09:54:05Z</time><name>PT333</name></trkpt>
<trkpt lat="53.498264" lon="-1.689149"><ele>250</ele><time>2022-04-08T09:54:09Z</time><name>PT334</name></trkpt>
<trkpt lat="53.498290" lon="-1.689220"><ele>250</ele><time>2022-04-08T09:54:13Z</time><name>PT335</name></trkpt>
<trkpt lat="53.498297" lon="-1.689316"><ele>251</ele><time>2022-04-08T09:54:17Z</time><name>PT336</name></trkpt>
<trkpt lat="53.498316" lon="-1.689405"><ele>252</ele><time>2022-04-08T09:54:21Z</time><name>PT337</name></trkpt>
<trkpt lat="53.498334" lon="-1.689450"><ele>253</ele><time>2022-04-08T09:54:25Z</time><name>PT338</name></trkpt>
<trkpt lat="53.498372" lon="-1.689525"><ele>250</ele><time>2022-04-08T09:54:29Z</time><name>PT339</name></trkpt>
<trkpt lat="53.498389" lon="-1.689640"><ele>252</ele><time>2022-04-08T09:54:33Z</time><name>PT340</name></trkpt>
<trkpt lat="53.498408" lon="-1.689704"><ele>251</ele><time>2022-04-08T09:54:37Z</time><name>PT341</name></trkpt>
<trkpt lat="53.498419" lon="-1.689776"><ele>252</ele><time>2022-04-08T09:54:42Z</time><name>PT342</name></trkpt>
<trkpt lat="53.498451" lon="-1.689854"><ele>251</ele><time>2022-04-08T09:54:45Z</time><name>PT343</name></trkpt>
<trkpt lat="53.498476" lon="-1.689919"><ele>251</ele><time>2022-04-08T09:54:49Z</time><name>PT344</name></trkpt>
<trkpt lat="53.498501" lon="-1.689994"><ele>251</ele><time>2022-04-08T09:54:53Z</time><name>PT345</name></trkpt>
<trkpt lat="53.498528" lon="-1.690094"><ele>252</ele><time>2022-04-08T09:54:57Z</time><name>PT346</name></trkpt>
<trkpt lat="53.498561" lon="-1.690196"><ele>254</ele><time>2022-04-08T09:55:01Z</time><name>PT347</name></trkpt>
<trkpt lat="53.498585" lon="-1.690286"><ele>252</ele><time>2022-04-08T09:55:05Z</time><name>PT348</name></trkpt>
<trkpt lat="53.498617" lon="-1.690354"><ele>252</ele><time>2022-04-08T09:55:10Z</time><name>PT349</name></trkpt>
<trkpt lat="53.498648" lon="-1.690401"><ele>250</ele><time>2022-04-08T09:55:13Z</time><name>PT350</name></trkpt>
<trkpt lat="53.498677" lon="-1.690424"><ele>249</ele><time>2022-04-08T09:55:17Z</time><name>PT351</name></trkpt>
<trkpt lat="53.498713" lon="-1.690457"><ele>247</ele><time>2022-04-08T09:55:21Z</time><name>PT352</name></trkpt>
<trkpt lat="53.498742" lon="-1.690519"><ele>248</ele><time>2022-04-08T09:55:25Z</time><name>PT353</name></trkpt>
<trkpt lat="53.498764" lon="-1.690554"><ele>248</ele><time>2022-04-08T09:55:29Z</time><name>PT354</name></trkpt>
<trkpt lat="53.498773" lon="-1.690621"><ele>249</ele><time>2022-04-08T09:55:33Z</time><name>PT355</name></trkpt>
<trkpt lat="53.498794" lon="-1.690716"><ele>249</ele><time>2022-04-08T09:55:37Z</time><name>PT356</name></trkpt>
<trkpt lat="53.498801" lon="-1.690834"><ele>252</ele><time>2022-04-08T09:55:41Z</time><name>PT357</name></trkpt>
<trkpt lat="53.498808" lon="-1.690930"><ele>254</ele><time>2022-04-08T09:55:45Z</time><name>PT358</name></trkpt>
<trkpt lat="53.498818" lon="-1.691008"><ele>256</ele><time>2022-04-08T09:55:49Z</time><name>PT359</name></trkpt>
<trkpt lat="53.498817" lon="-1.691106"><ele>256</ele><time>2022-04-08T09:55:53Z</time><name>PT360</name></trkpt>
<trkpt lat="53.498832" lon="-1.691178"><ele>256</ele><time>2022-04-08T09:55:57Z</time><name>PT361</name></trkpt>
<trkpt lat="53.498836" lon="-1.691243"><ele>257</ele><time>2022-04-08T09:56:01Z</time><name>PT362</name></trkpt>
<trkpt lat="53.498834" lon="-1.691313"><ele>256</ele><time>2022-04-08T09:56:05Z</time><name>PT363</name></trkpt>
<trkpt lat="53.498847" lon="-1.691397"><ele>254</ele><time>2022-04-08T09:56:09Z</time><name>PT364</name></trkpt>
<trkpt lat="53.498858" lon="-1.691462"><ele>254</ele><time>2022-04-08T09:56:13Z</time><name>PT365</name></trkpt>
<trkpt lat="53.498874" lon="-1.691553"><ele>255</ele><time>2022-04-08T09:56:17Z</time><name>PT366</name></trkpt>
<trkpt lat="53.498877" lon="-1.691637"><ele>254</ele><time>2022-04-08T09:56:21Z</time><name>PT367</name></trkpt>
<trkpt lat="53.498902" lon="-1.691714"><ele>252</ele><time>2022-04-08T09:56:25Z</time><name>PT368</name></trkpt>
<trkpt lat="53.498927" lon="-1.691792"><ele>250</ele><time>2022-04-08T09:56:29Z</time><name>PT369</name></trkpt>
<trkpt lat="53.498944" lon="-1.691869"><ele>251</ele><time>2022-04-08T09:56:33Z</time><name>PT370</name></trkpt>
<trkpt lat="53.498960" lon="-1.691937"><ele>252</ele><time>2022-04-08T09:56:37Z</time><name>PT371</name></trkpt>
<trkpt lat="53.498986" lon="-1.691986"><ele>249</ele><time>2022-04-08T09:56:41Z</time><name>PT372</name></trkpt>
<trkpt lat="53.499008" lon="-1.692057"><ele>249</ele><time>2022-04-08T09:56:45Z</time><name>PT373</name></trkpt>
<trkpt lat="53.499025" lon="-1.692118"><ele>250</ele><time>2022-04-08T09:56:49Z</time><name>PT374</name></trkpt>
<trkpt lat="53.499042" lon="-1.692185"><ele>250</ele><time>2022-04-08T09:56:53Z</time><name>PT375</name></trkpt>
<trkpt lat="53.499049" lon="-1.692250"><ele>250</ele><time>2022-04-08T09:56:57Z</time><name>PT376</name></trkpt>
<trkpt lat="53.499063" lon="-1.692304"><ele>249</ele><time>2022-04-08T09:57:01Z</time><name>PT377</name></trkpt>
<trkpt lat="53.499085" lon="-1.692374"><ele>249</ele><time>2022-04-08T09:57:05Z</time><name>PT378</name></trkpt>
<trkpt lat="53.499104" lon="-1.692436"><ele>248</ele><time>2022-04-08T09:57:09Z</time><name>PT379</name></trkpt>
<trkpt lat="53.499138" lon="-1.692507"><ele>247</ele><time>2022-04-08T09:57:13Z</time><name>PT380</name></trkpt>
<trkpt lat="53.499151" lon="-1.692578"><ele>247</ele><time>2022-04-08T09:57:17Z</time><name>PT381</name></trkpt>
<trkpt lat="53.499182" lon="-1.692611"><ele>245</ele><time>2022-04-08T09:57:21Z</time><name>PT382</name></trkpt>
<trkpt lat="53.499213" lon="-1.692684"><ele>243</ele><time>2022-04-08T09:57:25Z</time><name>PT383</name></trkpt>
<trkpt lat="53.499237" lon="-1.692781"><ele>245</ele><time>2022-04-08T09:57:30Z</time><name>PT384</name></trkpt>
<trkpt lat="53.499262" lon="-1.692883"><ele>246</ele><time>2022-04-08T09:57:33Z</time><name>PT385</name></trkpt>
<trkpt lat="53.499275" lon="-1.692964"><ele>246</ele><time>2022-04-08T09:57:37Z</time><name>PT386</name></trkpt>
<trkpt lat="53.499277" lon="-1.693099"><ele>250</ele><time>2022-04-08T09:57:41Z</time><name>PT387</name></trkpt>
<trkpt lat="53.499297" lon="-1.693202"><ele>251</ele><time>2022-04-08T09:57:45Z</time><name>PT388</name></trkpt>
<trkpt lat="53.499331" lon="-1.693287"><ele>251</ele><time>2022-04-08T09:57:49Z</time><name>PT389</name></trkpt>
<trkpt lat="53.499352" lon="-1.693350"><ele>252</ele><time>2022-04-08T09:57:52Z</time><name>PT390</name></trkpt>
<trkpt lat="53.499371" lon="-1.693430"><ele>250</ele><time>2022-04-08T09:57:57Z</time><name>PT391</name></trkpt>
<trkpt lat="53.499396" lon="-1.693505"><ele>249</ele><time>2022-04-08T09:58:00Z</time><name>PT392</name></trkpt>
<trkpt lat="53.499419" lon="-1.693599"><ele>250</ele><time>2022-04-08T09:58:04Z</time><name>PT393</name></trkpt>
<trkpt lat="53.499446" lon="-1.693651"><ele>248</ele><time>2022-04-08T09:58:08Z</time><name>PT394</name></trkpt>
<trkpt lat="53.499460" lon="-1.693742"><ele>248</ele><time>2022-04-08T09:58:12Z</time><name>PT395</name></trkpt>
<trkpt lat="53.499468" lon="-1.693853"><ele>247</ele><time>2022-04-08T09:58:16Z</time><name>PT396</name></trkpt>
<trkpt lat="53.499488" lon="-1.693943"><ele>247</ele><time>2022-04-08T09:58:20Z</time><name>PT397</name></trkpt>
<trkpt lat="53.499516" lon="-1.694006"><ele>249</ele><time>2022-04-08T09:58:24Z</time><name>PT398</name></trkpt>
<trkpt lat="53.499540" lon="-1.694078"><ele>248</ele><time>2022-04-08T09:58:28Z</time><name>PT399</name></trkpt>
<trkpt lat="53.499564" lon="-1.694175"><ele>249</ele><time>2022-04-08T09:58:32Z</time><name>PT400</name></trkpt>
<trkpt lat="53.499605" lon="-1.694246"><ele>248</ele><time>2022-04-08T09:58:36Z</time><name>PT401</name></trkpt>
<trkpt lat="53.499623" lon="-1.694315"><ele>248</ele><time>2022-04-08T09:58:40Z</time><name>PT402</name></trkpt>
<trkpt lat="53.499641" lon="-1.694374"><ele>246</ele><time>2022-04-08T09:58:44Z</time><name>PT403</name></trkpt>
<trkpt lat="53.499663" lon="-1.694441"><ele>246</ele><time>2022-04-08T09:58:48Z</time><name>PT404</name></trkpt>
<trkpt lat="53.499694" lon="-1.694506"><ele>245</ele><time>2022-04-08T09:58:53Z</time><name>PT405</name></trkpt>
<trkpt lat="53.499707" lon="-1.694588"><ele>245</ele><time>2022-04-08T09:58:56Z</time><name>PT406</name></trkpt>
<trkpt lat="53.499727" lon="-1.694659"><ele>245</ele><time>2022-04-08T09:59:00Z</time><name>PT407</name></trkpt>
<trkpt lat="53.499734" lon="-1.694766"><ele>247</ele><time>2022-04-08T09:59:04Z</time><name>PT408</name></trkpt>
<trkpt lat="53.499740" lon="-1.694843"><ele>250</ele><time>2022-04-08T09:59:08Z</time><name>PT409</name></trkpt>
<trkpt lat="53.499753" lon="-1.694884"><ele>249</ele><time>2022-04-08T09:59:12Z</time><name>PT410</name></trkpt>
<trkpt lat="53.499804" lon="-1.694978"><ele>248</ele><time>2022-04-08T09:59:16Z</time><name>PT411</name></trkpt>
<trkpt lat="53.499812" lon="-1.695057"><ele>249</ele><time>2022-04-08T09:59:21Z</time><name>PT412</name></trkpt>
<trkpt lat="53.499841" lon="-1.695129"><ele>246</ele><time>2022-04-08T09:59:24Z</time><name>PT413</name></trkpt>
<trkpt lat="53.499860" lon="-1.695193"><ele>245</ele><time>2022-04-08T09:59:28Z</time><name>PT414</name></trkpt>
<trkpt lat="53.499880" lon="-1.695219"><ele>244</ele><time>2022-04-08T09:59:32Z</time><name>PT415</name></trkpt>
<trkpt lat="53.499914" lon="-1.695275"><ele>242</ele><time>2022-04-08T09:59:36Z</time><name>PT416</name></trkpt>
<trkpt lat="53.499950" lon="-1.695349"><ele>243</ele><time>2022-04-08T09:59:40Z</time><name>PT417</name></trkpt>
<trkpt lat="53.499983" lon="-1.695391"><ele>244</ele><time>2022-04-08T09:59:44Z</time><name>PT418</name></trkpt>
<trkpt lat="53.500011" lon="-1.695511"><ele>244</ele><time>2022-04-08T09:59:49Z</time><name>PT419</name></trkpt>
<trkpt lat="53.500041" lon="-1.695604"><ele>247</ele><time>2022-04-08T09:59:52Z</time><name>PT420</name></trkpt>
<trkpt lat="53.500070" lon="-1.695670"><ele>248</ele><time>2022-04-08T09:59:56Z</time><name>PT421</name></trkpt>
<trkpt lat="53.500110" lon="-1.695734"><ele>251</ele><time>2022-04-08T10:00:00Z</time><name>PT422</name></trkpt>
<trkpt lat="53.500144" lon="-1.695793"><ele>252</ele><time>2022-04-08T10:00:04Z</time><name>PT423</name></trkpt>
<trkpt lat="53.500176" lon="-1.695826"><ele>253</ele><time>2022-04-08T10:00:08Z</time><name>PT424</name></trkpt>
<trkpt lat="53.500208" lon="-1.695863"><ele>253</ele><time>2022-04-08T10:00:12Z</time><name>PT425</name></trkpt>
<trkpt lat="53.500236" lon="-1.695924"><ele>251</ele><time>2022-04-08T10:00:16Z</time><name>PT426</name></trkpt>
<trkpt lat="53.500274" lon="-1.695958"><ele>254</ele><time>2022-04-08T10:00:20Z</time><name>PT427</name></trkpt>
<trkpt lat="53.500326" lon="-1.696010"><ele>252</ele><time>2022-04-08T10:00:24Z</time><name>PT428</name></trkpt>
<trkpt lat="53.500362" lon="-1.696068"><ele>251</ele><time>2022-04-08T10:00:28Z</time><name>PT429</name></trkpt>
<trkpt lat="53.500397" lon="-1.696093"><ele>249</ele><time>2022-04-08T10:00:32Z</time><name>PT430</name></trkpt>
<trkpt lat="53.500422" lon="-1.696153"><ele>247</ele><time>2022-04-08T10:00:36Z</time><name>PT431</name></trkpt>
<trkpt lat="53.500452" lon="-1.696224"><ele>248</ele><time>2022-04-08T10:00:40Z</time><name>PT432</name></trkpt>
<trkpt lat="53.500491" lon="-1.696314"><ele>247</ele><time>2022-04-08T10:00:44Z</time><name>PT433</name></trkpt>
<trkpt lat="53.500530" lon="-1.696346"><ele>248</ele><time>2022-04-08T10:00:48Z</time><name>PT434</name></trkpt>
<trkpt lat="53.500565" lon="-1.696368"><ele>246</ele><time>2022-04-08T10:00:52Z</time><name>PT435</name></trkpt>
<trkpt lat="53.500601" lon="-1.696424"><ele>246</ele><time>2022-04-08T10:00:56Z</time><name>PT436</name></trkpt>
<trkpt lat="53.500658" lon="-1.696455"><ele>246</ele><time>2022-04-08T10:01:00Z</time><name>PT437</name></trkpt>
<trkpt lat="53.500697" lon="-1.696528"><ele>243</ele><time>2022-04-08T10:01:04Z</time><name>PT438</name></trkpt>
<trkpt lat="53.500734" lon="-1.696570"><ele>243</ele><time>2022-04-08T10:01:08Z</time><name>PT439</name></trkpt>
<trkpt lat="53.500759" lon="-1.696605"><ele>243</ele><time>2022-04-08T10:01:12Z</time><name>PT440</name></trkpt>
<trkpt lat="53.500793" lon="-1.696766"><ele>247</ele><time>2022-04-08T10:01:16Z</time><name>PT441</name></trkpt>
<trkpt lat="53.500817" lon="-1.696849"><ele>250</ele><time>2022-04-08T10:01:20Z</time><name>PT442</name></trkpt>
<trkpt lat="53.500826" lon="-1.696949"><ele>251</ele><time>2022-04-08T10:01:24Z</time><name>PT443</name></trkpt>
<trkpt lat="53.500842" lon="-1.697021"><ele>250</ele><time>2022-04-08T10:01:28Z</time><name>PT444</name></trkpt>
<trkpt lat="53.500857" lon="-1.697081"><ele>252</ele><time>2022-04-08T10:01:32Z</time><name>PT445</name></trkpt>
<trkpt lat="53.500862" lon="-1.697112"><ele>253</ele><time>2022-04-08T10:01:33Z</time><name>PT446</name></trkpt>
<trkpt lat="53.500868" lon="-1.697139"><ele>251</ele><time>2022-04-08T10:01:34Z</time><name>PT447</name></trkpt>
<trkpt lat="53.500884" lon="-1.697161"><ele>252</ele><time>2022-04-08T10:01:35Z</time><name>PT448</name></trkpt>
<trkpt lat="53.500895" lon="-1.697183"><ele>254</ele><time>2022-04-08T10:01:36Z</time><name>PT449</name></trkpt>
<trkpt lat="53.500905" lon="-1.697224"><ele>254</ele><time>2022-04-08T10:01:37Z</time><name>PT450</name></trkpt>
<trkpt lat="53.500915" lon="-1.697255"><ele>256</ele><time>2022-04-08T10:01:38Z</time><name>PT451</name></trkpt>
<trkpt lat="53.500924" lon="-1.697281"><ele>256</ele><time>2022-04-08T10:01:39Z</time><name>PT452</name></trkpt>
<trkpt lat="53.500932" lon="-1.697293"><ele>257</ele><time>2022-04-08T10:01:40Z</time><name>PT453</name></trkpt>
<trkpt lat="53.500940" lon="-1.697301"><ele>257</ele><time>2022-04-08T10:01:41Z</time><name>PT454</name></trkpt>
<trkpt lat="53.500950" lon="-1.697309"><ele>257</ele><time>2022-04-08T10:01:42Z</time><name>PT455</name></trkpt>
<trkpt lat="53.500965" lon="-1.697325"><ele>256</ele><time>2022-04-08T10:01:43Z</time><name>PT456</name></trkpt>
<trkpt lat="53.500977" lon="-1.697343"><ele>256</ele><time>2022-04-08T10:01:44Z</time><name>PT457</name></trkpt>
<trkpt lat="53.500983" lon="-1.697351"><ele>257</ele><time>2022-04-08T10:01:45Z</time><name>PT458</name></trkpt>
<trkpt lat="53.500998" lon="-1.697362"><ele>256</ele><time>2022-04-08T10:01:46Z</time><name>PT459</name></trkpt>
<trkpt lat="53.501016" lon="-1.697377"><ele>255</ele><time>2022-04-08T10:01:47Z</time><name>PT460</name></trkpt>
<trkpt lat="53.501023" lon="-1.697389"><ele>255</ele><time>2022-04-08T10:01:48Z</time><name>PT461</name></trkpt>
<trkpt lat="53.501033" lon="-1.697411"><ele>255</ele><time>2022-04-08T10:01:49Z</time><name>PT462</name></trkpt>
<trkpt lat="53.501047" lon="-1.697426"><ele>255</ele><time>2022-04-08T10:01:50Z</time><name>PT463</name></trkpt>
<trkpt lat="53.501056" lon="-1.697443"><ele>253</ele><time>2022-04-08T10:01:51Z</time><name>PT464</name></trkpt>
<trkpt lat="53.501064" lon="-1.697459"><ele>252</ele><time>2022-04-08T10:01:52Z</time><name>PT465</name></trkpt>
<trkpt lat="53.501072" lon="-1.697464"><ele>251</ele><time>2022-04-08T10:01:53Z</time><name>PT466</name></trkpt>
<trkpt lat="53.501080" lon="-1.697474"><ele>252</ele><time>2022-04-08T10:01:55Z</time><name>PT467</name></trkpt>
<trkpt lat="53.501092" lon="-1.697486"><ele>252</ele><time>2022-04-08T10:01:55Z</time><name>PT468</name></trkpt>
<trkpt lat="53.501104" lon="-1.697484"><ele>251</ele><time>2022-04-08T10:01:56Z</time><name>PT469</name></trkpt>
<trkpt lat="53.501112" lon="-1.697505"><ele>251</ele><time>2022-04-08T10:01:57Z</time><name>PT470</name></trkpt>
<trkpt lat="53.501122" lon="-1.697521"><ele>251</ele><time>2022-04-08T10:01:58Z</time><name>PT471</name></trkpt>
<trkpt lat="53.501129" lon="-1.697527"><ele>250</ele><time>2022-04-08T10:01:59Z</time><name>PT472</name></trkpt>
<trkpt lat="53.501139" lon="-1.697538"><ele>251</ele><time>2022-04-08T10:02:00Z</time><name>PT473</name></trkpt>
<trkpt lat="53.501147" lon="-1.697546"><ele>250</ele><time>2022-04-08T10:02:01Z</time><name>PT474</name></trkpt>
<trkpt lat="53.501153" lon="-1.697559"><ele>251</ele><time>2022-04-08T10:02:02Z</time><name>PT475</name></trkpt>
<trkpt lat="53.501153" lon="-1.697569"><ele>250</ele><time>2022-04-08T10:02:03Z</time><name>PT476</name></trkpt>
<trkpt lat="53.501157" lon="-1.697582"><ele>250</ele><time>2022-04-08T10:02:04Z</time><name>PT477</name></trkpt>
<trkpt lat="53.501164" lon="-1.697589"><ele>250</ele><time>2022-04-08T10:02:05Z</time><name>PT478</name></trkpt>
<trkpt lat="53.501169" lon="-1.697600"><ele>249</ele><time>2022-04-08T10:02:06Z</time><name>PT479</name></trkpt>
<trkpt lat="53.501176" lon="-1.697621"><ele>249</ele><time>2022-04-08T10:02:07Z</time><name>PT480</name></trkpt>
<trkpt lat="53.501184" lon="-1.697631"><ele>249</ele><time>2022-04-08T10:02:08Z</time><name>PT481</name></trkpt>
<trkpt lat="53.501189" lon="-1.697646"><ele>249</ele><time>2022-04-08T10:02:09Z</time><name>PT482</name></trkpt>
<trkpt lat="53.501198" lon="-1.697682"><ele>250</ele><time>2022-04-08T10:02:10Z</time><name>PT483</name></trkpt>
<trkpt lat="53.501206" lon="-1.697684"><ele>249</ele><time>2022-04-08T10:02:11Z</time><name>PT484</name></trkpt>
<trkpt lat="53.501215" lon="-1.697690"><ele>248</ele><time>2022-04-08T10:02:12Z</time><name>PT485</name></trkpt>
<trkpt lat="53.501226" lon="-1.697715"><ele>250</ele><time>2022-04-08T10:02:13Z</time><name>PT486</name></trkpt>
<trkpt lat="53.501232" lon="-1.697724"><ele>249</ele><time>2022-04-08T10:02:14Z</time><name>PT487</name></trkpt>
<trkpt lat="53.501242" lon="-1.697754"><ele>248</ele><time>2022-04-08T10:02:15Z</time><name>PT488</name></trkpt>
<trkpt lat="53.501247" lon="-1.697756"><ele>247</ele><time>2022-04-08T10:02:16Z</time><name>PT489</name></trkpt>
<trkpt lat="53.501259" lon="-1.697761"><ele>247</ele><time>2022-04-08T10:02:17Z</time><name>PT490</name></trkpt>
<trkpt lat="53.501266" lon="-1.697777"><ele>246</ele><time>2022-04-08T10:02:18Z</time><name>PT491</name></trkpt>
<trkpt lat="53.501274" lon="-1.697789"><ele>247</ele><time>2022-04-08T10:02:19Z</time><name>PT492</name></trkpt>
<trkpt lat="53.501280" lon="-1.697810"><ele>247</ele><time>2022-04-08T10:02:20Z</time><name>PT493</name></trkpt>
<trkpt lat="53.501294" lon="-1.697820"><ele>250</ele><time>2022-04-08T10:02:21Z</time><name>PT494</name></trkpt>
<trkpt lat="53.501302" lon="-1.697831"><ele>250</ele><time>2022-04-08T10:02:22Z</time><name>PT495</name></trkpt>
<trkpt lat="53.501312" lon="-1.697837"><ele>251</ele><time>2022-04-08T10:02:23Z</time><name>PT496</name></trkpt>
<trkpt lat="53.501323" lon="-1.697865"><ele>250</ele><time>2022-04-08T10:02:24Z</time><name>PT497</name></trkpt>
<trkpt lat="53.501332" lon="-1.697888"><ele>249</ele><time>2022-04-08T10:02:25Z</time><name>PT498</name></trkpt>
<trkpt lat="53.501340" lon="-1.697917"><ele>250</ele><time>2022-04-08T10:02:26Z</time><name>PT499</name></trkpt>
<trkpt lat="53.501347" lon="-1.697946"><ele>250</ele><time>2022-04-08T10:02:27Z</time><name>PT500</name></trkpt>
<trkpt lat="53.501364" lon="-1.697982"><ele>251</ele><time>2022-04-08T10:02:28Z</time><name>PT501</name></trkpt>
<trkpt lat="53.501375" lon="-1.697985"><ele>251</ele><time>2022-04-08T10:02:29Z</time><name>PT502</name></trkpt>
<trkpt lat="53.501386" lon="-1.697986"><ele>250</ele><time>2022-04-08T10:02:30Z</time><name>PT503</name></trkpt>
<trkpt lat="53.501401" lon="-1.698015"><ele>250</ele><time>2022-04-08T10:02:31Z</time><name>PT504</name></trkpt>
<trkpt lat="53.501412" lon="-1.698038"><ele>251</ele><time>2022-04-08T10:02:32Z</time><name>PT505</name></trkpt>
<trkpt lat="53.501422" lon="-1.698058"><ele>251</ele><time>2022-04-08T10:02:33Z</time><name>PT506</name></trkpt>
<trkpt lat="53.501428" lon="-1.698094"><ele>250</ele><time>2022-04-08T10:02:34Z</time><name>PT507</name></trkpt>
<trkpt lat="53.501436" lon="-1.698105"><ele>250</ele><time>2022-04-08T10:02:35Z</time><name>PT508</name></trkpt>
<trkpt lat="53.501448" lon="-1.698123"><ele>251</ele><time>2022-04-08T10:02:36Z</time><name>PT509</name></trkpt>
<trkpt lat="53.501455" lon="-1.698132"><ele>251</ele><time>2022-04-08T10:02:37Z</time><name>PT510</name></trkpt>
<trkpt lat="53.501464" lon="-1.698137"><ele>250</ele><time>2022-04-08T10:02:38Z</time><name>PT511</name></trkpt>
<trkpt lat="53.501474" lon="-1.698160"><ele>246</ele><time>2022-04-08T10:02:39Z</time><name>PT512</name></trkpt>
<trkpt lat="53.501487" lon="-1.698190"><ele>247</ele><time>2022-04-08T10:02:40Z</time><name>PT513</name></trkpt>
<trkpt lat="53.501500" lon="-1.698208"><ele>247</ele><time>2022-04-08T10:02:41Z</time><name>PT514</name></trkpt>
<trkpt lat="53.501509" lon="-1.698216"><ele>249</ele><time>2022-04-08T10:02:42Z</time><name>PT515</name></trkpt>
<trkpt lat="53.501514" lon="-1.698230"><ele>249</ele><time>2022-04-08T10:02:43Z</time><name>PT516</name></trkpt>
<trkpt lat="53.501522" lon="-1.698251"><ele>250</ele><time>2022-04-08T10:02:44Z</time><name>PT517</name></trkpt>
<trkpt lat="53.501528" lon="-1.698262"><ele>250</ele><time>2022-04-08T10:02:45Z</time><name>PT518</name></trkpt>
<trkpt lat="53.501537" lon="-1.698283"><ele>249</ele><time>2022-04-08T10:02:46Z</time><name>PT519</name></trkpt>
<trkpt lat="53.501545" lon="-1.698306"><ele>250</ele><time>2022-04-08T10:02:47Z</time><name>PT520</name></trkpt>
<trkpt lat="53.501550" lon="-1.698322"><ele>251</ele><time>2022-04-08T10:02:48Z</time><name>PT521</name></trkpt>
<trkpt lat="53.501559" lon="-1.698336"><ele>252</ele><time>2022-04-08T10:02:49Z</time><name>PT522</name></trkpt>
<trkpt lat="53.501565" lon="-1.698347"><ele>252</ele><time>2022-04-08T10:02:50Z</time><name>PT523</name></trkpt>
<trkpt lat="53.501573" lon="-1.698373"><ele>253</ele><time>2022-04-08T10:02:51Z</time><name>PT524</name></trkpt>
<trkpt lat="53.501582" lon="-1.698376"><ele>253</ele><time>2022-04-08T10:02:52Z</time><name>PT525</name></trkpt>
<trkpt lat="53.501590" lon="-1.698384"><ele>253</ele><time>2022-04-08T10:02:53Z</time><name>PT526</name></trkpt>
<trkpt lat="53.501596" lon="-1.698384"><ele>252</ele><time>2022-04-08T10:02:54Z</time><name>PT527</name></trkpt>
<trkpt lat="53.501603" lon="-1.698388"><ele>252</ele><time>2022-04-08T10:02:55Z</time><name>PT528</name></trkpt>
<trkpt lat="53.501613" lon="-1.698393"><ele>252</ele><time>2022-04-08T10:02:56Z</time><name>PT529</name></trkpt>
<trkpt lat="53.501619" lon="-1.698405"><ele>252</ele><time>2022-04-08T10:02:57Z</time><name>PT530</name></trkpt>
<trkpt lat="53.501624" lon="-1.698425"><ele>253</ele><time>2022-04-08T10:02:58Z</time><name>PT531</name></trkpt>
<trkpt lat="53.501637" lon="-1.698453"><ele>253</ele><time>2022-04-08T10:02:59Z</time><name>PT532</name></trkpt>
<trkpt lat="53.501644" lon="-1.698493"><ele>257</ele><time>2022-04-08T10:03:00Z</time><name>PT533</name></trkpt>
<trkpt lat="53.501650" lon="-1.698514"><ele>258</ele><time>2022-04-08T10:03:01Z</time><name>PT534</name></trkpt>
<trkpt lat="53.501659" lon="-1.698516"><ele>258</ele><time>2022-04-08T10:03:02Z</time><name>PT535</name></trkpt>
<trkpt lat="53.501668" lon="-1.698540"><ele>259</ele><time>2022-04-08T10:03:03Z</time><name>PT536</name></trkpt>
<trkpt lat="53.501674" lon="-1.698558"><ele>260</ele><time>2022-04-08T10:03:04Z</time><name>PT537</name></trkpt>
<trkpt lat="53.501685" lon="-1.698570"><ele>260</ele><time>2022-04-08T10:03:05Z</time><name>PT538</name></trkpt>
<trkpt lat="53.501695" lon="-1.698582"><ele>259</ele><time>2022-04-08T10:03:06Z</time><name>PT539</name></trkpt>
<trkpt lat="53.501702" lon="-1.698589"><ele>259</ele><time>2022-04-08T10:03:07Z</time><name>PT540</name></trkpt>
<trkpt lat="53.501706" lon="-1.698597"><ele>258</ele><time>2022-04-08T10:03:08Z</time><name>PT541</name></trkpt>
<trkpt lat="53.501716" lon="-1.698612"><ele>258</ele><time>2022-04-08T10:03:09Z</time><name>PT542</name></trkpt>
<trkpt lat="53.501727" lon="-1.698633"><ele>258</ele><time>2022-04-08T10:03:10Z</time><name>PT543</name></trkpt>
<trkpt lat="53.501733" lon="-1.698647"><ele>258</ele><time>2022-04-08T10:03:11Z</time><name>PT544</name></trkpt>
<trkpt lat="53.501744" lon="-1.698660"><ele>258</ele><time>2022-04-08T10:03:12Z</time><name>PT545</name></trkpt>
<trkpt lat="53.501754" lon="-1.698665"><ele>259</ele><time>2022-04-08T10:03:13Z</time><name>PT546</name></trkpt>
<trkpt lat="53.501761" lon="-1.698674"><ele>258</ele><time>2022-04-08T10:03:14Z</time><name>PT547</name></trkpt>
<trkpt lat="53.501767" lon="-1.698681"><ele>258</ele><time>2022-04-08T10:03:15Z</time><name>PT548</name></trkpt>
<trkpt lat="53.501780" lon="-1.698690"><ele>257</ele><time>2022-04-08T10:03:16Z</time><name>PT549</name></trkpt>
<trkpt lat="53.501794" lon="-1.698710"><ele>257</ele><time>2022-04-08T10:03:17Z</time><name>PT550</name></trkpt>
<trkpt lat="53.501802" lon="-1.698725"><ele>257</ele><time>2022-04-08T10:03:19Z</time><name>PT551</name></trkpt>
<trkpt lat="53.501806" lon="-1.698732"><ele>256</ele><time>2022-04-08T10:03:19Z</time><name>PT552</name></trkpt>
<trkpt lat="53.501816" lon="-1.698742"><ele>257</ele><time>2022-04-08T10:03:20Z</time><name>PT553</name></trkpt>
<trkpt lat="53.501839" lon="-1.698758"><ele>256</ele><time>2022-04-08T10:03:21Z</time><name>PT554</name></trkpt>
<trkpt lat="53.501854" lon="-1.698768"><ele>255</ele><time>2022-04-08T10:03:22Z</time><name>PT555</name></trkpt>
<trkpt lat="53.501864" lon="-1.698780"><ele>255</ele><time>2022-04-08T10:03:23Z</time><name>PT556</name></trkpt>
<trkpt lat="53.501877" lon="-1.698801"><ele>255</ele><time>2022-04-08T10:03:24Z</time><name>PT557</name></trkpt>
<trkpt lat="53.501884" lon="-1.698797"><ele>254</ele><time>2022-04-08T10:03:25Z</time><name>PT558</name></trkpt>
<trkpt lat="53.501887" lon="-1.698817"><ele>254</ele><time>2022-04-08T10:03:26Z</time><name>PT559</name></trkpt>
<trkpt lat="53.501891" lon="-1.698845"><ele>254</ele><time>2022-04-08T10:03:27Z</time><name>PT560</name></trkpt>
<trkpt lat="53.501893" lon="-1.698862"><ele>254</ele><time>2022-04-08T10:03:28Z</time><name>PT561</name></trkpt>
<trkpt lat="53.501895" lon="-1.698880"><ele>254</ele><time>2022-04-08T10:03:29Z</time><name>PT562</name></trkpt>
<trkpt lat="53.501897" lon="-1.698908"><ele>255</ele><time>2022-04-08T10:03:30Z</time><name>PT563</name></trkpt>
<trkpt lat="53.501902" lon="-1.698935"><ele>255</ele><time>2022-04-08T10:03:31Z</time><name>PT564</name></trkpt>
<trkpt lat="53.501907" lon="-1.698998"><ele>257</ele><time>2022-04-08T10:03:34Z</time><name>PT565</name></trkpt>
<trkpt lat="53.501924" lon="-1.699065"><ele>259</ele><time>2022-04-08T10:03:37Z</time><name>PT566</name></trkpt>
<trkpt lat="53.501929" lon="-1.699098"><ele>259</ele><time>2022-04-08T10:03:37Z</time><name>PT567</name></trkpt>
<trkpt lat="53.501937" lon="-1.699126"><ele>259</ele><time>2022-04-08T10:03:38Z</time><name>PT568</name></trkpt>
<trkpt lat="53.501948" lon="-1.699172"><ele>260</ele><time>2022-04-08T10:03:39Z</time><name>PT569</name></trkpt>
<trkpt lat="53.501961" lon="-1.699196"><ele>259</ele><time>2022-04-08T10:03:40Z</time><name>PT570</name></trkpt>
<trkpt lat="53.501965" lon="-1.699212"><ele>259</ele><time>2022-04-08T10:03:41Z</time><name>PT571</name></trkpt>
<trkpt lat="53.501972" lon="-1.699235"><ele>258</ele><time>2022-04-08T10:03:42Z</time><name>PT572</name></trkpt>
<trkpt lat="53.501978" lon="-1.699258"><ele>258</ele><time>2022-04-08T10:03:43Z</time><name>PT573</name></trkpt>
<trkpt lat="53.501982" lon="-1.699276"><ele>258</ele><time>2022-04-08T10:03:44Z</time><name>PT574</name></trkpt>
<trkpt lat="53.501978" lon="-1.699299"><ele>258</ele><time>2022-04-08T10:03:45Z</time><name>PT575</name></trkpt>
<trkpt lat="53.501983" lon="-1.699317"><ele>258</ele><time>2022-04-08T10:03:47Z</time><name>PT576</name></trkpt>
<trkpt lat="53.501988" lon="-1.699345"><ele>258</ele><time>2022-04-08T10:03:47Z</time><name>PT577</name></trkpt>
<trkpt lat="53.501992" lon="-1.699367"><ele>259</ele><time>2022-04-08T10:03:48Z</time><name>PT578</name></trkpt>
<trkpt lat="53.501995" lon="-1.699379"><ele>259</ele><time>2022-04-08T10:03:49Z</time><name>PT579</name></trkpt>
<trkpt lat="53.501991" lon="-1.699397"><ele>259</ele><time>2022-04-08T10:03:50Z</time><name>PT580</name></trkpt>
<trkpt lat="53.501994" lon="-1.699409"><ele>259</ele><time>2022-04-08T10:03:51Z</time><name>PT581</name></trkpt>
<trkpt lat="53.502001" lon="-1.699428"><ele>258</ele><time>2022-04-08T10:03:52Z</time><name>PT582</name></trkpt>
<trkpt lat="53.502004" lon="-1.699451"><ele>258</ele><time>2022-04-08T10:03:53Z</time><name>PT583</name></trkpt>
<trkpt lat="53.502008" lon="-1.699474"><ele>258</ele><time>2022-04-08T10:03:54Z</time><name>PT584</name></trkpt>
<trkpt lat="53.502009" lon="-1.699499"><ele>258</ele><time>2022-04-08T10:03:55Z</time><name>PT585</name></trkpt>
<trkpt lat="53.502015" lon="-1.699514"><ele>258</ele><time>2022-04-08T10:03:56Z</time><name>PT586</name></trkpt>
<trkpt lat="53.502017" lon="-1.699528"><ele>258</ele><time>2022-04-08T10:03:57Z</time><name>PT587</name></trkpt>
<trkpt lat="53.502020" lon="-1.699544"><ele>258</ele><time>2022-04-08T10:03:58Z</time><name>PT588</name></trkpt>
<trkpt lat="53.502020" lon="-1.699565"><ele>258</ele><time>2022-04-08T10:03:59Z</time><name>PT589</name></trkpt>
<trkpt lat="53.502020" lon="-1.699590"><ele>259</ele><time>2022-04-08T10:04:00Z</time><name>PT590</name></trkpt>
<trkpt lat="53.502021" lon="-1.699611"><ele>259</ele><time>2022-04-08T10:04:01Z</time><name>PT591</name></trkpt>
<trkpt lat="53.502028" lon="-1.699624"><ele>258</ele><time>2022-04-08T10:04:02Z</time><name>PT592</name></trkpt>
<trkpt lat="53.502031" lon="-1.699642"><ele>258</ele><time>2022-04-08T10:04:03Z</time><name>PT593</name></trkpt>
<trkpt lat="53.502034" lon="-1.699661"><ele>258</ele><time>2022-04-08T10:04:04Z</time><name>PT594</name></trkpt>
<trkpt lat="53.502038" lon="-1.699673"><ele>258</ele><time>2022-04-08T10:04:05Z</time><name>PT595</name></trkpt>
<trkpt lat="53.502043" lon="-1.699690"><ele>258</ele><time>2022-04-08T10:04:06Z</time><name>PT596</name></trkpt>
<trkpt lat="53.502046" lon="-1.699707"><ele>258</ele><time>2022-04-08T10:04:07Z</time><name>PT597</name></trkpt>
<trkpt lat="53.502050" lon="-1.699719"><ele>258</ele><time>2022-04-08T10:04:08Z</time><name>PT598</name></trkpt>
<trkpt lat="53.502057" lon="-1.699733"><ele>258</ele><time>2022-04-08T10:04:09Z</time><name>PT599</name></trkpt>
<trkpt lat="53.502063" lon="-1.699749"><ele>259</ele><time>2022-04-08T10:04:10Z</time><name>PT600</name></trkpt>
<trkpt lat="53.502068" lon="-1.699760"><ele>260</ele><time>2022-04-08T10:04:11Z</time><name>PT601</name></trkpt>
<trkpt lat="53.502072" lon="-1.699772"><ele>260</ele><time>2022-04-08T10:04:12Z</time><name>PT602</name></trkpt>
<trkpt lat="53.502080" lon="-1.699780"><ele>260</ele><time>2022-04-08T10:04:13Z</time><name>PT603</name></trkpt>
<trkpt lat="53.502092" lon="-1.699792"><ele>260</ele><time>2022-04-08T10:04:14Z</time><name>PT604</name></trkpt>
<trkpt lat="53.502102" lon="-1.699811"><ele>260</ele><time>2022-04-08T10:04:15Z</time><name>PT605</name></trkpt>
<trkpt lat="53.502109" lon="-1.699822"><ele>260</ele><time>2022-04-08T10:04:16Z</time><name>PT606</name></trkpt>
<trkpt lat="53.502113" lon="-1.699838"><ele>261</ele><time>2022-04-08T10:04:17Z</time><name>PT607</name></trkpt>
<trkpt lat="53.502123" lon="-1.699847"><ele>261</ele><time>2022-04-08T10:04:18Z</time><name>PT608</name></trkpt>
<trkpt lat="53.502129" lon="-1.699860"><ele>262</ele><time>2022-04-08T10:04:19Z</time><name>PT609</name></trkpt>
<trkpt lat="53.502135" lon="-1.699874"><ele>262</ele><time>2022-04-08T10:04:20Z</time><name>PT610</name></trkpt>
<trkpt lat="53.502142" lon="-1.699894"><ele>262</ele><time>2022-04-08T10:04:21Z</time><name>PT611</name></trkpt>
<trkpt lat="53.502152" lon="-1.699911"><ele>262</ele><time>2022-04-08T10:04:22Z</time><name>PT612</name></trkpt>
<trkpt lat="53.502161" lon="-1.699921"><ele>262</ele><time>2022-04-08T10:04:23Z</time><name>PT613</name></trkpt>
<trkpt lat="53.502166" lon="-1.699933"><ele>261</ele><time>2022-04-08T10:04:24Z</time><name>PT614</name></trkpt>
<trkpt lat="53.502177" lon="-1.699948"><ele>261</ele><time>2022-04-08T10:04:25Z</time><name>PT615</name></trkpt>
<trkpt lat="53.502182" lon="-1.699960"><ele>261</ele><time>2022-04-08T10:04:26Z</time><name>PT616</name></trkpt>
<trkpt lat="53.502187" lon="-1.699980"><ele>262</ele><time>2022-04-08T10:04:27Z</time><name>PT617</name></trkpt>
<trkpt lat="53.502194" lon="-1.699990"><ele>262</ele><time>2022-04-08T10:04:28Z</time><name>PT618</name></trkpt>
<trkpt lat="53.502203" lon="-1.700001"><ele>262</ele><time>2022-04-08T10:04:29Z</time><name>PT619</name></trkpt>
<trkpt lat="53.502210" lon="-1.700007"><ele>262</ele><time>2022-04-08T10:04:30Z</time><name>PT620</name></trkpt>
<trkpt lat="53.502218" lon="-1.700024"><ele>263</ele><time>2022-04-08T10:04:31Z</time><name>PT621</name></trkpt>
<trkpt lat="53.502227" lon="-1.700032"><ele>263</ele><time>2022-04-08T10:04:32Z</time><name>PT622</name></trkpt>
<trkpt lat="53.502229" lon="-1.700029"><ele>263</ele><time>2022-04-08T10:04:33Z</time><name>PT623</name></trkpt>
<trkpt lat="53.502233" lon="-1.700027"><ele>263</ele><time>2022-04-08T10:04:34Z</time><name>PT624</name></trkpt>
<trkpt lat="53.502240" lon="-1.700033"><ele>263</ele><time>2022-04-08T10:04:35Z</time><name>PT625</name></trkpt>
<trkpt lat="53.502255" lon="-1.700039"><ele>261</ele><time>2022-04-08T10:04:36Z</time><name>PT626</name></trkpt>
<trkpt lat="53.502260" lon="-1.700055"><ele>261</ele><time>2022-04-08T10:04:37Z</time><name>PT627</name></trkpt>
<trkpt lat="53.502262" lon="-1.700060"><ele>260</ele><time>2022-04-08T10:04:39Z</time><name>PT628</name></trkpt>
<trkpt lat="53.502276" lon="-1.700072"><ele>261</ele><time>2022-04-08T10:04:39Z</time><name>PT629</name></trkpt>
<trkpt lat="53.502282" lon="-1.700081"><ele>261</ele><time>2022-04-08T10:04:40Z</time><name>PT630</name></trkpt>
<trkpt lat="53.502284" lon="-1.700097"><ele>261</ele><time>2022-04-08T10:04:41Z</time><name>PT631</name></trkpt>
<trkpt lat="53.502289" lon="-1.700108"><ele>259</ele><time>2022-04-08T10:04:43Z</time><name>PT632</name></trkpt>
<trkpt lat="53.502294" lon="-1.700124"><ele>258</ele><time>2022-04-08T10:04:43Z</time><name>PT633</name></trkpt>
<trkpt lat="53.502295" lon="-1.700138"><ele>257</ele><time>2022-04-08T10:04:45Z</time><name>PT634</name></trkpt>
<trkpt lat="53.502299" lon="-1.700150"><ele>257</ele><time>2022-04-08T10:04:45Z</time><name>PT635</name></trkpt>
<trkpt lat="53.502303" lon="-1.700168"><ele>258</ele><time>2022-04-08T10:04:46Z</time><name>PT636</name></trkpt>
<trkpt lat="53.502302" lon="-1.700191"><ele>256</ele><time>2022-04-08T10:04:47Z</time><name>PT637</name></trkpt>
<trkpt lat="53.502304" lon="-1.700205"><ele>255</ele><time>2022-04-08T10:04:49Z</time><name>PT638</name></trkpt>
<trkpt lat="53.502308" lon="-1.700221"><ele>256</ele><time>2022-04-08T10:04:49Z</time><name>PT639</name></trkpt>
<trkpt lat="53.502307" lon="-1.700254"><ele>255</ele><time>2022-04-08T10:04:50Z</time><name>PT640</name></trkpt>
<trkpt lat="53.502303" lon="-1.700269"><ele>256</ele><time>2022-04-08T10:04:51Z</time><name>PT641</name></trkpt>
<trkpt lat="53.502306" lon="-1.700285"><ele>256</ele><time>2022-04-08T10:04:52Z</time><name>PT642</name></trkpt>
<trkpt lat="53.502305" lon="-1.700303"><ele>255</ele><time>2022-04-08T10:04:53Z</time><name>PT643</name></trkpt>
<trkpt lat="53.502313" lon="-1.700321"><ele>256</ele><time>2022-04-08T10:04:55Z</time><name>PT644</name></trkpt>
<trkpt lat="53.502322" lon="-1.700357"><ele>258</ele><time>2022-04-08T10:04:55Z</time><name>PT645</name></trkpt>
<trkpt lat="53.502327" lon="-1.700363"><ele>258</ele><time>2022-04-08T10:04:56Z</time><name>PT646</name></trkpt>
<trkpt lat="53.502335" lon="-1.700377"><ele>259</ele><time>2022-04-08T10:04:57Z</time><name>PT647</name></trkpt>
<trkpt lat="53.502342" lon="-1.700396"><ele>258</ele><time>2022-04-08T10:04:59Z</time><name>PT648</name></trkpt>
<trkpt lat="53.502344" lon="-1.700412"><ele>258</ele><time>2022-04-08T10:04:59Z</time><name>PT649</name></trkpt>
<trkpt lat="53.502345" lon="-1.700431"><ele>259</ele><time>2022-04-08T10:05:00Z</time><name>PT650</name></trkpt>
<trkpt lat="53.502348" lon="-1.700457"><ele>260</ele><time>2022-04-08T10:05:01Z</time><name>PT651</name></trkpt>
<trkpt lat="53.502348" lon="-1.700477"><ele>260</ele><time>2022-04-08T10:05:02Z</time><name>PT652</name></trkpt>
<trkpt lat="53.502349" lon="-1.700490"><ele>260</ele><time>2022-04-08T10:05:03Z</time><name>PT653</name></trkpt>
<trkpt lat="53.502352" lon="-1.700503"><ele>260</ele><time>2022-04-08T10:05:05Z</time><name>PT654</name></trkpt>
<trkpt lat="53.502360" lon="-1.700527"><ele>261</ele><time>2022-04-08T10:05:05Z</time><name>PT655</name></trkpt>
<trkpt lat="53.502366" lon="-1.700537"><ele>260</ele><time>2022-04-08T10:05:06Z</time><name>PT656</name></trkpt>
<trkpt lat="53.502367" lon="-1.700555"><ele>261</ele><time>2022-04-08T10:05:07Z</time><name>PT657</name></trkpt>
<trkpt lat="53.502370" lon="-1.700574"><ele>262</ele><time>2022-04-08T10:05:09Z</time><name>PT658</name></trkpt>
<trkpt lat="53.502370" lon="-1.700605"><ele>262</ele><time>2022-04-08T10:05:09Z</time><name>PT659</name></trkpt>
<trkpt lat="53.502374" lon="-1.700639"><ele>264</ele><time>2022-04-08T10:05:10Z</time><name>PT660</name></trkpt>
<trkpt lat="53.502371" lon="-1.700659"><ele>264</ele><time>2022-04-08T10:05:11Z</time><name>PT661</name></trkpt>
<trkpt lat="53.502374" lon="-1.700677"><ele>265</ele><time>2022-04-08T10:05:12Z</time><name>PT662</name></trkpt>
<trkpt lat="53.502365" lon="-1.700693"><ele>267</ele><time>2022-04-08T10:05:13Z</time><name>PT663</name></trkpt>
<trkpt lat="53.502360" lon="-1.700727"><ele>268</ele><time>2022-04-08T10:05:14Z</time><name>PT664</name></trkpt>
<trkpt lat="53.502358" lon="-1.700734"><ele>267</ele><time>2022-04-08T10:05:15Z</time><name>PT665</name></trkpt>
<trkpt lat="53.502356" lon="-1.700746"><ele>267</ele><time>2022-04-08T10:05:16Z</time><name>PT666</name></trkpt>
<trkpt lat="53.502361" lon="-1.700781"><ele>269</ele><time>2022-04-08T10:05:17Z</time><name>PT667</name></trkpt>
<trkpt lat="53.502359" lon="-1.700796"><ele>268</ele><time>2022-04-08T10:05:18Z</time><name>PT668</name></trkpt>
<trkpt lat="53.502358" lon="-1.700809"><ele>267</ele><time>2022-04-08T10:05:19Z</time><name>PT669</name></trkpt>
<trkpt lat="53.502356" lon="-1.700814"><ele>266</ele><time>2022-04-08T10:05:20Z</time><name>PT670</name></trkpt>
<trkpt lat="53.502356" lon="-1.700823"><ele>266</ele><time>2022-04-08T10:05:21Z</time><name>PT671</name></trkpt>
<trkpt lat="53.502357" lon="-1.700834"><ele>265</ele><time>2022-04-08T10:05:22Z</time><name>PT672</name></trkpt>
<trkpt lat="53.502355" lon="-1.700849"><ele>264</ele><time>2022-04-08T10:05:23Z</time><name>PT673</name></trkpt>
<trkpt lat="53.502358" lon="-1.700881"><ele>265</ele><time>2022-04-08T10:05:25Z</time><name>PT674</name></trkpt>
<trkpt lat="53.502359" lon="-1.700893"><ele>265</ele><time>2022-04-08T10:05:25Z</time><name>PT675</name></trkpt>
<trkpt lat="53.502364" lon="-1.700948"><ele>267</ele><time>2022-04-08T10:05:26Z</time><name>PT676</name></trkpt>
<trkpt lat="53.502361" lon="-1.700976"><ele>268</ele><time>2022-04-08T10:05:27Z</time><name>PT677</name></trkpt>
<trkpt lat="53.502357" lon="-1.700996"><ele>268</ele><time>2022-04-08T10:05:28Z</time><name>PT678</name></trkpt>
<trkpt lat="53.502354" lon="-1.701018"><ele>268</ele><time>2022-04-08T10:05:29Z</time><name>PT679</name></trkpt>
<trkpt lat="53.502356" lon="-1.701060"><ele>270</ele><time>2022-04-08T10:05:30Z</time><name>PT680</name></trkpt>
<trkpt lat="53.502358" lon="-1.701091"><ele>272</ele><time>2022-04-08T10:05:31Z</time><name>PT681</name></trkpt>
<trkpt lat="53.502360" lon="-1.701123"><ele>274</ele><time>2022-04-08T10:05:32Z</time><name>PT682</name></trkpt>
<trkpt lat="53.502364" lon="-1.701147"><ele>275</ele><time>2022-04-08T10:05:33Z</time><name>PT683</name></trkpt>
<trkpt lat="53.502362" lon="-1.701180"><ele>276</ele><time>2022-04-08T10:05:34Z</time><name>PT684</name></trkpt>
<trkpt lat="53.502360" lon="-1.701198"><ele>277</ele><time>2022-04-08T10:05:35Z</time><name>PT685</name></trkpt>
<trkpt lat="53.502357" lon="-1.701233"><ele>277</ele><time>2022-04-08T10:05:36Z</time><name>PT686</name></trkpt>
<trkpt lat="53.502353" lon="-1.701261"><ele>278</ele><time>2022-04-08T10:05:37Z</time><name>PT687</name></trkpt>
<trkpt lat="53.502349" lon="-1.701292"><ele>280</ele><time>2022-04-08T10:05:38Z</time><name>PT688</name></trkpt>
<trkpt lat="53.502343" lon="-1.701301"><ele>279</ele><time>2022-04-08T10:05:39Z</time><name>PT689</name></trkpt>
<trkpt lat="53.502337" lon="-1.701325"><ele>279</ele><time>2022-04-08T10:05:40Z</time><name>PT690</name></trkpt>
<trkpt lat="53.502336" lon="-1.701342"><ele>279</ele><time>2022-04-08T10:05:41Z</time><name>PT691</name></trkpt>
<trkpt lat="53.502331" lon="-1.701360"><ele>278</ele><time>2022-04-08T10:05:42Z</time><name>PT692</name></trkpt>
<trkpt lat="53.502327" lon="-1.701375"><ele>277</ele><time>2022-04-08T10:05:43Z</time><name>PT693</name></trkpt>
<trkpt lat="53.502320" lon="-1.701391"><ele>277</ele><time>2022-04-08T10:05:44Z</time><name>PT694</name></trkpt>
<trkpt lat="53.502315" lon="-1.701408"><ele>277</ele><time>2022-04-08T10:05:45Z</time><name>PT695</name></trkpt>
<trkpt lat="53.502310" lon="-1.701425"><ele>279</ele><time>2022-04-08T10:05:46Z</time><name>PT696</name></trkpt>
<trkpt lat="53.502303" lon="-1.701440"><ele>280</ele><time>2022-04-08T10:05:47Z</time><name>PT697</name></trkpt>
<trkpt lat="53.502301" lon="-1.701459"><ele>280</ele><time>2022-04-08T10:05:48Z</time><name>PT698</name></trkpt>
<trkpt lat="53.502301" lon="-1.701470"><ele>279</ele><time>2022-04-08T10:05:49Z</time><name>PT699</name></trkpt>
<trkpt lat="53.502307" lon="-1.701484"><ele>279</ele><time>2022-04-08T10:05:50Z</time><name>PT700</name></trkpt>
<trkpt lat="53.502304" lon="-1.701495"><ele>278</ele><time>2022-04-08T10:05:51Z</time><name>PT701</name></trkpt>
<trkpt lat="53.502303" lon="-1.701509"><ele>279</ele><time>2022-04-08T10:05:52Z</time><name>PT702</name></trkpt>
<trkpt lat="53.502303" lon="-1.701523"><ele>280</ele><time>2022-04-08T10:05:53Z</time><name>PT703</name></trkpt>
<trkpt lat="53.502303" lon="-1.701538"><ele>280</ele><time>2022-04-08T10:05:54Z</time><name>PT704</name></trkpt>
<trkpt lat="53.502303" lon="-1.701555"><ele>280</ele><time>2022-04-08T10:05:55Z</time><name>PT705</name></trkpt>
<trkpt lat="53.502307" lon="-1.701576"><ele>280</ele><time>2022-04-08T10:05:56Z</time><name>PT706</name></trkpt>
<trkpt lat="53.502307" lon="-1.701596"><ele>280</ele><time>2022-04-08T10:05:57Z</time><name>PT707</name></trkpt>
<trkpt lat="53.502309" lon="-1.701613"><ele>280</ele><time>2022-04-08T10:05:58Z</time><name>PT708</name></trkpt>
<trkpt lat="53.502310" lon="-1.701636"><ele>280</ele><time>2022-04-08T10:05:59Z</time><name>PT709</name></trkpt>
<trkpt lat="53.502312" lon="-1.701653"><ele>279</ele><time>2022-04-08T10:06:00Z</time><name>PT710</name></trkpt>
<trkpt lat="53.502309" lon="-1.701670"><ele>279</ele><time>2022-04-08T10:06:01Z</time><name>PT711</name></trkpt>
<trkpt lat="53.502308" lon="-1.701688"><ele>279</ele><time>2022-04-08T10:06:02Z</time><name>PT712</name></trkpt>
<trkpt lat="53.502311" lon="-1.701705"><ele>278</ele><time>2022-04-08T10:06:03Z</time><name>PT713</name></trkpt>
<trkpt lat="53.502319" lon="-1.701728"><ele>277</ele><time>2022-04-08T10:06:04Z</time><name>PT714</name></trkpt>
<trkpt lat="53.502322" lon="-1.701744"><ele>278</ele><time>2022-04-08T10:06:05Z</time><name>PT715</name></trkpt>
<trkpt lat="53.502326" lon="-1.701765"><ele>277</ele><time>2022-04-08T10:06:06Z</time><name>PT716</name></trkpt>
<trkpt lat="53.502326" lon="-1.701788"><ele>277</ele><time>2022-04-08T10:06:07Z</time><name>PT717</name></trkpt>
<trkpt lat="53.502326" lon="-1.701803"><ele>277</ele><time>2022-04-08T10:06:08Z</time><name>PT718</name></trkpt>
<trkpt lat="53.502330" lon="-1.701816"><ele>277</ele><time>2022-04-08T10:06:09Z</time><name>PT719</name></trkpt>
<trkpt lat="53.502337" lon="-1.701831"><ele>276</ele><time>2022-04-08T10:06:10Z</time><name>PT720</name></trkpt>
<trkpt lat="53.502340" lon="-1.701845"><ele>275</ele><time>2022-04-08T10:06:11Z</time><name>PT721</name></trkpt>
<trkpt lat="53.502343" lon="-1.701870"><ele>275</ele><time>2022-04-08T10:06:12Z</time><name>PT722</name></trkpt>
<trkpt lat="53.502347" lon="-1.701900"><ele>275</ele><time>2022-04-08T10:06:13Z</time><name>PT723</name></trkpt>
<trkpt lat="53.502354" lon="-1.701930"><ele>274</ele><time>2022-04-08T10:06:14Z</time><name>PT724</name></trkpt>
<trkpt lat="53.502359" lon="-1.701962"><ele>274</ele><time>2022-04-08T10:06:15Z</time><name>PT725</name></trkpt>
<trkpt lat="53.502365" lon="-1.701987"><ele>273</ele><time>2022-04-08T10:06:16Z</time><name>PT726</name></trkpt>
<trkpt lat="53.502372" lon="-1.702006"><ele>273</ele><time>2022-04-08T10:06:17Z</time><name>PT727</name></trkpt>
<trkpt lat="53.502381" lon="-1.702032"><ele>272</ele><time>2022-04-08T10:06:19Z</time><name>PT728</name></trkpt>
<trkpt lat="53.502387" lon="-1.702056"><ele>272</ele><time>2022-04-08T10:06:19Z</time><name>PT729</name></trkpt>
<trkpt lat="53.502395" lon="-1.702075"><ele>271</ele><time>2022-04-08T10:06:20Z</time><name>PT730</name></trkpt>
<trkpt lat="53.502394" lon="-1.702097"><ele>271</ele><time>2022-04-08T10:06:21Z</time><name>PT731</name></trkpt>
<trkpt lat="53.502396" lon="-1.702122"><ele>270</ele><time>2022-04-08T10:06:22Z</time><name>PT732</name></trkpt>
<trkpt lat="53.502399" lon="-1.702143"><ele>270</ele><time>2022-04-08T10:06:23Z</time><name>PT733</name></trkpt>
<trkpt lat="53.502403" lon="-1.702160"><ele>269</ele><time>2022-04-08T10:06:24Z</time><name>PT734</name></trkpt>
<trkpt lat="53.502403" lon="-1.702170"><ele>268</ele><time>2022-04-08T10:06:25Z</time><name>PT735</name></trkpt>
<trkpt lat="53.502402" lon="-1.702192"><ele>268</ele><time>2022-04-08T10:06:26Z</time><name>PT736</name></trkpt>
<trkpt lat="53.502399" lon="-1.702209"><ele>267</ele><time>2022-04-08T10:06:27Z</time><name>PT737</name></trkpt>
<trkpt lat="53.502400" lon="-1.702229"><ele>267</ele><time>2022-04-08T10:06:28Z</time><name>PT738</name></trkpt>
<trkpt lat="53.502404" lon="-1.702249"><ele>268</ele><time>2022-04-08T10:06:29Z</time><name>PT739</name></trkpt>
<trkpt lat="53.502408" lon="-1.702266"><ele>268</ele><time>2022-04-08T10:06:30Z</time><name>PT740</name></trkpt>
<trkpt lat="53.502410" lon="-1.702291"><ele>268</ele><time>2022-04-08T10:06:31Z</time><name>PT741</name></trkpt>
<trkpt lat="53.502413" lon="-1.702310"><ele>268</ele><time>2022-04-08T10:06:32Z</time><name>PT742</name></trkpt>
<trkpt lat="53.502408" lon="-1.702322"><ele>267</ele><time>2022-04-08T10:06:33Z</time><name>PT743</name></trkpt>
<trkpt lat="53.502402" lon="-1.702337"><ele>267</ele><time>2022-04-08T10:06:34Z</time><name>PT744</name></trkpt>
<trkpt lat="53.502398" lon="-1.702345"><ele>267</ele><time>2022-04-08T10:06:35Z</time><name>PT745</name></trkpt>
<trkpt lat="53.502396" lon="-1.702350"><ele>267</ele><time>2022-04-08T10:06:36Z</time><name>PT746</name></trkpt>
<trkpt lat="53.502396" lon="-1.702359"><ele>266</ele><time>2022-04-08T10:06:37Z</time><name>PT747</name></trkpt>
<trkpt lat="53.502399" lon="-1.702370"><ele>265</ele><time>2022-04-08T10:06:39Z</time><name>PT748</name></trkpt>
<trkpt lat="53.502400" lon="-1.702385"><ele>265</ele><time>2022-04-08T10:06:39Z</time><name>PT749</name></trkpt>
<trkpt lat="53.502397" lon="-1.702407"><ele>264</ele><time>2022-04-08T10:06:40Z</time><name>PT750</name></trkpt>
<trkpt lat="53.502399" lon="-1.702420"><ele>264</ele><time>2022-04-08T10:06:41Z</time><name>PT751</name></trkpt>
<trkpt lat="53.502400" lon="-1.702430"><ele>263</ele><time>2022-04-08T10:06:42Z</time><name>PT752</name></trkpt>
<trkpt lat="53.502399" lon="-1.702444"><ele>264</ele><time>2022-04-08T10:06:43Z</time><name>PT753</name></trkpt>
<trkpt lat="53.502391" lon="-1.702464"><ele>264</ele><time>2022-04-08T10:06:44Z</time><name>PT754</name></trkpt>
<trkpt lat="53.502389" lon="-1.702481"><ele>266</ele><time>2022-04-08T10:06:45Z</time><name>PT755</name></trkpt>
<trkpt lat="53.502388" lon="-1.702495"><ele>263</ele><time>2022-04-08T10:06:46Z</time><name>PT756</name></trkpt>
<trkpt lat="53.502384" lon="-1.702506"><ele>263</ele><time>2022-04-08T10:06:47Z</time><name>PT757</name></trkpt>
<trkpt lat="53.502376" lon="-1.702514"><ele>261</ele><time>2022-04-08T10:06:49Z</time><name>PT758</name></trkpt>
<trkpt lat="53.502376" lon="-1.702523"><ele>259</ele><time>2022-04-08T10:06:49Z</time><name>PT759</name></trkpt>
<trkpt lat="53.502375" lon="-1.702535"><ele>258</ele><time>2022-04-08T10:06:50Z</time><name>PT760</name></trkpt>
<trkpt lat="53.502369" lon="-1.702558"><ele>257</ele><time>2022-04-08T10:06:51Z</time><name>PT761</name></trkpt>
<trkpt lat="53.502367" lon="-1.702573"><ele>257</ele><time>2022-04-08T10:06:52Z</time><name>PT762</name></trkpt>
<trkpt lat="53.502367" lon="-1.702592"><ele>256</ele><time>2022-04-08T10:06:53Z</time><name>PT763</name></trkpt>
<trkpt lat="53.502366" lon="-1.702600"><ele>254</ele><time>2022-04-08T10:06:54Z</time><name>PT764</name></trkpt>
<trkpt lat="53.502364" lon="-1.702615"><ele>253</ele><time>2022-04-08T10:06:55Z</time><name>PT765</name></trkpt>
<trkpt lat="53.502355" lon="-1.702631"><ele>255</ele><time>2022-04-08T10:06:56Z</time><name>PT766</name></trkpt>
<trkpt lat="53.502349" lon="-1.702640"><ele>254</ele><time>2022-04-08T10:06:57Z</time><name>PT767</name></trkpt>
<trkpt lat="53.502340" lon="-1.702674"><ele>255</ele><time>2022-04-08T10:06:59Z</time><name>PT768</name></trkpt>
<trkpt lat="53.502340" lon="-1.702703"><ele>257</ele><time>2022-04-08T10:06:59Z</time><name>PT769</name></trkpt>
<trkpt lat="53.502335" lon="-1.702717"><ele>256</ele><time>2022-04-08T10:07:00Z</time><name>PT770</name></trkpt>
<trkpt lat="53.502338" lon="-1.702758"><ele>258</ele><time>2022-04-08T10:07:01Z</time><name>PT771</name></trkpt>
<trkpt lat="53.502339" lon="-1.702783"><ele>258</ele><time>2022-04-08T10:07:02Z</time><name>PT772</name></trkpt>
<trkpt lat="53.502337" lon="-1.702804"><ele>258</ele><time>2022-04-08T10:07:03Z</time><name>PT773</name></trkpt>
<trkpt lat="53.502335" lon="-1.702817"><ele>257</ele><time>2022-04-08T10:07:04Z</time><name>PT774</name></trkpt>
<trkpt lat="53.502328" lon="-1.702828"><ele>257</ele><time>2022-04-08T10:07:05Z</time><name>PT775</name></trkpt>
<trkpt lat="53.502330" lon="-1.702870"><ele>259</ele><time>2022-04-08T10:07:06Z</time><name>PT776</name></trkpt>
<trkpt lat="53.502329" lon="-1.702890"><ele>259</ele><time>2022-04-08T10:07:07Z</time><name>PT777</name></trkpt>
<trkpt lat="53.502327" lon="-1.702921"><ele>261</ele><time>2022-04-08T10:07:08Z</time><name>PT778</name></trkpt>
<trkpt lat="53.502324" lon="-1.702947"><ele>262</ele><time>2022-04-08T10:07:09Z</time><name>PT779</name></trkpt>
<trkpt lat="53.502322" lon="-1.702985"><ele>263</ele><time>2022-04-08T10:07:10Z</time><name>PT780</name></trkpt>
<trkpt lat="53.502318" lon="-1.703012"><ele>264</ele><time>2022-04-08T10:07:11Z</time><name>PT781</name></trkpt>
<trkpt lat="53.502317" lon="-1.703026"><ele>264</ele><time>2022-04-08T10:07:12Z</time><name>PT782</name></trkpt>
<trkpt lat="53.502316" lon="-1.703039"><ele>264</ele><time>2022-04-08T10:07:13Z</time><name>PT783</name></trkpt>
<trkpt lat="53.502313" lon="-1.703057"><ele>265</ele><time>2022-04-08T10:07:14Z</time><name>PT784</name></trkpt>
<trkpt lat="53.502309" lon="-1.703069"><ele>265</ele><time>2022-04-08T10:07:15Z</time><name>PT785</name></trkpt>
<trkpt lat="53.502306" lon="-1.703082"><ele>265</ele><time>2022-04-08T10:07:16Z</time><name>PT786</name></trkpt>
<trkpt lat="53.502304" lon="-1.703087"><ele>264</ele><time>2022-04-08T10:07:17Z</time><name>PT787</name></trkpt>
<trkpt lat="53.502300" lon="-1.703095"><ele>264</ele><time>2022-04-08T10:07:18Z</time><name>PT788</name></trkpt>
<trkpt lat="53.502294" lon="-1.703110"><ele>264</ele><time>2022-04-08T10:07:19Z</time><name>PT789</name></trkpt>
<trkpt lat="53.502291" lon="-1.703136"><ele>264</ele><time>2022-04-08T10:07:20Z</time><name>PT790</name></trkpt>
<trkpt lat="53.502285" lon="-1.703156"><ele>264</ele><time>2022-04-08T10:07:21Z</time><name>PT791</name></trkpt>
<trkpt lat="53.502279" lon="-1.703168"><ele>265</ele><time>2022-04-08T10:07:22Z</time><name>PT792</name></trkpt>
<trkpt lat="53.502272" lon="-1.703180"><ele>265</ele><time>2022-04-08T10:07:23Z</time><name>PT793</name></trkpt>
<trkpt lat="53.502264" lon="-1.703181"><ele>263</ele><time>2022-04-08T10:07:24Z</time><name>PT794</name></trkpt>
<trkpt lat="53.502258" lon="-1.703189"><ele>261</ele><time>2022-04-08T10:07:25Z</time><name>PT795</name></trkpt>
<trkpt lat="53.502255" lon="-1.703199"><ele>260</ele><time>2022-04-08T10:07:26Z</time><name>PT796</name></trkpt>
<trkpt lat="53.502252" lon="-1.703208"><ele>259</ele><time>2022-04-08T10:07:27Z</time><name>PT797</name></trkpt>
<trkpt lat="53.502252" lon="-1.703214"><ele>257</ele><time>2022-04-08T10:07:28Z</time><name>PT798</name></trkpt>
<trkpt lat="53.502249" lon="-1.703216"><ele>256</ele><time>2022-04-08T10:07:29Z</time><name>PT799</name></trkpt>
<trkpt lat="53.502243" lon="-1.703223"><ele>256</ele><time>2022-04-08T10:07:30Z</time><name>PT800</name></trkpt>
<trkpt lat="53.502231" lon="-1.703237"><ele>256</ele><time>2022-04-08T10:07:31Z</time><name>PT801</name></trkpt>
<trkpt lat="53.502221" lon="-1.703253"><ele>256</ele><time>2022-04-08T10:07:32Z</time><name>PT802</name></trkpt>
<trkpt lat="53.502209" lon="-1.703263"><ele>256</ele><time>2022-04-08T10:07:33Z</time><name>PT803</name></trkpt>
<trkpt lat="53.502193" lon="-1.703288"><ele>255</ele><time>2022-04-08T10:07:34Z</time><name>PT804</name></trkpt>
<trkpt lat="53.502180" lon="-1.703312"><ele>255</ele><time>2022-04-08T10:07:35Z</time><name>PT805</name></trkpt>
<trkpt lat="53.502169" lon="-1.703320"><ele>256</ele><time>2022-04-08T10:07:36Z</time><name>PT806</name></trkpt>
<trkpt lat="53.502160" lon="-1.703330"><ele>256</ele><time>2022-04-08T10:07:37Z</time><name>PT807</name></trkpt>
<trkpt lat="53.502160" lon="-1.703331"><ele>254</ele><time>2022-04-08T10:07:38Z</time><name>PT808</name></trkpt>
<trkpt lat="53.502147" lon="-1.703342"><ele>254</ele><time>2022-04-08T10:07:39Z</time><name>PT809</name></trkpt>
<trkpt lat="53.502131" lon="-1.703353"><ele>254</ele><time>2022-04-08T10:07:40Z</time><name>PT810</name></trkpt>
<trkpt lat="53.502124" lon="-1.703354"><ele>254</ele><time>2022-04-08T10:07:41Z</time><name>PT811</name></trkpt>
<trkpt lat="53.502111" lon="-1.703370"><ele>254</ele><time>2022-04-08T10:07:42Z</time><name>PT812</name></trkpt>
<trkpt lat="53.502102" lon="-1.703375"><ele>254</ele><time>2022-04-08T10:07:43Z</time><name>PT813</name></trkpt>
<trkpt lat="53.502093" lon="-1.703380"><ele>254</ele><time>2022-04-08T10:07:44Z</time><name>PT814</name></trkpt>
<trkpt lat="53.502072" lon="-1.703396"><ele>257</ele><time>2022-04-08T10:07:45Z</time><name>PT815</name></trkpt>
<trkpt lat="53.502066" lon="-1.703402"><ele>258</ele><time>2022-04-08T10:07:46Z</time><name>PT816</name></trkpt>
<trkpt lat="53.502060" lon="-1.703407"><ele>259</ele><time>2022-04-08T10:07:47Z</time><name>PT817</name></trkpt>
<trkpt lat="53.502048" lon="-1.703408"><ele>260</ele><time>2022-04-08T10:07:48Z</time><name>PT818</name></trkpt>
<trkpt lat="53.502034" lon="-1.703411"><ele>261</ele><time>2022-04-08T10:07:49Z</time><name>PT819</name></trkpt>
<trkpt lat="53.502028" lon="-1.703412"><ele>262</ele><time>2022-04-08T10:07:50Z</time><name>PT820</name></trkpt>
<trkpt lat="53.502022" lon="-1.703409"><ele>262</ele><time>2022-04-08T10:07:51Z</time><name>PT821</name></trkpt>
<trkpt lat="53.502014" lon="-1.703408"><ele>262</ele><time>2022-04-08T10:07:52Z</time><name>PT822</name></trkpt>
<trkpt lat="53.502002" lon="-1.703407"><ele>261</ele><time>2022-04-08T10:07:53Z</time><name>PT823</name></trkpt>
<trkpt lat="53.501992" lon="-1.703408"><ele>261</ele><time>2022-04-08T10:07:54Z</time><name>PT824</name></trkpt>
<trkpt lat="53.501972" lon="-1.703405"><ele>261</ele><time>2022-04-08T10:07:55Z</time><name>PT825</name></trkpt>
<trkpt lat="53.501961" lon="-1.703405"><ele>261</ele><time>2022-04-08T10:07:56Z</time><name>PT826</name></trkpt>
<trkpt lat="53.501952" lon="-1.703398"><ele>261</ele><time>2022-04-08T10:07:57Z</time><name>PT827</name></trkpt>
<trkpt lat="53.501943" lon="-1.703392"><ele>262</ele><time>2022-04-08T10:07:58Z</time><name>PT828</name></trkpt>
<trkpt lat="53.501931" lon="-1.703383"><ele>263</ele><time>2022-04-08T10:07:59Z</time><name>PT829</name></trkpt>
<trkpt lat="53.501915" lon="-1.703376"><ele>262</ele><time>2022-04-08T10:08:00Z</time><name>PT830</name></trkpt>
<trkpt lat="53.501904" lon="-1.703376"><ele>263</ele><time>2022-04-08T10:08:01Z</time><name>PT831</name></trkpt>
<trkpt lat="53.501891" lon="-1.703375"><ele>263</ele><time>2022-04-08T10:08:02Z</time><name>PT832</name></trkpt>
<trkpt lat="53.501879" lon="-1.703378"><ele>263</ele><time>2022-04-08T10:08:03Z</time><name>PT833</name></trkpt>
<trkpt lat="53.501866" lon="-1.703381"><ele>262</ele><time>2022-04-08T10:08:04Z</time><name>PT834</name></trkpt>
<trkpt lat="53.501860" lon="-1.703382"><ele>262</ele><time>2022-04-08T10:08:05Z</time><name>PT835</name></trkpt>
<trkpt lat="53.501858" lon="-1.703382"><ele>262</ele><time>2022-04-08T10:08:06Z</time><name>PT836</name></trkpt>
<trkpt lat="53.501857" lon="-1.703382"><ele>261</ele><time>2022-04-08T10:08:07Z</time><name>PT837</name></trkpt>
<trkpt lat="53.501854" lon="-1.703380"><ele>261</ele><time>2022-04-08T10:08:08Z</time><name>PT838</name></trkpt>
<trkpt lat="53.501851" lon="-1.703318"><ele>258</ele><time>2022-04-08T10:08:26Z</time><name>PT839</name></trkpt>
<trkpt lat="53.501849" lon="-1.703313"><ele>257</ele><time>2022-04-08T10:08:30Z</time><name>PT840</name></trkpt>
<trkpt lat="53.501836" lon="-1.703305"><ele>257</ele><time>2022-04-08T10:08:34Z</time><name>PT841</name></trkpt>
<trkpt lat="53.501787" lon="-1.703295"><ele>257</ele><time>2022-04-08T10:08:38Z</time><name>PT842</name></trkpt>
<trkpt lat="53.501762" lon="-1.703283"><ele>257</ele><time>2022-04-08T10:08:42Z</time><name>PT843</name></trkpt>
<trkpt lat="53.501720" lon="-1.703254"><ele>257</ele><time>2022-04-08T10:08:46Z</time><name>PT844</name></trkpt>
<trkpt lat="53.501685" lon="-1.703220"><ele>257</ele><time>2022-04-08T10:08:50Z</time><name>PT845</name></trkpt>
<trkpt lat="53.501658" lon="-1.703186"><ele>255</ele><time>2022-04-08T10:08:54Z</time><name>PT846</name></trkpt>
<trkpt lat="53.501643" lon="-1.703168"><ele>257</ele><time>2022-04-08T10:08:58Z</time><name>PT847</name></trkpt>
<trkpt lat="53.501627" lon="-1.703140"><ele>256</ele><time>2022-04-08T10:09:02Z</time><name>PT848</name></trkpt>
<trkpt lat="53.501606" lon="-1.703094"><ele>255</ele><time>2022-04-08T10:09:06Z</time><name>PT849</name></trkpt>
<trkpt lat="53.501593" lon="-1.703067"><ele>255</ele><time>2022-04-08T10:09:08Z</time><name>PT850</name></trkpt>
<trkpt lat="53.501587" lon="-1.703058"><ele>255</ele><time>2022-04-08T10:09:09Z</time><name>PT851</name></trkpt>
<trkpt lat="53.501581" lon="-1.703043"><ele>255</ele><time>2022-04-08T10:09:10Z</time><name>PT852</name></trkpt>
<trkpt lat="53.501571" lon="-1.703021"><ele>256</ele><time>2022-04-08T10:09:11Z</time><name>PT853</name></trkpt>
<trkpt lat="53.501563" lon="-1.703001"><ele>257</ele><time>2022-04-08T10:09:12Z</time><name>PT854</name></trkpt>
<trkpt lat="53.501561" lon="-1.702985"><ele>257</ele><time>2022-04-08T10:09:13Z</time><name>PT855</name></trkpt>
<trkpt lat="53.501555" lon="-1.702969"><ele>257</ele><time>2022-04-08T10:09:14Z</time><name>PT856</name></trkpt>
<trkpt lat="53.501550" lon="-1.702950"><ele>257</ele><time>2022-04-08T10:09:15Z</time><name>PT857</name></trkpt>
<trkpt lat="53.501544" lon="-1.702934"><ele>257</ele><time>2022-04-08T10:09:16Z</time><name>PT858</name></trkpt>
<trkpt lat="53.501539" lon="-1.702920"><ele>257</ele><time>2022-04-08T10:09:17Z</time><name>PT859</name></trkpt>
<trkpt lat="53.501532" lon="-1.702904"><ele>257</ele><time>2022-04-08T10:09:18Z</time><name>PT860</name></trkpt>
<trkpt lat="53.501524" lon="-1.702891"><ele>256</ele><time>2022-04-08T10:09:19Z</time><name>PT861</name></trkpt>
<trkpt lat="53.501519" lon="-1.702875"><ele>256</ele><time>2022-04-08T10:09:20Z</time><name>PT862</name></trkpt>
<trkpt lat="53.501514" lon="-1.702859"><ele>256</ele><time>2022-04-08T10:09:21Z</time><name>PT863</name></trkpt>
<trkpt lat="53.501505" lon="-1.702843"><ele>257</ele><time>2022-04-08T10:09:22Z</time><name>PT864</name></trkpt>
<trkpt lat="53.501502" lon="-1.702827"><ele>256</ele><time>2022-04-08T10:09:23Z</time><name>PT865</name></trkpt>
<trkpt lat="53.501497" lon="-1.702811"><ele>256</ele><time>2022-04-08T10:09:24Z</time><name>PT866</name></trkpt>
<trkpt lat="53.501494" lon="-1.702793"><ele>256</ele><time>2022-04-08T10:09:25Z</time><name>PT867</name></trkpt>
<trkpt lat="53.501491" lon="-1.702774"><ele>256</ele><time>2022-04-08T10:09:26Z</time><name>PT868</name></trkpt>
<trkpt lat="53.501487" lon="-1.702761"><ele>256</ele><time>2022-04-08T10:09:27Z</time><name>PT869</name></trkpt>
<trkpt lat="53.501475" lon="-1.702747"><ele>256</ele><time>2022-04-08T10:09:28Z</time><name>PT870</name></trkpt>
<trkpt lat="53.501466" lon="-1.702731"><ele>256</ele><time>2022-04-08T10:09:29Z</time><name>PT871</name></trkpt>
<trkpt lat="53.501463" lon="-1.702716"><ele>256</ele><time>2022-04-08T10:09:30Z</time><name>PT872</name></trkpt>
<trkpt lat="53.501459" lon="-1.702701"><ele>256</ele><time>2022-04-08T10:09:31Z</time><name>PT873</name></trkpt>
<trkpt lat="53.501454" lon="-1.702689"><ele>256</ele><time>2022-04-08T10:09:32Z</time><name>PT874</name></trkpt>
<trkpt lat="53.501452" lon="-1.702678"><ele>255</ele><time>2022-04-08T10:09:33Z</time><name>PT875</name></trkpt>
<trkpt lat="53.501448" lon="-1.702663"><ele>255</ele><time>2022-04-08T10:09:34Z</time><name>PT876</name></trkpt>
<trkpt lat="53.501443" lon="-1.702647"><ele>255</ele><time>2022-04-08T10:09:35Z</time><name>PT877</name></trkpt>
<trkpt lat="53.501439" lon="-1.702631"><ele>255</ele><time>2022-04-08T10:09:36Z</time><name>PT878</name></trkpt>
<trkpt lat="53.501434" lon="-1.702615"><ele>255</ele><time>2022-04-08T10:09:37Z</time><name>PT879</name></trkpt>
<trkpt lat="53.501426" lon="-1.702595"><ele>255</ele><time>2022-04-08T10:09:38Z</time><name>PT880</name></trkpt>
<trkpt lat="53.501423" lon="-1.702576"><ele>256</ele><time>2022-04-08T10:09:39Z</time><name>PT881</name></trkpt>
<trkpt lat="53.501424" lon="-1.702556"><ele>255</ele><time>2022-04-08T10:09:40Z</time><name>PT882</name></trkpt>
<trkpt lat="53.501422" lon="-1.702536"><ele>255</ele><time>2022-04-08T10:09:41Z</time><name>PT883</name></trkpt>
<trkpt lat="53.501422" lon="-1.702517"><ele>255</ele><time>2022-04-08T10:09:42Z</time><name>PT884</name></trkpt>
<trkpt lat="53.501418" lon="-1.702497"><ele>255</ele><time>2022-04-08T10:09:43Z</time><name>PT885</name></trkpt>
<trkpt lat="53.501415" lon="-1.702481"><ele>255</ele><time>2022-04-08T10:09:44Z</time><name>PT886</name></trkpt>
<trkpt lat="53.501413" lon="-1.702467"><ele>254</ele><time>2022-04-08T10:09:45Z</time><name>PT887</name></trkpt>
<trkpt lat="53.501407" lon="-1.702447"><ele>255</ele><time>2022-04-08T10:09:46Z</time><name>PT888</name></trkpt>
<trkpt lat="53.501404" lon="-1.702427"><ele>254</ele><time>2022-04-08T10:09:47Z</time><name>PT889</name></trkpt>
<trkpt lat="53.501402" lon="-1.702410"><ele>254</ele><time>2022-04-08T10:09:48Z</time><name>PT890</name></trkpt>
<trkpt lat="53.501401" lon="-1.702387"><ele>254</ele><time>2022-04-08T10:09:49Z</time><name>PT891</name></trkpt>
<trkpt lat="53.501396" lon="-1.702371"><ele>254</ele><time>2022-04-08T10:09:50Z</time><name>PT892</name></trkpt>
<trkpt lat="53.501393" lon="-1.702352"><ele>254</ele><time>2022-04-08T10:09:51Z</time><name>PT893</name></trkpt>
<trkpt lat="53.501387" lon="-1.702329"><ele>254</ele><time>2022-04-08T10:09:52Z</time><name>PT894</name></trkpt>
<trkpt lat="53.501382" lon="-1.702313"><ele>254</ele><time>2022-04-08T10:09:53Z</time><name>PT895</name></trkpt>
<trkpt lat="53.501380" lon="-1.702293"><ele>254</ele><time>2022-04-08T10:09:54Z</time><name>PT896</name></trkpt>
<trkpt lat="53.501378" lon="-1.702275"><ele>253</ele><time>2022-04-08T10:09:55Z</time><name>PT897</name></trkpt>
<trkpt lat="53.501373" lon="-1.702256"><ele>253</ele><time>2022-04-08T10:09:56Z</time><name>PT898</name></trkpt>
<trkpt lat="53.501370" lon="-1.702236"><ele>253</ele><time>2022-04-08T10:09:57Z</time><name>PT899</name></trkpt>
<trkpt lat="53.501365" lon="-1.702217"><ele>253</ele><time>2022-04-08T10:09:58Z</time><name>PT900</name></trkpt>
<trkpt lat="53.501359" lon="-1.702197"><ele>253</ele><time>2022-04-08T10:09:59Z</time><name>PT901</name></trkpt>
<trkpt lat="53.501354" lon="-1.702178"><ele>253</ele><time>2022-04-08T10:10:00Z</time><name>PT902</name></trkpt>
<trkpt lat="53.501351" lon="-1.702156"><ele>253</ele><time>2022-04-08T10:10:01Z</time><name>PT903</name></trkpt>
<trkpt lat="53.501347" lon="-1.702128"><ele>254</ele><time>2022-04-08T10:10:02Z</time><name>PT904</name></trkpt>
<trkpt lat="53.501340" lon="-1.702113"><ele>254</ele><time>2022-04-08T10:10:03Z</time><name>PT905</name></trkpt>
<trkpt lat="53.501337" lon="-1.702094"><ele>254</ele><time>2022-04-08T10:10:05Z</time><name>PT906</name></trkpt>
<trkpt lat="53.501333" lon="-1.702073"><ele>254</ele><time>2022-04-08T10:10:05Z</time><name>PT907</name></trkpt>
<trkpt lat="53.501331" lon="-1.702057"><ele>254</ele><time>2022-04-08T10:10:06Z</time><name>PT908</name></trkpt>
<trkpt lat="53.501330" lon="-1.702039"><ele>254</ele><time>2022-04-08T10:10:07Z</time><name>PT909</name></trkpt>
<trkpt lat="53.501329" lon="-1.702017"><ele>254</ele><time>2022-04-08T10:10:08Z</time><name>PT910</name></trkpt>
<trkpt lat="53.501325" lon="-1.701996"><ele>254</ele><time>2022-04-08T10:10:09Z</time><name>PT911</name></trkpt>
<trkpt lat="53.501324" lon="-1.701975"><ele>255</ele><time>2022-04-08T10:10:10Z</time><name>PT912</name></trkpt>
<trkpt lat="53.501320" lon="-1.701954"><ele>255</ele><time>2022-04-08T10:10:11Z</time><name>PT913</name></trkpt>
<trkpt lat="53.501316" lon="-1.701932"><ele>255</ele><time>2022-04-08T10:10:12Z</time><name>PT914</name></trkpt>
<trkpt lat="53.501314" lon="-1.701918"><ele>255</ele><time>2022-04-08T10:10:13Z</time><name>PT915</name></trkpt>
<trkpt lat="53.501312" lon="-1.701903"><ele>255</ele><time>2022-04-08T10:10:14Z</time><name>PT916</name></trkpt>
<trkpt lat="53.501308" lon="-1.701887"><ele>255</ele><time>2022-04-08T10:10:15Z</time><name>PT917</name></trkpt>
<trkpt lat="53.501304" lon="-1.701872"><ele>255</ele><time>2022-04-08T10:10:16Z</time><name>PT918</name></trkpt>
<trkpt lat="53.501299" lon="-1.701853"><ele>255</ele><time>2022-04-08T10:10:17Z</time><name>PT919</name></trkpt>
<trkpt lat="53.501295" lon="-1.701836"><ele>256</ele><time>2022-04-08T10:10:18Z</time><name>PT920</name></trkpt>
<trkpt lat="53.501290" lon="-1.701819"><ele>256</ele><time>2022-04-08T10:10:19Z</time><name>PT921</name></trkpt>
<trkpt lat="53.501285" lon="-1.701802"><ele>257</ele><time>2022-04-08T10:10:20Z</time><name>PT922</name></trkpt>
<trkpt lat="53.501280" lon="-1.701786"><ele>257</ele><time>2022-04-08T10:10:21Z</time><name>PT923</name></trkpt>
<trkpt lat="53.501275" lon="-1.701772"><ele>257</ele><time>2022-04-08T10:10:22Z</time><name>PT924</name></trkpt>
<trkpt lat="53.501269" lon="-1.701754"><ele>257</ele><time>2022-04-08T10:10:24Z</time><name>PT925</name></trkpt>
<trkpt lat="53.501266" lon="-1.701737"><ele>258</ele><time>2022-04-08T10:10:24Z</time><name>PT926</name></trkpt>
<trkpt lat="53.501261" lon="-1.701721"><ele>258</ele><time>2022-04-08T10:10:26Z</time><name>PT927</name></trkpt>
<trkpt lat="53.501254" lon="-1.701703"><ele>258</ele><time>2022-04-08T10:10:26Z</time><name>PT928</name></trkpt>
<trkpt lat="53.501250" lon="-1.701692"><ele>258</ele><time>2022-04-08T10:10:27Z</time><name>PT929</name></trkpt>
<trkpt lat="53.501244" lon="-1.701674"><ele>259</ele><time>2022-04-08T10:10:29Z</time><name>PT930</name></trkpt>
<trkpt lat="53.501238" lon="-1.701659"><ele>259</ele><time>2022-04-08T10:10:29Z</time><name>PT931</name></trkpt>
<trkpt lat="53.501233" lon="-1.701645"><ele>259</ele><time>2022-04-08T10:10:30Z</time><name>PT932</name></trkpt>
<trkpt lat="53.501227" lon="-1.701627"><ele>259</ele><time>2022-04-08T10:10:32Z</time><name>PT933</name></trkpt>
<trkpt lat="53.501221" lon="-1.701615"><ele>259</ele><time>2022-04-08T10:10:32Z</time><name>PT934</name></trkpt>
<trkpt lat="53.501215" lon="-1.701611"><ele>259</ele><time>2022-04-08T10:10:33Z</time><name>PT935</name></trkpt>
<trkpt lat="53.501208" lon="-1.701603"><ele>259</ele><time>2022-04-08T10:10:35Z</time><name>PT936</name></trkpt>
<trkpt lat="53.501199" lon="-1.701595"><ele>259</ele><time>2022-04-08T10:10:35Z</time><name>PT937</name></trkpt>
<trkpt lat="53.501194" lon="-1.701575"><ele>259</ele><time>2022-04-08T10:10:36Z</time><name>PT938</name></trkpt>
<trkpt lat="53.501185" lon="-1.701569"><ele>260</ele><time>2022-04-08T10:10:38Z</time><name>PT939</name></trkpt>
<trkpt lat="53.501172" lon="-1.701567"><ele>260</ele><time>2022-04-08T10:10:38Z</time><name>PT940</name></trkpt>
<trkpt lat="53.501165" lon="-1.701563"><ele>260</ele><time>2022-04-08T10:10:39Z</time><name>PT941</name></trkpt>
<trkpt lat="53.501156" lon="-1.701560"><ele>261</ele><time>2022-04-08T10:10:40Z</time><name>PT942</name></trkpt>
<trkpt lat="53.501147" lon="-1.701557"><ele>261</ele><time>2022-04-08T10:10:41Z</time><name>PT943</name></trkpt>
<trkpt lat="53.501140" lon="-1.701557"><ele>261</ele><time>2022-04-08T10:10:42Z</time><name>PT944</name></trkpt>
<trkpt lat="53.501131" lon="-1.701560"><ele>262</ele><time>2022-04-08T10:10:43Z</time><name>PT945</name></trkpt>
<trkpt lat="53.501123" lon="-1.701561"><ele>262</ele><time>2022-04-08T10:10:44Z</time><name>PT946</name></trkpt>
<trkpt lat="53.501116" lon="-1.701571"><ele>262</ele><time>2022-04-08T10:10:45Z</time><name>PT947</name></trkpt>
<trkpt lat="53.501111" lon="-1.701589"><ele>262</ele><time>2022-04-08T10:10:46Z</time><name>PT948</name></trkpt>
<trkpt lat="53.501107" lon="-1.701590"><ele>262</ele><time>2022-04-08T10:10:47Z</time><name>PT949</name></trkpt>
<trkpt lat="53.501107" lon="-1.701587"><ele>262</ele><time>2022-04-08T10:10:48Z</time><name>PT950</name></trkpt>
<trkpt lat="53.501102" lon="-1.701585"><ele>262</ele><time>2022-04-08T10:10:49Z</time><name>PT951</name></trkpt>
<trkpt lat="53.501098" lon="-1.701577"><ele>263</ele><time>2022-04-08T10:10:53Z</time><name>PT952</name></trkpt>
<trkpt lat="53.501090" lon="-1.701574"><ele>263</ele><time>2022-04-08T10:10:54Z</time><name>PT953</name></trkpt>
<trkpt lat="53.501078" lon="-1.701575"><ele>263</ele><time>2022-04-08T10:10:55Z</time><name>PT954</name></trkpt>
<trkpt lat="53.501069" lon="-1.701576"><ele>264</ele><time>2022-04-08T10:10:56Z</time><name>PT955</name></trkpt>
<trkpt lat="53.501058" lon="-1.701575"><ele>264</ele><time>2022-04-08T10:10:57Z</time><name>PT956</name></trkpt>
<trkpt lat="53.501046" lon="-1.701570"><ele>264</ele><time>2022-04-08T10:10:58Z</time><name>PT957</name></trkpt>
<trkpt lat="53.501036" lon="-1.701568"><ele>265</ele><time>2022-04-08T10:10:59Z</time><name>PT958</name></trkpt>
<trkpt lat="53.501031" lon="-1.701571"><ele>265</ele><time>2022-04-08T10:11:00Z</time><name>PT959</name></trkpt>
<trkpt lat="53.501018" lon="-1.701572"><ele>265</ele><time>2022-04-08T10:11:01Z</time><name>PT960</name></trkpt>
<trkpt lat="53.501008" lon="-1.701573"><ele>265</ele><time>2022-04-08T10:11:02Z</time><name>PT961</name></trkpt>
<trkpt lat="53.500999" lon="-1.701572"><ele>265</ele><time>2022-04-08T10:11:03Z</time><name>PT962</name></trkpt>
<trkpt lat="53.500992" lon="-1.701575"><ele>265</ele><time>2022-04-08T10:11:04Z</time><name>PT963</name></trkpt>
<trkpt lat="53.500983" lon="-1.701577"><ele>265</ele><time>2022-04-08T10:11:05Z</time><name>PT964</name></trkpt>
<trkpt lat="53.500972" lon="-1.701577"><ele>266</ele><time>2022-04-08T10:11:06Z</time><name>PT965</name></trkpt>
<trkpt lat="53.500963" lon="-1.701578"><ele>266</ele><time>2022-04-08T10:11:07Z</time><name>PT966</name></trkpt>
<trkpt lat="53.500955" lon="-1.701580"><ele>266</ele><time>2022-04-08T10:11:08Z</time><name>PT967</name></trkpt>
<trkpt lat="53.500948" lon="-1.701585"><ele>266</ele><time>2022-04-08T10:11:09Z</time><name>PT968</name></trkpt>
<trkpt lat="53.500936" lon="-1.701589"><ele>266</ele><time>2022-04-08T10:11:10Z</time><name>PT969</name></trkpt>
<trkpt lat="53.500932" lon="-1.701590"><ele>268</ele><time>2022-04-08T10:11:11Z</time><name>PT970</name></trkpt>
<trkpt lat="53.500924" lon="-1.701590"><ele>268</ele><time>2022-04-08T10:11:12Z</time><name>PT971</name></trkpt>
<trkpt lat="53.500914" lon="-1.701590"><ele>269</ele><time>2022-04-08T10:11:13Z</time><name>PT972</name></trkpt>
<trkpt lat="53.500905" lon="-1.701590"><ele>269</ele><time>2022-04-08T10:11:14Z</time><name>PT973</name></trkpt>
<trkpt lat="53.500895" lon="-1.701590"><ele>269</ele><time>2022-04-08T10:11:15Z</time><name>PT974</name></trkpt>
<trkpt lat="53.500887" lon="-1.701593"><ele>270</ele><time>2022-04-08T10:11:16Z</time><name>PT975</name></trkpt>
<trkpt lat="53.500877" lon="-1.701593"><ele>269</ele><time>2022-04-08T10:11:17Z</time><name>PT976</name></trkpt>
<trkpt lat="53.500872" lon="-1.701594"><ele>270</ele><time>2022-04-08T10:11:18Z</time><name>PT977</name></trkpt>
<trkpt lat="53.500868" lon="-1.701598"><ele>270</ele><time>2022-04-08T10:11:19Z</time><name>PT978</name></trkpt>
<trkpt lat="53.500863" lon="-1.701603"><ele>270</ele><time>2022-04-08T10:11:20Z</time><name>PT979</name></trkpt>
<trkpt lat="53.500858" lon="-1.701609"><ele>270</ele><time>2022-04-08T10:11:21Z</time><name>PT980</name></trkpt>
<trkpt lat="53.500854" lon="-1.701616"><ele>271</ele><time>2022-04-08T10:11:22Z</time><name>PT981</name></trkpt>
<trkpt lat="53.500849" lon="-1.701622"><ele>271</ele><time>2022-04-08T10:11:23Z</time><name>PT982</name></trkpt>
<trkpt lat="53.500847" lon="-1.701629"><ele>271</ele><time>2022-04-08T10:11:24Z</time><name>PT983</name></trkpt>
<trkpt lat="53.500846" lon="-1.701634"><ele>272</ele><time>2022-04-08T10:11:25Z</time><name>PT984</name></trkpt>
<trkpt lat="53.500847" lon="-1.701644"><ele>272</ele><time>2022-04-08T10:11:26Z</time><name>PT985</name></trkpt>
<trkpt lat="53.500849" lon="-1.701657"><ele>271</ele><time>2022-04-08T10:11:27Z</time><name>PT986</name></trkpt>
<trkpt lat="53.500853" lon="-1.701670"><ele>271</ele><time>2022-04-08T10:11:28Z</time><name>PT987</name></trkpt>
<trkpt lat="53.500855" lon="-1.701679"><ele>272</ele><time>2022-04-08T10:11:29Z</time><name>PT988</name></trkpt>
<trkpt lat="53.500857" lon="-1.701688"><ele>272</ele><time>2022-04-08T10:11:30Z</time><name>PT989</name></trkpt>
<trkpt lat="53.500861" lon="-1.701699"><ele>273</ele><time>2022-04-08T10:11:31Z</time><name>PT990</name></trkpt>
<trkpt lat="53.500862" lon="-1.701707"><ele>272</ele><time>2022-04-08T10:11:32Z</time><name>PT991</name></trkpt>
<trkpt lat="53.500865" lon="-1.701715"><ele>272</ele><time>2022-04-08T10:11:33Z</time><name>PT992</name></trkpt>
<trkpt lat="53.500868" lon="-1.701730"><ele>273</ele><time>2022-04-08T10:11:34Z</time><name>PT993</name></trkpt>
<trkpt lat="53.500871" lon="-1.701740"><ele>273</ele><time>2022-04-08T10:11:35Z</time><name>PT994</name></trkpt>
<trkpt lat="53.500875" lon="-1.701748"><ele>274</ele><time>2022-04-08T10:11:36Z</time><name>PT995</name></trkpt>
<trkpt lat="53.500876" lon="-1.701758"><ele>274</ele><time>2022-04-08T10:11:37Z</time><name>PT996</name></trkpt>
<trkpt lat="53.500877" lon="-1.701770"><ele>274</ele><time>2022-04-08T10:11:38Z</time><name>PT997</name></trkpt>
<trkpt lat="53.500878" lon="-1.701782"><ele>274</ele><time>2022-04-08T10:11:39Z</time><name>PT998</name></trkpt>
<trkpt lat="53.500881" lon="-1.701789"><ele>274</ele><time>2022-04-08T10:11:40Z</time><name>PT999</name></trkpt>
<trkpt lat="53.500882" lon="-1.701799"><ele>275</ele><time>2022-04-08T10:11:41Z</time><name>PT1000</name></trkpt>
<trkpt lat="53.500882" lon="-1.701810"><ele>275</ele><time>2022-04-08T10:11:42Z</time><name>PT1001</name></trkpt>
<trkpt lat="53.500882" lon="-1.701820"><ele>275</ele><time>2022-04-08T10:11:43Z</time><name>PT1002</name></trkpt>
<trkpt lat="53.500884" lon="-1.701831"><ele>275</ele><time>2022-04-08T10:11:44Z</time><name>PT1003</name></trkpt>
<trkpt lat="53.500885" lon="-1.701845"><ele>276</ele><time>2022-04-08T10:11:45Z</time><name>PT1004</name></trkpt>
<trkpt lat="53.500888" lon="-1.701859"><ele>276</ele><time>2022-04-08T10:11:46Z</time><name>PT1005</name></trkpt>
<trkpt lat="53.500889" lon="-1.701872"><ele>276</ele><time>2022-04-08T10:11:47Z</time><name>PT1006</name></trkpt>
<trkpt lat="53.500890" lon="-1.701883"><ele>276</ele><time>2022-04-08T10:11:48Z</time><name>PT1007</name></trkpt>
<trkpt lat="53.500892" lon="-1.701896"><ele>277</ele><time>2022-04-08T10:11:49Z</time><name>PT1008</name></trkpt>
<trkpt lat="53.500892" lon="-1.701916"><ele>276</ele><time>2022-04-08T10:11:50Z</time><name>PT1009</name></trkpt>
<trkpt lat="53.500893" lon="-1.701931"><ele>276</ele><time>2022-04-08T10:11:51Z</time><name>PT1010</name></trkpt>
<trkpt lat="53.500894" lon="-1.701945"><ele>275</ele><time>2022-04-08T10:11:52Z</time><name>PT1011</name></trkpt>
<trkpt lat="53.500896" lon="-1.701960"><ele>275</ele><time>2022-04-08T10:11:53Z</time><name>PT1012</name></trkpt>
<trkpt lat="53.500897" lon="-1.701977"><ele>276</ele><time>2022-04-08T10:11:54Z</time><name>PT1013</name></trkpt>
<trkpt lat="53.500899" lon="-1.701997"><ele>276</ele><time>2022-04-08T10:11:55Z</time><name>PT1014</name></trkpt>
<trkpt lat="53.500903" lon="-1.702012"><ele>276</ele><time>2022-04-08T10:11:56Z</time><name>PT1015</name></trkpt>
<trkpt lat="53.500906" lon="-1.702030"><ele>276</ele><time>2022-04-08T10:11:57Z</time><name>PT1016</name></trkpt>
<trkpt lat="53.500906" lon="-1.702045"><ele>277</ele><time>2022-04-08T10:11:58Z</time><name>PT1017</name></trkpt>
<trkpt lat="53.500906" lon="-1.702061"><ele>277</ele><time>2022-04-08T10:11:59Z</time><name>PT1018</name></trkpt>
<trkpt lat="53.500906" lon="-1.702076"><ele>277</ele><time>2022-04-08T10:12:00Z</time><name>PT1019</name></trkpt>
<trkpt lat="53.500906" lon="-1.702091"><ele>278</ele><time>2022-04-08T10:12:01Z</time><name>PT1020</name></trkpt>
<trkpt lat="53.500909" lon="-1.702106"><ele>278</ele><time>2022-04-08T10:12:02Z</time><name>PT1021</name></trkpt>
<trkpt lat="53.500912" lon="-1.702120"><ele>279</ele><time>2022-04-08T10:12:03Z</time><name>PT1022</name></trkpt>
<trkpt lat="53.500911" lon="-1.702179"><ele>280</ele><time>2022-04-08T10:12:07Z</time><name>PT1023</name></trkpt>
<trkpt lat="53.500913" lon="-1.702227"><ele>280</ele><time>2022-04-08T10:12:11Z</time><name>PT1024</name></trkpt>
<trkpt lat="53.500914" lon="-1.702290"><ele>280</ele><time>2022-04-08T10:12:15Z</time><name>PT1025</name></trkpt>
<trkpt lat="53.500912" lon="-1.702347"><ele>281</ele><time>2022-04-08T10:12:19Z</time><name>PT1026</name></trkpt>
<trkpt lat="53.500919" lon="-1.702399"><ele>282</ele><time>2022-04-08T10:12:23Z</time><name>PT1027</name></trkpt>
<trkpt lat="53.500920" lon="-1.702463"><ele>282</ele><time>2022-04-08T10:12:27Z</time><name>PT1028</name></trkpt>
<trkpt lat="53.500915" lon="-1.702522"><ele>282</ele><time>2022-04-08T10:12:31Z</time><name>PT1029</name></trkpt>
<trkpt lat="53.500905" lon="-1.702584"><ele>281</ele><time>2022-04-08T10:12:35Z</time><name>PT1030</name></trkpt>
<trkpt lat="53.500889" lon="-1.702642"><ele>282</ele><time>2022-04-08T10:12:39Z</time><name>PT1031</name></trkpt>
<trkpt lat="53.500865" lon="-1.702703"><ele>282</ele><time>2022-04-08T10:12:43Z</time><name>PT1032</name></trkpt>
<trkpt lat="53.500837" lon="-1.702750"><ele>282</ele><time>2022-04-08T10:12:47Z</time><name>PT1033</name></trkpt>
<trkpt lat="53.500804" lon="-1.702772"><ele>282</ele><time>2022-04-08T10:12:51Z</time><name>PT1034</name></trkpt>
<trkpt lat="53.500773" lon="-1.702797"><ele>283</ele><time>2022-04-08T10:12:55Z</time><name>PT1035</name></trkpt>
<trkpt lat="53.500769" lon="-1.702802"><ele>282</ele><time>2022-04-08T10:12:59Z</time><name>PT1036</name></trkpt>
<trkpt lat="53.500765" lon="-1.702802"><ele>282</ele><time>2022-04-08T10:13:03Z</time><name>PT1037</name></trkpt>
<trkpt lat="53.500722" lon="-1.702804"><ele>283</ele><time>2022-04-08T10:13:07Z</time><name>PT1038</name></trkpt>
<trkpt lat="53.500675" lon="-1.702801"><ele>283</ele><time>2022-04-08T10:13:11Z</time><name>PT1039</name></trkpt>
<trkpt lat="53.500627" lon="-1.702805"><ele>284</ele><time>2022-04-08T10:13:15Z</time><name>PT1040</name></trkpt>
<trkpt lat="53.500590" lon="-1.702793"><ele>284</ele><time>2022-04-08T10:13:19Z</time><name>PT1041</name></trkpt>
<trkpt lat="53.500565" lon="-1.702774"><ele>285</ele><time>2022-04-08T10:13:22Z</time><name>PT1042</name></trkpt>
<trkpt lat="53.500556" lon="-1.702765"><ele>285</ele><time>2022-04-08T10:13:23Z</time><name>PT1043</name></trkpt>
<trkpt lat="53.500545" lon="-1.702768"><ele>284</ele><time>2022-04-08T10:13:24Z</time><name>PT1044</name></trkpt>
<trkpt lat="53.500530" lon="-1.702773"><ele>285</ele><time>2022-04-08T10:13:25Z</time><name>PT1045</name></trkpt>
<trkpt lat="53.500522" lon="-1.702776"><ele>285</ele><time>2022-04-08T10:13:26Z</time><name>PT1046</name></trkpt>
<trkpt lat="53.500513" lon="-1.702777"><ele>285</ele><time>2022-04-08T10:13:27Z</time><name>PT1047</name></trkpt>
<trkpt lat="53.500504" lon="-1.702771"><ele>285</ele><time>2022-04-08T10:13:28Z</time><name>PT1048</name></trkpt>
<trkpt lat="53.500496" lon="-1.702771"><ele>285</ele><time>2022-04-08T10:13:29Z</time><name>PT1049</name></trkpt>
<trkpt lat="53.500489" lon="-1.702777"><ele>285</ele><time>2022-04-08T10:13:30Z</time><name>PT1050</name></trkpt>
<trkpt lat="53.500482" lon="-1.702778"><ele>285</ele><time>2022-04-08T10:13:31Z</time><name>PT1051</name></trkpt>
<trkpt lat="53.500473" lon="-1.702782"><ele>286</ele><time>2022-04-08T10:13:32Z</time><name>PT1052</name></trkpt>
<trkpt lat="53.500463" lon="-1.702783"><ele>286</ele><time>2022-04-08T10:13:33Z</time><name>PT1053</name></trkpt>
<trkpt lat="53.500454" lon="-1.702781"><ele>286</ele><time>2022-04-08T10:13:34Z</time><name>PT1054</name></trkpt>
<trkpt lat="53.500445" lon="-1.702779"><ele>286</ele><time>2022-04-08T10:13:35Z</time><name>PT1055</name></trkpt>
<trkpt lat="53.500436" lon="-1.702775"><ele>286</ele><time>2022-04-08T10:13:36Z</time><name>PT1056</name></trkpt>
<trkpt lat="53.500426" lon="-1.702772"><ele>286</ele><time>2022-04-08T10:13:37Z</time><name>PT1057</name></trkpt>
<trkpt lat="53.500419" lon="-1.702769"><ele>287</ele><time>2022-04-08T10:13:38Z</time><name>PT1058</name></trkpt>
<trkpt lat="53.500417" lon="-1.702770"><ele>286</ele><time>2022-04-08T10:13:39Z</time><name>PT1059</name></trkpt>
<trkpt lat="53.500415" lon="-1.702769"><ele>286</ele><time>2022-04-08T10:13:40Z</time><name>PT1060</name></trkpt>
<trkpt lat="53.500412" lon="-1.702770"><ele>286</ele><time>2022-04-08T10:13:41Z</time><name>PT1061</name></trkpt>
<trkpt lat="53.500405" lon="-1.702768"><ele>286</ele><time>2022-04-08T10:13:42Z</time><name>PT1062</name></trkpt>
<trkpt lat="53.500397" lon="-1.702767"><ele>285</ele><time>2022-04-08T10:13:43Z</time><name>PT1063</name></trkpt>
<trkpt lat="53.500390" lon="-1.702764"><ele>285</ele><time>2022-04-08T10:13:44Z</time><name>PT1064</name></trkpt>
<trkpt lat="53.500381" lon="-1.702756"><ele>285</ele><time>2022-04-08T10:13:45Z</time><name>PT1065</name></trkpt>
<trkpt lat="53.500372" lon="-1.702750"><ele>285</ele><time>2022-04-08T10:13:46Z</time><name>PT1066</name></trkpt>
<trkpt lat="53.500364" lon="-1.702744"><ele>285</ele><time>2022-04-08T10:13:47Z</time><name>PT1067</name></trkpt>
<trkpt lat="53.500356" lon="-1.702741"><ele>285</ele><time>2022-04-08T10:13:48Z</time><name>PT1068</name></trkpt>
<trkpt lat="53.500349" lon="-1.702737"><ele>284</ele><time>2022-04-08T10:13:49Z</time><name>PT1069</name></trkpt>
<trkpt lat="53.500339" lon="-1.702735"><ele>285</ele><time>2022-04-08T10:13:50Z</time><name>PT1070</name></trkpt>
<trkpt lat="53.500331" lon="-1.702731"><ele>285</ele><time>2022-04-08T10:13:51Z</time><name>PT1071</name></trkpt>
<trkpt lat="53.500321" lon="-1.702729"><ele>285</ele><time>2022-04-08T10:13:52Z</time><name>PT1072</name></trkpt>
<trkpt lat="53.500312" lon="-1.702729"><ele>285</ele><time>2022-04-08T10:13:53Z</time><name>PT1073</name></trkpt>
<trkpt lat="53.500302" lon="-1.702724"><ele>285</ele><time>2022-04-08T10:13:54Z</time><name>PT1074</name></trkpt>
<trkpt lat="53.500294" lon="-1.702716"><ele>285</ele><time>2022-04-08T10:13:55Z</time><name>PT1075</name></trkpt>
<trkpt lat="53.500285" lon="-1.702715"><ele>284</ele><time>2022-04-08T10:13:56Z</time><name>PT1076</name></trkpt>
<trkpt lat="53.500274" lon="-1.702713"><ele>284</ele><time>2022-04-08T10:13:57Z</time><name>PT1077</name></trkpt>
<trkpt lat="53.500265" lon="-1.702710"><ele>284</ele><time>2022-04-08T10:13:58Z</time><name>PT1078</name></trkpt>
<trkpt lat="53.500254" lon="-1.702706"><ele>284</ele><time>2022-04-08T10:13:59Z</time><name>PT1079</name></trkpt>
<trkpt lat="53.500247" lon="-1.702701"><ele>284</ele><time>2022-04-08T10:14:00Z</time><name>PT1080</name></trkpt>
<trkpt lat="53.500236" lon="-1.702695"><ele>285</ele><time>2022-04-08T10:14:01Z</time><name>PT1081</name></trkpt>
<trkpt lat="53.500227" lon="-1.702689"><ele>285</ele><time>2022-04-08T10:14:02Z</time><name>PT1082</name></trkpt>
<trkpt lat="53.500219" lon="-1.702684"><ele>285</ele><time>2022-04-08T10:14:03Z</time><name>PT1083</name></trkpt>
<trkpt lat="53.500210" lon="-1.702680"><ele>285</ele><time>2022-04-08T10:14:04Z</time><name>PT1084</name></trkpt>
<trkpt lat="53.500201" lon="-1.702680"><ele>285</ele><time>2022-04-08T10:14:05Z</time><name>PT1085</name></trkpt>
<trkpt lat="53.500192" lon="-1.702681"><ele>286</ele><time>2022-04-08T10:14:06Z</time><name>PT1086</name></trkpt>
<trkpt lat="53.500184" lon="-1.702680"><ele>286</ele><time>2022-04-08T10:14:07Z</time><name>PT1087</name></trkpt>
<trkpt lat="53.500175" lon="-1.702679"><ele>286</ele><time>2022-04-08T10:14:08Z</time><name>PT1088</name></trkpt>
<trkpt lat="53.500165" lon="-1.702684"><ele>286</ele><time>2022-04-08T10:14:09Z</time><name>PT1089</name></trkpt>
<trkpt lat="53.500155" lon="-1.702687"><ele>286</ele><time>2022-04-08T10:14:10Z</time><name>PT1090</name></trkpt>
<trkpt lat="53.500146" lon="-1.702685"><ele>286</ele><time>2022-04-08T10:14:11Z</time><name>PT1091</name></trkpt>
<trkpt lat="53.500136" lon="-1.702685"><ele>286</ele><time>2022-04-08T10:14:12Z</time><name>PT1092</name></trkpt>
<trkpt lat="53.500124" lon="-1.702686"><ele>287</ele><time>2022-04-08T10:14:13Z</time><name>PT1093</name></trkpt>
<trkpt lat="53.500114" lon="-1.702685"><ele>287</ele><time>2022-04-08T10:14:14Z</time><name>PT1094</name></trkpt>
<trkpt lat="53.500104" lon="-1.702683"><ele>287</ele><time>2022-04-08T10:14:15Z</time><name>PT1095</name></trkpt>
<trkpt lat="53.500094" lon="-1.702684"><ele>287</ele><time>2022-04-08T10:14:16Z</time><name>PT1096</name></trkpt>
<trkpt lat="53.500083" lon="-1.702685"><ele>287</ele><time>2022-04-08T10:14:17Z</time><name>PT1097</name></trkpt>
<trkpt lat="53.500072" lon="-1.702684"><ele>287</ele><time>2022-04-08T10:14:18Z</time><name>PT1098</name></trkpt>
<trkpt lat="53.500062" lon="-1.702682"><ele>287</ele><time>2022-04-08T10:14:19Z</time><name>PT1099</name></trkpt>
<trkpt lat="53.500055" lon="-1.702681"><ele>287</ele><time>2022-04-08T10:14:21Z</time><name>PT1100</name></trkpt>
<trkpt lat="53.500045" lon="-1.702681"><ele>288</ele><time>2022-04-08T10:14:21Z</time><name>PT1101</name></trkpt>
<trkpt lat="53.500033" lon="-1.702683"><ele>288</ele><time>2022-04-08T10:14:22Z</time><name>PT1102</name></trkpt>
<trkpt lat="53.500022" lon="-1.702681"><ele>288</ele><time>2022-04-08T10:14:24Z</time><name>PT1103</name></trkpt>
<trkpt lat="53.500012" lon="-1.702683"><ele>288</ele><time>2022-04-08T10:14:24Z</time><name>PT1104</name></trkpt>
<trkpt lat="53.500002" lon="-1.702683"><ele>288</ele><time>2022-04-08T10:14:25Z</time><name>PT1105</name></trkpt>
<trkpt lat="53.499991" lon="-1.702683"><ele>288</ele><time>2022-04-08T10:14:27Z</time><name>PT1106</name></trkpt>
<trkpt lat="53.499982" lon="-1.702686"><ele>289</ele><time>2022-04-08T10:14:27Z</time><name>PT1107</name></trkpt>
<trkpt lat="53.499974" lon="-1.702688"><ele>289</ele><time>2022-04-08T10:14:28Z</time><name>PT1108</name></trkpt>
<trkpt lat="53.499966" lon="-1.702687"><ele>289</ele><time>2022-04-08T10:14:30Z</time><name>PT1109</name></trkpt>
<trkpt lat="53.499956" lon="-1.702688"><ele>289</ele><time>2022-04-08T10:14:30Z</time><name>PT1110</name></trkpt>
<trkpt lat="53.499946" lon="-1.702690"><ele>289</ele><time>2022-04-08T10:14:31Z</time><name>PT1111</name></trkpt>
<trkpt lat="53.499937" lon="-1.702692"><ele>290</ele><time>2022-04-08T10:14:32Z</time><name>PT1112</name></trkpt>
<trkpt lat="53.499927" lon="-1.702694"><ele>290</ele><time>2022-04-08T10:14:33Z</time><name>PT1113</name></trkpt>
<trkpt lat="53.499918" lon="-1.702694"><ele>289</ele><time>2022-04-08T10:14:34Z</time><name>PT1114</name></trkpt>
<trkpt lat="53.499906" lon="-1.702694"><ele>290</ele><time>2022-04-08T10:14:35Z</time><name>PT1115</name></trkpt>
<trkpt lat="53.499896" lon="-1.702695"><ele>290</ele><time>2022-04-08T10:14:36Z</time><name>PT1116</name></trkpt>
<trkpt lat="53.499886" lon="-1.702698"><ele>290</ele><time>2022-04-08T10:14:37Z</time><name>PT1117</name></trkpt>
<trkpt lat="53.499874" lon="-1.702702"><ele>290</ele><time>2022-04-08T10:14:38Z</time><name>PT1118</name></trkpt>
<trkpt lat="53.499865" lon="-1.702706"><ele>290</ele><time>2022-04-08T10:14:39Z</time><name>PT1119</name></trkpt>
<trkpt lat="53.499856" lon="-1.702709"><ele>290</ele><time>2022-04-08T10:14:40Z</time><name>PT1120</name></trkpt>
<trkpt lat="53.499846" lon="-1.702709"><ele>290</ele><time>2022-04-08T10:14:41Z</time><name>PT1121</name></trkpt>
<trkpt lat="53.499837" lon="-1.702706"><ele>290</ele><time>2022-04-08T10:14:42Z</time><name>PT1122</name></trkpt>
<trkpt lat="53.499830" lon="-1.702706"><ele>289</ele><time>2022-04-08T10:14:43Z</time><name>PT1123</name></trkpt>
<trkpt lat="53.499820" lon="-1.702706"><ele>289</ele><time>2022-04-08T10:14:44Z</time><name>PT1124</name></trkpt>
<trkpt lat="53.499811" lon="-1.702704"><ele>289</ele><time>2022-04-08T10:14:45Z</time><name>PT1125</name></trkpt>
<trkpt lat="53.499798" lon="-1.702704"><ele>290</ele><time>2022-04-08T10:14:46Z</time><name>PT1126</name></trkpt>
<trkpt lat="53.499787" lon="-1.702706"><ele>290</ele><time>2022-04-08T10:14:47Z</time><name>PT1127</name></trkpt>
<trkpt lat="53.499777" lon="-1.702708"><ele>290</ele><time>2022-04-08T10:14:48Z</time><name>PT1128</name></trkpt>
<trkpt lat="53.499765" lon="-1.702709"><ele>290</ele><time>2022-04-08T10:14:49Z</time><name>PT1129</name></trkpt>
<trkpt lat="53.499753" lon="-1.702708"><ele>290</ele><time>2022-04-08T10:14:50Z</time><name>PT1130</name></trkpt>
<trkpt lat="53.499741" lon="-1.702706"><ele>291</ele><time>2022-04-08T10:14:51Z</time><name>PT1131</name></trkpt>
<trkpt lat="53.499730" lon="-1.702704"><ele>291</ele><time>2022-04-08T10:14:52Z</time><name>PT1132</name></trkpt>
<trkpt lat="53.499719" lon="-1.702705"><ele>291</ele><time>2022-04-08T10:14:53Z</time><name>PT1133</name></trkpt>
<trkpt lat="53.499708" lon="-1.702705"><ele>291</ele><time>2022-04-08T10:14:54Z</time><name>PT1134</name></trkpt>
<trkpt lat="53.499698" lon="-1.702704"><ele>291</ele><time>2022-04-08T10:14:55Z</time><name>PT1135</name></trkpt>
<trkpt lat="53.499688" lon="-1.702699"><ele>291</ele><time>2022-04-08T10:14:56Z</time><name>PT1136</name></trkpt>
<trkpt lat="53.499678" lon="-1.702697"><ele>291</ele><time>2022-04-08T10:14:57Z</time><name>PT1137</name></trkpt>
<trkpt lat="53.499668" lon="-1.702696"><ele>291</ele><time>2022-04-08T10:14:58Z</time><name>PT1138</name></trkpt>
<trkpt lat="53.499659" lon="-1.702696"><ele>291</ele><time>2022-04-08T10:14:59Z</time><name>PT1139</name></trkpt>
<trkpt lat="53.499649" lon="-1.702695"><ele>291</ele><time>2022-04-08T10:15:00Z</time><name>PT1140</name></trkpt>
<trkpt lat="53.499639" lon="-1.702694"><ele>291</ele><time>2022-04-08T10:15:01Z</time><name>PT1141</name></trkpt>
<trkpt lat="53.499627" lon="-1.702694"><ele>291</ele><time>2022-04-08T10:15:02Z</time><name>PT1142</name></trkpt>
<trkpt lat="53.499617" lon="-1.702695"><ele>291</ele><time>2022-04-08T10:15:03Z</time><name>PT1143</name></trkpt>
<trkpt lat="53.499608" lon="-1.702695"><ele>291</ele><time>2022-04-08T10:15:04Z</time><name>PT1144</name></trkpt>
<trkpt lat="53.499600" lon="-1.702694"><ele>291</ele><time>2022-04-08T10:15:05Z</time><name>PT1145</name></trkpt>
<trkpt lat="53.499591" lon="-1.702694"><ele>291</ele><time>2022-04-08T10:15:06Z</time><name>PT1146</name></trkpt>
<trkpt lat="53.499578" lon="-1.702696"><ele>291</ele><time>2022-04-08T10:15:07Z</time><name>PT1147</name></trkpt>
<trkpt lat="53.499567" lon="-1.702698"><ele>292</ele><time>2022-04-08T10:15:08Z</time><name>PT1148</name></trkpt>
<trkpt lat="53.499554" lon="-1.702703"><ele>292</ele><time>2022-04-08T10:15:09Z</time><name>PT1149</name></trkpt>
<trkpt lat="53.499544" lon="-1.702705"><ele>292</ele><time>2022-04-08T10:15:10Z</time><name>PT1150</name></trkpt>
<trkpt lat="53.499532" lon="-1.702702"><ele>292</ele><time>2022-04-08T10:15:11Z</time><name>PT1151</name></trkpt>
<trkpt lat="53.499520" lon="-1.702699"><ele>292</ele><time>2022-04-08T10:15:12Z</time><name>PT1152</name></trkpt>
<trkpt lat="53.499510" lon="-1.702697"><ele>292</ele><time>2022-04-08T10:15:13Z</time><name>PT1153</name></trkpt>
<trkpt lat="53.499501" lon="-1.702699"><ele>293</ele><time>2022-04-08T10:15:14Z</time><name>PT1154</name></trkpt>
<trkpt lat="53.499493" lon="-1.702699"><ele>292</ele><time>2022-04-08T10:15:15Z</time><name>PT1155</name></trkpt>
<trkpt lat="53.499484" lon="-1.702698"><ele>293</ele><time>2022-04-08T10:15:16Z</time><name>PT1156</name></trkpt>
<trkpt lat="53.499470" lon="-1.702699"><ele>293</ele><time>2022-04-08T10:15:17Z</time><name>PT1157</name></trkpt>
<trkpt lat="53.499460" lon="-1.702701"><ele>293</ele><time>2022-04-08T10:15:18Z</time><name>PT1158</name></trkpt>
<trkpt lat="53.499448" lon="-1.702705"><ele>293</ele><time>2022-04-08T10:15:19Z</time><name>PT1159</name></trkpt>
<trkpt lat="53.499438" lon="-1.702709"><ele>293</ele><time>2022-04-08T10:15:20Z</time><name>PT1160</name></trkpt>
<trkpt lat="53.499425" lon="-1.702712"><ele>294</ele><time>2022-04-08T10:15:21Z</time><name>PT1161</name></trkpt>
<trkpt lat="53.499413" lon="-1.702716"><ele>294</ele><time>2022-04-08T10:15:22Z</time><name>PT1162</name></trkpt>
<trkpt lat="53.499381" lon="-1.702726"><ele>294</ele><time>2022-04-08T10:15:25Z</time><name>PT1163</name></trkpt>
<trkpt lat="53.499331" lon="-1.702725"><ele>295</ele><time>2022-04-08T10:15:29Z</time><name>PT1164</name></trkpt>
<trkpt lat="53.499286" lon="-1.702748"><ele>295</ele><time>2022-04-08T10:15:33Z</time><name>PT1165</name></trkpt>
<trkpt lat="53.499244" lon="-1.702768"><ele>296</ele><time>2022-04-08T10:15:37Z</time><name>PT1166</name></trkpt>
<trkpt lat="53.499194" lon="-1.702794"><ele>297</ele><time>2022-04-08T10:15:41Z</time><name>PT1167</name></trkpt>
<trkpt lat="53.499153" lon="-1.702819"><ele>298</ele><time>2022-04-08T10:15:45Z</time><name>PT1168</name></trkpt>
<trkpt lat="53.499115" lon="-1.702841"><ele>298</ele><time>2022-04-08T10:15:49Z</time><name>PT1169</name></trkpt>
<trkpt lat="53.499076" lon="-1.702861"><ele>298</ele><time>2022-04-08T10:15:53Z</time><name>PT1170</name></trkpt>
<trkpt lat="53.499031" lon="-1.702868"><ele>299</ele><time>2022-04-08T10:15:57Z</time><name>PT1171</name></trkpt>
<trkpt lat="53.498995" lon="-1.702875"><ele>300</ele><time>2022-04-08T10:16:01Z</time><name>PT1172</name></trkpt>
<trkpt lat="53.498958" lon="-1.702891"><ele>301</ele><time>2022-04-08T10:16:05Z</time><name>PT1173</name></trkpt>
<trkpt lat="53.498921" lon="-1.702909"><ele>301</ele><time>2022-04-08T10:16:09Z</time><name>PT1174</name></trkpt>
<trkpt lat="53.498888" lon="-1.702935"><ele>302</ele><time>2022-04-08T10:16:13Z</time><name>PT1175</name></trkpt>
<trkpt lat="53.498854" lon="-1.702955"><ele>302</ele><time>2022-04-08T10:16:17Z</time><name>PT1176</name></trkpt>
<trkpt lat="53.498816" lon="-1.702976"><ele>303</ele><time>2022-04-08T10:16:21Z</time><name>PT1177</name></trkpt>
<trkpt lat="53.498777" lon="-1.702997"><ele>304</ele><time>2022-04-08T10:16:25Z</time><name>PT1178</name></trkpt>
<trkpt lat="53.498742" lon="-1.703018"><ele>304</ele><time>2022-04-08T10:16:29Z</time><name>PT1179</name></trkpt>
<trkpt lat="53.498707" lon="-1.703040"><ele>305</ele><time>2022-04-08T10:16:33Z</time><name>PT1180</name></trkpt>
<trkpt lat="53.498667" lon="-1.703054"><ele>305</ele><time>2022-04-08T10:16:37Z</time><name>PT1181</name></trkpt>
<trkpt lat="53.498623" lon="-1.703054"><ele>306</ele><time>2022-04-08T10:16:42Z</time><name>PT1182</name></trkpt>
<trkpt lat="53.498578" lon="-1.703064"><ele>307</ele><time>2022-04-08T10:16:45Z</time><name>PT1183</name></trkpt>
<trkpt lat="53.498536" lon="-1.703081"><ele>308</ele><time>2022-04-08T10:16:49Z</time><name>PT1184</name></trkpt>
<trkpt lat="53.498488" lon="-1.703098"><ele>308</ele><time>2022-04-08T10:16:53Z</time><name>PT1185</name></trkpt>
<trkpt lat="53.498452" lon="-1.703125"><ele>308</ele><time>2022-04-08T10:16:57Z</time><name>PT1186</name></trkpt>
<trkpt lat="53.498411" lon="-1.703141"><ele>309</ele><time>2022-04-08T10:17:01Z</time><name>PT1187</name></trkpt>
<trkpt lat="53.498372" lon="-1.703137"><ele>310</ele><time>2022-04-08T10:17:05Z</time><name>PT1188</name></trkpt>
<trkpt lat="53.498333" lon="-1.703131"><ele>311</ele><time>2022-04-08T10:17:09Z</time><name>PT1189</name></trkpt>
<trkpt lat="53.498295" lon="-1.703132"><ele>311</ele><time>2022-04-08T10:17:13Z</time><name>PT1190</name></trkpt>
<trkpt lat="53.498258" lon="-1.703127"><ele>312</ele><time>2022-04-08T10:17:17Z</time><name>PT1191</name></trkpt>
<trkpt lat="53.498218" lon="-1.703136"><ele>311</ele><time>2022-04-08T10:17:21Z</time><name>PT1192</name></trkpt>
<trkpt lat="53.498174" lon="-1.703138"><ele>312</ele><time>2022-04-08T10:17:25Z</time><name>PT1193</name></trkpt>
<trkpt lat="53.498139" lon="-1.703143"><ele>312</ele><time>2022-04-08T10:17:29Z</time><name>PT1194</name></trkpt>
<trkpt lat="53.498101" lon="-1.703148"><ele>313</ele><time>2022-04-08T10:17:33Z</time><name>PT1195</name></trkpt>
<trkpt lat="53.498064" lon="-1.703154"><ele>313</ele><time>2022-04-08T10:17:37Z</time><name>PT1196</name></trkpt>
<trkpt lat="53.498029" lon="-1.703175"><ele>313</ele><time>2022-04-08T10:17:41Z</time><name>PT1197</name></trkpt>
<trkpt lat="53.497994" lon="-1.703187"><ele>313</ele><time>2022-04-08T10:17:45Z</time><name>PT1198</name></trkpt>
<trkpt lat="53.497958" lon="-1.703205"><ele>312</ele><time>2022-04-08T10:17:49Z</time><name>PT1199</name></trkpt>
<trkpt lat="53.497914" lon="-1.703203"><ele>313</ele><time>2022-04-08T10:17:53Z</time><name>PT1200</name></trkpt>
<trkpt lat="53.497875" lon="-1.703205"><ele>314</ele><time>2022-04-08T10:17:57Z</time><name>PT1201</name></trkpt>
<trkpt lat="53.497829" lon="-1.703212"><ele>316</ele><time>2022-04-08T10:18:01Z</time><name>PT1202</name></trkpt>
<trkpt lat="53.497791" lon="-1.703216"><ele>316</ele><time>2022-04-08T10:18:05Z</time><name>PT1203</name></trkpt>
<trkpt lat="53.497752" lon="-1.703222"><ele>318</ele><time>2022-04-08T10:18:09Z</time><name>PT1204</name></trkpt>
<trkpt lat="53.497715" lon="-1.703226"><ele>318</ele><time>2022-04-08T10:18:13Z</time><name>PT1205</name></trkpt>
<trkpt lat="53.497678" lon="-1.703230"><ele>318</ele><time>2022-04-08T10:18:17Z</time><name>PT1206</name></trkpt>
<trkpt lat="53.497640" lon="-1.703226"><ele>319</ele><time>2022-04-08T10:18:21Z</time><name>PT1207</name></trkpt>
<trkpt lat="53.497594" lon="-1.703221"><ele>319</ele><time>2022-04-08T10:18:25Z</time><name>PT1208</name></trkpt>
<trkpt lat="53.497556" lon="-1.703233"><ele>319</ele><time>2022-04-08T10:18:29Z</time><name>PT1209</name></trkpt>
<trkpt lat="53.497512" lon="-1.703241"><ele>320</ele><time>2022-04-08T10:18:33Z</time><name>PT1210</name></trkpt>
<trkpt lat="53.497472" lon="-1.703251"><ele>320</ele><time>2022-04-08T10:18:38Z</time><name>PT1211</name></trkpt>
<trkpt lat="53.497437" lon="-1.703259"><ele>321</ele><time>2022-04-08T10:18:41Z</time><name>PT1212</name></trkpt>
<trkpt lat="53.497398" lon="-1.703272"><ele>322</ele><time>2022-04-08T10:18:45Z</time><name>PT1213</name></trkpt>
<trkpt lat="53.497360" lon="-1.703291"><ele>322</ele><time>2022-04-08T10:18:49Z</time><name>PT1214</name></trkpt>
<trkpt lat="53.497325" lon="-1.703316"><ele>323</ele><time>2022-04-08T10:18:53Z</time><name>PT1215</name></trkpt>
<trkpt lat="53.497288" lon="-1.703328"><ele>324</ele><time>2022-04-08T10:18:57Z</time><name>PT1216</name></trkpt>
<trkpt lat="53.497244" lon="-1.703330"><ele>325</ele><time>2022-04-08T10:19:01Z</time><name>PT1217</name></trkpt>
<trkpt lat="53.497205" lon="-1.703345"><ele>325</ele><time>2022-04-08T10:19:05Z</time><name>PT1218</name></trkpt>
<trkpt lat="53.497165" lon="-1.703344"><ele>325</ele><time>2022-04-08T10:19:09Z</time><name>PT1219</name></trkpt>
<trkpt lat="53.497121" lon="-1.703349"><ele>326</ele><time>2022-04-08T10:19:13Z</time><name>PT1220</name></trkpt>
<trkpt lat="53.497082" lon="-1.703344"><ele>326</ele><time>2022-04-08T10:19:17Z</time><name>PT1221</name></trkpt>
<trkpt lat="53.497044" lon="-1.703347"><ele>326</ele><time>2022-04-08T10:19:21Z</time><name>PT1222</name></trkpt>
<trkpt lat="53.496999" lon="-1.703348"><ele>326</ele><time>2022-04-08T10:19:25Z</time><name>PT1223</name></trkpt>
<trkpt lat="53.496969" lon="-1.703360"><ele>326</ele><time>2022-04-08T10:19:28Z</time><name>PT1224</name></trkpt>
<trkpt lat="53.496927" lon="-1.703374"><ele>326</ele><time>2022-04-08T10:19:32Z</time><name>PT1225</name></trkpt>
<trkpt lat="53.496883" lon="-1.703389"><ele>327</ele><time>2022-04-08T10:19:36Z</time><name>PT1226</name></trkpt>
<trkpt lat="53.496837" lon="-1.703407"><ele>327</ele><time>2022-04-08T10:19:40Z</time><name>PT1227</name></trkpt>
<trkpt lat="53.496798" lon="-1.703423"><ele>328</ele><time>2022-04-08T10:19:44Z</time><name>PT1228</name></trkpt>
<trkpt lat="53.496755" lon="-1.703443"><ele>328</ele><time>2022-04-08T10:19:48Z</time><name>PT1229</name></trkpt>
<trkpt lat="53.496716" lon="-1.703475"><ele>329</ele><time>2022-04-08T10:19:52Z</time><name>PT1230</name></trkpt>
<trkpt lat="53.496680" lon="-1.703505"><ele>328</ele><time>2022-04-08T10:19:56Z</time><name>PT1231</name></trkpt>
<trkpt lat="53.496657" lon="-1.703517"><ele>330</ele><time>2022-04-08T10:19:58Z</time><name>PT1232</name></trkpt>
<trkpt lat="53.496649" lon="-1.703514"><ele>330</ele><time>2022-04-08T10:19:59Z</time><name>PT1233</name></trkpt>
<trkpt lat="53.496640" lon="-1.703514"><ele>330</ele><time>2022-04-08T10:20:00Z</time><name>PT1234</name></trkpt>
<trkpt lat="53.496631" lon="-1.703513"><ele>330</ele><time>2022-04-08T10:20:01Z</time><name>PT1235</name></trkpt>
<trkpt lat="53.496618" lon="-1.703518"><ele>330</ele><time>2022-04-08T10:20:02Z</time><name>PT1236</name></trkpt>
<trkpt lat="53.496609" lon="-1.703522"><ele>331</ele><time>2022-04-08T10:20:03Z</time><name>PT1237</name></trkpt>
<trkpt lat="53.496596" lon="-1.703528"><ele>331</ele><time>2022-04-08T10:20:05Z</time><name>PT1238</name></trkpt>
<trkpt lat="53.496582" lon="-1.703534"><ele>331</ele><time>2022-04-08T10:20:05Z</time><name>PT1239</name></trkpt>
<trkpt lat="53.496570" lon="-1.703537"><ele>331</ele><time>2022-04-08T10:20:06Z</time><name>PT1240</name></trkpt>
<trkpt lat="53.496560" lon="-1.703540"><ele>331</ele><time>2022-04-08T10:20:07Z</time><name>PT1241</name></trkpt>
<trkpt lat="53.496549" lon="-1.703542"><ele>331</ele><time>2022-04-08T10:20:08Z</time><name>PT1242</name></trkpt>
<trkpt lat="53.496538" lon="-1.703543"><ele>331</ele><time>2022-04-08T10:20:10Z</time><name>PT1243</name></trkpt>
<trkpt lat="53.496528" lon="-1.703542"><ele>331</ele><time>2022-04-08T10:20:10Z</time><name>PT1244</name></trkpt>
<trkpt lat="53.496519" lon="-1.703545"><ele>331</ele><time>2022-04-08T10:20:11Z</time><name>PT1245</name></trkpt>
<trkpt lat="53.496505" lon="-1.703548"><ele>331</ele><time>2022-04-08T10:20:12Z</time><name>PT1246</name></trkpt>
<trkpt lat="53.496493" lon="-1.703554"><ele>331</ele><time>2022-04-08T10:20:13Z</time><name>PT1247</name></trkpt>
<trkpt lat="53.496485" lon="-1.703562"><ele>331</ele><time>2022-04-08T10:20:14Z</time><name>PT1248</name></trkpt>
<trkpt lat="53.496477" lon="-1.703572"><ele>331</ele><time>2022-04-08T10:20:16Z</time><name>PT1249</name></trkpt>
<trkpt lat="53.496468" lon="-1.703580"><ele>331</ele><time>2022-04-08T10:20:16Z</time><name>PT1250</name></trkpt>
<trkpt lat="53.496461" lon="-1.703586"><ele>331</ele><time>2022-04-08T10:20:17Z</time><name>PT1251</name></trkpt>
<trkpt lat="53.496453" lon="-1.703594"><ele>331</ele><time>2022-04-08T10:20:18Z</time><name>PT1252</name></trkpt>
<trkpt lat="53.496446" lon="-1.703596"><ele>331</ele><time>2022-04-08T10:20:20Z</time><name>PT1253</name></trkpt>
<trkpt lat="53.496437" lon="-1.703592"><ele>331</ele><time>2022-04-08T10:20:20Z</time><name>PT1254</name></trkpt>
<trkpt lat="53.496428" lon="-1.703597"><ele>331</ele><time>2022-04-08T10:20:21Z</time><name>PT1255</name></trkpt>
<trkpt lat="53.496417" lon="-1.703599"><ele>331</ele><time>2022-04-08T10:20:22Z</time><name>PT1256</name></trkpt>
<trkpt lat="53.496407" lon="-1.703602"><ele>331</ele><time>2022-04-08T10:20:23Z</time><name>PT1257</name></trkpt>
<trkpt lat="53.496397" lon="-1.703603"><ele>331</ele><time>2022-04-08T10:20:24Z</time><name>PT1258</name></trkpt>
<trkpt lat="53.496386" lon="-1.703607"><ele>331</ele><time>2022-04-08T10:20:25Z</time><name>PT1259</name></trkpt>
<trkpt lat="53.496376" lon="-1.703610"><ele>331</ele><time>2022-04-08T10:20:26Z</time><name>PT1260</name></trkpt>
<trkpt lat="53.496365" lon="-1.703614"><ele>331</ele><time>2022-04-08T10:20:27Z</time><name>PT1261</name></trkpt>
<trkpt lat="53.496354" lon="-1.703617"><ele>331</ele><time>2022-04-08T10:20:28Z</time><name>PT1262</name></trkpt>
<trkpt lat="53.496344" lon="-1.703620"><ele>331</ele><time>2022-04-08T10:20:29Z</time><name>PT1263</name></trkpt>
<trkpt lat="53.496332" lon="-1.703626"><ele>331</ele><time>2022-04-08T10:20:30Z</time><name>PT1264</name></trkpt>
<trkpt lat="53.496322" lon="-1.703632"><ele>331</ele><time>2022-04-08T10:20:31Z</time><name>PT1265</name></trkpt>
<trkpt lat="53.496311" lon="-1.703639"><ele>331</ele><time>2022-04-08T10:20:32Z</time><name>PT1266</name></trkpt>
<trkpt lat="53.496301" lon="-1.703644"><ele>331</ele><time>2022-04-08T10:20:33Z</time><name>PT1267</name></trkpt>
<trkpt lat="53.496291" lon="-1.703649"><ele>331</ele><time>2022-04-08T10:20:34Z</time><name>PT1268</name></trkpt>
<trkpt lat="53.496281" lon="-1.703655"><ele>331</ele><time>2022-04-08T10:20:35Z</time><name>PT1269</name></trkpt>
<trkpt lat="53.496272" lon="-1.703663"><ele>330</ele><time>2022-04-08T10:20:36Z</time><name>PT1270</name></trkpt>
<trkpt lat="53.496263" lon="-1.703673"><ele>330</ele><time>2022-04-08T10:20:37Z</time><name>PT1271</name></trkpt>
<trkpt lat="53.496253" lon="-1.703686"><ele>330</ele><time>2022-04-08T10:20:38Z</time><name>PT1272</name></trkpt>
<trkpt lat="53.496245" lon="-1.703694"><ele>331</ele><time>2022-04-08T10:20:39Z</time><name>PT1273</name></trkpt>
<trkpt lat="53.496236" lon="-1.703706"><ele>330</ele><time>2022-04-08T10:20:40Z</time><name>PT1274</name></trkpt>
<trkpt lat="53.496227" lon="-1.703715"><ele>330</ele><time>2022-04-08T10:20:41Z</time><name>PT1275</name></trkpt>
<trkpt lat="53.496215" lon="-1.703725"><ele>331</ele><time>2022-04-08T10:20:42Z</time><name>PT1276</name></trkpt>
<trkpt lat="53.496204" lon="-1.703730"><ele>331</ele><time>2022-04-08T10:20:43Z</time><name>PT1277</name></trkpt>
<trkpt lat="53.496196" lon="-1.703733"><ele>331</ele><time>2022-04-08T10:20:44Z</time><name>PT1278</name></trkpt>
<trkpt lat="53.496185" lon="-1.703735"><ele>331</ele><time>2022-04-08T10:20:45Z</time><name>PT1279</name></trkpt>
<trkpt lat="53.496174" lon="-1.703741"><ele>331</ele><time>2022-04-08T10:20:46Z</time><name>PT1280</name></trkpt>
<trkpt lat="53.496163" lon="-1.703750"><ele>331</ele><time>2022-04-08T10:20:47Z</time><name>PT1281</name></trkpt>
<trkpt lat="53.496153" lon="-1.703762"><ele>331</ele><time>2022-04-08T10:20:48Z</time><name>PT1282</name></trkpt>
<trkpt lat="53.496143" lon="-1.703772"><ele>331</ele><time>2022-04-08T10:20:49Z</time><name>PT1283</name></trkpt>
<trkpt lat="53.496133" lon="-1.703778"><ele>331</ele><time>2022-04-08T10:20:50Z</time><name>PT1284</name></trkpt>
<trkpt lat="53.496121" lon="-1.703787"><ele>331</ele><time>2022-04-08T10:20:51Z</time><name>PT1285</name></trkpt>
<trkpt lat="53.496111" lon="-1.703795"><ele>331</ele><time>2022-04-08T10:20:52Z</time><name>PT1286</name></trkpt>
<trkpt lat="53.496102" lon="-1.703805"><ele>332</ele><time>2022-04-08T10:20:53Z</time><name>PT1287</name></trkpt>
<trkpt lat="53.496092" lon="-1.703815"><ele>331</ele><time>2022-04-08T10:20:54Z</time><name>PT1288</name></trkpt>
<trkpt lat="53.496082" lon="-1.703823"><ele>331</ele><time>2022-04-08T10:20:55Z</time><name>PT1289</name></trkpt>
<trkpt lat="53.496072" lon="-1.703833"><ele>331</ele><time>2022-04-08T10:20:56Z</time><name>PT1290</name></trkpt>
<trkpt lat="53.496062" lon="-1.703843"><ele>331</ele><time>2022-04-08T10:20:57Z</time><name>PT1291</name></trkpt>
<trkpt lat="53.496053" lon="-1.703856"><ele>331</ele><time>2022-04-08T10:20:58Z</time><name>PT1292</name></trkpt>
<trkpt lat="53.496044" lon="-1.703864"><ele>331</ele><time>2022-04-08T10:20:59Z</time><name>PT1293</name></trkpt>
<trkpt lat="53.496037" lon="-1.703870"><ele>331</ele><time>2022-04-08T10:21:00Z</time><name>PT1294</name></trkpt>
<trkpt lat="53.496029" lon="-1.703879"><ele>331</ele><time>2022-04-08T10:21:01Z</time><name>PT1295</name></trkpt>
<trkpt lat="53.496022" lon="-1.703889"><ele>331</ele><time>2022-04-08T10:21:02Z</time><name>PT1296</name></trkpt>
<trkpt lat="53.496013" lon="-1.703903"><ele>331</ele><time>2022-04-08T10:21:03Z</time><name>PT1297</name></trkpt>
<trkpt lat="53.496004" lon="-1.703914"><ele>331</ele><time>2022-04-08T10:21:04Z</time><name>PT1298</name></trkpt>
<trkpt lat="53.495997" lon="-1.703918"><ele>331</ele><time>2022-04-08T10:21:05Z</time><name>PT1299</name></trkpt>
<trkpt lat="53.495990" lon="-1.703927"><ele>331</ele><time>2022-04-08T10:21:06Z</time><name>PT1300</name></trkpt>
<trkpt lat="53.495983" lon="-1.703934"><ele>331</ele><time>2022-04-08T10:21:07Z</time><name>PT1301</name></trkpt>
<trkpt lat="53.495976" lon="-1.703945"><ele>331</ele><time>2022-04-08T10:21:08Z</time><name>PT1302</name></trkpt>
<trkpt lat="53.495966" lon="-1.703956"><ele>331</ele><time>2022-04-08T10:21:09Z</time><name>PT1303</name></trkpt>
<trkpt lat="53.495956" lon="-1.703965"><ele>331</ele><time>2022-04-08T10:21:10Z</time><name>PT1304</name></trkpt>
<trkpt lat="53.495943" lon="-1.703975"><ele>332</ele><time>2022-04-08T10:21:11Z</time><name>PT1305</name></trkpt>
<trkpt lat="53.495933" lon="-1.703988"><ele>332</ele><time>2022-04-08T10:21:12Z</time><name>PT1306</name></trkpt>
<trkpt lat="53.495922" lon="-1.704003"><ele>332</ele><time>2022-04-08T10:21:13Z</time><name>PT1307</name></trkpt>
<trkpt lat="53.495912" lon="-1.704013"><ele>333</ele><time>2022-04-08T10:21:14Z</time><name>PT1308</name></trkpt>
<trkpt lat="53.495901" lon="-1.704023"><ele>333</ele><time>2022-04-08T10:21:15Z</time><name>PT1309</name></trkpt>
<trkpt lat="53.495889" lon="-1.704034"><ele>334</ele><time>2022-04-08T10:21:16Z</time><name>PT1310</name></trkpt>
<trkpt lat="53.495879" lon="-1.704045"><ele>334</ele><time>2022-04-08T10:21:17Z</time><name>PT1311</name></trkpt>
<trkpt lat="53.495870" lon="-1.704059"><ele>334</ele><time>2022-04-08T10:21:18Z</time><name>PT1312</name></trkpt>
<trkpt lat="53.495860" lon="-1.704071"><ele>334</ele><time>2022-04-08T10:21:19Z</time><name>PT1313</name></trkpt>
<trkpt lat="53.495851" lon="-1.704078"><ele>334</ele><time>2022-04-08T10:21:20Z</time><name>PT1314</name></trkpt>
<trkpt lat="53.495840" lon="-1.704087"><ele>334</ele><time>2022-04-08T10:21:21Z</time><name>PT1315</name></trkpt>
<trkpt lat="53.495830" lon="-1.704098"><ele>335</ele><time>2022-04-08T10:21:22Z</time><name>PT1316</name></trkpt>
<trkpt lat="53.495821" lon="-1.704109"><ele>334</ele><time>2022-04-08T10:21:23Z</time><name>PT1317</name></trkpt>
<trkpt lat="53.495811" lon="-1.704125"><ele>335</ele><time>2022-04-08T10:21:24Z</time><name>PT1318</name></trkpt>
<trkpt lat="53.495801" lon="-1.704135"><ele>335</ele><time>2022-04-08T10:21:25Z</time><name>PT1319</name></trkpt>
<trkpt lat="53.495792" lon="-1.704141"><ele>335</ele><time>2022-04-08T10:21:26Z</time><name>PT1320</name></trkpt>
<trkpt lat="53.495781" lon="-1.704151"><ele>335</ele><time>2022-04-08T10:21:27Z</time><name>PT1321</name></trkpt>
<trkpt lat="53.495773" lon="-1.704162"><ele>335</ele><time>2022-04-08T10:21:28Z</time><name>PT1322</name></trkpt>
<trkpt lat="53.495764" lon="-1.704175"><ele>335</ele><time>2022-04-08T10:21:29Z</time><name>PT1323</name></trkpt>
<trkpt lat="53.495753" lon="-1.704187"><ele>336</ele><time>2022-04-08T10:21:30Z</time><name>PT1324</name></trkpt>
<trkpt lat="53.495744" lon="-1.704194"><ele>336</ele><time>2022-04-08T10:21:31Z</time><name>PT1325</name></trkpt>
<trkpt lat="53.495735" lon="-1.704199"><ele>336</ele><time>2022-04-08T10:21:32Z</time><name>PT1326</name></trkpt>
<trkpt lat="53.495726" lon="-1.704206"><ele>336</ele><time>2022-04-08T10:21:33Z</time><name>PT1327</name></trkpt>
<trkpt lat="53.495716" lon="-1.704215"><ele>336</ele><time>2022-04-08T10:21:34Z</time><name>PT1328</name></trkpt>
<trkpt lat="53.495704" lon="-1.704224"><ele>336</ele><time>2022-04-08T10:21:35Z</time><name>PT1329</name></trkpt>
<trkpt lat="53.495695" lon="-1.704232"><ele>336</ele><time>2022-04-08T10:21:36Z</time><name>PT1330</name></trkpt>
<trkpt lat="53.495686" lon="-1.704237"><ele>336</ele><time>2022-04-08T10:21:37Z</time><name>PT1331</name></trkpt>
<trkpt lat="53.495676" lon="-1.704246"><ele>336</ele><time>2022-04-08T10:21:38Z</time><name>PT1332</name></trkpt>
<trkpt lat="53.495666" lon="-1.704256"><ele>336</ele><time>2022-04-08T10:21:39Z</time><name>PT1333</name></trkpt>
<trkpt lat="53.495656" lon="-1.704269"><ele>336</ele><time>2022-04-08T10:21:40Z</time><name>PT1334</name></trkpt>
<trkpt lat="53.495645" lon="-1.704279"><ele>336</ele><time>2022-04-08T10:21:41Z</time><name>PT1335</name></trkpt>
<trkpt lat="53.495635" lon="-1.704288"><ele>337</ele><time>2022-04-08T10:21:42Z</time><name>PT1336</name></trkpt>
<trkpt lat="53.495623" lon="-1.704298"><ele>337</ele><time>2022-04-08T10:21:43Z</time><name>PT1337</name></trkpt>
<trkpt lat="53.495614" lon="-1.704307"><ele>337</ele><time>2022-04-08T10:21:44Z</time><name>PT1338</name></trkpt>
<trkpt lat="53.495606" lon="-1.704318"><ele>336</ele><time>2022-04-08T10:21:45Z</time><name>PT1339</name></trkpt>
<trkpt lat="53.495597" lon="-1.704327"><ele>336</ele><time>2022-04-08T10:21:46Z</time><name>PT1340</name></trkpt>
<trkpt lat="53.495587" lon="-1.704334"><ele>336</ele><time>2022-04-08T10:21:47Z</time><name>PT1341</name></trkpt>
<trkpt lat="53.495576" lon="-1.704342"><ele>337</ele><time>2022-04-08T10:21:48Z</time><name>PT1342</name></trkpt>
<trkpt lat="53.495563" lon="-1.704351"><ele>337</ele><time>2022-04-08T10:21:49Z</time><name>PT1343</name></trkpt>
<trkpt lat="53.495552" lon="-1.704361"><ele>336</ele><time>2022-04-08T10:21:50Z</time><name>PT1344</name></trkpt>
<trkpt lat="53.495541" lon="-1.704370"><ele>337</ele><time>2022-04-08T10:21:51Z</time><name>PT1345</name></trkpt>
<trkpt lat="53.495528" lon="-1.704380"><ele>337</ele><time>2022-04-08T10:21:52Z</time><name>PT1346</name></trkpt>
<trkpt lat="53.495518" lon="-1.704388"><ele>337</ele><time>2022-04-08T10:21:53Z</time><name>PT1347</name></trkpt>
<trkpt lat="53.495505" lon="-1.704397"><ele>338</ele><time>2022-04-08T10:21:54Z</time><name>PT1348</name></trkpt>
<trkpt lat="53.495494" lon="-1.704408"><ele>338</ele><time>2022-04-08T10:21:55Z</time><name>PT1349</name></trkpt>
<trkpt lat="53.495485" lon="-1.704419"><ele>338</ele><time>2022-04-08T10:21:56Z</time><name>PT1350</name></trkpt>
<trkpt lat="53.495477" lon="-1.704432"><ele>337</ele><time>2022-04-08T10:21:57Z</time><name>PT1351</name></trkpt>
<trkpt lat="53.495464" lon="-1.704456"><ele>337</ele><time>2022-04-08T10:22:01Z</time><name>PT1352</name></trkpt>
<trkpt lat="53.495431" lon="-1.704494"><ele>337</ele><time>2022-04-08T10:22:05Z</time><name>PT1353</name></trkpt>
<trkpt lat="53.495393" lon="-1.704531"><ele>337</ele><time>2022-04-08T10:22:09Z</time><name>PT1354</name></trkpt>
<trkpt lat="53.495359" lon="-1.704566"><ele>338</ele><time>2022-04-08T10:22:13Z</time><name>PT1355</name></trkpt>
<trkpt lat="53.495317" lon="-1.704597"><ele>337</ele><time>2022-04-08T10:22:17Z</time><name>PT1356</name></trkpt>
<trkpt lat="53.495271" lon="-1.704623"><ele>339</ele><time>2022-04-08T10:22:21Z</time><name>PT1357</name></trkpt>
<trkpt lat="53.495231" lon="-1.704665"><ele>339</ele><time>2022-04-08T10:22:25Z</time><name>PT1358</name></trkpt>
<trkpt lat="53.495191" lon="-1.704707"><ele>339</ele><time>2022-04-08T10:22:29Z</time><name>PT1359</name></trkpt>
<trkpt lat="53.495148" lon="-1.704746"><ele>340</ele><time>2022-04-08T10:22:33Z</time><name>PT1360</name></trkpt>
<trkpt lat="53.495112" lon="-1.704797"><ele>339</ele><time>2022-04-08T10:22:37Z</time><name>PT1361</name></trkpt>
<trkpt lat="53.495064" lon="-1.704841"><ele>340</ele><time>2022-04-08T10:22:41Z</time><name>PT1362</name></trkpt>
<trkpt lat="53.495023" lon="-1.704889"><ele>340</ele><time>2022-04-08T10:22:45Z</time><name>PT1363</name></trkpt>
<trkpt lat="53.494972" lon="-1.704933"><ele>340</ele><time>2022-04-08T10:22:49Z</time><name>PT1364</name></trkpt>
<trkpt lat="53.494928" lon="-1.704980"><ele>339</ele><time>2022-04-08T10:22:53Z</time><name>PT1365</name></trkpt>
<trkpt lat="53.494890" lon="-1.705037"><ele>339</ele><time>2022-04-08T10:22:57Z</time><name>PT1366</name></trkpt>
<trkpt lat="53.494849" lon="-1.705088"><ele>339</ele><time>2022-04-08T10:23:01Z</time><name>PT1367</name></trkpt>
<trkpt lat="53.494811" lon="-1.705138"><ele>338</ele><time>2022-04-08T10:23:05Z</time><name>PT1368</name></trkpt>
<trkpt lat="53.494765" lon="-1.705187"><ele>339</ele><time>2022-04-08T10:23:09Z</time><name>PT1369</name></trkpt>
<trkpt lat="53.494731" lon="-1.705248"><ele>338</ele><time>2022-04-08T10:23:13Z</time><name>PT1370</name></trkpt>
<trkpt lat="53.494694" lon="-1.705305"><ele>339</ele><time>2022-04-08T10:23:17Z</time><name>PT1371</name></trkpt>
<trkpt lat="53.494652" lon="-1.705356"><ele>340</ele><time>2022-04-08T10:23:21Z</time><name>PT1372</name></trkpt>
<trkpt lat="53.494615" lon="-1.705397"><ele>341</ele><time>2022-04-08T10:23:25Z</time><name>PT1373</name></trkpt>
<trkpt lat="53.494576" lon="-1.705448"><ele>342</ele><time>2022-04-08T10:23:29Z</time><name>PT1374</name></trkpt>
<trkpt lat="53.494536" lon="-1.705497"><ele>343</ele><time>2022-04-08T10:23:33Z</time><name>PT1375</name></trkpt>
<trkpt lat="53.494500" lon="-1.705541"><ele>343</ele><time>2022-04-08T10:23:37Z</time><name>PT1376</name></trkpt>
<trkpt lat="53.494465" lon="-1.705588"><ele>343</ele><time>2022-04-08T10:23:41Z</time><name>PT1377</name></trkpt>
<trkpt lat="53.494427" lon="-1.705630"><ele>343</ele><time>2022-04-08T10:23:45Z</time><name>PT1378</name></trkpt>
<trkpt lat="53.494394" lon="-1.705688"><ele>343</ele><time>2022-04-08T10:23:49Z</time><name>PT1379</name></trkpt>
<trkpt lat="53.494355" lon="-1.705744"><ele>344</ele><time>2022-04-08T10:23:53Z</time><name>PT1380</name></trkpt>
<trkpt lat="53.494315" lon="-1.705780"><ele>345</ele><time>2022-04-08T10:23:57Z</time><name>PT1381</name></trkpt>
<trkpt lat="53.494278" lon="-1.705829"><ele>345</ele><time>2022-04-08T10:24:01Z</time><name>PT1382</name></trkpt>
<trkpt lat="53.494240" lon="-1.705875"><ele>345</ele><time>2022-04-08T10:24:05Z</time><name>PT1383</name></trkpt>
<trkpt lat="53.494206" lon="-1.705909"><ele>345</ele><time>2022-04-08T10:24:09Z</time><name>PT1384</name></trkpt>
<trkpt lat="53.494181" lon="-1.705938"><ele>346</ele><time>2022-04-08T10:24:13Z</time><name>PT1385</name></trkpt>
<trkpt lat="53.494150" lon="-1.705988"><ele>347</ele><time>2022-04-08T10:24:17Z</time><name>PT1386</name></trkpt>
<trkpt lat="53.494109" lon="-1.706039"><ele>348</ele><time>2022-04-08T10:24:21Z</time><name>PT1387</name></trkpt>
<trkpt lat="53.494080" lon="-1.706079"><ele>348</ele><time>2022-04-08T10:24:25Z</time><name>PT1388</name></trkpt>
<trkpt lat="53.494041" lon="-1.706129"><ele>348</ele><time>2022-04-08T10:24:29Z</time><name>PT1389</name></trkpt>
<trkpt lat="53.494019" lon="-1.706167"><ele>348</ele><time>2022-04-08T10:24:33Z</time><name>PT1390</name></trkpt>
<trkpt lat="53.493992" lon="-1.706187"><ele>348</ele><time>2022-04-08T10:24:37Z</time><name>PT1391</name></trkpt>
<trkpt lat="53.493951" lon="-1.706234"><ele>348</ele><time>2022-04-08T10:24:41Z</time><name>PT1392</name></trkpt>
<trkpt lat="53.493917" lon="-1.706279"><ele>348</ele><time>2022-04-08T10:24:45Z</time><name>PT1393</name></trkpt>
<trkpt lat="53.493876" lon="-1.706313"><ele>349</ele><time>2022-04-08T10:24:49Z</time><name>PT1394</name></trkpt>
<trkpt lat="53.493832" lon="-1.706350"><ele>349</ele><time>2022-04-08T10:24:53Z</time><name>PT1395</name></trkpt>
<trkpt lat="53.493802" lon="-1.706395"><ele>348</ele><time>2022-04-08T10:24:57Z</time><name>PT1396</name></trkpt>
<trkpt lat="53.493770" lon="-1.706453"><ele>348</ele><time>2022-04-08T10:25:01Z</time><name>PT1397</name></trkpt>
<trkpt lat="53.493740" lon="-1.706506"><ele>349</ele><time>2022-04-08T10:25:05Z</time><name>PT1398</name></trkpt>
<trkpt lat="53.493716" lon="-1.706540"><ele>348</ele><time>2022-04-08T10:25:09Z</time><name>PT1399</name></trkpt>
<trkpt lat="53.493671" lon="-1.706579"><ele>348</ele><time>2022-04-08T10:25:13Z</time><name>PT1400</name></trkpt>
<trkpt lat="53.493635" lon="-1.706618"><ele>347</ele><time>2022-04-08T10:25:17Z</time><name>PT1401</name></trkpt>
<trkpt lat="53.493624" lon="-1.706624"><ele>347</ele><time>2022-04-08T10:25:18Z</time><name>PT1402</name></trkpt>
<trkpt lat="53.493615" lon="-1.706629"><ele>346</ele><time>2022-04-08T10:25:19Z</time><name>PT1403</name></trkpt>
<trkpt lat="53.493605" lon="-1.706638"><ele>347</ele><time>2022-04-08T10:25:20Z</time><name>PT1404</name></trkpt>
<trkpt lat="53.493589" lon="-1.706658"><ele>347</ele><time>2022-04-08T10:25:21Z</time><name>PT1405</name></trkpt>
<trkpt lat="53.493577" lon="-1.706674"><ele>347</ele><time>2022-04-08T10:25:22Z</time><name>PT1406</name></trkpt>
<trkpt lat="53.493566" lon="-1.706683"><ele>347</ele><time>2022-04-08T10:25:23Z</time><name>PT1407</name></trkpt>
<trkpt lat="53.493557" lon="-1.706689"><ele>347</ele><time>2022-04-08T10:25:24Z</time><name>PT1408</name></trkpt>
<trkpt lat="53.493551" lon="-1.706698"><ele>346</ele><time>2022-04-08T10:25:25Z</time><name>PT1409</name></trkpt>
<trkpt lat="53.493546" lon="-1.706710"><ele>347</ele><time>2022-04-08T10:25:26Z</time><name>PT1410</name></trkpt>
<trkpt lat="53.493544" lon="-1.706719"><ele>347</ele><time>2022-04-08T10:25:27Z</time><name>PT1411</name></trkpt>
<trkpt lat="53.493536" lon="-1.706735"><ele>347</ele><time>2022-04-08T10:25:28Z</time><name>PT1412</name></trkpt>
<trkpt lat="53.493527" lon="-1.706750"><ele>346</ele><time>2022-04-08T10:25:29Z</time><name>PT1413</name></trkpt>
<trkpt lat="53.493520" lon="-1.706763"><ele>346</ele><time>2022-04-08T10:25:30Z</time><name>PT1414</name></trkpt>
<trkpt lat="53.493507" lon="-1.706781"><ele>345</ele><time>2022-04-08T10:25:31Z</time><name>PT1415</name></trkpt>
<trkpt lat="53.493495" lon="-1.706792"><ele>345</ele><time>2022-04-08T10:25:32Z</time><name>PT1416</name></trkpt>
<trkpt lat="53.493486" lon="-1.706805"><ele>345</ele><time>2022-04-08T10:25:33Z</time><name>PT1417</name></trkpt>
<trkpt lat="53.493479" lon="-1.706817"><ele>345</ele><time>2022-04-08T10:25:34Z</time><name>PT1418</name></trkpt>
<trkpt lat="53.493471" lon="-1.706827"><ele>345</ele><time>2022-04-08T10:25:35Z</time><name>PT1419</name></trkpt>
<trkpt lat="53.493461" lon="-1.706838"><ele>345</ele><time>2022-04-08T10:25:36Z</time><name>PT1420</name></trkpt>
<trkpt lat="53.493451" lon="-1.706850"><ele>344</ele><time>2022-04-08T10:25:37Z</time><name>PT1421</name></trkpt>
<trkpt lat="53.493440" lon="-1.706864"><ele>345</ele><time>2022-04-08T10:25:38Z</time><name>PT1422</name></trkpt>
<trkpt lat="53.493430" lon="-1.706874"><ele>344</ele><time>2022-04-08T10:25:39Z</time><name>PT1423</name></trkpt>
<trkpt lat="53.493421" lon="-1.706884"><ele>344</ele><time>2022-04-08T10:25:40Z</time><name>PT1424</name></trkpt>
<trkpt lat="53.493412" lon="-1.706897"><ele>344</ele><time>2022-04-08T10:25:42Z</time><name>PT1425</name></trkpt>
<trkpt lat="53.493403" lon="-1.706910"><ele>344</ele><time>2022-04-08T10:25:42Z</time><name>PT1426</name></trkpt>
<trkpt lat="53.493396" lon="-1.706922"><ele>344</ele><time>2022-04-08T10:25:43Z</time><name>PT1427</name></trkpt>
<trkpt lat="53.493387" lon="-1.706935"><ele>343</ele><time>2022-04-08T10:25:44Z</time><name>PT1428</name></trkpt>
<trkpt lat="53.493381" lon="-1.706944"><ele>343</ele><time>2022-04-08T10:25:45Z</time><name>PT1429</name></trkpt>
<trkpt lat="53.493375" lon="-1.706955"><ele>343</ele><time>2022-04-08T10:25:46Z</time><name>PT1430</name></trkpt>
<trkpt lat="53.493368" lon="-1.706969"><ele>343</ele><time>2022-04-08T10:25:47Z</time><name>PT1431</name></trkpt>
<trkpt lat="53.493362" lon="-1.706983"><ele>343</ele><time>2022-04-08T10:25:48Z</time><name>PT1432</name></trkpt>
<trkpt lat="53.493358" lon="-1.706993"><ele>342</ele><time>2022-04-08T10:25:49Z</time><name>PT1433</name></trkpt>
<trkpt lat="53.493352" lon="-1.707005"><ele>342</ele><time>2022-04-08T10:25:50Z</time><name>PT1434</name></trkpt>
<trkpt lat="53.493345" lon="-1.707020"><ele>342</ele><time>2022-04-08T10:25:51Z</time><name>PT1435</name></trkpt>
<trkpt lat="53.493335" lon="-1.707036"><ele>342</ele><time>2022-04-08T10:25:52Z</time><name>PT1436</name></trkpt>
<trkpt lat="53.493325" lon="-1.707045"><ele>342</ele><time>2022-04-08T10:25:53Z</time><name>PT1437</name></trkpt>
<trkpt lat="53.493312" lon="-1.707057"><ele>342</ele><time>2022-04-08T10:25:54Z</time><name>PT1438</name></trkpt>
<trkpt lat="53.493302" lon="-1.707064"><ele>342</ele><time>2022-04-08T10:25:55Z</time><name>PT1439</name></trkpt>
<trkpt lat="53.493293" lon="-1.707079"><ele>342</ele><time>2022-04-08T10:25:56Z</time><name>PT1440</name></trkpt>
<trkpt lat="53.493282" lon="-1.707100"><ele>342</ele><time>2022-04-08T10:25:57Z</time><name>PT1441</name></trkpt>
<trkpt lat="53.493274" lon="-1.707118"><ele>342</ele><time>2022-04-08T10:25:58Z</time><name>PT1442</name></trkpt>
<trkpt lat="53.493265" lon="-1.707130"><ele>342</ele><time>2022-04-08T10:25:59Z</time><name>PT1443</name></trkpt>
<trkpt lat="53.493253" lon="-1.707139"><ele>342</ele><time>2022-04-08T10:26:00Z</time><name>PT1444</name></trkpt>
<trkpt lat="53.493239" lon="-1.707143"><ele>342</ele><time>2022-04-08T10:26:01Z</time><name>PT1445</name></trkpt>
<trkpt lat="53.493223" lon="-1.707151"><ele>342</ele><time>2022-04-08T10:26:02Z</time><name>PT1446</name></trkpt>
<trkpt lat="53.493212" lon="-1.707152"><ele>342</ele><time>2022-04-08T10:26:03Z</time><name>PT1447</name></trkpt>
<trkpt lat="53.493198" lon="-1.707155"><ele>343</ele><time>2022-04-08T10:26:04Z</time><name>PT1448</name></trkpt>
<trkpt lat="53.493187" lon="-1.707159"><ele>343</ele><time>2022-04-08T10:26:05Z</time><name>PT1449</name></trkpt>
<trkpt lat="53.493176" lon="-1.707166"><ele>342</ele><time>2022-04-08T10:26:06Z</time><name>PT1450</name></trkpt>
<trkpt lat="53.493164" lon="-1.707170"><ele>342</ele><time>2022-04-08T10:26:07Z</time><name>PT1451</name></trkpt>
<trkpt lat="53.493154" lon="-1.707170"><ele>342</ele><time>2022-04-08T10:26:08Z</time><name>PT1452</name></trkpt>
<trkpt lat="53.493142" lon="-1.707174"><ele>342</ele><time>2022-04-08T10:26:09Z</time><name>PT1453</name></trkpt>
<trkpt lat="53.493133" lon="-1.707177"><ele>342</ele><time>2022-04-08T10:26:10Z</time><name>PT1454</name></trkpt>
<trkpt lat="53.493120" lon="-1.707184"><ele>343</ele><time>2022-04-08T10:26:11Z</time><name>PT1455</name></trkpt>
<trkpt lat="53.493108" lon="-1.707195"><ele>342</ele><time>2022-04-08T10:26:12Z</time><name>PT1456</name></trkpt>
<trkpt lat="53.493097" lon="-1.707198"><ele>342</ele><time>2022-04-08T10:26:13Z</time><name>PT1457</name></trkpt>
<trkpt lat="53.493086" lon="-1.707201"><ele>342</ele><time>2022-04-08T10:26:14Z</time><name>PT1458</name></trkpt>
<trkpt lat="53.493075" lon="-1.707208"><ele>341</ele><time>2022-04-08T10:26:15Z</time><name>PT1459</name></trkpt>
<trkpt lat="53.493064" lon="-1.707217"><ele>341</ele><time>2022-04-08T10:26:16Z</time><name>PT1460</name></trkpt>
<trkpt lat="53.493056" lon="-1.707226"><ele>342</ele><time>2022-04-08T10:26:18Z</time><name>PT1461</name></trkpt>
<trkpt lat="53.493052" lon="-1.707236"><ele>342</ele><time>2022-04-08T10:26:19Z</time><name>PT1462</name></trkpt>
<trkpt lat="53.493045" lon="-1.707248"><ele>342</ele><time>2022-04-08T10:26:19Z</time><name>PT1463</name></trkpt>
<trkpt lat="53.493036" lon="-1.707258"><ele>342</ele><time>2022-04-08T10:26:20Z</time><name>PT1464</name></trkpt>
<trkpt lat="53.493027" lon="-1.707265"><ele>343</ele><time>2022-04-08T10:26:21Z</time><name>PT1465</name></trkpt>
<trkpt lat="53.493018" lon="-1.707272"><ele>343</ele><time>2022-04-08T10:26:22Z</time><name>PT1466</name></trkpt>
<trkpt lat="53.493009" lon="-1.707283"><ele>343</ele><time>2022-04-08T10:26:23Z</time><name>PT1467</name></trkpt>
<trkpt lat="53.493001" lon="-1.707294"><ele>343</ele><time>2022-04-08T10:26:24Z</time><name>PT1468</name></trkpt>
<trkpt lat="53.492992" lon="-1.707303"><ele>344</ele><time>2022-04-08T10:26:25Z</time><name>PT1469</name></trkpt>
<trkpt lat="53.492983" lon="-1.707313"><ele>344</ele><time>2022-04-08T10:26:26Z</time><name>PT1470</name></trkpt>
<trkpt lat="53.492974" lon="-1.707325"><ele>344</ele><time>2022-04-08T10:26:27Z</time><name>PT1471</name></trkpt>
<trkpt lat="53.492967" lon="-1.707334"><ele>344</ele><time>2022-04-08T10:26:28Z</time><name>PT1472</name></trkpt>
<trkpt lat="53.492960" lon="-1.707344"><ele>344</ele><time>2022-04-08T10:26:29Z</time><name>PT1473</name></trkpt>
<trkpt lat="53.492955" lon="-1.707353"><ele>344</ele><time>2022-04-08T10:26:30Z</time><name>PT1474</name></trkpt>
<trkpt lat="53.492948" lon="-1.707367"><ele>344</ele><time>2022-04-08T10:26:31Z</time><name>PT1475</name></trkpt>
<trkpt lat="53.492943" lon="-1.707380"><ele>345</ele><time>2022-04-08T10:26:32Z</time><name>PT1476</name></trkpt>
<trkpt lat="53.492934" lon="-1.707396"><ele>345</ele><time>2022-04-08T10:26:33Z</time><name>PT1477</name></trkpt>
<trkpt lat="53.492928" lon="-1.707408"><ele>345</ele><time>2022-04-08T10:26:34Z</time><name>PT1478</name></trkpt>
<trkpt lat="53.492921" lon="-1.707423"><ele>345</ele><time>2022-04-08T10:26:35Z</time><name>PT1479</name></trkpt>
<trkpt lat="53.492913" lon="-1.707442"><ele>346</ele><time>2022-04-08T10:26:36Z</time><name>PT1480</name></trkpt>
<trkpt lat="53.492904" lon="-1.707459"><ele>346</ele><time>2022-04-08T10:26:37Z</time><name>PT1481</name></trkpt>
<trkpt lat="53.492897" lon="-1.707475"><ele>346</ele><time>2022-04-08T10:26:38Z</time><name>PT1482</name></trkpt>
<trkpt lat="53.492890" lon="-1.707490"><ele>346</ele><time>2022-04-08T10:26:39Z</time><name>PT1483</name></trkpt>
<trkpt lat="53.492883" lon="-1.707502"><ele>346</ele><time>2022-04-08T10:26:40Z</time><name>PT1484</name></trkpt>
<trkpt lat="53.492879" lon="-1.707511"><ele>346</ele><time>2022-04-08T10:26:41Z</time><name>PT1485</name></trkpt>
<trkpt lat="53.492873" lon="-1.707526"><ele>346</ele><time>2022-04-08T10:26:42Z</time><name>PT1486</name></trkpt>
<trkpt lat="53.492867" lon="-1.707541"><ele>346</ele><time>2022-04-08T10:26:43Z</time><name>PT1487</name></trkpt>
<trkpt lat="53.492858" lon="-1.707557"><ele>346</ele><time>2022-04-08T10:26:44Z</time><name>PT1488</name></trkpt>
<trkpt lat="53.492847" lon="-1.707571"><ele>346</ele><time>2022-04-08T10:26:45Z</time><name>PT1489</name></trkpt>
<trkpt lat="53.492838" lon="-1.707580"><ele>346</ele><time>2022-04-08T10:26:46Z</time><name>PT1490</name></trkpt>
<trkpt lat="53.492828" lon="-1.707593"><ele>346</ele><time>2022-04-08T10:26:47Z</time><name>PT1491</name></trkpt>
<trkpt lat="53.492817" lon="-1.707600"><ele>346</ele><time>2022-04-08T10:26:48Z</time><name>PT1492</name></trkpt>
<trkpt lat="53.492807" lon="-1.707604"><ele>346</ele><time>2022-04-08T10:26:49Z</time><name>PT1493</name></trkpt>
<trkpt lat="53.492796" lon="-1.707609"><ele>346</ele><time>2022-04-08T10:26:50Z</time><name>PT1494</name></trkpt>
<trkpt lat="53.492784" lon="-1.707612"><ele>345</ele><time>2022-04-08T10:26:51Z</time><name>PT1495</name></trkpt>
<trkpt lat="53.492773" lon="-1.707616"><ele>345</ele><time>2022-04-08T10:26:52Z</time><name>PT1496</name></trkpt>
<trkpt lat="53.492765" lon="-1.707623"><ele>345</ele><time>2022-04-08T10:26:53Z</time><name>PT1497</name></trkpt>
<trkpt lat="53.492753" lon="-1.707632"><ele>345</ele><time>2022-04-08T10:26:54Z</time><name>PT1498</name></trkpt>
<trkpt lat="53.492743" lon="-1.707639"><ele>345</ele><time>2022-04-08T10:26:55Z</time><name>PT1499</name></trkpt>
<trkpt lat="53.492731" lon="-1.707649"><ele>345</ele><time>2022-04-08T10:26:56Z</time><name>PT1500</name></trkpt>
<trkpt lat="53.492720" lon="-1.707659"><ele>345</ele><time>2022-04-08T10:26:57Z</time><name>PT1501</name></trkpt>
<trkpt lat="53.492711" lon="-1.707667"><ele>345</ele><time>2022-04-08T10:26:58Z</time><name>PT1502</name></trkpt>
<trkpt lat="53.492703" lon="-1.707675"><ele>344</ele><time>2022-04-08T10:26:59Z</time><name>PT1503</name></trkpt>
<trkpt lat="53.492688" lon="-1.707683"><ele>345</ele><time>2022-04-08T10:27:00Z</time><name>PT1504</name></trkpt>
<trkpt lat="53.492678" lon="-1.707690"><ele>345</ele><time>2022-04-08T10:27:01Z</time><name>PT1505</name></trkpt>
<trkpt lat="53.492670" lon="-1.707701"><ele>346</ele><time>2022-04-08T10:27:02Z</time><name>PT1506</name></trkpt>
<trkpt lat="53.492661" lon="-1.707714"><ele>345</ele><time>2022-04-08T10:27:03Z</time><name>PT1507</name></trkpt>
<trkpt lat="53.492652" lon="-1.707722"><ele>345</ele><time>2022-04-08T10:27:04Z</time><name>PT1508</name></trkpt>
<trkpt lat="53.492641" lon="-1.707730"><ele>346</ele><time>2022-04-08T10:27:05Z</time><name>PT1509</name></trkpt>
<trkpt lat="53.492631" lon="-1.707740"><ele>345</ele><time>2022-04-08T10:27:06Z</time><name>PT1510</name></trkpt>
<trkpt lat="53.492622" lon="-1.707751"><ele>345</ele><time>2022-04-08T10:27:07Z</time><name>PT1511</name></trkpt>
<trkpt lat="53.492610" lon="-1.707763"><ele>346</ele><time>2022-04-08T10:27:08Z</time><name>PT1512</name></trkpt>
<trkpt lat="53.492601" lon="-1.707773"><ele>346</ele><time>2022-04-08T10:27:09Z</time><name>PT1513</name></trkpt>
<trkpt lat="53.492590" lon="-1.707781"><ele>347</ele><time>2022-04-08T10:27:10Z</time><name>PT1514</name></trkpt>
<trkpt lat="53.492578" lon="-1.707791"><ele>347</ele><time>2022-04-08T10:27:11Z</time><name>PT1515</name></trkpt>
<trkpt lat="53.492569" lon="-1.707802"><ele>347</ele><time>2022-04-08T10:27:12Z</time><name>PT1516</name></trkpt>
<trkpt lat="53.492559" lon="-1.707812"><ele>347</ele><time>2022-04-08T10:27:13Z</time><name>PT1517</name></trkpt>
<trkpt lat="53.492550" lon="-1.707823"><ele>347</ele><time>2022-04-08T10:27:14Z</time><name>PT1518</name></trkpt>
<trkpt lat="53.492543" lon="-1.707831"><ele>347</ele><time>2022-04-08T10:27:15Z</time><name>PT1519</name></trkpt>
<trkpt lat="53.492533" lon="-1.707837"><ele>347</ele><time>2022-04-08T10:27:16Z</time><name>PT1520</name></trkpt>
<trkpt lat="53.492525" lon="-1.707849"><ele>347</ele><time>2022-04-08T10:27:17Z</time><name>PT1521</name></trkpt>
<trkpt lat="53.492503" lon="-1.707887"><ele>347</ele><time>2022-04-08T10:27:20Z</time><name>PT1522</name></trkpt>
<trkpt lat="53.492472" lon="-1.707932"><ele>348</ele><time>2022-04-08T10:27:24Z</time><name>PT1523</name></trkpt>
<trkpt lat="53.492432" lon="-1.707955"><ele>348</ele><time>2022-04-08T10:27:28Z</time><name>PT1524</name></trkpt>
<trkpt lat="53.492393" lon="-1.707991"><ele>349</ele><time>2022-04-08T10:27:32Z</time><name>PT1525</name></trkpt>
<trkpt lat="53.492361" lon="-1.708038"><ele>349</ele><time>2022-04-08T10:27:36Z</time><name>PT1526</name></trkpt>
<trkpt lat="53.492332" lon="-1.708095"><ele>350</ele><time>2022-04-08T10:27:40Z</time><name>PT1527</name></trkpt>
<trkpt lat="53.492285" lon="-1.708134"><ele>352</ele><time>2022-04-08T10:27:44Z</time><name>PT1528</name></trkpt>
<trkpt lat="53.492238" lon="-1.708168"><ele>353</ele><time>2022-04-08T10:27:48Z</time><name>PT1529</name></trkpt>
<trkpt lat="53.492194" lon="-1.708201"><ele>354</ele><time>2022-04-08T10:27:52Z</time><name>PT1530</name></trkpt>
<trkpt lat="53.492149" lon="-1.708226"><ele>355</ele><time>2022-04-08T10:27:56Z</time><name>PT1531</name></trkpt>
<trkpt lat="53.492106" lon="-1.708240"><ele>355</ele><time>2022-04-08T10:28:00Z</time><name>PT1532</name></trkpt>
<trkpt lat="53.492063" lon="-1.708260"><ele>356</ele><time>2022-04-08T10:28:04Z</time><name>PT1533</name></trkpt>
<trkpt lat="53.492021" lon="-1.708287"><ele>356</ele><time>2022-04-08T10:28:08Z</time><name>PT1534</name></trkpt>
<trkpt lat="53.491989" lon="-1.708315"><ele>355</ele><time>2022-04-08T10:28:12Z</time><name>PT1535</name></trkpt>
<trkpt lat="53.491945" lon="-1.708339"><ele>354</ele><time>2022-04-08T10:28:16Z</time><name>PT1536</name></trkpt>
<trkpt lat="53.491895" lon="-1.708374"><ele>354</ele><time>2022-04-08T10:28:20Z</time><name>PT1537</name></trkpt>
<trkpt lat="53.491851" lon="-1.708378"><ele>355</ele><time>2022-04-08T10:28:24Z</time><name>PT1538</name></trkpt>
<trkpt lat="53.491804" lon="-1.708386"><ele>354</ele><time>2022-04-08T10:28:28Z</time><name>PT1539</name></trkpt>
<trkpt lat="53.491758" lon="-1.708390"><ele>354</ele><time>2022-04-08T10:28:32Z</time><name>PT1540</name></trkpt>
<trkpt lat="53.491718" lon="-1.708386"><ele>356</ele><time>2022-04-08T10:28:36Z</time><name>PT1541</name></trkpt>
<trkpt lat="53.491683" lon="-1.708384"><ele>356</ele><time>2022-04-08T10:28:40Z</time><name>PT1542</name></trkpt>
<trkpt lat="53.491679" lon="-1.708387"><ele>355</ele><time>2022-04-08T10:28:44Z</time><name>PT1543</name></trkpt>
<trkpt lat="53.491682" lon="-1.708385"><ele>354</ele><time>2022-04-08T10:29:04Z</time><name>PT1544</name></trkpt>
<trkpt lat="53.491681" lon="-1.708378"><ele>354</ele><time>2022-04-08T10:29:08Z</time><name>PT1545</name></trkpt>
<trkpt lat="53.491650" lon="-1.708378"><ele>353</ele><time>2022-04-08T10:29:20Z</time><name>PT1546</name></trkpt>
<trkpt lat="53.491629" lon="-1.708380"><ele>352</ele><time>2022-04-08T10:29:24Z</time><name>PT1547</name></trkpt>
<trkpt lat="53.491597" lon="-1.708362"><ele>351</ele><time>2022-04-08T10:29:28Z</time><name>PT1548</name></trkpt>
<trkpt lat="53.491559" lon="-1.708335"><ele>351</ele><time>2022-04-08T10:29:32Z</time><name>PT1549</name></trkpt>
<trkpt lat="53.491523" lon="-1.708315"><ele>350</ele><time>2022-04-08T10:29:36Z</time><name>PT1550</name></trkpt>
<trkpt lat="53.491489" lon="-1.708294"><ele>349</ele><time>2022-04-08T10:29:40Z</time><name>PT1551</name></trkpt>
<trkpt lat="53.491459" lon="-1.708280"><ele>349</ele><time>2022-04-08T10:29:44Z</time><name>PT1552</name></trkpt>
<trkpt lat="53.491425" lon="-1.708276"><ele>347</ele><time>2022-04-08T10:29:48Z</time><name>PT1553</name></trkpt>
<trkpt lat="53.491391" lon="-1.708303"><ele>347</ele><time>2022-04-08T10:29:52Z</time><name>PT1554</name></trkpt>
<trkpt lat="53.491348" lon="-1.708329"><ele>347</ele><time>2022-04-08T10:29:56Z</time><name>PT1555</name></trkpt>
<trkpt lat="53.491305" lon="-1.708329"><ele>345</ele><time>2022-04-08T10:30:00Z</time><name>PT1556</name></trkpt>
<trkpt lat="53.491261" lon="-1.708336"><ele>345</ele><time>2022-04-08T10:30:04Z</time><name>PT1557</name></trkpt>
<trkpt lat="53.491225" lon="-1.708345"><ele>344</ele><time>2022-04-08T10:30:08Z</time><name>PT1558</name></trkpt>
<trkpt lat="53.491183" lon="-1.708356"><ele>344</ele><time>2022-04-08T10:30:12Z</time><name>PT1559</name></trkpt>
<trkpt lat="53.491141" lon="-1.708369"><ele>343</ele><time>2022-04-08T10:30:16Z</time><name>PT1560</name></trkpt>
<trkpt lat="53.491099" lon="-1.708412"><ele>343</ele><time>2022-04-08T10:30:20Z</time><name>PT1561</name></trkpt>
<trkpt lat="53.491063" lon="-1.708458"><ele>342</ele><time>2022-04-08T10:30:24Z</time><name>PT1562</name></trkpt>
<trkpt lat="53.491028" lon="-1.708483"><ele>340</ele><time>2022-04-08T10:30:28Z</time><name>PT1563</name></trkpt>
<trkpt lat="53.490987" lon="-1.708508"><ele>340</ele><time>2022-04-08T10:30:32Z</time><name>PT1564</name></trkpt>
<trkpt lat="53.490967" lon="-1.708520"><ele>339</ele><time>2022-04-08T10:30:36Z</time><name>PT1565</name></trkpt>
<trkpt lat="53.490928" lon="-1.708551"><ele>339</ele><time>2022-04-08T10:30:40Z</time><name>PT1566</name></trkpt>
<trkpt lat="53.490903" lon="-1.708562"><ele>338</ele><time>2022-04-08T10:30:44Z</time><name>PT1567</name></trkpt>
<trkpt lat="53.490866" lon="-1.708598"><ele>339</ele><time>2022-04-08T10:30:48Z</time><name>PT1568</name></trkpt>
<trkpt lat="53.490830" lon="-1.708644"><ele>339</ele><time>2022-04-08T10:30:52Z</time><name>PT1569</name></trkpt>
<trkpt lat="53.490803" lon="-1.708692"><ele>338</ele><time>2022-04-08T10:30:56Z</time><name>PT1570</name></trkpt>
<trkpt lat="53.490773" lon="-1.708745"><ele>339</ele><time>2022-04-08T10:31:00Z</time><name>PT1571</name></trkpt>
<trkpt lat="53.490744" lon="-1.708793"><ele>339</ele><time>2022-04-08T10:31:04Z</time><name>PT1572</name></trkpt>
<trkpt lat="53.490722" lon="-1.708850"><ele>339</ele><time>2022-04-08T10:31:08Z</time><name>PT1573</name></trkpt>
<trkpt lat="53.490682" lon="-1.708867"><ele>340</ele><time>2022-04-08T10:31:12Z</time><name>PT1574</name></trkpt>
<trkpt lat="53.490641" lon="-1.708904"><ele>340</ele><time>2022-04-08T10:31:16Z</time><name>PT1575</name></trkpt>
<trkpt lat="53.490610" lon="-1.708939"><ele>340</ele><time>2022-04-08T10:31:20Z</time><name>PT1576</name></trkpt>
<trkpt lat="53.490572" lon="-1.708958"><ele>340</ele><time>2022-04-08T10:31:24Z</time><name>PT1577</name></trkpt>
<trkpt lat="53.490537" lon="-1.708981"><ele>339</ele><time>2022-04-08T10:31:28Z</time><name>PT1578</name></trkpt>
<trkpt lat="53.490495" lon="-1.708998"><ele>339</ele><time>2022-04-08T10:31:32Z</time><name>PT1579</name></trkpt>
<trkpt lat="53.490451" lon="-1.709042"><ele>339</ele><time>2022-04-08T10:31:36Z</time><name>PT1580</name></trkpt>
<trkpt lat="53.490411" lon="-1.709094"><ele>339</ele><time>2022-04-08T10:31:40Z</time><name>PT1581</name></trkpt>
<trkpt lat="53.490367" lon="-1.709130"><ele>340</ele><time>2022-04-08T10:31:44Z</time><name>PT1582</name></trkpt>
<trkpt lat="53.490333" lon="-1.709164"><ele>339</ele><time>2022-04-08T10:31:48Z</time><name>PT1583</name></trkpt>
<trkpt lat="53.490304" lon="-1.709189"><ele>339</ele><time>2022-04-08T10:31:52Z</time><name>PT1584</name></trkpt>
<trkpt lat="53.490273" lon="-1.709226"><ele>339</ele><time>2022-04-08T10:31:56Z</time><name>PT1585</name></trkpt>
<trkpt lat="53.490251" lon="-1.709265"><ele>339</ele><time>2022-04-08T10:32:00Z</time><name>PT1586</name></trkpt>
<trkpt lat="53.490224" lon="-1.709320"><ele>339</ele><time>2022-04-08T10:32:04Z</time><name>PT1587</name></trkpt>
<trkpt lat="53.490193" lon="-1.709361"><ele>339</ele><time>2022-04-08T10:32:08Z</time><name>PT1588</name></trkpt>
<trkpt lat="53.490154" lon="-1.709373"><ele>341</ele><time>2022-04-08T10:32:12Z</time><name>PT1589</name></trkpt>
<trkpt lat="53.490119" lon="-1.709406"><ele>340</ele><time>2022-04-08T10:32:16Z</time><name>PT1590</name></trkpt>
<trkpt lat="53.490079" lon="-1.709429"><ele>341</ele><time>2022-04-08T10:32:20Z</time><name>PT1591</name></trkpt>
<trkpt lat="53.490039" lon="-1.709451"><ele>340</ele><time>2022-04-08T10:32:24Z</time><name>PT1592</name></trkpt>
<trkpt lat="53.490002" lon="-1.709495"><ele>340</ele><time>2022-04-08T10:32:28Z</time><name>PT1593</name></trkpt>
<trkpt lat="53.489964" lon="-1.709541"><ele>341</ele><time>2022-04-08T10:32:32Z</time><name>PT1594</name></trkpt>
<trkpt lat="53.489923" lon="-1.709560"><ele>341</ele><time>2022-04-08T10:32:36Z</time><name>PT1595</name></trkpt>
<trkpt lat="53.489889" lon="-1.709594"><ele>341</ele><time>2022-04-08T10:32:40Z</time><name>PT1596</name></trkpt>
<trkpt lat="53.489854" lon="-1.709631"><ele>341</ele><time>2022-04-08T10:32:44Z</time><name>PT1597</name></trkpt>
<trkpt lat="53.489820" lon="-1.709679"><ele>341</ele><time>2022-04-08T10:32:48Z</time><name>PT1598</name></trkpt>
<trkpt lat="53.489791" lon="-1.709722"><ele>341</ele><time>2022-04-08T10:32:52Z</time><name>PT1599</name></trkpt>
<trkpt lat="53.489757" lon="-1.709775"><ele>342</ele><time>2022-04-08T10:32:56Z</time><name>PT1600</name></trkpt>
<trkpt lat="53.489726" lon="-1.709829"><ele>342</ele><time>2022-04-08T10:33:00Z</time><name>PT1601</name></trkpt>
<trkpt lat="53.489691" lon="-1.709876"><ele>343</ele><time>2022-04-08T10:33:04Z</time><name>PT1602</name></trkpt>
<trkpt lat="53.489655" lon="-1.709929"><ele>344</ele><time>2022-04-08T10:33:08Z</time><name>PT1603</name></trkpt>
<trkpt lat="53.489622" lon="-1.709989"><ele>344</ele><time>2022-04-08T10:33:12Z</time><name>PT1604</name></trkpt>
<trkpt lat="53.489604" lon="-1.710024"><ele>344</ele><time>2022-04-08T10:33:16Z</time><name>PT1605</name></trkpt>
<trkpt lat="53.489577" lon="-1.710065"><ele>344</ele><time>2022-04-08T10:33:20Z</time><name>PT1606</name></trkpt>
<trkpt lat="53.489558" lon="-1.710123"><ele>344</ele><time>2022-04-08T10:33:24Z</time><name>PT1607</name></trkpt>
<trkpt lat="53.489544" lon="-1.710171"><ele>344</ele><time>2022-04-08T10:33:28Z</time><name>PT1608</name></trkpt>
<trkpt lat="53.489519" lon="-1.710228"><ele>345</ele><time>2022-04-08T10:33:32Z</time><name>PT1609</name></trkpt>
<trkpt lat="53.489489" lon="-1.710289"><ele>345</ele><time>2022-04-08T10:33:36Z</time><name>PT1610</name></trkpt>
<trkpt lat="53.489457" lon="-1.710351"><ele>346</ele><time>2022-04-08T10:33:40Z</time><name>PT1611</name></trkpt>
<trkpt lat="53.489427" lon="-1.710398"><ele>346</ele><time>2022-04-08T10:33:44Z</time><name>PT1612</name></trkpt>
<trkpt lat="53.489390" lon="-1.710451"><ele>347</ele><time>2022-04-08T10:33:48Z</time><name>PT1613</name></trkpt>
<trkpt lat="53.489362" lon="-1.710489"><ele>346</ele><time>2022-04-08T10:33:52Z</time><name>PT1614</name></trkpt>
<trkpt lat="53.489335" lon="-1.710542"><ele>346</ele><time>2022-04-08T10:33:56Z</time><name>PT1615</name></trkpt>
<trkpt lat="53.489308" lon="-1.710605"><ele>347</ele><time>2022-04-08T10:34:00Z</time><name>PT1616</name></trkpt>
<trkpt lat="53.489272" lon="-1.710668"><ele>347</ele><time>2022-04-08T10:34:04Z</time><name>PT1617</name></trkpt>
<trkpt lat="53.489242" lon="-1.710723"><ele>346</ele><time>2022-04-08T10:34:08Z</time><name>PT1618</name></trkpt>
<trkpt lat="53.489206" lon="-1.710765"><ele>345</ele><time>2022-04-08T10:34:12Z</time><name>PT1619</name></trkpt>
<trkpt lat="53.489168" lon="-1.710803"><ele>345</ele><time>2022-04-08T10:34:16Z</time><name>PT1620</name></trkpt>
<trkpt lat="53.489138" lon="-1.710856"><ele>345</ele><time>2022-04-08T10:34:20Z</time><name>PT1621</name></trkpt>
<trkpt lat="53.489111" lon="-1.710925"><ele>345</ele><time>2022-04-08T10:34:24Z</time><name>PT1622</name></trkpt>
<trkpt lat="53.489074" lon="-1.710985"><ele>345</ele><time>2022-04-08T10:34:28Z</time><name>PT1623</name></trkpt>
<trkpt lat="53.489050" lon="-1.711017"><ele>345</ele><time>2022-04-08T10:34:31Z</time><name>PT1624</name></trkpt>
<trkpt lat="53.489006" lon="-1.711050"><ele>346</ele><time>2022-04-08T10:34:35Z</time><name>PT1625</name></trkpt>
<trkpt lat="53.488960" lon="-1.711074"><ele>347</ele><time>2022-04-08T10:34:39Z</time><name>PT1626</name></trkpt>
<trkpt lat="53.488921" lon="-1.711103"><ele>347</ele><time>2022-04-08T10:34:43Z</time><name>PT1627</name></trkpt>
<trkpt lat="53.488874" lon="-1.711142"><ele>348</ele><time>2022-04-08T10:34:47Z</time><name>PT1628</name></trkpt>
<trkpt lat="53.488836" lon="-1.711181"><ele>348</ele><time>2022-04-08T10:34:51Z</time><name>PT1629</name></trkpt>
<trkpt lat="53.488802" lon="-1.711231"><ele>348</ele><time>2022-04-08T10:34:55Z</time><name>PT1630</name></trkpt>
<trkpt lat="53.488757" lon="-1.711264"><ele>350</ele><time>2022-04-08T10:34:59Z</time><name>PT1631</name></trkpt>
<trkpt lat="53.488719" lon="-1.711308"><ele>350</ele><time>2022-04-08T10:35:03Z</time><name>PT1632</name></trkpt>
<trkpt lat="53.488683" lon="-1.711367"><ele>349</ele><time>2022-04-08T10:35:07Z</time><name>PT1633</name></trkpt>
<trkpt lat="53.488637" lon="-1.711408"><ele>351</ele><time>2022-04-08T10:35:11Z</time><name>PT1634</name></trkpt>
<trkpt lat="53.488593" lon="-1.711450"><ele>353</ele><time>2022-04-08T10:35:15Z</time><name>PT1635</name></trkpt>
<trkpt lat="53.488562" lon="-1.711498"><ele>353</ele><time>2022-04-08T10:35:19Z</time><name>PT1636</name></trkpt>
<trkpt lat="53.488530" lon="-1.711554"><ele>354</ele><time>2022-04-08T10:35:23Z</time><name>PT1637</name></trkpt>
<trkpt lat="53.488500" lon="-1.711613"><ele>353</ele><time>2022-04-08T10:35:27Z</time><name>PT1638</name></trkpt>
<trkpt lat="53.488469" lon="-1.711672"><ele>353</ele><time>2022-04-08T10:35:31Z</time><name>PT1639</name></trkpt>
<trkpt lat="53.488432" lon="-1.711729"><ele>353</ele><time>2022-04-08T10:35:35Z</time><name>PT1640</name></trkpt>
<trkpt lat="53.488383" lon="-1.711772"><ele>354</ele><time>2022-04-08T10:35:39Z</time><name>PT1641</name></trkpt>
<trkpt lat="53.488338" lon="-1.711808"><ele>354</ele><time>2022-04-08T10:35:43Z</time><name>PT1642</name></trkpt>
<trkpt lat="53.488293" lon="-1.711832"><ele>354</ele><time>2022-04-08T10:35:47Z</time><name>PT1643</name></trkpt>
<trkpt lat="53.488248" lon="-1.711848"><ele>354</ele><time>2022-04-08T10:35:51Z</time><name>PT1644</name></trkpt>
<trkpt lat="53.488203" lon="-1.711862"><ele>354</ele><time>2022-04-08T10:35:55Z</time><name>PT1645</name></trkpt>
<trkpt lat="53.488163" lon="-1.711875"><ele>354</ele><time>2022-04-08T10:35:59Z</time><name>PT1646</name></trkpt>
<trkpt lat="53.488128" lon="-1.711887"><ele>354</ele><time>2022-04-08T10:36:02Z</time><name>PT1647</name></trkpt>
<trkpt lat="53.488082" lon="-1.711907"><ele>354</ele><time>2022-04-08T10:36:07Z</time><name>PT1648</name></trkpt>
<trkpt lat="53.488040" lon="-1.711913"><ele>354</ele><time>2022-04-08T10:36:10Z</time><name>PT1649</name></trkpt>
<trkpt lat="53.487997" lon="-1.711920"><ele>355</ele><time>2022-04-08T10:36:14Z</time><name>PT1650</name></trkpt>
<trkpt lat="53.487950" lon="-1.711926"><ele>356</ele><time>2022-04-08T10:36:18Z</time><name>PT1651</name></trkpt>
<trkpt lat="53.487906" lon="-1.711941"><ele>356</ele><time>2022-04-08T10:36:22Z</time><name>PT1652</name></trkpt>
<trkpt lat="53.487862" lon="-1.711949"><ele>356</ele><time>2022-04-08T10:36:26Z</time><name>PT1653</name></trkpt>
<trkpt lat="53.487819" lon="-1.711954"><ele>356</ele><time>2022-04-08T10:36:30Z</time><name>PT1654</name></trkpt>
<trkpt lat="53.487777" lon="-1.711955"><ele>356</ele><time>2022-04-08T10:36:34Z</time><name>PT1655</name></trkpt>
<trkpt lat="53.487734" lon="-1.711957"><ele>355</ele><time>2022-04-08T10:36:38Z</time><name>PT1656</name></trkpt>
<trkpt lat="53.487689" lon="-1.711959"><ele>355</ele><time>2022-04-08T10:36:42Z</time><name>PT1657</name></trkpt>
<trkpt lat="53.487642" lon="-1.711964"><ele>356</ele><time>2022-04-08T10:36:46Z</time><name>PT1658</name></trkpt>
<trkpt lat="53.487597" lon="-1.711972"><ele>356</ele><time>2022-04-08T10:36:50Z</time><name>PT1659</name></trkpt>
<trkpt lat="53.487549" lon="-1.711967"><ele>358</ele><time>2022-04-08T10:36:54Z</time><name>PT1660</name></trkpt>
<trkpt lat="53.487500" lon="-1.711962"><ele>359</ele><time>2022-04-08T10:36:58Z</time><name>PT1661</name></trkpt>
<trkpt lat="53.487450" lon="-1.711965"><ele>359</ele><time>2022-04-08T10:37:02Z</time><name>PT1662</name></trkpt>
<trkpt lat="53.487404" lon="-1.711957"><ele>359</ele><time>2022-04-08T10:37:06Z</time><name>PT1663</name></trkpt>
<trkpt lat="53.487356" lon="-1.711960"><ele>360</ele><time>2022-04-08T10:37:10Z</time><name>PT1664</name></trkpt>
<trkpt lat="53.487309" lon="-1.711969"><ele>359</ele><time>2022-04-08T10:37:14Z</time><name>PT1665</name></trkpt>
<trkpt lat="53.487264" lon="-1.711968"><ele>360</ele><time>2022-04-08T10:37:18Z</time><name>PT1666</name></trkpt>
<trkpt lat="53.487212" lon="-1.711967"><ele>360</ele><time>2022-04-08T10:37:22Z</time><name>PT1667</name></trkpt>
<trkpt lat="53.487169" lon="-1.711967"><ele>360</ele><time>2022-04-08T10:37:26Z</time><name>PT1668</name></trkpt>
<trkpt lat="53.487124" lon="-1.711956"><ele>361</ele><time>2022-04-08T10:37:30Z</time><name>PT1669</name></trkpt>
<trkpt lat="53.487083" lon="-1.711964"><ele>361</ele><time>2022-04-08T10:37:34Z</time><name>PT1670</name></trkpt>
<trkpt lat="53.487037" lon="-1.711972"><ele>361</ele><time>2022-04-08T10:37:38Z</time><name>PT1671</name></trkpt>
<trkpt lat="53.486991" lon="-1.711984"><ele>361</ele><time>2022-04-08T10:37:42Z</time><name>PT1672</name></trkpt>
<trkpt lat="53.486945" lon="-1.711992"><ele>361</ele><time>2022-04-08T10:37:46Z</time><name>PT1673</name></trkpt>
<trkpt lat="53.486898" lon="-1.711996"><ele>362</ele><time>2022-04-08T10:37:50Z</time><name>PT1674</name></trkpt>
<trkpt lat="53.486857" lon="-1.712007"><ele>361</ele><time>2022-04-08T10:37:54Z</time><name>PT1675</name></trkpt>
<trkpt lat="53.486815" lon="-1.712009"><ele>361</ele><time>2022-04-08T10:37:58Z</time><name>PT1676</name></trkpt>
<trkpt lat="53.486767" lon="-1.712026"><ele>361</ele><time>2022-04-08T10:38:02Z</time><name>PT1677</name></trkpt>
<trkpt lat="53.486714" lon="-1.712027"><ele>362</ele><time>2022-04-08T10:38:06Z</time><name>PT1678</name></trkpt>
<trkpt lat="53.486666" lon="-1.712043"><ele>362</ele><time>2022-04-08T10:38:10Z</time><name>PT1679</name></trkpt>
<trkpt lat="53.486618" lon="-1.712068"><ele>362</ele><time>2022-04-08T10:38:14Z</time><name>PT1680</name></trkpt>
<trkpt lat="53.486576" lon="-1.712080"><ele>362</ele><time>2022-04-08T10:38:18Z</time><name>PT1681</name></trkpt>
<trkpt lat="53.486532" lon="-1.712084"><ele>363</ele><time>2022-04-08T10:38:22Z</time><name>PT1682</name></trkpt>
<trkpt lat="53.486493" lon="-1.712113"><ele>364</ele><time>2022-04-08T10:38:26Z</time><name>PT1683</name></trkpt>
<trkpt lat="53.486448" lon="-1.712150"><ele>365</ele><time>2022-04-08T10:38:30Z</time><name>PT1684</name></trkpt>
<trkpt lat="53.486405" lon="-1.712173"><ele>366</ele><time>2022-04-08T10:38:34Z</time><name>PT1685</name></trkpt>
<trkpt lat="53.486360" lon="-1.712191"><ele>366</ele><time>2022-04-08T10:38:38Z</time><name>PT1686</name></trkpt>
<trkpt lat="53.486322" lon="-1.712198"><ele>366</ele><time>2022-04-08T10:38:42Z</time><name>PT1687</name></trkpt>
<trkpt lat="53.486283" lon="-1.712207"><ele>366</ele><time>2022-04-08T10:38:46Z</time><name>PT1688</name></trkpt>
<trkpt lat="53.486243" lon="-1.712217"><ele>366</ele><time>2022-04-08T10:38:50Z</time><name>PT1689</name></trkpt>
<trkpt lat="53.486208" lon="-1.712227"><ele>367</ele><time>2022-04-08T10:38:54Z</time><name>PT1690</name></trkpt>
<trkpt lat="53.486169" lon="-1.712238"><ele>367</ele><time>2022-04-08T10:38:58Z</time><name>PT1691</name></trkpt>
<trkpt lat="53.486130" lon="-1.712241"><ele>367</ele><time>2022-04-08T10:39:02Z</time><name>PT1692</name></trkpt>
<trkpt lat="53.486091" lon="-1.712245"><ele>366</ele><time>2022-04-08T10:39:06Z</time><name>PT1693</name></trkpt>
<trkpt lat="53.486051" lon="-1.712252"><ele>367</ele><time>2022-04-08T10:39:10Z</time><name>PT1694</name></trkpt>
<trkpt lat="53.486014" lon="-1.712257"><ele>368</ele><time>2022-04-08T10:39:14Z</time><name>PT1695</name></trkpt>
<trkpt lat="53.485984" lon="-1.712252"><ele>368</ele><time>2022-04-08T10:39:18Z</time><name>PT1696</name></trkpt>
<trkpt lat="53.485957" lon="-1.712264"><ele>365</ele><time>2022-04-08T10:39:22Z</time><name>PT1697</name></trkpt>
<trkpt lat="53.485919" lon="-1.712264"><ele>366</ele><time>2022-04-08T10:39:26Z</time><name>PT1698</name></trkpt>
<trkpt lat="53.485875" lon="-1.712265"><ele>367</ele><time>2022-04-08T10:39:30Z</time><name>PT1699</name></trkpt>
<trkpt lat="53.485830" lon="-1.712271"><ele>369</ele><time>2022-04-08T10:39:34Z</time><name>PT1700</name></trkpt>
<trkpt lat="53.485790" lon="-1.712279"><ele>369</ele><time>2022-04-08T10:39:38Z</time><name>PT1701</name></trkpt>
<trkpt lat="53.485746" lon="-1.712275"><ele>370</ele><time>2022-04-08T10:39:42Z</time><name>PT1702</name></trkpt>
<trkpt lat="53.485694" lon="-1.712280"><ele>371</ele><time>2022-04-08T10:39:46Z</time><name>PT1703</name></trkpt>
<trkpt lat="53.485651" lon="-1.712292"><ele>372</ele><time>2022-04-08T10:39:50Z</time><name>PT1704</name></trkpt>
<trkpt lat="53.485606" lon="-1.712314"><ele>374</ele><time>2022-04-08T10:39:54Z</time><name>PT1705</name></trkpt>
<trkpt lat="53.485566" lon="-1.712319"><ele>375</ele><time>2022-04-08T10:39:58Z</time><name>PT1706</name></trkpt>
<trkpt lat="53.485521" lon="-1.712321"><ele>375</ele><time>2022-04-08T10:40:02Z</time><name>PT1707</name></trkpt>
<trkpt lat="53.485478" lon="-1.712326"><ele>375</ele><time>2022-04-08T10:40:06Z</time><name>PT1708</name></trkpt>
<trkpt lat="53.485428" lon="-1.712323"><ele>376</ele><time>2022-04-08T10:40:10Z</time><name>PT1709</name></trkpt>
<trkpt lat="53.485386" lon="-1.712323"><ele>377</ele><time>2022-04-08T10:40:14Z</time><name>PT1710</name></trkpt>
<trkpt lat="53.485345" lon="-1.712328"><ele>378</ele><time>2022-04-08T10:40:18Z</time><name>PT1711</name></trkpt>
<trkpt lat="53.485303" lon="-1.712344"><ele>378</ele><time>2022-04-08T10:40:22Z</time><name>PT1712</name></trkpt>
<trkpt lat="53.485256" lon="-1.712362"><ele>378</ele><time>2022-04-08T10:40:26Z</time><name>PT1713</name></trkpt>
<trkpt lat="53.485212" lon="-1.712375"><ele>380</ele><time>2022-04-08T10:40:30Z</time><name>PT1714</name></trkpt>
<trkpt lat="53.485181" lon="-1.712386"><ele>381</ele><time>2022-04-08T10:40:34Z</time><name>PT1715</name></trkpt>
<trkpt lat="53.485139" lon="-1.712395"><ele>381</ele><time>2022-04-08T10:40:37Z</time><name>PT1716</name></trkpt>
<trkpt lat="53.485094" lon="-1.712415"><ele>382</ele><time>2022-04-08T10:40:41Z</time><name>PT1717</name></trkpt>
<trkpt lat="53.485048" lon="-1.712423"><ele>382</ele><time>2022-04-08T10:40:45Z</time><name>PT1718</name></trkpt>
<trkpt lat="53.485004" lon="-1.712431"><ele>383</ele><time>2022-04-08T10:40:49Z</time><name>PT1719</name></trkpt>
<trkpt lat="53.484982" lon="-1.712436"><ele>384</ele><time>2022-04-08T10:40:52Z</time><name>PT1720</name></trkpt>
<trkpt lat="53.484972" lon="-1.712437"><ele>384</ele><time>2022-04-08T10:40:52Z</time><name>PT1721</name></trkpt>
<trkpt lat="53.484960" lon="-1.712441"><ele>384</ele><time>2022-04-08T10:40:53Z</time><name>PT1722</name></trkpt>
<trkpt lat="53.484953" lon="-1.712436"><ele>384</ele><time>2022-04-08T10:40:54Z</time><name>PT1723</name></trkpt>
<trkpt lat="53.484943" lon="-1.712441"><ele>384</ele><time>2022-04-08T10:40:55Z</time><name>PT1724</name></trkpt>
<trkpt lat="53.484929" lon="-1.712446"><ele>386</ele><time>2022-04-08T10:40:56Z</time><name>PT1725</name></trkpt>
<trkpt lat="53.484918" lon="-1.712446"><ele>387</ele><time>2022-04-08T10:40:57Z</time><name>PT1726</name></trkpt>
<trkpt lat="53.484907" lon="-1.712453"><ele>388</ele><time>2022-04-08T10:40:58Z</time><name>PT1727</name></trkpt>
<trkpt lat="53.484893" lon="-1.712453"><ele>388</ele><time>2022-04-08T10:40:59Z</time><name>PT1728</name></trkpt>
<trkpt lat="53.484885" lon="-1.712453"><ele>389</ele><time>2022-04-08T10:41:00Z</time><name>PT1729</name></trkpt>
<trkpt lat="53.484876" lon="-1.712455"><ele>388</ele><time>2022-04-08T10:41:01Z</time><name>PT1730</name></trkpt>
<trkpt lat="53.484867" lon="-1.712455"><ele>389</ele><time>2022-04-08T10:41:02Z</time><name>PT1731</name></trkpt>
<trkpt lat="53.484858" lon="-1.712452"><ele>389</ele><time>2022-04-08T10:41:03Z</time><name>PT1732</name></trkpt>
<trkpt lat="53.484847" lon="-1.712450"><ele>389</ele><time>2022-04-08T10:41:04Z</time><name>PT1733</name></trkpt>
<trkpt lat="53.484842" lon="-1.712450"><ele>389</ele><time>2022-04-08T10:41:05Z</time><name>PT1734</name></trkpt>
<trkpt lat="53.484837" lon="-1.712451"><ele>389</ele><time>2022-04-08T10:41:06Z</time><name>PT1735</name></trkpt>
<trkpt lat="53.484833" lon="-1.712451"><ele>389</ele><time>2022-04-08T10:41:07Z</time><name>PT1736</name></trkpt>
<trkpt lat="53.484828" lon="-1.712454"><ele>389</ele><time>2022-04-08T10:41:08Z</time><name>PT1737</name></trkpt>
<trkpt lat="53.484822" lon="-1.712453"><ele>389</ele><time>2022-04-08T10:41:09Z</time><name>PT1738</name></trkpt>
<trkpt lat="53.484820" lon="-1.712456"><ele>389</ele><time>2022-04-08T10:41:10Z</time><name>PT1739</name></trkpt>
<trkpt lat="53.484819" lon="-1.712455"><ele>389</ele><time>2022-04-08T10:41:11Z</time><name>PT1740</name></trkpt>
<trkpt lat="53.484814" lon="-1.712451"><ele>389</ele><time>2022-04-08T10:41:12Z</time><name>PT1741</name></trkpt>
<trkpt lat="53.484816" lon="-1.712456"><ele>389</ele><time>2022-04-08T10:41:13Z</time><name>PT1742</name></trkpt>
<trkpt lat="53.484818" lon="-1.712457"><ele>389</ele><time>2022-04-08T10:41:14Z</time><name>PT1743</name></trkpt>
<trkpt lat="53.484818" lon="-1.712455"><ele>389</ele><time>2022-04-08T10:41:15Z</time><name>PT1744</name></trkpt>
<trkpt lat="53.484818" lon="-1.712454"><ele>389</ele><time>2022-04-08T10:41:16Z</time><name>PT1745</name></trkpt>
<trkpt lat="53.484817" lon="-1.712468"><ele>390</ele><time>2022-04-08T10:41:22Z</time><name>PT1746</name></trkpt>
<trkpt lat="53.484810" lon="-1.712477"><ele>390</ele><time>2022-04-08T10:41:22Z</time><name>PT1747</name></trkpt>
<trkpt lat="53.484811" lon="-1.712480"><ele>390</ele><time>2022-04-08T10:41:23Z</time><name>PT1748</name></trkpt>
<trkpt lat="53.484811" lon="-1.712479"><ele>390</ele><time>2022-04-08T10:41:24Z</time><name>PT1749</name></trkpt>
<trkpt lat="53.484813" lon="-1.712477"><ele>390</ele><time>2022-04-08T10:41:25Z</time><name>PT1750</name></trkpt>
<trkpt lat="53.484814" lon="-1.712476"><ele>390</ele><time>2022-04-08T10:41:26Z</time><name>PT1751</name></trkpt>
<trkpt lat="53.484816" lon="-1.712478"><ele>390</ele><time>2022-04-08T10:41:27Z</time><name>PT1752</name></trkpt>
<trkpt lat="53.484816" lon="-1.712481"><ele>390</ele><time>2022-04-08T10:41:39Z</time><name>PT1753</name></trkpt>
<trkpt lat="53.484817" lon="-1.712487"><ele>389</ele><time>2022-04-08T10:41:40Z</time><name>PT1754</name></trkpt>
<trkpt lat="53.484817" lon="-1.712481"><ele>389</ele><time>2022-04-08T10:41:55Z</time><name>PT1755</name></trkpt>
<trkpt lat="53.484814" lon="-1.712478"><ele>389</ele><time>2022-04-08T10:41:56Z</time><name>PT1756</name></trkpt>
<trkpt lat="53.484811" lon="-1.712478"><ele>389</ele><time>2022-04-08T10:41:57Z</time><name>PT1757</name></trkpt>
<trkpt lat="53.484810" lon="-1.712477"><ele>389</ele><time>2022-04-08T10:41:58Z</time><name>PT1758</name></trkpt>
<trkpt lat="53.484811" lon="-1.712473"><ele>389</ele><time>2022-04-08T10:42:21Z</time><name>PT1759</name></trkpt>
<trkpt lat="53.484811" lon="-1.712473"><ele>389</ele><time>2022-04-08T10:42:22Z</time><name>PT1760</name></trkpt>
<trkpt lat="53.484809" lon="-1.712477"><ele>389</ele><time>2022-04-08T10:42:23Z</time><name>PT1761</name></trkpt>
<trkpt lat="53.484806" lon="-1.712478"><ele>389</ele><time>2022-04-08T10:42:33Z</time><name>PT1762</name></trkpt>
<trkpt lat="53.484805" lon="-1.712476"><ele>389</ele><time>2022-04-08T10:42:34Z</time><name>PT1763</name></trkpt>
<trkpt lat="53.484795" lon="-1.712475"><ele>389</ele><time>2022-04-08T10:42:35Z</time><name>PT1764</name></trkpt>
<trkpt lat="53.484790" lon="-1.712474"><ele>389</ele><time>2022-04-08T10:42:36Z</time><name>PT1765</name></trkpt>
<trkpt lat="53.484796" lon="-1.712464"><ele>389</ele><time>2022-04-08T10:42:37Z</time><name>PT1766</name></trkpt>
<trkpt lat="53.484795" lon="-1.712461"><ele>389</ele><time>2022-04-08T10:42:38Z</time><name>PT1767</name></trkpt>
<trkpt lat="53.484785" lon="-1.712462"><ele>388</ele><time>2022-04-08T10:42:39Z</time><name>PT1768</name></trkpt>
<trkpt lat="53.484785" lon="-1.712464"><ele>388</ele><time>2022-04-08T10:42:40Z</time><name>PT1769</name></trkpt>
<trkpt lat="53.484781" lon="-1.712462"><ele>387</ele><time>2022-04-08T10:42:41Z</time><name>PT1770</name></trkpt>
<trkpt lat="53.484782" lon="-1.712451"><ele>388</ele><time>2022-04-08T10:42:42Z</time><name>PT1771</name></trkpt>
<trkpt lat="53.484785" lon="-1.712447"><ele>388</ele><time>2022-04-08T10:42:43Z</time><name>PT1772</name></trkpt>
<trkpt lat="53.484784" lon="-1.712446"><ele>389</ele><time>2022-04-08T10:42:44Z</time><name>PT1773</name></trkpt>
<trkpt lat="53.484783" lon="-1.712442"><ele>389</ele><time>2022-04-08T10:42:45Z</time><name>PT1774</name></trkpt>
<trkpt lat="53.484778" lon="-1.712440"><ele>389</ele><time>2022-04-08T10:42:46Z</time><name>PT1775</name></trkpt>
<trkpt lat="53.484777" lon="-1.712438"><ele>389</ele><time>2022-04-08T10:42:47Z</time><name>PT1776</name></trkpt>
<trkpt lat="53.484756" lon="-1.712449"><ele>388</ele><time>2022-04-08T10:43:01Z</time><name>PT1777</name></trkpt>
<trkpt lat="53.484757" lon="-1.712460"><ele>388</ele><time>2022-04-08T10:43:05Z</time><name>PT1778</name></trkpt>
<trkpt lat="53.484763" lon="-1.712450"><ele>390</ele><time>2022-04-08T10:43:09Z</time><name>PT1779</name></trkpt>
<trkpt lat="53.484768" lon="-1.712453"><ele>390</ele><time>2022-04-08T10:43:13Z</time><name>PT1780</name></trkpt>
<trkpt lat="53.484777" lon="-1.712459"><ele>391</ele><time>2022-04-08T10:43:17Z</time><name>PT1781</name></trkpt>
<trkpt lat="53.484772" lon="-1.712448"><ele>390</ele><time>2022-04-08T10:43:29Z</time><name>PT1782</name></trkpt>
<trkpt lat="53.484769" lon="-1.712439"><ele>389</ele><time>2022-04-08T10:43:33Z</time><name>PT1783</name></trkpt>
<trkpt lat="53.484773" lon="-1.712422"><ele>388</ele><time>2022-04-08T10:43:37Z</time><name>PT1784</name></trkpt>
<trkpt lat="53.484771" lon="-1.712422"><ele>388</ele><time>2022-04-08T10:43:41Z</time><name>PT1785</name></trkpt>
<trkpt lat="53.484766" lon="-1.712414"><ele>387</ele><time>2022-04-08T10:43:49Z</time><name>PT1786</name></trkpt>
<trkpt lat="53.484766" lon="-1.712388"><ele>387</ele><time>2022-04-08T10:43:53Z</time><name>PT1787</name></trkpt>
<trkpt lat="53.484777" lon="-1.712399"><ele>387</ele><time>2022-04-08T10:43:57Z</time><name>PT1788</name></trkpt>
<trkpt lat="53.484775" lon="-1.712410"><ele>386</ele><time>2022-04-08T10:44:01Z</time><name>PT1789</name></trkpt>
<trkpt lat="53.484776" lon="-1.712413"><ele>387</ele><time>2022-04-08T10:44:05Z</time><name>PT1790</name></trkpt>
<trkpt lat="53.484773" lon="-1.712421"><ele>387</ele><time>2022-04-08T10:44:09Z</time><name>PT1791</name></trkpt>
<trkpt lat="53.484775" lon="-1.712405"><ele>386</ele><time>2022-04-08T10:44:13Z</time><name>PT1792</name></trkpt>
<trkpt lat="53.484767" lon="-1.712401"><ele>385</ele><time>2022-04-08T10:44:18Z</time><name>PT1793</name></trkpt>
<trkpt lat="53.484763" lon="-1.712392"><ele>385</ele><time>2022-04-08T10:44:21Z</time><name>PT1794</name></trkpt>
<trkpt lat="53.484763" lon="-1.712415"><ele>385</ele><time>2022-04-08T10:44:29Z</time><name>PT1795</name></trkpt>
<trkpt lat="53.484738" lon="-1.712413"><ele>384</ele><time>2022-04-08T10:44:33Z</time><name>PT1796</name></trkpt>
<trkpt lat="53.484739" lon="-1.712419"><ele>381</ele><time>2022-04-08T10:44:37Z</time><name>PT1797</name></trkpt>
<trkpt lat="53.484737" lon="-1.712420"><ele>381</ele><time>2022-04-08T10:44:47Z</time><name>PT1798</name></trkpt>
<trkpt lat="53.484741" lon="-1.712416"><ele>381</ele><time>2022-04-08T10:44:48Z</time><name>PT1799</name></trkpt>
<trkpt lat="53.484745" lon="-1.712412"><ele>381</ele><time>2022-04-08T10:44:49Z</time><name>PT1800</name></trkpt>
<trkpt lat="53.484750" lon="-1.712414"><ele>381</ele><time>2022-04-08T10:44:50Z</time><name>PT1801</name></trkpt>
<trkpt lat="53.484751" lon="-1.712418"><ele>382</ele><time>2022-04-08T10:44:51Z</time><name>PT1802</name></trkpt>
<trkpt lat="53.484757" lon="-1.712413"><ele>382</ele><time>2022-04-08T10:44:52Z</time><name>PT1803</name></trkpt>
<trkpt lat="53.484756" lon="-1.712416"><ele>381</ele><time>2022-04-08T10:44:53Z</time><name>PT1804</name></trkpt>
<trkpt lat="53.484753" lon="-1.712414"><ele>382</ele><time>2022-04-08T10:44:54Z</time><name>PT1805</name></trkpt>
<trkpt lat="53.484749" lon="-1.712419"><ele>382</ele><time>2022-04-08T10:44:55Z</time><name>PT1806</name></trkpt>
<trkpt lat="53.484748" lon="-1.712424"><ele>381</ele><time>2022-04-08T10:44:56Z</time><name>PT1807</name></trkpt>
<trkpt lat="53.484750" lon="-1.712431"><ele>381</ele><time>2022-04-08T10:44:57Z</time><name>PT1808</name></trkpt>
<trkpt lat="53.484747" lon="-1.712443"><ele>381</ele><time>2022-04-08T10:44:58Z</time><name>PT1809</name></trkpt>
<trkpt lat="53.484749" lon="-1.712455"><ele>381</ele><time>2022-04-08T10:44:59Z</time><name>PT1810</name></trkpt>
<trkpt lat="53.484754" lon="-1.712458"><ele>381</ele><time>2022-04-08T10:45:00Z</time><name>PT1811</name></trkpt>
<trkpt lat="53.484762" lon="-1.712466"><ele>380</ele><time>2022-04-08T10:45:01Z</time><name>PT1812</name></trkpt>
<trkpt lat="53.484760" lon="-1.712469"><ele>380</ele><time>2022-04-08T10:45:02Z</time><name>PT1813</name></trkpt>
<trkpt lat="53.484757" lon="-1.712465"><ele>380</ele><time>2022-04-08T10:45:03Z</time><name>PT1814</name></trkpt>
<trkpt lat="53.484771" lon="-1.712471"><ele>380</ele><time>2022-04-08T10:45:04Z</time><name>PT1815</name></trkpt>
<trkpt lat="53.484768" lon="-1.712468"><ele>381</ele><time>2022-04-08T10:45:06Z</time><name>PT1816</name></trkpt>
<trkpt lat="53.484766" lon="-1.712475"><ele>382</ele><time>2022-04-08T10:45:06Z</time><name>PT1817</name></trkpt>
<trkpt lat="53.484770" lon="-1.712476"><ele>381</ele><time>2022-04-08T10:45:07Z</time><name>PT1818</name></trkpt>
<trkpt lat="53.484771" lon="-1.712477"><ele>381</ele><time>2022-04-08T10:45:08Z</time><name>PT1819</name></trkpt>
<trkpt lat="53.484773" lon="-1.712480"><ele>380</ele><time>2022-04-08T10:45:09Z</time><name>PT1820</name></trkpt>
<trkpt lat="53.484772" lon="-1.712471"><ele>380</ele><time>2022-04-08T10:45:12Z</time><name>PT1821</name></trkpt>
<trkpt lat="53.484787" lon="-1.712440"><ele>381</ele><time>2022-04-08T10:45:13Z</time><name>PT1822</name></trkpt>
<trkpt lat="53.484790" lon="-1.712427"><ele>381</ele><time>2022-04-08T10:45:14Z</time><name>PT1823</name></trkpt>
<trkpt lat="53.484793" lon="-1.712422"><ele>381</ele><time>2022-04-08T10:45:15Z</time><name>PT1824</name></trkpt>
<trkpt lat="53.484789" lon="-1.712416"><ele>382</ele><time>2022-04-08T10:45:16Z</time><name>PT1825</name></trkpt>
<trkpt lat="53.484787" lon="-1.712410"><ele>381</ele><time>2022-04-08T10:45:17Z</time><name>PT1826</name></trkpt>
<trkpt lat="53.484775" lon="-1.712405"><ele>380</ele><time>2022-04-08T10:45:18Z</time><name>PT1827</name></trkpt>
<trkpt lat="53.484776" lon="-1.712407"><ele>380</ele><time>2022-04-08T10:45:19Z</time><name>PT1828</name></trkpt>
<trkpt lat="53.484774" lon="-1.712408"><ele>381</ele><time>2022-04-08T10:45:20Z</time><name>PT1829</name></trkpt>
<trkpt lat="53.484773" lon="-1.712395"><ele>380</ele><time>2022-04-08T10:45:21Z</time><name>PT1830</name></trkpt>
<trkpt lat="53.484774" lon="-1.712399"><ele>381</ele><time>2022-04-08T10:45:22Z</time><name>PT1831</name></trkpt>
<trkpt lat="53.484767" lon="-1.712395"><ele>379</ele><time>2022-04-08T10:45:23Z</time><name>PT1832</name></trkpt>
<trkpt lat="53.484771" lon="-1.712386"><ele>379</ele><time>2022-04-08T10:45:24Z</time><name>PT1833</name></trkpt>
<trkpt lat="53.484780" lon="-1.712381"><ele>379</ele><time>2022-04-08T10:45:25Z</time><name>PT1834</name></trkpt>
<trkpt lat="53.484779" lon="-1.712379"><ele>378</ele><time>2022-04-08T10:45:26Z</time><name>PT1835</name></trkpt>
<trkpt lat="53.484780" lon="-1.712378"><ele>378</ele><time>2022-04-08T10:45:27Z</time><name>PT1836</name></trkpt>
<trkpt lat="53.484784" lon="-1.712378"><ele>377</ele><time>2022-04-08T10:45:28Z</time><name>PT1837</name></trkpt>
<trkpt lat="53.484785" lon="-1.712374"><ele>378</ele><time>2022-04-08T10:45:29Z</time><name>PT1838</name></trkpt>
<trkpt lat="53.484779" lon="-1.712369"><ele>377</ele><time>2022-04-08T10:45:30Z</time><name>PT1839</name></trkpt>
<trkpt lat="53.484782" lon="-1.712363"><ele>377</ele><time>2022-04-08T10:45:31Z</time><name>PT1840</name></trkpt>
<trkpt lat="53.484783" lon="-1.712360"><ele>378</ele><time>2022-04-08T10:45:32Z</time><name>PT1841</name></trkpt>
<trkpt lat="53.484769" lon="-1.712335"><ele>378</ele><time>2022-04-08T10:45:40Z</time><name>PT1842</name></trkpt>
<trkpt lat="53.484756" lon="-1.712336"><ele>378</ele><time>2022-04-08T10:45:41Z</time><name>PT1843</name></trkpt>
<trkpt lat="53.484750" lon="-1.712349"><ele>379</ele><time>2022-04-08T10:45:42Z</time><name>PT1844</name></trkpt>
<trkpt lat="53.484754" lon="-1.712357"><ele>379</ele><time>2022-04-08T10:45:43Z</time><name>PT1845</name></trkpt>
<trkpt lat="53.484752" lon="-1.712364"><ele>379</ele><time>2022-04-08T10:45:45Z</time><name>PT1846</name></trkpt>
<trkpt lat="53.484743" lon="-1.712355"><ele>380</ele><time>2022-04-08T10:45:46Z</time><name>PT1847</name></trkpt>
<trkpt lat="53.484738" lon="-1.712365"><ele>379</ele><time>2022-04-08T10:45:47Z</time><name>PT1848</name></trkpt>
<trkpt lat="53.484734" lon="-1.712368"><ele>379</ele><time>2022-04-08T10:45:48Z</time><name>PT1849</name></trkpt>
<trkpt lat="53.484730" lon="-1.712362"><ele>379</ele><time>2022-04-08T10:45:49Z</time><name>PT1850</name></trkpt>
<trkpt lat="53.484722" lon="-1.712368"><ele>378</ele><time>2022-04-08T10:46:26Z</time><name>PT1851</name></trkpt>
<trkpt lat="53.484718" lon="-1.712376"><ele>378</ele><time>2022-04-08T10:46:27Z</time><name>PT1852</name></trkpt>
<trkpt lat="53.484719" lon="-1.712392"><ele>378</ele><time>2022-04-08T10:46:28Z</time><name>PT1853</name></trkpt>
<trkpt lat="53.484721" lon="-1.712397"><ele>378</ele><time>2022-04-08T10:46:29Z</time><name>PT1854</name></trkpt>
<trkpt lat="53.484720" lon="-1.712398"><ele>378</ele><time>2022-04-08T10:46:30Z</time><name>PT1855</name></trkpt>
<trkpt lat="53.484705" lon="-1.712393"><ele>378</ele><time>2022-04-08T10:46:31Z</time><name>PT1856</name></trkpt>
<trkpt lat="53.484705" lon="-1.712401"><ele>378</ele><time>2022-04-08T10:46:32Z</time><name>PT1857</name></trkpt>
<trkpt lat="53.484704" lon="-1.712402"><ele>377</ele><time>2022-04-08T10:46:33Z</time><name>PT1858</name></trkpt>
<trkpt lat="53.484705" lon="-1.712418"><ele>378</ele><time>2022-04-08T10:46:49Z</time><name>PT1859</name></trkpt>
<trkpt lat="53.484708" lon="-1.712441"><ele>377</ele><time>2022-04-08T10:47:05Z</time><name>PT1860</name></trkpt>
<trkpt lat="53.484711" lon="-1.712440"><ele>376</ele><time>2022-04-08T10:47:09Z</time><name>PT1861</name></trkpt>
<trkpt lat="53.484715" lon="-1.712446"><ele>378</ele><time>2022-04-08T10:47:41Z</time><name>PT1862</name></trkpt>
<trkpt lat="53.484718" lon="-1.712443"><ele>379</ele><time>2022-04-08T10:48:45Z</time><name>PT1863</name></trkpt>
<trkpt lat="53.484732" lon="-1.712418"><ele>380</ele><time>2022-04-08T10:49:13Z</time><name>PT1864</name></trkpt>
<trkpt lat="53.484736" lon="-1.712413"><ele>381</ele><time>2022-04-08T10:49:17Z</time><name>PT1865</name></trkpt>
<trkpt lat="53.484751" lon="-1.712399"><ele>383</ele><time>2022-04-08T10:49:21Z</time><name>PT1866</name></trkpt>
<trkpt lat="53.484765" lon="-1.712407"><ele>384</ele><time>2022-04-08T10:49:24Z</time><name>PT1867</name></trkpt>
<trkpt lat="53.484764" lon="-1.712405"><ele>384</ele><time>2022-04-08T10:49:24Z</time><name>PT1868</name></trkpt>
<trkpt lat="53.484783" lon="-1.712419"><ele>385</ele><time>2022-04-08T10:49:25Z</time><name>PT1869</name></trkpt>
<trkpt lat="53.484780" lon="-1.712425"><ele>385</ele><time>2022-04-08T10:49:26Z</time><name>PT1870</name></trkpt>
<trkpt lat="53.484774" lon="-1.712430"><ele>385</ele><time>2022-04-08T10:50:21Z</time><name>PT1871</name></trkpt>
<trkpt lat="53.484775" lon="-1.712431"><ele>385</ele><time>2022-04-08T10:50:23Z</time><name>PT1872</name></trkpt>
<trkpt lat="53.484772" lon="-1.712429"><ele>385</ele><time>2022-04-08T10:50:23Z</time><name>PT1873</name></trkpt>
<trkpt lat="53.484773" lon="-1.712434"><ele>385</ele><time>2022-04-08T10:50:24Z</time><name>PT1874</name></trkpt>
<trkpt lat="53.484773" lon="-1.712440"><ele>386</ele><time>2022-04-08T10:51:56Z</time><name>PT1875</name></trkpt>
<trkpt lat="53.484767" lon="-1.712447"><ele>387</ele><time>2022-04-08T10:51:57Z</time><name>PT1876</name></trkpt>
<trkpt lat="53.484764" lon="-1.712451"><ele>387</ele><time>2022-04-08T10:51:58Z</time><name>PT1877</name></trkpt>
<trkpt lat="53.484764" lon="-1.712451"><ele>387</ele><time>2022-04-08T10:51:59Z</time><name>PT1878</name></trkpt>
<trkpt lat="53.484760" lon="-1.712453"><ele>387</ele><time>2022-04-08T10:52:00Z</time><name>PT1879</name></trkpt>
<trkpt lat="53.484757" lon="-1.712461"><ele>387</ele><time>2022-04-08T10:52:01Z</time><name>PT1880</name></trkpt>
<trkpt lat="53.484755" lon="-1.712464"><ele>387</ele><time>2022-04-08T10:52:03Z</time><name>PT1881</name></trkpt>
<trkpt lat="53.484749" lon="-1.712468"><ele>386</ele><time>2022-04-08T10:52:03Z</time><name>PT1882</name></trkpt>
<trkpt lat="53.484744" lon="-1.712470"><ele>385</ele><time>2022-04-08T10:52:04Z</time><name>PT1883</name></trkpt>
<trkpt lat="53.484742" lon="-1.712472"><ele>386</ele><time>2022-04-08T10:52:05Z</time><name>PT1884</name></trkpt>
<trkpt lat="53.484742" lon="-1.712472"><ele>386</ele><time>2022-04-08T10:52:06Z</time><name>PT1885</name></trkpt>
<trkpt lat="53.484737" lon="-1.712478"><ele>386</ele><time>2022-04-08T10:52:12Z</time><name>PT1886</name></trkpt>
<trkpt lat="53.484740" lon="-1.712481"><ele>386</ele><time>2022-04-08T10:52:13Z</time><name>PT1887</name></trkpt>
<trkpt lat="53.484744" lon="-1.712480"><ele>387</ele><time>2022-04-08T10:52:14Z</time><name>PT1888</name></trkpt>
<trkpt lat="53.484750" lon="-1.712475"><ele>387</ele><time>2022-04-08T10:52:37Z</time><name>PT1889</name></trkpt>
<trkpt lat="53.484745" lon="-1.712484"><ele>387</ele><time>2022-04-08T10:52:38Z</time><name>PT1890</name></trkpt>
<trkpt lat="53.484739" lon="-1.712481"><ele>387</ele><time>2022-04-08T10:52:39Z</time><name>PT1891</name></trkpt>
<trkpt lat="53.484732" lon="-1.712479"><ele>386</ele><time>2022-04-08T10:52:40Z</time><name>PT1892</name></trkpt>
<trkpt lat="53.484725" lon="-1.712481"><ele>386</ele><time>2022-04-08T10:52:41Z</time><name>PT1893</name></trkpt>
<trkpt lat="53.484717" lon="-1.712489"><ele>387</ele><time>2022-04-08T10:52:42Z</time><name>PT1894</name></trkpt>
<trkpt lat="53.484707" lon="-1.712495"><ele>387</ele><time>2022-04-08T10:52:43Z</time><name>PT1895</name></trkpt>
<trkpt lat="53.484694" lon="-1.712501"><ele>388</ele><time>2022-04-08T10:52:44Z</time><name>PT1896</name></trkpt>
<trkpt lat="53.484684" lon="-1.712504"><ele>388</ele><time>2022-04-08T10:52:45Z</time><name>PT1897</name></trkpt>
<trkpt lat="53.484676" lon="-1.712510"><ele>388</ele><time>2022-04-08T10:52:46Z</time><name>PT1898</name></trkpt>
<trkpt lat="53.484666" lon="-1.712517"><ele>388</ele><time>2022-04-08T10:52:47Z</time><name>PT1899</name></trkpt>
<trkpt lat="53.484655" lon="-1.712521"><ele>388</ele><time>2022-04-08T10:52:48Z</time><name>PT1900</name></trkpt>
<trkpt lat="53.484645" lon="-1.712521"><ele>388</ele><time>2022-04-08T10:52:49Z</time><name>PT1901</name></trkpt>
<trkpt lat="53.484636" lon="-1.712521"><ele>388</ele><time>2022-04-08T10:52:50Z</time><name>PT1902</name></trkpt>
<trkpt lat="53.484629" lon="-1.712521"><ele>389</ele><time>2022-04-08T10:52:51Z</time><name>PT1903</name></trkpt>
<trkpt lat="53.484620" lon="-1.712521"><ele>389</ele><time>2022-04-08T10:52:52Z</time><name>PT1904</name></trkpt>
<trkpt lat="53.484610" lon="-1.712525"><ele>388</ele><time>2022-04-08T10:52:53Z</time><name>PT1905</name></trkpt>
<trkpt lat="53.484601" lon="-1.712529"><ele>389</ele><time>2022-04-08T10:52:54Z</time><name>PT1906</name></trkpt>
<trkpt lat="53.484592" lon="-1.712531"><ele>389</ele><time>2022-04-08T10:52:55Z</time><name>PT1907</name></trkpt>
<trkpt lat="53.484581" lon="-1.712535"><ele>389</ele><time>2022-04-08T10:52:56Z</time><name>PT1908</name></trkpt>
<trkpt lat="53.484572" lon="-1.712535"><ele>389</ele><time>2022-04-08T10:52:57Z</time><name>PT1909</name></trkpt>
<trkpt lat="53.484565" lon="-1.712539"><ele>389</ele><time>2022-04-08T10:52:58Z</time><name>PT1910</name></trkpt>
<trkpt lat="53.484564" lon="-1.712536"><ele>389</ele><time>2022-04-08T10:52:59Z</time><name>PT1911</name></trkpt>
<trkpt lat="53.484560" lon="-1.712538"><ele>389</ele><time>2022-04-08T10:53:00Z</time><name>PT1912</name></trkpt>
<trkpt lat="53.484550" lon="-1.712539"><ele>390</ele><time>2022-04-08T10:53:01Z</time><name>PT1913</name></trkpt>
<trkpt lat="53.484542" lon="-1.712538"><ele>390</ele><time>2022-04-08T10:53:02Z</time><name>PT1914</name></trkpt>
<trkpt lat="53.484532" lon="-1.712539"><ele>390</ele><time>2022-04-08T10:53:03Z</time><name>PT1915</name></trkpt>
<trkpt lat="53.484522" lon="-1.712539"><ele>390</ele><time>2022-04-08T10:53:04Z</time><name>PT1916</name></trkpt>
<trkpt lat="53.484512" lon="-1.712541"><ele>390</ele><time>2022-04-08T10:53:05Z</time><name>PT1917</name></trkpt>
<trkpt lat="53.484503" lon="-1.712543"><ele>390</ele><time>2022-04-08T10:53:06Z</time><name>PT1918</name></trkpt>
<trkpt lat="53.484492" lon="-1.712546"><ele>390</ele><time>2022-04-08T10:53:07Z</time><name>PT1919</name></trkpt>
<trkpt lat="53.484482" lon="-1.712547"><ele>390</ele><time>2022-04-08T10:53:08Z</time><name>PT1920</name></trkpt>
<trkpt lat="53.484470" lon="-1.712551"><ele>390</ele><time>2022-04-08T10:53:09Z</time><name>PT1921</name></trkpt>
<trkpt lat="53.484459" lon="-1.712553"><ele>390</ele><time>2022-04-08T10:53:10Z</time><name>PT1922</name></trkpt>
<trkpt lat="53.484447" lon="-1.712556"><ele>390</ele><time>2022-04-08T10:53:11Z</time><name>PT1923</name></trkpt>
<trkpt lat="53.484434" lon="-1.712562"><ele>390</ele><time>2022-04-08T10:53:12Z</time><name>PT1924</name></trkpt>
<trkpt lat="53.484424" lon="-1.712565"><ele>391</ele><time>2022-04-08T10:53:13Z</time><name>PT1925</name></trkpt>
<trkpt lat="53.484413" lon="-1.712569"><ele>391</ele><time>2022-04-08T10:53:14Z</time><name>PT1926</name></trkpt>
<trkpt lat="53.484399" lon="-1.712570"><ele>391</ele><time>2022-04-08T10:53:15Z</time><name>PT1927</name></trkpt>
<trkpt lat="53.484386" lon="-1.712572"><ele>391</ele><time>2022-04-08T10:53:16Z</time><name>PT1928</name></trkpt>
<trkpt lat="53.484375" lon="-1.712577"><ele>391</ele><time>2022-04-08T10:53:17Z</time><name>PT1929</name></trkpt>
<trkpt lat="53.484364" lon="-1.712584"><ele>391</ele><time>2022-04-08T10:53:18Z</time><name>PT1930</name></trkpt>
<trkpt lat="53.484352" lon="-1.712588"><ele>391</ele><time>2022-04-08T10:53:19Z</time><name>PT1931</name></trkpt>
<trkpt lat="53.484341" lon="-1.712591"><ele>391</ele><time>2022-04-08T10:53:20Z</time><name>PT1932</name></trkpt>
<trkpt lat="53.484326" lon="-1.712593"><ele>392</ele><time>2022-04-08T10:53:21Z</time><name>PT1933</name></trkpt>
<trkpt lat="53.484314" lon="-1.712598"><ele>393</ele><time>2022-04-08T10:53:22Z</time><name>PT1934</name></trkpt>
<trkpt lat="53.484301" lon="-1.712603"><ele>393</ele><time>2022-04-08T10:53:23Z</time><name>PT1935</name></trkpt>
<trkpt lat="53.484289" lon="-1.712609"><ele>393</ele><time>2022-04-08T10:53:24Z</time><name>PT1936</name></trkpt>
<trkpt lat="53.484276" lon="-1.712616"><ele>393</ele><time>2022-04-08T10:53:25Z</time><name>PT1937</name></trkpt>
<trkpt lat="53.484266" lon="-1.712621"><ele>393</ele><time>2022-04-08T10:53:26Z</time><name>PT1938</name></trkpt>
<trkpt lat="53.484254" lon="-1.712624"><ele>394</ele><time>2022-04-08T10:53:27Z</time><name>PT1939</name></trkpt>
<trkpt lat="53.484240" lon="-1.712628"><ele>394</ele><time>2022-04-08T10:53:28Z</time><name>PT1940</name></trkpt>
<trkpt lat="53.484228" lon="-1.712634"><ele>394</ele><time>2022-04-08T10:53:29Z</time><name>PT1941</name></trkpt>
<trkpt lat="53.484219" lon="-1.712642"><ele>393</ele><time>2022-04-08T10:53:30Z</time><name>PT1942</name></trkpt>
<trkpt lat="53.484206" lon="-1.712651"><ele>393</ele><time>2022-04-08T10:53:31Z</time><name>PT1943</name></trkpt>
<trkpt lat="53.484196" lon="-1.712655"><ele>393</ele><time>2022-04-08T10:53:32Z</time><name>PT1944</name></trkpt>
<trkpt lat="53.484184" lon="-1.712658"><ele>394</ele><time>2022-04-08T10:53:33Z</time><name>PT1945</name></trkpt>
<trkpt lat="53.484170" lon="-1.712665"><ele>394</ele><time>2022-04-08T10:53:34Z</time><name>PT1946</name></trkpt>
<trkpt lat="53.484157" lon="-1.712671"><ele>394</ele><time>2022-04-08T10:53:35Z</time><name>PT1947</name></trkpt>
<trkpt lat="53.484147" lon="-1.712679"><ele>395</ele><time>2022-04-08T10:53:36Z</time><name>PT1948</name></trkpt>
<trkpt lat="53.484135" lon="-1.712687"><ele>394</ele><time>2022-04-08T10:53:37Z</time><name>PT1949</name></trkpt>
<trkpt lat="53.484126" lon="-1.712694"><ele>394</ele><time>2022-04-08T10:53:38Z</time><name>PT1950</name></trkpt>
<trkpt lat="53.484115" lon="-1.712698"><ele>394</ele><time>2022-04-08T10:53:39Z</time><name>PT1951</name></trkpt>
<trkpt lat="53.484104" lon="-1.712704"><ele>394</ele><time>2022-04-08T10:53:40Z</time><name>PT1952</name></trkpt>
<trkpt lat="53.484091" lon="-1.712711"><ele>395</ele><time>2022-04-08T10:53:41Z</time><name>PT1953</name></trkpt>
<trkpt lat="53.484080" lon="-1.712716"><ele>394</ele><time>2022-04-08T10:53:42Z</time><name>PT1954</name></trkpt>
<trkpt lat="53.484068" lon="-1.712723"><ele>394</ele><time>2022-04-08T10:53:43Z</time><name>PT1955</name></trkpt>
<trkpt lat="53.484057" lon="-1.712730"><ele>394</ele><time>2022-04-08T10:53:44Z</time><name>PT1956</name></trkpt>
<trkpt lat="53.484047" lon="-1.712733"><ele>393</ele><time>2022-04-08T10:53:45Z</time><name>PT1957</name></trkpt>
<trkpt lat="53.484037" lon="-1.712735"><ele>393</ele><time>2022-04-08T10:53:46Z</time><name>PT1958</name></trkpt>
<trkpt lat="53.484023" lon="-1.712738"><ele>393</ele><time>2022-04-08T10:53:47Z</time><name>PT1959</name></trkpt>
<trkpt lat="53.484011" lon="-1.712744"><ele>393</ele><time>2022-04-08T10:53:48Z</time><name>PT1960</name></trkpt>
<trkpt lat="53.484000" lon="-1.712750"><ele>393</ele><time>2022-04-08T10:53:49Z</time><name>PT1961</name></trkpt>
<trkpt lat="53.483988" lon="-1.712758"><ele>394</ele><time>2022-04-08T10:53:50Z</time><name>PT1962</name></trkpt>
<trkpt lat="53.483975" lon="-1.712763"><ele>394</ele><time>2022-04-08T10:53:51Z</time><name>PT1963</name></trkpt>
<trkpt lat="53.483962" lon="-1.712768"><ele>394</ele><time>2022-04-08T10:53:52Z</time><name>PT1964</name></trkpt>
<trkpt lat="53.483950" lon="-1.712772"><ele>394</ele><time>2022-04-08T10:53:53Z</time><name>PT1965</name></trkpt>
<trkpt lat="53.483939" lon="-1.712777"><ele>395</ele><time>2022-04-08T10:53:54Z</time><name>PT1966</name></trkpt>
<trkpt lat="53.483929" lon="-1.712783"><ele>395</ele><time>2022-04-08T10:53:55Z</time><name>PT1967</name></trkpt>
<trkpt lat="53.483917" lon="-1.712789"><ele>395</ele><time>2022-04-08T10:53:56Z</time><name>PT1968</name></trkpt>
<trkpt lat="53.483908" lon="-1.712794"><ele>396</ele><time>2022-04-08T10:53:57Z</time><name>PT1969</name></trkpt>
<trkpt lat="53.483896" lon="-1.712799"><ele>396</ele><time>2022-04-08T10:53:58Z</time><name>PT1970</name></trkpt>
<trkpt lat="53.483851" lon="-1.712835"><ele>397</ele><time>2022-04-08T10:54:02Z</time><name>PT1971</name></trkpt>
<trkpt lat="53.483806" lon="-1.712859"><ele>398</ele><time>2022-04-08T10:54:06Z</time><name>PT1972</name></trkpt>
<trkpt lat="53.483763" lon="-1.712883"><ele>397</ele><time>2022-04-08T10:54:10Z</time><name>PT1973</name></trkpt>
<trkpt lat="53.483719" lon="-1.712918"><ele>398</ele><time>2022-04-08T10:54:14Z</time><name>PT1974</name></trkpt>
<trkpt lat="53.483685" lon="-1.712950"><ele>397</ele><time>2022-04-08T10:54:18Z</time><name>PT1975</name></trkpt>
<trkpt lat="53.483646" lon="-1.712983"><ele>398</ele><time>2022-04-08T10:54:22Z</time><name>PT1976</name></trkpt>
<trkpt lat="53.483604" lon="-1.712996"><ele>398</ele><time>2022-04-08T10:54:26Z</time><name>PT1977</name></trkpt>
<trkpt lat="53.483564" lon="-1.713008"><ele>399</ele><time>2022-04-08T10:54:30Z</time><name>PT1978</name></trkpt>
<trkpt lat="53.483520" lon="-1.713035"><ele>399</ele><time>2022-04-08T10:54:34Z</time><name>PT1979</name></trkpt>
<trkpt lat="53.483480" lon="-1.713046"><ele>398</ele><time>2022-04-08T10:54:38Z</time><name>PT1980</name></trkpt>
<trkpt lat="53.483442" lon="-1.713046"><ele>398</ele><time>2022-04-08T10:54:42Z</time><name>PT1981</name></trkpt>
<trkpt lat="53.483401" lon="-1.713063"><ele>398</ele><time>2022-04-08T10:54:46Z</time><name>PT1982</name></trkpt>
<trkpt lat="53.483355" lon="-1.713067"><ele>398</ele><time>2022-04-08T10:54:50Z</time><name>PT1983</name></trkpt>
<trkpt lat="53.483307" lon="-1.713075"><ele>399</ele><time>2022-04-08T10:54:54Z</time><name>PT1984</name></trkpt>
<trkpt lat="53.483270" lon="-1.713085"><ele>400</ele><time>2022-04-08T10:54:58Z</time><name>PT1985</name></trkpt>
<trkpt lat="53.483226" lon="-1.713097"><ele>400</ele><time>2022-04-08T10:55:02Z</time><name>PT1986</name></trkpt>
<trkpt lat="53.483186" lon="-1.713100"><ele>400</ele><time>2022-04-08T10:55:06Z</time><name>PT1987</name></trkpt>
<trkpt lat="53.483144" lon="-1.713104"><ele>401</ele><time>2022-04-08T10:55:10Z</time><name>PT1988</name></trkpt>
<trkpt lat="53.483104" lon="-1.713119"><ele>400</ele><time>2022-04-08T10:55:14Z</time><name>PT1989</name></trkpt>
<trkpt lat="53.483057" lon="-1.713126"><ele>398</ele><time>2022-04-08T10:55:18Z</time><name>PT1990</name></trkpt>
<trkpt lat="53.483013" lon="-1.713135"><ele>399</ele><time>2022-04-08T10:55:22Z</time><name>PT1991</name></trkpt>
<trkpt lat="53.482972" lon="-1.713140"><ele>400</ele><time>2022-04-08T10:55:26Z</time><name>PT1992</name></trkpt>
<trkpt lat="53.482930" lon="-1.713145"><ele>401</ele><time>2022-04-08T10:55:30Z</time><name>PT1993</name></trkpt>
<trkpt lat="53.482886" lon="-1.713145"><ele>402</ele><time>2022-04-08T10:55:34Z</time><name>PT1994</name></trkpt>
<trkpt lat="53.482841" lon="-1.713143"><ele>402</ele><time>2022-04-08T10:55:38Z</time><name>PT1995</name></trkpt>
<trkpt lat="53.482799" lon="-1.713140"><ele>403</ele><time>2022-04-08T10:55:42Z</time><name>PT1996</name></trkpt>
<trkpt lat="53.482760" lon="-1.713137"><ele>403</ele><time>2022-04-08T10:55:46Z</time><name>PT1997</name></trkpt>
<trkpt lat="53.482715" lon="-1.713129"><ele>403</ele><time>2022-04-08T10:55:50Z</time><name>PT1998</name></trkpt>
<trkpt lat="53.482673" lon="-1.713134"><ele>403</ele><time>2022-04-08T10:55:54Z</time><name>PT1999</name></trkpt>
<trkpt lat="53.482628" lon="-1.713128"><ele>404</ele><time>2022-04-08T10:55:58Z</time><name>PT2000</name></trkpt>
<trkpt lat="53.482581" lon="-1.713128"><ele>406</ele><time>2022-04-08T10:56:02Z</time><name>PT2001</name></trkpt>
<trkpt lat="53.482536" lon="-1.713129"><ele>406</ele><time>2022-04-08T10:56:06Z</time><name>PT2002</name></trkpt>
<trkpt lat="53.482498" lon="-1.713122"><ele>407</ele><time>2022-04-08T10:56:10Z</time><name>PT2003</name></trkpt>
<trkpt lat="53.482453" lon="-1.713120"><ele>409</ele><time>2022-04-08T10:56:14Z</time><name>PT2004</name></trkpt>
<trkpt lat="53.482416" lon="-1.713105"><ele>408</ele><time>2022-04-08T10:56:18Z</time><name>PT2005</name></trkpt>
<trkpt lat="53.482378" lon="-1.713092"><ele>411</ele><time>2022-04-08T10:56:22Z</time><name>PT2006</name></trkpt>
<trkpt lat="53.482347" lon="-1.713085"><ele>412</ele><time>2022-04-08T10:56:26Z</time><name>PT2007</name></trkpt>
<trkpt lat="53.482306" lon="-1.713072"><ele>413</ele><time>2022-04-08T10:56:30Z</time><name>PT2008</name></trkpt>
<trkpt lat="53.482269" lon="-1.713036"><ele>415</ele><time>2022-04-08T10:56:34Z</time><name>PT2009</name></trkpt>
<trkpt lat="53.482238" lon="-1.713016"><ele>417</ele><time>2022-04-08T10:56:38Z</time><name>PT2010</name></trkpt>
<trkpt lat="53.482205" lon="-1.713000"><ele>417</ele><time>2022-04-08T10:56:42Z</time><name>PT2011</name></trkpt>
<trkpt lat="53.482187" lon="-1.712992"><ele>418</ele><time>2022-04-08T10:56:44Z</time><name>PT2012</name></trkpt>
<trkpt lat="53.482181" lon="-1.712985"><ele>418</ele><time>2022-04-08T10:56:45Z</time><name>PT2013</name></trkpt>
<trkpt lat="53.482172" lon="-1.712980"><ele>418</ele><time>2022-04-08T10:56:47Z</time><name>PT2014</name></trkpt>
<trkpt lat="53.482163" lon="-1.712980"><ele>417</ele><time>2022-04-08T10:56:47Z</time><name>PT2015</name></trkpt>
<trkpt lat="53.482153" lon="-1.712979"><ele>417</ele><time>2022-04-08T10:56:49Z</time><name>PT2016</name></trkpt>
<trkpt lat="53.482143" lon="-1.712972"><ele>418</ele><time>2022-04-08T10:56:49Z</time><name>PT2017</name></trkpt>
<trkpt lat="53.482130" lon="-1.712967"><ele>418</ele><time>2022-04-08T10:56:50Z</time><name>PT2018</name></trkpt>
<trkpt lat="53.482118" lon="-1.712962"><ele>417</ele><time>2022-04-08T10:56:51Z</time><name>PT2019</name></trkpt>
<trkpt lat="53.482107" lon="-1.712958"><ele>417</ele><time>2022-04-08T10:56:52Z</time><name>PT2020</name></trkpt>
<trkpt lat="53.482099" lon="-1.712953"><ele>417</ele><time>2022-04-08T10:56:53Z</time><name>PT2021</name></trkpt>
<trkpt lat="53.482088" lon="-1.712949"><ele>417</ele><time>2022-04-08T10:56:54Z</time><name>PT2022</name></trkpt>
<trkpt lat="53.482080" lon="-1.712945"><ele>417</ele><time>2022-04-08T10:56:55Z</time><name>PT2023</name></trkpt>
<trkpt lat="53.482073" lon="-1.712942"><ele>417</ele><time>2022-04-08T10:56:56Z</time><name>PT2024</name></trkpt>
<trkpt lat="53.482065" lon="-1.712935"><ele>417</ele><time>2022-04-08T10:56:57Z</time><name>PT2025</name></trkpt>
<trkpt lat="53.482057" lon="-1.712929"><ele>417</ele><time>2022-04-08T10:56:58Z</time><name>PT2026</name></trkpt>
<trkpt lat="53.482043" lon="-1.712920"><ele>417</ele><time>2022-04-08T10:56:59Z</time><name>PT2027</name></trkpt>
<trkpt lat="53.482031" lon="-1.712915"><ele>417</ele><time>2022-04-08T10:57:00Z</time><name>PT2028</name></trkpt>
<trkpt lat="53.482021" lon="-1.712911"><ele>417</ele><time>2022-04-08T10:57:01Z</time><name>PT2029</name></trkpt>
<trkpt lat="53.482008" lon="-1.712909"><ele>417</ele><time>2022-04-08T10:57:02Z</time><name>PT2030</name></trkpt>
<trkpt lat="53.481995" lon="-1.712903"><ele>418</ele><time>2022-04-08T10:57:03Z</time><name>PT2031</name></trkpt>
<trkpt lat="53.481983" lon="-1.712896"><ele>418</ele><time>2022-04-08T10:57:04Z</time><name>PT2032</name></trkpt>
<trkpt lat="53.481971" lon="-1.712893"><ele>418</ele><time>2022-04-08T10:57:05Z</time><name>PT2033</name></trkpt>
<trkpt lat="53.481960" lon="-1.712891"><ele>418</ele><time>2022-04-08T10:57:06Z</time><name>PT2034</name></trkpt>
<trkpt lat="53.481947" lon="-1.712889"><ele>418</ele><time>2022-04-08T10:57:07Z</time><name>PT2035</name></trkpt>
<trkpt lat="53.481938" lon="-1.712887"><ele>418</ele><time>2022-04-08T10:57:08Z</time><name>PT2036</name></trkpt>
<trkpt lat="53.481927" lon="-1.712881"><ele>418</ele><time>2022-04-08T10:57:09Z</time><name>PT2037</name></trkpt>
<trkpt lat="53.481912" lon="-1.712873"><ele>419</ele><time>2022-04-08T10:57:10Z</time><name>PT2038</name></trkpt>
<trkpt lat="53.481900" lon="-1.712869"><ele>419</ele><time>2022-04-08T10:57:11Z</time><name>PT2039</name></trkpt>
<trkpt lat="53.481887" lon="-1.712868"><ele>419</ele><time>2022-04-08T10:57:12Z</time><name>PT2040</name></trkpt>
<trkpt lat="53.481874" lon="-1.712867"><ele>419</ele><time>2022-04-08T10:57:13Z</time><name>PT2041</name></trkpt>
<trkpt lat="53.481864" lon="-1.712868"><ele>419</ele><time>2022-04-08T10:57:14Z</time><name>PT2042</name></trkpt>
<trkpt lat="53.481854" lon="-1.712867"><ele>419</ele><time>2022-04-08T10:57:15Z</time><name>PT2043</name></trkpt>
<trkpt lat="53.481843" lon="-1.712864"><ele>419</ele><time>2022-04-08T10:57:16Z</time><name>PT2044</name></trkpt>
<trkpt lat="53.481830" lon="-1.712862"><ele>418</ele><time>2022-04-08T10:57:17Z</time><name>PT2045</name></trkpt>
<trkpt lat="53.481816" lon="-1.712860"><ele>417</ele><time>2022-04-08T10:57:18Z</time><name>PT2046</name></trkpt>
<trkpt lat="53.481804" lon="-1.712861"><ele>417</ele><time>2022-04-08T10:57:19Z</time><name>PT2047</name></trkpt>
<trkpt lat="53.481791" lon="-1.712861"><ele>417</ele><time>2022-04-08T10:57:20Z</time><name>PT2048</name></trkpt>
<trkpt lat="53.481779" lon="-1.712859"><ele>417</ele><time>2022-04-08T10:57:21Z</time><name>PT2049</name></trkpt>
<trkpt lat="53.481764" lon="-1.712855"><ele>417</ele><time>2022-04-08T10:57:22Z</time><name>PT2050</name></trkpt>
<trkpt lat="53.481746" lon="-1.712846"><ele>416</ele><time>2022-04-08T10:57:23Z</time><name>PT2051</name></trkpt>
<trkpt lat="53.481736" lon="-1.712846"><ele>416</ele><time>2022-04-08T10:57:24Z</time><name>PT2052</name></trkpt>
<trkpt lat="53.481726" lon="-1.712844"><ele>416</ele><time>2022-04-08T10:57:25Z</time><name>PT2053</name></trkpt>
<trkpt lat="53.481713" lon="-1.712841"><ele>416</ele><time>2022-04-08T10:57:26Z</time><name>PT2054</name></trkpt>
<trkpt lat="53.481702" lon="-1.712837"><ele>416</ele><time>2022-04-08T10:57:27Z</time><name>PT2055</name></trkpt>
<trkpt lat="53.481692" lon="-1.712832"><ele>416</ele><time>2022-04-08T10:57:28Z</time><name>PT2056</name></trkpt>
<trkpt lat="53.481678" lon="-1.712825"><ele>416</ele><time>2022-04-08T10:57:29Z</time><name>PT2057</name></trkpt>
<trkpt lat="53.481666" lon="-1.712821"><ele>416</ele><time>2022-04-08T10:57:30Z</time><name>PT2058</name></trkpt>
<trkpt lat="53.481654" lon="-1.712818"><ele>416</ele><time>2022-04-08T10:57:31Z</time><name>PT2059</name></trkpt>
<trkpt lat="53.481642" lon="-1.712813"><ele>416</ele><time>2022-04-08T10:57:32Z</time><name>PT2060</name></trkpt>
<trkpt lat="53.481631" lon="-1.712806"><ele>417</ele><time>2022-04-08T10:57:33Z</time><name>PT2061</name></trkpt>
<trkpt lat="53.481619" lon="-1.712799"><ele>417</ele><time>2022-04-08T10:57:34Z</time><name>PT2062</name></trkpt>
<trkpt lat="53.481607" lon="-1.712792"><ele>417</ele><time>2022-04-08T10:57:35Z</time><name>PT2063</name></trkpt>
<trkpt lat="53.481595" lon="-1.712789"><ele>417</ele><time>2022-04-08T10:57:36Z</time><name>PT2064</name></trkpt>
<trkpt lat="53.481585" lon="-1.712789"><ele>417</ele><time>2022-04-08T10:57:37Z</time><name>PT2065</name></trkpt>
<trkpt lat="53.481573" lon="-1.712788"><ele>417</ele><time>2022-04-08T10:57:38Z</time><name>PT2066</name></trkpt>
<trkpt lat="53.481565" lon="-1.712789"><ele>417</ele><time>2022-04-08T10:57:39Z</time><name>PT2067</name></trkpt>
<trkpt lat="53.481552" lon="-1.712794"><ele>417</ele><time>2022-04-08T10:57:40Z</time><name>PT2068</name></trkpt>
<trkpt lat="53.481542" lon="-1.712797"><ele>418</ele><time>2022-04-08T10:57:41Z</time><name>PT2069</name></trkpt>
<trkpt lat="53.481531" lon="-1.712793"><ele>418</ele><time>2022-04-08T10:57:42Z</time><name>PT2070</name></trkpt>
<trkpt lat="53.481521" lon="-1.712790"><ele>418</ele><time>2022-04-08T10:57:43Z</time><name>PT2071</name></trkpt>
<trkpt lat="53.481510" lon="-1.712784"><ele>418</ele><time>2022-04-08T10:57:44Z</time><name>PT2072</name></trkpt>
<trkpt lat="53.481494" lon="-1.712775"><ele>418</ele><time>2022-04-08T10:57:45Z</time><name>PT2073</name></trkpt>
<trkpt lat="53.481482" lon="-1.712771"><ele>418</ele><time>2022-04-08T10:57:46Z</time><name>PT2074</name></trkpt>
<trkpt lat="53.481469" lon="-1.712770"><ele>418</ele><time>2022-04-08T10:57:47Z</time><name>PT2075</name></trkpt>
<trkpt lat="53.481456" lon="-1.712773"><ele>418</ele><time>2022-04-08T10:57:48Z</time><name>PT2076</name></trkpt>
<trkpt lat="53.481446" lon="-1.712774"><ele>418</ele><time>2022-04-08T10:57:49Z</time><name>PT2077</name></trkpt>
<trkpt lat="53.481436" lon="-1.712770"><ele>418</ele><time>2022-04-08T10:57:50Z</time><name>PT2078</name></trkpt>
<trkpt lat="53.481422" lon="-1.712762"><ele>418</ele><time>2022-04-08T10:57:51Z</time><name>PT2079</name></trkpt>
<trkpt lat="53.481410" lon="-1.712761"><ele>418</ele><time>2022-04-08T10:57:52Z</time><name>PT2080</name></trkpt>
<trkpt lat="53.481399" lon="-1.712761"><ele>418</ele><time>2022-04-08T10:57:53Z</time><name>PT2081</name></trkpt>
<trkpt lat="53.481388" lon="-1.712759"><ele>418</ele><time>2022-04-08T10:57:54Z</time><name>PT2082</name></trkpt>
<trkpt lat="53.481377" lon="-1.712757"><ele>418</ele><time>2022-04-08T10:57:55Z</time><name>PT2083</name></trkpt>
<trkpt lat="53.481367" lon="-1.712754"><ele>418</ele><time>2022-04-08T10:57:56Z</time><name>PT2084</name></trkpt>
<trkpt lat="53.481353" lon="-1.712749"><ele>418</ele><time>2022-04-08T10:57:57Z</time><name>PT2085</name></trkpt>
<trkpt lat="53.481340" lon="-1.712748"><ele>417</ele><time>2022-04-08T10:57:58Z</time><name>PT2086</name></trkpt>
<trkpt lat="53.481330" lon="-1.712747"><ele>417</ele><time>2022-04-08T10:57:59Z</time><name>PT2087</name></trkpt>
<trkpt lat="53.481319" lon="-1.712747"><ele>417</ele><time>2022-04-08T10:58:00Z</time><name>PT2088</name></trkpt>
<trkpt lat="53.481310" lon="-1.712744"><ele>417</ele><time>2022-04-08T10:58:01Z</time><name>PT2089</name></trkpt>
<trkpt lat="53.481301" lon="-1.712741"><ele>418</ele><time>2022-04-08T10:58:02Z</time><name>PT2090</name></trkpt>
<trkpt lat="53.481292" lon="-1.712735"><ele>418</ele><time>2022-04-08T10:58:03Z</time><name>PT2091</name></trkpt>
<trkpt lat="53.481279" lon="-1.712727"><ele>418</ele><time>2022-04-08T10:58:04Z</time><name>PT2092</name></trkpt>
<trkpt lat="53.481267" lon="-1.712726"><ele>417</ele><time>2022-04-08T10:58:05Z</time><name>PT2093</name></trkpt>
<trkpt lat="53.481257" lon="-1.712726"><ele>418</ele><time>2022-04-08T10:58:06Z</time><name>PT2094</name></trkpt>
<trkpt lat="53.481247" lon="-1.712725"><ele>418</ele><time>2022-04-08T10:58:07Z</time><name>PT2095</name></trkpt>
<trkpt lat="53.481235" lon="-1.712722"><ele>418</ele><time>2022-04-08T10:58:08Z</time><name>PT2096</name></trkpt>
<trkpt lat="53.481228" lon="-1.712715"><ele>418</ele><time>2022-04-08T10:58:09Z</time><name>PT2097</name></trkpt>
<trkpt lat="53.481216" lon="-1.712704"><ele>417</ele><time>2022-04-08T10:58:10Z</time><name>PT2098</name></trkpt>
<trkpt lat="53.481207" lon="-1.712701"><ele>418</ele><time>2022-04-08T10:58:11Z</time><name>PT2099</name></trkpt>
<trkpt lat="53.481198" lon="-1.712699"><ele>418</ele><time>2022-04-08T10:58:12Z</time><name>PT2100</name></trkpt>
<trkpt lat="53.481189" lon="-1.712697"><ele>418</ele><time>2022-04-08T10:58:13Z</time><name>PT2101</name></trkpt>
<trkpt lat="53.481177" lon="-1.712692"><ele>418</ele><time>2022-04-08T10:58:14Z</time><name>PT2102</name></trkpt>
<trkpt lat="53.481167" lon="-1.712688"><ele>418</ele><time>2022-04-08T10:58:15Z</time><name>PT2103</name></trkpt>
<trkpt lat="53.481158" lon="-1.712687"><ele>418</ele><time>2022-04-08T10:58:16Z</time><name>PT2104</name></trkpt>
<trkpt lat="53.481147" lon="-1.712685"><ele>418</ele><time>2022-04-08T10:58:17Z</time><name>PT2105</name></trkpt>
<trkpt lat="53.481135" lon="-1.712682"><ele>418</ele><time>2022-04-08T10:58:18Z</time><name>PT2106</name></trkpt>
<trkpt lat="53.481122" lon="-1.712680"><ele>419</ele><time>2022-04-08T10:58:19Z</time><name>PT2107</name></trkpt>
<trkpt lat="53.481109" lon="-1.712676"><ele>419</ele><time>2022-04-08T10:58:20Z</time><name>PT2108</name></trkpt>
<trkpt lat="53.481096" lon="-1.712669"><ele>419</ele><time>2022-04-08T10:58:21Z</time><name>PT2109</name></trkpt>
<trkpt lat="53.481084" lon="-1.712661"><ele>418</ele><time>2022-04-08T10:58:22Z</time><name>PT2110</name></trkpt>
<trkpt lat="53.481074" lon="-1.712658"><ele>419</ele><time>2022-04-08T10:58:23Z</time><name>PT2111</name></trkpt>
<trkpt lat="53.481063" lon="-1.712656"><ele>419</ele><time>2022-04-08T10:58:24Z</time><name>PT2112</name></trkpt>
<trkpt lat="53.481053" lon="-1.712656"><ele>419</ele><time>2022-04-08T10:58:25Z</time><name>PT2113</name></trkpt>
<trkpt lat="53.481042" lon="-1.712655"><ele>419</ele><time>2022-04-08T10:58:26Z</time><name>PT2114</name></trkpt>
<trkpt lat="53.481025" lon="-1.712649"><ele>418</ele><time>2022-04-08T10:58:27Z</time><name>PT2115</name></trkpt>
<trkpt lat="53.481012" lon="-1.712645"><ele>418</ele><time>2022-04-08T10:58:28Z</time><name>PT2116</name></trkpt>
<trkpt lat="53.481001" lon="-1.712642"><ele>418</ele><time>2022-04-08T10:58:29Z</time><name>PT2117</name></trkpt>
<trkpt lat="53.480987" lon="-1.712638"><ele>418</ele><time>2022-04-08T10:58:30Z</time><name>PT2118</name></trkpt>
<trkpt lat="53.480977" lon="-1.712635"><ele>418</ele><time>2022-04-08T10:58:31Z</time><name>PT2119</name></trkpt>
<trkpt lat="53.480966" lon="-1.712635"><ele>418</ele><time>2022-04-08T10:58:32Z</time><name>PT2120</name></trkpt>
<trkpt lat="53.480955" lon="-1.712632"><ele>418</ele><time>2022-04-08T10:58:33Z</time><name>PT2121</name></trkpt>
<trkpt lat="53.480942" lon="-1.712626"><ele>418</ele><time>2022-04-08T10:58:34Z</time><name>PT2122</name></trkpt>
<trkpt lat="53.480931" lon="-1.712622"><ele>418</ele><time>2022-04-08T10:58:35Z</time><name>PT2123</name></trkpt>
<trkpt lat="53.480922" lon="-1.712624"><ele>418</ele><time>2022-04-08T10:58:36Z</time><name>PT2124</name></trkpt>
<trkpt lat="53.480909" lon="-1.712625"><ele>418</ele><time>2022-04-08T10:58:37Z</time><name>PT2125</name></trkpt>
<trkpt lat="53.480898" lon="-1.712622"><ele>418</ele><time>2022-04-08T10:58:38Z</time><name>PT2126</name></trkpt>
<trkpt lat="53.480884" lon="-1.712620"><ele>418</ele><time>2022-04-08T10:58:39Z</time><name>PT2127</name></trkpt>
<trkpt lat="53.480872" lon="-1.712616"><ele>418</ele><time>2022-04-08T10:58:40Z</time><name>PT2128</name></trkpt>
<trkpt lat="53.480862" lon="-1.712614"><ele>418</ele><time>2022-04-08T10:58:41Z</time><name>PT2129</name></trkpt>
<trkpt lat="53.480850" lon="-1.712612"><ele>419</ele><time>2022-04-08T10:58:42Z</time><name>PT2130</name></trkpt>
<trkpt lat="53.480840" lon="-1.712611"><ele>419</ele><time>2022-04-08T10:58:43Z</time><name>PT2131</name></trkpt>
<trkpt lat="53.480818" lon="-1.712601"><ele>419</ele><time>2022-04-08T10:58:46Z</time><name>PT2132</name></trkpt>
<trkpt lat="53.480776" lon="-1.712585"><ele>419</ele><time>2022-04-08T10:58:50Z</time><name>PT2133</name></trkpt>
<trkpt lat="53.480738" lon="-1.712559"><ele>420</ele><time>2022-04-08T10:58:54Z</time><name>PT2134</name></trkpt>
<trkpt lat="53.480699" lon="-1.712539"><ele>421</ele><time>2022-04-08T10:58:58Z</time><name>PT2135</name></trkpt>
<trkpt lat="53.480656" lon="-1.712522"><ele>422</ele><time>2022-04-08T10:59:02Z</time><name>PT2136</name></trkpt>
<trkpt lat="53.480617" lon="-1.712497"><ele>422</ele><time>2022-04-08T10:59:06Z</time><name>PT2137</name></trkpt>
<trkpt lat="53.480579" lon="-1.712467"><ele>422</ele><time>2022-04-08T10:59:10Z</time><name>PT2138</name></trkpt>
<trkpt lat="53.480545" lon="-1.712446"><ele>423</ele><time>2022-04-08T10:59:14Z</time><name>PT2139</name></trkpt>
<trkpt lat="53.480507" lon="-1.712417"><ele>423</ele><time>2022-04-08T10:59:18Z</time><name>PT2140</name></trkpt>
<trkpt lat="53.480470" lon="-1.712392"><ele>424</ele><time>2022-04-08T10:59:22Z</time><name>PT2141</name></trkpt>
<trkpt lat="53.480434" lon="-1.712364"><ele>425</ele><time>2022-04-08T10:59:26Z</time><name>PT2142</name></trkpt>
<trkpt lat="53.480400" lon="-1.712329"><ele>426</ele><time>2022-04-08T10:59:30Z</time><name>PT2143</name></trkpt>
<trkpt lat="53.480376" lon="-1.712290"><ele>427</ele><time>2022-04-08T10:59:34Z</time><name>PT2144</name></trkpt>
<trkpt lat="53.480354" lon="-1.712259"><ele>428</ele><time>2022-04-08T10:59:39Z</time><name>PT2145</name></trkpt>
<trkpt lat="53.480318" lon="-1.712232"><ele>430</ele><time>2022-04-08T10:59:42Z</time><name>PT2146</name></trkpt>
<trkpt lat="53.480282" lon="-1.712193"><ele>432</ele><time>2022-04-08T10:59:46Z</time><name>PT2147</name></trkpt>
<trkpt lat="53.480239" lon="-1.712159"><ele>433</ele><time>2022-04-08T10:59:50Z</time><name>PT2148</name></trkpt>
<trkpt lat="53.480206" lon="-1.712126"><ele>434</ele><time>2022-04-08T10:59:54Z</time><name>PT2149</name></trkpt>
<trkpt lat="53.480166" lon="-1.712095"><ele>434</ele><time>2022-04-08T10:59:58Z</time><name>PT2150</name></trkpt>
<trkpt lat="53.480127" lon="-1.712065"><ele>437</ele><time>2022-04-08T11:00:02Z</time><name>PT2151</name></trkpt>
<trkpt lat="53.480087" lon="-1.712030"><ele>437</ele><time>2022-04-08T11:00:06Z</time><name>PT2152</name></trkpt>
<trkpt lat="53.480051" lon="-1.712001"><ele>436</ele><time>2022-04-08T11:00:10Z</time><name>PT2153</name></trkpt>
<trkpt lat="53.480011" lon="-1.711972"><ele>437</ele><time>2022-04-08T11:00:14Z</time><name>PT2154</name></trkpt>
<trkpt lat="53.479966" lon="-1.711960"><ele>438</ele><time>2022-04-08T11:00:18Z</time><name>PT2155</name></trkpt>
<trkpt lat="53.479929" lon="-1.711938"><ele>437</ele><time>2022-04-08T11:00:22Z</time><name>PT2156</name></trkpt>
<trkpt lat="53.479888" lon="-1.711912"><ele>437</ele><time>2022-04-08T11:00:26Z</time><name>PT2157</name></trkpt>
<trkpt lat="53.479847" lon="-1.711887"><ele>436</ele><time>2022-04-08T11:00:30Z</time><name>PT2158</name></trkpt>
<trkpt lat="53.479808" lon="-1.711859"><ele>436</ele><time>2022-04-08T11:00:34Z</time><name>PT2159</name></trkpt>
<trkpt lat="53.479770" lon="-1.711827"><ele>436</ele><time>2022-04-08T11:00:38Z</time><name>PT2160</name></trkpt>
<trkpt lat="53.479725" lon="-1.711797"><ele>436</ele><time>2022-04-08T11:00:42Z</time><name>PT2161</name></trkpt>
<trkpt lat="53.479685" lon="-1.711765"><ele>437</ele><time>2022-04-08T11:00:46Z</time><name>PT2162</name></trkpt>
<trkpt lat="53.479643" lon="-1.711730"><ele>438</ele><time>2022-04-08T11:00:50Z</time><name>PT2163</name></trkpt>
<trkpt lat="53.479607" lon="-1.711706"><ele>439</ele><time>2022-04-08T11:00:54Z</time><name>PT2164</name></trkpt>
<trkpt lat="53.479564" lon="-1.711683"><ele>439</ele><time>2022-04-08T11:00:58Z</time><name>PT2165</name></trkpt>
<trkpt lat="53.479536" lon="-1.711660"><ele>439</ele><time>2022-04-08T11:01:01Z</time><name>PT2166</name></trkpt>
<trkpt lat="53.479500" lon="-1.711627"><ele>440</ele><time>2022-04-08T11:01:05Z</time><name>PT2167</name></trkpt>
<trkpt lat="53.479458" lon="-1.711594"><ele>440</ele><time>2022-04-08T11:01:09Z</time><name>PT2168</name></trkpt>
<trkpt lat="53.479413" lon="-1.711562"><ele>440</ele><time>2022-04-08T11:01:13Z</time><name>PT2169</name></trkpt>
<trkpt lat="53.479371" lon="-1.711541"><ele>441</ele><time>2022-04-08T11:01:17Z</time><name>PT2170</name></trkpt>
<trkpt lat="53.479327" lon="-1.711511"><ele>441</ele><time>2022-04-08T11:01:21Z</time><name>PT2171</name></trkpt>
<trkpt lat="53.479286" lon="-1.711490"><ele>441</ele><time>2022-04-08T11:01:25Z</time><name>PT2172</name></trkpt>
<trkpt lat="53.479245" lon="-1.711461"><ele>442</ele><time>2022-04-08T11:01:29Z</time><name>PT2173</name></trkpt>
<trkpt lat="53.479196" lon="-1.711441"><ele>443</ele><time>2022-04-08T11:01:33Z</time><name>PT2174</name></trkpt>
<trkpt lat="53.479153" lon="-1.711421"><ele>442</ele><time>2022-04-08T11:01:37Z</time><name>PT2175</name></trkpt>
<trkpt lat="53.479109" lon="-1.711393"><ele>443</ele><time>2022-04-08T11:01:41Z</time><name>PT2176</name></trkpt>
<trkpt lat="53.479070" lon="-1.711360"><ele>443</ele><time>2022-04-08T11:01:45Z</time><name>PT2177</name></trkpt>
<trkpt lat="53.479023" lon="-1.711328"><ele>444</ele><time>2022-04-08T11:01:49Z</time><name>PT2178</name></trkpt>
<trkpt lat="53.478979" lon="-1.711296"><ele>445</ele><time>2022-04-08T11:01:53Z</time><name>PT2179</name></trkpt>
<trkpt lat="53.478938" lon="-1.711262"><ele>445</ele><time>2022-04-08T11:01:57Z</time><name>PT2180</name></trkpt>
<trkpt lat="53.478898" lon="-1.711232"><ele>446</ele><time>2022-04-08T11:02:01Z</time><name>PT2181</name></trkpt>
<trkpt lat="53.478852" lon="-1.711211"><ele>446</ele><time>2022-04-08T11:02:05Z</time><name>PT2182</name></trkpt>
<trkpt lat="53.478804" lon="-1.711194"><ele>446</ele><time>2022-04-08T11:02:09Z</time><name>PT2183</name></trkpt>
<trkpt lat="53.478755" lon="-1.711178"><ele>446</ele><time>2022-04-08T11:02:13Z</time><name>PT2184</name></trkpt>
<trkpt lat="53.478711" lon="-1.711163"><ele>445</ele><time>2022-04-08T11:02:17Z</time><name>PT2185</name></trkpt>
<trkpt lat="53.478660" lon="-1.711145"><ele>445</ele><time>2022-04-08T11:02:21Z</time><name>PT2186</name></trkpt>
<trkpt lat="53.478611" lon="-1.711130"><ele>446</ele><time>2022-04-08T11:02:25Z</time><name>PT2187</name></trkpt>
<trkpt lat="53.478564" lon="-1.711106"><ele>446</ele><time>2022-04-08T11:02:29Z</time><name>PT2188</name></trkpt>
<trkpt lat="53.478523" lon="-1.711064"><ele>447</ele><time>2022-04-08T11:02:33Z</time><name>PT2189</name></trkpt>
<trkpt lat="53.478484" lon="-1.711027"><ele>448</ele><time>2022-04-08T11:02:37Z</time><name>PT2190</name></trkpt>
<trkpt lat="53.478447" lon="-1.711005"><ele>449</ele><time>2022-04-08T11:02:40Z</time><name>PT2191</name></trkpt>
<trkpt lat="53.478402" lon="-1.710982"><ele>449</ele><time>2022-04-08T11:02:44Z</time><name>PT2192</name></trkpt>
<trkpt lat="53.478364" lon="-1.710980"><ele>448</ele><time>2022-04-08T11:02:48Z</time><name>PT2193</name></trkpt>
<trkpt lat="53.478329" lon="-1.710950"><ele>449</ele><time>2022-04-08T11:02:52Z</time><name>PT2194</name></trkpt>
<trkpt lat="53.478281" lon="-1.710944"><ele>448</ele><time>2022-04-08T11:02:56Z</time><name>PT2195</name></trkpt>
<trkpt lat="53.478234" lon="-1.710931"><ele>447</ele><time>2022-04-08T11:03:00Z</time><name>PT2196</name></trkpt>
<trkpt lat="53.478186" lon="-1.710919"><ele>447</ele><time>2022-04-08T11:03:04Z</time><name>PT2197</name></trkpt>
<trkpt lat="53.478148" lon="-1.710891"><ele>446</ele><time>2022-04-08T11:03:08Z</time><name>PT2198</name></trkpt>
<trkpt lat="53.478096" lon="-1.710876"><ele>446</ele><time>2022-04-08T11:03:12Z</time><name>PT2199</name></trkpt>
<trkpt lat="53.478044" lon="-1.710877"><ele>445</ele><time>2022-04-08T11:03:16Z</time><name>PT2200</name></trkpt>
<trkpt lat="53.477995" lon="-1.710884"><ele>444</ele><time>2022-04-08T11:03:20Z</time><name>PT2201</name></trkpt>
<trkpt lat="53.477941" lon="-1.710874"><ele>444</ele><time>2022-04-08T11:03:24Z</time><name>PT2202</name></trkpt>
<trkpt lat="53.477895" lon="-1.710854"><ele>444</ele><time>2022-04-08T11:03:28Z</time><name>PT2203</name></trkpt>
<trkpt lat="53.477855" lon="-1.710864"><ele>443</ele><time>2022-04-08T11:03:32Z</time><name>PT2204</name></trkpt>
<trkpt lat="53.477807" lon="-1.710865"><ele>444</ele><time>2022-04-08T11:03:36Z</time><name>PT2205</name></trkpt>
<trkpt lat="53.477762" lon="-1.710856"><ele>443</ele><time>2022-04-08T11:03:40Z</time><name>PT2206</name></trkpt>
<trkpt lat="53.477714" lon="-1.710857"><ele>442</ele><time>2022-04-08T11:03:44Z</time><name>PT2207</name></trkpt>
<trkpt lat="53.477665" lon="-1.710868"><ele>443</ele><time>2022-04-08T11:03:48Z</time><name>PT2208</name></trkpt>
<trkpt lat="53.477613" lon="-1.710845"><ele>445</ele><time>2022-04-08T11:03:52Z</time><name>PT2209</name></trkpt>
<trkpt lat="53.477563" lon="-1.710853"><ele>446</ele><time>2022-04-08T11:03:56Z</time><name>PT2210</name></trkpt>
<trkpt lat="53.477513" lon="-1.710825"><ele>446</ele><time>2022-04-08T11:04:00Z</time><name>PT2211</name></trkpt>
<trkpt lat="53.477463" lon="-1.710824"><ele>446</ele><time>2022-04-08T11:04:04Z</time><name>PT2212</name></trkpt>
<trkpt lat="53.477414" lon="-1.710804"><ele>448</ele><time>2022-04-08T11:04:08Z</time><name>PT2213</name></trkpt>
<trkpt lat="53.477369" lon="-1.710775"><ele>449</ele><time>2022-04-08T11:04:12Z</time><name>PT2214</name></trkpt>
<trkpt lat="53.477322" lon="-1.710750"><ele>450</ele><time>2022-04-08T11:04:16Z</time><name>PT2215</name></trkpt>
<trkpt lat="53.477278" lon="-1.710735"><ele>449</ele><time>2022-04-08T11:04:20Z</time><name>PT2216</name></trkpt>
<trkpt lat="53.477233" lon="-1.710706"><ele>449</ele><time>2022-04-08T11:04:24Z</time><name>PT2217</name></trkpt>
<trkpt lat="53.477193" lon="-1.710675"><ele>448</ele><time>2022-04-08T11:04:28Z</time><name>PT2218</name></trkpt>
<trkpt lat="53.477148" lon="-1.710653"><ele>448</ele><time>2022-04-08T11:04:32Z</time><name>PT2219</name></trkpt>
<trkpt lat="53.477103" lon="-1.710626"><ele>448</ele><time>2022-04-08T11:04:36Z</time><name>PT2220</name></trkpt>
<trkpt lat="53.477060" lon="-1.710591"><ele>449</ele><time>2022-04-08T11:04:40Z</time><name>PT2221</name></trkpt>
<trkpt lat="53.477018" lon="-1.710558"><ele>449</ele><time>2022-04-08T11:04:44Z</time><name>PT2222</name></trkpt>
<trkpt lat="53.476977" lon="-1.710505"><ele>449</ele><time>2022-04-08T11:04:48Z</time><name>PT2223</name></trkpt>
<trkpt lat="53.476933" lon="-1.710462"><ele>449</ele><time>2022-04-08T11:04:52Z</time><name>PT2224</name></trkpt>
<trkpt lat="53.476890" lon="-1.710425"><ele>451</ele><time>2022-04-08T11:04:56Z</time><name>PT2225</name></trkpt>
<trkpt lat="53.476839" lon="-1.710389"><ele>450</ele><time>2022-04-08T11:05:00Z</time><name>PT2226</name></trkpt>
<trkpt lat="53.476794" lon="-1.710376"><ele>449</ele><time>2022-04-08T11:05:04Z</time><name>PT2227</name></trkpt>
<trkpt lat="53.476744" lon="-1.710354"><ele>449</ele><time>2022-04-08T11:05:08Z</time><name>PT2228</name></trkpt>
<trkpt lat="53.476697" lon="-1.710340"><ele>447</ele><time>2022-04-08T11:05:12Z</time><name>PT2229</name></trkpt>
<trkpt lat="53.476648" lon="-1.710321"><ele>446</ele><time>2022-04-08T11:05:16Z</time><name>PT2230</name></trkpt>
<trkpt lat="53.476598" lon="-1.710297"><ele>446</ele><time>2022-04-08T11:05:20Z</time><name>PT2231</name></trkpt>
<trkpt lat="53.476552" lon="-1.710258"><ele>445</ele><time>2022-04-08T11:05:24Z</time><name>PT2232</name></trkpt>
<trkpt lat="53.476506" lon="-1.710226"><ele>445</ele><time>2022-04-08T11:05:28Z</time><name>PT2233</name></trkpt>
<trkpt lat="53.476466" lon="-1.710191"><ele>447</ele><time>2022-04-08T11:05:32Z</time><name>PT2234</name></trkpt>
<trkpt lat="53.476421" lon="-1.710155"><ele>447</ele><time>2022-04-08T11:05:36Z</time><name>PT2235</name></trkpt>
<trkpt lat="53.476381" lon="-1.710129"><ele>446</ele><time>2022-04-08T11:05:40Z</time><name>PT2236</name></trkpt>
<trkpt lat="53.476330" lon="-1.710096"><ele>446</ele><time>2022-04-08T11:05:44Z</time><name>PT2237</name></trkpt>
<trkpt lat="53.476280" lon="-1.710085"><ele>446</ele><time>2022-04-08T11:05:48Z</time><name>PT2238</name></trkpt>
<trkpt lat="53.476229" lon="-1.710080"><ele>446</ele><time>2022-04-08T11:05:52Z</time><name>PT2239</name></trkpt>
<trkpt lat="53.476176" lon="-1.710056"><ele>446</ele><time>2022-04-08T11:05:56Z</time><name>PT2240</name></trkpt>
<trkpt lat="53.476125" lon="-1.710044"><ele>446</ele><time>2022-04-08T11:06:00Z</time><name>PT2241</name></trkpt>
<trkpt lat="53.476076" lon="-1.710042"><ele>446</ele><time>2022-04-08T11:06:04Z</time><name>PT2242</name></trkpt>
<trkpt lat="53.476032" lon="-1.710025"><ele>445</ele><time>2022-04-08T11:06:08Z</time><name>PT2243</name></trkpt>
<trkpt lat="53.475991" lon="-1.709997"><ele>444</ele><time>2022-04-08T11:06:12Z</time><name>PT2244</name></trkpt>
<trkpt lat="53.475945" lon="-1.709968"><ele>445</ele><time>2022-04-08T11:06:16Z</time><name>PT2245</name></trkpt>
<trkpt lat="53.475904" lon="-1.709939"><ele>445</ele><time>2022-04-08T11:06:20Z</time><name>PT2246</name></trkpt>
<trkpt lat="53.475869" lon="-1.709898"><ele>445</ele><time>2022-04-08T11:06:24Z</time><name>PT2247</name></trkpt>
<trkpt lat="53.475826" lon="-1.709876"><ele>445</ele><time>2022-04-08T11:06:28Z</time><name>PT2248</name></trkpt>
<trkpt lat="53.475779" lon="-1.709861"><ele>446</ele><time>2022-04-08T11:06:32Z</time><name>PT2249</name></trkpt>
<trkpt lat="53.475736" lon="-1.709858"><ele>445</ele><time>2022-04-08T11:06:36Z</time><name>PT2250</name></trkpt>
<trkpt lat="53.475683" lon="-1.709857"><ele>445</ele><time>2022-04-08T11:06:40Z</time><name>PT2251</name></trkpt>
<trkpt lat="53.475641" lon="-1.709842"><ele>445</ele><time>2022-04-08T11:06:44Z</time><name>PT2252</name></trkpt>
<trkpt lat="53.475595" lon="-1.709837"><ele>445</ele><time>2022-04-08T11:06:48Z</time><name>PT2253</name></trkpt>
<trkpt lat="53.475549" lon="-1.709835"><ele>445</ele><time>2022-04-08T11:06:52Z</time><name>PT2254</name></trkpt>
<trkpt lat="53.475503" lon="-1.709833"><ele>445</ele><time>2022-04-08T11:06:56Z</time><name>PT2255</name></trkpt>
<trkpt lat="53.475465" lon="-1.709818"><ele>445</ele><time>2022-04-08T11:07:00Z</time><name>PT2256</name></trkpt>
<trkpt lat="53.475436" lon="-1.709802"><ele>445</ele><time>2022-04-08T11:07:04Z</time><name>PT2257</name></trkpt>
<trkpt lat="53.475403" lon="-1.709800"><ele>445</ele><time>2022-04-08T11:07:08Z</time><name>PT2258</name></trkpt>
<trkpt lat="53.475370" lon="-1.709795"><ele>446</ele><time>2022-04-08T11:07:12Z</time><name>PT2259</name></trkpt>
<trkpt lat="53.475337" lon="-1.709786"><ele>446</ele><time>2022-04-08T11:07:16Z</time><name>PT2260</name></trkpt>
<trkpt lat="53.475288" lon="-1.709804"><ele>446</ele><time>2022-04-08T11:07:20Z</time><name>PT2261</name></trkpt>
<trkpt lat="53.475243" lon="-1.709835"><ele>447</ele><time>2022-04-08T11:07:24Z</time><name>PT2262</name></trkpt>
<trkpt lat="53.475195" lon="-1.709859"><ele>448</ele><time>2022-04-08T11:07:28Z</time><name>PT2263</name></trkpt>
<trkpt lat="53.475154" lon="-1.709875"><ele>449</ele><time>2022-04-08T11:07:32Z</time><name>PT2264</name></trkpt>
<trkpt lat="53.475115" lon="-1.709884"><ele>449</ele><time>2022-04-08T11:07:36Z</time><name>PT2265</name></trkpt>
<trkpt lat="53.475069" lon="-1.709893"><ele>450</ele><time>2022-04-08T11:07:40Z</time><name>PT2266</name></trkpt>
<trkpt lat="53.475029" lon="-1.709903"><ele>450</ele><time>2022-04-08T11:07:44Z</time><name>PT2267</name></trkpt>
<trkpt lat="53.474997" lon="-1.709871"><ele>450</ele><time>2022-04-08T11:07:48Z</time><name>PT2268</name></trkpt>
<trkpt lat="53.474962" lon="-1.709863"><ele>451</ele><time>2022-04-08T11:07:52Z</time><name>PT2269</name></trkpt>
<trkpt lat="53.474921" lon="-1.709843"><ele>452</ele><time>2022-04-08T11:07:56Z</time><name>PT2270</name></trkpt>
<trkpt lat="53.474887" lon="-1.709804"><ele>453</ele><time>2022-04-08T11:08:00Z</time><name>PT2271</name></trkpt>
<trkpt lat="53.474850" lon="-1.709774"><ele>454</ele><time>2022-04-08T11:08:04Z</time><name>PT2272</name></trkpt>
<trkpt lat="53.474820" lon="-1.709769"><ele>453</ele><time>2022-04-08T11:08:08Z</time><name>PT2273</name></trkpt>
<trkpt lat="53.474776" lon="-1.709774"><ele>454</ele><time>2022-04-08T11:08:12Z</time><name>PT2274</name></trkpt>
<trkpt lat="53.474740" lon="-1.709768"><ele>455</ele><time>2022-04-08T11:08:16Z</time><name>PT2275</name></trkpt>
<trkpt lat="53.474696" lon="-1.709763"><ele>455</ele><time>2022-04-08T11:08:20Z</time><name>PT2276</name></trkpt>
<trkpt lat="53.474657" lon="-1.709750"><ele>455</ele><time>2022-04-08T11:08:24Z</time><name>PT2277</name></trkpt>
<trkpt lat="53.474617" lon="-1.709727"><ele>456</ele><time>2022-04-08T11:08:28Z</time><name>PT2278</name></trkpt>
<trkpt lat="53.474577" lon="-1.709695"><ele>456</ele><time>2022-04-08T11:08:32Z</time><name>PT2279</name></trkpt>
<trkpt lat="53.474541" lon="-1.709661"><ele>457</ele><time>2022-04-08T11:08:36Z</time><name>PT2280</name></trkpt>
<trkpt lat="53.474515" lon="-1.709637"><ele>456</ele><time>2022-04-08T11:08:39Z</time><name>PT2281</name></trkpt>
<trkpt lat="53.474469" lon="-1.709615"><ele>456</ele><time>2022-04-08T11:08:43Z</time><name>PT2282</name></trkpt>
<trkpt lat="53.474427" lon="-1.709594"><ele>456</ele><time>2022-04-08T11:08:47Z</time><name>PT2283</name></trkpt>
<trkpt lat="53.474391" lon="-1.709560"><ele>456</ele><time>2022-04-08T11:08:51Z</time><name>PT2284</name></trkpt>
<trkpt lat="53.474363" lon="-1.709513"><ele>457</ele><time>2022-04-08T11:08:55Z</time><name>PT2285</name></trkpt>
<trkpt lat="53.474326" lon="-1.709485"><ele>457</ele><time>2022-04-08T11:08:59Z</time><name>PT2286</name></trkpt>
<trkpt lat="53.474287" lon="-1.709436"><ele>458</ele><time>2022-04-08T11:09:03Z</time><name>PT2287</name></trkpt>
<trkpt lat="53.474249" lon="-1.709408"><ele>459</ele><time>2022-04-08T11:09:07Z</time><name>PT2288</name></trkpt>
<trkpt lat="53.474207" lon="-1.709373"><ele>458</ele><time>2022-04-08T11:09:11Z</time><name>PT2289</name></trkpt>
<trkpt lat="53.474183" lon="-1.709317"><ele>461</ele><time>2022-04-08T11:09:15Z</time><name>PT2290</name></trkpt>
<trkpt lat="53.474156" lon="-1.709287"><ele>462</ele><time>2022-04-08T11:09:19Z</time><name>PT2291</name></trkpt>
<trkpt lat="53.474125" lon="-1.709267"><ele>462</ele><time>2022-04-08T11:09:23Z</time><name>PT2292</name></trkpt>
<trkpt lat="53.474092" lon="-1.709252"><ele>462</ele><time>2022-04-08T11:09:27Z</time><name>PT2293</name></trkpt>
<trkpt lat="53.474064" lon="-1.709255"><ele>461</ele><time>2022-04-08T11:09:31Z</time><name>PT2294</name></trkpt>
<trkpt lat="53.474029" lon="-1.709270"><ele>464</ele><time>2022-04-08T11:09:35Z</time><name>PT2295</name></trkpt>
<trkpt lat="53.473997" lon="-1.709258"><ele>465</ele><time>2022-04-08T11:09:39Z</time><name>PT2296</name></trkpt>
<trkpt lat="53.473959" lon="-1.709264"><ele>465</ele><time>2022-04-08T11:09:43Z</time><name>PT2297</name></trkpt>
<trkpt lat="53.473922" lon="-1.709281"><ele>466</ele><time>2022-04-08T11:09:47Z</time><name>PT2298</name></trkpt>
<trkpt lat="53.473880" lon="-1.709275"><ele>467</ele><time>2022-04-08T11:09:51Z</time><name>PT2299</name></trkpt>
<trkpt lat="53.473839" lon="-1.709276"><ele>468</ele><time>2022-04-08T11:09:55Z</time><name>PT2300</name></trkpt>
<trkpt lat="53.473800" lon="-1.709285"><ele>469</ele><time>2022-04-08T11:09:59Z</time><name>PT2301</name></trkpt>
<trkpt lat="53.473762" lon="-1.709285"><ele>469</ele><time>2022-04-08T11:10:03Z</time><name>PT2302</name></trkpt>
<trkpt lat="53.473719" lon="-1.709292"><ele>469</ele><time>2022-04-08T11:10:07Z</time><name>PT2303</name></trkpt>
<trkpt lat="53.473678" lon="-1.709323"><ele>469</ele><time>2022-04-08T11:10:11Z</time><name>PT2304</name></trkpt>
<trkpt lat="53.473635" lon="-1.709342"><ele>469</ele><time>2022-04-08T11:10:15Z</time><name>PT2305</name></trkpt>
<trkpt lat="53.473591" lon="-1.709350"><ele>469</ele><time>2022-04-08T11:10:19Z</time><name>PT2306</name></trkpt>
<trkpt lat="53.473551" lon="-1.709369"><ele>470</ele><time>2022-04-08T11:10:23Z</time><name>PT2307</name></trkpt>
<trkpt lat="53.473507" lon="-1.709392"><ele>470</ele><time>2022-04-08T11:10:27Z</time><name>PT2308</name></trkpt>
<trkpt lat="53.473464" lon="-1.709412"><ele>471</ele><time>2022-04-08T11:10:31Z</time><name>PT2309</name></trkpt>
<trkpt lat="53.473420" lon="-1.709437"><ele>473</ele><time>2022-04-08T11:10:35Z</time><name>PT2310</name></trkpt>
<trkpt lat="53.473375" lon="-1.709467"><ele>473</ele><time>2022-04-08T11:10:39Z</time><name>PT2311</name></trkpt>
<trkpt lat="53.473334" lon="-1.709503"><ele>475</ele><time>2022-04-08T11:10:43Z</time><name>PT2312</name></trkpt>
<trkpt lat="53.473304" lon="-1.709500"><ele>474</ele><time>2022-04-08T11:10:47Z</time><name>PT2313</name></trkpt>
<trkpt lat="53.473309" lon="-1.709501"><ele>475</ele><time>2022-04-08T11:10:51Z</time><name>PT2314</name></trkpt>
<trkpt lat="53.473307" lon="-1.709506"><ele>474</ele><time>2022-04-08T11:10:55Z</time><name>PT2315</name></trkpt>
<trkpt lat="53.473288" lon="-1.709504"><ele>474</ele><time>2022-04-08T11:10:59Z</time><name>PT2316</name></trkpt>
<trkpt lat="53.473244" lon="-1.709502"><ele>473</ele><time>2022-04-08T11:11:03Z</time><name>PT2317</name></trkpt>
<trkpt lat="53.473199" lon="-1.709503"><ele>473</ele><time>2022-04-08T11:11:07Z</time><name>PT2318</name></trkpt>
<trkpt lat="53.473156" lon="-1.709539"><ele>473</ele><time>2022-04-08T11:11:11Z</time><name>PT2319</name></trkpt>
<trkpt lat="53.473121" lon="-1.709580"><ele>473</ele><time>2022-04-08T11:11:15Z</time><name>PT2320</name></trkpt>
<trkpt lat="53.473083" lon="-1.709625"><ele>474</ele><time>2022-04-08T11:11:19Z</time><name>PT2321</name></trkpt>
<trkpt lat="53.473050" lon="-1.709662"><ele>475</ele><time>2022-04-08T11:11:23Z</time><name>PT2322</name></trkpt>
<trkpt lat="53.473017" lon="-1.709691"><ele>476</ele><time>2022-04-08T11:11:27Z</time><name>PT2323</name></trkpt>
<trkpt lat="53.472969" lon="-1.709708"><ele>479</ele><time>2022-04-08T11:11:31Z</time><name>PT2324</name></trkpt>
<trkpt lat="53.472932" lon="-1.709725"><ele>480</ele><time>2022-04-08T11:11:35Z</time><name>PT2325</name></trkpt>
<trkpt lat="53.472894" lon="-1.709746"><ele>478</ele><time>2022-04-08T11:11:39Z</time><name>PT2326</name></trkpt>
<trkpt lat="53.472858" lon="-1.709779"><ele>479</ele><time>2022-04-08T11:11:43Z</time><name>PT2327</name></trkpt>
<trkpt lat="53.472820" lon="-1.709813"><ele>479</ele><time>2022-04-08T11:11:47Z</time><name>PT2328</name></trkpt>
<trkpt lat="53.472785" lon="-1.709841"><ele>478</ele><time>2022-04-08T11:11:51Z</time><name>PT2329</name></trkpt>
<trkpt lat="53.472746" lon="-1.709867"><ele>478</ele><time>2022-04-08T11:11:55Z</time><name>PT2330</name></trkpt>
<trkpt lat="53.472707" lon="-1.709890"><ele>478</ele><time>2022-04-08T11:11:59Z</time><name>PT2331</name></trkpt>
<trkpt lat="53.472668" lon="-1.709877"><ele>478</ele><time>2022-04-08T11:12:03Z</time><name>PT2332</name></trkpt>
<trkpt lat="53.472629" lon="-1.709876"><ele>479</ele><time>2022-04-08T11:12:07Z</time><name>PT2333</name></trkpt>
<trkpt lat="53.472587" lon="-1.709889"><ele>479</ele><time>2022-04-08T11:12:11Z</time><name>PT2334</name></trkpt>
<trkpt lat="53.472543" lon="-1.709890"><ele>480</ele><time>2022-04-08T11:12:15Z</time><name>PT2335</name></trkpt>
<trkpt lat="53.472505" lon="-1.709883"><ele>481</ele><time>2022-04-08T11:12:19Z</time><name>PT2336</name></trkpt>
<trkpt lat="53.472470" lon="-1.709889"><ele>481</ele><time>2022-04-08T11:12:23Z</time><name>PT2337</name></trkpt>
<trkpt lat="53.472431" lon="-1.709884"><ele>481</ele><time>2022-04-08T11:12:27Z</time><name>PT2338</name></trkpt>
<trkpt lat="53.472396" lon="-1.709901"><ele>482</ele><time>2022-04-08T11:12:31Z</time><name>PT2339</name></trkpt>
<trkpt lat="53.472358" lon="-1.709909"><ele>481</ele><time>2022-04-08T11:12:35Z</time><name>PT2340</name></trkpt>
<trkpt lat="53.472322" lon="-1.709923"><ele>481</ele><time>2022-04-08T11:12:39Z</time><name>PT2341</name></trkpt>
<trkpt lat="53.472282" lon="-1.709944"><ele>483</ele><time>2022-04-08T11:12:43Z</time><name>PT2342</name></trkpt>
<trkpt lat="53.472243" lon="-1.709973"><ele>482</ele><time>2022-04-08T11:12:47Z</time><name>PT2343</name></trkpt>
<trkpt lat="53.472222" lon="-1.710029"><ele>482</ele><time>2022-04-08T11:12:51Z</time><name>PT2344</name></trkpt>
<trkpt lat="53.472187" lon="-1.710077"><ele>483</ele><time>2022-04-08T11:12:55Z</time><name>PT2345</name></trkpt>
<trkpt lat="53.472156" lon="-1.710122"><ele>483</ele><time>2022-04-08T11:12:59Z</time><name>PT2346</name></trkpt>
<trkpt lat="53.472131" lon="-1.710168"><ele>482</ele><time>2022-04-08T11:13:03Z</time><name>PT2347</name></trkpt>
<trkpt lat="53.472100" lon="-1.710203"><ele>482</ele><time>2022-04-08T11:13:07Z</time><name>PT2348</name></trkpt>
<trkpt lat="53.472068" lon="-1.710245"><ele>481</ele><time>2022-04-08T11:13:11Z</time><name>PT2349</name></trkpt>
<trkpt lat="53.472043" lon="-1.710290"><ele>482</ele><time>2022-04-08T11:13:15Z</time><name>PT2350</name></trkpt>
<trkpt lat="53.472014" lon="-1.710336"><ele>483</ele><time>2022-04-08T11:13:19Z</time><name>PT2351</name></trkpt>
<trkpt lat="53.471993" lon="-1.710392"><ele>484</ele><time>2022-04-08T11:13:23Z</time><name>PT2352</name></trkpt>
<trkpt lat="53.471973" lon="-1.710449"><ele>485</ele><time>2022-04-08T11:13:27Z</time><name>PT2353</name></trkpt>
<trkpt lat="53.471950" lon="-1.710504"><ele>485</ele><time>2022-04-08T11:13:31Z</time><name>PT2354</name></trkpt>
<trkpt lat="53.471927" lon="-1.710565"><ele>485</ele><time>2022-04-08T11:13:35Z</time><name>PT2355</name></trkpt>
<trkpt lat="53.471894" lon="-1.710611"><ele>485</ele><time>2022-04-08T11:13:39Z</time><name>PT2356</name></trkpt>
<trkpt lat="53.471853" lon="-1.710651"><ele>486</ele><time>2022-04-08T11:13:43Z</time><name>PT2357</name></trkpt>
<trkpt lat="53.471812" lon="-1.710658"><ele>486</ele><time>2022-04-08T11:13:47Z</time><name>PT2358</name></trkpt>
<trkpt lat="53.471773" lon="-1.710674"><ele>487</ele><time>2022-04-08T11:13:51Z</time><name>PT2359</name></trkpt>
<trkpt lat="53.471731" lon="-1.710674"><ele>487</ele><time>2022-04-08T11:13:55Z</time><name>PT2360</name></trkpt>
<trkpt lat="53.471688" lon="-1.710689"><ele>487</ele><time>2022-04-08T11:13:59Z</time><name>PT2361</name></trkpt>
<trkpt lat="53.471647" lon="-1.710720"><ele>487</ele><time>2022-04-08T11:14:03Z</time><name>PT2362</name></trkpt>
<trkpt lat="53.471603" lon="-1.710741"><ele>486</ele><time>2022-04-08T11:14:07Z</time><name>PT2363</name></trkpt>
<trkpt lat="53.471562" lon="-1.710764"><ele>487</ele><time>2022-04-08T11:14:11Z</time><name>PT2364</name></trkpt>
<trkpt lat="53.471519" lon="-1.710793"><ele>488</ele><time>2022-04-08T11:14:15Z</time><name>PT2365</name></trkpt>
<trkpt lat="53.471479" lon="-1.710824"><ele>488</ele><time>2022-04-08T11:14:19Z</time><name>PT2366</name></trkpt>
<trkpt lat="53.471434" lon="-1.710850"><ele>489</ele><time>2022-04-08T11:14:23Z</time><name>PT2367</name></trkpt>
<trkpt lat="53.471394" lon="-1.710878"><ele>490</ele><time>2022-04-08T11:14:27Z</time><name>PT2368</name></trkpt>
<trkpt lat="53.471350" lon="-1.710900"><ele>491</ele><time>2022-04-08T11:14:31Z</time><name>PT2369</name></trkpt>
<trkpt lat="53.471305" lon="-1.710924"><ele>490</ele><time>2022-04-08T11:14:36Z</time><name>PT2370</name></trkpt>
<trkpt lat="53.471297" lon="-1.710937"><ele>491</ele><time>2022-04-08T11:14:36Z</time><name>PT2371</name></trkpt>
<trkpt lat="53.471283" lon="-1.710951"><ele>490</ele><time>2022-04-08T11:14:37Z</time><name>PT2372</name></trkpt>
<trkpt lat="53.471271" lon="-1.710968"><ele>490</ele><time>2022-04-08T11:14:38Z</time><name>PT2373</name></trkpt>
<trkpt lat="53.471261" lon="-1.710975"><ele>491</ele><time>2022-04-08T11:14:39Z</time><name>PT2374</name></trkpt>
<trkpt lat="53.471250" lon="-1.710981"><ele>491</ele><time>2022-04-08T11:14:40Z</time><name>PT2375</name></trkpt>
<trkpt lat="53.471239" lon="-1.710991"><ele>491</ele><time>2022-04-08T11:14:41Z</time><name>PT2376</name></trkpt>
<trkpt lat="53.471230" lon="-1.710999"><ele>491</ele><time>2022-04-08T11:14:42Z</time><name>PT2377</name></trkpt>
<trkpt lat="53.471223" lon="-1.711010"><ele>491</ele><time>2022-04-08T11:14:43Z</time><name>PT2378</name></trkpt>
<trkpt lat="53.471214" lon="-1.711019"><ele>492</ele><time>2022-04-08T11:14:44Z</time><name>PT2379</name></trkpt>
<trkpt lat="53.471205" lon="-1.711029"><ele>492</ele><time>2022-04-08T11:14:45Z</time><name>PT2380</name></trkpt>
<trkpt lat="53.471195" lon="-1.711036"><ele>492</ele><time>2022-04-08T11:14:46Z</time><name>PT2381</name></trkpt>
<trkpt lat="53.471187" lon="-1.711045"><ele>493</ele><time>2022-04-08T11:14:48Z</time><name>PT2382</name></trkpt>
<trkpt lat="53.471180" lon="-1.711057"><ele>493</ele><time>2022-04-08T11:14:48Z</time><name>PT2383</name></trkpt>
<trkpt lat="53.471172" lon="-1.711067"><ele>493</ele><time>2022-04-08T11:14:49Z</time><name>PT2384</name></trkpt>
<trkpt lat="53.471163" lon="-1.711077"><ele>493</ele><time>2022-04-08T11:14:50Z</time><name>PT2385</name></trkpt>
<trkpt lat="53.471154" lon="-1.711084"><ele>493</ele><time>2022-04-08T11:14:51Z</time><name>PT2386</name></trkpt>
<trkpt lat="53.471144" lon="-1.711087"><ele>493</ele><time>2022-04-08T11:14:52Z</time><name>PT2387</name></trkpt>
<trkpt lat="53.471135" lon="-1.711087"><ele>493</ele><time>2022-04-08T11:14:53Z</time><name>PT2388</name></trkpt>
<trkpt lat="53.471125" lon="-1.711086"><ele>493</ele><time>2022-04-08T11:14:54Z</time><name>PT2389</name></trkpt>
<trkpt lat="53.471114" lon="-1.711081"><ele>494</ele><time>2022-04-08T11:14:55Z</time><name>PT2390</name></trkpt>
<trkpt lat="53.471104" lon="-1.711071"><ele>494</ele><time>2022-04-08T11:14:56Z</time><name>PT2391</name></trkpt>
<trkpt lat="53.471095" lon="-1.711063"><ele>494</ele><time>2022-04-08T11:14:57Z</time><name>PT2392</name></trkpt>
<trkpt lat="53.471086" lon="-1.711059"><ele>494</ele><time>2022-04-08T11:14:58Z</time><name>PT2393</name></trkpt>
<trkpt lat="53.471075" lon="-1.711056"><ele>494</ele><time>2022-04-08T11:14:59Z</time><name>PT2394</name></trkpt>
<trkpt lat="53.471063" lon="-1.711052"><ele>494</ele><time>2022-04-08T11:15:00Z</time><name>PT2395</name></trkpt>
<trkpt lat="53.471052" lon="-1.711048"><ele>494</ele><time>2022-04-08T11:15:01Z</time><name>PT2396</name></trkpt>
<trkpt lat="53.471041" lon="-1.711049"><ele>494</ele><time>2022-04-08T11:15:02Z</time><name>PT2397</name></trkpt>
<trkpt lat="53.471038" lon="-1.711054"><ele>494</ele><time>2022-04-08T11:15:03Z</time><name>PT2398</name></trkpt>
<trkpt lat="53.471038" lon="-1.711053"><ele>494</ele><time>2022-04-08T11:15:04Z</time><name>PT2399</name></trkpt>
<trkpt lat="53.471029" lon="-1.711055"><ele>494</ele><time>2022-04-08T11:15:05Z</time><name>PT2400</name></trkpt>
<trkpt lat="53.471014" lon="-1.711055"><ele>495</ele><time>2022-04-08T11:15:06Z</time><name>PT2401</name></trkpt>
<trkpt lat="53.471002" lon="-1.711051"><ele>495</ele><time>2022-04-08T11:15:08Z</time><name>PT2402</name></trkpt>
<trkpt lat="53.470992" lon="-1.711044"><ele>494</ele><time>2022-04-08T11:15:08Z</time><name>PT2403</name></trkpt>
<trkpt lat="53.470976" lon="-1.711053"><ele>493</ele><time>2022-04-08T11:15:09Z</time><name>PT2404</name></trkpt>
<trkpt lat="53.470964" lon="-1.711053"><ele>493</ele><time>2022-04-08T11:15:10Z</time><name>PT2405</name></trkpt>
<trkpt lat="53.470949" lon="-1.711058"><ele>493</ele><time>2022-04-08T11:15:11Z</time><name>PT2406</name></trkpt>
<trkpt lat="53.470938" lon="-1.711058"><ele>493</ele><time>2022-04-08T11:15:12Z</time><name>PT2407</name></trkpt>
<trkpt lat="53.470929" lon="-1.711061"><ele>493</ele><time>2022-04-08T11:15:13Z</time><name>PT2408</name></trkpt>
<trkpt lat="53.470919" lon="-1.711063"><ele>492</ele><time>2022-04-08T11:15:14Z</time><name>PT2409</name></trkpt>
<trkpt lat="53.470907" lon="-1.711067"><ele>491</ele><time>2022-04-08T11:15:15Z</time><name>PT2410</name></trkpt>
<trkpt lat="53.470897" lon="-1.711064"><ele>491</ele><time>2022-04-08T11:15:16Z</time><name>PT2411</name></trkpt>
<trkpt lat="53.470887" lon="-1.711062"><ele>491</ele><time>2022-04-08T11:15:18Z</time><name>PT2412</name></trkpt>
<trkpt lat="53.470873" lon="-1.711060"><ele>491</ele><time>2022-04-08T11:15:18Z</time><name>PT2413</name></trkpt>
<trkpt lat="53.470862" lon="-1.711058"><ele>490</ele><time>2022-04-08T11:15:19Z</time><name>PT2414</name></trkpt>
<trkpt lat="53.470853" lon="-1.711058"><ele>490</ele><time>2022-04-08T11:15:20Z</time><name>PT2415</name></trkpt>
<trkpt lat="53.470843" lon="-1.711056"><ele>490</ele><time>2022-04-08T11:15:21Z</time><name>PT2416</name></trkpt>
<trkpt lat="53.470834" lon="-1.711053"><ele>490</ele><time>2022-04-08T11:15:22Z</time><name>PT2417</name></trkpt>
<trkpt lat="53.470824" lon="-1.711048"><ele>490</ele><time>2022-04-08T11:15:23Z</time><name>PT2418</name></trkpt>
<trkpt lat="53.470813" lon="-1.711045"><ele>490</ele><time>2022-04-08T11:15:24Z</time><name>PT2419</name></trkpt>
<trkpt lat="53.470803" lon="-1.711043"><ele>490</ele><time>2022-04-08T11:15:25Z</time><name>PT2420</name></trkpt>
<trkpt lat="53.470794" lon="-1.711042"><ele>490</ele><time>2022-04-08T11:15:26Z</time><name>PT2421</name></trkpt>
<trkpt lat="53.470785" lon="-1.711033"><ele>490</ele><time>2022-04-08T11:15:28Z</time><name>PT2422</name></trkpt>
<trkpt lat="53.470773" lon="-1.711025"><ele>490</ele><time>2022-04-08T11:15:28Z</time><name>PT2423</name></trkpt>
<trkpt lat="53.470764" lon="-1.711021"><ele>490</ele><time>2022-04-08T11:15:29Z</time><name>PT2424</name></trkpt>
<trkpt lat="53.470752" lon="-1.711017"><ele>490</ele><time>2022-04-08T11:15:30Z</time><name>PT2425</name></trkpt>
<trkpt lat="53.470741" lon="-1.711010"><ele>490</ele><time>2022-04-08T11:15:31Z</time><name>PT2426</name></trkpt>
<trkpt lat="53.470729" lon="-1.711008"><ele>489</ele><time>2022-04-08T11:15:32Z</time><name>PT2427</name></trkpt>
<trkpt lat="53.470715" lon="-1.711002"><ele>489</ele><time>2022-04-08T11:15:33Z</time><name>PT2428</name></trkpt>
<trkpt lat="53.470704" lon="-1.710998"><ele>489</ele><time>2022-04-08T11:15:34Z</time><name>PT2429</name></trkpt>
<trkpt lat="53.470693" lon="-1.710991"><ele>489</ele><time>2022-04-08T11:15:35Z</time><name>PT2430</name></trkpt>
<trkpt lat="53.470685" lon="-1.710984"><ele>488</ele><time>2022-04-08T11:15:36Z</time><name>PT2431</name></trkpt>
<trkpt lat="53.470675" lon="-1.710977"><ele>488</ele><time>2022-04-08T11:15:37Z</time><name>PT2432</name></trkpt>
<trkpt lat="53.470665" lon="-1.710972"><ele>488</ele><time>2022-04-08T11:15:38Z</time><name>PT2433</name></trkpt>
<trkpt lat="53.470658" lon="-1.710963"><ele>489</ele><time>2022-04-08T11:15:39Z</time><name>PT2434</name></trkpt>
<trkpt lat="53.470651" lon="-1.710954"><ele>489</ele><time>2022-04-08T11:15:40Z</time><name>PT2435</name></trkpt>
<trkpt lat="53.470645" lon="-1.710945"><ele>489</ele><time>2022-04-08T11:15:41Z</time><name>PT2436</name></trkpt>
<trkpt lat="53.470632" lon="-1.710935"><ele>489</ele><time>2022-04-08T11:15:42Z</time><name>PT2437</name></trkpt>
<trkpt lat="53.470625" lon="-1.710926"><ele>489</ele><time>2022-04-08T11:15:43Z</time><name>PT2438</name></trkpt>
<trkpt lat="53.470617" lon="-1.710923"><ele>488</ele><time>2022-04-08T11:15:44Z</time><name>PT2439</name></trkpt>
<trkpt lat="53.470608" lon="-1.710919"><ele>489</ele><time>2022-04-08T11:15:45Z</time><name>PT2440</name></trkpt>
<trkpt lat="53.470598" lon="-1.710914"><ele>489</ele><time>2022-04-08T11:15:46Z</time><name>PT2441</name></trkpt>
<trkpt lat="53.470588" lon="-1.710908"><ele>489</ele><time>2022-04-08T11:15:47Z</time><name>PT2442</name></trkpt>
<trkpt lat="53.470578" lon="-1.710902"><ele>489</ele><time>2022-04-08T11:15:48Z</time><name>PT2443</name></trkpt>
<trkpt lat="53.470566" lon="-1.710893"><ele>489</ele><time>2022-04-08T11:15:49Z</time><name>PT2444</name></trkpt>
<trkpt lat="53.470555" lon="-1.710892"><ele>489</ele><time>2022-04-08T11:15:50Z</time><name>PT2445</name></trkpt>
<trkpt lat="53.470545" lon="-1.710894"><ele>489</ele><time>2022-04-08T11:15:51Z</time><name>PT2446</name></trkpt>
<trkpt lat="53.470535" lon="-1.710896"><ele>489</ele><time>2022-04-08T11:15:52Z</time><name>PT2447</name></trkpt>
<trkpt lat="53.470525" lon="-1.710897"><ele>489</ele><time>2022-04-08T11:15:53Z</time><name>PT2448</name></trkpt>
<trkpt lat="53.470514" lon="-1.710896"><ele>489</ele><time>2022-04-08T11:15:54Z</time><name>PT2449</name></trkpt>
<trkpt lat="53.470504" lon="-1.710899"><ele>489</ele><time>2022-04-08T11:15:55Z</time><name>PT2450</name></trkpt>
<trkpt lat="53.470495" lon="-1.710905"><ele>489</ele><time>2022-04-08T11:15:56Z</time><name>PT2451</name></trkpt>
<trkpt lat="53.470486" lon="-1.710906"><ele>489</ele><time>2022-04-08T11:15:57Z</time><name>PT2452</name></trkpt>
<trkpt lat="53.470474" lon="-1.710904"><ele>489</ele><time>2022-04-08T11:15:58Z</time><name>PT2453</name></trkpt>
<trkpt lat="53.470462" lon="-1.710898"><ele>489</ele><time>2022-04-08T11:15:59Z</time><name>PT2454</name></trkpt>
<trkpt lat="53.470450" lon="-1.710897"><ele>490</ele><time>2022-04-08T11:16:00Z</time><name>PT2455</name></trkpt>
<trkpt lat="53.470439" lon="-1.710900"><ele>489</ele><time>2022-04-08T11:16:01Z</time><name>PT2456</name></trkpt>
<trkpt lat="53.470428" lon="-1.710901"><ele>489</ele><time>2022-04-08T11:16:02Z</time><name>PT2457</name></trkpt>
<trkpt lat="53.470416" lon="-1.710896"><ele>489</ele><time>2022-04-08T11:16:03Z</time><name>PT2458</name></trkpt>
<trkpt lat="53.470406" lon="-1.710891"><ele>489</ele><time>2022-04-08T11:16:04Z</time><name>PT2459</name></trkpt>
<trkpt lat="53.470397" lon="-1.710880"><ele>489</ele><time>2022-04-08T11:16:05Z</time><name>PT2460</name></trkpt>
<trkpt lat="53.470387" lon="-1.710871"><ele>489</ele><time>2022-04-08T11:16:06Z</time><name>PT2461</name></trkpt>
<trkpt lat="53.470373" lon="-1.710866"><ele>490</ele><time>2022-04-08T11:16:07Z</time><name>PT2462</name></trkpt>
<trkpt lat="53.470362" lon="-1.710866"><ele>491</ele><time>2022-04-08T11:16:08Z</time><name>PT2463</name></trkpt>
<trkpt lat="53.470351" lon="-1.710864"><ele>491</ele><time>2022-04-08T11:16:09Z</time><name>PT2464</name></trkpt>
<trkpt lat="53.470340" lon="-1.710860"><ele>491</ele><time>2022-04-08T11:16:10Z</time><name>PT2465</name></trkpt>
<trkpt lat="53.470329" lon="-1.710853"><ele>492</ele><time>2022-04-08T11:16:11Z</time><name>PT2466</name></trkpt>
<trkpt lat="53.470316" lon="-1.710846"><ele>492</ele><time>2022-04-08T11:16:12Z</time><name>PT2467</name></trkpt>
<trkpt lat="53.470306" lon="-1.710846"><ele>492</ele><time>2022-04-08T11:16:13Z</time><name>PT2468</name></trkpt>
<trkpt lat="53.470294" lon="-1.710847"><ele>492</ele><time>2022-04-08T11:16:14Z</time><name>PT2469</name></trkpt>
<trkpt lat="53.470281" lon="-1.710845"><ele>492</ele><time>2022-04-08T11:16:15Z</time><name>PT2470</name></trkpt>
<trkpt lat="53.470271" lon="-1.710838"><ele>492</ele><time>2022-04-08T11:16:16Z</time><name>PT2471</name></trkpt>
<trkpt lat="53.470259" lon="-1.710834"><ele>492</ele><time>2022-04-08T11:16:17Z</time><name>PT2472</name></trkpt>
<trkpt lat="53.470250" lon="-1.710830"><ele>492</ele><time>2022-04-08T11:16:18Z</time><name>PT2473</name></trkpt>
<trkpt lat="53.470237" lon="-1.710827"><ele>492</ele><time>2022-04-08T11:16:19Z</time><name>PT2474</name></trkpt>
<trkpt lat="53.470225" lon="-1.710825"><ele>492</ele><time>2022-04-08T11:16:20Z</time><name>PT2475</name></trkpt>
<trkpt lat="53.470212" lon="-1.710819"><ele>492</ele><time>2022-04-08T11:16:21Z</time><name>PT2476</name></trkpt>
<trkpt lat="53.470200" lon="-1.710816"><ele>492</ele><time>2022-04-08T11:16:22Z</time><name>PT2477</name></trkpt>
<trkpt lat="53.470188" lon="-1.710816"><ele>492</ele><time>2022-04-08T11:16:23Z</time><name>PT2478</name></trkpt>
<trkpt lat="53.470174" lon="-1.710818"><ele>492</ele><time>2022-04-08T11:16:24Z</time><name>PT2479</name></trkpt>
<trkpt lat="53.470160" lon="-1.710819"><ele>492</ele><time>2022-04-08T11:16:25Z</time><name>PT2480</name></trkpt>
<trkpt lat="53.470150" lon="-1.710820"><ele>492</ele><time>2022-04-08T11:16:26Z</time><name>PT2481</name></trkpt>
<trkpt lat="53.470139" lon="-1.710819"><ele>493</ele><time>2022-04-08T11:16:27Z</time><name>PT2482</name></trkpt>
<trkpt lat="53.470128" lon="-1.710819"><ele>492</ele><time>2022-04-08T11:16:28Z</time><name>PT2483</name></trkpt>
<trkpt lat="53.470116" lon="-1.710821"><ele>493</ele><time>2022-04-08T11:16:29Z</time><name>PT2484</name></trkpt>
<trkpt lat="53.470103" lon="-1.710828"><ele>493</ele><time>2022-04-08T11:16:30Z</time><name>PT2485</name></trkpt>
<trkpt lat="53.470094" lon="-1.710832"><ele>493</ele><time>2022-04-08T11:16:31Z</time><name>PT2486</name></trkpt>
<trkpt lat="53.470082" lon="-1.710834"><ele>493</ele><time>2022-04-08T11:16:32Z</time><name>PT2487</name></trkpt>
<trkpt lat="53.470071" lon="-1.710838"><ele>493</ele><time>2022-04-08T11:16:33Z</time><name>PT2488</name></trkpt>
<trkpt lat="53.470062" lon="-1.710843"><ele>492</ele><time>2022-04-08T11:16:34Z</time><name>PT2489</name></trkpt>
<trkpt lat="53.470030" lon="-1.710842"><ele>493</ele><time>2022-04-08T11:16:37Z</time><name>PT2490</name></trkpt>
<trkpt lat="53.469987" lon="-1.710857"><ele>493</ele><time>2022-04-08T11:16:41Z</time><name>PT2491</name></trkpt>
<trkpt lat="53.469941" lon="-1.710900"><ele>493</ele><time>2022-04-08T11:16:45Z</time><name>PT2492</name></trkpt>
<trkpt lat="53.469899" lon="-1.710935"><ele>493</ele><time>2022-04-08T11:16:49Z</time><name>PT2493</name></trkpt>
<trkpt lat="53.469854" lon="-1.710964"><ele>495</ele><time>2022-04-08T11:16:53Z</time><name>PT2494</name></trkpt>
<trkpt lat="53.469810" lon="-1.710993"><ele>496</ele><time>2022-04-08T11:16:57Z</time><name>PT2495</name></trkpt>
<trkpt lat="53.469760" lon="-1.711020"><ele>497</ele><time>2022-04-08T11:17:01Z</time><name>PT2496</name></trkpt>
<trkpt lat="53.469723" lon="-1.711043"><ele>495</ele><time>2022-04-08T11:17:05Z</time><name>PT2497</name></trkpt>
<trkpt lat="53.469683" lon="-1.711059"><ele>495</ele><time>2022-04-08T11:17:09Z</time><name>PT2498</name></trkpt>
<trkpt lat="53.469644" lon="-1.711077"><ele>496</ele><time>2022-04-08T11:17:13Z</time><name>PT2499</name></trkpt>
<trkpt lat="53.469608" lon="-1.711112"><ele>494</ele><time>2022-04-08T11:17:17Z</time><name>PT2500</name></trkpt>
<trkpt lat="53.469558" lon="-1.711133"><ele>495</ele><time>2022-04-08T11:17:21Z</time><name>PT2501</name></trkpt>
<trkpt lat="53.469518" lon="-1.711166"><ele>496</ele><time>2022-04-08T11:17:25Z</time><name>PT2502</name></trkpt>
<trkpt lat="53.469480" lon="-1.711188"><ele>496</ele><time>2022-04-08T11:17:29Z</time><name>PT2503</name></trkpt>
<trkpt lat="53.469437" lon="-1.711213"><ele>498</ele><time>2022-04-08T11:17:33Z</time><name>PT2504</name></trkpt>
<trkpt lat="53.469399" lon="-1.711248"><ele>497</ele><time>2022-04-08T11:17:37Z</time><name>PT2505</name></trkpt>
<trkpt lat="53.469361" lon="-1.711287"><ele>498</ele><time>2022-04-08T11:17:41Z</time><name>PT2506</name></trkpt>
<trkpt lat="53.469324" lon="-1.711317"><ele>500</ele><time>2022-04-08T11:17:45Z</time><name>PT2507</name></trkpt>
<trkpt lat="53.469292" lon="-1.711360"><ele>501</ele><time>2022-04-08T11:17:49Z</time><name>PT2508</name></trkpt>
<trkpt lat="53.469247" lon="-1.711387"><ele>501</ele><time>2022-04-08T11:17:53Z</time><name>PT2509</name></trkpt>
<trkpt lat="53.469204" lon="-1.711410"><ele>501</ele><time>2022-04-08T11:17:57Z</time><name>PT2510</name></trkpt>
<trkpt lat="53.469166" lon="-1.711450"><ele>501</ele><time>2022-04-08T11:18:01Z</time><name>PT2511</name></trkpt>
<trkpt lat="53.469128" lon="-1.711483"><ele>501</ele><time>2022-04-08T11:18:05Z</time><name>PT2512</name></trkpt>
<trkpt lat="53.469085" lon="-1.711511"><ele>501</ele><time>2022-04-08T11:18:09Z</time><name>PT2513</name></trkpt>
<trkpt lat="53.469046" lon="-1.711543"><ele>501</ele><time>2022-04-08T11:18:13Z</time><name>PT2514</name></trkpt>
<trkpt lat="53.469014" lon="-1.711581"><ele>502</ele><time>2022-04-08T11:18:17Z</time><name>PT2515</name></trkpt>
<trkpt lat="53.468973" lon="-1.711617"><ele>502</ele><time>2022-04-08T11:18:21Z</time><name>PT2516</name></trkpt>
<trkpt lat="53.468933" lon="-1.711659"><ele>502</ele><time>2022-04-08T11:18:25Z</time><name>PT2517</name></trkpt>
<trkpt lat="53.468889" lon="-1.711700"><ele>502</ele><time>2022-04-08T11:18:29Z</time><name>PT2518</name></trkpt>
<trkpt lat="53.468849" lon="-1.711730"><ele>502</ele><time>2022-04-08T11:18:33Z</time><name>PT2519</name></trkpt>
<trkpt lat="53.468806" lon="-1.711752"><ele>502</ele><time>2022-04-08T11:18:37Z</time><name>PT2520</name></trkpt>
<trkpt lat="53.468767" lon="-1.711796"><ele>501</ele><time>2022-04-08T11:18:41Z</time><name>PT2521</name></trkpt>
<trkpt lat="53.468727" lon="-1.711833"><ele>502</ele><time>2022-04-08T11:18:45Z</time><name>PT2522</name></trkpt>
<trkpt lat="53.468680" lon="-1.711869"><ele>504</ele><time>2022-04-08T11:18:49Z</time><name>PT2523</name></trkpt>
<trkpt lat="53.468634" lon="-1.711894"><ele>504</ele><time>2022-04-08T11:18:53Z</time><name>PT2524</name></trkpt>
<trkpt lat="53.468590" lon="-1.711930"><ele>504</ele><time>2022-04-08T11:18:57Z</time><name>PT2525</name></trkpt>
<trkpt lat="53.468544" lon="-1.711962"><ele>505</ele><time>2022-04-08T11:19:01Z</time><name>PT2526</name></trkpt>
<trkpt lat="53.468501" lon="-1.712001"><ele>505</ele><time>2022-04-08T11:19:05Z</time><name>PT2527</name></trkpt>
<trkpt lat="53.468458" lon="-1.712037"><ele>505</ele><time>2022-04-08T11:19:09Z</time><name>PT2528</name></trkpt>
<trkpt lat="53.468420" lon="-1.712068"><ele>504</ele><time>2022-04-08T11:19:13Z</time><name>PT2529</name></trkpt>
<trkpt lat="53.468378" lon="-1.712109"><ele>505</ele><time>2022-04-08T11:19:17Z</time><name>PT2530</name></trkpt>
<trkpt lat="53.468342" lon="-1.712155"><ele>504</ele><time>2022-04-08T11:19:21Z</time><name>PT2531</name></trkpt>
<trkpt lat="53.468306" lon="-1.712208"><ele>504</ele><time>2022-04-08T11:19:25Z</time><name>PT2532</name></trkpt>
<trkpt lat="53.468273" lon="-1.712263"><ele>504</ele><time>2022-04-08T11:19:29Z</time><name>PT2533</name></trkpt>
<trkpt lat="53.468239" lon="-1.712320"><ele>504</ele><time>2022-04-08T11:19:33Z</time><name>PT2534</name></trkpt>
<trkpt lat="53.468197" lon="-1.712357"><ele>504</ele><time>2022-04-08T11:19:37Z</time><name>PT2535</name></trkpt>
<trkpt lat="53.468161" lon="-1.712411"><ele>503</ele><time>2022-04-08T11:19:41Z</time><name>PT2536</name></trkpt>
<trkpt lat="53.468116" lon="-1.712446"><ele>504</ele><time>2022-04-08T11:19:45Z</time><name>PT2537</name></trkpt>
<trkpt lat="53.468067" lon="-1.712494"><ele>505</ele><time>2022-04-08T11:19:49Z</time><name>PT2538</name></trkpt>
<trkpt lat="53.468026" lon="-1.712551"><ele>505</ele><time>2022-04-08T11:19:53Z</time><name>PT2539</name></trkpt>
<trkpt lat="53.468013" lon="-1.712622"><ele>505</ele><time>2022-04-08T11:19:57Z</time><name>PT2540</name></trkpt>
<trkpt lat="53.467992" lon="-1.712692"><ele>505</ele><time>2022-04-08T11:20:01Z</time><name>PT2541</name></trkpt>
<trkpt lat="53.467970" lon="-1.712766"><ele>505</ele><time>2022-04-08T11:20:05Z</time><name>PT2542</name></trkpt>
<trkpt lat="53.467957" lon="-1.712838"><ele>505</ele><time>2022-04-08T11:20:09Z</time><name>PT2543</name></trkpt>
<trkpt lat="53.467944" lon="-1.712922"><ele>506</ele><time>2022-04-08T11:20:13Z</time><name>PT2544</name></trkpt>
<trkpt lat="53.467943" lon="-1.713001"><ele>507</ele><time>2022-04-08T11:20:17Z</time><name>PT2545</name></trkpt>
<trkpt lat="53.467939" lon="-1.713075"><ele>506</ele><time>2022-04-08T11:20:21Z</time><name>PT2546</name></trkpt>
<trkpt lat="53.467930" lon="-1.713134"><ele>507</ele><time>2022-04-08T11:20:25Z</time><name>PT2547</name></trkpt>
<trkpt lat="53.467917" lon="-1.713168"><ele>507</ele><time>2022-04-08T11:20:29Z</time><name>PT2548</name></trkpt>
<trkpt lat="53.467924" lon="-1.713201"><ele>508</ele><time>2022-04-08T11:20:33Z</time><name>PT2549</name></trkpt>
<trkpt lat="53.467903" lon="-1.713251"><ele>508</ele><time>2022-04-08T11:20:37Z</time><name>PT2550</name></trkpt>
<trkpt lat="53.467880" lon="-1.713316"><ele>508</ele><time>2022-04-08T11:20:41Z</time><name>PT2551</name></trkpt>
<trkpt lat="53.467863" lon="-1.713395"><ele>509</ele><time>2022-04-08T11:20:45Z</time><name>PT2552</name></trkpt>
<trkpt lat="53.467852" lon="-1.713459"><ele>510</ele><time>2022-04-08T11:20:49Z</time><name>PT2553</name></trkpt>
<trkpt lat="53.467836" lon="-1.713525"><ele>511</ele><time>2022-04-08T11:20:53Z</time><name>PT2554</name></trkpt>
<trkpt lat="53.467822" lon="-1.713595"><ele>512</ele><time>2022-04-08T11:20:57Z</time><name>PT2555</name></trkpt>
<trkpt lat="53.467810" lon="-1.713666"><ele>512</ele><time>2022-04-08T11:21:01Z</time><name>PT2556</name></trkpt>
<trkpt lat="53.467793" lon="-1.713727"><ele>511</ele><time>2022-04-08T11:21:05Z</time><name>PT2557</name></trkpt>
<trkpt lat="53.467773" lon="-1.713774"><ele>512</ele><time>2022-04-08T11:21:09Z</time><name>PT2558</name></trkpt>
<trkpt lat="53.467768" lon="-1.713784"><ele>513</ele><time>2022-04-08T11:21:10Z</time><name>PT2559</name></trkpt>
<trkpt lat="53.467762" lon="-1.713798"><ele>513</ele><time>2022-04-08T11:21:11Z</time><name>PT2560</name></trkpt>
<trkpt lat="53.467752" lon="-1.713813"><ele>512</ele><time>2022-04-08T11:21:12Z</time><name>PT2561</name></trkpt>
<trkpt lat="53.467743" lon="-1.713826"><ele>512</ele><time>2022-04-08T11:21:14Z</time><name>PT2562</name></trkpt>
<trkpt lat="53.467733" lon="-1.713836"><ele>512</ele><time>2022-04-08T11:21:14Z</time><name>PT2563</name></trkpt>
<trkpt lat="53.467722" lon="-1.713844"><ele>512</ele><time>2022-04-08T11:21:15Z</time><name>PT2564</name></trkpt>
<trkpt lat="53.467714" lon="-1.713855"><ele>512</ele><time>2022-04-08T11:21:16Z</time><name>PT2565</name></trkpt>
<trkpt lat="53.467704" lon="-1.713859"><ele>512</ele><time>2022-04-08T11:21:17Z</time><name>PT2566</name></trkpt>
<trkpt lat="53.467697" lon="-1.713861"><ele>512</ele><time>2022-04-08T11:21:18Z</time><name>PT2567</name></trkpt>
<trkpt lat="53.467686" lon="-1.713864"><ele>513</ele><time>2022-04-08T11:21:19Z</time><name>PT2568</name></trkpt>
<trkpt lat="53.467676" lon="-1.713869"><ele>512</ele><time>2022-04-08T11:21:20Z</time><name>PT2569</name></trkpt>
<trkpt lat="53.467667" lon="-1.713876"><ele>512</ele><time>2022-04-08T11:21:21Z</time><name>PT2570</name></trkpt>
<trkpt lat="53.467659" lon="-1.713894"><ele>512</ele><time>2022-04-08T11:21:22Z</time><name>PT2571</name></trkpt>
<trkpt lat="53.467652" lon="-1.713908"><ele>512</ele><time>2022-04-08T11:21:23Z</time><name>PT2572</name></trkpt>
<trkpt lat="53.467643" lon="-1.713923"><ele>512</ele><time>2022-04-08T11:21:24Z</time><name>PT2573</name></trkpt>
<trkpt lat="53.467633" lon="-1.713928"><ele>512</ele><time>2022-04-08T11:21:25Z</time><name>PT2574</name></trkpt>
<trkpt lat="53.467621" lon="-1.713934"><ele>513</ele><time>2022-04-08T11:21:26Z</time><name>PT2575</name></trkpt>
<trkpt lat="53.467610" lon="-1.713939"><ele>513</ele><time>2022-04-08T11:21:27Z</time><name>PT2576</name></trkpt>
<trkpt lat="53.467601" lon="-1.713943"><ele>513</ele><time>2022-04-08T11:21:28Z</time><name>PT2577</name></trkpt>
<trkpt lat="53.467590" lon="-1.713949"><ele>513</ele><time>2022-04-08T11:21:29Z</time><name>PT2578</name></trkpt>
<trkpt lat="53.467579" lon="-1.713957"><ele>512</ele><time>2022-04-08T11:21:30Z</time><name>PT2579</name></trkpt>
<trkpt lat="53.467566" lon="-1.713962"><ele>512</ele><time>2022-04-08T11:21:31Z</time><name>PT2580</name></trkpt>
<trkpt lat="53.467552" lon="-1.713965"><ele>512</ele><time>2022-04-08T11:21:32Z</time><name>PT2581</name></trkpt>
<trkpt lat="53.467542" lon="-1.713969"><ele>512</ele><time>2022-04-08T11:21:33Z</time><name>PT2582</name></trkpt>
<trkpt lat="53.467532" lon="-1.713973"><ele>512</ele><time>2022-04-08T11:21:34Z</time><name>PT2583</name></trkpt>
<trkpt lat="53.467518" lon="-1.713980"><ele>513</ele><time>2022-04-08T11:21:35Z</time><name>PT2584</name></trkpt>
<trkpt lat="53.467507" lon="-1.713985"><ele>513</ele><time>2022-04-08T11:21:36Z</time><name>PT2585</name></trkpt>
<trkpt lat="53.467495" lon="-1.713987"><ele>512</ele><time>2022-04-08T11:21:37Z</time><name>PT2586</name></trkpt>
<trkpt lat="53.467483" lon="-1.713991"><ele>512</ele><time>2022-04-08T11:21:38Z</time><name>PT2587</name></trkpt>
<trkpt lat="53.467472" lon="-1.713995"><ele>512</ele><time>2022-04-08T11:21:39Z</time><name>PT2588</name></trkpt>
<trkpt lat="53.467462" lon="-1.713998"><ele>511</ele><time>2022-04-08T11:21:40Z</time><name>PT2589</name></trkpt>
<trkpt lat="53.467449" lon="-1.714002"><ele>511</ele><time>2022-04-08T11:21:41Z</time><name>PT2590</name></trkpt>
<trkpt lat="53.467438" lon="-1.714004"><ele>511</ele><time>2022-04-08T11:21:42Z</time><name>PT2591</name></trkpt>
<trkpt lat="53.467429" lon="-1.714009"><ele>511</ele><time>2022-04-08T11:21:43Z</time><name>PT2592</name></trkpt>
<trkpt lat="53.467426" lon="-1.714012"><ele>511</ele><time>2022-04-08T11:21:44Z</time><name>PT2593</name></trkpt>
<trkpt lat="53.467423" lon="-1.714012"><ele>511</ele><time>2022-04-08T11:21:45Z</time><name>PT2594</name></trkpt>
<trkpt lat="53.467414" lon="-1.714015"><ele>511</ele><time>2022-04-08T11:21:46Z</time><name>PT2595</name></trkpt>
<trkpt lat="53.467404" lon="-1.714016"><ele>511</ele><time>2022-04-08T11:21:47Z</time><name>PT2596</name></trkpt>
<trkpt lat="53.467392" lon="-1.714025"><ele>510</ele><time>2022-04-08T11:21:48Z</time><name>PT2597</name></trkpt>
<trkpt lat="53.467382" lon="-1.714025"><ele>510</ele><time>2022-04-08T11:21:49Z</time><name>PT2598</name></trkpt>
<trkpt lat="53.467369" lon="-1.714029"><ele>510</ele><time>2022-04-08T11:21:50Z</time><name>PT2599</name></trkpt>
<trkpt lat="53.467356" lon="-1.714035"><ele>510</ele><time>2022-04-08T11:21:51Z</time><name>PT2600</name></trkpt>
<trkpt lat="53.467345" lon="-1.714037"><ele>510</ele><time>2022-04-08T11:21:52Z</time><name>PT2601</name></trkpt>
<trkpt lat="53.467332" lon="-1.714039"><ele>511</ele><time>2022-04-08T11:21:53Z</time><name>PT2602</name></trkpt>
<trkpt lat="53.467319" lon="-1.714043"><ele>511</ele><time>2022-04-08T11:21:54Z</time><name>PT2603</name></trkpt>
<trkpt lat="53.467308" lon="-1.714054"><ele>511</ele><time>2022-04-08T11:21:55Z</time><name>PT2604</name></trkpt>
<trkpt lat="53.467296" lon="-1.714063"><ele>511</ele><time>2022-04-08T11:21:56Z</time><name>PT2605</name></trkpt>
<trkpt lat="53.467282" lon="-1.714070"><ele>511</ele><time>2022-04-08T11:21:57Z</time><name>PT2606</name></trkpt>
<trkpt lat="53.467272" lon="-1.714073"><ele>510</ele><time>2022-04-08T11:21:58Z</time><name>PT2607</name></trkpt>
<trkpt lat="53.467259" lon="-1.714078"><ele>511</ele><time>2022-04-08T11:21:59Z</time><name>PT2608</name></trkpt>
<trkpt lat="53.467247" lon="-1.714082"><ele>510</ele><time>2022-04-08T11:22:00Z</time><name>PT2609</name></trkpt>
<trkpt lat="53.467235" lon="-1.714087"><ele>510</ele><time>2022-04-08T11:22:01Z</time><name>PT2610</name></trkpt>
<trkpt lat="53.467222" lon="-1.714095"><ele>511</ele><time>2022-04-08T11:22:02Z</time><name>PT2611</name></trkpt>
<trkpt lat="53.467210" lon="-1.714101"><ele>511</ele><time>2022-04-08T11:22:03Z</time><name>PT2612</name></trkpt>
<trkpt lat="53.467199" lon="-1.714108"><ele>510</ele><time>2022-04-08T11:22:04Z</time><name>PT2613</name></trkpt>
<trkpt lat="53.467187" lon="-1.714113"><ele>510</ele><time>2022-04-08T11:22:05Z</time><name>PT2614</name></trkpt>
<trkpt lat="53.467177" lon="-1.714120"><ele>510</ele><time>2022-04-08T11:22:06Z</time><name>PT2615</name></trkpt>
<trkpt lat="53.467167" lon="-1.714129"><ele>510</ele><time>2022-04-08T11:22:07Z</time><name>PT2616</name></trkpt>
<trkpt lat="53.467156" lon="-1.714137"><ele>510</ele><time>2022-04-08T11:22:08Z</time><name>PT2617</name></trkpt>
<trkpt lat="53.467144" lon="-1.714145"><ele>510</ele><time>2022-04-08T11:22:09Z</time><name>PT2618</name></trkpt>
<trkpt lat="53.467133" lon="-1.714152"><ele>510</ele><time>2022-04-08T11:22:10Z</time><name>PT2619</name></trkpt>
<trkpt lat="53.467121" lon="-1.714156"><ele>510</ele><time>2022-04-08T11:22:11Z</time><name>PT2620</name></trkpt>
<trkpt lat="53.467110" lon="-1.714160"><ele>510</ele><time>2022-04-08T11:22:12Z</time><name>PT2621</name></trkpt>
<trkpt lat="53.467101" lon="-1.714166"><ele>509</ele><time>2022-04-08T11:22:13Z</time><name>PT2622</name></trkpt>
<trkpt lat="53.467090" lon="-1.714174"><ele>509</ele><time>2022-04-08T11:22:14Z</time><name>PT2623</name></trkpt>
<trkpt lat="53.467077" lon="-1.714177"><ele>509</ele><time>2022-04-08T11:22:15Z</time><name>PT2624</name></trkpt>
<trkpt lat="53.467066" lon="-1.714181"><ele>509</ele><time>2022-04-08T11:22:16Z</time><name>PT2625</name></trkpt>
<trkpt lat="53.467053" lon="-1.714185"><ele>509</ele><time>2022-04-08T11:22:17Z</time><name>PT2626</name></trkpt>
<trkpt lat="53.467039" lon="-1.714190"><ele>509</ele><time>2022-04-08T11:22:18Z</time><name>PT2627</name></trkpt>
<trkpt lat="53.467028" lon="-1.714193"><ele>509</ele><time>2022-04-08T11:22:19Z</time><name>PT2628</name></trkpt>
<trkpt lat="53.467016" lon="-1.714194"><ele>509</ele><time>2022-04-08T11:22:20Z</time><name>PT2629</name></trkpt>
<trkpt lat="53.467004" lon="-1.714198"><ele>509</ele><time>2022-04-08T11:22:21Z</time><name>PT2630</name></trkpt>
<trkpt lat="53.466991" lon="-1.714202"><ele>509</ele><time>2022-04-08T11:22:22Z</time><name>PT2631</name></trkpt>
<trkpt lat="53.466980" lon="-1.714208"><ele>508</ele><time>2022-04-08T11:22:23Z</time><name>PT2632</name></trkpt>
<trkpt lat="53.466968" lon="-1.714210"><ele>508</ele><time>2022-04-08T11:22:24Z</time><name>PT2633</name></trkpt>
<trkpt lat="53.466954" lon="-1.714212"><ele>508</ele><time>2022-04-08T11:22:25Z</time><name>PT2634</name></trkpt>
<trkpt lat="53.466940" lon="-1.714214"><ele>508</ele><time>2022-04-08T11:22:26Z</time><name>PT2635</name></trkpt>
<trkpt lat="53.466929" lon="-1.714217"><ele>508</ele><time>2022-04-08T11:22:27Z</time><name>PT2636</name></trkpt>
<trkpt lat="53.466917" lon="-1.714222"><ele>508</ele><time>2022-04-08T11:22:28Z</time><name>PT2637</name></trkpt>
<trkpt lat="53.466906" lon="-1.714223"><ele>508</ele><time>2022-04-08T11:22:29Z</time><name>PT2638</name></trkpt>
<trkpt lat="53.466896" lon="-1.714226"><ele>508</ele><time>2022-04-08T11:22:30Z</time><name>PT2639</name></trkpt>
<trkpt lat="53.466888" lon="-1.714228"><ele>508</ele><time>2022-04-08T11:22:31Z</time><name>PT2640</name></trkpt>
<trkpt lat="53.466874" lon="-1.714232"><ele>508</ele><time>2022-04-08T11:22:32Z</time><name>PT2641</name></trkpt>
<trkpt lat="53.466861" lon="-1.714239"><ele>508</ele><time>2022-04-08T11:22:33Z</time><name>PT2642</name></trkpt>
<trkpt lat="53.466850" lon="-1.714244"><ele>508</ele><time>2022-04-08T11:22:34Z</time><name>PT2643</name></trkpt>
<trkpt lat="53.466839" lon="-1.714248"><ele>508</ele><time>2022-04-08T11:22:35Z</time><name>PT2644</name></trkpt>
<trkpt lat="53.466829" lon="-1.714252"><ele>507</ele><time>2022-04-08T11:22:36Z</time><name>PT2645</name></trkpt>
<trkpt lat="53.466814" lon="-1.714253"><ele>507</ele><time>2022-04-08T11:22:37Z</time><name>PT2646</name></trkpt>
<trkpt lat="53.466802" lon="-1.714257"><ele>507</ele><time>2022-04-08T11:22:38Z</time><name>PT2647</name></trkpt>
<trkpt lat="53.466793" lon="-1.714260"><ele>507</ele><time>2022-04-08T11:22:39Z</time><name>PT2648</name></trkpt>
<trkpt lat="53.466778" lon="-1.714264"><ele>508</ele><time>2022-04-08T11:22:40Z</time><name>PT2649</name></trkpt>
<trkpt lat="53.466764" lon="-1.714272"><ele>508</ele><time>2022-04-08T11:22:41Z</time><name>PT2650</name></trkpt>
<trkpt lat="53.466753" lon="-1.714282"><ele>508</ele><time>2022-04-08T11:22:42Z</time><name>PT2651</name></trkpt>
<trkpt lat="53.466746" lon="-1.714292"><ele>507</ele><time>2022-04-08T11:22:43Z</time><name>PT2652</name></trkpt>
<trkpt lat="53.466738" lon="-1.714302"><ele>507</ele><time>2022-04-08T11:22:44Z</time><name>PT2653</name></trkpt>
<trkpt lat="53.466729" lon="-1.714313"><ele>507</ele><time>2022-04-08T11:22:45Z</time><name>PT2654</name></trkpt>
<trkpt lat="53.466717" lon="-1.714323"><ele>507</ele><time>2022-04-08T11:22:46Z</time><name>PT2655</name></trkpt>
<trkpt lat="53.466706" lon="-1.714331"><ele>507</ele><time>2022-04-08T11:22:47Z</time><name>PT2656</name></trkpt>
<trkpt lat="53.466692" lon="-1.714333"><ele>507</ele><time>2022-04-08T11:22:48Z</time><name>PT2657</name></trkpt>
<trkpt lat="53.466678" lon="-1.714337"><ele>507</ele><time>2022-04-08T11:22:49Z</time><name>PT2658</name></trkpt>
<trkpt lat="53.466665" lon="-1.714346"><ele>507</ele><time>2022-04-08T11:22:50Z</time><name>PT2659</name></trkpt>
<trkpt lat="53.466654" lon="-1.714352"><ele>507</ele><time>2022-04-08T11:22:51Z</time><name>PT2660</name></trkpt>
<trkpt lat="53.466645" lon="-1.714358"><ele>506</ele><time>2022-04-08T11:22:52Z</time><name>PT2661</name></trkpt>
<trkpt lat="53.466633" lon="-1.714366"><ele>506</ele><time>2022-04-08T11:22:53Z</time><name>PT2662</name></trkpt>
<trkpt lat="53.466621" lon="-1.714372"><ele>506</ele><time>2022-04-08T11:22:54Z</time><name>PT2663</name></trkpt>
<trkpt lat="53.466612" lon="-1.714377"><ele>506</ele><time>2022-04-08T11:22:55Z</time><name>PT2664</name></trkpt>
<trkpt lat="53.466603" lon="-1.714382"><ele>506</ele><time>2022-04-08T11:22:56Z</time><name>PT2665</name></trkpt>
<trkpt lat="53.466590" lon="-1.714391"><ele>506</ele><time>2022-04-08T11:22:57Z</time><name>PT2666</name></trkpt>
<trkpt lat="53.466577" lon="-1.714398"><ele>506</ele><time>2022-04-08T11:22:58Z</time><name>PT2667</name></trkpt>
<trkpt lat="53.466567" lon="-1.714403"><ele>505</ele><time>2022-04-08T11:22:59Z</time><name>PT2668</name></trkpt>
<trkpt lat="53.466557" lon="-1.714407"><ele>505</ele><time>2022-04-08T11:23:00Z</time><name>PT2669</name></trkpt>
<trkpt lat="53.466545" lon="-1.714408"><ele>505</ele><time>2022-04-08T11:23:01Z</time><name>PT2670</name></trkpt>
<trkpt lat="53.466530" lon="-1.714409"><ele>505</ele><time>2022-04-08T11:23:02Z</time><name>PT2671</name></trkpt>
<trkpt lat="53.466515" lon="-1.714413"><ele>505</ele><time>2022-04-08T11:23:03Z</time><name>PT2672</name></trkpt>
<trkpt lat="53.466501" lon="-1.714419"><ele>506</ele><time>2022-04-08T11:23:04Z</time><name>PT2673</name></trkpt>
<trkpt lat="53.466491" lon="-1.714424"><ele>505</ele><time>2022-04-08T11:23:05Z</time><name>PT2674</name></trkpt>
<trkpt lat="53.466477" lon="-1.714430"><ele>506</ele><time>2022-04-08T11:23:06Z</time><name>PT2675</name></trkpt>
<trkpt lat="53.466464" lon="-1.714441"><ele>506</ele><time>2022-04-08T11:23:07Z</time><name>PT2676</name></trkpt>
<trkpt lat="53.466450" lon="-1.714453"><ele>505</ele><time>2022-04-08T11:23:08Z</time><name>PT2677</name></trkpt>
<trkpt lat="53.466417" lon="-1.714476"><ele>506</ele><time>2022-04-08T11:23:11Z</time><name>PT2678</name></trkpt>
<trkpt lat="53.466372" lon="-1.714497"><ele>506</ele><time>2022-04-08T11:23:15Z</time><name>PT2679</name></trkpt>
<trkpt lat="53.466324" lon="-1.714511"><ele>506</ele><time>2022-04-08T11:23:19Z</time><name>PT2680</name></trkpt>
<trkpt lat="53.466283" lon="-1.714520"><ele>505</ele><time>2022-04-08T11:23:23Z</time><name>PT2681</name></trkpt>
<trkpt lat="53.466237" lon="-1.714523"><ele>505</ele><time>2022-04-08T11:23:27Z</time><name>PT2682</name></trkpt>
<trkpt lat="53.466195" lon="-1.714539"><ele>505</ele><time>2022-04-08T11:23:31Z</time><name>PT2683</name></trkpt>
<trkpt lat="53.466151" lon="-1.714576"><ele>505</ele><time>2022-04-08T11:23:35Z</time><name>PT2684</name></trkpt>
<trkpt lat="53.466144" lon="-1.714590"><ele>505</ele><time>2022-04-08T11:23:39Z</time><name>PT2685</name></trkpt>
<trkpt lat="53.466119" lon="-1.714630"><ele>506</ele><time>2022-04-08T11:23:43Z</time><name>PT2686</name></trkpt>
<trkpt lat="53.466089" lon="-1.714682"><ele>507</ele><time>2022-04-08T11:23:47Z</time><name>PT2687</name></trkpt>
<trkpt lat="53.466060" lon="-1.714734"><ele>508</ele><time>2022-04-08T11:23:51Z</time><name>PT2688</name></trkpt>
<trkpt lat="53.466031" lon="-1.714773"><ele>510</ele><time>2022-04-08T11:23:55Z</time><name>PT2689</name></trkpt>
<trkpt lat="53.466007" lon="-1.714831"><ele>511</ele><time>2022-04-08T11:23:59Z</time><name>PT2690</name></trkpt>
<trkpt lat="53.465981" lon="-1.714883"><ele>513</ele><time>2022-04-08T11:24:03Z</time><name>PT2691</name></trkpt>
<trkpt lat="53.465955" lon="-1.714937"><ele>514</ele><time>2022-04-08T11:24:07Z</time><name>PT2692</name></trkpt>
<trkpt lat="53.465924" lon="-1.714987"><ele>513</ele><time>2022-04-08T11:24:11Z</time><name>PT2693</name></trkpt>
<trkpt lat="53.465885" lon="-1.715028"><ele>515</ele><time>2022-04-08T11:24:15Z</time><name>PT2694</name></trkpt>
<trkpt lat="53.465857" lon="-1.715076"><ele>516</ele><time>2022-04-08T11:24:19Z</time><name>PT2695</name></trkpt>
<trkpt lat="53.465830" lon="-1.715130"><ele>519</ele><time>2022-04-08T11:24:23Z</time><name>PT2696</name></trkpt>
<trkpt lat="53.465797" lon="-1.715177"><ele>519</ele><time>2022-04-08T11:24:27Z</time><name>PT2697</name></trkpt>
<trkpt lat="53.465759" lon="-1.715211"><ele>518</ele><time>2022-04-08T11:24:31Z</time><name>PT2698</name></trkpt>
<trkpt lat="53.465718" lon="-1.715238"><ele>516</ele><time>2022-04-08T11:24:35Z</time><name>PT2699</name></trkpt>
<trkpt lat="53.465687" lon="-1.715293"><ele>517</ele><time>2022-04-08T11:24:39Z</time><name>PT2700</name></trkpt>
<trkpt lat="53.465656" lon="-1.715334"><ele>516</ele><time>2022-04-08T11:24:43Z</time><name>PT2701</name></trkpt>
<trkpt lat="53.465618" lon="-1.715372"><ele>514</ele><time>2022-04-08T11:24:47Z</time><name>PT2702</name></trkpt>
<trkpt lat="53.465600" lon="-1.715429"><ele>514</ele><time>2022-04-08T11:24:51Z</time><name>PT2703</name></trkpt>
<trkpt lat="53.465578" lon="-1.715482"><ele>513</ele><time>2022-04-08T11:24:55Z</time><name>PT2704</name></trkpt>
<trkpt lat="53.465543" lon="-1.715528"><ele>513</ele><time>2022-04-08T11:24:59Z</time><name>PT2705</name></trkpt>
<trkpt lat="53.465501" lon="-1.715569"><ele>513</ele><time>2022-04-08T11:25:03Z</time><name>PT2706</name></trkpt>
<trkpt lat="53.465462" lon="-1.715602"><ele>514</ele><time>2022-04-08T11:25:07Z</time><name>PT2707</name></trkpt>
<trkpt lat="53.465425" lon="-1.715651"><ele>515</ele><time>2022-04-08T11:25:11Z</time><name>PT2708</name></trkpt>
<trkpt lat="53.465406" lon="-1.715715"><ele>516</ele><time>2022-04-08T11:25:15Z</time><name>PT2709</name></trkpt>
<trkpt lat="53.465382" lon="-1.715774"><ele>516</ele><time>2022-04-08T11:25:19Z</time><name>PT2710</name></trkpt>
<trkpt lat="53.465348" lon="-1.715829"><ele>516</ele><time>2022-04-08T11:25:23Z</time><name>PT2711</name></trkpt>
<trkpt lat="53.465307" lon="-1.715878"><ele>516</ele><time>2022-04-08T11:25:27Z</time><name>PT2712</name></trkpt>
<trkpt lat="53.465270" lon="-1.715936"><ele>515</ele><time>2022-04-08T11:25:31Z</time><name>PT2713</name></trkpt>
<trkpt lat="53.465241" lon="-1.715984"><ele>515</ele><time>2022-04-08T11:25:35Z</time><name>PT2714</name></trkpt>
<trkpt lat="53.465205" lon="-1.716030"><ele>515</ele><time>2022-04-08T11:25:39Z</time><name>PT2715</name></trkpt>
<trkpt lat="53.465177" lon="-1.716062"><ele>515</ele><time>2022-04-08T11:25:42Z</time><name>PT2716</name></trkpt>
<trkpt lat="53.465169" lon="-1.716073"><ele>516</ele><time>2022-04-08T11:25:43Z</time><name>PT2717</name></trkpt>
<trkpt lat="53.465157" lon="-1.716091"><ele>515</ele><time>2022-04-08T11:25:44Z</time><name>PT2718</name></trkpt>
<trkpt lat="53.465159" lon="-1.716105"><ele>515</ele><time>2022-04-08T11:25:45Z</time><name>PT2719</name></trkpt>
<trkpt lat="53.465156" lon="-1.716122"><ele>515</ele><time>2022-04-08T11:25:46Z</time><name>PT2720</name></trkpt>
<trkpt lat="53.465154" lon="-1.716141"><ele>515</ele><time>2022-04-08T11:25:47Z</time><name>PT2721</name></trkpt>
<trkpt lat="53.465149" lon="-1.716158"><ele>515</ele><time>2022-04-08T11:25:48Z</time><name>PT2722</name></trkpt>
<trkpt lat="53.465148" lon="-1.716159"><ele>515</ele><time>2022-04-08T11:25:49Z</time><name>PT2723</name></trkpt>
<trkpt lat="53.465148" lon="-1.716162"><ele>515</ele><time>2022-04-08T11:25:50Z</time><name>PT2724</name></trkpt>
<trkpt lat="53.465145" lon="-1.716165"><ele>515</ele><time>2022-04-08T11:25:51Z</time><name>PT2725</name></trkpt>
<trkpt lat="53.465140" lon="-1.716173"><ele>515</ele><time>2022-04-08T11:25:52Z</time><name>PT2726</name></trkpt>
<trkpt lat="53.465134" lon="-1.716188"><ele>515</ele><time>2022-04-08T11:25:53Z</time><name>PT2727</name></trkpt>
<trkpt lat="53.465131" lon="-1.716202"><ele>515</ele><time>2022-04-08T11:25:54Z</time><name>PT2728</name></trkpt>
<trkpt lat="53.465128" lon="-1.716215"><ele>515</ele><time>2022-04-08T11:25:55Z</time><name>PT2729</name></trkpt>
<trkpt lat="53.465126" lon="-1.716234"><ele>516</ele><time>2022-04-08T11:25:56Z</time><name>PT2730</name></trkpt>
<trkpt lat="53.465120" lon="-1.716252"><ele>516</ele><time>2022-04-08T11:25:58Z</time><name>PT2731</name></trkpt>
<trkpt lat="53.465115" lon="-1.716268"><ele>516</ele><time>2022-04-08T11:25:58Z</time><name>PT2732</name></trkpt>
<trkpt lat="53.465112" lon="-1.716284"><ele>517</ele><time>2022-04-08T11:25:59Z</time><name>PT2733</name></trkpt>
<trkpt lat="53.465111" lon="-1.716299"><ele>517</ele><time>2022-04-08T11:26:00Z</time><name>PT2734</name></trkpt>
<trkpt lat="53.465109" lon="-1.716322"><ele>517</ele><time>2022-04-08T11:26:01Z</time><name>PT2735</name></trkpt>
<trkpt lat="53.465102" lon="-1.716335"><ele>518</ele><time>2022-04-08T11:26:02Z</time><name>PT2736</name></trkpt>
<trkpt lat="53.465096" lon="-1.716350"><ele>517</ele><time>2022-04-08T11:26:03Z</time><name>PT2737</name></trkpt>
<trkpt lat="53.465093" lon="-1.716367"><ele>518</ele><time>2022-04-08T11:26:04Z</time><name>PT2738</name></trkpt>
<trkpt lat="53.465088" lon="-1.716384"><ele>518</ele><time>2022-04-08T11:26:05Z</time><name>PT2739</name></trkpt>
<trkpt lat="53.465083" lon="-1.716406"><ele>518</ele><time>2022-04-08T11:26:06Z</time><name>PT2740</name></trkpt>
<trkpt lat="53.465077" lon="-1.716420"><ele>518</ele><time>2022-04-08T11:26:08Z</time><name>PT2741</name></trkpt>
<trkpt lat="53.465072" lon="-1.716442"><ele>517</ele><time>2022-04-08T11:26:08Z</time><name>PT2742</name></trkpt>
<trkpt lat="53.465069" lon="-1.716461"><ele>517</ele><time>2022-04-08T11:26:09Z</time><name>PT2743</name></trkpt>
<trkpt lat="53.465066" lon="-1.716478"><ele>517</ele><time>2022-04-08T11:26:10Z</time><name>PT2744</name></trkpt>
<trkpt lat="53.465060" lon="-1.716494"><ele>517</ele><time>2022-04-08T11:26:11Z</time><name>PT2745</name></trkpt>
<trkpt lat="53.465052" lon="-1.716512"><ele>517</ele><time>2022-04-08T11:26:12Z</time><name>PT2746</name></trkpt>
<trkpt lat="53.465046" lon="-1.716527"><ele>517</ele><time>2022-04-08T11:26:13Z</time><name>PT2747</name></trkpt>
<trkpt lat="53.465040" lon="-1.716546"><ele>518</ele><time>2022-04-08T11:26:14Z</time><name>PT2748</name></trkpt>
<trkpt lat="53.465038" lon="-1.716560"><ele>518</ele><time>2022-04-08T11:26:15Z</time><name>PT2749</name></trkpt>
<trkpt lat="53.465038" lon="-1.716578"><ele>518</ele><time>2022-04-08T11:26:16Z</time><name>PT2750</name></trkpt>
<trkpt lat="53.465039" lon="-1.716595"><ele>518</ele><time>2022-04-08T11:26:18Z</time><name>PT2751</name></trkpt>
<trkpt lat="53.465038" lon="-1.716612"><ele>518</ele><time>2022-04-08T11:26:18Z</time><name>PT2752</name></trkpt>
<trkpt lat="53.465035" lon="-1.716629"><ele>518</ele><time>2022-04-08T11:26:19Z</time><name>PT2753</name></trkpt>
<trkpt lat="53.465033" lon="-1.716649"><ele>518</ele><time>2022-04-08T11:26:20Z</time><name>PT2754</name></trkpt>
<trkpt lat="53.465031" lon="-1.716663"><ele>519</ele><time>2022-04-08T11:26:21Z</time><name>PT2755</name></trkpt>
<trkpt lat="53.465030" lon="-1.716677"><ele>519</ele><time>2022-04-08T11:26:22Z</time><name>PT2756</name></trkpt>
<trkpt lat="53.465023" lon="-1.716691"><ele>518</ele><time>2022-04-08T11:26:23Z</time><name>PT2757</name></trkpt>
<trkpt lat="53.465018" lon="-1.716707"><ele>518</ele><time>2022-04-08T11:26:24Z</time><name>PT2758</name></trkpt>
<trkpt lat="53.465015" lon="-1.716728"><ele>518</ele><time>2022-04-08T11:26:25Z</time><name>PT2759</name></trkpt>
<trkpt lat="53.465014" lon="-1.716749"><ele>518</ele><time>2022-04-08T11:26:26Z</time><name>PT2760</name></trkpt>
<trkpt lat="53.465012" lon="-1.716766"><ele>518</ele><time>2022-04-08T11:26:27Z</time><name>PT2761</name></trkpt>
<trkpt lat="53.465010" lon="-1.716783"><ele>519</ele><time>2022-04-08T11:26:28Z</time><name>PT2762</name></trkpt>
<trkpt lat="53.465008" lon="-1.716803"><ele>519</ele><time>2022-04-08T11:26:29Z</time><name>PT2763</name></trkpt>
<trkpt lat="53.465004" lon="-1.716818"><ele>519</ele><time>2022-04-08T11:26:30Z</time><name>PT2764</name></trkpt>
<trkpt lat="53.464999" lon="-1.716839"><ele>518</ele><time>2022-04-08T11:26:31Z</time><name>PT2765</name></trkpt>
<trkpt lat="53.464997" lon="-1.716859"><ele>518</ele><time>2022-04-08T11:26:32Z</time><name>PT2766</name></trkpt>
<trkpt lat="53.464997" lon="-1.716876"><ele>518</ele><time>2022-04-08T11:26:33Z</time><name>PT2767</name></trkpt>
<trkpt lat="53.464998" lon="-1.716895"><ele>519</ele><time>2022-04-08T11:26:34Z</time><name>PT2768</name></trkpt>
<trkpt lat="53.464997" lon="-1.716917"><ele>519</ele><time>2022-04-08T11:26:35Z</time><name>PT2769</name></trkpt>
<trkpt lat="53.464992" lon="-1.716937"><ele>519</ele><time>2022-04-08T11:26:36Z</time><name>PT2770</name></trkpt>
<trkpt lat="53.464987" lon="-1.716954"><ele>520</ele><time>2022-04-08T11:26:37Z</time><name>PT2771</name></trkpt>
<trkpt lat="53.464982" lon="-1.716973"><ele>520</ele><time>2022-04-08T11:26:38Z</time><name>PT2772</name></trkpt>
<trkpt lat="53.464980" lon="-1.716990"><ele>520</ele><time>2022-04-08T11:26:39Z</time><name>PT2773</name></trkpt>
<trkpt lat="53.464977" lon="-1.717010"><ele>520</ele><time>2022-04-08T11:26:40Z</time><name>PT2774</name></trkpt>
<trkpt lat="53.464973" lon="-1.717028"><ele>520</ele><time>2022-04-08T11:26:41Z</time><name>PT2775</name></trkpt>
<trkpt lat="53.464968" lon="-1.717045"><ele>520</ele><time>2022-04-08T11:26:42Z</time><name>PT2776</name></trkpt>
<trkpt lat="53.464962" lon="-1.717060"><ele>520</ele><time>2022-04-08T11:26:43Z</time><name>PT2777</name></trkpt>
<trkpt lat="53.464959" lon="-1.717076"><ele>521</ele><time>2022-04-08T11:26:44Z</time><name>PT2778</name></trkpt>
<trkpt lat="53.464955" lon="-1.717092"><ele>521</ele><time>2022-04-08T11:26:45Z</time><name>PT2779</name></trkpt>
<trkpt lat="53.464951" lon="-1.717109"><ele>521</ele><time>2022-04-08T11:26:46Z</time><name>PT2780</name></trkpt>
<trkpt lat="53.464947" lon="-1.717126"><ele>521</ele><time>2022-04-08T11:26:47Z</time><name>PT2781</name></trkpt>
<trkpt lat="53.464942" lon="-1.717145"><ele>521</ele><time>2022-04-08T11:26:48Z</time><name>PT2782</name></trkpt>
<trkpt lat="53.464936" lon="-1.717162"><ele>521</ele><time>2022-04-08T11:26:49Z</time><name>PT2783</name></trkpt>
<trkpt lat="53.464930" lon="-1.717178"><ele>522</ele><time>2022-04-08T11:26:50Z</time><name>PT2784</name></trkpt>
<trkpt lat="53.464925" lon="-1.717195"><ele>522</ele><time>2022-04-08T11:26:51Z</time><name>PT2785</name></trkpt>
<trkpt lat="53.464919" lon="-1.717208"><ele>522</ele><time>2022-04-08T11:26:52Z</time><name>PT2786</name></trkpt>
<trkpt lat="53.464913" lon="-1.717225"><ele>522</ele><time>2022-04-08T11:26:53Z</time><name>PT2787</name></trkpt>
<trkpt lat="53.464906" lon="-1.717245"><ele>521</ele><time>2022-04-08T11:26:54Z</time><name>PT2788</name></trkpt>
<trkpt lat="53.464898" lon="-1.717262"><ele>521</ele><time>2022-04-08T11:26:55Z</time><name>PT2789</name></trkpt>
<trkpt lat="53.464889" lon="-1.717279"><ele>521</ele><time>2022-04-08T11:26:56Z</time><name>PT2790</name></trkpt>
<trkpt lat="53.464881" lon="-1.717293"><ele>521</ele><time>2022-04-08T11:26:57Z</time><name>PT2791</name></trkpt>
<trkpt lat="53.464876" lon="-1.717306"><ele>521</ele><time>2022-04-08T11:26:58Z</time><name>PT2792</name></trkpt>
<trkpt lat="53.464869" lon="-1.717322"><ele>521</ele><time>2022-04-08T11:26:59Z</time><name>PT2793</name></trkpt>
<trkpt lat="53.464862" lon="-1.717337"><ele>521</ele><time>2022-04-08T11:27:00Z</time><name>PT2794</name></trkpt>
<trkpt lat="53.464853" lon="-1.717350"><ele>521</ele><time>2022-04-08T11:27:01Z</time><name>PT2795</name></trkpt>
<trkpt lat="53.464843" lon="-1.717364"><ele>520</ele><time>2022-04-08T11:27:02Z</time><name>PT2796</name></trkpt>
<trkpt lat="53.464831" lon="-1.717379"><ele>520</ele><time>2022-04-08T11:27:03Z</time><name>PT2797</name></trkpt>
<trkpt lat="53.464822" lon="-1.717392"><ele>520</ele><time>2022-04-08T11:27:04Z</time><name>PT2798</name></trkpt>
<trkpt lat="53.464812" lon="-1.717404"><ele>520</ele><time>2022-04-08T11:27:05Z</time><name>PT2799</name></trkpt>
<trkpt lat="53.464802" lon="-1.717421"><ele>520</ele><time>2022-04-08T11:27:06Z</time><name>PT2800</name></trkpt>
<trkpt lat="53.464794" lon="-1.717437"><ele>520</ele><time>2022-04-08T11:27:07Z</time><name>PT2801</name></trkpt>
<trkpt lat="53.464782" lon="-1.717446"><ele>520</ele><time>2022-04-08T11:27:08Z</time><name>PT2802</name></trkpt>
<trkpt lat="53.464768" lon="-1.717456"><ele>519</ele><time>2022-04-08T11:27:09Z</time><name>PT2803</name></trkpt>
<trkpt lat="53.464755" lon="-1.717464"><ele>519</ele><time>2022-04-08T11:27:10Z</time><name>PT2804</name></trkpt>
<trkpt lat="53.464746" lon="-1.717473"><ele>519</ele><time>2022-04-08T11:27:11Z</time><name>PT2805</name></trkpt>
<trkpt lat="53.464736" lon="-1.717485"><ele>519</ele><time>2022-04-08T11:27:12Z</time><name>PT2806</name></trkpt>
<trkpt lat="53.464725" lon="-1.717497"><ele>519</ele><time>2022-04-08T11:27:13Z</time><name>PT2807</name></trkpt>
<trkpt lat="53.464714" lon="-1.717509"><ele>518</ele><time>2022-04-08T11:27:14Z</time><name>PT2808</name></trkpt>
<trkpt lat="53.464704" lon="-1.717518"><ele>518</ele><time>2022-04-08T11:27:15Z</time><name>PT2809</name></trkpt>
<trkpt lat="53.464691" lon="-1.717524"><ele>518</ele><time>2022-04-08T11:27:16Z</time><name>PT2810</name></trkpt>
<trkpt lat="53.464679" lon="-1.717528"><ele>518</ele><time>2022-04-08T11:27:17Z</time><name>PT2811</name></trkpt>
<trkpt lat="53.464667" lon="-1.717536"><ele>517</ele><time>2022-04-08T11:27:18Z</time><name>PT2812</name></trkpt>
<trkpt lat="53.464654" lon="-1.717548"><ele>517</ele><time>2022-04-08T11:27:19Z</time><name>PT2813</name></trkpt>
<trkpt lat="53.464645" lon="-1.717563"><ele>517</ele><time>2022-04-08T11:27:20Z</time><name>PT2814</name></trkpt>
<trkpt lat="53.464637" lon="-1.717570"><ele>517</ele><time>2022-04-08T11:27:21Z</time><name>PT2815</name></trkpt>
<trkpt lat="53.464629" lon="-1.717580"><ele>516</ele><time>2022-04-08T11:27:22Z</time><name>PT2816</name></trkpt>
<trkpt lat="53.464623" lon="-1.717590"><ele>516</ele><time>2022-04-08T11:27:23Z</time><name>PT2817</name></trkpt>
<trkpt lat="53.464620" lon="-1.717607"><ele>516</ele><time>2022-04-08T11:27:24Z</time><name>PT2818</name></trkpt>
<trkpt lat="53.464616" lon="-1.717624"><ele>516</ele><time>2022-04-08T11:27:25Z</time><name>PT2819</name></trkpt>
<trkpt lat="53.464607" lon="-1.717640"><ele>516</ele><time>2022-04-08T11:27:26Z</time><name>PT2820</name></trkpt>
<trkpt lat="53.464597" lon="-1.717650"><ele>516</ele><time>2022-04-08T11:27:27Z</time><name>PT2821</name></trkpt>
<trkpt lat="53.464588" lon="-1.717660"><ele>516</ele><time>2022-04-08T11:27:28Z</time><name>PT2822</name></trkpt>
<trkpt lat="53.464577" lon="-1.717668"><ele>517</ele><time>2022-04-08T11:27:29Z</time><name>PT2823</name></trkpt>
<trkpt lat="53.464563" lon="-1.717668"><ele>516</ele><time>2022-04-08T11:27:30Z</time><name>PT2824</name></trkpt>
<trkpt lat="53.464552" lon="-1.717669"><ele>516</ele><time>2022-04-08T11:27:31Z</time><name>PT2825</name></trkpt>
<trkpt lat="53.464540" lon="-1.717664"><ele>516</ele><time>2022-04-08T11:27:32Z</time><name>PT2826</name></trkpt>
<trkpt lat="53.464530" lon="-1.717670"><ele>516</ele><time>2022-04-08T11:27:33Z</time><name>PT2827</name></trkpt>
<trkpt lat="53.464520" lon="-1.717678"><ele>516</ele><time>2022-04-08T11:27:34Z</time><name>PT2828</name></trkpt>
<trkpt lat="53.464511" lon="-1.717687"><ele>516</ele><time>2022-04-08T11:27:35Z</time><name>PT2829</name></trkpt>
<trkpt lat="53.464504" lon="-1.717701"><ele>515</ele><time>2022-04-08T11:27:36Z</time><name>PT2830</name></trkpt>
<trkpt lat="53.464498" lon="-1.717716"><ele>515</ele><time>2022-04-08T11:27:37Z</time><name>PT2831</name></trkpt>
<trkpt lat="53.464493" lon="-1.717731"><ele>515</ele><time>2022-04-08T11:27:38Z</time><name>PT2832</name></trkpt>
<trkpt lat="53.464488" lon="-1.717742"><ele>516</ele><time>2022-04-08T11:27:39Z</time><name>PT2833</name></trkpt>
<trkpt lat="53.464480" lon="-1.717752"><ele>516</ele><time>2022-04-08T11:27:40Z</time><name>PT2834</name></trkpt>
<trkpt lat="53.464471" lon="-1.717759"><ele>516</ele><time>2022-04-08T11:27:41Z</time><name>PT2835</name></trkpt>
<trkpt lat="53.464463" lon="-1.717767"><ele>516</ele><time>2022-04-08T11:27:42Z</time><name>PT2836</name></trkpt>
<trkpt lat="53.464439" lon="-1.717793"><ele>517</ele><time>2022-04-08T11:27:45Z</time><name>PT2837</name></trkpt>
<trkpt lat="53.464399" lon="-1.717818"><ele>516</ele><time>2022-04-08T11:27:49Z</time><name>PT2838</name></trkpt>
<trkpt lat="53.464358" lon="-1.717852"><ele>515</ele><time>2022-04-08T11:27:53Z</time><name>PT2839</name></trkpt>
<trkpt lat="53.464328" lon="-1.717914"><ele>515</ele><time>2022-04-08T11:27:57Z</time><name>PT2840</name></trkpt>
<trkpt lat="53.464289" lon="-1.717959"><ele>515</ele><time>2022-04-08T11:28:01Z</time><name>PT2841</name></trkpt>
<trkpt lat="53.464229" lon="-1.717973"><ele>516</ele><time>2022-04-08T11:28:05Z</time><name>PT2842</name></trkpt>
<trkpt lat="53.464191" lon="-1.717980"><ele>517</ele><time>2022-04-08T11:28:09Z</time><name>PT2843</name></trkpt>
<trkpt lat="53.464154" lon="-1.717992"><ele>517</ele><time>2022-04-08T11:28:13Z</time><name>PT2844</name></trkpt>
<trkpt lat="53.464119" lon="-1.718015"><ele>518</ele><time>2022-04-08T11:28:18Z</time><name>PT2845</name></trkpt>
<trkpt lat="53.464088" lon="-1.718045"><ele>518</ele><time>2022-04-08T11:28:21Z</time><name>PT2846</name></trkpt>
<trkpt lat="53.464047" lon="-1.718086"><ele>520</ele><time>2022-04-08T11:28:25Z</time><name>PT2847</name></trkpt>
<trkpt lat="53.464014" lon="-1.718132"><ele>519</ele><time>2022-04-08T11:28:29Z</time><name>PT2848</name></trkpt>
<trkpt lat="53.463983" lon="-1.718171"><ele>520</ele><time>2022-04-08T11:28:33Z</time><name>PT2849</name></trkpt>
<trkpt lat="53.463946" lon="-1.718203"><ele>520</ele><time>2022-04-08T11:28:37Z</time><name>PT2850</name></trkpt>
<trkpt lat="53.463908" lon="-1.718237"><ele>520</ele><time>2022-04-08T11:28:41Z</time><name>PT2851</name></trkpt>
<trkpt lat="53.463873" lon="-1.718266"><ele>519</ele><time>2022-04-08T11:28:45Z</time><name>PT2852</name></trkpt>
<trkpt lat="53.463827" lon="-1.718306"><ele>518</ele><time>2022-04-08T11:28:49Z</time><name>PT2853</name></trkpt>
<trkpt lat="53.463786" lon="-1.718339"><ele>517</ele><time>2022-04-08T11:28:53Z</time><name>PT2854</name></trkpt>
<trkpt lat="53.463749" lon="-1.718373"><ele>517</ele><time>2022-04-08T11:28:57Z</time><name>PT2855</name></trkpt>
<trkpt lat="53.463703" lon="-1.718410"><ele>518</ele><time>2022-04-08T11:29:01Z</time><name>PT2856</name></trkpt>
<trkpt lat="53.463662" lon="-1.718439"><ele>518</ele><time>2022-04-08T11:29:05Z</time><name>PT2857</name></trkpt>
<trkpt lat="53.463622" lon="-1.718468"><ele>518</ele><time>2022-04-08T11:29:09Z</time><name>PT2858</name></trkpt>
<trkpt lat="53.463575" lon="-1.718484"><ele>519</ele><time>2022-04-08T11:29:13Z</time><name>PT2859</name></trkpt>
<trkpt lat="53.463542" lon="-1.718536"><ele>520</ele><time>2022-04-08T11:29:17Z</time><name>PT2860</name></trkpt>
<trkpt lat="53.463521" lon="-1.718594"><ele>521</ele><time>2022-04-08T11:29:21Z</time><name>PT2861</name></trkpt>
<trkpt lat="53.463482" lon="-1.718616"><ele>522</ele><time>2022-04-08T11:29:25Z</time><name>PT2862</name></trkpt>
<trkpt lat="53.463445" lon="-1.718650"><ele>522</ele><time>2022-04-08T11:29:29Z</time><name>PT2863</name></trkpt>
<trkpt lat="53.463409" lon="-1.718683"><ele>521</ele><time>2022-04-08T11:29:33Z</time><name>PT2864</name></trkpt>
<trkpt lat="53.463377" lon="-1.718716"><ele>521</ele><time>2022-04-08T11:29:37Z</time><name>PT2865</name></trkpt>
<trkpt lat="53.463346" lon="-1.718739"><ele>521</ele><time>2022-04-08T11:29:41Z</time><name>PT2866</name></trkpt>
<trkpt lat="53.463317" lon="-1.718771"><ele>521</ele><time>2022-04-08T11:29:45Z</time><name>PT2867</name></trkpt>
<trkpt lat="53.463275" lon="-1.718799"><ele>521</ele><time>2022-04-08T11:29:49Z</time><name>PT2868</name></trkpt>
<trkpt lat="53.463240" lon="-1.718837"><ele>520</ele><time>2022-04-08T11:29:53Z</time><name>PT2869</name></trkpt>
<trkpt lat="53.463205" lon="-1.718881"><ele>521</ele><time>2022-04-08T11:29:57Z</time><name>PT2870</name></trkpt>
<trkpt lat="53.463173" lon="-1.718913"><ele>521</ele><time>2022-04-08T11:30:01Z</time><name>PT2871</name></trkpt>
<trkpt lat="53.463132" lon="-1.718944"><ele>523</ele><time>2022-04-08T11:30:04Z</time><name>PT2872</name></trkpt>
<trkpt lat="53.463124" lon="-1.718953"><ele>524</ele><time>2022-04-08T11:30:05Z</time><name>PT2873</name></trkpt>
<trkpt lat="53.463117" lon="-1.718963"><ele>524</ele><time>2022-04-08T11:30:06Z</time><name>PT2874</name></trkpt>
<trkpt lat="53.463110" lon="-1.718971"><ele>525</ele><time>2022-04-08T11:30:07Z</time><name>PT2875</name></trkpt>
<trkpt lat="53.463103" lon="-1.718981"><ele>525</ele><time>2022-04-08T11:30:08Z</time><name>PT2876</name></trkpt>
<trkpt lat="53.463097" lon="-1.718988"><ele>525</ele><time>2022-04-08T11:30:10Z</time><name>PT2877</name></trkpt>
<trkpt lat="53.463095" lon="-1.718992"><ele>525</ele><time>2022-04-08T11:30:10Z</time><name>PT2878</name></trkpt>
<trkpt lat="53.463099" lon="-1.719006"><ele>524</ele><time>2022-04-08T11:30:12Z</time><name>PT2879</name></trkpt>
<trkpt lat="53.463094" lon="-1.719013"><ele>524</ele><time>2022-04-08T11:30:12Z</time><name>PT2880</name></trkpt>
<trkpt lat="53.463085" lon="-1.719017"><ele>523</ele><time>2022-04-08T11:30:13Z</time><name>PT2881</name></trkpt>
<trkpt lat="53.463070" lon="-1.719018"><ele>524</ele><time>2022-04-08T11:30:14Z</time><name>PT2882</name></trkpt>
<trkpt lat="53.463058" lon="-1.719022"><ele>524</ele><time>2022-04-08T11:30:15Z</time><name>PT2883</name></trkpt>
<trkpt lat="53.463047" lon="-1.719024"><ele>524</ele><time>2022-04-08T11:30:16Z</time><name>PT2884</name></trkpt>
<trkpt lat="53.463029" lon="-1.719024"><ele>523</ele><time>2022-04-08T11:30:17Z</time><name>PT2885</name></trkpt>
<trkpt lat="53.463015" lon="-1.719023"><ele>523</ele><time>2022-04-08T11:30:18Z</time><name>PT2886</name></trkpt>
<trkpt lat="53.462998" lon="-1.719022"><ele>523</ele><time>2022-04-08T11:30:19Z</time><name>PT2887</name></trkpt>
<trkpt lat="53.462983" lon="-1.719028"><ele>523</ele><time>2022-04-08T11:30:20Z</time><name>PT2888</name></trkpt>
<trkpt lat="53.462973" lon="-1.719033"><ele>523</ele><time>2022-04-08T11:30:21Z</time><name>PT2889</name></trkpt>
<trkpt lat="53.462968" lon="-1.719045"><ele>523</ele><time>2022-04-08T11:30:22Z</time><name>PT2890</name></trkpt>
<trkpt lat="53.462962" lon="-1.719064"><ele>524</ele><time>2022-04-08T11:30:23Z</time><name>PT2891</name></trkpt>
<trkpt lat="53.462956" lon="-1.719079"><ele>524</ele><time>2022-04-08T11:30:24Z</time><name>PT2892</name></trkpt>
<trkpt lat="53.462946" lon="-1.719094"><ele>524</ele><time>2022-04-08T11:30:25Z</time><name>PT2893</name></trkpt>
<trkpt lat="53.462935" lon="-1.719108"><ele>525</ele><time>2022-04-08T11:30:26Z</time><name>PT2894</name></trkpt>
<trkpt lat="53.462927" lon="-1.719119"><ele>525</ele><time>2022-04-08T11:30:27Z</time><name>PT2895</name></trkpt>
<trkpt lat="53.462919" lon="-1.719128"><ele>525</ele><time>2022-04-08T11:30:28Z</time><name>PT2896</name></trkpt>
<trkpt lat="53.462911" lon="-1.719136"><ele>524</ele><time>2022-04-08T11:30:29Z</time><name>PT2897</name></trkpt>
<trkpt lat="53.462901" lon="-1.719144"><ele>524</ele><time>2022-04-08T11:30:30Z</time><name>PT2898</name></trkpt>
<trkpt lat="53.462891" lon="-1.719152"><ele>523</ele><time>2022-04-08T11:30:31Z</time><name>PT2899</name></trkpt>
<trkpt lat="53.462883" lon="-1.719163"><ele>524</ele><time>2022-04-08T11:30:32Z</time><name>PT2900</name></trkpt>
<trkpt lat="53.462873" lon="-1.719176"><ele>524</ele><time>2022-04-08T11:30:33Z</time><name>PT2901</name></trkpt>
<trkpt lat="53.462863" lon="-1.719181"><ele>524</ele><time>2022-04-08T11:30:34Z</time><name>PT2902</name></trkpt>
<trkpt lat="53.462853" lon="-1.719182"><ele>525</ele><time>2022-04-08T11:30:35Z</time><name>PT2903</name></trkpt>
<trkpt lat="53.462844" lon="-1.719192"><ele>525</ele><time>2022-04-08T11:30:36Z</time><name>PT2904</name></trkpt>
<trkpt lat="53.462836" lon="-1.719202"><ele>525</ele><time>2022-04-08T11:30:37Z</time><name>PT2905</name></trkpt>
<trkpt lat="53.462826" lon="-1.719210"><ele>525</ele><time>2022-04-08T11:30:38Z</time><name>PT2906</name></trkpt>
<trkpt lat="53.462813" lon="-1.719216"><ele>525</ele><time>2022-04-08T11:30:39Z</time><name>PT2907</name></trkpt>
<trkpt lat="53.462802" lon="-1.719222"><ele>525</ele><time>2022-04-08T11:30:40Z</time><name>PT2908</name></trkpt>
<trkpt lat="53.462790" lon="-1.719232"><ele>524</ele><time>2022-04-08T11:30:41Z</time><name>PT2909</name></trkpt>
<trkpt lat="53.462782" lon="-1.719240"><ele>524</ele><time>2022-04-08T11:30:42Z</time><name>PT2910</name></trkpt>
<trkpt lat="53.462776" lon="-1.719249"><ele>525</ele><time>2022-04-08T11:30:43Z</time><name>PT2911</name></trkpt>
<trkpt lat="53.462768" lon="-1.719263"><ele>525</ele><time>2022-04-08T11:30:44Z</time><name>PT2912</name></trkpt>
<trkpt lat="53.462759" lon="-1.719274"><ele>525</ele><time>2022-04-08T11:30:45Z</time><name>PT2913</name></trkpt>
<trkpt lat="53.462750" lon="-1.719282"><ele>525</ele><time>2022-04-08T11:30:46Z</time><name>PT2914</name></trkpt>
<trkpt lat="53.462738" lon="-1.719289"><ele>525</ele><time>2022-04-08T11:30:47Z</time><name>PT2915</name></trkpt>
<trkpt lat="53.462724" lon="-1.719294"><ele>526</ele><time>2022-04-08T11:30:48Z</time><name>PT2916</name></trkpt>
<trkpt lat="53.462711" lon="-1.719299"><ele>525</ele><time>2022-04-08T11:30:49Z</time><name>PT2917</name></trkpt>
<trkpt lat="53.462698" lon="-1.719298"><ele>525</ele><time>2022-04-08T11:30:50Z</time><name>PT2918</name></trkpt>
<trkpt lat="53.462684" lon="-1.719298"><ele>525</ele><time>2022-04-08T11:30:51Z</time><name>PT2919</name></trkpt>
<trkpt lat="53.462672" lon="-1.719302"><ele>524</ele><time>2022-04-08T11:30:52Z</time><name>PT2920</name></trkpt>
<trkpt lat="53.462659" lon="-1.719303"><ele>524</ele><time>2022-04-08T11:30:53Z</time><name>PT2921</name></trkpt>
<trkpt lat="53.462645" lon="-1.719303"><ele>524</ele><time>2022-04-08T11:30:54Z</time><name>PT2922</name></trkpt>
<trkpt lat="53.462631" lon="-1.719303"><ele>523</ele><time>2022-04-08T11:30:55Z</time><name>PT2923</name></trkpt>
<trkpt lat="53.462620" lon="-1.719305"><ele>523</ele><time>2022-04-08T11:30:56Z</time><name>PT2924</name></trkpt>
<trkpt lat="53.462609" lon="-1.719311"><ele>523</ele><time>2022-04-08T11:30:57Z</time><name>PT2925</name></trkpt>
<trkpt lat="53.462598" lon="-1.719318"><ele>523</ele><time>2022-04-08T11:30:58Z</time><name>PT2926</name></trkpt>
<trkpt lat="53.462587" lon="-1.719324"><ele>523</ele><time>2022-04-08T11:30:59Z</time><name>PT2927</name></trkpt>
<trkpt lat="53.462577" lon="-1.719325"><ele>523</ele><time>2022-04-08T11:31:00Z</time><name>PT2928</name></trkpt>
<trkpt lat="53.462566" lon="-1.719335"><ele>522</ele><time>2022-04-08T11:31:01Z</time><name>PT2929</name></trkpt>
<trkpt lat="53.462557" lon="-1.719346"><ele>522</ele><time>2022-04-08T11:31:02Z</time><name>PT2930</name></trkpt>
<trkpt lat="53.462550" lon="-1.719359"><ele>522</ele><time>2022-04-08T11:31:03Z</time><name>PT2931</name></trkpt>
<trkpt lat="53.462545" lon="-1.719376"><ele>522</ele><time>2022-04-08T11:31:04Z</time><name>PT2932</name></trkpt>
<trkpt lat="53.462536" lon="-1.719395"><ele>522</ele><time>2022-04-08T11:31:05Z</time><name>PT2933</name></trkpt>
<trkpt lat="53.462524" lon="-1.719406"><ele>522</ele><time>2022-04-08T11:31:06Z</time><name>PT2934</name></trkpt>
<trkpt lat="53.462509" lon="-1.719415"><ele>522</ele><time>2022-04-08T11:31:07Z</time><name>PT2935</name></trkpt>
<trkpt lat="53.462494" lon="-1.719421"><ele>521</ele><time>2022-04-08T11:31:08Z</time><name>PT2936</name></trkpt>
<trkpt lat="53.462485" lon="-1.719425"><ele>521</ele><time>2022-04-08T11:31:09Z</time><name>PT2937</name></trkpt>
<trkpt lat="53.462473" lon="-1.719430"><ele>521</ele><time>2022-04-08T11:31:10Z</time><name>PT2938</name></trkpt>
<trkpt lat="53.462462" lon="-1.719442"><ele>521</ele><time>2022-04-08T11:31:11Z</time><name>PT2939</name></trkpt>
<trkpt lat="53.462451" lon="-1.719457"><ele>521</ele><time>2022-04-08T11:31:12Z</time><name>PT2940</name></trkpt>
<trkpt lat="53.462443" lon="-1.719468"><ele>521</ele><time>2022-04-08T11:31:13Z</time><name>PT2941</name></trkpt>
<trkpt lat="53.462432" lon="-1.719480"><ele>521</ele><time>2022-04-08T11:31:14Z</time><name>PT2942</name></trkpt>
<trkpt lat="53.462422" lon="-1.719490"><ele>521</ele><time>2022-04-08T11:31:15Z</time><name>PT2943</name></trkpt>
<trkpt lat="53.462415" lon="-1.719496"><ele>521</ele><time>2022-04-08T11:31:16Z</time><name>PT2944</name></trkpt>
<trkpt lat="53.462405" lon="-1.719503"><ele>522</ele><time>2022-04-08T11:31:17Z</time><name>PT2945</name></trkpt>
<trkpt lat="53.462395" lon="-1.719505"><ele>522</ele><time>2022-04-08T11:31:18Z</time><name>PT2946</name></trkpt>
<trkpt lat="53.462386" lon="-1.719504"><ele>523</ele><time>2022-04-08T11:31:19Z</time><name>PT2947</name></trkpt>
<trkpt lat="53.462376" lon="-1.719503"><ele>522</ele><time>2022-04-08T11:31:20Z</time><name>PT2948</name></trkpt>
<trkpt lat="53.462366" lon="-1.719505"><ele>523</ele><time>2022-04-08T11:31:21Z</time><name>PT2949</name></trkpt>
<trkpt lat="53.462356" lon="-1.719505"><ele>523</ele><time>2022-04-08T11:31:22Z</time><name>PT2950</name></trkpt>
<trkpt lat="53.462344" lon="-1.719507"><ele>523</ele><time>2022-04-08T11:31:23Z</time><name>PT2951</name></trkpt>
<trkpt lat="53.462334" lon="-1.719512"><ele>523</ele><time>2022-04-08T11:31:24Z</time><name>PT2952</name></trkpt>
<trkpt lat="53.462322" lon="-1.719517"><ele>522</ele><time>2022-04-08T11:31:25Z</time><name>PT2953</name></trkpt>
<trkpt lat="53.462311" lon="-1.719529"><ele>522</ele><time>2022-04-08T11:31:26Z</time><name>PT2954</name></trkpt>
<trkpt lat="53.462304" lon="-1.719540"><ele>522</ele><time>2022-04-08T11:31:27Z</time><name>PT2955</name></trkpt>
<trkpt lat="53.462293" lon="-1.719552"><ele>523</ele><time>2022-04-08T11:31:28Z</time><name>PT2956</name></trkpt>
<trkpt lat="53.462284" lon="-1.719559"><ele>523</ele><time>2022-04-08T11:31:29Z</time><name>PT2957</name></trkpt>
<trkpt lat="53.462275" lon="-1.719564"><ele>523</ele><time>2022-04-08T11:31:30Z</time><name>PT2958</name></trkpt>
<trkpt lat="53.462265" lon="-1.719569"><ele>523</ele><time>2022-04-08T11:31:31Z</time><name>PT2959</name></trkpt>
<trkpt lat="53.462254" lon="-1.719575"><ele>523</ele><time>2022-04-08T11:31:32Z</time><name>PT2960</name></trkpt>
<trkpt lat="53.462243" lon="-1.719585"><ele>524</ele><time>2022-04-08T11:31:33Z</time><name>PT2961</name></trkpt>
<trkpt lat="53.462237" lon="-1.719594"><ele>524</ele><time>2022-04-08T11:31:34Z</time><name>PT2962</name></trkpt>
<trkpt lat="53.462234" lon="-1.719598"><ele>524</ele><time>2022-04-08T11:31:35Z</time><name>PT2963</name></trkpt>
<trkpt lat="53.462225" lon="-1.719604"><ele>523</ele><time>2022-04-08T11:31:36Z</time><name>PT2964</name></trkpt>
<trkpt lat="53.462215" lon="-1.719612"><ele>523</ele><time>2022-04-08T11:31:37Z</time><name>PT2965</name></trkpt>
<trkpt lat="53.462208" lon="-1.719616"><ele>523</ele><time>2022-04-08T11:31:38Z</time><name>PT2966</name></trkpt>
<trkpt lat="53.462203" lon="-1.719618"><ele>523</ele><time>2022-04-08T11:31:39Z</time><name>PT2967</name></trkpt>
<trkpt lat="53.462197" lon="-1.719626"><ele>523</ele><time>2022-04-08T11:31:40Z</time><name>PT2968</name></trkpt>
<trkpt lat="53.462184" lon="-1.719629"><ele>523</ele><time>2022-04-08T11:31:41Z</time><name>PT2969</name></trkpt>
<trkpt lat="53.462174" lon="-1.719629"><ele>522</ele><time>2022-04-08T11:31:42Z</time><name>PT2970</name></trkpt>
<trkpt lat="53.462165" lon="-1.719629"><ele>522</ele><time>2022-04-08T11:31:43Z</time><name>PT2971</name></trkpt>
<trkpt lat="53.462157" lon="-1.719632"><ele>522</ele><time>2022-04-08T11:31:44Z</time><name>PT2972</name></trkpt>
<trkpt lat="53.462146" lon="-1.719635"><ele>523</ele><time>2022-04-08T11:31:45Z</time><name>PT2973</name></trkpt>
<trkpt lat="53.462134" lon="-1.719633"><ele>523</ele><time>2022-04-08T11:31:46Z</time><name>PT2974</name></trkpt>
<trkpt lat="53.462124" lon="-1.719631"><ele>523</ele><time>2022-04-08T11:31:47Z</time><name>PT2975</name></trkpt>
<trkpt lat="53.462114" lon="-1.719624"><ele>524</ele><time>2022-04-08T11:31:48Z</time><name>PT2976</name></trkpt>
<trkpt lat="53.462103" lon="-1.719617"><ele>524</ele><time>2022-04-08T11:31:49Z</time><name>PT2977</name></trkpt>
<trkpt lat="53.462093" lon="-1.719608"><ele>524</ele><time>2022-04-08T11:31:50Z</time><name>PT2978</name></trkpt>
<trkpt lat="53.462087" lon="-1.719602"><ele>524</ele><time>2022-04-08T11:31:51Z</time><name>PT2979</name></trkpt>
<trkpt lat="53.462080" lon="-1.719601"><ele>525</ele><time>2022-04-08T11:31:52Z</time><name>PT2980</name></trkpt>
<trkpt lat="53.462072" lon="-1.719597"><ele>525</ele><time>2022-04-08T11:31:53Z</time><name>PT2981</name></trkpt>
<trkpt lat="53.462058" lon="-1.719595"><ele>525</ele><time>2022-04-08T11:31:54Z</time><name>PT2982</name></trkpt>
<trkpt lat="53.462049" lon="-1.719599"><ele>526</ele><time>2022-04-08T11:31:55Z</time><name>PT2983</name></trkpt>
<trkpt lat="53.462043" lon="-1.719608"><ele>525</ele><time>2022-04-08T11:31:56Z</time><name>PT2984</name></trkpt>
<trkpt lat="53.462037" lon="-1.719622"><ele>526</ele><time>2022-04-08T11:31:57Z</time><name>PT2985</name></trkpt>
<trkpt lat="53.462031" lon="-1.719638"><ele>526</ele><time>2022-04-08T11:31:58Z</time><name>PT2986</name></trkpt>
<trkpt lat="53.462028" lon="-1.719653"><ele>525</ele><time>2022-04-08T11:31:59Z</time><name>PT2987</name></trkpt>
<trkpt lat="53.462025" lon="-1.719669"><ele>525</ele><time>2022-04-08T11:32:00Z</time><name>PT2988</name></trkpt>
<trkpt lat="53.462021" lon="-1.719681"><ele>525</ele><time>2022-04-08T11:32:01Z</time><name>PT2989</name></trkpt>
<trkpt lat="53.462011" lon="-1.719691"><ele>525</ele><time>2022-04-08T11:32:02Z</time><name>PT2990</name></trkpt>
<trkpt lat="53.462001" lon="-1.719695"><ele>525</ele><time>2022-04-08T11:32:03Z</time><name>PT2991</name></trkpt>
<trkpt lat="53.461990" lon="-1.719698"><ele>525</ele><time>2022-04-08T11:32:04Z</time><name>PT2992</name></trkpt>
<trkpt lat="53.461979" lon="-1.719702"><ele>525</ele><time>2022-04-08T11:32:05Z</time><name>PT2993</name></trkpt>
<trkpt lat="53.461967" lon="-1.719703"><ele>526</ele><time>2022-04-08T11:32:06Z</time><name>PT2994</name></trkpt>
<trkpt lat="53.461954" lon="-1.719706"><ele>526</ele><time>2022-04-08T11:32:07Z</time><name>PT2995</name></trkpt>
<trkpt lat="53.461945" lon="-1.719709"><ele>527</ele><time>2022-04-08T11:32:08Z</time><name>PT2996</name></trkpt>
<trkpt lat="53.461934" lon="-1.719712"><ele>527</ele><time>2022-04-08T11:32:09Z</time><name>PT2997</name></trkpt>
<trkpt lat="53.461921" lon="-1.719709"><ele>527</ele><time>2022-04-08T11:32:10Z</time><name>PT2998</name></trkpt>
<trkpt lat="53.461909" lon="-1.719710"><ele>528</ele><time>2022-04-08T11:32:11Z</time><name>PT2999</name></trkpt>
<trkpt lat="53.461899" lon="-1.719716"><ele>528</ele><time>2022-04-08T11:32:12Z</time><name>PT3000</name></trkpt>
<trkpt lat="53.461889" lon="-1.719722"><ele>528</ele><time>2022-04-08T11:32:13Z</time><name>PT3001</name></trkpt>
<trkpt lat="53.461878" lon="-1.719726"><ele>527</ele><time>2022-04-08T11:32:14Z</time><name>PT3002</name></trkpt>
<trkpt lat="53.461861" lon="-1.719732"><ele>528</ele><time>2022-04-08T11:32:15Z</time><name>PT3003</name></trkpt>
<trkpt lat="53.461851" lon="-1.719730"><ele>528</ele><time>2022-04-08T11:32:16Z</time><name>PT3004</name></trkpt>
<trkpt lat="53.461840" lon="-1.719728"><ele>528</ele><time>2022-04-08T11:32:17Z</time><name>PT3005</name></trkpt>
<trkpt lat="53.461828" lon="-1.719725"><ele>528</ele><time>2022-04-08T11:32:18Z</time><name>PT3006</name></trkpt>
<trkpt lat="53.461817" lon="-1.719724"><ele>528</ele><time>2022-04-08T11:32:19Z</time><name>PT3007</name></trkpt>
<trkpt lat="53.461805" lon="-1.719726"><ele>528</ele><time>2022-04-08T11:32:20Z</time><name>PT3008</name></trkpt>
<trkpt lat="53.461793" lon="-1.719732"><ele>528</ele><time>2022-04-08T11:32:21Z</time><name>PT3009</name></trkpt>
<trkpt lat="53.461783" lon="-1.719735"><ele>528</ele><time>2022-04-08T11:32:22Z</time><name>PT3010</name></trkpt>
<trkpt lat="53.461773" lon="-1.719738"><ele>528</ele><time>2022-04-08T11:32:23Z</time><name>PT3011</name></trkpt>
<trkpt lat="53.461761" lon="-1.719739"><ele>528</ele><time>2022-04-08T11:32:24Z</time><name>PT3012</name></trkpt>
<trkpt lat="53.461749" lon="-1.719741"><ele>528</ele><time>2022-04-08T11:32:25Z</time><name>PT3013</name></trkpt>
<trkpt lat="53.461739" lon="-1.719744"><ele>528</ele><time>2022-04-08T11:32:26Z</time><name>PT3014</name></trkpt>
<trkpt lat="53.461728" lon="-1.719752"><ele>528</ele><time>2022-04-08T11:32:27Z</time><name>PT3015</name></trkpt>
<trkpt lat="53.461723" lon="-1.719764"><ele>528</ele><time>2022-04-08T11:32:28Z</time><name>PT3016</name></trkpt>
<trkpt lat="53.461717" lon="-1.719775"><ele>528</ele><time>2022-04-08T11:32:29Z</time><name>PT3017</name></trkpt>
<trkpt lat="53.461714" lon="-1.719789"><ele>528</ele><time>2022-04-08T11:32:30Z</time><name>PT3018</name></trkpt>
<trkpt lat="53.461713" lon="-1.719804"><ele>528</ele><time>2022-04-08T11:32:31Z</time><name>PT3019</name></trkpt>
<trkpt lat="53.461713" lon="-1.719818"><ele>528</ele><time>2022-04-08T11:32:32Z</time><name>PT3020</name></trkpt>
<trkpt lat="53.461712" lon="-1.719836"><ele>529</ele><time>2022-04-08T11:32:33Z</time><name>PT3021</name></trkpt>
<trkpt lat="53.461709" lon="-1.719854"><ele>529</ele><time>2022-04-08T11:32:34Z</time><name>PT3022</name></trkpt>
<trkpt lat="53.461704" lon="-1.719873"><ele>530</ele><time>2022-04-08T11:32:35Z</time><name>PT3023</name></trkpt>
<trkpt lat="53.461698" lon="-1.719883"><ele>529</ele><time>2022-04-08T11:32:36Z</time><name>PT3024</name></trkpt>
<trkpt lat="53.461689" lon="-1.719893"><ele>529</ele><time>2022-04-08T11:32:37Z</time><name>PT3025</name></trkpt>
<trkpt lat="53.461682" lon="-1.719907"><ele>529</ele><time>2022-04-08T11:32:38Z</time><name>PT3026</name></trkpt>
<trkpt lat="53.461674" lon="-1.719916"><ele>529</ele><time>2022-04-08T11:32:39Z</time><name>PT3027</name></trkpt>
<trkpt lat="53.461666" lon="-1.719923"><ele>529</ele><time>2022-04-08T11:32:40Z</time><name>PT3028</name></trkpt>
<trkpt lat="53.461656" lon="-1.719931"><ele>528</ele><time>2022-04-08T11:32:41Z</time><name>PT3029</name></trkpt>
<trkpt lat="53.461646" lon="-1.719940"><ele>528</ele><time>2022-04-08T11:32:42Z</time><name>PT3030</name></trkpt>
<trkpt lat="53.461637" lon="-1.719946"><ele>528</ele><time>2022-04-08T11:32:43Z</time><name>PT3031</name></trkpt>
<trkpt lat="53.461629" lon="-1.719945"><ele>528</ele><time>2022-04-08T11:32:44Z</time><name>PT3032</name></trkpt>
<trkpt lat="53.461624" lon="-1.719955"><ele>529</ele><time>2022-04-08T11:32:45Z</time><name>PT3033</name></trkpt>
<trkpt lat="53.461612" lon="-1.719968"><ele>529</ele><time>2022-04-08T11:32:46Z</time><name>PT3034</name></trkpt>
<trkpt lat="53.461602" lon="-1.719984"><ele>529</ele><time>2022-04-08T11:32:47Z</time><name>PT3035</name></trkpt>
<trkpt lat="53.461593" lon="-1.719994"><ele>529</ele><time>2022-04-08T11:32:48Z</time><name>PT3036</name></trkpt>
<trkpt lat="53.461585" lon="-1.720003"><ele>529</ele><time>2022-04-08T11:32:49Z</time><name>PT3037</name></trkpt>
<trkpt lat="53.461577" lon="-1.720015"><ele>529</ele><time>2022-04-08T11:32:50Z</time><name>PT3038</name></trkpt>
<trkpt lat="53.461572" lon="-1.720026"><ele>529</ele><time>2022-04-08T11:32:51Z</time><name>PT3039</name></trkpt>
<trkpt lat="53.461567" lon="-1.720045"><ele>530</ele><time>2022-04-08T11:32:52Z</time><name>PT3040</name></trkpt>
<trkpt lat="53.461565" lon="-1.720053"><ele>529</ele><time>2022-04-08T11:32:53Z</time><name>PT3041</name></trkpt>
<trkpt lat="53.461560" lon="-1.720068"><ele>529</ele><time>2022-04-08T11:32:54Z</time><name>PT3042</name></trkpt>
<trkpt lat="53.461554" lon="-1.720079"><ele>528</ele><time>2022-04-08T11:32:55Z</time><name>PT3043</name></trkpt>
<trkpt lat="53.461546" lon="-1.720089"><ele>528</ele><time>2022-04-08T11:32:56Z</time><name>PT3044</name></trkpt>
<trkpt lat="53.461538" lon="-1.720097"><ele>528</ele><time>2022-04-08T11:32:57Z</time><name>PT3045</name></trkpt>
<trkpt lat="53.461526" lon="-1.720109"><ele>528</ele><time>2022-04-08T11:32:58Z</time><name>PT3046</name></trkpt>
<trkpt lat="53.461515" lon="-1.720119"><ele>528</ele><time>2022-04-08T11:33:00Z</time><name>PT3047</name></trkpt>
<trkpt lat="53.461509" lon="-1.720133"><ele>528</ele><time>2022-04-08T11:33:00Z</time><name>PT3048</name></trkpt>
<trkpt lat="53.461503" lon="-1.720149"><ele>528</ele><time>2022-04-08T11:33:02Z</time><name>PT3049</name></trkpt>
<trkpt lat="53.461496" lon="-1.720165"><ele>527</ele><time>2022-04-08T11:33:02Z</time><name>PT3050</name></trkpt>
<trkpt lat="53.461490" lon="-1.720179"><ele>528</ele><time>2022-04-08T11:33:03Z</time><name>PT3051</name></trkpt>
<trkpt lat="53.461484" lon="-1.720192"><ele>527</ele><time>2022-04-08T11:33:04Z</time><name>PT3052</name></trkpt>
<trkpt lat="53.461475" lon="-1.720200"><ele>528</ele><time>2022-04-08T11:33:05Z</time><name>PT3053</name></trkpt>
<trkpt lat="53.461464" lon="-1.720206"><ele>528</ele><time>2022-04-08T11:33:06Z</time><name>PT3054</name></trkpt>
<trkpt lat="53.461453" lon="-1.720217"><ele>528</ele><time>2022-04-08T11:33:07Z</time><name>PT3055</name></trkpt>
<trkpt lat="53.461444" lon="-1.720230"><ele>529</ele><time>2022-04-08T11:33:08Z</time><name>PT3056</name></trkpt>
<trkpt lat="53.461439" lon="-1.720243"><ele>529</ele><time>2022-04-08T11:33:09Z</time><name>PT3057</name></trkpt>
<trkpt lat="53.461434" lon="-1.720262"><ele>529</ele><time>2022-04-08T11:33:10Z</time><name>PT3058</name></trkpt>
<trkpt lat="53.461429" lon="-1.720277"><ele>530</ele><time>2022-04-08T11:33:11Z</time><name>PT3059</name></trkpt>
<trkpt lat="53.461421" lon="-1.720297"><ele>530</ele><time>2022-04-08T11:33:12Z</time><name>PT3060</name></trkpt>
<trkpt lat="53.461416" lon="-1.720318"><ele>530</ele><time>2022-04-08T11:33:14Z</time><name>PT3061</name></trkpt>
<trkpt lat="53.461412" lon="-1.720340"><ele>531</ele><time>2022-04-08T11:33:14Z</time><name>PT3062</name></trkpt>
<trkpt lat="53.461413" lon="-1.720359"><ele>531</ele><time>2022-04-08T11:33:15Z</time><name>PT3063</name></trkpt>
<trkpt lat="53.461410" lon="-1.720375"><ele>531</ele><time>2022-04-08T11:33:16Z</time><name>PT3064</name></trkpt>
<trkpt lat="53.461409" lon="-1.720396"><ele>531</ele><time>2022-04-08T11:33:17Z</time><name>PT3065</name></trkpt>
<trkpt lat="53.461408" lon="-1.720414"><ele>531</ele><time>2022-04-08T11:33:18Z</time><name>PT3066</name></trkpt>
<trkpt lat="53.461406" lon="-1.720431"><ele>531</ele><time>2022-04-08T11:33:19Z</time><name>PT3067</name></trkpt>
<trkpt lat="53.461400" lon="-1.720445"><ele>531</ele><time>2022-04-08T11:33:20Z</time><name>PT3068</name></trkpt>
<trkpt lat="53.461392" lon="-1.720458"><ele>531</ele><time>2022-04-08T11:33:21Z</time><name>PT3069</name></trkpt>
<trkpt lat="53.461383" lon="-1.720470"><ele>531</ele><time>2022-04-08T11:33:22Z</time><name>PT3070</name></trkpt>
<trkpt lat="53.461380" lon="-1.720486"><ele>531</ele><time>2022-04-08T11:33:23Z</time><name>PT3071</name></trkpt>
<trkpt lat="53.461380" lon="-1.720507"><ele>531</ele><time>2022-04-08T11:33:24Z</time><name>PT3072</name></trkpt>
<trkpt lat="53.461377" lon="-1.720524"><ele>531</ele><time>2022-04-08T11:33:25Z</time><name>PT3073</name></trkpt>
<trkpt lat="53.461370" lon="-1.720540"><ele>532</ele><time>2022-04-08T11:33:26Z</time><name>PT3074</name></trkpt>
<trkpt lat="53.461361" lon="-1.720557"><ele>532</ele><time>2022-04-08T11:33:27Z</time><name>PT3075</name></trkpt>
<trkpt lat="53.461353" lon="-1.720571"><ele>532</ele><time>2022-04-08T11:33:28Z</time><name>PT3076</name></trkpt>
<trkpt lat="53.461344" lon="-1.720583"><ele>532</ele><time>2022-04-08T11:33:29Z</time><name>PT3077</name></trkpt>
<trkpt lat="53.461337" lon="-1.720604"><ele>532</ele><time>2022-04-08T11:33:30Z</time><name>PT3078</name></trkpt>
<trkpt lat="53.461336" lon="-1.720620"><ele>532</ele><time>2022-04-08T11:33:31Z</time><name>PT3079</name></trkpt>
<trkpt lat="53.461334" lon="-1.720638"><ele>532</ele><time>2022-04-08T11:33:32Z</time><name>PT3080</name></trkpt>
<trkpt lat="53.461331" lon="-1.720655"><ele>532</ele><time>2022-04-08T11:33:33Z</time><name>PT3081</name></trkpt>
<trkpt lat="53.461324" lon="-1.720672"><ele>532</ele><time>2022-04-08T11:33:34Z</time><name>PT3082</name></trkpt>
<trkpt lat="53.461316" lon="-1.720689"><ele>532</ele><time>2022-04-08T11:33:35Z</time><name>PT3083</name></trkpt>
<trkpt lat="53.461311" lon="-1.720708"><ele>532</ele><time>2022-04-08T11:33:36Z</time><name>PT3084</name></trkpt>
<trkpt lat="53.461306" lon="-1.720730"><ele>533</ele><time>2022-04-08T11:33:37Z</time><name>PT3085</name></trkpt>
<trkpt lat="53.461302" lon="-1.720748"><ele>533</ele><time>2022-04-08T11:33:38Z</time><name>PT3086</name></trkpt>
<trkpt lat="53.461295" lon="-1.720762"><ele>533</ele><time>2022-04-08T11:33:39Z</time><name>PT3087</name></trkpt>
<trkpt lat="53.461289" lon="-1.720780"><ele>533</ele><time>2022-04-08T11:33:40Z</time><name>PT3088</name></trkpt>
<trkpt lat="53.461284" lon="-1.720796"><ele>533</ele><time>2022-04-08T11:33:41Z</time><name>PT3089</name></trkpt>
<trkpt lat="53.461280" lon="-1.720809"><ele>532</ele><time>2022-04-08T11:33:42Z</time><name>PT3090</name></trkpt>
<trkpt lat="53.461274" lon="-1.720825"><ele>532</ele><time>2022-04-08T11:33:43Z</time><name>PT3091</name></trkpt>
<trkpt lat="53.461267" lon="-1.720839"><ele>532</ele><time>2022-04-08T11:33:44Z</time><name>PT3092</name></trkpt>
<trkpt lat="53.461259" lon="-1.720850"><ele>532</ele><time>2022-04-08T11:33:45Z</time><name>PT3093</name></trkpt>
<trkpt lat="53.461254" lon="-1.720865"><ele>533</ele><time>2022-04-08T11:33:46Z</time><name>PT3094</name></trkpt>
<trkpt lat="53.461249" lon="-1.720878"><ele>533</ele><time>2022-04-08T11:33:47Z</time><name>PT3095</name></trkpt>
<trkpt lat="53.461244" lon="-1.720885"><ele>532</ele><time>2022-04-08T11:33:48Z</time><name>PT3096</name></trkpt>
<trkpt lat="53.461238" lon="-1.720900"><ele>533</ele><time>2022-04-08T11:33:49Z</time><name>PT3097</name></trkpt>
<trkpt lat="53.461232" lon="-1.720920"><ele>533</ele><time>2022-04-08T11:33:50Z</time><name>PT3098</name></trkpt>
<trkpt lat="53.461226" lon="-1.720937"><ele>533</ele><time>2022-04-08T11:33:51Z</time><name>PT3099</name></trkpt>
<trkpt lat="53.461220" lon="-1.720943"><ele>533</ele><time>2022-04-08T11:33:52Z</time><name>PT3100</name></trkpt>
<trkpt lat="53.461213" lon="-1.720952"><ele>533</ele><time>2022-04-08T11:33:53Z</time><name>PT3101</name></trkpt>
<trkpt lat="53.461208" lon="-1.720968"><ele>532</ele><time>2022-04-08T11:33:54Z</time><name>PT3102</name></trkpt>
<trkpt lat="53.461202" lon="-1.720982"><ele>532</ele><time>2022-04-08T11:33:55Z</time><name>PT3103</name></trkpt>
<trkpt lat="53.461192" lon="-1.720991"><ele>532</ele><time>2022-04-08T11:33:56Z</time><name>PT3104</name></trkpt>
<trkpt lat="53.461182" lon="-1.721003"><ele>532</ele><time>2022-04-08T11:33:57Z</time><name>PT3105</name></trkpt>
<trkpt lat="53.461172" lon="-1.721019"><ele>532</ele><time>2022-04-08T11:33:58Z</time><name>PT3106</name></trkpt>
<trkpt lat="53.461161" lon="-1.721030"><ele>532</ele><time>2022-04-08T11:33:59Z</time><name>PT3107</name></trkpt>
<trkpt lat="53.461153" lon="-1.721038"><ele>532</ele><time>2022-04-08T11:34:00Z</time><name>PT3108</name></trkpt>
<trkpt lat="53.461149" lon="-1.721043"><ele>532</ele><time>2022-04-08T11:34:01Z</time><name>PT3109</name></trkpt>
<trkpt lat="53.461138" lon="-1.721051"><ele>532</ele><time>2022-04-08T11:34:02Z</time><name>PT3110</name></trkpt>
<trkpt lat="53.461129" lon="-1.721060"><ele>532</ele><time>2022-04-08T11:34:03Z</time><name>PT3111</name></trkpt>
<trkpt lat="53.461126" lon="-1.721075"><ele>532</ele><time>2022-04-08T11:34:04Z</time><name>PT3112</name></trkpt>
<trkpt lat="53.461125" lon="-1.721095"><ele>532</ele><time>2022-04-08T11:34:05Z</time><name>PT3113</name></trkpt>
<trkpt lat="53.461120" lon="-1.721110"><ele>532</ele><time>2022-04-08T11:34:06Z</time><name>PT3114</name></trkpt>
<trkpt lat="53.461112" lon="-1.721122"><ele>532</ele><time>2022-04-08T11:34:07Z</time><name>PT3115</name></trkpt>
<trkpt lat="53.461107" lon="-1.721137"><ele>533</ele><time>2022-04-08T11:34:08Z</time><name>PT3116</name></trkpt>
<trkpt lat="53.461103" lon="-1.721150"><ele>533</ele><time>2022-04-08T11:34:09Z</time><name>PT3117</name></trkpt>
<trkpt lat="53.461096" lon="-1.721164"><ele>532</ele><time>2022-04-08T11:34:10Z</time><name>PT3118</name></trkpt>
<trkpt lat="53.461091" lon="-1.721180"><ele>532</ele><time>2022-04-08T11:34:11Z</time><name>PT3119</name></trkpt>
<trkpt lat="53.461088" lon="-1.721191"><ele>532</ele><time>2022-04-08T11:34:12Z</time><name>PT3120</name></trkpt>
<trkpt lat="53.461085" lon="-1.721208"><ele>532</ele><time>2022-04-08T11:34:13Z</time><name>PT3121</name></trkpt>
<trkpt lat="53.461081" lon="-1.721224"><ele>532</ele><time>2022-04-08T11:34:14Z</time><name>PT3122</name></trkpt>
<trkpt lat="53.461076" lon="-1.721241"><ele>533</ele><time>2022-04-08T11:34:15Z</time><name>PT3123</name></trkpt>
<trkpt lat="53.461072" lon="-1.721250"><ele>533</ele><time>2022-04-08T11:34:16Z</time><name>PT3124</name></trkpt>
<trkpt lat="53.461070" lon="-1.721257"><ele>533</ele><time>2022-04-08T11:34:17Z</time><name>PT3125</name></trkpt>
<trkpt lat="53.461066" lon="-1.721264"><ele>533</ele><time>2022-04-08T11:34:18Z</time><name>PT3126</name></trkpt>
<trkpt lat="53.461061" lon="-1.721273"><ele>533</ele><time>2022-04-08T11:34:19Z</time><name>PT3127</name></trkpt>
<trkpt lat="53.461055" lon="-1.721279"><ele>533</ele><time>2022-04-08T11:34:20Z</time><name>PT3128</name></trkpt>
<trkpt lat="53.461048" lon="-1.721283"><ele>534</ele><time>2022-04-08T11:34:21Z</time><name>PT3129</name></trkpt>
<trkpt lat="53.461037" lon="-1.721288"><ele>534</ele><time>2022-04-08T11:34:22Z</time><name>PT3130</name></trkpt>
<trkpt lat="53.461031" lon="-1.721294"><ele>534</ele><time>2022-04-08T11:34:23Z</time><name>PT3131</name></trkpt>
<trkpt lat="53.461023" lon="-1.721303"><ele>533</ele><time>2022-04-08T11:34:24Z</time><name>PT3132</name></trkpt>
<trkpt lat="53.461015" lon="-1.721309"><ele>532</ele><time>2022-04-08T11:34:25Z</time><name>PT3133</name></trkpt>
<trkpt lat="53.461009" lon="-1.721317"><ele>532</ele><time>2022-04-08T11:34:26Z</time><name>PT3134</name></trkpt>
<trkpt lat="53.461007" lon="-1.721330"><ele>533</ele><time>2022-04-08T11:34:27Z</time><name>PT3135</name></trkpt>
<trkpt lat="53.461002" lon="-1.721346"><ele>532</ele><time>2022-04-08T11:34:28Z</time><name>PT3136</name></trkpt>
<trkpt lat="53.460998" lon="-1.721353"><ele>532</ele><time>2022-04-08T11:34:29Z</time><name>PT3137</name></trkpt>
<trkpt lat="53.460996" lon="-1.721362"><ele>532</ele><time>2022-04-08T11:34:30Z</time><name>PT3138</name></trkpt>
<trkpt lat="53.460996" lon="-1.721368"><ele>531</ele><time>2022-04-08T11:34:31Z</time><name>PT3139</name></trkpt>
<trkpt lat="53.460994" lon="-1.721368"><ele>532</ele><time>2022-04-08T11:34:32Z</time><name>PT3140</name></trkpt>
<trkpt lat="53.460994" lon="-1.721368"><ele>532</ele><time>2022-04-08T11:34:33Z</time><name>PT3141</name></trkpt>
<trkpt lat="53.460993" lon="-1.721380"><ele>532</ele><time>2022-04-08T11:35:17Z</time><name>PT3142</name></trkpt>
<trkpt lat="53.460984" lon="-1.721403"><ele>532</ele><time>2022-04-08T11:35:21Z</time><name>PT3143</name></trkpt>
<trkpt lat="53.460951" lon="-1.721408"><ele>532</ele><time>2022-04-08T11:35:25Z</time><name>PT3144</name></trkpt>
<trkpt lat="53.460935" lon="-1.721398"><ele>532</ele><time>2022-04-08T11:35:29Z</time><name>PT3145</name></trkpt>
<trkpt lat="53.460934" lon="-1.721402"><ele>533</ele><time>2022-04-08T11:35:33Z</time><name>PT3146</name></trkpt>
<trkpt lat="53.460933" lon="-1.721404"><ele>532</ele><time>2022-04-08T11:35:37Z</time><name>PT3147</name></trkpt>
<trkpt lat="53.460941" lon="-1.721436"><ele>532</ele><time>2022-04-08T11:36:29Z</time><name>PT3148</name></trkpt>
<trkpt lat="53.460954" lon="-1.721458"><ele>532</ele><time>2022-04-08T11:36:33Z</time><name>PT3149</name></trkpt>
<trkpt lat="53.460958" lon="-1.721493"><ele>531</ele><time>2022-04-08T11:36:37Z</time><name>PT3150</name></trkpt>
<trkpt lat="53.460970" lon="-1.721503"><ele>532</ele><time>2022-04-08T11:36:38Z</time><name>PT3151</name></trkpt>
<trkpt lat="53.460970" lon="-1.721504"><ele>532</ele><time>2022-04-08T11:36:39Z</time><name>PT3152</name></trkpt>
<trkpt lat="53.460971" lon="-1.721504"><ele>532</ele><time>2022-04-08T11:36:40Z</time><name>PT3153</name></trkpt>
<trkpt lat="53.460968" lon="-1.721509"><ele>531</ele><time>2022-04-08T11:36:41Z</time><name>PT3154</name></trkpt>
<trkpt lat="53.460967" lon="-1.721511"><ele>531</ele><time>2022-04-08T11:36:42Z</time><name>PT3155</name></trkpt>
<trkpt lat="53.460967" lon="-1.721514"><ele>531</ele><time>2022-04-08T11:36:43Z</time><name>PT3156</name></trkpt>
<trkpt lat="53.460965" lon="-1.721511"><ele>532</ele><time>2022-04-08T11:36:44Z</time><name>PT3157</name></trkpt>
<trkpt lat="53.460962" lon="-1.721510"><ele>532</ele><time>2022-04-08T11:38:45Z</time><name>PT3158</name></trkpt>
<trkpt lat="53.460962" lon="-1.721509"><ele>532</ele><time>2022-04-08T11:38:46Z</time><name>PT3159</name></trkpt>
<trkpt lat="53.460962" lon="-1.721511"><ele>531</ele><time>2022-04-08T11:38:47Z</time><name>PT3160</name></trkpt>
<trkpt lat="53.460977" lon="-1.721487"><ele>530</ele><time>2022-04-08T11:40:06Z</time><name>PT3161</name></trkpt>
<trkpt lat="53.460982" lon="-1.721505"><ele>529</ele><time>2022-04-08T11:40:07Z</time><name>PT3162</name></trkpt>
<trkpt lat="53.460992" lon="-1.721516"><ele>530</ele><time>2022-04-08T11:40:08Z</time><name>PT3163</name></trkpt>
<trkpt lat="53.460998" lon="-1.721529"><ele>529</ele><time>2022-04-08T11:40:09Z</time><name>PT3164</name></trkpt>
<trkpt lat="53.461004" lon="-1.721539"><ele>529</ele><time>2022-04-08T11:40:10Z</time><name>PT3165</name></trkpt>
<trkpt lat="53.461011" lon="-1.721550"><ele>529</ele><time>2022-04-08T11:40:11Z</time><name>PT3166</name></trkpt>
<trkpt lat="53.461015" lon="-1.721562"><ele>529</ele><time>2022-04-08T11:40:12Z</time><name>PT3167</name></trkpt>
<trkpt lat="53.461020" lon="-1.721571"><ele>529</ele><time>2022-04-08T11:40:13Z</time><name>PT3168</name></trkpt>
<trkpt lat="53.461023" lon="-1.721578"><ele>530</ele><time>2022-04-08T11:40:14Z</time><name>PT3169</name></trkpt>
<trkpt lat="53.461025" lon="-1.721583"><ele>529</ele><time>2022-04-08T11:40:15Z</time><name>PT3170</name></trkpt>
<trkpt lat="53.461026" lon="-1.721592"><ele>529</ele><time>2022-04-08T11:40:16Z</time><name>PT3171</name></trkpt>
<trkpt lat="53.461028" lon="-1.721592"><ele>529</ele><time>2022-04-08T11:40:17Z</time><name>PT3172</name></trkpt>
<trkpt lat="53.461028" lon="-1.721593"><ele>530</ele><time>2022-04-08T11:40:18Z</time><name>PT3173</name></trkpt>
<trkpt lat="53.461031" lon="-1.721592"><ele>529</ele><time>2022-04-08T11:40:26Z</time><name>PT3174</name></trkpt>
<trkpt lat="53.461037" lon="-1.721611"><ele>529</ele><time>2022-04-08T11:40:27Z</time><name>PT3175</name></trkpt>
<trkpt lat="53.461045" lon="-1.721619"><ele>528</ele><time>2022-04-08T11:40:28Z</time><name>PT3176</name></trkpt>
<trkpt lat="53.461051" lon="-1.721627"><ele>528</ele><time>2022-04-08T11:40:29Z</time><name>PT3177</name></trkpt>
<trkpt lat="53.461060" lon="-1.721639"><ele>528</ele><time>2022-04-08T11:40:30Z</time><name>PT3178</name></trkpt>
<trkpt lat="53.461069" lon="-1.721655"><ele>528</ele><time>2022-04-08T11:40:31Z</time><name>PT3179</name></trkpt>
<trkpt lat="53.461077" lon="-1.721668"><ele>528</ele><time>2022-04-08T11:40:32Z</time><name>PT3180</name></trkpt>
<trkpt lat="53.461085" lon="-1.721681"><ele>528</ele><time>2022-04-08T11:40:33Z</time><name>PT3181</name></trkpt>
<trkpt lat="53.461092" lon="-1.721691"><ele>528</ele><time>2022-04-08T11:40:34Z</time><name>PT3182</name></trkpt>
<trkpt lat="53.461100" lon="-1.721705"><ele>528</ele><time>2022-04-08T11:40:35Z</time><name>PT3183</name></trkpt>
<trkpt lat="53.461106" lon="-1.721716"><ele>528</ele><time>2022-04-08T11:40:36Z</time><name>PT3184</name></trkpt>
<trkpt lat="53.461110" lon="-1.721723"><ele>528</ele><time>2022-04-08T11:40:37Z</time><name>PT3185</name></trkpt>
<trkpt lat="53.461110" lon="-1.721726"><ele>528</ele><time>2022-04-08T11:40:38Z</time><name>PT3186</name></trkpt>
<trkpt lat="53.461112" lon="-1.721722"><ele>527</ele><time>2022-04-08T11:40:39Z</time><name>PT3187</name></trkpt>
<trkpt lat="53.461120" lon="-1.721714"><ele>527</ele><time>2022-04-08T11:40:40Z</time><name>PT3188</name></trkpt>
<trkpt lat="53.461131" lon="-1.721704"><ele>527</ele><time>2022-04-08T11:40:41Z</time><name>PT3189</name></trkpt>
<trkpt lat="53.461150" lon="-1.721653"><ele>528</ele><time>2022-04-08T11:40:45Z</time><name>PT3190</name></trkpt>
<trkpt lat="53.461139" lon="-1.721676"><ele>528</ele><time>2022-04-08T11:40:49Z</time><name>PT3191</name></trkpt>
<trkpt lat="53.461125" lon="-1.721712"><ele>526</ele><time>2022-04-08T11:40:53Z</time><name>PT3192</name></trkpt>
<trkpt lat="53.461126" lon="-1.721786"><ele>526</ele><time>2022-04-08T11:40:57Z</time><name>PT3193</name></trkpt>
<trkpt lat="53.461116" lon="-1.721840"><ele>526</ele><time>2022-04-08T11:41:01Z</time><name>PT3194</name></trkpt>
<trkpt lat="53.461086" lon="-1.721840"><ele>527</ele><time>2022-04-08T11:41:05Z</time><name>PT3195</name></trkpt>
<trkpt lat="53.461085" lon="-1.721879"><ele>527</ele><time>2022-04-08T11:41:09Z</time><name>PT3196</name></trkpt>
<trkpt lat="53.461115" lon="-1.721927"><ele>527</ele><time>2022-04-08T11:41:13Z</time><name>PT3197</name></trkpt>
<trkpt lat="53.461140" lon="-1.721970"><ele>527</ele><time>2022-04-08T11:41:17Z</time><name>PT3198</name></trkpt>
<trkpt lat="53.461180" lon="-1.721987"><ele>527</ele><time>2022-04-08T11:41:21Z</time><name>PT3199</name></trkpt>
<trkpt lat="53.461222" lon="-1.722004"><ele>526</ele><time>2022-04-08T11:41:25Z</time><name>PT3200</name></trkpt>
<trkpt lat="53.461260" lon="-1.722005"><ele>525</ele><time>2022-04-08T11:41:29Z</time><name>PT3201</name></trkpt>
<trkpt lat="53.461292" lon="-1.722027"><ele>525</ele><time>2022-04-08T11:41:33Z</time><name>PT3202</name></trkpt>
<trkpt lat="53.461328" lon="-1.722021"><ele>525</ele><time>2022-04-08T11:41:37Z</time><name>PT3203</name></trkpt>
<trkpt lat="53.461343" lon="-1.721976"><ele>525</ele><time>2022-04-08T11:41:41Z</time><name>PT3204</name></trkpt>
<trkpt lat="53.461355" lon="-1.721920"><ele>525</ele><time>2022-04-08T11:41:45Z</time><name>PT3205</name></trkpt>
<trkpt lat="53.461382" lon="-1.721918"><ele>523</ele><time>2022-04-08T11:41:49Z</time><name>PT3206</name></trkpt>
<trkpt lat="53.461412" lon="-1.721946"><ele>523</ele><time>2022-04-08T11:41:53Z</time><name>PT3207</name></trkpt>
<trkpt lat="53.461454" lon="-1.721965"><ele>523</ele><time>2022-04-08T11:41:57Z</time><name>PT3208</name></trkpt>
<trkpt lat="53.461476" lon="-1.721944"><ele>523</ele><time>2022-04-08T11:42:01Z</time><name>PT3209</name></trkpt>
<trkpt lat="53.461502" lon="-1.721919"><ele>522</ele><time>2022-04-08T11:42:05Z</time><name>PT3210</name></trkpt>
<trkpt lat="53.461532" lon="-1.721924"><ele>522</ele><time>2022-04-08T11:42:09Z</time><name>PT3211</name></trkpt>
<trkpt lat="53.461565" lon="-1.721926"><ele>522</ele><time>2022-04-08T11:42:13Z</time><name>PT3212</name></trkpt>
<trkpt lat="53.461591" lon="-1.721882"><ele>523</ele><time>2022-04-08T11:42:17Z</time><name>PT3213</name></trkpt>
<trkpt lat="53.461624" lon="-1.721912"><ele>523</ele><time>2022-04-08T11:42:21Z</time><name>PT3214</name></trkpt>
<trkpt lat="53.461656" lon="-1.721946"><ele>523</ele><time>2022-04-08T11:42:25Z</time><name>PT3215</name></trkpt>
<trkpt lat="53.461677" lon="-1.722009"><ele>523</ele><time>2022-04-08T11:42:29Z</time><name>PT3216</name></trkpt>
<trkpt lat="53.461697" lon="-1.722064"><ele>524</ele><time>2022-04-08T11:42:33Z</time><name>PT3217</name></trkpt>
<trkpt lat="53.461709" lon="-1.722104"><ele>524</ele><time>2022-04-08T11:42:37Z</time><name>PT3218</name></trkpt>
<trkpt lat="53.461724" lon="-1.722168"><ele>524</ele><time>2022-04-08T11:42:41Z</time><name>PT3219</name></trkpt>
<trkpt lat="53.461742" lon="-1.722219"><ele>524</ele><time>2022-04-08T11:42:45Z</time><name>PT3220</name></trkpt>
<trkpt lat="53.461760" lon="-1.722280"><ele>524</ele><time>2022-04-08T11:42:49Z</time><name>PT3221</name></trkpt>
<trkpt lat="53.461780" lon="-1.722344"><ele>524</ele><time>2022-04-08T11:42:53Z</time><name>PT3222</name></trkpt>
<trkpt lat="53.461819" lon="-1.722376"><ele>524</ele><time>2022-04-08T11:42:57Z</time><name>PT3223</name></trkpt>
<trkpt lat="53.461848" lon="-1.722397"><ele>524</ele><time>2022-04-08T11:43:01Z</time><name>PT3224</name></trkpt>
<trkpt lat="53.461877" lon="-1.722439"><ele>524</ele><time>2022-04-08T11:43:05Z</time><name>PT3225</name></trkpt>
<trkpt lat="53.461917" lon="-1.722454"><ele>524</ele><time>2022-04-08T11:43:09Z</time><name>PT3226</name></trkpt>
<trkpt lat="53.461947" lon="-1.722436"><ele>524</ele><time>2022-04-08T11:43:13Z</time><name>PT3227</name></trkpt>
<trkpt lat="53.461984" lon="-1.722456"><ele>524</ele><time>2022-04-08T11:43:17Z</time><name>PT3228</name></trkpt>
<trkpt lat="53.462009" lon="-1.722506"><ele>524</ele><time>2022-04-08T11:43:21Z</time><name>PT3229</name></trkpt>
<trkpt lat="53.462021" lon="-1.722575"><ele>524</ele><time>2022-04-08T11:43:25Z</time><name>PT3230</name></trkpt>
<trkpt lat="53.462054" lon="-1.722618"><ele>523</ele><time>2022-04-08T11:43:29Z</time><name>PT3231</name></trkpt>
<trkpt lat="53.462094" lon="-1.722638"><ele>523</ele><time>2022-04-08T11:43:33Z</time><name>PT3232</name></trkpt>
<trkpt lat="53.462137" lon="-1.722669"><ele>523</ele><time>2022-04-08T11:43:37Z</time><name>PT3233</name></trkpt>
<trkpt lat="53.462181" lon="-1.722693"><ele>524</ele><time>2022-04-08T11:43:41Z</time><name>PT3234</name></trkpt>
<trkpt lat="53.462224" lon="-1.722712"><ele>524</ele><time>2022-04-08T11:43:45Z</time><name>PT3235</name></trkpt>
<trkpt lat="53.462263" lon="-1.722733"><ele>524</ele><time>2022-04-08T11:43:49Z</time><name>PT3236</name></trkpt>
<trkpt lat="53.462297" lon="-1.722765"><ele>524</ele><time>2022-04-08T11:43:53Z</time><name>PT3237</name></trkpt>
<trkpt lat="53.462330" lon="-1.722821"><ele>524</ele><time>2022-04-08T11:43:57Z</time><name>PT3238</name></trkpt>
<trkpt lat="53.462372" lon="-1.722847"><ele>524</ele><time>2022-04-08T11:44:01Z</time><name>PT3239</name></trkpt>
<trkpt lat="53.462407" lon="-1.722883"><ele>524</ele><time>2022-04-08T11:44:05Z</time><name>PT3240</name></trkpt>
<trkpt lat="53.462434" lon="-1.722922"><ele>524</ele><time>2022-04-08T11:44:09Z</time><name>PT3241</name></trkpt>
<trkpt lat="53.462442" lon="-1.722976"><ele>523</ele><time>2022-04-08T11:44:13Z</time><name>PT3242</name></trkpt>
<trkpt lat="53.462481" lon="-1.722992"><ele>523</ele><time>2022-04-08T11:44:17Z</time><name>PT3243</name></trkpt>
<trkpt lat="53.462507" lon="-1.722993"><ele>523</ele><time>2022-04-08T11:44:21Z</time><name>PT3244</name></trkpt>
<trkpt lat="53.462538" lon="-1.723030"><ele>523</ele><time>2022-04-08T11:44:25Z</time><name>PT3245</name></trkpt>
<trkpt lat="53.462578" lon="-1.723060"><ele>523</ele><time>2022-04-08T11:44:29Z</time><name>PT3246</name></trkpt>
<trkpt lat="53.462606" lon="-1.723098"><ele>523</ele><time>2022-04-08T11:44:33Z</time><name>PT3247</name></trkpt>
<trkpt lat="53.462633" lon="-1.723142"><ele>522</ele><time>2022-04-08T11:44:37Z</time><name>PT3248</name></trkpt>
<trkpt lat="53.462677" lon="-1.723137"><ele>522</ele><time>2022-04-08T11:44:41Z</time><name>PT3249</name></trkpt>
<trkpt lat="53.462710" lon="-1.723127"><ele>522</ele><time>2022-04-08T11:44:45Z</time><name>PT3250</name></trkpt>
<trkpt lat="53.462753" lon="-1.723147"><ele>522</ele><time>2022-04-08T11:44:49Z</time><name>PT3251</name></trkpt>
<trkpt lat="53.462790" lon="-1.723173"><ele>521</ele><time>2022-04-08T11:44:53Z</time><name>PT3252</name></trkpt>
<trkpt lat="53.462827" lon="-1.723183"><ele>521</ele><time>2022-04-08T11:44:57Z</time><name>PT3253</name></trkpt>
<trkpt lat="53.462860" lon="-1.723181"><ele>521</ele><time>2022-04-08T11:45:01Z</time><name>PT3254</name></trkpt>
<trkpt lat="53.462898" lon="-1.723210"><ele>521</ele><time>2022-04-08T11:45:05Z</time><name>PT3255</name></trkpt>
<trkpt lat="53.462940" lon="-1.723240"><ele>521</ele><time>2022-04-08T11:45:09Z</time><name>PT3256</name></trkpt>
<trkpt lat="53.462978" lon="-1.723283"><ele>520</ele><time>2022-04-08T11:45:13Z</time><name>PT3257</name></trkpt>
<trkpt lat="53.463024" lon="-1.723301"><ele>520</ele><time>2022-04-08T11:45:17Z</time><name>PT3258</name></trkpt>
<trkpt lat="53.463064" lon="-1.723330"><ele>519</ele><time>2022-04-08T11:45:21Z</time><name>PT3259</name></trkpt>
<trkpt lat="53.463101" lon="-1.723355"><ele>518</ele><time>2022-04-08T11:45:25Z</time><name>PT3260</name></trkpt>
<trkpt lat="53.463132" lon="-1.723341"><ele>518</ele><time>2022-04-08T11:45:29Z</time><name>PT3261</name></trkpt>
<trkpt lat="53.463165" lon="-1.723322"><ele>518</ele><time>2022-04-08T11:45:33Z</time><name>PT3262</name></trkpt>
<trkpt lat="53.463197" lon="-1.723311"><ele>517</ele><time>2022-04-08T11:45:37Z</time><name>PT3263</name></trkpt>
<trkpt lat="53.463207" lon="-1.723250"><ele>519</ele><time>2022-04-08T11:45:41Z</time><name>PT3264</name></trkpt>
<trkpt lat="53.463241" lon="-1.723211"><ele>519</ele><time>2022-04-08T11:45:45Z</time><name>PT3265</name></trkpt>
<trkpt lat="53.463277" lon="-1.723208"><ele>519</ele><time>2022-04-08T11:45:49Z</time><name>PT3266</name></trkpt>
<trkpt lat="53.463296" lon="-1.723253"><ele>520</ele><time>2022-04-08T11:45:53Z</time><name>PT3267</name></trkpt>
<trkpt lat="53.463321" lon="-1.723323"><ele>520</ele><time>2022-04-08T11:45:57Z</time><name>PT3268</name></trkpt>
<trkpt lat="53.463341" lon="-1.723391"><ele>520</ele><time>2022-04-08T11:46:01Z</time><name>PT3269</name></trkpt>
<trkpt lat="53.463375" lon="-1.723421"><ele>520</ele><time>2022-04-08T11:46:05Z</time><name>PT3270</name></trkpt>
<trkpt lat="53.463421" lon="-1.723447"><ele>520</ele><time>2022-04-08T11:46:09Z</time><name>PT3271</name></trkpt>
<trkpt lat="53.463465" lon="-1.723476"><ele>520</ele><time>2022-04-08T11:46:13Z</time><name>PT3272</name></trkpt>
<trkpt lat="53.463499" lon="-1.723451"><ele>519</ele><time>2022-04-08T11:46:17Z</time><name>PT3273</name></trkpt>
<trkpt lat="53.463531" lon="-1.723456"><ele>520</ele><time>2022-04-08T11:46:21Z</time><name>PT3274</name></trkpt>
<trkpt lat="53.463558" lon="-1.723514"><ele>519</ele><time>2022-04-08T11:46:25Z</time><name>PT3275</name></trkpt>
<trkpt lat="53.463600" lon="-1.723514"><ele>520</ele><time>2022-04-08T11:46:29Z</time><name>PT3276</name></trkpt>
<trkpt lat="53.463644" lon="-1.723546"><ele>519</ele><time>2022-04-08T11:46:33Z</time><name>PT3277</name></trkpt>
<trkpt lat="53.463677" lon="-1.723583"><ele>519</ele><time>2022-04-08T11:46:37Z</time><name>PT3278</name></trkpt>
<trkpt lat="53.463702" lon="-1.723555"><ele>519</ele><time>2022-04-08T11:46:41Z</time><name>PT3279</name></trkpt>
<trkpt lat="53.463740" lon="-1.723531"><ele>519</ele><time>2022-04-08T11:46:45Z</time><name>PT3280</name></trkpt>
<trkpt lat="53.463770" lon="-1.723586"><ele>520</ele><time>2022-04-08T11:46:49Z</time><name>PT3281</name></trkpt>
<trkpt lat="53.463789" lon="-1.723649"><ele>520</ele><time>2022-04-08T11:46:53Z</time><name>PT3282</name></trkpt>
<trkpt lat="53.463820" lon="-1.723692"><ele>519</ele><time>2022-04-08T11:46:57Z</time><name>PT3283</name></trkpt>
<trkpt lat="53.463850" lon="-1.723709"><ele>519</ele><time>2022-04-08T11:47:01Z</time><name>PT3284</name></trkpt>
<trkpt lat="53.463889" lon="-1.723717"><ele>519</ele><time>2022-04-08T11:47:05Z</time><name>PT3285</name></trkpt>
<trkpt lat="53.463923" lon="-1.723726"><ele>518</ele><time>2022-04-08T11:47:09Z</time><name>PT3286</name></trkpt>
<trkpt lat="53.463934" lon="-1.723752"><ele>518</ele><time>2022-04-08T11:47:11Z</time><name>PT3287</name></trkpt>
<trkpt lat="53.463939" lon="-1.723771"><ele>518</ele><time>2022-04-08T11:47:13Z</time><name>PT3288</name></trkpt>
<trkpt lat="53.463943" lon="-1.723785"><ele>518</ele><time>2022-04-08T11:47:13Z</time><name>PT3289</name></trkpt>
<trkpt lat="53.463942" lon="-1.723798"><ele>516</ele><time>2022-04-08T11:47:14Z</time><name>PT3290</name></trkpt>
<trkpt lat="53.463949" lon="-1.723818"><ele>517</ele><time>2022-04-08T11:47:15Z</time><name>PT3291</name></trkpt>
<trkpt lat="53.463955" lon="-1.723835"><ele>517</ele><time>2022-04-08T11:47:16Z</time><name>PT3292</name></trkpt>
<trkpt lat="53.463962" lon="-1.723847"><ele>518</ele><time>2022-04-08T11:47:17Z</time><name>PT3293</name></trkpt>
<trkpt lat="53.463970" lon="-1.723853"><ele>518</ele><time>2022-04-08T11:47:19Z</time><name>PT3294</name></trkpt>
<trkpt lat="53.463978" lon="-1.723861"><ele>518</ele><time>2022-04-08T11:47:19Z</time><name>PT3295</name></trkpt>
<trkpt lat="53.463988" lon="-1.723870"><ele>518</ele><time>2022-04-08T11:47:20Z</time><name>PT3296</name></trkpt>
<trkpt lat="53.463997" lon="-1.723875"><ele>518</ele><time>2022-04-08T11:47:21Z</time><name>PT3297</name></trkpt>
<trkpt lat="53.464005" lon="-1.723877"><ele>517</ele><time>2022-04-08T11:47:22Z</time><name>PT3298</name></trkpt>
<trkpt lat="53.464012" lon="-1.723877"><ele>517</ele><time>2022-04-08T11:47:23Z</time><name>PT3299</name></trkpt>
<trkpt lat="53.464022" lon="-1.723875"><ele>517</ele><time>2022-04-08T11:47:24Z</time><name>PT3300</name></trkpt>
<trkpt lat="53.464030" lon="-1.723873"><ele>517</ele><time>2022-04-08T11:47:25Z</time><name>PT3301</name></trkpt>
<trkpt lat="53.464039" lon="-1.723869"><ele>516</ele><time>2022-04-08T11:47:26Z</time><name>PT3302</name></trkpt>
<trkpt lat="53.464051" lon="-1.723864"><ele>517</ele><time>2022-04-08T11:47:27Z</time><name>PT3303</name></trkpt>
<trkpt lat="53.464058" lon="-1.723863"><ele>516</ele><time>2022-04-08T11:47:28Z</time><name>PT3304</name></trkpt>
<trkpt lat="53.464068" lon="-1.723873"><ele>516</ele><time>2022-04-08T11:47:29Z</time><name>PT3305</name></trkpt>
<trkpt lat="53.464073" lon="-1.723887"><ele>517</ele><time>2022-04-08T11:47:30Z</time><name>PT3306</name></trkpt>
<trkpt lat="53.464073" lon="-1.723905"><ele>517</ele><time>2022-04-08T11:47:31Z</time><name>PT3307</name></trkpt>
<trkpt lat="53.464074" lon="-1.723921"><ele>517</ele><time>2022-04-08T11:47:32Z</time><name>PT3308</name></trkpt>
<trkpt lat="53.464077" lon="-1.723938"><ele>517</ele><time>2022-04-08T11:47:33Z</time><name>PT3309</name></trkpt>
<trkpt lat="53.464082" lon="-1.723957"><ele>517</ele><time>2022-04-08T11:47:34Z</time><name>PT3310</name></trkpt>
<trkpt lat="53.464088" lon="-1.723969"><ele>517</ele><time>2022-04-08T11:47:35Z</time><name>PT3311</name></trkpt>
<trkpt lat="53.464096" lon="-1.723974"><ele>517</ele><time>2022-04-08T11:47:36Z</time><name>PT3312</name></trkpt>
<trkpt lat="53.464104" lon="-1.723974"><ele>517</ele><time>2022-04-08T11:47:38Z</time><name>PT3313</name></trkpt>
<trkpt lat="53.464110" lon="-1.723969"><ele>517</ele><time>2022-04-08T11:47:38Z</time><name>PT3314</name></trkpt>
<trkpt lat="53.464123" lon="-1.723967"><ele>517</ele><time>2022-04-08T11:47:39Z</time><name>PT3315</name></trkpt>
<trkpt lat="53.464133" lon="-1.723972"><ele>517</ele><time>2022-04-08T11:47:40Z</time><name>PT3316</name></trkpt>
<trkpt lat="53.464141" lon="-1.723977"><ele>517</ele><time>2022-04-08T11:47:41Z</time><name>PT3317</name></trkpt>
<trkpt lat="53.464151" lon="-1.723979"><ele>517</ele><time>2022-04-08T11:47:42Z</time><name>PT3318</name></trkpt>
<trkpt lat="53.464159" lon="-1.723973"><ele>517</ele><time>2022-04-08T11:47:43Z</time><name>PT3319</name></trkpt>
<trkpt lat="53.464164" lon="-1.723963"><ele>517</ele><time>2022-04-08T11:47:45Z</time><name>PT3320</name></trkpt>
<trkpt lat="53.464171" lon="-1.723952"><ele>517</ele><time>2022-04-08T11:47:45Z</time><name>PT3321</name></trkpt>
<trkpt lat="53.464177" lon="-1.723943"><ele>517</ele><time>2022-04-08T11:47:46Z</time><name>PT3322</name></trkpt>
<trkpt lat="53.464183" lon="-1.723945"><ele>517</ele><time>2022-04-08T11:47:47Z</time><name>PT3323</name></trkpt>
<trkpt lat="53.464189" lon="-1.723960"><ele>517</ele><time>2022-04-08T11:47:48Z</time><name>PT3324</name></trkpt>
<trkpt lat="53.464191" lon="-1.723976"><ele>517</ele><time>2022-04-08T11:47:49Z</time><name>PT3325</name></trkpt>
<trkpt lat="53.464193" lon="-1.723994"><ele>518</ele><time>2022-04-08T11:47:50Z</time><name>PT3326</name></trkpt>
<trkpt lat="53.464197" lon="-1.724011"><ele>517</ele><time>2022-04-08T11:47:51Z</time><name>PT3327</name></trkpt>
<trkpt lat="53.464203" lon="-1.724023"><ele>517</ele><time>2022-04-08T11:47:52Z</time><name>PT3328</name></trkpt>
<trkpt lat="53.464210" lon="-1.724037"><ele>517</ele><time>2022-04-08T11:47:53Z</time><name>PT3329</name></trkpt>
<trkpt lat="53.464217" lon="-1.724049"><ele>517</ele><time>2022-04-08T11:47:54Z</time><name>PT3330</name></trkpt>
<trkpt lat="53.464226" lon="-1.724060"><ele>517</ele><time>2022-04-08T11:47:55Z</time><name>PT3331</name></trkpt>
<trkpt lat="53.464235" lon="-1.724075"><ele>517</ele><time>2022-04-08T11:47:56Z</time><name>PT3332</name></trkpt>
<trkpt lat="53.464244" lon="-1.724090"><ele>517</ele><time>2022-04-08T11:47:57Z</time><name>PT3333</name></trkpt>
<trkpt lat="53.464249" lon="-1.724107"><ele>517</ele><time>2022-04-08T11:47:58Z</time><name>PT3334</name></trkpt>
<trkpt lat="53.464251" lon="-1.724127"><ele>517</ele><time>2022-04-08T11:47:59Z</time><name>PT3335</name></trkpt>
<trkpt lat="53.464253" lon="-1.724148"><ele>517</ele><time>2022-04-08T11:48:00Z</time><name>PT3336</name></trkpt>
<trkpt lat="53.464256" lon="-1.724165"><ele>517</ele><time>2022-04-08T11:48:01Z</time><name>PT3337</name></trkpt>
<trkpt lat="53.464263" lon="-1.724179"><ele>517</ele><time>2022-04-08T11:48:02Z</time><name>PT3338</name></trkpt>
<trkpt lat="53.464271" lon="-1.724193"><ele>517</ele><time>2022-04-08T11:48:03Z</time><name>PT3339</name></trkpt>
<trkpt lat="53.464280" lon="-1.724204"><ele>517</ele><time>2022-04-08T11:48:04Z</time><name>PT3340</name></trkpt>
<trkpt lat="53.464289" lon="-1.724210"><ele>517</ele><time>2022-04-08T11:48:05Z</time><name>PT3341</name></trkpt>
<trkpt lat="53.464298" lon="-1.724210"><ele>517</ele><time>2022-04-08T11:48:06Z</time><name>PT3342</name></trkpt>
<trkpt lat="53.464307" lon="-1.724207"><ele>517</ele><time>2022-04-08T11:48:07Z</time><name>PT3343</name></trkpt>
<trkpt lat="53.464317" lon="-1.724201"><ele>517</ele><time>2022-04-08T11:48:08Z</time><name>PT3344</name></trkpt>
<trkpt lat="53.464325" lon="-1.724203"><ele>517</ele><time>2022-04-08T11:48:09Z</time><name>PT3345</name></trkpt>
<trkpt lat="53.464334" lon="-1.724209"><ele>517</ele><time>2022-04-08T11:48:10Z</time><name>PT3346</name></trkpt>
<trkpt lat="53.464345" lon="-1.724216"><ele>517</ele><time>2022-04-08T11:48:11Z</time><name>PT3347</name></trkpt>
<trkpt lat="53.464353" lon="-1.724228"><ele>517</ele><time>2022-04-08T11:48:12Z</time><name>PT3348</name></trkpt>
<trkpt lat="53.464355" lon="-1.724245"><ele>517</ele><time>2022-04-08T11:48:13Z</time><name>PT3349</name></trkpt>
<trkpt lat="53.464355" lon="-1.724263"><ele>517</ele><time>2022-04-08T11:48:14Z</time><name>PT3350</name></trkpt>
<trkpt lat="53.464356" lon="-1.724279"><ele>517</ele><time>2022-04-08T11:48:15Z</time><name>PT3351</name></trkpt>
<trkpt lat="53.464363" lon="-1.724293"><ele>517</ele><time>2022-04-08T11:48:16Z</time><name>PT3352</name></trkpt>
<trkpt lat="53.464370" lon="-1.724305"><ele>517</ele><time>2022-04-08T11:48:17Z</time><name>PT3353</name></trkpt>
<trkpt lat="53.464377" lon="-1.724317"><ele>518</ele><time>2022-04-08T11:48:18Z</time><name>PT3354</name></trkpt>
<trkpt lat="53.464384" lon="-1.724323"><ele>518</ele><time>2022-04-08T11:48:19Z</time><name>PT3355</name></trkpt>
<trkpt lat="53.464393" lon="-1.724326"><ele>518</ele><time>2022-04-08T11:48:20Z</time><name>PT3356</name></trkpt>
<trkpt lat="53.464399" lon="-1.724325"><ele>517</ele><time>2022-04-08T11:48:21Z</time><name>PT3357</name></trkpt>
<trkpt lat="53.464407" lon="-1.724317"><ele>517</ele><time>2022-04-08T11:48:22Z</time><name>PT3358</name></trkpt>
<trkpt lat="53.464414" lon="-1.724305"><ele>517</ele><time>2022-04-08T11:48:23Z</time><name>PT3359</name></trkpt>
<trkpt lat="53.464422" lon="-1.724295"><ele>517</ele><time>2022-04-08T11:48:24Z</time><name>PT3360</name></trkpt>
<trkpt lat="53.464430" lon="-1.724292"><ele>517</ele><time>2022-04-08T11:48:25Z</time><name>PT3361</name></trkpt>
<trkpt lat="53.464437" lon="-1.724305"><ele>518</ele><time>2022-04-08T11:48:26Z</time><name>PT3362</name></trkpt>
<trkpt lat="53.464440" lon="-1.724320"><ele>518</ele><time>2022-04-08T11:48:27Z</time><name>PT3363</name></trkpt>
<trkpt lat="53.464438" lon="-1.724333"><ele>518</ele><time>2022-04-08T11:48:28Z</time><name>PT3364</name></trkpt>
<trkpt lat="53.464438" lon="-1.724345"><ele>518</ele><time>2022-04-08T11:48:29Z</time><name>PT3365</name></trkpt>
<trkpt lat="53.464438" lon="-1.724352"><ele>518</ele><time>2022-04-08T11:48:30Z</time><name>PT3366</name></trkpt>
<trkpt lat="53.464435" lon="-1.724360"><ele>518</ele><time>2022-04-08T11:48:31Z</time><name>PT3367</name></trkpt>
<trkpt lat="53.464429" lon="-1.724366"><ele>518</ele><time>2022-04-08T11:48:32Z</time><name>PT3368</name></trkpt>
<trkpt lat="53.464421" lon="-1.724377"><ele>518</ele><time>2022-04-08T11:48:33Z</time><name>PT3369</name></trkpt>
<trkpt lat="53.464420" lon="-1.724391"><ele>518</ele><time>2022-04-08T11:48:34Z</time><name>PT3370</name></trkpt>
<trkpt lat="53.464426" lon="-1.724404"><ele>518</ele><time>2022-04-08T11:48:35Z</time><name>PT3371</name></trkpt>
<trkpt lat="53.464434" lon="-1.724416"><ele>518</ele><time>2022-04-08T11:48:36Z</time><name>PT3372</name></trkpt>
<trkpt lat="53.464440" lon="-1.724429"><ele>518</ele><time>2022-04-08T11:48:37Z</time><name>PT3373</name></trkpt>
<trkpt lat="53.464446" lon="-1.724445"><ele>518</ele><time>2022-04-08T11:48:38Z</time><name>PT3374</name></trkpt>
<trkpt lat="53.464451" lon="-1.724457"><ele>518</ele><time>2022-04-08T11:48:39Z</time><name>PT3375</name></trkpt>
<trkpt lat="53.464460" lon="-1.724464"><ele>518</ele><time>2022-04-08T11:48:40Z</time><name>PT3376</name></trkpt>
<trkpt lat="53.464468" lon="-1.724468"><ele>518</ele><time>2022-04-08T11:48:41Z</time><name>PT3377</name></trkpt>
<trkpt lat="53.464475" lon="-1.724473"><ele>518</ele><time>2022-04-08T11:48:42Z</time><name>PT3378</name></trkpt>
<trkpt lat="53.464482" lon="-1.724484"><ele>518</ele><time>2022-04-08T11:48:43Z</time><name>PT3379</name></trkpt>
<trkpt lat="53.464489" lon="-1.724493"><ele>518</ele><time>2022-04-08T11:48:44Z</time><name>PT3380</name></trkpt>
<trkpt lat="53.464498" lon="-1.724503"><ele>518</ele><time>2022-04-08T11:48:45Z</time><name>PT3381</name></trkpt>
<trkpt lat="53.464506" lon="-1.724513"><ele>518</ele><time>2022-04-08T11:48:46Z</time><name>PT3382</name></trkpt>
<trkpt lat="53.464513" lon="-1.724524"><ele>518</ele><time>2022-04-08T11:48:47Z</time><name>PT3383</name></trkpt>
<trkpt lat="53.464521" lon="-1.724536"><ele>518</ele><time>2022-04-08T11:48:48Z</time><name>PT3384</name></trkpt>
<trkpt lat="53.464527" lon="-1.724550"><ele>518</ele><time>2022-04-08T11:48:49Z</time><name>PT3385</name></trkpt>
<trkpt lat="53.464530" lon="-1.724568"><ele>518</ele><time>2022-04-08T11:48:50Z</time><name>PT3386</name></trkpt>
<trkpt lat="53.464530" lon="-1.724586"><ele>518</ele><time>2022-04-08T11:48:51Z</time><name>PT3387</name></trkpt>
<trkpt lat="53.464531" lon="-1.724604"><ele>518</ele><time>2022-04-08T11:48:52Z</time><name>PT3388</name></trkpt>
<trkpt lat="53.464536" lon="-1.724620"><ele>518</ele><time>2022-04-08T11:48:53Z</time><name>PT3389</name></trkpt>
<trkpt lat="53.464542" lon="-1.724635"><ele>518</ele><time>2022-04-08T11:48:54Z</time><name>PT3390</name></trkpt>
<trkpt lat="53.464545" lon="-1.724648"><ele>518</ele><time>2022-04-08T11:48:55Z</time><name>PT3391</name></trkpt>
<trkpt lat="53.464551" lon="-1.724660"><ele>518</ele><time>2022-04-08T11:48:56Z</time><name>PT3392</name></trkpt>
<trkpt lat="53.464557" lon="-1.724669"><ele>518</ele><time>2022-04-08T11:48:57Z</time><name>PT3393</name></trkpt>
<trkpt lat="53.464564" lon="-1.724680"><ele>518</ele><time>2022-04-08T11:48:58Z</time><name>PT3394</name></trkpt>
<trkpt lat="53.464572" lon="-1.724689"><ele>518</ele><time>2022-04-08T11:48:59Z</time><name>PT3395</name></trkpt>
<trkpt lat="53.464578" lon="-1.724697"><ele>518</ele><time>2022-04-08T11:49:00Z</time><name>PT3396</name></trkpt>
<trkpt lat="53.464583" lon="-1.724709"><ele>518</ele><time>2022-04-08T11:49:01Z</time><name>PT3397</name></trkpt>
<trkpt lat="53.464586" lon="-1.724724"><ele>518</ele><time>2022-04-08T11:49:02Z</time><name>PT3398</name></trkpt>
<trkpt lat="53.464589" lon="-1.724737"><ele>519</ele><time>2022-04-08T11:49:03Z</time><name>PT3399</name></trkpt>
<trkpt lat="53.464594" lon="-1.724751"><ele>519</ele><time>2022-04-08T11:49:04Z</time><name>PT3400</name></trkpt>
<trkpt lat="53.464599" lon="-1.724763"><ele>519</ele><time>2022-04-08T11:49:05Z</time><name>PT3401</name></trkpt>
<trkpt lat="53.464604" lon="-1.724775"><ele>519</ele><time>2022-04-08T11:49:06Z</time><name>PT3402</name></trkpt>
<trkpt lat="53.464608" lon="-1.724787"><ele>519</ele><time>2022-04-08T11:49:07Z</time><name>PT3403</name></trkpt>
<trkpt lat="53.464614" lon="-1.724793"><ele>520</ele><time>2022-04-08T11:49:08Z</time><name>PT3404</name></trkpt>
<trkpt lat="53.464621" lon="-1.724795"><ele>520</ele><time>2022-04-08T11:49:09Z</time><name>PT3405</name></trkpt>
<trkpt lat="53.464630" lon="-1.724795"><ele>520</ele><time>2022-04-08T11:49:10Z</time><name>PT3406</name></trkpt>
<trkpt lat="53.464640" lon="-1.724795"><ele>520</ele><time>2022-04-08T11:49:11Z</time><name>PT3407</name></trkpt>
<trkpt lat="53.464649" lon="-1.724794"><ele>519</ele><time>2022-04-08T11:49:12Z</time><name>PT3408</name></trkpt>
<trkpt lat="53.464653" lon="-1.724794"><ele>519</ele><time>2022-04-08T11:49:13Z</time><name>PT3409</name></trkpt>
<trkpt lat="53.464652" lon="-1.724788"><ele>519</ele><time>2022-04-08T11:49:14Z</time><name>PT3410</name></trkpt>
<trkpt lat="53.464653" lon="-1.724790"><ele>519</ele><time>2022-04-08T11:49:15Z</time><name>PT3411</name></trkpt>
<trkpt lat="53.464657" lon="-1.724797"><ele>519</ele><time>2022-04-08T11:49:16Z</time><name>PT3412</name></trkpt>
<trkpt lat="53.464658" lon="-1.724798"><ele>519</ele><time>2022-04-08T11:49:17Z</time><name>PT3413</name></trkpt>
<trkpt lat="53.464661" lon="-1.724796"><ele>519</ele><time>2022-04-08T11:49:18Z</time><name>PT3414</name></trkpt>
<trkpt lat="53.464666" lon="-1.724792"><ele>519</ele><time>2022-04-08T11:49:19Z</time><name>PT3415</name></trkpt>
<trkpt lat="53.464673" lon="-1.724792"><ele>519</ele><time>2022-04-08T11:49:20Z</time><name>PT3416</name></trkpt>
<trkpt lat="53.464674" lon="-1.724784"><ele>519</ele><time>2022-04-08T11:49:21Z</time><name>PT3417</name></trkpt>
<trkpt lat="53.464675" lon="-1.724780"><ele>519</ele><time>2022-04-08T11:49:22Z</time><name>PT3418</name></trkpt>
<trkpt lat="53.464678" lon="-1.724781"><ele>519</ele><time>2022-04-08T11:49:23Z</time><name>PT3419</name></trkpt>
<trkpt lat="53.464678" lon="-1.724779"><ele>519</ele><time>2022-04-08T11:49:24Z</time><name>PT3420</name></trkpt>
<trkpt lat="53.464674" lon="-1.724771"><ele>519</ele><time>2022-04-08T11:49:25Z</time><name>PT3421</name></trkpt>
<trkpt lat="53.464668" lon="-1.724755"><ele>519</ele><time>2022-04-08T11:49:26Z</time><name>PT3422</name></trkpt>
<trkpt lat="53.464670" lon="-1.724742"><ele>519</ele><time>2022-04-08T11:49:27Z</time><name>PT3423</name></trkpt>
<trkpt lat="53.464674" lon="-1.724728"><ele>519</ele><time>2022-04-08T11:49:28Z</time><name>PT3424</name></trkpt>
<trkpt lat="53.464679" lon="-1.724714"><ele>519</ele><time>2022-04-08T11:49:29Z</time><name>PT3425</name></trkpt>
<trkpt lat="53.464681" lon="-1.724701"><ele>519</ele><time>2022-04-08T11:49:30Z</time><name>PT3426</name></trkpt>
<trkpt lat="53.464685" lon="-1.724688"><ele>519</ele><time>2022-04-08T11:49:31Z</time><name>PT3427</name></trkpt>
<trkpt lat="53.464693" lon="-1.724676"><ele>520</ele><time>2022-04-08T11:49:32Z</time><name>PT3428</name></trkpt>
<trkpt lat="53.464700" lon="-1.724669"><ele>520</ele><time>2022-04-08T11:49:33Z</time><name>PT3429</name></trkpt>
<trkpt lat="53.464705" lon="-1.724658"><ele>520</ele><time>2022-04-08T11:49:34Z</time><name>PT3430</name></trkpt>
<trkpt lat="53.464711" lon="-1.724648"><ele>519</ele><time>2022-04-08T11:49:36Z</time><name>PT3431</name></trkpt>
<trkpt lat="53.464717" lon="-1.724641"><ele>519</ele><time>2022-04-08T11:49:36Z</time><name>PT3432</name></trkpt>
<trkpt lat="53.464723" lon="-1.724639"><ele>520</ele><time>2022-04-08T11:49:37Z</time><name>PT3433</name></trkpt>
<trkpt lat="53.464733" lon="-1.724648"><ele>520</ele><time>2022-04-08T11:49:38Z</time><name>PT3434</name></trkpt>
<trkpt lat="53.464739" lon="-1.724656"><ele>520</ele><time>2022-04-08T11:49:39Z</time><name>PT3435</name></trkpt>
<trkpt lat="53.464744" lon="-1.724657"><ele>520</ele><time>2022-04-08T11:49:41Z</time><name>PT3436</name></trkpt>
<trkpt lat="53.464747" lon="-1.724660"><ele>520</ele><time>2022-04-08T11:49:41Z</time><name>PT3437</name></trkpt>
<trkpt lat="53.464749" lon="-1.724664"><ele>520</ele><time>2022-04-08T11:49:42Z</time><name>PT3438</name></trkpt>
<trkpt lat="53.464750" lon="-1.724668"><ele>520</ele><time>2022-04-08T11:49:43Z</time><name>PT3439</name></trkpt>
<trkpt lat="53.464749" lon="-1.724675"><ele>519</ele><time>2022-04-08T11:49:44Z</time><name>PT3440</name></trkpt>
<trkpt lat="53.464748" lon="-1.724679"><ele>519</ele><time>2022-04-08T11:49:45Z</time><name>PT3441</name></trkpt>
<trkpt lat="53.464747" lon="-1.724678"><ele>519</ele><time>2022-04-08T11:49:46Z</time><name>PT3442</name></trkpt>
<trkpt lat="53.464749" lon="-1.724670"><ele>519</ele><time>2022-04-08T11:49:47Z</time><name>PT3443</name></trkpt>
<trkpt lat="53.464750" lon="-1.724663"><ele>519</ele><time>2022-04-08T11:49:48Z</time><name>PT3444</name></trkpt>
<trkpt lat="53.464751" lon="-1.724650"><ele>519</ele><time>2022-04-08T11:49:49Z</time><name>PT3445</name></trkpt>
<trkpt lat="53.464753" lon="-1.724633"><ele>519</ele><time>2022-04-08T11:49:50Z</time><name>PT3446</name></trkpt>
<trkpt lat="53.464759" lon="-1.724623"><ele>519</ele><time>2022-04-08T11:49:51Z</time><name>PT3447</name></trkpt>
<trkpt lat="53.464763" lon="-1.724619"><ele>519</ele><time>2022-04-08T11:49:52Z</time><name>PT3448</name></trkpt>
<trkpt lat="53.464768" lon="-1.724618"><ele>519</ele><time>2022-04-08T11:49:53Z</time><name>PT3449</name></trkpt>
<trkpt lat="53.464780" lon="-1.724620"><ele>519</ele><time>2022-04-08T11:49:54Z</time><name>PT3450</name></trkpt>
<trkpt lat="53.464788" lon="-1.724623"><ele>518</ele><time>2022-04-08T11:49:55Z</time><name>PT3451</name></trkpt>
<trkpt lat="53.464795" lon="-1.724627"><ele>518</ele><time>2022-04-08T11:49:56Z</time><name>PT3452</name></trkpt>
<trkpt lat="53.464803" lon="-1.724633"><ele>518</ele><time>2022-04-08T11:49:57Z</time><name>PT3453</name></trkpt>
<trkpt lat="53.464810" lon="-1.724646"><ele>518</ele><time>2022-04-08T11:49:58Z</time><name>PT3454</name></trkpt>
<trkpt lat="53.464816" lon="-1.724660"><ele>518</ele><time>2022-04-08T11:49:59Z</time><name>PT3455</name></trkpt>
<trkpt lat="53.464818" lon="-1.724676"><ele>518</ele><time>2022-04-08T11:50:00Z</time><name>PT3456</name></trkpt>
<trkpt lat="53.464821" lon="-1.724689"><ele>518</ele><time>2022-04-08T11:50:01Z</time><name>PT3457</name></trkpt>
<trkpt lat="53.464819" lon="-1.724706"><ele>518</ele><time>2022-04-08T11:50:02Z</time><name>PT3458</name></trkpt>
<trkpt lat="53.464820" lon="-1.724719"><ele>519</ele><time>2022-04-08T11:50:03Z</time><name>PT3459</name></trkpt>
<trkpt lat="53.464822" lon="-1.724734"><ele>519</ele><time>2022-04-08T11:50:04Z</time><name>PT3460</name></trkpt>
<trkpt lat="53.464823" lon="-1.724753"><ele>519</ele><time>2022-04-08T11:50:05Z</time><name>PT3461</name></trkpt>
<trkpt lat="53.464823" lon="-1.724766"><ele>519</ele><time>2022-04-08T11:50:06Z</time><name>PT3462</name></trkpt>
<trkpt lat="53.464827" lon="-1.724778"><ele>519</ele><time>2022-04-08T11:50:07Z</time><name>PT3463</name></trkpt>
<trkpt lat="53.464829" lon="-1.724788"><ele>519</ele><time>2022-04-08T11:50:08Z</time><name>PT3464</name></trkpt>
<trkpt lat="53.464834" lon="-1.724790"><ele>519</ele><time>2022-04-08T11:50:09Z</time><name>PT3465</name></trkpt>
<trkpt lat="53.464838" lon="-1.724797"><ele>519</ele><time>2022-04-08T11:50:10Z</time><name>PT3466</name></trkpt>
<trkpt lat="53.464836" lon="-1.724805"><ele>519</ele><time>2022-04-08T11:50:11Z</time><name>PT3467</name></trkpt>
<trkpt lat="53.464831" lon="-1.724813"><ele>519</ele><time>2022-04-08T11:50:12Z</time><name>PT3468</name></trkpt>
<trkpt lat="53.464824" lon="-1.724821"><ele>519</ele><time>2022-04-08T11:50:13Z</time><name>PT3469</name></trkpt>
<trkpt lat="53.464816" lon="-1.724827"><ele>519</ele><time>2022-04-08T11:50:14Z</time><name>PT3470</name></trkpt>
<trkpt lat="53.464811" lon="-1.724834"><ele>519</ele><time>2022-04-08T11:50:15Z</time><name>PT3471</name></trkpt>
<trkpt lat="53.464808" lon="-1.724852"><ele>519</ele><time>2022-04-08T11:50:16Z</time><name>PT3472</name></trkpt>
<trkpt lat="53.464809" lon="-1.724864"><ele>519</ele><time>2022-04-08T11:50:17Z</time><name>PT3473</name></trkpt>
<trkpt lat="53.464817" lon="-1.724869"><ele>519</ele><time>2022-04-08T11:50:18Z</time><name>PT3474</name></trkpt>
<trkpt lat="53.464829" lon="-1.724884"><ele>520</ele><time>2022-04-08T11:50:19Z</time><name>PT3475</name></trkpt>
<trkpt lat="53.464836" lon="-1.724896"><ele>520</ele><time>2022-04-08T11:50:20Z</time><name>PT3476</name></trkpt>
<trkpt lat="53.464841" lon="-1.724910"><ele>520</ele><time>2022-04-08T11:50:21Z</time><name>PT3477</name></trkpt>
<trkpt lat="53.464845" lon="-1.724923"><ele>520</ele><time>2022-04-08T11:50:22Z</time><name>PT3478</name></trkpt>
<trkpt lat="53.464850" lon="-1.724935"><ele>519</ele><time>2022-04-08T11:50:23Z</time><name>PT3479</name></trkpt>
<trkpt lat="53.464856" lon="-1.724943"><ele>519</ele><time>2022-04-08T11:50:24Z</time><name>PT3480</name></trkpt>
<trkpt lat="53.464861" lon="-1.724957"><ele>519</ele><time>2022-04-08T11:50:25Z</time><name>PT3481</name></trkpt>
<trkpt lat="53.464862" lon="-1.724974"><ele>519</ele><time>2022-04-08T11:50:26Z</time><name>PT3482</name></trkpt>
<trkpt lat="53.464865" lon="-1.724990"><ele>519</ele><time>2022-04-08T11:50:27Z</time><name>PT3483</name></trkpt>
<trkpt lat="53.464869" lon="-1.725005"><ele>519</ele><time>2022-04-08T11:50:28Z</time><name>PT3484</name></trkpt>
<trkpt lat="53.464873" lon="-1.725020"><ele>519</ele><time>2022-04-08T11:50:29Z</time><name>PT3485</name></trkpt>
<trkpt lat="53.464880" lon="-1.725033"><ele>518</ele><time>2022-04-08T11:50:30Z</time><name>PT3486</name></trkpt>
<trkpt lat="53.464886" lon="-1.725045"><ele>519</ele><time>2022-04-08T11:50:31Z</time><name>PT3487</name></trkpt>
<trkpt lat="53.464892" lon="-1.725058"><ele>518</ele><time>2022-04-08T11:50:32Z</time><name>PT3488</name></trkpt>
<trkpt lat="53.464900" lon="-1.725072"><ele>519</ele><time>2022-04-08T11:50:33Z</time><name>PT3489</name></trkpt>
<trkpt lat="53.464901" lon="-1.725085"><ele>518</ele><time>2022-04-08T11:50:34Z</time><name>PT3490</name></trkpt>
<trkpt lat="53.464899" lon="-1.725099"><ele>518</ele><time>2022-04-08T11:50:35Z</time><name>PT3491</name></trkpt>
<trkpt lat="53.464901" lon="-1.725112"><ele>518</ele><time>2022-04-08T11:50:36Z</time><name>PT3492</name></trkpt>
<trkpt lat="53.464901" lon="-1.725124"><ele>518</ele><time>2022-04-08T11:50:37Z</time><name>PT3493</name></trkpt>
<trkpt lat="53.464902" lon="-1.725140"><ele>518</ele><time>2022-04-08T11:50:38Z</time><name>PT3494</name></trkpt>
<trkpt lat="53.464903" lon="-1.725152"><ele>518</ele><time>2022-04-08T11:50:39Z</time><name>PT3495</name></trkpt>
<trkpt lat="53.464908" lon="-1.725162"><ele>518</ele><time>2022-04-08T11:50:40Z</time><name>PT3496</name></trkpt>
<trkpt lat="53.464918" lon="-1.725163"><ele>519</ele><time>2022-04-08T11:50:41Z</time><name>PT3497</name></trkpt>
<trkpt lat="53.464927" lon="-1.725167"><ele>519</ele><time>2022-04-08T11:50:42Z</time><name>PT3498</name></trkpt>
<trkpt lat="53.464932" lon="-1.725180"><ele>519</ele><time>2022-04-08T11:50:43Z</time><name>PT3499</name></trkpt>
<trkpt lat="53.464933" lon="-1.725198"><ele>519</ele><time>2022-04-08T11:50:44Z</time><name>PT3500</name></trkpt>
<trkpt lat="53.464933" lon="-1.725215"><ele>519</ele><time>2022-04-08T11:50:45Z</time><name>PT3501</name></trkpt>
<trkpt lat="53.464931" lon="-1.725227"><ele>519</ele><time>2022-04-08T11:50:46Z</time><name>PT3502</name></trkpt>
<trkpt lat="53.464927" lon="-1.725240"><ele>519</ele><time>2022-04-08T11:50:47Z</time><name>PT3503</name></trkpt>
<trkpt lat="53.464927" lon="-1.725253"><ele>519</ele><time>2022-04-08T11:50:48Z</time><name>PT3504</name></trkpt>
<trkpt lat="53.464930" lon="-1.725265"><ele>519</ele><time>2022-04-08T11:50:49Z</time><name>PT3505</name></trkpt>
<trkpt lat="53.464931" lon="-1.725270"><ele>519</ele><time>2022-04-08T11:50:50Z</time><name>PT3506</name></trkpt>
<trkpt lat="53.464931" lon="-1.725273"><ele>519</ele><time>2022-04-08T11:50:51Z</time><name>PT3507</name></trkpt>
<trkpt lat="53.464930" lon="-1.725278"><ele>519</ele><time>2022-04-08T11:50:52Z</time><name>PT3508</name></trkpt>
<trkpt lat="53.464929" lon="-1.725277"><ele>519</ele><time>2022-04-08T11:50:53Z</time><name>PT3509</name></trkpt>
<trkpt lat="53.464923" lon="-1.725275"><ele>519</ele><time>2022-04-08T11:50:54Z</time><name>PT3510</name></trkpt>
<trkpt lat="53.464919" lon="-1.725271"><ele>519</ele><time>2022-04-08T11:50:55Z</time><name>PT3511</name></trkpt>
<trkpt lat="53.464916" lon="-1.725269"><ele>519</ele><time>2022-04-08T11:50:56Z</time><name>PT3512</name></trkpt>
<trkpt lat="53.464913" lon="-1.725269"><ele>519</ele><time>2022-04-08T11:50:57Z</time><name>PT3513</name></trkpt>
<trkpt lat="53.464910" lon="-1.725266"><ele>518</ele><time>2022-04-08T11:50:58Z</time><name>PT3514</name></trkpt>
<trkpt lat="53.464908" lon="-1.725265"><ele>518</ele><time>2022-04-08T11:50:59Z</time><name>PT3515</name></trkpt>
<trkpt lat="53.464907" lon="-1.725265"><ele>518</ele><time>2022-04-08T11:51:00Z</time><name>PT3516</name></trkpt>
<trkpt lat="53.464907" lon="-1.725264"><ele>517</ele><time>2022-04-08T11:51:01Z</time><name>PT3517</name></trkpt>
<trkpt lat="53.464910" lon="-1.725260"><ele>517</ele><time>2022-04-08T11:51:02Z</time><name>PT3518</name></trkpt>
<trkpt lat="53.464909" lon="-1.725249"><ele>517</ele><time>2022-04-08T11:51:03Z</time><name>PT3519</name></trkpt>
<trkpt lat="53.464908" lon="-1.725232"><ele>517</ele><time>2022-04-08T11:51:04Z</time><name>PT3520</name></trkpt>
<trkpt lat="53.464907" lon="-1.725223"><ele>517</ele><time>2022-04-08T11:51:05Z</time><name>PT3521</name></trkpt>
<trkpt lat="53.464911" lon="-1.725214"><ele>516</ele><time>2022-04-08T11:51:06Z</time><name>PT3522</name></trkpt>
<trkpt lat="53.464918" lon="-1.725208"><ele>517</ele><time>2022-04-08T11:51:07Z</time><name>PT3523</name></trkpt>
<trkpt lat="53.464920" lon="-1.725208"><ele>517</ele><time>2022-04-08T11:51:08Z</time><name>PT3524</name></trkpt>
<trkpt lat="53.464922" lon="-1.725206"><ele>517</ele><time>2022-04-08T11:51:09Z</time><name>PT3525</name></trkpt>
<trkpt lat="53.464927" lon="-1.725203"><ele>518</ele><time>2022-04-08T11:51:10Z</time><name>PT3526</name></trkpt>
<trkpt lat="53.464930" lon="-1.725196"><ele>518</ele><time>2022-04-08T11:51:11Z</time><name>PT3527</name></trkpt>
<trkpt lat="53.464928" lon="-1.725181"><ele>518</ele><time>2022-04-08T11:51:12Z</time><name>PT3528</name></trkpt>
<trkpt lat="53.464926" lon="-1.725165"><ele>518</ele><time>2022-04-08T11:51:13Z</time><name>PT3529</name></trkpt>
<trkpt lat="53.464929" lon="-1.725154"><ele>519</ele><time>2022-04-08T11:51:14Z</time><name>PT3530</name></trkpt>
<trkpt lat="53.464937" lon="-1.725145"><ele>519</ele><time>2022-04-08T11:51:15Z</time><name>PT3531</name></trkpt>
<trkpt lat="53.464945" lon="-1.725137"><ele>519</ele><time>2022-04-08T11:51:16Z</time><name>PT3532</name></trkpt>
<trkpt lat="53.464949" lon="-1.725128"><ele>519</ele><time>2022-04-08T11:51:17Z</time><name>PT3533</name></trkpt>
<trkpt lat="53.464952" lon="-1.725123"><ele>519</ele><time>2022-04-08T11:51:18Z</time><name>PT3534</name></trkpt>
<trkpt lat="53.464958" lon="-1.725120"><ele>519</ele><time>2022-04-08T11:51:19Z</time><name>PT3535</name></trkpt>
<trkpt lat="53.464970" lon="-1.725114"><ele>519</ele><time>2022-04-08T11:51:20Z</time><name>PT3536</name></trkpt>
<trkpt lat="53.464980" lon="-1.725111"><ele>519</ele><time>2022-04-08T11:51:21Z</time><name>PT3537</name></trkpt>
<trkpt lat="53.464985" lon="-1.725108"><ele>519</ele><time>2022-04-08T11:51:22Z</time><name>PT3538</name></trkpt>
<trkpt lat="53.464990" lon="-1.725107"><ele>519</ele><time>2022-04-08T11:51:23Z</time><name>PT3539</name></trkpt>
<trkpt lat="53.464992" lon="-1.725107"><ele>519</ele><time>2022-04-08T11:51:24Z</time><name>PT3540</name></trkpt>
<trkpt lat="53.464997" lon="-1.725109"><ele>518</ele><time>2022-04-08T11:51:25Z</time><name>PT3541</name></trkpt>
<trkpt lat="53.465009" lon="-1.725111"><ele>518</ele><time>2022-04-08T11:51:26Z</time><name>PT3542</name></trkpt>
<trkpt lat="53.465021" lon="-1.725115"><ele>518</ele><time>2022-04-08T11:51:27Z</time><name>PT3543</name></trkpt>
<trkpt lat="53.465025" lon="-1.725125"><ele>518</ele><time>2022-04-08T11:51:28Z</time><name>PT3544</name></trkpt>
<trkpt lat="53.465027" lon="-1.725141"><ele>518</ele><time>2022-04-08T11:51:29Z</time><name>PT3545</name></trkpt>
<trkpt lat="53.465030" lon="-1.725155"><ele>519</ele><time>2022-04-08T11:51:30Z</time><name>PT3546</name></trkpt>
<trkpt lat="53.465032" lon="-1.725167"><ele>519</ele><time>2022-04-08T11:51:31Z</time><name>PT3547</name></trkpt>
<trkpt lat="53.465032" lon="-1.725174"><ele>519</ele><time>2022-04-08T11:51:32Z</time><name>PT3548</name></trkpt>
<trkpt lat="53.465030" lon="-1.725182"><ele>519</ele><time>2022-04-08T11:51:33Z</time><name>PT3549</name></trkpt>
<trkpt lat="53.465029" lon="-1.725190"><ele>520</ele><time>2022-04-08T11:51:34Z</time><name>PT3550</name></trkpt>
<trkpt lat="53.465025" lon="-1.725190"><ele>519</ele><time>2022-04-08T11:51:35Z</time><name>PT3551</name></trkpt>
<trkpt lat="53.465021" lon="-1.725190"><ele>519</ele><time>2022-04-08T11:51:36Z</time><name>PT3552</name></trkpt>
<trkpt lat="53.465014" lon="-1.725192"><ele>519</ele><time>2022-04-08T11:51:37Z</time><name>PT3553</name></trkpt>
<trkpt lat="53.465013" lon="-1.725191"><ele>519</ele><time>2022-04-08T11:51:38Z</time><name>PT3554</name></trkpt>
<trkpt lat="53.465013" lon="-1.725191"><ele>518</ele><time>2022-04-08T11:51:39Z</time><name>PT3555</name></trkpt>
<trkpt lat="53.465013" lon="-1.725193"><ele>518</ele><time>2022-04-08T11:51:40Z</time><name>PT3556</name></trkpt>
<trkpt lat="53.465017" lon="-1.725194"><ele>518</ele><time>2022-04-08T11:51:41Z</time><name>PT3557</name></trkpt>
<trkpt lat="53.465018" lon="-1.725201"><ele>518</ele><time>2022-04-08T11:51:42Z</time><name>PT3558</name></trkpt>
<trkpt lat="53.465014" lon="-1.725215"><ele>518</ele><time>2022-04-08T11:51:43Z</time><name>PT3559</name></trkpt>
<trkpt lat="53.465010" lon="-1.725231"><ele>517</ele><time>2022-04-08T11:51:44Z</time><name>PT3560</name></trkpt>
<trkpt lat="53.465008" lon="-1.725243"><ele>517</ele><time>2022-04-08T11:51:45Z</time><name>PT3561</name></trkpt>
<trkpt lat="53.465006" lon="-1.725258"><ele>517</ele><time>2022-04-08T11:51:46Z</time><name>PT3562</name></trkpt>
<trkpt lat="53.465003" lon="-1.725276"><ele>517</ele><time>2022-04-08T11:51:47Z</time><name>PT3563</name></trkpt>
<trkpt lat="53.465004" lon="-1.725299"><ele>518</ele><time>2022-04-08T11:51:48Z</time><name>PT3564</name></trkpt>
<trkpt lat="53.465004" lon="-1.725317"><ele>518</ele><time>2022-04-08T11:51:49Z</time><name>PT3565</name></trkpt>
<trkpt lat="53.465007" lon="-1.725333"><ele>518</ele><time>2022-04-08T11:51:50Z</time><name>PT3566</name></trkpt>
<trkpt lat="53.465012" lon="-1.725348"><ele>518</ele><time>2022-04-08T11:51:51Z</time><name>PT3567</name></trkpt>
<trkpt lat="53.465015" lon="-1.725360"><ele>518</ele><time>2022-04-08T11:51:52Z</time><name>PT3568</name></trkpt>
<trkpt lat="53.465018" lon="-1.725375"><ele>518</ele><time>2022-04-08T11:51:53Z</time><name>PT3569</name></trkpt>
<trkpt lat="53.465022" lon="-1.725388"><ele>517</ele><time>2022-04-08T11:51:54Z</time><name>PT3570</name></trkpt>
<trkpt lat="53.465028" lon="-1.725400"><ele>517</ele><time>2022-04-08T11:51:55Z</time><name>PT3571</name></trkpt>
<trkpt lat="53.465036" lon="-1.725413"><ele>518</ele><time>2022-04-08T11:51:56Z</time><name>PT3572</name></trkpt>
<trkpt lat="53.465043" lon="-1.725429"><ele>518</ele><time>2022-04-08T11:51:57Z</time><name>PT3573</name></trkpt>
<trkpt lat="53.465048" lon="-1.725440"><ele>518</ele><time>2022-04-08T11:51:58Z</time><name>PT3574</name></trkpt>
<trkpt lat="53.465056" lon="-1.725445"><ele>518</ele><time>2022-04-08T11:51:59Z</time><name>PT3575</name></trkpt>
<trkpt lat="53.465066" lon="-1.725453"><ele>518</ele><time>2022-04-08T11:52:00Z</time><name>PT3576</name></trkpt>
<trkpt lat="53.465076" lon="-1.725466"><ele>518</ele><time>2022-04-08T11:52:01Z</time><name>PT3577</name></trkpt>
<trkpt lat="53.465084" lon="-1.725473"><ele>519</ele><time>2022-04-08T11:52:02Z</time><name>PT3578</name></trkpt>
<trkpt lat="53.465090" lon="-1.725485"><ele>519</ele><time>2022-04-08T11:52:03Z</time><name>PT3579</name></trkpt>
<trkpt lat="53.465090" lon="-1.725495"><ele>519</ele><time>2022-04-08T11:52:04Z</time><name>PT3580</name></trkpt>
<trkpt lat="53.465087" lon="-1.725506"><ele>519</ele><time>2022-04-08T11:52:05Z</time><name>PT3581</name></trkpt>
<trkpt lat="53.465089" lon="-1.725531"><ele>519</ele><time>2022-04-08T11:52:06Z</time><name>PT3582</name></trkpt>
<trkpt lat="53.465096" lon="-1.725550"><ele>519</ele><time>2022-04-08T11:52:07Z</time><name>PT3583</name></trkpt>
<trkpt lat="53.465104" lon="-1.725563"><ele>519</ele><time>2022-04-08T11:52:08Z</time><name>PT3584</name></trkpt>
<trkpt lat="53.465113" lon="-1.725572"><ele>519</ele><time>2022-04-08T11:52:09Z</time><name>PT3585</name></trkpt>
<trkpt lat="53.465122" lon="-1.725583"><ele>520</ele><time>2022-04-08T11:52:10Z</time><name>PT3586</name></trkpt>
<trkpt lat="53.465130" lon="-1.725591"><ele>520</ele><time>2022-04-08T11:52:11Z</time><name>PT3587</name></trkpt>
<trkpt lat="53.465137" lon="-1.725599"><ele>520</ele><time>2022-04-08T11:52:12Z</time><name>PT3588</name></trkpt>
<trkpt lat="53.465146" lon="-1.725602"><ele>520</ele><time>2022-04-08T11:52:13Z</time><name>PT3589</name></trkpt>
<trkpt lat="53.465155" lon="-1.725607"><ele>520</ele><time>2022-04-08T11:52:15Z</time><name>PT3590</name></trkpt>
<trkpt lat="53.465160" lon="-1.725619"><ele>519</ele><time>2022-04-08T11:52:15Z</time><name>PT3591</name></trkpt>
<trkpt lat="53.465165" lon="-1.725635"><ele>519</ele><time>2022-04-08T11:52:16Z</time><name>PT3592</name></trkpt>
<trkpt lat="53.465170" lon="-1.725650"><ele>519</ele><time>2022-04-08T11:52:17Z</time><name>PT3593</name></trkpt>
<trkpt lat="53.465174" lon="-1.725666"><ele>519</ele><time>2022-04-08T11:52:18Z</time><name>PT3594</name></trkpt>
<trkpt lat="53.465177" lon="-1.725682"><ele>519</ele><time>2022-04-08T11:52:19Z</time><name>PT3595</name></trkpt>
<trkpt lat="53.465177" lon="-1.725700"><ele>519</ele><time>2022-04-08T11:52:20Z</time><name>PT3596</name></trkpt>
<trkpt lat="53.465178" lon="-1.725716"><ele>519</ele><time>2022-04-08T11:52:21Z</time><name>PT3597</name></trkpt>
<trkpt lat="53.465178" lon="-1.725733"><ele>519</ele><time>2022-04-08T11:52:22Z</time><name>PT3598</name></trkpt>
<trkpt lat="53.465183" lon="-1.725747"><ele>519</ele><time>2022-04-08T11:52:23Z</time><name>PT3599</name></trkpt>
<trkpt lat="53.465190" lon="-1.725759"><ele>519</ele><time>2022-04-08T11:52:24Z</time><name>PT3600</name></trkpt>
<trkpt lat="53.465196" lon="-1.725769"><ele>518</ele><time>2022-04-08T11:52:25Z</time><name>PT3601</name></trkpt>
<trkpt lat="53.465202" lon="-1.725777"><ele>519</ele><time>2022-04-08T11:52:26Z</time><name>PT3602</name></trkpt>
<trkpt lat="53.465212" lon="-1.725784"><ele>519</ele><time>2022-04-08T11:52:27Z</time><name>PT3603</name></trkpt>
<trkpt lat="53.465223" lon="-1.725786"><ele>519</ele><time>2022-04-08T11:52:28Z</time><name>PT3604</name></trkpt>
<trkpt lat="53.465234" lon="-1.725788"><ele>519</ele><time>2022-04-08T11:52:29Z</time><name>PT3605</name></trkpt>
<trkpt lat="53.465243" lon="-1.725781"><ele>519</ele><time>2022-04-08T11:52:30Z</time><name>PT3606</name></trkpt>
<trkpt lat="53.465253" lon="-1.725775"><ele>519</ele><time>2022-04-08T11:52:31Z</time><name>PT3607</name></trkpt>
<trkpt lat="53.465265" lon="-1.725776"><ele>520</ele><time>2022-04-08T11:52:32Z</time><name>PT3608</name></trkpt>
<trkpt lat="53.465274" lon="-1.725774"><ele>520</ele><time>2022-04-08T11:52:33Z</time><name>PT3609</name></trkpt>
<trkpt lat="53.465283" lon="-1.725769"><ele>520</ele><time>2022-04-08T11:52:34Z</time><name>PT3610</name></trkpt>
<trkpt lat="53.465293" lon="-1.725764"><ele>520</ele><time>2022-04-08T11:52:35Z</time><name>PT3611</name></trkpt>
<trkpt lat="53.465303" lon="-1.725764"><ele>521</ele><time>2022-04-08T11:52:36Z</time><name>PT3612</name></trkpt>
<trkpt lat="53.465312" lon="-1.725765"><ele>521</ele><time>2022-04-08T11:52:37Z</time><name>PT3613</name></trkpt>
<trkpt lat="53.465320" lon="-1.725767"><ele>521</ele><time>2022-04-08T11:52:38Z</time><name>PT3614</name></trkpt>
<trkpt lat="53.465329" lon="-1.725773"><ele>521</ele><time>2022-04-08T11:52:39Z</time><name>PT3615</name></trkpt>
<trkpt lat="53.465336" lon="-1.725779"><ele>521</ele><time>2022-04-08T11:52:40Z</time><name>PT3616</name></trkpt>
<trkpt lat="53.465345" lon="-1.725787"><ele>521</ele><time>2022-04-08T11:52:41Z</time><name>PT3617</name></trkpt>
<trkpt lat="53.465354" lon="-1.725795"><ele>521</ele><time>2022-04-08T11:52:42Z</time><name>PT3618</name></trkpt>
<trkpt lat="53.465362" lon="-1.725802"><ele>521</ele><time>2022-04-08T11:52:43Z</time><name>PT3619</name></trkpt>
<trkpt lat="53.465373" lon="-1.725809"><ele>521</ele><time>2022-04-08T11:52:45Z</time><name>PT3620</name></trkpt>
<trkpt lat="53.465385" lon="-1.725813"><ele>521</ele><time>2022-04-08T11:52:45Z</time><name>PT3621</name></trkpt>
<trkpt lat="53.465395" lon="-1.725816"><ele>521</ele><time>2022-04-08T11:52:46Z</time><name>PT3622</name></trkpt>
<trkpt lat="53.465405" lon="-1.725819"><ele>521</ele><time>2022-04-08T11:52:47Z</time><name>PT3623</name></trkpt>
<trkpt lat="53.465414" lon="-1.725826"><ele>521</ele><time>2022-04-08T11:52:48Z</time><name>PT3624</name></trkpt>
<trkpt lat="53.465424" lon="-1.725834"><ele>521</ele><time>2022-04-08T11:52:49Z</time><name>PT3625</name></trkpt>
<trkpt lat="53.465435" lon="-1.725841"><ele>521</ele><time>2022-04-08T11:52:50Z</time><name>PT3626</name></trkpt>
<trkpt lat="53.465445" lon="-1.725844"><ele>521</ele><time>2022-04-08T11:52:51Z</time><name>PT3627</name></trkpt>
<trkpt lat="53.465456" lon="-1.725846"><ele>521</ele><time>2022-04-08T11:52:52Z</time><name>PT3628</name></trkpt>
<trkpt lat="53.465467" lon="-1.725846"><ele>521</ele><time>2022-04-08T11:52:53Z</time><name>PT3629</name></trkpt>
<trkpt lat="53.465479" lon="-1.725847"><ele>522</ele><time>2022-04-08T11:52:55Z</time><name>PT3630</name></trkpt>
<trkpt lat="53.465489" lon="-1.725844"><ele>521</ele><time>2022-04-08T11:52:55Z</time><name>PT3631</name></trkpt>
<trkpt lat="53.465500" lon="-1.725839"><ele>521</ele><time>2022-04-08T11:52:56Z</time><name>PT3632</name></trkpt>
<trkpt lat="53.465512" lon="-1.725834"><ele>521</ele><time>2022-04-08T11:52:57Z</time><name>PT3633</name></trkpt>
<trkpt lat="53.465523" lon="-1.725829"><ele>521</ele><time>2022-04-08T11:52:58Z</time><name>PT3634</name></trkpt>
<trkpt lat="53.465533" lon="-1.725821"><ele>521</ele><time>2022-04-08T11:52:59Z</time><name>PT3635</name></trkpt>
<trkpt lat="53.465540" lon="-1.725815"><ele>521</ele><time>2022-04-08T11:53:00Z</time><name>PT3636</name></trkpt>
<trkpt lat="53.465541" lon="-1.725815"><ele>521</ele><time>2022-04-08T11:53:01Z</time><name>PT3637</name></trkpt>
<trkpt lat="53.465540" lon="-1.725816"><ele>521</ele><time>2022-04-08T11:53:02Z</time><name>PT3638</name></trkpt>
<trkpt lat="53.465545" lon="-1.725812"><ele>521</ele><time>2022-04-08T11:53:03Z</time><name>PT3639</name></trkpt>
<trkpt lat="53.465551" lon="-1.725802"><ele>521</ele><time>2022-04-08T11:53:04Z</time><name>PT3640</name></trkpt>
<trkpt lat="53.465558" lon="-1.725790"><ele>521</ele><time>2022-04-08T11:53:05Z</time><name>PT3641</name></trkpt>
<trkpt lat="53.465566" lon="-1.725782"><ele>522</ele><time>2022-04-08T11:53:06Z</time><name>PT3642</name></trkpt>
<trkpt lat="53.465577" lon="-1.725773"><ele>522</ele><time>2022-04-08T11:53:07Z</time><name>PT3643</name></trkpt>
<trkpt lat="53.465587" lon="-1.725766"><ele>521</ele><time>2022-04-08T11:53:08Z</time><name>PT3644</name></trkpt>
<trkpt lat="53.465593" lon="-1.725757"><ele>521</ele><time>2022-04-08T11:53:09Z</time><name>PT3645</name></trkpt>
<trkpt lat="53.465598" lon="-1.725750"><ele>521</ele><time>2022-04-08T11:53:10Z</time><name>PT3646</name></trkpt>
<trkpt lat="53.465605" lon="-1.725742"><ele>521</ele><time>2022-04-08T11:53:11Z</time><name>PT3647</name></trkpt>
<trkpt lat="53.465613" lon="-1.725735"><ele>521</ele><time>2022-04-08T11:53:12Z</time><name>PT3648</name></trkpt>
<trkpt lat="53.465620" lon="-1.725729"><ele>522</ele><time>2022-04-08T11:53:13Z</time><name>PT3649</name></trkpt>
<trkpt lat="53.465627" lon="-1.725724"><ele>522</ele><time>2022-04-08T11:53:14Z</time><name>PT3650</name></trkpt>
<trkpt lat="53.465638" lon="-1.725724"><ele>522</ele><time>2022-04-08T11:53:15Z</time><name>PT3651</name></trkpt>
<trkpt lat="53.465647" lon="-1.725732"><ele>522</ele><time>2022-04-08T11:53:16Z</time><name>PT3652</name></trkpt>
<trkpt lat="53.465654" lon="-1.725743"><ele>522</ele><time>2022-04-08T11:53:17Z</time><name>PT3653</name></trkpt>
<trkpt lat="53.465662" lon="-1.725756"><ele>522</ele><time>2022-04-08T11:53:18Z</time><name>PT3654</name></trkpt>
<trkpt lat="53.465668" lon="-1.725769"><ele>522</ele><time>2022-04-08T11:53:19Z</time><name>PT3655</name></trkpt>
<trkpt lat="53.465674" lon="-1.725783"><ele>522</ele><time>2022-04-08T11:53:20Z</time><name>PT3656</name></trkpt>
<trkpt lat="53.465680" lon="-1.725795"><ele>521</ele><time>2022-04-08T11:53:21Z</time><name>PT3657</name></trkpt>
<trkpt lat="53.465687" lon="-1.725810"><ele>521</ele><time>2022-04-08T11:53:22Z</time><name>PT3658</name></trkpt>
<trkpt lat="53.465694" lon="-1.725822"><ele>521</ele><time>2022-04-08T11:53:23Z</time><name>PT3659</name></trkpt>
<trkpt lat="53.465701" lon="-1.725829"><ele>521</ele><time>2022-04-08T11:53:24Z</time><name>PT3660</name></trkpt>
<trkpt lat="53.465708" lon="-1.725838"><ele>521</ele><time>2022-04-08T11:53:25Z</time><name>PT3661</name></trkpt>
<trkpt lat="53.465718" lon="-1.725849"><ele>521</ele><time>2022-04-08T11:53:26Z</time><name>PT3662</name></trkpt>
<trkpt lat="53.465727" lon="-1.725860"><ele>521</ele><time>2022-04-08T11:53:27Z</time><name>PT3663</name></trkpt>
<trkpt lat="53.465731" lon="-1.725871"><ele>521</ele><time>2022-04-08T11:53:28Z</time><name>PT3664</name></trkpt>
<trkpt lat="53.465736" lon="-1.725881"><ele>520</ele><time>2022-04-08T11:53:29Z</time><name>PT3665</name></trkpt>
<trkpt lat="53.465744" lon="-1.725893"><ele>520</ele><time>2022-04-08T11:53:30Z</time><name>PT3666</name></trkpt>
<trkpt lat="53.465752" lon="-1.725906"><ele>520</ele><time>2022-04-08T11:53:31Z</time><name>PT3667</name></trkpt>
<trkpt lat="53.465759" lon="-1.725915"><ele>520</ele><time>2022-04-08T11:53:32Z</time><name>PT3668</name></trkpt>
<trkpt lat="53.465765" lon="-1.725921"><ele>520</ele><time>2022-04-08T11:53:33Z</time><name>PT3669</name></trkpt>
<trkpt lat="53.465768" lon="-1.725926"><ele>520</ele><time>2022-04-08T11:53:34Z</time><name>PT3670</name></trkpt>
<trkpt lat="53.465773" lon="-1.725932"><ele>520</ele><time>2022-04-08T11:53:35Z</time><name>PT3671</name></trkpt>
<trkpt lat="53.465783" lon="-1.725937"><ele>520</ele><time>2022-04-08T11:53:36Z</time><name>PT3672</name></trkpt>
<trkpt lat="53.465793" lon="-1.725937"><ele>520</ele><time>2022-04-08T11:53:37Z</time><name>PT3673</name></trkpt>
<trkpt lat="53.465805" lon="-1.725939"><ele>520</ele><time>2022-04-08T11:53:38Z</time><name>PT3674</name></trkpt>
<trkpt lat="53.465817" lon="-1.725944"><ele>520</ele><time>2022-04-08T11:53:39Z</time><name>PT3675</name></trkpt>
<trkpt lat="53.465826" lon="-1.725946"><ele>520</ele><time>2022-04-08T11:53:40Z</time><name>PT3676</name></trkpt>
<trkpt lat="53.465837" lon="-1.725939"><ele>520</ele><time>2022-04-08T11:53:41Z</time><name>PT3677</name></trkpt>
<trkpt lat="53.465846" lon="-1.725928"><ele>520</ele><time>2022-04-08T11:53:42Z</time><name>PT3678</name></trkpt>
<trkpt lat="53.465857" lon="-1.725918"><ele>521</ele><time>2022-04-08T11:53:43Z</time><name>PT3679</name></trkpt>
<trkpt lat="53.465866" lon="-1.725910"><ele>521</ele><time>2022-04-08T11:53:44Z</time><name>PT3680</name></trkpt>
<trkpt lat="53.465875" lon="-1.725902"><ele>521</ele><time>2022-04-08T11:53:45Z</time><name>PT3681</name></trkpt>
<trkpt lat="53.465888" lon="-1.725896"><ele>520</ele><time>2022-04-08T11:53:46Z</time><name>PT3682</name></trkpt>
<trkpt lat="53.465896" lon="-1.725904"><ele>520</ele><time>2022-04-08T11:53:47Z</time><name>PT3683</name></trkpt>
<trkpt lat="53.465904" lon="-1.725916"><ele>520</ele><time>2022-04-08T11:53:48Z</time><name>PT3684</name></trkpt>
<trkpt lat="53.465912" lon="-1.725926"><ele>520</ele><time>2022-04-08T11:53:49Z</time><name>PT3685</name></trkpt>
<trkpt lat="53.465919" lon="-1.725938"><ele>520</ele><time>2022-04-08T11:53:50Z</time><name>PT3686</name></trkpt>
<trkpt lat="53.465926" lon="-1.725949"><ele>520</ele><time>2022-04-08T11:53:51Z</time><name>PT3687</name></trkpt>
<trkpt lat="53.465928" lon="-1.725956"><ele>520</ele><time>2022-04-08T11:53:52Z</time><name>PT3688</name></trkpt>
<trkpt lat="53.465925" lon="-1.725964"><ele>520</ele><time>2022-04-08T11:53:53Z</time><name>PT3689</name></trkpt>
<trkpt lat="53.465924" lon="-1.725981"><ele>519</ele><time>2022-04-08T11:53:54Z</time><name>PT3690</name></trkpt>
<trkpt lat="53.465929" lon="-1.726000"><ele>519</ele><time>2022-04-08T11:53:55Z</time><name>PT3691</name></trkpt>
<trkpt lat="53.465932" lon="-1.726013"><ele>519</ele><time>2022-04-08T11:53:56Z</time><name>PT3692</name></trkpt>
<trkpt lat="53.465933" lon="-1.726024"><ele>519</ele><time>2022-04-08T11:53:57Z</time><name>PT3693</name></trkpt>
<trkpt lat="53.465936" lon="-1.726036"><ele>519</ele><time>2022-04-08T11:53:58Z</time><name>PT3694</name></trkpt>
<trkpt lat="53.465938" lon="-1.726050"><ele>519</ele><time>2022-04-08T11:53:59Z</time><name>PT3695</name></trkpt>
<trkpt lat="53.465940" lon="-1.726061"><ele>519</ele><time>2022-04-08T11:54:00Z</time><name>PT3696</name></trkpt>
<trkpt lat="53.465940" lon="-1.726077"><ele>519</ele><time>2022-04-08T11:54:01Z</time><name>PT3697</name></trkpt>
<trkpt lat="53.465938" lon="-1.726093"><ele>519</ele><time>2022-04-08T11:54:02Z</time><name>PT3698</name></trkpt>
<trkpt lat="53.465932" lon="-1.726106"><ele>519</ele><time>2022-04-08T11:54:03Z</time><name>PT3699</name></trkpt>
<trkpt lat="53.465927" lon="-1.726120"><ele>519</ele><time>2022-04-08T11:54:04Z</time><name>PT3700</name></trkpt>
<trkpt lat="53.465924" lon="-1.726135"><ele>519</ele><time>2022-04-08T11:54:05Z</time><name>PT3701</name></trkpt>
<trkpt lat="53.465922" lon="-1.726150"><ele>519</ele><time>2022-04-08T11:54:06Z</time><name>PT3702</name></trkpt>
<trkpt lat="53.465924" lon="-1.726166"><ele>519</ele><time>2022-04-08T11:54:07Z</time><name>PT3703</name></trkpt>
<trkpt lat="53.465922" lon="-1.726184"><ele>519</ele><time>2022-04-08T11:54:08Z</time><name>PT3704</name></trkpt>
<trkpt lat="53.465922" lon="-1.726198"><ele>519</ele><time>2022-04-08T11:54:09Z</time><name>PT3705</name></trkpt>
<trkpt lat="53.465922" lon="-1.726216"><ele>519</ele><time>2022-04-08T11:54:10Z</time><name>PT3706</name></trkpt>
<trkpt lat="53.465923" lon="-1.726234"><ele>519</ele><time>2022-04-08T11:54:11Z</time><name>PT3707</name></trkpt>
<trkpt lat="53.465925" lon="-1.726255"><ele>519</ele><time>2022-04-08T11:54:12Z</time><name>PT3708</name></trkpt>
<trkpt lat="53.465928" lon="-1.726273"><ele>519</ele><time>2022-04-08T11:54:13Z</time><name>PT3709</name></trkpt>
<trkpt lat="53.465929" lon="-1.726292"><ele>519</ele><time>2022-04-08T11:54:14Z</time><name>PT3710</name></trkpt>
<trkpt lat="53.465931" lon="-1.726311"><ele>519</ele><time>2022-04-08T11:54:15Z</time><name>PT3711</name></trkpt>
<trkpt lat="53.465935" lon="-1.726330"><ele>520</ele><time>2022-04-08T11:54:16Z</time><name>PT3712</name></trkpt>
<trkpt lat="53.465938" lon="-1.726348"><ele>520</ele><time>2022-04-08T11:54:17Z</time><name>PT3713</name></trkpt>
<trkpt lat="53.465942" lon="-1.726365"><ele>520</ele><time>2022-04-08T11:54:18Z</time><name>PT3714</name></trkpt>
<trkpt lat="53.465944" lon="-1.726384"><ele>520</ele><time>2022-04-08T11:54:19Z</time><name>PT3715</name></trkpt>
<trkpt lat="53.465943" lon="-1.726400"><ele>520</ele><time>2022-04-08T11:54:20Z</time><name>PT3716</name></trkpt>
<trkpt lat="53.465944" lon="-1.726419"><ele>520</ele><time>2022-04-08T11:54:21Z</time><name>PT3717</name></trkpt>
<trkpt lat="53.465948" lon="-1.726438"><ele>520</ele><time>2022-04-08T11:54:22Z</time><name>PT3718</name></trkpt>
<trkpt lat="53.465951" lon="-1.726456"><ele>520</ele><time>2022-04-08T11:54:23Z</time><name>PT3719</name></trkpt>
<trkpt lat="53.465954" lon="-1.726472"><ele>520</ele><time>2022-04-08T11:54:24Z</time><name>PT3720</name></trkpt>
<trkpt lat="53.465959" lon="-1.726489"><ele>520</ele><time>2022-04-08T11:54:25Z</time><name>PT3721</name></trkpt>
<trkpt lat="53.465965" lon="-1.726505"><ele>520</ele><time>2022-04-08T11:54:26Z</time><name>PT3722</name></trkpt>
<trkpt lat="53.465969" lon="-1.726525"><ele>520</ele><time>2022-04-08T11:54:27Z</time><name>PT3723</name></trkpt>
<trkpt lat="53.465973" lon="-1.726546"><ele>520</ele><time>2022-04-08T11:54:28Z</time><name>PT3724</name></trkpt>
<trkpt lat="53.465977" lon="-1.726565"><ele>521</ele><time>2022-04-08T11:54:29Z</time><name>PT3725</name></trkpt>
<trkpt lat="53.465981" lon="-1.726582"><ele>521</ele><time>2022-04-08T11:54:30Z</time><name>PT3726</name></trkpt>
<trkpt lat="53.465985" lon="-1.726599"><ele>521</ele><time>2022-04-08T11:54:31Z</time><name>PT3727</name></trkpt>
<trkpt lat="53.465989" lon="-1.726618"><ele>521</ele><time>2022-04-08T11:54:32Z</time><name>PT3728</name></trkpt>
<trkpt lat="53.465992" lon="-1.726635"><ele>521</ele><time>2022-04-08T11:54:33Z</time><name>PT3729</name></trkpt>
<trkpt lat="53.465995" lon="-1.726653"><ele>521</ele><time>2022-04-08T11:54:34Z</time><name>PT3730</name></trkpt>
<trkpt lat="53.465998" lon="-1.726671"><ele>521</ele><time>2022-04-08T11:54:35Z</time><name>PT3731</name></trkpt>
<trkpt lat="53.466002" lon="-1.726690"><ele>521</ele><time>2022-04-08T11:54:36Z</time><name>PT3732</name></trkpt>
<trkpt lat="53.466004" lon="-1.726710"><ele>521</ele><time>2022-04-08T11:54:37Z</time><name>PT3733</name></trkpt>
<trkpt lat="53.466006" lon="-1.726727"><ele>521</ele><time>2022-04-08T11:54:38Z</time><name>PT3734</name></trkpt>
<trkpt lat="53.466009" lon="-1.726744"><ele>521</ele><time>2022-04-08T11:54:39Z</time><name>PT3735</name></trkpt>
<trkpt lat="53.466013" lon="-1.726761"><ele>521</ele><time>2022-04-08T11:54:40Z</time><name>PT3736</name></trkpt>
<trkpt lat="53.466018" lon="-1.726779"><ele>521</ele><time>2022-04-08T11:54:41Z</time><name>PT3737</name></trkpt>
<trkpt lat="53.466023" lon="-1.726796"><ele>521</ele><time>2022-04-08T11:54:42Z</time><name>PT3738</name></trkpt>
<trkpt lat="53.466021" lon="-1.726800"><ele>521</ele><time>2022-04-08T11:54:43Z</time><name>PT3739</name></trkpt>
<trkpt lat="53.466021" lon="-1.726805"><ele>521</ele><time>2022-04-08T11:54:44Z</time><name>PT3740</name></trkpt>
<trkpt lat="53.466020" lon="-1.726809"><ele>521</ele><time>2022-04-08T11:54:45Z</time><name>PT3741</name></trkpt>
<trkpt lat="53.466021" lon="-1.726808"><ele>521</ele><time>2022-04-08T11:54:46Z</time><name>PT3742</name></trkpt>
<trkpt lat="53.466022" lon="-1.726807"><ele>521</ele><time>2022-04-08T11:54:47Z</time><name>PT3743</name></trkpt>
<trkpt lat="53.466025" lon="-1.726816"><ele>523</ele><time>2022-04-08T11:54:48Z</time><name>PT3744</name></trkpt>
<trkpt lat="53.466029" lon="-1.726827"><ele>523</ele><time>2022-04-08T11:54:49Z</time><name>PT3745</name></trkpt>
<trkpt lat="53.466031" lon="-1.726844"><ele>523</ele><time>2022-04-08T11:54:50Z</time><name>PT3746</name></trkpt>
<trkpt lat="53.466033" lon="-1.726863"><ele>523</ele><time>2022-04-08T11:54:51Z</time><name>PT3747</name></trkpt>
<trkpt lat="53.466035" lon="-1.726883"><ele>523</ele><time>2022-04-08T11:54:52Z</time><name>PT3748</name></trkpt>
<trkpt lat="53.466039" lon="-1.726898"><ele>523</ele><time>2022-04-08T11:54:53Z</time><name>PT3749</name></trkpt>
<trkpt lat="53.466043" lon="-1.726915"><ele>523</ele><time>2022-04-08T11:54:54Z</time><name>PT3750</name></trkpt>
<trkpt lat="53.466046" lon="-1.726930"><ele>523</ele><time>2022-04-08T11:54:55Z</time><name>PT3751</name></trkpt>
<trkpt lat="53.466048" lon="-1.726949"><ele>523</ele><time>2022-04-08T11:54:56Z</time><name>PT3752</name></trkpt>
<trkpt lat="53.466052" lon="-1.726964"><ele>523</ele><time>2022-04-08T11:54:57Z</time><name>PT3753</name></trkpt>
<trkpt lat="53.466059" lon="-1.726980"><ele>523</ele><time>2022-04-08T11:54:58Z</time><name>PT3754</name></trkpt>
<trkpt lat="53.466064" lon="-1.726999"><ele>523</ele><time>2022-04-08T11:54:59Z</time><name>PT3755</name></trkpt>
<trkpt lat="53.466067" lon="-1.727019"><ele>523</ele><time>2022-04-08T11:55:00Z</time><name>PT3756</name></trkpt>
<trkpt lat="53.466071" lon="-1.727040"><ele>523</ele><time>2022-04-08T11:55:01Z</time><name>PT3757</name></trkpt>
<trkpt lat="53.466076" lon="-1.727055"><ele>523</ele><time>2022-04-08T11:55:02Z</time><name>PT3758</name></trkpt>
<trkpt lat="53.466082" lon="-1.727074"><ele>523</ele><time>2022-04-08T11:55:03Z</time><name>PT3759</name></trkpt>
<trkpt lat="53.466084" lon="-1.727092"><ele>523</ele><time>2022-04-08T11:55:04Z</time><name>PT3760</name></trkpt>
<trkpt lat="53.466088" lon="-1.727111"><ele>523</ele><time>2022-04-08T11:55:05Z</time><name>PT3761</name></trkpt>
<trkpt lat="53.466090" lon="-1.727127"><ele>522</ele><time>2022-04-08T11:55:06Z</time><name>PT3762</name></trkpt>
<trkpt lat="53.466095" lon="-1.727144"><ele>522</ele><time>2022-04-08T11:55:07Z</time><name>PT3763</name></trkpt>
<trkpt lat="53.466099" lon="-1.727161"><ele>522</ele><time>2022-04-08T11:55:08Z</time><name>PT3764</name></trkpt>
<trkpt lat="53.466102" lon="-1.727171"><ele>522</ele><time>2022-04-08T11:55:09Z</time><name>PT3765</name></trkpt>
<trkpt lat="53.466109" lon="-1.727176"><ele>522</ele><time>2022-04-08T11:55:10Z</time><name>PT3766</name></trkpt>
<trkpt lat="53.466115" lon="-1.727182"><ele>522</ele><time>2022-04-08T11:55:11Z</time><name>PT3767</name></trkpt>
<trkpt lat="53.466119" lon="-1.727193"><ele>522</ele><time>2022-04-08T11:55:12Z</time><name>PT3768</name></trkpt>
<trkpt lat="53.466117" lon="-1.727207"><ele>522</ele><time>2022-04-08T11:55:13Z</time><name>PT3769</name></trkpt>
<trkpt lat="53.466116" lon="-1.727219"><ele>522</ele><time>2022-04-08T11:55:14Z</time><name>PT3770</name></trkpt>
<trkpt lat="53.466121" lon="-1.727238"><ele>522</ele><time>2022-04-08T11:55:15Z</time><name>PT3771</name></trkpt>
<trkpt lat="53.466125" lon="-1.727254"><ele>522</ele><time>2022-04-08T11:55:16Z</time><name>PT3772</name></trkpt>
<trkpt lat="53.466130" lon="-1.727270"><ele>522</ele><time>2022-04-08T11:55:17Z</time><name>PT3773</name></trkpt>
<trkpt lat="53.466132" lon="-1.727286"><ele>521</ele><time>2022-04-08T11:55:18Z</time><name>PT3774</name></trkpt>
<trkpt lat="53.466135" lon="-1.727304"><ele>522</ele><time>2022-04-08T11:55:19Z</time><name>PT3775</name></trkpt>
<trkpt lat="53.466139" lon="-1.727327"><ele>522</ele><time>2022-04-08T11:55:20Z</time><name>PT3776</name></trkpt>
<trkpt lat="53.466144" lon="-1.727347"><ele>522</ele><time>2022-04-08T11:55:21Z</time><name>PT3777</name></trkpt>
<trkpt lat="53.466147" lon="-1.727365"><ele>522</ele><time>2022-04-08T11:55:22Z</time><name>PT3778</name></trkpt>
<trkpt lat="53.466149" lon="-1.727385"><ele>522</ele><time>2022-04-08T11:55:23Z</time><name>PT3779</name></trkpt>
<trkpt lat="53.466152" lon="-1.727404"><ele>522</ele><time>2022-04-08T11:55:24Z</time><name>PT3780</name></trkpt>
<trkpt lat="53.466155" lon="-1.727417"><ele>522</ele><time>2022-04-08T11:55:25Z</time><name>PT3781</name></trkpt>
<trkpt lat="53.466158" lon="-1.727429"><ele>522</ele><time>2022-04-08T11:55:26Z</time><name>PT3782</name></trkpt>
<trkpt lat="53.466158" lon="-1.727436"><ele>522</ele><time>2022-04-08T11:55:27Z</time><name>PT3783</name></trkpt>
<trkpt lat="53.466162" lon="-1.727445"><ele>521</ele><time>2022-04-08T11:55:28Z</time><name>PT3784</name></trkpt>
<trkpt lat="53.466169" lon="-1.727459"><ele>521</ele><time>2022-04-08T11:55:29Z</time><name>PT3785</name></trkpt>
<trkpt lat="53.466175" lon="-1.727473"><ele>522</ele><time>2022-04-08T11:55:30Z</time><name>PT3786</name></trkpt>
<trkpt lat="53.466177" lon="-1.727495"><ele>522</ele><time>2022-04-08T11:55:31Z</time><name>PT3787</name></trkpt>
<trkpt lat="53.466179" lon="-1.727515"><ele>522</ele><time>2022-04-08T11:55:32Z</time><name>PT3788</name></trkpt>
<trkpt lat="53.466182" lon="-1.727532"><ele>522</ele><time>2022-04-08T11:55:33Z</time><name>PT3789</name></trkpt>
<trkpt lat="53.466186" lon="-1.727553"><ele>522</ele><time>2022-04-08T11:55:34Z</time><name>PT3790</name></trkpt>
<trkpt lat="53.466187" lon="-1.727566"><ele>522</ele><time>2022-04-08T11:55:35Z</time><name>PT3791</name></trkpt>
<trkpt lat="53.466191" lon="-1.727585"><ele>522</ele><time>2022-04-08T11:55:36Z</time><name>PT3792</name></trkpt>
<trkpt lat="53.466196" lon="-1.727600"><ele>522</ele><time>2022-04-08T11:55:37Z</time><name>PT3793</name></trkpt>
<trkpt lat="53.466202" lon="-1.727616"><ele>522</ele><time>2022-04-08T11:55:38Z</time><name>PT3794</name></trkpt>
<trkpt lat="53.466206" lon="-1.727635"><ele>522</ele><time>2022-04-08T11:55:39Z</time><name>PT3795</name></trkpt>
<trkpt lat="53.466209" lon="-1.727654"><ele>522</ele><time>2022-04-08T11:55:40Z</time><name>PT3796</name></trkpt>
<trkpt lat="53.466213" lon="-1.727677"><ele>522</ele><time>2022-04-08T11:55:41Z</time><name>PT3797</name></trkpt>
<trkpt lat="53.466218" lon="-1.727693"><ele>523</ele><time>2022-04-08T11:55:42Z</time><name>PT3798</name></trkpt>
<trkpt lat="53.466223" lon="-1.727708"><ele>523</ele><time>2022-04-08T11:55:43Z</time><name>PT3799</name></trkpt>
<trkpt lat="53.466227" lon="-1.727723"><ele>523</ele><time>2022-04-08T11:55:44Z</time><name>PT3800</name></trkpt>
<trkpt lat="53.466232" lon="-1.727743"><ele>523</ele><time>2022-04-08T11:55:45Z</time><name>PT3801</name></trkpt>
<trkpt lat="53.466234" lon="-1.727760"><ele>523</ele><time>2022-04-08T11:55:46Z</time><name>PT3802</name></trkpt>
<trkpt lat="53.466234" lon="-1.727777"><ele>523</ele><time>2022-04-08T11:55:47Z</time><name>PT3803</name></trkpt>
<trkpt lat="53.466235" lon="-1.727798"><ele>523</ele><time>2022-04-08T11:55:48Z</time><name>PT3804</name></trkpt>
<trkpt lat="53.466237" lon="-1.727816"><ele>523</ele><time>2022-04-08T11:55:49Z</time><name>PT3805</name></trkpt>
<trkpt lat="53.466239" lon="-1.727822"><ele>523</ele><time>2022-04-08T11:55:50Z</time><name>PT3806</name></trkpt>
<trkpt lat="53.466245" lon="-1.727831"><ele>523</ele><time>2022-04-08T11:55:51Z</time><name>PT3807</name></trkpt>
<trkpt lat="53.466253" lon="-1.727840"><ele>523</ele><time>2022-04-08T11:55:52Z</time><name>PT3808</name></trkpt>
<trkpt lat="53.466255" lon="-1.727848"><ele>524</ele><time>2022-04-08T11:55:53Z</time><name>PT3809</name></trkpt>
<trkpt lat="53.466258" lon="-1.727862"><ele>524</ele><time>2022-04-08T11:55:54Z</time><name>PT3810</name></trkpt>
<trkpt lat="53.466258" lon="-1.727878"><ele>524</ele><time>2022-04-08T11:55:55Z</time><name>PT3811</name></trkpt>
<trkpt lat="53.466258" lon="-1.727894"><ele>524</ele><time>2022-04-08T11:55:56Z</time><name>PT3812</name></trkpt>
<trkpt lat="53.466259" lon="-1.727908"><ele>524</ele><time>2022-04-08T11:55:57Z</time><name>PT3813</name></trkpt>
<trkpt lat="53.466261" lon="-1.727923"><ele>524</ele><time>2022-04-08T11:55:58Z</time><name>PT3814</name></trkpt>
<trkpt lat="53.466263" lon="-1.727935"><ele>523</ele><time>2022-04-08T11:55:59Z</time><name>PT3815</name></trkpt>
<trkpt lat="53.466267" lon="-1.727950"><ele>524</ele><time>2022-04-08T11:56:00Z</time><name>PT3816</name></trkpt>
<trkpt lat="53.466268" lon="-1.727960"><ele>524</ele><time>2022-04-08T11:56:01Z</time><name>PT3817</name></trkpt>
<trkpt lat="53.466269" lon="-1.727967"><ele>524</ele><time>2022-04-08T11:56:02Z</time><name>PT3818</name></trkpt>
<trkpt lat="53.466271" lon="-1.727982"><ele>523</ele><time>2022-04-08T11:56:03Z</time><name>PT3819</name></trkpt>
<trkpt lat="53.466275" lon="-1.727996"><ele>524</ele><time>2022-04-08T11:56:04Z</time><name>PT3820</name></trkpt>
<trkpt lat="53.466279" lon="-1.728014"><ele>523</ele><time>2022-04-08T11:56:05Z</time><name>PT3821</name></trkpt>
<trkpt lat="53.466282" lon="-1.728031"><ele>524</ele><time>2022-04-08T11:56:06Z</time><name>PT3822</name></trkpt>
<trkpt lat="53.466285" lon="-1.728045"><ele>524</ele><time>2022-04-08T11:56:07Z</time><name>PT3823</name></trkpt>
<trkpt lat="53.466289" lon="-1.728061"><ele>524</ele><time>2022-04-08T11:56:08Z</time><name>PT3824</name></trkpt>
<trkpt lat="53.466292" lon="-1.728076"><ele>524</ele><time>2022-04-08T11:56:09Z</time><name>PT3825</name></trkpt>
<trkpt lat="53.466296" lon="-1.728091"><ele>524</ele><time>2022-04-08T11:56:10Z</time><name>PT3826</name></trkpt>
<trkpt lat="53.466303" lon="-1.728104"><ele>524</ele><time>2022-04-08T11:56:11Z</time><name>PT3827</name></trkpt>
<trkpt lat="53.466311" lon="-1.728115"><ele>524</ele><time>2022-04-08T11:56:12Z</time><name>PT3828</name></trkpt>
<trkpt lat="53.466317" lon="-1.728127"><ele>524</ele><time>2022-04-08T11:56:13Z</time><name>PT3829</name></trkpt>
<trkpt lat="53.466322" lon="-1.728144"><ele>524</ele><time>2022-04-08T11:56:14Z</time><name>PT3830</name></trkpt>
<trkpt lat="53.466325" lon="-1.728163"><ele>524</ele><time>2022-04-08T11:56:15Z</time><name>PT3831</name></trkpt>
<trkpt lat="53.466327" lon="-1.728178"><ele>524</ele><time>2022-04-08T11:56:16Z</time><name>PT3832</name></trkpt>
<trkpt lat="53.466327" lon="-1.728180"><ele>524</ele><time>2022-04-08T11:56:17Z</time><name>PT3833</name></trkpt>
<trkpt lat="53.466327" lon="-1.728189"><ele>524</ele><time>2022-04-08T11:56:18Z</time><name>PT3834</name></trkpt>
<trkpt lat="53.466329" lon="-1.728204"><ele>524</ele><time>2022-04-08T11:56:19Z</time><name>PT3835</name></trkpt>
<trkpt lat="53.466331" lon="-1.728219"><ele>524</ele><time>2022-04-08T11:56:20Z</time><name>PT3836</name></trkpt>
<trkpt lat="53.466331" lon="-1.728236"><ele>524</ele><time>2022-04-08T11:56:21Z</time><name>PT3837</name></trkpt>
<trkpt lat="53.466334" lon="-1.728250"><ele>524</ele><time>2022-04-08T11:56:22Z</time><name>PT3838</name></trkpt>
<trkpt lat="53.466336" lon="-1.728266"><ele>524</ele><time>2022-04-08T11:56:23Z</time><name>PT3839</name></trkpt>
<trkpt lat="53.466339" lon="-1.728277"><ele>524</ele><time>2022-04-08T11:56:24Z</time><name>PT3840</name></trkpt>
<trkpt lat="53.466344" lon="-1.728285"><ele>524</ele><time>2022-04-08T11:56:25Z</time><name>PT3841</name></trkpt>
<trkpt lat="53.466353" lon="-1.728294"><ele>524</ele><time>2022-04-08T11:56:26Z</time><name>PT3842</name></trkpt>
<trkpt lat="53.466359" lon="-1.728301"><ele>524</ele><time>2022-04-08T11:56:27Z</time><name>PT3843</name></trkpt>
<trkpt lat="53.466364" lon="-1.728316"><ele>525</ele><time>2022-04-08T11:56:28Z</time><name>PT3844</name></trkpt>
<trkpt lat="53.466368" lon="-1.728329"><ele>525</ele><time>2022-04-08T11:56:29Z</time><name>PT3845</name></trkpt>
<trkpt lat="53.466372" lon="-1.728344"><ele>525</ele><time>2022-04-08T11:56:30Z</time><name>PT3846</name></trkpt>
<trkpt lat="53.466375" lon="-1.728360"><ele>525</ele><time>2022-04-08T11:56:31Z</time><name>PT3847</name></trkpt>
<trkpt lat="53.466377" lon="-1.728381"><ele>525</ele><time>2022-04-08T11:56:32Z</time><name>PT3848</name></trkpt>
<trkpt lat="53.466381" lon="-1.728399"><ele>525</ele><time>2022-04-08T11:56:33Z</time><name>PT3849</name></trkpt>
<trkpt lat="53.466383" lon="-1.728415"><ele>525</ele><time>2022-04-08T11:56:34Z</time><name>PT3850</name></trkpt>
<trkpt lat="53.466384" lon="-1.728436"><ele>525</ele><time>2022-04-08T11:56:35Z</time><name>PT3851</name></trkpt>
<trkpt lat="53.466386" lon="-1.728454"><ele>525</ele><time>2022-04-08T11:56:36Z</time><name>PT3852</name></trkpt>
<trkpt lat="53.466390" lon="-1.728472"><ele>525</ele><time>2022-04-08T11:56:37Z</time><name>PT3853</name></trkpt>
<trkpt lat="53.466391" lon="-1.728485"><ele>525</ele><time>2022-04-08T11:56:38Z</time><name>PT3854</name></trkpt>
<trkpt lat="53.466389" lon="-1.728492"><ele>525</ele><time>2022-04-08T11:56:39Z</time><name>PT3855</name></trkpt>
<trkpt lat="53.466384" lon="-1.728502"><ele>525</ele><time>2022-04-08T11:56:42Z</time><name>PT3856</name></trkpt>
<trkpt lat="53.466387" lon="-1.728520"><ele>525</ele><time>2022-04-08T11:56:46Z</time><name>PT3857</name></trkpt>
<trkpt lat="53.466408" lon="-1.728587"><ele>526</ele><time>2022-04-08T11:56:50Z</time><name>PT3858</name></trkpt>
<trkpt lat="53.466421" lon="-1.728655"><ele>527</ele><time>2022-04-08T11:56:54Z</time><name>PT3859</name></trkpt>
<trkpt lat="53.466434" lon="-1.728708"><ele>527</ele><time>2022-04-08T11:56:58Z</time><name>PT3860</name></trkpt>
<trkpt lat="53.466441" lon="-1.728762"><ele>528</ele><time>2022-04-08T11:57:02Z</time><name>PT3861</name></trkpt>
<trkpt lat="53.466447" lon="-1.728829"><ele>528</ele><time>2022-04-08T11:57:06Z</time><name>PT3862</name></trkpt>
<trkpt lat="53.466460" lon="-1.728900"><ele>529</ele><time>2022-04-08T11:57:10Z</time><name>PT3863</name></trkpt>
<trkpt lat="53.466469" lon="-1.728977"><ele>530</ele><time>2022-04-08T11:57:14Z</time><name>PT3864</name></trkpt>
<trkpt lat="53.466485" lon="-1.729046"><ele>530</ele><time>2022-04-08T11:57:18Z</time><name>PT3865</name></trkpt>
<trkpt lat="53.466506" lon="-1.729102"><ele>530</ele><time>2022-04-08T11:57:22Z</time><name>PT3866</name></trkpt>
<trkpt lat="53.466518" lon="-1.729174"><ele>530</ele><time>2022-04-08T11:57:26Z</time><name>PT3867</name></trkpt>
<trkpt lat="53.466532" lon="-1.729241"><ele>530</ele><time>2022-04-08T11:57:30Z</time><name>PT3868</name></trkpt>
<trkpt lat="53.466564" lon="-1.729287"><ele>530</ele><time>2022-04-08T11:57:34Z</time><name>PT3869</name></trkpt>
<trkpt lat="53.466587" lon="-1.729346"><ele>530</ele><time>2022-04-08T11:57:38Z</time><name>PT3870</name></trkpt>
<trkpt lat="53.466594" lon="-1.729413"><ele>530</ele><time>2022-04-08T11:57:42Z</time><name>PT3871</name></trkpt>
<trkpt lat="53.466597" lon="-1.729489"><ele>530</ele><time>2022-04-08T11:57:46Z</time><name>PT3872</name></trkpt>
<trkpt lat="53.466600" lon="-1.729556"><ele>530</ele><time>2022-04-08T11:57:50Z</time><name>PT3873</name></trkpt>
<trkpt lat="53.466606" lon="-1.729620"><ele>531</ele><time>2022-04-08T11:57:54Z</time><name>PT3874</name></trkpt>
<trkpt lat="53.466628" lon="-1.729672"><ele>531</ele><time>2022-04-08T11:57:58Z</time><name>PT3875</name></trkpt>
<trkpt lat="53.466658" lon="-1.729728"><ele>532</ele><time>2022-04-08T11:58:02Z</time><name>PT3876</name></trkpt>
<trkpt lat="53.466684" lon="-1.729781"><ele>532</ele><time>2022-04-08T11:58:06Z</time><name>PT3877</name></trkpt>
<trkpt lat="53.466702" lon="-1.729833"><ele>532</ele><time>2022-04-08T11:58:09Z</time><name>PT3878</name></trkpt>
<trkpt lat="53.466706" lon="-1.729851"><ele>532</ele><time>2022-04-08T11:58:10Z</time><name>PT3879</name></trkpt>
<trkpt lat="53.466710" lon="-1.729860"><ele>532</ele><time>2022-04-08T11:58:11Z</time><name>PT3880</name></trkpt>
<trkpt lat="53.466717" lon="-1.729875"><ele>532</ele><time>2022-04-08T11:58:12Z</time><name>PT3881</name></trkpt>
<trkpt lat="53.466724" lon="-1.729884"><ele>532</ele><time>2022-04-08T11:58:13Z</time><name>PT3882</name></trkpt>
<trkpt lat="53.466730" lon="-1.729894"><ele>532</ele><time>2022-04-08T11:58:14Z</time><name>PT3883</name></trkpt>
<trkpt lat="53.466735" lon="-1.729906"><ele>531</ele><time>2022-04-08T11:58:15Z</time><name>PT3884</name></trkpt>
<trkpt lat="53.466742" lon="-1.729919"><ele>531</ele><time>2022-04-08T11:58:16Z</time><name>PT3885</name></trkpt>
<trkpt lat="53.466749" lon="-1.729929"><ele>531</ele><time>2022-04-08T11:58:17Z</time><name>PT3886</name></trkpt>
<trkpt lat="53.466755" lon="-1.729940"><ele>531</ele><time>2022-04-08T11:58:18Z</time><name>PT3887</name></trkpt>
<trkpt lat="53.466762" lon="-1.729946"><ele>531</ele><time>2022-04-08T11:58:19Z</time><name>PT3888</name></trkpt>
<trkpt lat="53.466771" lon="-1.729954"><ele>532</ele><time>2022-04-08T11:58:20Z</time><name>PT3889</name></trkpt>
<trkpt lat="53.466778" lon="-1.729962"><ele>532</ele><time>2022-04-08T11:58:21Z</time><name>PT3890</name></trkpt>
<trkpt lat="53.466785" lon="-1.729973"><ele>532</ele><time>2022-04-08T11:58:22Z</time><name>PT3891</name></trkpt>
<trkpt lat="53.466790" lon="-1.729980"><ele>532</ele><time>2022-04-08T11:58:23Z</time><name>PT3892</name></trkpt>
<trkpt lat="53.466796" lon="-1.729991"><ele>532</ele><time>2022-04-08T11:58:24Z</time><name>PT3893</name></trkpt>
<trkpt lat="53.466802" lon="-1.729999"><ele>532</ele><time>2022-04-08T11:58:25Z</time><name>PT3894</name></trkpt>
<trkpt lat="53.466809" lon="-1.729997"><ele>532</ele><time>2022-04-08T11:58:26Z</time><name>PT3895</name></trkpt>
<trkpt lat="53.466813" lon="-1.729989"><ele>531</ele><time>2022-04-08T11:58:27Z</time><name>PT3896</name></trkpt>
<trkpt lat="53.466813" lon="-1.729984"><ele>531</ele><time>2022-04-08T11:58:28Z</time><name>PT3897</name></trkpt>
<trkpt lat="53.466812" lon="-1.729983"><ele>531</ele><time>2022-04-08T11:58:29Z</time><name>PT3898</name></trkpt>
<trkpt lat="53.466812" lon="-1.729985"><ele>531</ele><time>2022-04-08T11:58:30Z</time><name>PT3899</name></trkpt>
<trkpt lat="53.466808" lon="-1.729972"><ele>532</ele><time>2022-04-08T11:58:42Z</time><name>PT3900</name></trkpt>
<trkpt lat="53.466809" lon="-1.729972"><ele>532</ele><time>2022-04-08T11:58:43Z</time><name>PT3901</name></trkpt>
<trkpt lat="53.466807" lon="-1.729975"><ele>532</ele><time>2022-04-08T11:58:44Z</time><name>PT3902</name></trkpt>
<trkpt lat="53.466802" lon="-1.729973"><ele>532</ele><time>2022-04-08T11:58:45Z</time><name>PT3903</name></trkpt>
<trkpt lat="53.466800" lon="-1.729976"><ele>532</ele><time>2022-04-08T11:58:46Z</time><name>PT3904</name></trkpt>
<trkpt lat="53.466798" lon="-1.729979"><ele>532</ele><time>2022-04-08T11:58:47Z</time><name>PT3905</name></trkpt>
<trkpt lat="53.466791" lon="-1.730000"><ele>533</ele><time>2022-04-08T11:59:00Z</time><name>PT3906</name></trkpt>
<trkpt lat="53.466797" lon="-1.729998"><ele>533</ele><time>2022-04-08T11:59:01Z</time><name>PT3907</name></trkpt>
<trkpt lat="53.466801" lon="-1.730000"><ele>533</ele><time>2022-04-08T11:59:02Z</time><name>PT3908</name></trkpt>
<trkpt lat="53.466801" lon="-1.730011"><ele>533</ele><time>2022-04-08T11:59:03Z</time><name>PT3909</name></trkpt>
<trkpt lat="53.466804" lon="-1.730020"><ele>533</ele><time>2022-04-08T11:59:04Z</time><name>PT3910</name></trkpt>
<trkpt lat="53.466806" lon="-1.730037"><ele>533</ele><time>2022-04-08T11:59:05Z</time><name>PT3911</name></trkpt>
<trkpt lat="53.466808" lon="-1.730052"><ele>533</ele><time>2022-04-08T11:59:06Z</time><name>PT3912</name></trkpt>
<trkpt lat="53.466811" lon="-1.730064"><ele>533</ele><time>2022-04-08T11:59:07Z</time><name>PT3913</name></trkpt>
<trkpt lat="53.466814" lon="-1.730078"><ele>533</ele><time>2022-04-08T11:59:08Z</time><name>PT3914</name></trkpt>
<trkpt lat="53.466820" lon="-1.730090"><ele>533</ele><time>2022-04-08T11:59:09Z</time><name>PT3915</name></trkpt>
<trkpt lat="53.466826" lon="-1.730103"><ele>533</ele><time>2022-04-08T11:59:10Z</time><name>PT3916</name></trkpt>
<trkpt lat="53.466831" lon="-1.730117"><ele>533</ele><time>2022-04-08T11:59:11Z</time><name>PT3917</name></trkpt>
<trkpt lat="53.466840" lon="-1.730128"><ele>533</ele><time>2022-04-08T11:59:12Z</time><name>PT3918</name></trkpt>
<trkpt lat="53.466846" lon="-1.730141"><ele>534</ele><time>2022-04-08T11:59:13Z</time><name>PT3919</name></trkpt>
<trkpt lat="53.466855" lon="-1.730157"><ele>534</ele><time>2022-04-08T11:59:14Z</time><name>PT3920</name></trkpt>
<trkpt lat="53.466862" lon="-1.730170"><ele>534</ele><time>2022-04-08T11:59:15Z</time><name>PT3921</name></trkpt>
<trkpt lat="53.466870" lon="-1.730177"><ele>533</ele><time>2022-04-08T11:59:16Z</time><name>PT3922</name></trkpt>
<trkpt lat="53.466878" lon="-1.730188"><ele>534</ele><time>2022-04-08T11:59:17Z</time><name>PT3923</name></trkpt>
<trkpt lat="53.466884" lon="-1.730204"><ele>534</ele><time>2022-04-08T11:59:18Z</time><name>PT3924</name></trkpt>
<trkpt lat="53.466889" lon="-1.730217"><ele>533</ele><time>2022-04-08T11:59:19Z</time><name>PT3925</name></trkpt>
<trkpt lat="53.466896" lon="-1.730231"><ele>533</ele><time>2022-04-08T11:59:20Z</time><name>PT3926</name></trkpt>
<trkpt lat="53.466901" lon="-1.730246"><ele>533</ele><time>2022-04-08T11:59:21Z</time><name>PT3927</name></trkpt>
<trkpt lat="53.466907" lon="-1.730262"><ele>533</ele><time>2022-04-08T11:59:22Z</time><name>PT3928</name></trkpt>
<trkpt lat="53.466914" lon="-1.730271"><ele>533</ele><time>2022-04-08T11:59:23Z</time><name>PT3929</name></trkpt>
<trkpt lat="53.466922" lon="-1.730284"><ele>533</ele><time>2022-04-08T11:59:24Z</time><name>PT3930</name></trkpt>
<trkpt lat="53.466931" lon="-1.730296"><ele>533</ele><time>2022-04-08T11:59:26Z</time><name>PT3931</name></trkpt>
<trkpt lat="53.466936" lon="-1.730308"><ele>533</ele><time>2022-04-08T11:59:26Z</time><name>PT3932</name></trkpt>
<trkpt lat="53.466941" lon="-1.730326"><ele>533</ele><time>2022-04-08T11:59:27Z</time><name>PT3933</name></trkpt>
<trkpt lat="53.466948" lon="-1.730341"><ele>533</ele><time>2022-04-08T11:59:28Z</time><name>PT3934</name></trkpt>
<trkpt lat="53.466956" lon="-1.730354"><ele>533</ele><time>2022-04-08T11:59:29Z</time><name>PT3935</name></trkpt>
<trkpt lat="53.466964" lon="-1.730367"><ele>533</ele><time>2022-04-08T11:59:30Z</time><name>PT3936</name></trkpt>
<trkpt lat="53.466970" lon="-1.730380"><ele>534</ele><time>2022-04-08T11:59:31Z</time><name>PT3937</name></trkpt>
<trkpt lat="53.466976" lon="-1.730398"><ele>533</ele><time>2022-04-08T11:59:32Z</time><name>PT3938</name></trkpt>
<trkpt lat="53.466981" lon="-1.730412"><ele>533</ele><time>2022-04-08T11:59:33Z</time><name>PT3939</name></trkpt>
<trkpt lat="53.466986" lon="-1.730426"><ele>533</ele><time>2022-04-08T11:59:34Z</time><name>PT3940</name></trkpt>
<trkpt lat="53.466991" lon="-1.730439"><ele>533</ele><time>2022-04-08T11:59:35Z</time><name>PT3941</name></trkpt>
<trkpt lat="53.466995" lon="-1.730447"><ele>534</ele><time>2022-04-08T11:59:36Z</time><name>PT3942</name></trkpt>
<trkpt lat="53.466999" lon="-1.730463"><ele>534</ele><time>2022-04-08T11:59:37Z</time><name>PT3943</name></trkpt>
<trkpt lat="53.467003" lon="-1.730477"><ele>534</ele><time>2022-04-08T11:59:38Z</time><name>PT3944</name></trkpt>
<trkpt lat="53.467010" lon="-1.730493"><ele>533</ele><time>2022-04-08T11:59:39Z</time><name>PT3945</name></trkpt>
<trkpt lat="53.467018" lon="-1.730508"><ele>533</ele><time>2022-04-08T11:59:40Z</time><name>PT3946</name></trkpt>
<trkpt lat="53.467023" lon="-1.730520"><ele>533</ele><time>2022-04-08T11:59:41Z</time><name>PT3947</name></trkpt>
<trkpt lat="53.467028" lon="-1.730532"><ele>533</ele><time>2022-04-08T11:59:42Z</time><name>PT3948</name></trkpt>
<trkpt lat="53.467036" lon="-1.730546"><ele>533</ele><time>2022-04-08T11:59:43Z</time><name>PT3949</name></trkpt>
<trkpt lat="53.467041" lon="-1.730562"><ele>533</ele><time>2022-04-08T11:59:44Z</time><name>PT3950</name></trkpt>
<trkpt lat="53.467045" lon="-1.730578"><ele>533</ele><time>2022-04-08T11:59:45Z</time><name>PT3951</name></trkpt>
<trkpt lat="53.467048" lon="-1.730599"><ele>533</ele><time>2022-04-08T11:59:46Z</time><name>PT3952</name></trkpt>
<trkpt lat="53.467052" lon="-1.730614"><ele>533</ele><time>2022-04-08T11:59:47Z</time><name>PT3953</name></trkpt>
<trkpt lat="53.467060" lon="-1.730626"><ele>534</ele><time>2022-04-08T11:59:48Z</time><name>PT3954</name></trkpt>
<trkpt lat="53.467067" lon="-1.730635"><ele>533</ele><time>2022-04-08T11:59:49Z</time><name>PT3955</name></trkpt>
<trkpt lat="53.467072" lon="-1.730648"><ele>533</ele><time>2022-04-08T11:59:50Z</time><name>PT3956</name></trkpt>
<trkpt lat="53.467078" lon="-1.730665"><ele>534</ele><time>2022-04-08T11:59:51Z</time><name>PT3957</name></trkpt>
<trkpt lat="53.467087" lon="-1.730678"><ele>534</ele><time>2022-04-08T11:59:52Z</time><name>PT3958</name></trkpt>
<trkpt lat="53.467095" lon="-1.730690"><ele>534</ele><time>2022-04-08T11:59:53Z</time><name>PT3959</name></trkpt>
<trkpt lat="53.467105" lon="-1.730705"><ele>534</ele><time>2022-04-08T11:59:54Z</time><name>PT3960</name></trkpt>
<trkpt lat="53.467111" lon="-1.730719"><ele>534</ele><time>2022-04-08T11:59:55Z</time><name>PT3961</name></trkpt>
<trkpt lat="53.467119" lon="-1.730735"><ele>534</ele><time>2022-04-08T11:59:56Z</time><name>PT3962</name></trkpt>
<trkpt lat="53.467128" lon="-1.730751"><ele>534</ele><time>2022-04-08T11:59:57Z</time><name>PT3963</name></trkpt>
<trkpt lat="53.467136" lon="-1.730762"><ele>534</ele><time>2022-04-08T11:59:58Z</time><name>PT3964</name></trkpt>
<trkpt lat="53.467143" lon="-1.730778"><ele>534</ele><time>2022-04-08T11:59:59Z</time><name>PT3965</name></trkpt>
<trkpt lat="53.467151" lon="-1.730793"><ele>534</ele><time>2022-04-08T12:00:00Z</time><name>PT3966</name></trkpt>
<trkpt lat="53.467158" lon="-1.730807"><ele>534</ele><time>2022-04-08T12:00:01Z</time><name>PT3967</name></trkpt>
<trkpt lat="53.467164" lon="-1.730817"><ele>534</ele><time>2022-04-08T12:00:02Z</time><name>PT3968</name></trkpt>
<trkpt lat="53.467174" lon="-1.730826"><ele>534</ele><time>2022-04-08T12:00:03Z</time><name>PT3969</name></trkpt>
<trkpt lat="53.467182" lon="-1.730837"><ele>534</ele><time>2022-04-08T12:00:04Z</time><name>PT3970</name></trkpt>
<trkpt lat="53.467189" lon="-1.730851"><ele>534</ele><time>2022-04-08T12:00:05Z</time><name>PT3971</name></trkpt>
<trkpt lat="53.467194" lon="-1.730863"><ele>534</ele><time>2022-04-08T12:00:06Z</time><name>PT3972</name></trkpt>
<trkpt lat="53.467199" lon="-1.730861"><ele>534</ele><time>2022-04-08T12:00:07Z</time><name>PT3973</name></trkpt>
<trkpt lat="53.467204" lon="-1.730859"><ele>534</ele><time>2022-04-08T12:00:08Z</time><name>PT3974</name></trkpt>
<trkpt lat="53.467212" lon="-1.730868"><ele>534</ele><time>2022-04-08T12:00:09Z</time><name>PT3975</name></trkpt>
<trkpt lat="53.467216" lon="-1.730884"><ele>534</ele><time>2022-04-08T12:00:10Z</time><name>PT3976</name></trkpt>
<trkpt lat="53.467218" lon="-1.730901"><ele>534</ele><time>2022-04-08T12:00:11Z</time><name>PT3977</name></trkpt>
<trkpt lat="53.467221" lon="-1.730917"><ele>534</ele><time>2022-04-08T12:00:12Z</time><name>PT3978</name></trkpt>
<trkpt lat="53.467226" lon="-1.730932"><ele>534</ele><time>2022-04-08T12:00:13Z</time><name>PT3979</name></trkpt>
<trkpt lat="53.467228" lon="-1.730946"><ele>534</ele><time>2022-04-08T12:00:14Z</time><name>PT3980</name></trkpt>
<trkpt lat="53.467231" lon="-1.730966"><ele>534</ele><time>2022-04-08T12:00:15Z</time><name>PT3981</name></trkpt>
<trkpt lat="53.467233" lon="-1.730982"><ele>534</ele><time>2022-04-08T12:00:16Z</time><name>PT3982</name></trkpt>
<trkpt lat="53.467235" lon="-1.731000"><ele>534</ele><time>2022-04-08T12:00:17Z</time><name>PT3983</name></trkpt>
<trkpt lat="53.467237" lon="-1.731016"><ele>534</ele><time>2022-04-08T12:00:18Z</time><name>PT3984</name></trkpt>
<trkpt lat="53.467240" lon="-1.731032"><ele>534</ele><time>2022-04-08T12:00:19Z</time><name>PT3985</name></trkpt>
<trkpt lat="53.467246" lon="-1.731045"><ele>534</ele><time>2022-04-08T12:00:20Z</time><name>PT3986</name></trkpt>
<trkpt lat="53.467254" lon="-1.731053"><ele>534</ele><time>2022-04-08T12:00:21Z</time><name>PT3987</name></trkpt>
<trkpt lat="53.467264" lon="-1.731063"><ele>534</ele><time>2022-04-08T12:00:22Z</time><name>PT3988</name></trkpt>
<trkpt lat="53.467272" lon="-1.731073"><ele>535</ele><time>2022-04-08T12:00:23Z</time><name>PT3989</name></trkpt>
<trkpt lat="53.467282" lon="-1.731087"><ele>535</ele><time>2022-04-08T12:00:24Z</time><name>PT3990</name></trkpt>
<trkpt lat="53.467290" lon="-1.731101"><ele>535</ele><time>2022-04-08T12:00:25Z</time><name>PT3991</name></trkpt>
<trkpt lat="53.467298" lon="-1.731113"><ele>535</ele><time>2022-04-08T12:00:26Z</time><name>PT3992</name></trkpt>
<trkpt lat="53.467304" lon="-1.731133"><ele>535</ele><time>2022-04-08T12:00:27Z</time><name>PT3993</name></trkpt>
<trkpt lat="53.467307" lon="-1.731150"><ele>536</ele><time>2022-04-08T12:00:28Z</time><name>PT3994</name></trkpt>
<trkpt lat="53.467311" lon="-1.731161"><ele>536</ele><time>2022-04-08T12:00:29Z</time><name>PT3995</name></trkpt>
<trkpt lat="53.467318" lon="-1.731174"><ele>536</ele><time>2022-04-08T12:00:30Z</time><name>PT3996</name></trkpt>
<trkpt lat="53.467322" lon="-1.731188"><ele>536</ele><time>2022-04-08T12:00:31Z</time><name>PT3997</name></trkpt>
<trkpt lat="53.467327" lon="-1.731203"><ele>536</ele><time>2022-04-08T12:00:32Z</time><name>PT3998</name></trkpt>
<trkpt lat="53.467333" lon="-1.731212"><ele>536</ele><time>2022-04-08T12:00:33Z</time><name>PT3999</name></trkpt>
<trkpt lat="53.467341" lon="-1.731224"><ele>536</ele><time>2022-04-08T12:00:34Z</time><name>PT4000</name></trkpt>
<trkpt lat="53.467345" lon="-1.731244"><ele>537</ele><time>2022-04-08T12:00:35Z</time><name>PT4001</name></trkpt>
<trkpt lat="53.467345" lon="-1.731259"><ele>536</ele><time>2022-04-08T12:00:36Z</time><name>PT4002</name></trkpt>
<trkpt lat="53.467344" lon="-1.731277"><ele>536</ele><time>2022-04-08T12:00:37Z</time><name>PT4003</name></trkpt>
<trkpt lat="53.467345" lon="-1.731296"><ele>536</ele><time>2022-04-08T12:00:38Z</time><name>PT4004</name></trkpt>
<trkpt lat="53.467347" lon="-1.731313"><ele>536</ele><time>2022-04-08T12:00:39Z</time><name>PT4005</name></trkpt>
<trkpt lat="53.467350" lon="-1.731328"><ele>536</ele><time>2022-04-08T12:00:40Z</time><name>PT4006</name></trkpt>
<trkpt lat="53.467355" lon="-1.731343"><ele>536</ele><time>2022-04-08T12:00:41Z</time><name>PT4007</name></trkpt>
<trkpt lat="53.467359" lon="-1.731361"><ele>536</ele><time>2022-04-08T12:00:42Z</time><name>PT4008</name></trkpt>
<trkpt lat="53.467364" lon="-1.731376"><ele>536</ele><time>2022-04-08T12:00:43Z</time><name>PT4009</name></trkpt>
<trkpt lat="53.467372" lon="-1.731394"><ele>536</ele><time>2022-04-08T12:00:44Z</time><name>PT4010</name></trkpt>
<trkpt lat="53.467381" lon="-1.731401"><ele>536</ele><time>2022-04-08T12:00:45Z</time><name>PT4011</name></trkpt>
<trkpt lat="53.467389" lon="-1.731410"><ele>536</ele><time>2022-04-08T12:00:46Z</time><name>PT4012</name></trkpt>
<trkpt lat="53.467396" lon="-1.731424"><ele>536</ele><time>2022-04-08T12:00:47Z</time><name>PT4013</name></trkpt>
<trkpt lat="53.467404" lon="-1.731441"><ele>537</ele><time>2022-04-08T12:00:48Z</time><name>PT4014</name></trkpt>
<trkpt lat="53.467409" lon="-1.731455"><ele>536</ele><time>2022-04-08T12:00:49Z</time><name>PT4015</name></trkpt>
<trkpt lat="53.467416" lon="-1.731471"><ele>536</ele><time>2022-04-08T12:00:50Z</time><name>PT4016</name></trkpt>
<trkpt lat="53.467425" lon="-1.731485"><ele>536</ele><time>2022-04-08T12:00:51Z</time><name>PT4017</name></trkpt>
<trkpt lat="53.467432" lon="-1.731501"><ele>536</ele><time>2022-04-08T12:00:52Z</time><name>PT4018</name></trkpt>
<trkpt lat="53.467438" lon="-1.731515"><ele>536</ele><time>2022-04-08T12:00:53Z</time><name>PT4019</name></trkpt>
<trkpt lat="53.467446" lon="-1.731526"><ele>537</ele><time>2022-04-08T12:00:54Z</time><name>PT4020</name></trkpt>
<trkpt lat="53.467453" lon="-1.731528"><ele>537</ele><time>2022-04-08T12:00:55Z</time><name>PT4021</name></trkpt>
<trkpt lat="53.467459" lon="-1.731533"><ele>537</ele><time>2022-04-08T12:00:56Z</time><name>PT4022</name></trkpt>
<trkpt lat="53.467458" lon="-1.731533"><ele>536</ele><time>2022-04-08T12:00:57Z</time><name>PT4023</name></trkpt>
<trkpt lat="53.467458" lon="-1.731533"><ele>536</ele><time>2022-04-08T12:00:58Z</time><name>PT4024</name></trkpt>
<trkpt lat="53.467464" lon="-1.731537"><ele>536</ele><time>2022-04-08T12:00:59Z</time><name>PT4025</name></trkpt>
<trkpt lat="53.467471" lon="-1.731544"><ele>537</ele><time>2022-04-08T12:01:00Z</time><name>PT4026</name></trkpt>
<trkpt lat="53.467476" lon="-1.731552"><ele>537</ele><time>2022-04-08T12:01:01Z</time><name>PT4027</name></trkpt>
<trkpt lat="53.467487" lon="-1.731563"><ele>537</ele><time>2022-04-08T12:01:02Z</time><name>PT4028</name></trkpt>
<trkpt lat="53.467498" lon="-1.731569"><ele>537</ele><time>2022-04-08T12:01:03Z</time><name>PT4029</name></trkpt>
<trkpt lat="53.467526" lon="-1.731610"><ele>538</ele><time>2022-04-08T12:01:07Z</time><name>PT4030</name></trkpt>
<trkpt lat="53.467557" lon="-1.731629"><ele>538</ele><time>2022-04-08T12:01:11Z</time><name>PT4031</name></trkpt>
<trkpt lat="53.467586" lon="-1.731678"><ele>537</ele><time>2022-04-08T12:01:15Z</time><name>PT4032</name></trkpt>
<trkpt lat="53.467609" lon="-1.731738"><ele>537</ele><time>2022-04-08T12:01:19Z</time><name>PT4033</name></trkpt>
<trkpt lat="53.467617" lon="-1.731799"><ele>537</ele><time>2022-04-08T12:01:23Z</time><name>PT4034</name></trkpt>
<trkpt lat="53.467643" lon="-1.731842"><ele>537</ele><time>2022-04-08T12:01:27Z</time><name>PT4035</name></trkpt>
<trkpt lat="53.467666" lon="-1.731898"><ele>536</ele><time>2022-04-08T12:01:31Z</time><name>PT4036</name></trkpt>
<trkpt lat="53.467691" lon="-1.731951"><ele>537</ele><time>2022-04-08T12:01:35Z</time><name>PT4037</name></trkpt>
<trkpt lat="53.467725" lon="-1.731995"><ele>537</ele><time>2022-04-08T12:01:39Z</time><name>PT4038</name></trkpt>
<trkpt lat="53.467748" lon="-1.732050"><ele>537</ele><time>2022-04-08T12:01:43Z</time><name>PT4039</name></trkpt>
<trkpt lat="53.467779" lon="-1.732094"><ele>536</ele><time>2022-04-08T12:01:47Z</time><name>PT4040</name></trkpt>
<trkpt lat="53.467807" lon="-1.732147"><ele>536</ele><time>2022-04-08T12:01:51Z</time><name>PT4041</name></trkpt>
<trkpt lat="53.467834" lon="-1.732196"><ele>536</ele><time>2022-04-08T12:01:55Z</time><name>PT4042</name></trkpt>
<trkpt lat="53.467866" lon="-1.732245"><ele>537</ele><time>2022-04-08T12:01:59Z</time><name>PT4043</name></trkpt>
<trkpt lat="53.467900" lon="-1.732292"><ele>537</ele><time>2022-04-08T12:02:03Z</time><name>PT4044</name></trkpt>
<trkpt lat="53.467923" lon="-1.732341"><ele>537</ele><time>2022-04-08T12:02:07Z</time><name>PT4045</name></trkpt>
<trkpt lat="53.467945" lon="-1.732388"><ele>538</ele><time>2022-04-08T12:02:09Z</time><name>PT4046</name></trkpt>
<trkpt lat="53.467952" lon="-1.732409"><ele>538</ele><time>2022-04-08T12:02:11Z</time><name>PT4047</name></trkpt>
<trkpt lat="53.467958" lon="-1.732423"><ele>539</ele><time>2022-04-08T12:02:11Z</time><name>PT4048</name></trkpt>
<trkpt lat="53.467964" lon="-1.732440"><ele>539</ele><time>2022-04-08T12:02:12Z</time><name>PT4049</name></trkpt>
<trkpt lat="53.467973" lon="-1.732458"><ele>539</ele><time>2022-04-08T12:02:13Z</time><name>PT4050</name></trkpt>
<trkpt lat="53.467980" lon="-1.732474"><ele>539</ele><time>2022-04-08T12:02:14Z</time><name>PT4051</name></trkpt>
<trkpt lat="53.467990" lon="-1.732486"><ele>539</ele><time>2022-04-08T12:02:15Z</time><name>PT4052</name></trkpt>
<trkpt lat="53.468000" lon="-1.732503"><ele>540</ele><time>2022-04-08T12:02:16Z</time><name>PT4053</name></trkpt>
<trkpt lat="53.468009" lon="-1.732518"><ele>540</ele><time>2022-04-08T12:02:17Z</time><name>PT4054</name></trkpt>
<trkpt lat="53.468016" lon="-1.732534"><ele>540</ele><time>2022-04-08T12:02:18Z</time><name>PT4055</name></trkpt>
<trkpt lat="53.468022" lon="-1.732549"><ele>540</ele><time>2022-04-08T12:02:19Z</time><name>PT4056</name></trkpt>
<trkpt lat="53.468030" lon="-1.732561"><ele>540</ele><time>2022-04-08T12:02:21Z</time><name>PT4057</name></trkpt>
<trkpt lat="53.468039" lon="-1.732574"><ele>540</ele><time>2022-04-08T12:02:21Z</time><name>PT4058</name></trkpt>
<trkpt lat="53.468048" lon="-1.732589"><ele>540</ele><time>2022-04-08T12:02:22Z</time><name>PT4059</name></trkpt>
<trkpt lat="53.468055" lon="-1.732603"><ele>540</ele><time>2022-04-08T12:02:23Z</time><name>PT4060</name></trkpt>
<trkpt lat="53.468063" lon="-1.732617"><ele>540</ele><time>2022-04-08T12:02:24Z</time><name>PT4061</name></trkpt>
<trkpt lat="53.468070" lon="-1.732633"><ele>540</ele><time>2022-04-08T12:02:25Z</time><name>PT4062</name></trkpt>
<trkpt lat="53.468077" lon="-1.732650"><ele>540</ele><time>2022-04-08T12:02:26Z</time><name>PT4063</name></trkpt>
<trkpt lat="53.468084" lon="-1.732665"><ele>540</ele><time>2022-04-08T12:02:27Z</time><name>PT4064</name></trkpt>
<trkpt lat="53.468092" lon="-1.732678"><ele>541</ele><time>2022-04-08T12:02:28Z</time><name>PT4065</name></trkpt>
<trkpt lat="53.468102" lon="-1.732690"><ele>541</ele><time>2022-04-08T12:02:29Z</time><name>PT4066</name></trkpt>
<trkpt lat="53.468110" lon="-1.732704"><ele>541</ele><time>2022-04-08T12:02:30Z</time><name>PT4067</name></trkpt>
<trkpt lat="53.468116" lon="-1.732722"><ele>541</ele><time>2022-04-08T12:02:31Z</time><name>PT4068</name></trkpt>
<trkpt lat="53.468120" lon="-1.732736"><ele>541</ele><time>2022-04-08T12:02:32Z</time><name>PT4069</name></trkpt>
<trkpt lat="53.468127" lon="-1.732749"><ele>541</ele><time>2022-04-08T12:02:33Z</time><name>PT4070</name></trkpt>
<trkpt lat="53.468134" lon="-1.732764"><ele>541</ele><time>2022-04-08T12:02:34Z</time><name>PT4071</name></trkpt>
<trkpt lat="53.468141" lon="-1.732780"><ele>542</ele><time>2022-04-08T12:02:35Z</time><name>PT4072</name></trkpt>
<trkpt lat="53.468147" lon="-1.732798"><ele>542</ele><time>2022-04-08T12:02:36Z</time><name>PT4073</name></trkpt>
<trkpt lat="53.468153" lon="-1.732816"><ele>542</ele><time>2022-04-08T12:02:37Z</time><name>PT4074</name></trkpt>
<trkpt lat="53.468159" lon="-1.732832"><ele>542</ele><time>2022-04-08T12:02:38Z</time><name>PT4075</name></trkpt>
<trkpt lat="53.468165" lon="-1.732845"><ele>542</ele><time>2022-04-08T12:02:39Z</time><name>PT4076</name></trkpt>
<trkpt lat="53.468171" lon="-1.732860"><ele>542</ele><time>2022-04-08T12:02:40Z</time><name>PT4077</name></trkpt>
<trkpt lat="53.468179" lon="-1.732872"><ele>542</ele><time>2022-04-08T12:02:41Z</time><name>PT4078</name></trkpt>
<trkpt lat="53.468188" lon="-1.732880"><ele>542</ele><time>2022-04-08T12:02:42Z</time><name>PT4079</name></trkpt>
<trkpt lat="53.468197" lon="-1.732889"><ele>542</ele><time>2022-04-08T12:02:43Z</time><name>PT4080</name></trkpt>
<trkpt lat="53.468208" lon="-1.732900"><ele>542</ele><time>2022-04-08T12:02:44Z</time><name>PT4081</name></trkpt>
<trkpt lat="53.468218" lon="-1.732909"><ele>542</ele><time>2022-04-08T12:02:45Z</time><name>PT4082</name></trkpt>
<trkpt lat="53.468230" lon="-1.732918"><ele>542</ele><time>2022-04-08T12:02:46Z</time><name>PT4083</name></trkpt>
<trkpt lat="53.468240" lon="-1.732929"><ele>542</ele><time>2022-04-08T12:02:47Z</time><name>PT4084</name></trkpt>
<trkpt lat="53.468244" lon="-1.732943"><ele>542</ele><time>2022-04-08T12:02:48Z</time><name>PT4085</name></trkpt>
<trkpt lat="53.468244" lon="-1.732961"><ele>542</ele><time>2022-04-08T12:02:49Z</time><name>PT4086</name></trkpt>
<trkpt lat="53.468246" lon="-1.732978"><ele>542</ele><time>2022-04-08T12:02:50Z</time><name>PT4087</name></trkpt>
<trkpt lat="53.468248" lon="-1.732992"><ele>542</ele><time>2022-04-08T12:02:51Z</time><name>PT4088</name></trkpt>
<trkpt lat="53.468251" lon="-1.733009"><ele>542</ele><time>2022-04-08T12:02:52Z</time><name>PT4089</name></trkpt>
<trkpt lat="53.468254" lon="-1.733027"><ele>542</ele><time>2022-04-08T12:02:53Z</time><name>PT4090</name></trkpt>
<trkpt lat="53.468257" lon="-1.733046"><ele>542</ele><time>2022-04-08T12:02:54Z</time><name>PT4091</name></trkpt>
<trkpt lat="53.468259" lon="-1.733062"><ele>542</ele><time>2022-04-08T12:02:55Z</time><name>PT4092</name></trkpt>
<trkpt lat="53.468265" lon="-1.733077"><ele>542</ele><time>2022-04-08T12:02:56Z</time><name>PT4093</name></trkpt>
<trkpt lat="53.468273" lon="-1.733087"><ele>542</ele><time>2022-04-08T12:02:57Z</time><name>PT4094</name></trkpt>
<trkpt lat="53.468281" lon="-1.733101"><ele>542</ele><time>2022-04-08T12:02:58Z</time><name>PT4095</name></trkpt>
<trkpt lat="53.468287" lon="-1.733118"><ele>542</ele><time>2022-04-08T12:02:59Z</time><name>PT4096</name></trkpt>
<trkpt lat="53.468291" lon="-1.733132"><ele>542</ele><time>2022-04-08T12:03:00Z</time><name>PT4097</name></trkpt>
<trkpt lat="53.468296" lon="-1.733149"><ele>542</ele><time>2022-04-08T12:03:01Z</time><name>PT4098</name></trkpt>
<trkpt lat="53.468301" lon="-1.733167"><ele>542</ele><time>2022-04-08T12:03:02Z</time><name>PT4099</name></trkpt>
<trkpt lat="53.468307" lon="-1.733183"><ele>542</ele><time>2022-04-08T12:03:03Z</time><name>PT4100</name></trkpt>
<trkpt lat="53.468315" lon="-1.733199"><ele>542</ele><time>2022-04-08T12:03:04Z</time><name>PT4101</name></trkpt>
<trkpt lat="53.468323" lon="-1.733208"><ele>542</ele><time>2022-04-08T12:03:05Z</time><name>PT4102</name></trkpt>
<trkpt lat="53.468332" lon="-1.733215"><ele>542</ele><time>2022-04-08T12:03:06Z</time><name>PT4103</name></trkpt>
<trkpt lat="53.468341" lon="-1.733229"><ele>542</ele><time>2022-04-08T12:03:07Z</time><name>PT4104</name></trkpt>
<trkpt lat="53.468348" lon="-1.733247"><ele>542</ele><time>2022-04-08T12:03:08Z</time><name>PT4105</name></trkpt>
<trkpt lat="53.468354" lon="-1.733265"><ele>542</ele><time>2022-04-08T12:03:09Z</time><name>PT4106</name></trkpt>
<trkpt lat="53.468361" lon="-1.733280"><ele>542</ele><time>2022-04-08T12:03:10Z</time><name>PT4107</name></trkpt>
<trkpt lat="53.468369" lon="-1.733298"><ele>542</ele><time>2022-04-08T12:03:11Z</time><name>PT4108</name></trkpt>
<trkpt lat="53.468379" lon="-1.733308"><ele>542</ele><time>2022-04-08T12:03:12Z</time><name>PT4109</name></trkpt>
<trkpt lat="53.468389" lon="-1.733320"><ele>542</ele><time>2022-04-08T12:03:13Z</time><name>PT4110</name></trkpt>
<trkpt lat="53.468399" lon="-1.733335"><ele>542</ele><time>2022-04-08T12:03:14Z</time><name>PT4111</name></trkpt>
<trkpt lat="53.468407" lon="-1.733346"><ele>542</ele><time>2022-04-08T12:03:15Z</time><name>PT4112</name></trkpt>
<trkpt lat="53.468416" lon="-1.733355"><ele>542</ele><time>2022-04-08T12:03:16Z</time><name>PT4113</name></trkpt>
<trkpt lat="53.468425" lon="-1.733359"><ele>542</ele><time>2022-04-08T12:03:17Z</time><name>PT4114</name></trkpt>
<trkpt lat="53.468436" lon="-1.733365"><ele>542</ele><time>2022-04-08T12:03:18Z</time><name>PT4115</name></trkpt>
<trkpt lat="53.468447" lon="-1.733373"><ele>542</ele><time>2022-04-08T12:03:19Z</time><name>PT4116</name></trkpt>
<trkpt lat="53.468456" lon="-1.733384"><ele>542</ele><time>2022-04-08T12:03:20Z</time><name>PT4117</name></trkpt>
<trkpt lat="53.468467" lon="-1.733399"><ele>542</ele><time>2022-04-08T12:03:21Z</time><name>PT4118</name></trkpt>
<trkpt lat="53.468473" lon="-1.733414"><ele>542</ele><time>2022-04-08T12:03:22Z</time><name>PT4119</name></trkpt>
<trkpt lat="53.468480" lon="-1.733427"><ele>543</ele><time>2022-04-08T12:03:23Z</time><name>PT4120</name></trkpt>
<trkpt lat="53.468487" lon="-1.733436"><ele>543</ele><time>2022-04-08T12:03:24Z</time><name>PT4121</name></trkpt>
<trkpt lat="53.468494" lon="-1.733450"><ele>543</ele><time>2022-04-08T12:03:25Z</time><name>PT4122</name></trkpt>
<trkpt lat="53.468499" lon="-1.733465"><ele>542</ele><time>2022-04-08T12:03:26Z</time><name>PT4123</name></trkpt>
<trkpt lat="53.468504" lon="-1.733478"><ele>542</ele><time>2022-04-08T12:03:27Z</time><name>PT4124</name></trkpt>
<trkpt lat="53.468509" lon="-1.733486"><ele>543</ele><time>2022-04-08T12:03:28Z</time><name>PT4125</name></trkpt>
<trkpt lat="53.468525" lon="-1.733492"><ele>543</ele><time>2022-04-08T12:03:29Z</time><name>PT4126</name></trkpt>
<trkpt lat="53.468535" lon="-1.733495"><ele>543</ele><time>2022-04-08T12:03:30Z</time><name>PT4127</name></trkpt>
<trkpt lat="53.468538" lon="-1.733501"><ele>543</ele><time>2022-04-08T12:03:31Z</time><name>PT4128</name></trkpt>
<trkpt lat="53.468539" lon="-1.733503"><ele>543</ele><time>2022-04-08T12:03:32Z</time><name>PT4129</name></trkpt>
<trkpt lat="53.468540" lon="-1.733502"><ele>543</ele><time>2022-04-08T12:03:33Z</time><name>PT4130</name></trkpt>
<trkpt lat="53.468544" lon="-1.733504"><ele>543</ele><time>2022-04-08T12:03:34Z</time><name>PT4131</name></trkpt>
<trkpt lat="53.468547" lon="-1.733514"><ele>543</ele><time>2022-04-08T12:03:35Z</time><name>PT4132</name></trkpt>
<trkpt lat="53.468551" lon="-1.733531"><ele>543</ele><time>2022-04-08T12:03:36Z</time><name>PT4133</name></trkpt>
<trkpt lat="53.468556" lon="-1.733543"><ele>543</ele><time>2022-04-08T12:03:37Z</time><name>PT4134</name></trkpt>
<trkpt lat="53.468560" lon="-1.733556"><ele>543</ele><time>2022-04-08T12:03:38Z</time><name>PT4135</name></trkpt>
<trkpt lat="53.468564" lon="-1.733573"><ele>543</ele><time>2022-04-08T12:03:39Z</time><name>PT4136</name></trkpt>
<trkpt lat="53.468570" lon="-1.733590"><ele>543</ele><time>2022-04-08T12:03:40Z</time><name>PT4137</name></trkpt>
<trkpt lat="53.468576" lon="-1.733604"><ele>543</ele><time>2022-04-08T12:03:41Z</time><name>PT4138</name></trkpt>
<trkpt lat="53.468582" lon="-1.733625"><ele>544</ele><time>2022-04-08T12:03:42Z</time><name>PT4139</name></trkpt>
<trkpt lat="53.468589" lon="-1.733638"><ele>544</ele><time>2022-04-08T12:03:43Z</time><name>PT4140</name></trkpt>
<trkpt lat="53.468597" lon="-1.733651"><ele>544</ele><time>2022-04-08T12:03:44Z</time><name>PT4141</name></trkpt>
<trkpt lat="53.468602" lon="-1.733659"><ele>544</ele><time>2022-04-08T12:03:45Z</time><name>PT4142</name></trkpt>
<trkpt lat="53.468610" lon="-1.733673"><ele>544</ele><time>2022-04-08T12:03:46Z</time><name>PT4143</name></trkpt>
<trkpt lat="53.468616" lon="-1.733690"><ele>544</ele><time>2022-04-08T12:03:47Z</time><name>PT4144</name></trkpt>
<trkpt lat="53.468623" lon="-1.733702"><ele>544</ele><time>2022-04-08T12:03:48Z</time><name>PT4145</name></trkpt>
<trkpt lat="53.468631" lon="-1.733712"><ele>544</ele><time>2022-04-08T12:03:50Z</time><name>PT4146</name></trkpt>
<trkpt lat="53.468639" lon="-1.733722"><ele>543</ele><time>2022-04-08T12:03:50Z</time><name>PT4147</name></trkpt>
<trkpt lat="53.468646" lon="-1.733734"><ele>543</ele><time>2022-04-08T12:03:51Z</time><name>PT4148</name></trkpt>
<trkpt lat="53.468653" lon="-1.733751"><ele>543</ele><time>2022-04-08T12:03:52Z</time><name>PT4149</name></trkpt>
<trkpt lat="53.468660" lon="-1.733765"><ele>544</ele><time>2022-04-08T12:03:53Z</time><name>PT4150</name></trkpt>
<trkpt lat="53.468665" lon="-1.733773"><ele>544</ele><time>2022-04-08T12:03:55Z</time><name>PT4151</name></trkpt>
<trkpt lat="53.468671" lon="-1.733787"><ele>544</ele><time>2022-04-08T12:03:55Z</time><name>PT4152</name></trkpt>
<trkpt lat="53.468672" lon="-1.733804"><ele>544</ele><time>2022-04-08T12:03:56Z</time><name>PT4153</name></trkpt>
<trkpt lat="53.468670" lon="-1.733819"><ele>544</ele><time>2022-04-08T12:03:57Z</time><name>PT4154</name></trkpt>
<trkpt lat="53.468673" lon="-1.733835"><ele>543</ele><time>2022-04-08T12:03:58Z</time><name>PT4155</name></trkpt>
<trkpt lat="53.468677" lon="-1.733848"><ele>543</ele><time>2022-04-08T12:03:59Z</time><name>PT4156</name></trkpt>
<trkpt lat="53.468685" lon="-1.733863"><ele>543</ele><time>2022-04-08T12:04:00Z</time><name>PT4157</name></trkpt>
<trkpt lat="53.468693" lon="-1.733876"><ele>543</ele><time>2022-04-08T12:04:01Z</time><name>PT4158</name></trkpt>
<trkpt lat="53.468699" lon="-1.733889"><ele>543</ele><time>2022-04-08T12:04:02Z</time><name>PT4159</name></trkpt>
<trkpt lat="53.468706" lon="-1.733901"><ele>543</ele><time>2022-04-08T12:04:03Z</time><name>PT4160</name></trkpt>
<trkpt lat="53.468713" lon="-1.733910"><ele>543</ele><time>2022-04-08T12:04:04Z</time><name>PT4161</name></trkpt>
<trkpt lat="53.468721" lon="-1.733921"><ele>543</ele><time>2022-04-08T12:04:05Z</time><name>PT4162</name></trkpt>
<trkpt lat="53.468728" lon="-1.733939"><ele>543</ele><time>2022-04-08T12:04:06Z</time><name>PT4163</name></trkpt>
<trkpt lat="53.468735" lon="-1.733956"><ele>544</ele><time>2022-04-08T12:04:07Z</time><name>PT4164</name></trkpt>
<trkpt lat="53.468740" lon="-1.733970"><ele>544</ele><time>2022-04-08T12:04:08Z</time><name>PT4165</name></trkpt>
<trkpt lat="53.468745" lon="-1.733989"><ele>544</ele><time>2022-04-08T12:04:09Z</time><name>PT4166</name></trkpt>
<trkpt lat="53.468748" lon="-1.734001"><ele>544</ele><time>2022-04-08T12:04:10Z</time><name>PT4167</name></trkpt>
<trkpt lat="53.468753" lon="-1.734013"><ele>544</ele><time>2022-04-08T12:04:11Z</time><name>PT4168</name></trkpt>
<trkpt lat="53.468759" lon="-1.734020"><ele>544</ele><time>2022-04-08T12:04:12Z</time><name>PT4169</name></trkpt>
<trkpt lat="53.468770" lon="-1.734026"><ele>544</ele><time>2022-04-08T12:04:13Z</time><name>PT4170</name></trkpt>
<trkpt lat="53.468779" lon="-1.734031"><ele>544</ele><time>2022-04-08T12:04:14Z</time><name>PT4171</name></trkpt>
<trkpt lat="53.468786" lon="-1.734044"><ele>544</ele><time>2022-04-08T12:04:15Z</time><name>PT4172</name></trkpt>
<trkpt lat="53.468794" lon="-1.734053"><ele>544</ele><time>2022-04-08T12:04:16Z</time><name>PT4173</name></trkpt>
<trkpt lat="53.468802" lon="-1.734062"><ele>544</ele><time>2022-04-08T12:04:17Z</time><name>PT4174</name></trkpt>
<trkpt lat="53.468808" lon="-1.734076"><ele>544</ele><time>2022-04-08T12:04:18Z</time><name>PT4175</name></trkpt>
<trkpt lat="53.468812" lon="-1.734086"><ele>543</ele><time>2022-04-08T12:04:19Z</time><name>PT4176</name></trkpt>
<trkpt lat="53.468816" lon="-1.734103"><ele>543</ele><time>2022-04-08T12:04:20Z</time><name>PT4177</name></trkpt>
<trkpt lat="53.468819" lon="-1.734116"><ele>543</ele><time>2022-04-08T12:04:21Z</time><name>PT4178</name></trkpt>
<trkpt lat="53.468822" lon="-1.734126"><ele>543</ele><time>2022-04-08T12:04:22Z</time><name>PT4179</name></trkpt>
<trkpt lat="53.468828" lon="-1.734132"><ele>543</ele><time>2022-04-08T12:04:23Z</time><name>PT4180</name></trkpt>
<trkpt lat="53.468837" lon="-1.734137"><ele>542</ele><time>2022-04-08T12:04:24Z</time><name>PT4181</name></trkpt>
<trkpt lat="53.468847" lon="-1.734146"><ele>542</ele><time>2022-04-08T12:04:25Z</time><name>PT4182</name></trkpt>
<trkpt lat="53.468858" lon="-1.734160"><ele>542</ele><time>2022-04-08T12:04:26Z</time><name>PT4183</name></trkpt>
<trkpt lat="53.468865" lon="-1.734170"><ele>542</ele><time>2022-04-08T12:04:27Z</time><name>PT4184</name></trkpt>
<trkpt lat="53.468874" lon="-1.734179"><ele>542</ele><time>2022-04-08T12:04:28Z</time><name>PT4185</name></trkpt>
<trkpt lat="53.468879" lon="-1.734192"><ele>542</ele><time>2022-04-08T12:04:29Z</time><name>PT4186</name></trkpt>
<trkpt lat="53.468887" lon="-1.734204"><ele>542</ele><time>2022-04-08T12:04:30Z</time><name>PT4187</name></trkpt>
<trkpt lat="53.468898" lon="-1.734216"><ele>542</ele><time>2022-04-08T12:04:31Z</time><name>PT4188</name></trkpt>
<trkpt lat="53.468909" lon="-1.734221"><ele>542</ele><time>2022-04-08T12:04:32Z</time><name>PT4189</name></trkpt>
<trkpt lat="53.468918" lon="-1.734225"><ele>542</ele><time>2022-04-08T12:04:33Z</time><name>PT4190</name></trkpt>
<trkpt lat="53.468926" lon="-1.734232"><ele>542</ele><time>2022-04-08T12:04:34Z</time><name>PT4191</name></trkpt>
<trkpt lat="53.468937" lon="-1.734245"><ele>542</ele><time>2022-04-08T12:04:35Z</time><name>PT4192</name></trkpt>
<trkpt lat="53.468946" lon="-1.734253"><ele>542</ele><time>2022-04-08T12:04:36Z</time><name>PT4193</name></trkpt>
<trkpt lat="53.468955" lon="-1.734257"><ele>542</ele><time>2022-04-08T12:04:37Z</time><name>PT4194</name></trkpt>
<trkpt lat="53.468965" lon="-1.734266"><ele>542</ele><time>2022-04-08T12:04:38Z</time><name>PT4195</name></trkpt>
<trkpt lat="53.468974" lon="-1.734274"><ele>542</ele><time>2022-04-08T12:04:39Z</time><name>PT4196</name></trkpt>
<trkpt lat="53.468987" lon="-1.734286"><ele>542</ele><time>2022-04-08T12:04:40Z</time><name>PT4197</name></trkpt>
<trkpt lat="53.468997" lon="-1.734299"><ele>543</ele><time>2022-04-08T12:04:41Z</time><name>PT4198</name></trkpt>
<trkpt lat="53.469005" lon="-1.734308"><ele>543</ele><time>2022-04-08T12:04:42Z</time><name>PT4199</name></trkpt>
<trkpt lat="53.469013" lon="-1.734319"><ele>543</ele><time>2022-04-08T12:04:43Z</time><name>PT4200</name></trkpt>
<trkpt lat="53.469020" lon="-1.734334"><ele>543</ele><time>2022-04-08T12:04:44Z</time><name>PT4201</name></trkpt>
<trkpt lat="53.469024" lon="-1.734349"><ele>543</ele><time>2022-04-08T12:04:45Z</time><name>PT4202</name></trkpt>
<trkpt lat="53.469029" lon="-1.734367"><ele>543</ele><time>2022-04-08T12:04:46Z</time><name>PT4203</name></trkpt>
<trkpt lat="53.469033" lon="-1.734384"><ele>543</ele><time>2022-04-08T12:04:47Z</time><name>PT4204</name></trkpt>
<trkpt lat="53.469040" lon="-1.734395"><ele>543</ele><time>2022-04-08T12:04:48Z</time><name>PT4205</name></trkpt>
<trkpt lat="53.469048" lon="-1.734406"><ele>543</ele><time>2022-04-08T12:04:49Z</time><name>PT4206</name></trkpt>
<trkpt lat="53.469056" lon="-1.734418"><ele>544</ele><time>2022-04-08T12:04:50Z</time><name>PT4207</name></trkpt>
<trkpt lat="53.469065" lon="-1.734430"><ele>543</ele><time>2022-04-08T12:04:51Z</time><name>PT4208</name></trkpt>
<trkpt lat="53.469074" lon="-1.734437"><ele>543</ele><time>2022-04-08T12:04:52Z</time><name>PT4209</name></trkpt>
<trkpt lat="53.469086" lon="-1.734440"><ele>543</ele><time>2022-04-08T12:04:53Z</time><name>PT4210</name></trkpt>
<trkpt lat="53.469093" lon="-1.734449"><ele>543</ele><time>2022-04-08T12:04:54Z</time><name>PT4211</name></trkpt>
<trkpt lat="53.469101" lon="-1.734465"><ele>544</ele><time>2022-04-08T12:04:55Z</time><name>PT4212</name></trkpt>
<trkpt lat="53.469107" lon="-1.734480"><ele>544</ele><time>2022-04-08T12:04:56Z</time><name>PT4213</name></trkpt>
<trkpt lat="53.469113" lon="-1.734490"><ele>543</ele><time>2022-04-08T12:04:57Z</time><name>PT4214</name></trkpt>
<trkpt lat="53.469121" lon="-1.734496"><ele>543</ele><time>2022-04-08T12:04:58Z</time><name>PT4215</name></trkpt>
<trkpt lat="53.469130" lon="-1.734503"><ele>544</ele><time>2022-04-08T12:04:59Z</time><name>PT4216</name></trkpt>
<trkpt lat="53.469135" lon="-1.734518"><ele>543</ele><time>2022-04-08T12:05:00Z</time><name>PT4217</name></trkpt>
<trkpt lat="53.469143" lon="-1.734538"><ele>543</ele><time>2022-04-08T12:05:01Z</time><name>PT4218</name></trkpt>
<trkpt lat="53.469150" lon="-1.734549"><ele>543</ele><time>2022-04-08T12:05:02Z</time><name>PT4219</name></trkpt>
<trkpt lat="53.469158" lon="-1.734561"><ele>543</ele><time>2022-04-08T12:05:03Z</time><name>PT4220</name></trkpt>
<trkpt lat="53.469164" lon="-1.734570"><ele>542</ele><time>2022-04-08T12:05:04Z</time><name>PT4221</name></trkpt>
<trkpt lat="53.469169" lon="-1.734581"><ele>542</ele><time>2022-04-08T12:05:05Z</time><name>PT4222</name></trkpt>
<trkpt lat="53.469174" lon="-1.734593"><ele>542</ele><time>2022-04-08T12:05:06Z</time><name>PT4223</name></trkpt>
<trkpt lat="53.469180" lon="-1.734603"><ele>542</ele><time>2022-04-08T12:05:07Z</time><name>PT4224</name></trkpt>
<trkpt lat="53.469189" lon="-1.734616"><ele>542</ele><time>2022-04-08T12:05:08Z</time><name>PT4225</name></trkpt>
<trkpt lat="53.469196" lon="-1.734629"><ele>542</ele><time>2022-04-08T12:05:09Z</time><name>PT4226</name></trkpt>
<trkpt lat="53.469199" lon="-1.734637"><ele>542</ele><time>2022-04-08T12:05:10Z</time><name>PT4227</name></trkpt>
<trkpt lat="53.469204" lon="-1.734642"><ele>542</ele><time>2022-04-08T12:05:11Z</time><name>PT4228</name></trkpt>
<trkpt lat="53.469212" lon="-1.734647"><ele>542</ele><time>2022-04-08T12:05:12Z</time><name>PT4229</name></trkpt>
<trkpt lat="53.469218" lon="-1.734653"><ele>542</ele><time>2022-04-08T12:05:13Z</time><name>PT4230</name></trkpt>
<trkpt lat="53.469225" lon="-1.734667"><ele>543</ele><time>2022-04-08T12:05:14Z</time><name>PT4231</name></trkpt>
<trkpt lat="53.469231" lon="-1.734683"><ele>543</ele><time>2022-04-08T12:05:15Z</time><name>PT4232</name></trkpt>
<trkpt lat="53.469237" lon="-1.734693"><ele>542</ele><time>2022-04-08T12:05:16Z</time><name>PT4233</name></trkpt>
<trkpt lat="53.469243" lon="-1.734702"><ele>542</ele><time>2022-04-08T12:05:17Z</time><name>PT4234</name></trkpt>
<trkpt lat="53.469247" lon="-1.734711"><ele>542</ele><time>2022-04-08T12:05:18Z</time><name>PT4235</name></trkpt>
<trkpt lat="53.469251" lon="-1.734718"><ele>542</ele><time>2022-04-08T12:05:19Z</time><name>PT4236</name></trkpt>
<trkpt lat="53.469254" lon="-1.734731"><ele>542</ele><time>2022-04-08T12:05:20Z</time><name>PT4237</name></trkpt>
<trkpt lat="53.469255" lon="-1.734743"><ele>542</ele><time>2022-04-08T12:05:21Z</time><name>PT4238</name></trkpt>
<trkpt lat="53.469253" lon="-1.734748"><ele>542</ele><time>2022-04-08T12:05:22Z</time><name>PT4239</name></trkpt>
<trkpt lat="53.469251" lon="-1.734749"><ele>542</ele><time>2022-04-08T12:05:23Z</time><name>PT4240</name></trkpt>
<trkpt lat="53.469247" lon="-1.734747"><ele>541</ele><time>2022-04-08T12:05:24Z</time><name>PT4241</name></trkpt>
<trkpt lat="53.469240" lon="-1.734747"><ele>541</ele><time>2022-04-08T12:05:25Z</time><name>PT4242</name></trkpt>
<trkpt lat="53.469224" lon="-1.734745"><ele>540</ele><time>2022-04-08T12:05:26Z</time><name>PT4243</name></trkpt>
<trkpt lat="53.469217" lon="-1.734747"><ele>540</ele><time>2022-04-08T12:05:27Z</time><name>PT4244</name></trkpt>
<trkpt lat="53.469212" lon="-1.734746"><ele>539</ele><time>2022-04-08T12:05:28Z</time><name>PT4245</name></trkpt>
<trkpt lat="53.469209" lon="-1.734746"><ele>539</ele><time>2022-04-08T12:05:29Z</time><name>PT4246</name></trkpt>
<trkpt lat="53.469204" lon="-1.734748"><ele>539</ele><time>2022-04-08T12:05:30Z</time><name>PT4247</name></trkpt>
<trkpt lat="53.469204" lon="-1.734745"><ele>540</ele><time>2022-04-08T12:05:31Z</time><name>PT4248</name></trkpt>
<trkpt lat="53.469206" lon="-1.734745"><ele>540</ele><time>2022-04-08T12:05:32Z</time><name>PT4249</name></trkpt>
<trkpt lat="53.469206" lon="-1.734744"><ele>539</ele><time>2022-04-08T12:05:33Z</time><name>PT4250</name></trkpt>
<trkpt lat="53.469206" lon="-1.734744"><ele>539</ele><time>2022-04-08T12:05:34Z</time><name>PT4251</name></trkpt>
<trkpt lat="53.469205" lon="-1.734742"><ele>539</ele><time>2022-04-08T12:05:35Z</time><name>PT4252</name></trkpt>
<trkpt lat="53.469204" lon="-1.734755"><ele>540</ele><time>2022-04-08T12:07:00Z</time><name>PT4253</name></trkpt>
<trkpt lat="53.469212" lon="-1.734784"><ele>541</ele><time>2022-04-08T12:08:16Z</time><name>PT4254</name></trkpt>
<trkpt lat="53.469205" lon="-1.734801"><ele>541</ele><time>2022-04-08T12:08:32Z</time><name>PT4255</name></trkpt>
<trkpt lat="53.469207" lon="-1.734804"><ele>541</ele><time>2022-04-08T12:08:36Z</time><name>PT4256</name></trkpt>
<trkpt lat="53.469209" lon="-1.734809"><ele>541</ele><time>2022-04-08T12:08:48Z</time><name>PT4257</name></trkpt>
<trkpt lat="53.469210" lon="-1.734811"><ele>542</ele><time>2022-04-08T12:08:52Z</time><name>PT4258</name></trkpt>
<trkpt lat="53.469207" lon="-1.734818"><ele>541</ele><time>2022-04-08T12:10:00Z</time><name>PT4259</name></trkpt>
<trkpt lat="53.469212" lon="-1.734836"><ele>542</ele><time>2022-04-08T12:10:04Z</time><name>PT4260</name></trkpt>
<trkpt lat="53.469209" lon="-1.734839"><ele>542</ele><time>2022-04-08T12:10:08Z</time><name>PT4261</name></trkpt>
<trkpt lat="53.469208" lon="-1.734839"><ele>542</ele><time>2022-04-08T12:10:12Z</time><name>PT4262</name></trkpt>
<trkpt lat="53.469208" lon="-1.734832"><ele>543</ele><time>2022-04-08T12:10:21Z</time><name>PT4263</name></trkpt>
<trkpt lat="53.469205" lon="-1.734830"><ele>543</ele><time>2022-04-08T12:10:21Z</time><name>PT4264</name></trkpt>
<trkpt lat="53.469203" lon="-1.734827"><ele>543</ele><time>2022-04-08T12:10:22Z</time><name>PT4265</name></trkpt>
<trkpt lat="53.469207" lon="-1.734823"><ele>544</ele><time>2022-04-08T12:10:35Z</time><name>PT4266</name></trkpt>
<trkpt lat="53.469210" lon="-1.734822"><ele>544</ele><time>2022-04-08T12:10:36Z</time><name>PT4267</name></trkpt>
<trkpt lat="53.469210" lon="-1.734820"><ele>544</ele><time>2022-04-08T12:10:37Z</time><name>PT4268</name></trkpt>
<trkpt lat="53.469210" lon="-1.734819"><ele>544</ele><time>2022-04-08T12:10:38Z</time><name>PT4269</name></trkpt>
<trkpt lat="53.469209" lon="-1.734815"><ele>544</ele><time>2022-04-08T12:11:08Z</time><name>PT4270</name></trkpt>
<trkpt lat="53.469210" lon="-1.734814"><ele>544</ele><time>2022-04-08T12:11:09Z</time><name>PT4271</name></trkpt>
<trkpt lat="53.469211" lon="-1.734812"><ele>544</ele><time>2022-04-08T12:11:10Z</time><name>PT4272</name></trkpt>
<trkpt lat="53.469211" lon="-1.734814"><ele>543</ele><time>2022-04-08T12:11:11Z</time><name>PT4273</name></trkpt>
<trkpt lat="53.469221" lon="-1.734840"><ele>544</ele><time>2022-04-08T12:11:15Z</time><name>PT4274</name></trkpt>
<trkpt lat="53.469236" lon="-1.734834"><ele>544</ele><time>2022-04-08T12:11:16Z</time><name>PT4275</name></trkpt>
<trkpt lat="53.469249" lon="-1.734831"><ele>543</ele><time>2022-04-08T12:11:17Z</time><name>PT4276</name></trkpt>
<trkpt lat="53.469263" lon="-1.734831"><ele>543</ele><time>2022-04-08T12:11:18Z</time><name>PT4277</name></trkpt>
<trkpt lat="53.469272" lon="-1.734837"><ele>543</ele><time>2022-04-08T12:11:19Z</time><name>PT4278</name></trkpt>
<trkpt lat="53.469280" lon="-1.734844"><ele>543</ele><time>2022-04-08T12:11:20Z</time><name>PT4279</name></trkpt>
<trkpt lat="53.469286" lon="-1.734848"><ele>543</ele><time>2022-04-08T12:11:21Z</time><name>PT4280</name></trkpt>
<trkpt lat="53.469293" lon="-1.734850"><ele>543</ele><time>2022-04-08T12:11:22Z</time><name>PT4281</name></trkpt>
<trkpt lat="53.469301" lon="-1.734852"><ele>543</ele><time>2022-04-08T12:11:23Z</time><name>PT4282</name></trkpt>
<trkpt lat="53.469312" lon="-1.734846"><ele>543</ele><time>2022-04-08T12:11:24Z</time><name>PT4283</name></trkpt>
<trkpt lat="53.469316" lon="-1.734839"><ele>543</ele><time>2022-04-08T12:11:25Z</time><name>PT4284</name></trkpt>
<trkpt lat="53.469315" lon="-1.734834"><ele>542</ele><time>2022-04-08T12:11:26Z</time><name>PT4285</name></trkpt>
<trkpt lat="53.469317" lon="-1.734824"><ele>543</ele><time>2022-04-08T12:11:27Z</time><name>PT4286</name></trkpt>
<trkpt lat="53.469324" lon="-1.734814"><ele>543</ele><time>2022-04-08T12:11:28Z</time><name>PT4287</name></trkpt>
<trkpt lat="53.469332" lon="-1.734805"><ele>543</ele><time>2022-04-08T12:11:29Z</time><name>PT4288</name></trkpt>
<trkpt lat="53.469342" lon="-1.734802"><ele>543</ele><time>2022-04-08T12:11:30Z</time><name>PT4289</name></trkpt>
<trkpt lat="53.469351" lon="-1.734798"><ele>543</ele><time>2022-04-08T12:11:31Z</time><name>PT4290</name></trkpt>
<trkpt lat="53.469359" lon="-1.734792"><ele>542</ele><time>2022-04-08T12:11:32Z</time><name>PT4291</name></trkpt>
<trkpt lat="53.469365" lon="-1.734787"><ele>542</ele><time>2022-04-08T12:11:33Z</time><name>PT4292</name></trkpt>
<trkpt lat="53.469374" lon="-1.734783"><ele>542</ele><time>2022-04-08T12:11:34Z</time><name>PT4293</name></trkpt>
<trkpt lat="53.469384" lon="-1.734784"><ele>543</ele><time>2022-04-08T12:11:35Z</time><name>PT4294</name></trkpt>
<trkpt lat="53.469394" lon="-1.734787"><ele>542</ele><time>2022-04-08T12:11:36Z</time><name>PT4295</name></trkpt>
<trkpt lat="53.469403" lon="-1.734792"><ele>543</ele><time>2022-04-08T12:11:37Z</time><name>PT4296</name></trkpt>
<trkpt lat="53.469411" lon="-1.734791"><ele>542</ele><time>2022-04-08T12:11:38Z</time><name>PT4297</name></trkpt>
<trkpt lat="53.469424" lon="-1.734796"><ele>542</ele><time>2022-04-08T12:11:39Z</time><name>PT4298</name></trkpt>
<trkpt lat="53.469427" lon="-1.734808"><ele>543</ele><time>2022-04-08T12:11:40Z</time><name>PT4299</name></trkpt>
<trkpt lat="53.469432" lon="-1.734825"><ele>543</ele><time>2022-04-08T12:11:41Z</time><name>PT4300</name></trkpt>
<trkpt lat="53.469437" lon="-1.734843"><ele>543</ele><time>2022-04-08T12:11:42Z</time><name>PT4301</name></trkpt>
<trkpt lat="53.469434" lon="-1.734860"><ele>543</ele><time>2022-04-08T12:11:43Z</time><name>PT4302</name></trkpt>
<trkpt lat="53.469431" lon="-1.734870"><ele>544</ele><time>2022-04-08T12:11:44Z</time><name>PT4303</name></trkpt>
<trkpt lat="53.469425" lon="-1.734876"><ele>544</ele><time>2022-04-08T12:11:45Z</time><name>PT4304</name></trkpt>
<trkpt lat="53.469420" lon="-1.734888"><ele>543</ele><time>2022-04-08T12:11:46Z</time><name>PT4305</name></trkpt>
<trkpt lat="53.469418" lon="-1.734906"><ele>543</ele><time>2022-04-08T12:11:47Z</time><name>PT4306</name></trkpt>
<trkpt lat="53.469422" lon="-1.734926"><ele>544</ele><time>2022-04-08T12:11:48Z</time><name>PT4307</name></trkpt>
<trkpt lat="53.469428" lon="-1.734947"><ele>543</ele><time>2022-04-08T12:11:49Z</time><name>PT4308</name></trkpt>
<trkpt lat="53.469436" lon="-1.734963"><ele>543</ele><time>2022-04-08T12:11:50Z</time><name>PT4309</name></trkpt>
<trkpt lat="53.469447" lon="-1.734974"><ele>543</ele><time>2022-04-08T12:11:51Z</time><name>PT4310</name></trkpt>
<trkpt lat="53.469455" lon="-1.734982"><ele>543</ele><time>2022-04-08T12:11:52Z</time><name>PT4311</name></trkpt>
<trkpt lat="53.469462" lon="-1.734998"><ele>543</ele><time>2022-04-08T12:11:53Z</time><name>PT4312</name></trkpt>
<trkpt lat="53.469470" lon="-1.735018"><ele>543</ele><time>2022-04-08T12:11:54Z</time><name>PT4313</name></trkpt>
<trkpt lat="53.469479" lon="-1.735028"><ele>542</ele><time>2022-04-08T12:11:55Z</time><name>PT4314</name></trkpt>
<trkpt lat="53.469489" lon="-1.735037"><ele>542</ele><time>2022-04-08T12:11:56Z</time><name>PT4315</name></trkpt>
<trkpt lat="53.469498" lon="-1.735049"><ele>542</ele><time>2022-04-08T12:11:57Z</time><name>PT4316</name></trkpt>
<trkpt lat="53.469504" lon="-1.735065"><ele>542</ele><time>2022-04-08T12:11:58Z</time><name>PT4317</name></trkpt>
<trkpt lat="53.469512" lon="-1.735080"><ele>542</ele><time>2022-04-08T12:11:59Z</time><name>PT4318</name></trkpt>
<trkpt lat="53.469523" lon="-1.735092"><ele>542</ele><time>2022-04-08T12:12:00Z</time><name>PT4319</name></trkpt>
<trkpt lat="53.469533" lon="-1.735102"><ele>542</ele><time>2022-04-08T12:12:01Z</time><name>PT4320</name></trkpt>
<trkpt lat="53.469546" lon="-1.735112"><ele>542</ele><time>2022-04-08T12:12:02Z</time><name>PT4321</name></trkpt>
<trkpt lat="53.469555" lon="-1.735121"><ele>542</ele><time>2022-04-08T12:12:03Z</time><name>PT4322</name></trkpt>
<trkpt lat="53.469563" lon="-1.735132"><ele>542</ele><time>2022-04-08T12:12:04Z</time><name>PT4323</name></trkpt>
<trkpt lat="53.469573" lon="-1.735139"><ele>542</ele><time>2022-04-08T12:12:05Z</time><name>PT4324</name></trkpt>
<trkpt lat="53.469584" lon="-1.735145"><ele>542</ele><time>2022-04-08T12:12:06Z</time><name>PT4325</name></trkpt>
<trkpt lat="53.469593" lon="-1.735147"><ele>542</ele><time>2022-04-08T12:12:07Z</time><name>PT4326</name></trkpt>
<trkpt lat="53.469604" lon="-1.735146"><ele>542</ele><time>2022-04-08T12:12:08Z</time><name>PT4327</name></trkpt>
<trkpt lat="53.469614" lon="-1.735148"><ele>542</ele><time>2022-04-08T12:12:09Z</time><name>PT4328</name></trkpt>
<trkpt lat="53.469624" lon="-1.735154"><ele>543</ele><time>2022-04-08T12:12:10Z</time><name>PT4329</name></trkpt>
<trkpt lat="53.469634" lon="-1.735161"><ele>542</ele><time>2022-04-08T12:12:11Z</time><name>PT4330</name></trkpt>
<trkpt lat="53.469645" lon="-1.735167"><ele>542</ele><time>2022-04-08T12:12:12Z</time><name>PT4331</name></trkpt>
<trkpt lat="53.469656" lon="-1.735172"><ele>542</ele><time>2022-04-08T12:12:13Z</time><name>PT4332</name></trkpt>
<trkpt lat="53.469665" lon="-1.735177"><ele>542</ele><time>2022-04-08T12:12:14Z</time><name>PT4333</name></trkpt>
<trkpt lat="53.469675" lon="-1.735187"><ele>542</ele><time>2022-04-08T12:12:15Z</time><name>PT4334</name></trkpt>
<trkpt lat="53.469682" lon="-1.735191"><ele>542</ele><time>2022-04-08T12:12:16Z</time><name>PT4335</name></trkpt>
<trkpt lat="53.469691" lon="-1.735197"><ele>542</ele><time>2022-04-08T12:12:17Z</time><name>PT4336</name></trkpt>
<trkpt lat="53.469696" lon="-1.735205"><ele>542</ele><time>2022-04-08T12:12:18Z</time><name>PT4337</name></trkpt>
<trkpt lat="53.469696" lon="-1.735213"><ele>542</ele><time>2022-04-08T12:12:19Z</time><name>PT4338</name></trkpt>
<trkpt lat="53.469698" lon="-1.735226"><ele>542</ele><time>2022-04-08T12:12:20Z</time><name>PT4339</name></trkpt>
<trkpt lat="53.469700" lon="-1.735239"><ele>542</ele><time>2022-04-08T12:12:21Z</time><name>PT4340</name></trkpt>
<trkpt lat="53.469709" lon="-1.735256"><ele>540</ele><time>2022-04-08T12:12:22Z</time><name>PT4341</name></trkpt>
<trkpt lat="53.469715" lon="-1.735266"><ele>540</ele><time>2022-04-08T12:12:23Z</time><name>PT4342</name></trkpt>
<trkpt lat="53.469722" lon="-1.735268"><ele>540</ele><time>2022-04-08T12:12:24Z</time><name>PT4343</name></trkpt>
<trkpt lat="53.469729" lon="-1.735271"><ele>540</ele><time>2022-04-08T12:12:25Z</time><name>PT4344</name></trkpt>
<trkpt lat="53.469739" lon="-1.735280"><ele>540</ele><time>2022-04-08T12:12:26Z</time><name>PT4345</name></trkpt>
<trkpt lat="53.469747" lon="-1.735291"><ele>540</ele><time>2022-04-08T12:12:27Z</time><name>PT4346</name></trkpt>
<trkpt lat="53.469756" lon="-1.735300"><ele>540</ele><time>2022-04-08T12:12:28Z</time><name>PT4347</name></trkpt>
<trkpt lat="53.469765" lon="-1.735307"><ele>540</ele><time>2022-04-08T12:12:29Z</time><name>PT4348</name></trkpt>
<trkpt lat="53.469774" lon="-1.735312"><ele>540</ele><time>2022-04-08T12:12:30Z</time><name>PT4349</name></trkpt>
<trkpt lat="53.469785" lon="-1.735321"><ele>540</ele><time>2022-04-08T12:12:31Z</time><name>PT4350</name></trkpt>
<trkpt lat="53.469798" lon="-1.735330"><ele>540</ele><time>2022-04-08T12:12:32Z</time><name>PT4351</name></trkpt>
<trkpt lat="53.469807" lon="-1.735334"><ele>540</ele><time>2022-04-08T12:12:33Z</time><name>PT4352</name></trkpt>
<trkpt lat="53.469818" lon="-1.735339"><ele>540</ele><time>2022-04-08T12:12:34Z</time><name>PT4353</name></trkpt>
<trkpt lat="53.469826" lon="-1.735348"><ele>540</ele><time>2022-04-08T12:12:35Z</time><name>PT4354</name></trkpt>
<trkpt lat="53.469836" lon="-1.735360"><ele>540</ele><time>2022-04-08T12:12:36Z</time><name>PT4355</name></trkpt>
<trkpt lat="53.469844" lon="-1.735365"><ele>540</ele><time>2022-04-08T12:12:37Z</time><name>PT4356</name></trkpt>
<trkpt lat="53.469847" lon="-1.735364"><ele>540</ele><time>2022-04-08T12:12:38Z</time><name>PT4357</name></trkpt>
<trkpt lat="53.469853" lon="-1.735368"><ele>540</ele><time>2022-04-08T12:12:39Z</time><name>PT4358</name></trkpt>
<trkpt lat="53.469864" lon="-1.735375"><ele>540</ele><time>2022-04-08T12:12:40Z</time><name>PT4359</name></trkpt>
<trkpt lat="53.469873" lon="-1.735383"><ele>540</ele><time>2022-04-08T12:12:41Z</time><name>PT4360</name></trkpt>
<trkpt lat="53.469883" lon="-1.735392"><ele>540</ele><time>2022-04-08T12:12:42Z</time><name>PT4361</name></trkpt>
<trkpt lat="53.469893" lon="-1.735401"><ele>540</ele><time>2022-04-08T12:12:43Z</time><name>PT4362</name></trkpt>
<trkpt lat="53.469905" lon="-1.735411"><ele>540</ele><time>2022-04-08T12:12:44Z</time><name>PT4363</name></trkpt>
<trkpt lat="53.469913" lon="-1.735420"><ele>540</ele><time>2022-04-08T12:12:45Z</time><name>PT4364</name></trkpt>
<trkpt lat="53.469922" lon="-1.735429"><ele>540</ele><time>2022-04-08T12:12:46Z</time><name>PT4365</name></trkpt>
<trkpt lat="53.469934" lon="-1.735435"><ele>540</ele><time>2022-04-08T12:12:47Z</time><name>PT4366</name></trkpt>
<trkpt lat="53.469945" lon="-1.735432"><ele>541</ele><time>2022-04-08T12:12:48Z</time><name>PT4367</name></trkpt>
<trkpt lat="53.469957" lon="-1.735426"><ele>541</ele><time>2022-04-08T12:12:49Z</time><name>PT4368</name></trkpt>
<trkpt lat="53.469966" lon="-1.735424"><ele>541</ele><time>2022-04-08T12:12:50Z</time><name>PT4369</name></trkpt>
<trkpt lat="53.469975" lon="-1.735426"><ele>541</ele><time>2022-04-08T12:12:51Z</time><name>PT4370</name></trkpt>
<trkpt lat="53.469987" lon="-1.735432"><ele>541</ele><time>2022-04-08T12:12:52Z</time><name>PT4371</name></trkpt>
<trkpt lat="53.469998" lon="-1.735438"><ele>541</ele><time>2022-04-08T12:12:53Z</time><name>PT4372</name></trkpt>
<trkpt lat="53.470008" lon="-1.735440"><ele>541</ele><time>2022-04-08T12:12:54Z</time><name>PT4373</name></trkpt>
<trkpt lat="53.470017" lon="-1.735446"><ele>541</ele><time>2022-04-08T12:12:55Z</time><name>PT4374</name></trkpt>
<trkpt lat="53.470025" lon="-1.735455"><ele>541</ele><time>2022-04-08T12:12:56Z</time><name>PT4375</name></trkpt>
<trkpt lat="53.470034" lon="-1.735467"><ele>541</ele><time>2022-04-08T12:12:57Z</time><name>PT4376</name></trkpt>
<trkpt lat="53.470042" lon="-1.735480"><ele>541</ele><time>2022-04-08T12:12:58Z</time><name>PT4377</name></trkpt>
<trkpt lat="53.470050" lon="-1.735492"><ele>541</ele><time>2022-04-08T12:12:59Z</time><name>PT4378</name></trkpt>
<trkpt lat="53.470059" lon="-1.735501"><ele>541</ele><time>2022-04-08T12:13:00Z</time><name>PT4379</name></trkpt>
<trkpt lat="53.470068" lon="-1.735512"><ele>540</ele><time>2022-04-08T12:13:01Z</time><name>PT4380</name></trkpt>
<trkpt lat="53.470077" lon="-1.735525"><ele>541</ele><time>2022-04-08T12:13:02Z</time><name>PT4381</name></trkpt>
<trkpt lat="53.470088" lon="-1.735532"><ele>540</ele><time>2022-04-08T12:13:03Z</time><name>PT4382</name></trkpt>
<trkpt lat="53.470127" lon="-1.735534"><ele>540</ele><time>2022-04-08T12:13:06Z</time><name>PT4383</name></trkpt>
<trkpt lat="53.470170" lon="-1.735566"><ele>540</ele><time>2022-04-08T12:13:10Z</time><name>PT4384</name></trkpt>
<trkpt lat="53.470214" lon="-1.735578"><ele>540</ele><time>2022-04-08T12:13:14Z</time><name>PT4385</name></trkpt>
<trkpt lat="53.470261" lon="-1.735578"><ele>541</ele><time>2022-04-08T12:13:18Z</time><name>PT4386</name></trkpt>
<trkpt lat="53.470298" lon="-1.735615"><ele>540</ele><time>2022-04-08T12:13:22Z</time><name>PT4387</name></trkpt>
<trkpt lat="53.470337" lon="-1.735636"><ele>539</ele><time>2022-04-08T12:13:26Z</time><name>PT4388</name></trkpt>
<trkpt lat="53.470384" lon="-1.735647"><ele>539</ele><time>2022-04-08T12:13:30Z</time><name>PT4389</name></trkpt>
<trkpt lat="53.470430" lon="-1.735665"><ele>538</ele><time>2022-04-08T12:13:34Z</time><name>PT4390</name></trkpt>
<trkpt lat="53.470476" lon="-1.735672"><ele>538</ele><time>2022-04-08T12:13:38Z</time><name>PT4391</name></trkpt>
<trkpt lat="53.470523" lon="-1.735688"><ele>537</ele><time>2022-04-08T12:13:42Z</time><name>PT4392</name></trkpt>
<trkpt lat="53.470570" lon="-1.735694"><ele>538</ele><time>2022-04-08T12:13:46Z</time><name>PT4393</name></trkpt>
<trkpt lat="53.470617" lon="-1.735694"><ele>537</ele><time>2022-04-08T12:13:50Z</time><name>PT4394</name></trkpt>
<trkpt lat="53.470664" lon="-1.735713"><ele>537</ele><time>2022-04-08T12:13:54Z</time><name>PT4395</name></trkpt>
<trkpt lat="53.470711" lon="-1.735738"><ele>537</ele><time>2022-04-08T12:13:58Z</time><name>PT4396</name></trkpt>
<trkpt lat="53.470739" lon="-1.735756"><ele>536</ele><time>2022-04-08T12:14:02Z</time><name>PT4397</name></trkpt>
<trkpt lat="53.470769" lon="-1.735762"><ele>536</ele><time>2022-04-08T12:14:06Z</time><name>PT4398</name></trkpt>
<trkpt lat="53.470804" lon="-1.735804"><ele>536</ele><time>2022-04-08T12:14:10Z</time><name>PT4399</name></trkpt>
<trkpt lat="53.470843" lon="-1.735825"><ele>536</ele><time>2022-04-08T12:14:14Z</time><name>PT4400</name></trkpt>
<trkpt lat="53.470893" lon="-1.735816"><ele>536</ele><time>2022-04-08T12:14:18Z</time><name>PT4401</name></trkpt>
<trkpt lat="53.470936" lon="-1.735799"><ele>536</ele><time>2022-04-08T12:14:22Z</time><name>PT4402</name></trkpt>
<trkpt lat="53.470980" lon="-1.735806"><ele>536</ele><time>2022-04-08T12:14:26Z</time><name>PT4403</name></trkpt>
<trkpt lat="53.471025" lon="-1.735796"><ele>535</ele><time>2022-04-08T12:14:30Z</time><name>PT4404</name></trkpt>
<trkpt lat="53.471064" lon="-1.735833"><ele>534</ele><time>2022-04-08T12:14:34Z</time><name>PT4405</name></trkpt>
<trkpt lat="53.471102" lon="-1.735801"><ele>534</ele><time>2022-04-08T12:14:38Z</time><name>PT4406</name></trkpt>
<trkpt lat="53.471145" lon="-1.735805"><ele>533</ele><time>2022-04-08T12:14:42Z</time><name>PT4407</name></trkpt>
<trkpt lat="53.471190" lon="-1.735824"><ele>533</ele><time>2022-04-08T12:14:46Z</time><name>PT4408</name></trkpt>
<trkpt lat="53.471227" lon="-1.735827"><ele>533</ele><time>2022-04-08T12:14:50Z</time><name>PT4409</name></trkpt>
<trkpt lat="53.471273" lon="-1.735844"><ele>533</ele><time>2022-04-08T12:14:54Z</time><name>PT4410</name></trkpt>
<trkpt lat="53.471318" lon="-1.735843"><ele>533</ele><time>2022-04-08T12:14:58Z</time><name>PT4411</name></trkpt>
<trkpt lat="53.471359" lon="-1.735824"><ele>532</ele><time>2022-04-08T12:15:02Z</time><name>PT4412</name></trkpt>
<trkpt lat="53.471404" lon="-1.735817"><ele>532</ele><time>2022-04-08T12:15:06Z</time><name>PT4413</name></trkpt>
<trkpt lat="53.471451" lon="-1.735835"><ele>532</ele><time>2022-04-08T12:15:10Z</time><name>PT4414</name></trkpt>
<trkpt lat="53.471492" lon="-1.735850"><ele>531</ele><time>2022-04-08T12:15:14Z</time><name>PT4415</name></trkpt>
<trkpt lat="53.471521" lon="-1.735855"><ele>531</ele><time>2022-04-08T12:15:18Z</time><name>PT4416</name></trkpt>
<trkpt lat="53.471537" lon="-1.735857"><ele>531</ele><time>2022-04-08T12:15:22Z</time><name>PT4417</name></trkpt>
<trkpt lat="53.471576" lon="-1.735873"><ele>531</ele><time>2022-04-08T12:15:26Z</time><name>PT4418</name></trkpt>
<trkpt lat="53.471624" lon="-1.735891"><ele>531</ele><time>2022-04-08T12:15:30Z</time><name>PT4419</name></trkpt>
<trkpt lat="53.471670" lon="-1.735909"><ele>530</ele><time>2022-04-08T12:15:34Z</time><name>PT4420</name></trkpt>
<trkpt lat="53.471705" lon="-1.735917"><ele>531</ele><time>2022-04-08T12:15:38Z</time><name>PT4421</name></trkpt>
<trkpt lat="53.471749" lon="-1.735926"><ele>530</ele><time>2022-04-08T12:15:42Z</time><name>PT4422</name></trkpt>
<trkpt lat="53.471796" lon="-1.735954"><ele>530</ele><time>2022-04-08T12:15:46Z</time><name>PT4423</name></trkpt>
<trkpt lat="53.471843" lon="-1.735959"><ele>530</ele><time>2022-04-08T12:15:50Z</time><name>PT4424</name></trkpt>
<trkpt lat="53.471893" lon="-1.735986"><ele>529</ele><time>2022-04-08T12:15:54Z</time><name>PT4425</name></trkpt>
<trkpt lat="53.471944" lon="-1.735982"><ele>529</ele><time>2022-04-08T12:15:58Z</time><name>PT4426</name></trkpt>
<trkpt lat="53.471958" lon="-1.735984"><ele>529</ele><time>2022-04-08T12:15:59Z</time><name>PT4427</name></trkpt>
<trkpt lat="53.471970" lon="-1.735988"><ele>529</ele><time>2022-04-08T12:16:00Z</time><name>PT4428</name></trkpt>
<trkpt lat="53.471984" lon="-1.735994"><ele>530</ele><time>2022-04-08T12:16:01Z</time><name>PT4429</name></trkpt>
<trkpt lat="53.472001" lon="-1.736001"><ele>530</ele><time>2022-04-08T12:16:02Z</time><name>PT4430</name></trkpt>
<trkpt lat="53.472012" lon="-1.736010"><ele>530</ele><time>2022-04-08T12:16:03Z</time><name>PT4431</name></trkpt>
<trkpt lat="53.472023" lon="-1.736018"><ele>530</ele><time>2022-04-08T12:16:04Z</time><name>PT4432</name></trkpt>
<trkpt lat="53.472038" lon="-1.736025"><ele>530</ele><time>2022-04-08T12:16:05Z</time><name>PT4433</name></trkpt>
<trkpt lat="53.472050" lon="-1.736028"><ele>530</ele><time>2022-04-08T12:16:06Z</time><name>PT4434</name></trkpt>
<trkpt lat="53.472060" lon="-1.736026"><ele>529</ele><time>2022-04-08T12:16:07Z</time><name>PT4435</name></trkpt>
<trkpt lat="53.472070" lon="-1.736026"><ele>529</ele><time>2022-04-08T12:16:08Z</time><name>PT4436</name></trkpt>
<trkpt lat="53.472081" lon="-1.736028"><ele>529</ele><time>2022-04-08T12:16:09Z</time><name>PT4437</name></trkpt>
<trkpt lat="53.472094" lon="-1.736029"><ele>529</ele><time>2022-04-08T12:16:10Z</time><name>PT4438</name></trkpt>
<trkpt lat="53.472106" lon="-1.736028"><ele>529</ele><time>2022-04-08T12:16:11Z</time><name>PT4439</name></trkpt>
<trkpt lat="53.472118" lon="-1.736024"><ele>530</ele><time>2022-04-08T12:16:12Z</time><name>PT4440</name></trkpt>
<trkpt lat="53.472131" lon="-1.736023"><ele>529</ele><time>2022-04-08T12:16:13Z</time><name>PT4441</name></trkpt>
<trkpt lat="53.472148" lon="-1.736019"><ele>530</ele><time>2022-04-08T12:16:14Z</time><name>PT4442</name></trkpt>
<trkpt lat="53.472163" lon="-1.736015"><ele>530</ele><time>2022-04-08T12:16:15Z</time><name>PT4443</name></trkpt>
<trkpt lat="53.472173" lon="-1.736015"><ele>529</ele><time>2022-04-08T12:16:17Z</time><name>PT4444</name></trkpt>
<trkpt lat="53.472183" lon="-1.736021"><ele>529</ele><time>2022-04-08T12:16:17Z</time><name>PT4445</name></trkpt>
<trkpt lat="53.472194" lon="-1.736027"><ele>529</ele><time>2022-04-08T12:16:18Z</time><name>PT4446</name></trkpt>
<trkpt lat="53.472206" lon="-1.736028"><ele>528</ele><time>2022-04-08T12:16:19Z</time><name>PT4447</name></trkpt>
<trkpt lat="53.472220" lon="-1.736027"><ele>528</ele><time>2022-04-08T12:16:20Z</time><name>PT4448</name></trkpt>
<trkpt lat="53.472236" lon="-1.736026"><ele>528</ele><time>2022-04-08T12:16:21Z</time><name>PT4449</name></trkpt>
<trkpt lat="53.472248" lon="-1.736025"><ele>528</ele><time>2022-04-08T12:16:22Z</time><name>PT4450</name></trkpt>
<trkpt lat="53.472259" lon="-1.736026"><ele>528</ele><time>2022-04-08T12:16:23Z</time><name>PT4451</name></trkpt>
<trkpt lat="53.472272" lon="-1.736027"><ele>528</ele><time>2022-04-08T12:16:24Z</time><name>PT4452</name></trkpt>
<trkpt lat="53.472284" lon="-1.736027"><ele>528</ele><time>2022-04-08T12:16:26Z</time><name>PT4453</name></trkpt>
<trkpt lat="53.472294" lon="-1.736025"><ele>528</ele><time>2022-04-08T12:16:26Z</time><name>PT4454</name></trkpt>
<trkpt lat="53.472307" lon="-1.736023"><ele>529</ele><time>2022-04-08T12:16:27Z</time><name>PT4455</name></trkpt>
<trkpt lat="53.472321" lon="-1.736020"><ele>529</ele><time>2022-04-08T12:16:28Z</time><name>PT4456</name></trkpt>
<trkpt lat="53.472332" lon="-1.736016"><ele>529</ele><time>2022-04-08T12:16:29Z</time><name>PT4457</name></trkpt>
<trkpt lat="53.472344" lon="-1.736015"><ele>529</ele><time>2022-04-08T12:16:30Z</time><name>PT4458</name></trkpt>
<trkpt lat="53.472366" lon="-1.736009"><ele>532</ele><time>2022-04-08T12:16:31Z</time><name>PT4459</name></trkpt>
<trkpt lat="53.472378" lon="-1.736005"><ele>532</ele><time>2022-04-08T12:16:32Z</time><name>PT4460</name></trkpt>
<trkpt lat="53.472390" lon="-1.736007"><ele>531</ele><time>2022-04-08T12:16:33Z</time><name>PT4461</name></trkpt>
<trkpt lat="53.472402" lon="-1.736009"><ele>531</ele><time>2022-04-08T12:16:34Z</time><name>PT4462</name></trkpt>
<trkpt lat="53.472413" lon="-1.736010"><ele>531</ele><time>2022-04-08T12:16:35Z</time><name>PT4463</name></trkpt>
<trkpt lat="53.472417" lon="-1.736012"><ele>528</ele><time>2022-04-08T12:16:36Z</time><name>PT4464</name></trkpt>
<trkpt lat="53.472431" lon="-1.736012"><ele>528</ele><time>2022-04-08T12:16:37Z</time><name>PT4465</name></trkpt>
<trkpt lat="53.472441" lon="-1.736014"><ele>528</ele><time>2022-04-08T12:16:38Z</time><name>PT4466</name></trkpt>
<trkpt lat="53.472452" lon="-1.736018"><ele>527</ele><time>2022-04-08T12:16:39Z</time><name>PT4467</name></trkpt>
<trkpt lat="53.472462" lon="-1.736016"><ele>527</ele><time>2022-04-08T12:16:40Z</time><name>PT4468</name></trkpt>
<trkpt lat="53.472472" lon="-1.736014"><ele>526</ele><time>2022-04-08T12:16:41Z</time><name>PT4469</name></trkpt>
<trkpt lat="53.472483" lon="-1.736011"><ele>526</ele><time>2022-04-08T12:16:42Z</time><name>PT4470</name></trkpt>
<trkpt lat="53.472495" lon="-1.736010"><ele>526</ele><time>2022-04-08T12:16:43Z</time><name>PT4471</name></trkpt>
<trkpt lat="53.472508" lon="-1.736009"><ele>526</ele><time>2022-04-08T12:16:44Z</time><name>PT4472</name></trkpt>
<trkpt lat="53.472520" lon="-1.736013"><ele>526</ele><time>2022-04-08T12:16:45Z</time><name>PT4473</name></trkpt>
<trkpt lat="53.472534" lon="-1.736018"><ele>525</ele><time>2022-04-08T12:16:46Z</time><name>PT4474</name></trkpt>
<trkpt lat="53.472550" lon="-1.736023"><ele>525</ele><time>2022-04-08T12:16:47Z</time><name>PT4475</name></trkpt>
<trkpt lat="53.472561" lon="-1.736021"><ele>525</ele><time>2022-04-08T12:16:48Z</time><name>PT4476</name></trkpt>
<trkpt lat="53.472573" lon="-1.736015"><ele>525</ele><time>2022-04-08T12:16:49Z</time><name>PT4477</name></trkpt>
<trkpt lat="53.472584" lon="-1.736010"><ele>525</ele><time>2022-04-08T12:16:50Z</time><name>PT4478</name></trkpt>
<trkpt lat="53.472597" lon="-1.736010"><ele>524</ele><time>2022-04-08T12:16:51Z</time><name>PT4479</name></trkpt>
<trkpt lat="53.472612" lon="-1.736013"><ele>525</ele><time>2022-04-08T12:16:52Z</time><name>PT4480</name></trkpt>
<trkpt lat="53.472626" lon="-1.736017"><ele>525</ele><time>2022-04-08T12:16:53Z</time><name>PT4481</name></trkpt>
<trkpt lat="53.472639" lon="-1.736021"><ele>524</ele><time>2022-04-08T12:16:54Z</time><name>PT4482</name></trkpt>
<trkpt lat="53.472652" lon="-1.736026"><ele>524</ele><time>2022-04-08T12:16:55Z</time><name>PT4483</name></trkpt>
<trkpt lat="53.472664" lon="-1.736030"><ele>524</ele><time>2022-04-08T12:16:56Z</time><name>PT4484</name></trkpt>
<trkpt lat="53.472677" lon="-1.736034"><ele>524</ele><time>2022-04-08T12:16:57Z</time><name>PT4485</name></trkpt>
<trkpt lat="53.472689" lon="-1.736034"><ele>524</ele><time>2022-04-08T12:16:58Z</time><name>PT4486</name></trkpt>
<trkpt lat="53.472703" lon="-1.736031"><ele>524</ele><time>2022-04-08T12:16:59Z</time><name>PT4487</name></trkpt>
<trkpt lat="53.472714" lon="-1.736030"><ele>524</ele><time>2022-04-08T12:17:00Z</time><name>PT4488</name></trkpt>
<trkpt lat="53.472726" lon="-1.736034"><ele>524</ele><time>2022-04-08T12:17:01Z</time><name>PT4489</name></trkpt>
<trkpt lat="53.472738" lon="-1.736041"><ele>524</ele><time>2022-04-08T12:17:02Z</time><name>PT4490</name></trkpt>
<trkpt lat="53.472751" lon="-1.736048"><ele>524</ele><time>2022-04-08T12:17:03Z</time><name>PT4491</name></trkpt>
<trkpt lat="53.472761" lon="-1.736053"><ele>524</ele><time>2022-04-08T12:17:04Z</time><name>PT4492</name></trkpt>
<trkpt lat="53.472774" lon="-1.736060"><ele>525</ele><time>2022-04-08T12:17:05Z</time><name>PT4493</name></trkpt>
<trkpt lat="53.472787" lon="-1.736068"><ele>525</ele><time>2022-04-08T12:17:06Z</time><name>PT4494</name></trkpt>
<trkpt lat="53.472798" lon="-1.736074"><ele>525</ele><time>2022-04-08T12:17:07Z</time><name>PT4495</name></trkpt>
<trkpt lat="53.472810" lon="-1.736084"><ele>525</ele><time>2022-04-08T12:17:08Z</time><name>PT4496</name></trkpt>
<trkpt lat="53.472823" lon="-1.736093"><ele>524</ele><time>2022-04-08T12:17:09Z</time><name>PT4497</name></trkpt>
<trkpt lat="53.472835" lon="-1.736093"><ele>524</ele><time>2022-04-08T12:17:10Z</time><name>PT4498</name></trkpt>
<trkpt lat="53.472846" lon="-1.736090"><ele>524</ele><time>2022-04-08T12:17:11Z</time><name>PT4499</name></trkpt>
<trkpt lat="53.472858" lon="-1.736086"><ele>523</ele><time>2022-04-08T12:17:12Z</time><name>PT4500</name></trkpt>
<trkpt lat="53.472871" lon="-1.736085"><ele>523</ele><time>2022-04-08T12:17:13Z</time><name>PT4501</name></trkpt>
<trkpt lat="53.472883" lon="-1.736087"><ele>523</ele><time>2022-04-08T12:17:14Z</time><name>PT4502</name></trkpt>
<trkpt lat="53.472897" lon="-1.736088"><ele>523</ele><time>2022-04-08T12:17:15Z</time><name>PT4503</name></trkpt>
<trkpt lat="53.472907" lon="-1.736085"><ele>523</ele><time>2022-04-08T12:17:16Z</time><name>PT4504</name></trkpt>
<trkpt lat="53.472918" lon="-1.736083"><ele>523</ele><time>2022-04-08T12:17:17Z</time><name>PT4505</name></trkpt>
<trkpt lat="53.472932" lon="-1.736084"><ele>522</ele><time>2022-04-08T12:17:18Z</time><name>PT4506</name></trkpt>
<trkpt lat="53.472944" lon="-1.736084"><ele>522</ele><time>2022-04-08T12:17:19Z</time><name>PT4507</name></trkpt>
<trkpt lat="53.472958" lon="-1.736087"><ele>522</ele><time>2022-04-08T12:17:20Z</time><name>PT4508</name></trkpt>
<trkpt lat="53.472970" lon="-1.736092"><ele>522</ele><time>2022-04-08T12:17:21Z</time><name>PT4509</name></trkpt>
<trkpt lat="53.472982" lon="-1.736092"><ele>522</ele><time>2022-04-08T12:17:22Z</time><name>PT4510</name></trkpt>
<trkpt lat="53.472994" lon="-1.736088"><ele>522</ele><time>2022-04-08T12:17:23Z</time><name>PT4511</name></trkpt>
<trkpt lat="53.473004" lon="-1.736081"><ele>521</ele><time>2022-04-08T12:17:24Z</time><name>PT4512</name></trkpt>
<trkpt lat="53.473018" lon="-1.736072"><ele>521</ele><time>2022-04-08T12:17:25Z</time><name>PT4513</name></trkpt>
<trkpt lat="53.473028" lon="-1.736066"><ele>520</ele><time>2022-04-08T12:17:26Z</time><name>PT4514</name></trkpt>
<trkpt lat="53.473037" lon="-1.736061"><ele>520</ele><time>2022-04-08T12:17:27Z</time><name>PT4515</name></trkpt>
<trkpt lat="53.473049" lon="-1.736058"><ele>520</ele><time>2022-04-08T12:17:28Z</time><name>PT4516</name></trkpt>
<trkpt lat="53.473061" lon="-1.736062"><ele>520</ele><time>2022-04-08T12:17:29Z</time><name>PT4517</name></trkpt>
<trkpt lat="53.473069" lon="-1.736062"><ele>519</ele><time>2022-04-08T12:17:30Z</time><name>PT4518</name></trkpt>
<trkpt lat="53.473080" lon="-1.736054"><ele>519</ele><time>2022-04-08T12:17:31Z</time><name>PT4519</name></trkpt>
<trkpt lat="53.473091" lon="-1.736052"><ele>519</ele><time>2022-04-08T12:17:32Z</time><name>PT4520</name></trkpt>
<trkpt lat="53.473103" lon="-1.736055"><ele>519</ele><time>2022-04-08T12:17:33Z</time><name>PT4521</name></trkpt>
<trkpt lat="53.473116" lon="-1.736058"><ele>519</ele><time>2022-04-08T12:17:34Z</time><name>PT4522</name></trkpt>
<trkpt lat="53.473128" lon="-1.736063"><ele>519</ele><time>2022-04-08T12:17:35Z</time><name>PT4523</name></trkpt>
<trkpt lat="53.473138" lon="-1.736064"><ele>519</ele><time>2022-04-08T12:17:36Z</time><name>PT4524</name></trkpt>
<trkpt lat="53.473150" lon="-1.736067"><ele>518</ele><time>2022-04-08T12:17:37Z</time><name>PT4525</name></trkpt>
<trkpt lat="53.473162" lon="-1.736072"><ele>518</ele><time>2022-04-08T12:17:38Z</time><name>PT4526</name></trkpt>
<trkpt lat="53.473172" lon="-1.736074"><ele>518</ele><time>2022-04-08T12:17:39Z</time><name>PT4527</name></trkpt>
<trkpt lat="53.473183" lon="-1.736073"><ele>518</ele><time>2022-04-08T12:17:40Z</time><name>PT4528</name></trkpt>
<trkpt lat="53.473191" lon="-1.736071"><ele>518</ele><time>2022-04-08T12:17:41Z</time><name>PT4529</name></trkpt>
<trkpt lat="53.473201" lon="-1.736068"><ele>518</ele><time>2022-04-08T12:17:42Z</time><name>PT4530</name></trkpt>
<trkpt lat="53.473213" lon="-1.736066"><ele>518</ele><time>2022-04-08T12:17:43Z</time><name>PT4531</name></trkpt>
<trkpt lat="53.473226" lon="-1.736068"><ele>518</ele><time>2022-04-08T12:17:44Z</time><name>PT4532</name></trkpt>
<trkpt lat="53.473238" lon="-1.736061"><ele>518</ele><time>2022-04-08T12:17:45Z</time><name>PT4533</name></trkpt>
<trkpt lat="53.473246" lon="-1.736052"><ele>518</ele><time>2022-04-08T12:17:46Z</time><name>PT4534</name></trkpt>
<trkpt lat="53.473254" lon="-1.736042"><ele>518</ele><time>2022-04-08T12:17:47Z</time><name>PT4535</name></trkpt>
<trkpt lat="53.473264" lon="-1.736034"><ele>518</ele><time>2022-04-08T12:17:48Z</time><name>PT4536</name></trkpt>
<trkpt lat="53.473274" lon="-1.736026"><ele>518</ele><time>2022-04-08T12:17:49Z</time><name>PT4537</name></trkpt>
<trkpt lat="53.473284" lon="-1.736018"><ele>517</ele><time>2022-04-08T12:17:50Z</time><name>PT4538</name></trkpt>
<trkpt lat="53.473294" lon="-1.736015"><ele>518</ele><time>2022-04-08T12:17:51Z</time><name>PT4539</name></trkpt>
<trkpt lat="53.473303" lon="-1.736009"><ele>517</ele><time>2022-04-08T12:17:52Z</time><name>PT4540</name></trkpt>
<trkpt lat="53.473313" lon="-1.736008"><ele>517</ele><time>2022-04-08T12:17:53Z</time><name>PT4541</name></trkpt>
<trkpt lat="53.473321" lon="-1.736011"><ele>517</ele><time>2022-04-08T12:17:54Z</time><name>PT4542</name></trkpt>
<trkpt lat="53.473331" lon="-1.736012"><ele>517</ele><time>2022-04-08T12:17:55Z</time><name>PT4543</name></trkpt>
<trkpt lat="53.473342" lon="-1.736011"><ele>517</ele><time>2022-04-08T12:17:56Z</time><name>PT4544</name></trkpt>
<trkpt lat="53.473353" lon="-1.736014"><ele>517</ele><time>2022-04-08T12:17:57Z</time><name>PT4545</name></trkpt>
<trkpt lat="53.473364" lon="-1.736023"><ele>517</ele><time>2022-04-08T12:17:58Z</time><name>PT4546</name></trkpt>
<trkpt lat="53.473400" lon="-1.736045"><ele>517</ele><time>2022-04-08T12:18:01Z</time><name>PT4547</name></trkpt>
<trkpt lat="53.473433" lon="-1.736039"><ele>518</ele><time>2022-04-08T12:18:05Z</time><name>PT4548</name></trkpt>
<trkpt lat="53.473454" lon="-1.736040"><ele>517</ele><time>2022-04-08T12:18:09Z</time><name>PT4549</name></trkpt>
<trkpt lat="53.473436" lon="-1.736060"><ele>517</ele><time>2022-04-08T12:18:13Z</time><name>PT4550</name></trkpt>
<trkpt lat="53.473432" lon="-1.736088"><ele>516</ele><time>2022-04-08T12:18:17Z</time><name>PT4551</name></trkpt>
<trkpt lat="53.473445" lon="-1.736035"><ele>517</ele><time>2022-04-08T12:18:21Z</time><name>PT4552</name></trkpt>
<trkpt lat="53.473447" lon="-1.735963"><ele>517</ele><time>2022-04-08T12:18:25Z</time><name>PT4553</name></trkpt>
<trkpt lat="53.473464" lon="-1.735927"><ele>516</ele><time>2022-04-08T12:18:29Z</time><name>PT4554</name></trkpt>
<trkpt lat="53.473482" lon="-1.735955"><ele>516</ele><time>2022-04-08T12:18:33Z</time><name>PT4555</name></trkpt>
<trkpt lat="53.473507" lon="-1.735997"><ele>516</ele><time>2022-04-08T12:18:37Z</time><name>PT4556</name></trkpt>
<trkpt lat="53.473549" lon="-1.736016"><ele>516</ele><time>2022-04-08T12:18:41Z</time><name>PT4557</name></trkpt>
<trkpt lat="53.473585" lon="-1.736025"><ele>516</ele><time>2022-04-08T12:18:45Z</time><name>PT4558</name></trkpt>
<trkpt lat="53.473632" lon="-1.736044"><ele>516</ele><time>2022-04-08T12:18:49Z</time><name>PT4559</name></trkpt>
<trkpt lat="53.473681" lon="-1.736060"><ele>516</ele><time>2022-04-08T12:18:53Z</time><name>PT4560</name></trkpt>
<trkpt lat="53.473724" lon="-1.736101"><ele>516</ele><time>2022-04-08T12:18:57Z</time><name>PT4561</name></trkpt>
<trkpt lat="53.473770" lon="-1.736102"><ele>516</ele><time>2022-04-08T12:19:01Z</time><name>PT4562</name></trkpt>
<trkpt lat="53.473814" lon="-1.736101"><ele>516</ele><time>2022-04-08T12:19:05Z</time><name>PT4563</name></trkpt>
<trkpt lat="53.473852" lon="-1.736122"><ele>516</ele><time>2022-04-08T12:19:09Z</time><name>PT4564</name></trkpt>
<trkpt lat="53.473871" lon="-1.736160"><ele>516</ele><time>2022-04-08T12:19:13Z</time><name>PT4565</name></trkpt>
<trkpt lat="53.473913" lon="-1.736175"><ele>516</ele><time>2022-04-08T12:19:17Z</time><name>PT4566</name></trkpt>
<trkpt lat="53.473961" lon="-1.736174"><ele>516</ele><time>2022-04-08T12:19:21Z</time><name>PT4567</name></trkpt>
<trkpt lat="53.473998" lon="-1.736182"><ele>515</ele><time>2022-04-08T12:19:25Z</time><name>PT4568</name></trkpt>
<trkpt lat="53.474036" lon="-1.736139"><ele>516</ele><time>2022-04-08T12:19:29Z</time><name>PT4569</name></trkpt>
<trkpt lat="53.474076" lon="-1.736116"><ele>515</ele><time>2022-04-08T12:19:33Z</time><name>PT4570</name></trkpt>
<trkpt lat="53.474105" lon="-1.736118"><ele>514</ele><time>2022-04-08T12:19:37Z</time><name>PT4571</name></trkpt>
<trkpt lat="53.474143" lon="-1.736092"><ele>514</ele><time>2022-04-08T12:19:41Z</time><name>PT4572</name></trkpt>
<trkpt lat="53.474182" lon="-1.736083"><ele>516</ele><time>2022-04-08T12:19:45Z</time><name>PT4573</name></trkpt>
<trkpt lat="53.474223" lon="-1.736099"><ele>516</ele><time>2022-04-08T12:19:49Z</time><name>PT4574</name></trkpt>
<trkpt lat="53.474254" lon="-1.736096"><ele>516</ele><time>2022-04-08T12:19:53Z</time><name>PT4575</name></trkpt>
<trkpt lat="53.474281" lon="-1.736096"><ele>515</ele><time>2022-04-08T12:19:57Z</time><name>PT4576</name></trkpt>
<trkpt lat="53.474328" lon="-1.736116"><ele>515</ele><time>2022-04-08T12:20:01Z</time><name>PT4577</name></trkpt>
<trkpt lat="53.474373" lon="-1.736132"><ele>513</ele><time>2022-04-08T12:20:05Z</time><name>PT4578</name></trkpt>
<trkpt lat="53.474407" lon="-1.736090"><ele>513</ele><time>2022-04-08T12:20:09Z</time><name>PT4579</name></trkpt>
<trkpt lat="53.474436" lon="-1.736104"><ele>513</ele><time>2022-04-08T12:20:13Z</time><name>PT4580</name></trkpt>
<trkpt lat="53.474474" lon="-1.736145"><ele>513</ele><time>2022-04-08T12:20:17Z</time><name>PT4581</name></trkpt>
<trkpt lat="53.474510" lon="-1.736151"><ele>513</ele><time>2022-04-08T12:20:21Z</time><name>PT4582</name></trkpt>
<trkpt lat="53.474511" lon="-1.736101"><ele>513</ele><time>2022-04-08T12:20:25Z</time><name>PT4583</name></trkpt>
<trkpt lat="53.474538" lon="-1.736087"><ele>513</ele><time>2022-04-08T12:20:29Z</time><name>PT4584</name></trkpt>
<trkpt lat="53.474577" lon="-1.736123"><ele>512</ele><time>2022-04-08T12:20:33Z</time><name>PT4585</name></trkpt>
<trkpt lat="53.474615" lon="-1.736159"><ele>512</ele><time>2022-04-08T12:20:37Z</time><name>PT4586</name></trkpt>
<trkpt lat="53.474644" lon="-1.736178"><ele>512</ele><time>2022-04-08T12:20:41Z</time><name>PT4587</name></trkpt>
<trkpt lat="53.474682" lon="-1.736208"><ele>512</ele><time>2022-04-08T12:20:45Z</time><name>PT4588</name></trkpt>
<trkpt lat="53.474724" lon="-1.736227"><ele>512</ele><time>2022-04-08T12:20:49Z</time><name>PT4589</name></trkpt>
<trkpt lat="53.474767" lon="-1.736260"><ele>511</ele><time>2022-04-08T12:20:53Z</time><name>PT4590</name></trkpt>
<trkpt lat="53.474807" lon="-1.736274"><ele>511</ele><time>2022-04-08T12:20:57Z</time><name>PT4591</name></trkpt>
<trkpt lat="53.474850" lon="-1.736297"><ele>511</ele><time>2022-04-08T12:21:01Z</time><name>PT4592</name></trkpt>
<trkpt lat="53.474899" lon="-1.736331"><ele>511</ele><time>2022-04-08T12:21:05Z</time><name>PT4593</name></trkpt>
<trkpt lat="53.474943" lon="-1.736361"><ele>511</ele><time>2022-04-08T12:21:09Z</time><name>PT4594</name></trkpt>
<trkpt lat="53.474982" lon="-1.736388"><ele>510</ele><time>2022-04-08T12:21:13Z</time><name>PT4595</name></trkpt>
<trkpt lat="53.475013" lon="-1.736402"><ele>510</ele><time>2022-04-08T12:21:17Z</time><name>PT4596</name></trkpt>
<trkpt lat="53.475054" lon="-1.736426"><ele>510</ele><time>2022-04-08T12:21:21Z</time><name>PT4597</name></trkpt>
<trkpt lat="53.475080" lon="-1.736457"><ele>510</ele><time>2022-04-08T12:21:25Z</time><name>PT4598</name></trkpt>
<trkpt lat="53.475116" lon="-1.736486"><ele>510</ele><time>2022-04-08T12:21:29Z</time><name>PT4599</name></trkpt>
<trkpt lat="53.475144" lon="-1.736506"><ele>510</ele><time>2022-04-08T12:21:33Z</time><name>PT4600</name></trkpt>
<trkpt lat="53.475157" lon="-1.736514"><ele>510</ele><time>2022-04-08T12:21:37Z</time><name>PT4601</name></trkpt>
<trkpt lat="53.475168" lon="-1.736527"><ele>509</ele><time>2022-04-08T12:21:41Z</time><name>PT4602</name></trkpt>
<trkpt lat="53.475203" lon="-1.736553"><ele>509</ele><time>2022-04-08T12:21:45Z</time><name>PT4603</name></trkpt>
<trkpt lat="53.475210" lon="-1.736558"><ele>509</ele><time>2022-04-08T12:21:46Z</time><name>PT4604</name></trkpt>
<trkpt lat="53.475216" lon="-1.736562"><ele>509</ele><time>2022-04-08T12:21:47Z</time><name>PT4605</name></trkpt>
<trkpt lat="53.475224" lon="-1.736574"><ele>509</ele><time>2022-04-08T12:21:48Z</time><name>PT4606</name></trkpt>
<trkpt lat="53.475231" lon="-1.736582"><ele>508</ele><time>2022-04-08T12:21:49Z</time><name>PT4607</name></trkpt>
<trkpt lat="53.475236" lon="-1.736587"><ele>508</ele><time>2022-04-08T12:21:50Z</time><name>PT4608</name></trkpt>
<trkpt lat="53.475240" lon="-1.736593"><ele>508</ele><time>2022-04-08T12:21:52Z</time><name>PT4609</name></trkpt>
<trkpt lat="53.475249" lon="-1.736609"><ele>508</ele><time>2022-04-08T12:21:52Z</time><name>PT4610</name></trkpt>
<trkpt lat="53.475257" lon="-1.736614"><ele>508</ele><time>2022-04-08T12:21:53Z</time><name>PT4611</name></trkpt>
<trkpt lat="53.475260" lon="-1.736617"><ele>508</ele><time>2022-04-08T12:21:54Z</time><name>PT4612</name></trkpt>
<trkpt lat="53.475260" lon="-1.736615"><ele>508</ele><time>2022-04-08T12:21:55Z</time><name>PT4613</name></trkpt>
<trkpt lat="53.475262" lon="-1.736614"><ele>508</ele><time>2022-04-08T12:21:56Z</time><name>PT4614</name></trkpt>
<trkpt lat="53.475261" lon="-1.736615"><ele>508</ele><time>2022-04-08T12:21:57Z</time><name>PT4615</name></trkpt>
<trkpt lat="53.475265" lon="-1.736616"><ele>507</ele><time>2022-04-08T12:21:58Z</time><name>PT4616</name></trkpt>
<trkpt lat="53.475264" lon="-1.736615"><ele>507</ele><time>2022-04-08T12:21:59Z</time><name>PT4617</name></trkpt>
<trkpt lat="53.475265" lon="-1.736610"><ele>507</ele><time>2022-04-08T12:22:00Z</time><name>PT4618</name></trkpt>
<trkpt lat="53.475267" lon="-1.736609"><ele>507</ele><time>2022-04-08T12:22:02Z</time><name>PT4619</name></trkpt>
<trkpt lat="53.475267" lon="-1.736609"><ele>507</ele><time>2022-04-08T12:22:02Z</time><name>PT4620</name></trkpt>
<trkpt lat="53.475272" lon="-1.736608"><ele>507</ele><time>2022-04-08T12:22:03Z</time><name>PT4621</name></trkpt>
<trkpt lat="53.475279" lon="-1.736615"><ele>507</ele><time>2022-04-08T12:22:04Z</time><name>PT4622</name></trkpt>
<trkpt lat="53.475286" lon="-1.736622"><ele>507</ele><time>2022-04-08T12:22:05Z</time><name>PT4623</name></trkpt>
<trkpt lat="53.475294" lon="-1.736631"><ele>507</ele><time>2022-04-08T12:22:06Z</time><name>PT4624</name></trkpt>
<trkpt lat="53.475305" lon="-1.736641"><ele>507</ele><time>2022-04-08T12:22:07Z</time><name>PT4625</name></trkpt>
<trkpt lat="53.475311" lon="-1.736650"><ele>507</ele><time>2022-04-08T12:22:08Z</time><name>PT4626</name></trkpt>
<trkpt lat="53.475316" lon="-1.736656"><ele>507</ele><time>2022-04-08T12:22:09Z</time><name>PT4627</name></trkpt>
<trkpt lat="53.475322" lon="-1.736673"><ele>507</ele><time>2022-04-08T12:22:10Z</time><name>PT4628</name></trkpt>
<trkpt lat="53.475330" lon="-1.736683"><ele>507</ele><time>2022-04-08T12:22:11Z</time><name>PT4629</name></trkpt>
<trkpt lat="53.475341" lon="-1.736690"><ele>507</ele><time>2022-04-08T12:22:12Z</time><name>PT4630</name></trkpt>
<trkpt lat="53.475349" lon="-1.736696"><ele>507</ele><time>2022-04-08T12:22:13Z</time><name>PT4631</name></trkpt>
<trkpt lat="53.475356" lon="-1.736705"><ele>507</ele><time>2022-04-08T12:22:14Z</time><name>PT4632</name></trkpt>
<trkpt lat="53.475361" lon="-1.736720"><ele>507</ele><time>2022-04-08T12:22:15Z</time><name>PT4633</name></trkpt>
<trkpt lat="53.475365" lon="-1.736734"><ele>507</ele><time>2022-04-08T12:22:16Z</time><name>PT4634</name></trkpt>
<trkpt lat="53.475373" lon="-1.736744"><ele>507</ele><time>2022-04-08T12:22:17Z</time><name>PT4635</name></trkpt>
<trkpt lat="53.475386" lon="-1.736750"><ele>508</ele><time>2022-04-08T12:22:18Z</time><name>PT4636</name></trkpt>
<trkpt lat="53.475397" lon="-1.736757"><ele>508</ele><time>2022-04-08T12:22:19Z</time><name>PT4637</name></trkpt>
<trkpt lat="53.475406" lon="-1.736763"><ele>507</ele><time>2022-04-08T12:22:20Z</time><name>PT4638</name></trkpt>
<trkpt lat="53.475417" lon="-1.736773"><ele>508</ele><time>2022-04-08T12:22:21Z</time><name>PT4639</name></trkpt>
<trkpt lat="53.475429" lon="-1.736785"><ele>508</ele><time>2022-04-08T12:22:22Z</time><name>PT4640</name></trkpt>
<trkpt lat="53.475439" lon="-1.736794"><ele>507</ele><time>2022-04-08T12:22:23Z</time><name>PT4641</name></trkpt>
<trkpt lat="53.475449" lon="-1.736802"><ele>508</ele><time>2022-04-08T12:22:24Z</time><name>PT4642</name></trkpt>
<trkpt lat="53.475461" lon="-1.736811"><ele>507</ele><time>2022-04-08T12:22:25Z</time><name>PT4643</name></trkpt>
<trkpt lat="53.475468" lon="-1.736819"><ele>507</ele><time>2022-04-08T12:22:26Z</time><name>PT4644</name></trkpt>
<trkpt lat="53.475472" lon="-1.736821"><ele>507</ele><time>2022-04-08T12:22:27Z</time><name>PT4645</name></trkpt>
<trkpt lat="53.475477" lon="-1.736824"><ele>507</ele><time>2022-04-08T12:22:28Z</time><name>PT4646</name></trkpt>
<trkpt lat="53.475485" lon="-1.736828"><ele>507</ele><time>2022-04-08T12:22:29Z</time><name>PT4647</name></trkpt>
<trkpt lat="53.475496" lon="-1.736836"><ele>507</ele><time>2022-04-08T12:22:30Z</time><name>PT4648</name></trkpt>
<trkpt lat="53.475506" lon="-1.736851"><ele>508</ele><time>2022-04-08T12:22:31Z</time><name>PT4649</name></trkpt>
<trkpt lat="53.475511" lon="-1.736872"><ele>507</ele><time>2022-04-08T12:22:32Z</time><name>PT4650</name></trkpt>
<trkpt lat="53.475516" lon="-1.736889"><ele>507</ele><time>2022-04-08T12:22:33Z</time><name>PT4651</name></trkpt>
<trkpt lat="53.475523" lon="-1.736903"><ele>507</ele><time>2022-04-08T12:22:34Z</time><name>PT4652</name></trkpt>
<trkpt lat="53.475529" lon="-1.736918"><ele>507</ele><time>2022-04-08T12:22:35Z</time><name>PT4653</name></trkpt>
<trkpt lat="53.475532" lon="-1.736934"><ele>507</ele><time>2022-04-08T12:22:36Z</time><name>PT4654</name></trkpt>
<trkpt lat="53.475537" lon="-1.736952"><ele>507</ele><time>2022-04-08T12:22:38Z</time><name>PT4655</name></trkpt>
<trkpt lat="53.475547" lon="-1.736963"><ele>507</ele><time>2022-04-08T12:22:38Z</time><name>PT4656</name></trkpt>
<trkpt lat="53.475556" lon="-1.736966"><ele>507</ele><time>2022-04-08T12:22:39Z</time><name>PT4657</name></trkpt>
<trkpt lat="53.475567" lon="-1.736974"><ele>507</ele><time>2022-04-08T12:22:40Z</time><name>PT4658</name></trkpt>
<trkpt lat="53.475577" lon="-1.736980"><ele>507</ele><time>2022-04-08T12:22:41Z</time><name>PT4659</name></trkpt>
<trkpt lat="53.475589" lon="-1.736990"><ele>507</ele><time>2022-04-08T12:22:42Z</time><name>PT4660</name></trkpt>
<trkpt lat="53.475603" lon="-1.737001"><ele>507</ele><time>2022-04-08T12:22:43Z</time><name>PT4661</name></trkpt>
<trkpt lat="53.475619" lon="-1.737006"><ele>507</ele><time>2022-04-08T12:22:44Z</time><name>PT4662</name></trkpt>
<trkpt lat="53.475631" lon="-1.737007"><ele>507</ele><time>2022-04-08T12:22:45Z</time><name>PT4663</name></trkpt>
<trkpt lat="53.475647" lon="-1.737009"><ele>507</ele><time>2022-04-08T12:22:46Z</time><name>PT4664</name></trkpt>
<trkpt lat="53.475661" lon="-1.737016"><ele>507</ele><time>2022-04-08T12:22:47Z</time><name>PT4665</name></trkpt>
<trkpt lat="53.475671" lon="-1.737026"><ele>507</ele><time>2022-04-08T12:22:48Z</time><name>PT4666</name></trkpt>
<trkpt lat="53.475680" lon="-1.737041"><ele>507</ele><time>2022-04-08T12:22:49Z</time><name>PT4667</name></trkpt>
<trkpt lat="53.475680" lon="-1.737049"><ele>507</ele><time>2022-04-08T12:22:50Z</time><name>PT4668</name></trkpt>
<trkpt lat="53.475682" lon="-1.737053"><ele>507</ele><time>2022-04-08T12:22:51Z</time><name>PT4669</name></trkpt>
<trkpt lat="53.475683" lon="-1.737053"><ele>507</ele><time>2022-04-08T12:22:52Z</time><name>PT4670</name></trkpt>
<trkpt lat="53.475684" lon="-1.737053"><ele>507</ele><time>2022-04-08T12:22:53Z</time><name>PT4671</name></trkpt>
<trkpt lat="53.475687" lon="-1.737061"><ele>507</ele><time>2022-04-08T12:23:14Z</time><name>PT4672</name></trkpt>
<trkpt lat="53.475700" lon="-1.737075"><ele>506</ele><time>2022-04-08T12:23:15Z</time><name>PT4673</name></trkpt>
<trkpt lat="53.475712" lon="-1.737079"><ele>506</ele><time>2022-04-08T12:23:16Z</time><name>PT4674</name></trkpt>
<trkpt lat="53.475727" lon="-1.737084"><ele>506</ele><time>2022-04-08T12:23:17Z</time><name>PT4675</name></trkpt>
<trkpt lat="53.475740" lon="-1.737091"><ele>506</ele><time>2022-04-08T12:23:18Z</time><name>PT4676</name></trkpt>
<trkpt lat="53.475753" lon="-1.737103"><ele>507</ele><time>2022-04-08T12:23:19Z</time><name>PT4677</name></trkpt>
<trkpt lat="53.475766" lon="-1.737112"><ele>507</ele><time>2022-04-08T12:23:20Z</time><name>PT4678</name></trkpt>
<trkpt lat="53.475778" lon="-1.737116"><ele>507</ele><time>2022-04-08T12:23:21Z</time><name>PT4679</name></trkpt>
<trkpt lat="53.475790" lon="-1.737121"><ele>507</ele><time>2022-04-08T12:23:22Z</time><name>PT4680</name></trkpt>
<trkpt lat="53.475799" lon="-1.737129"><ele>507</ele><time>2022-04-08T12:23:23Z</time><name>PT4681</name></trkpt>
<trkpt lat="53.475808" lon="-1.737141"><ele>507</ele><time>2022-04-08T12:23:24Z</time><name>PT4682</name></trkpt>
<trkpt lat="53.475817" lon="-1.737154"><ele>507</ele><time>2022-04-08T12:23:25Z</time><name>PT4683</name></trkpt>
<trkpt lat="53.475826" lon="-1.737166"><ele>507</ele><time>2022-04-08T12:23:26Z</time><name>PT4684</name></trkpt>
<trkpt lat="53.475835" lon="-1.737176"><ele>507</ele><time>2022-04-08T12:23:27Z</time><name>PT4685</name></trkpt>
<trkpt lat="53.475844" lon="-1.737186"><ele>507</ele><time>2022-04-08T12:23:28Z</time><name>PT4686</name></trkpt>
<trkpt lat="53.475854" lon="-1.737202"><ele>507</ele><time>2022-04-08T12:23:29Z</time><name>PT4687</name></trkpt>
<trkpt lat="53.475864" lon="-1.737214"><ele>506</ele><time>2022-04-08T12:23:30Z</time><name>PT4688</name></trkpt>
<trkpt lat="53.475872" lon="-1.737224"><ele>506</ele><time>2022-04-08T12:23:31Z</time><name>PT4689</name></trkpt>
<trkpt lat="53.475883" lon="-1.737236"><ele>506</ele><time>2022-04-08T12:23:32Z</time><name>PT4690</name></trkpt>
<trkpt lat="53.475893" lon="-1.737253"><ele>506</ele><time>2022-04-08T12:23:33Z</time><name>PT4691</name></trkpt>
<trkpt lat="53.475901" lon="-1.737268"><ele>506</ele><time>2022-04-08T12:23:34Z</time><name>PT4692</name></trkpt>
<trkpt lat="53.475907" lon="-1.737281"><ele>506</ele><time>2022-04-08T12:23:35Z</time><name>PT4693</name></trkpt>
<trkpt lat="53.475914" lon="-1.737294"><ele>506</ele><time>2022-04-08T12:23:36Z</time><name>PT4694</name></trkpt>
<trkpt lat="53.475922" lon="-1.737309"><ele>505</ele><time>2022-04-08T12:23:37Z</time><name>PT4695</name></trkpt>
<trkpt lat="53.475933" lon="-1.737314"><ele>505</ele><time>2022-04-08T12:23:38Z</time><name>PT4696</name></trkpt>
<trkpt lat="53.475945" lon="-1.737313"><ele>505</ele><time>2022-04-08T12:23:39Z</time><name>PT4697</name></trkpt>
<trkpt lat="53.475955" lon="-1.737321"><ele>505</ele><time>2022-04-08T12:23:40Z</time><name>PT4698</name></trkpt>
<trkpt lat="53.475963" lon="-1.737333"><ele>505</ele><time>2022-04-08T12:23:41Z</time><name>PT4699</name></trkpt>
<trkpt lat="53.475973" lon="-1.737349"><ele>505</ele><time>2022-04-08T12:23:42Z</time><name>PT4700</name></trkpt>
<trkpt lat="53.475983" lon="-1.737361"><ele>504</ele><time>2022-04-08T12:23:43Z</time><name>PT4701</name></trkpt>
<trkpt lat="53.475993" lon="-1.737372"><ele>505</ele><time>2022-04-08T12:23:44Z</time><name>PT4702</name></trkpt>
<trkpt lat="53.476006" lon="-1.737381"><ele>504</ele><time>2022-04-08T12:23:45Z</time><name>PT4703</name></trkpt>
<trkpt lat="53.476015" lon="-1.737390"><ele>504</ele><time>2022-04-08T12:23:46Z</time><name>PT4704</name></trkpt>
<trkpt lat="53.476027" lon="-1.737405"><ele>504</ele><time>2022-04-08T12:23:47Z</time><name>PT4705</name></trkpt>
<trkpt lat="53.476039" lon="-1.737418"><ele>504</ele><time>2022-04-08T12:23:48Z</time><name>PT4706</name></trkpt>
<trkpt lat="53.476049" lon="-1.737426"><ele>504</ele><time>2022-04-08T12:23:49Z</time><name>PT4707</name></trkpt>
<trkpt lat="53.476061" lon="-1.737437"><ele>504</ele><time>2022-04-08T12:23:50Z</time><name>PT4708</name></trkpt>
<trkpt lat="53.476072" lon="-1.737448"><ele>504</ele><time>2022-04-08T12:23:51Z</time><name>PT4709</name></trkpt>
<trkpt lat="53.476081" lon="-1.737457"><ele>504</ele><time>2022-04-08T12:23:52Z</time><name>PT4710</name></trkpt>
<trkpt lat="53.476091" lon="-1.737469"><ele>504</ele><time>2022-04-08T12:23:53Z</time><name>PT4711</name></trkpt>
<trkpt lat="53.476099" lon="-1.737481"><ele>504</ele><time>2022-04-08T12:23:54Z</time><name>PT4712</name></trkpt>
<trkpt lat="53.476108" lon="-1.737488"><ele>503</ele><time>2022-04-08T12:23:55Z</time><name>PT4713</name></trkpt>
<trkpt lat="53.476118" lon="-1.737494"><ele>503</ele><time>2022-04-08T12:23:56Z</time><name>PT4714</name></trkpt>
<trkpt lat="53.476129" lon="-1.737504"><ele>503</ele><time>2022-04-08T12:23:57Z</time><name>PT4715</name></trkpt>
<trkpt lat="53.476139" lon="-1.737514"><ele>503</ele><time>2022-04-08T12:23:58Z</time><name>PT4716</name></trkpt>
<trkpt lat="53.476150" lon="-1.737527"><ele>504</ele><time>2022-04-08T12:23:59Z</time><name>PT4717</name></trkpt>
<trkpt lat="53.476161" lon="-1.737539"><ele>503</ele><time>2022-04-08T12:24:00Z</time><name>PT4718</name></trkpt>
<trkpt lat="53.476170" lon="-1.737548"><ele>503</ele><time>2022-04-08T12:24:01Z</time><name>PT4719</name></trkpt>
<trkpt lat="53.476180" lon="-1.737558"><ele>503</ele><time>2022-04-08T12:24:02Z</time><name>PT4720</name></trkpt>
<trkpt lat="53.476190" lon="-1.737572"><ele>503</ele><time>2022-04-08T12:24:03Z</time><name>PT4721</name></trkpt>
<trkpt lat="53.476199" lon="-1.737587"><ele>503</ele><time>2022-04-08T12:24:04Z</time><name>PT4722</name></trkpt>
<trkpt lat="53.476207" lon="-1.737598"><ele>503</ele><time>2022-04-08T12:24:05Z</time><name>PT4723</name></trkpt>
<trkpt lat="53.476218" lon="-1.737611"><ele>503</ele><time>2022-04-08T12:24:06Z</time><name>PT4724</name></trkpt>
<trkpt lat="53.476227" lon="-1.737623"><ele>503</ele><time>2022-04-08T12:24:07Z</time><name>PT4725</name></trkpt>
<trkpt lat="53.476236" lon="-1.737634"><ele>502</ele><time>2022-04-08T12:24:08Z</time><name>PT4726</name></trkpt>
<trkpt lat="53.476246" lon="-1.737647"><ele>502</ele><time>2022-04-08T12:24:09Z</time><name>PT4727</name></trkpt>
<trkpt lat="53.476258" lon="-1.737658"><ele>503</ele><time>2022-04-08T12:24:10Z</time><name>PT4728</name></trkpt>
<trkpt lat="53.476265" lon="-1.737667"><ele>503</ele><time>2022-04-08T12:24:11Z</time><name>PT4729</name></trkpt>
<trkpt lat="53.476266" lon="-1.737693"><ele>502</ele><time>2022-04-08T12:24:15Z</time><name>PT4730</name></trkpt>
<trkpt lat="53.476266" lon="-1.737691"><ele>502</ele><time>2022-04-08T12:24:19Z</time><name>PT4731</name></trkpt>
<trkpt lat="53.476265" lon="-1.737695"><ele>502</ele><time>2022-04-08T12:24:31Z</time><name>PT4732</name></trkpt>
<trkpt lat="53.476293" lon="-1.737728"><ele>502</ele><time>2022-04-08T12:24:36Z</time><name>PT4733</name></trkpt>
<trkpt lat="53.476327" lon="-1.737741"><ele>501</ele><time>2022-04-08T12:24:39Z</time><name>PT4734</name></trkpt>
<trkpt lat="53.476365" lon="-1.737766"><ele>501</ele><time>2022-04-08T12:24:43Z</time><name>PT4735</name></trkpt>
<trkpt lat="53.476402" lon="-1.737798"><ele>501</ele><time>2022-04-08T12:24:47Z</time><name>PT4736</name></trkpt>
<trkpt lat="53.476443" lon="-1.737821"><ele>501</ele><time>2022-04-08T12:24:51Z</time><name>PT4737</name></trkpt>
<trkpt lat="53.476482" lon="-1.737861"><ele>500</ele><time>2022-04-08T12:24:55Z</time><name>PT4738</name></trkpt>
<trkpt lat="53.476521" lon="-1.737903"><ele>500</ele><time>2022-04-08T12:24:59Z</time><name>PT4739</name></trkpt>
<trkpt lat="53.476566" lon="-1.737937"><ele>500</ele><time>2022-04-08T12:25:03Z</time><name>PT4740</name></trkpt>
<trkpt lat="53.476607" lon="-1.737980"><ele>500</ele><time>2022-04-08T12:25:07Z</time><name>PT4741</name></trkpt>
<trkpt lat="53.476650" lon="-1.738015"><ele>500</ele><time>2022-04-08T12:25:11Z</time><name>PT4742</name></trkpt>
<trkpt lat="53.476667" lon="-1.738037"><ele>500</ele><time>2022-04-08T12:25:14Z</time><name>PT4743</name></trkpt>
<trkpt lat="53.476674" lon="-1.738046"><ele>500</ele><time>2022-04-08T12:25:15Z</time><name>PT4744</name></trkpt>
<trkpt lat="53.476684" lon="-1.738050"><ele>500</ele><time>2022-04-08T12:25:16Z</time><name>PT4745</name></trkpt>
<trkpt lat="53.476695" lon="-1.738063"><ele>499</ele><time>2022-04-08T12:25:17Z</time><name>PT4746</name></trkpt>
<trkpt lat="53.476704" lon="-1.738075"><ele>499</ele><time>2022-04-08T12:25:18Z</time><name>PT4747</name></trkpt>
<trkpt lat="53.476713" lon="-1.738087"><ele>499</ele><time>2022-04-08T12:25:19Z</time><name>PT4748</name></trkpt>
<trkpt lat="53.476719" lon="-1.738097"><ele>499</ele><time>2022-04-08T12:25:20Z</time><name>PT4749</name></trkpt>
<trkpt lat="53.476727" lon="-1.738110"><ele>499</ele><time>2022-04-08T12:25:21Z</time><name>PT4750</name></trkpt>
<trkpt lat="53.476735" lon="-1.738122"><ele>499</ele><time>2022-04-08T12:25:22Z</time><name>PT4751</name></trkpt>
<trkpt lat="53.476743" lon="-1.738131"><ele>499</ele><time>2022-04-08T12:25:23Z</time><name>PT4752</name></trkpt>
<trkpt lat="53.476752" lon="-1.738140"><ele>499</ele><time>2022-04-08T12:25:24Z</time><name>PT4753</name></trkpt>
<trkpt lat="53.476759" lon="-1.738144"><ele>498</ele><time>2022-04-08T12:25:25Z</time><name>PT4754</name></trkpt>
<trkpt lat="53.476765" lon="-1.738147"><ele>498</ele><time>2022-04-08T12:25:26Z</time><name>PT4755</name></trkpt>
<trkpt lat="53.476773" lon="-1.738157"><ele>498</ele><time>2022-04-08T12:25:27Z</time><name>PT4756</name></trkpt>
<trkpt lat="53.476781" lon="-1.738174"><ele>498</ele><time>2022-04-08T12:25:28Z</time><name>PT4757</name></trkpt>
<trkpt lat="53.476789" lon="-1.738188"><ele>498</ele><time>2022-04-08T12:25:29Z</time><name>PT4758</name></trkpt>
<trkpt lat="53.476797" lon="-1.738199"><ele>498</ele><time>2022-04-08T12:25:30Z</time><name>PT4759</name></trkpt>
<trkpt lat="53.476805" lon="-1.738214"><ele>498</ele><time>2022-04-08T12:25:31Z</time><name>PT4760</name></trkpt>
<trkpt lat="53.476812" lon="-1.738225"><ele>498</ele><time>2022-04-08T12:25:32Z</time><name>PT4761</name></trkpt>
<trkpt lat="53.476815" lon="-1.738237"><ele>498</ele><time>2022-04-08T12:25:33Z</time><name>PT4762</name></trkpt>
<trkpt lat="53.476819" lon="-1.738246"><ele>498</ele><time>2022-04-08T12:25:34Z</time><name>PT4763</name></trkpt>
<trkpt lat="53.476823" lon="-1.738252"><ele>498</ele><time>2022-04-08T12:25:35Z</time><name>PT4764</name></trkpt>
<trkpt lat="53.476828" lon="-1.738251"><ele>498</ele><time>2022-04-08T12:25:36Z</time><name>PT4765</name></trkpt>
<trkpt lat="53.476836" lon="-1.738242"><ele>497</ele><time>2022-04-08T12:25:37Z</time><name>PT4766</name></trkpt>
<trkpt lat="53.476842" lon="-1.738234"><ele>497</ele><time>2022-04-08T12:25:38Z</time><name>PT4767</name></trkpt>
<trkpt lat="53.476847" lon="-1.738230"><ele>497</ele><time>2022-04-08T12:25:39Z</time><name>PT4768</name></trkpt>
<trkpt lat="53.476844" lon="-1.738234"><ele>497</ele><time>2022-04-08T12:25:40Z</time><name>PT4769</name></trkpt>
<trkpt lat="53.476841" lon="-1.738235"><ele>497</ele><time>2022-04-08T12:25:41Z</time><name>PT4770</name></trkpt>
<trkpt lat="53.476840" lon="-1.738233"><ele>497</ele><time>2022-04-08T12:25:43Z</time><name>PT4771</name></trkpt>
<trkpt lat="53.476836" lon="-1.738235"><ele>497</ele><time>2022-04-08T12:25:45Z</time><name>PT4772</name></trkpt>
<trkpt lat="53.476841" lon="-1.738235"><ele>498</ele><time>2022-04-08T12:25:46Z</time><name>PT4773</name></trkpt>
<trkpt lat="53.476850" lon="-1.738236"><ele>498</ele><time>2022-04-08T12:25:47Z</time><name>PT4774</name></trkpt>
<trkpt lat="53.476850" lon="-1.738234"><ele>498</ele><time>2022-04-08T12:25:48Z</time><name>PT4775</name></trkpt>
<trkpt lat="53.476851" lon="-1.738236"><ele>497</ele><time>2022-04-08T12:25:49Z</time><name>PT4776</name></trkpt>
<trkpt lat="53.476851" lon="-1.738236"><ele>497</ele><time>2022-04-08T12:25:50Z</time><name>PT4777</name></trkpt>
<trkpt lat="53.476851" lon="-1.738235"><ele>497</ele><time>2022-04-08T12:25:51Z</time><name>PT4778</name></trkpt>
<trkpt lat="53.476852" lon="-1.738233"><ele>497</ele><time>2022-04-08T12:25:52Z</time><name>PT4779</name></trkpt>
<trkpt lat="53.476857" lon="-1.738235"><ele>497</ele><time>2022-04-08T12:27:17Z</time><name>PT4780</name></trkpt>
<trkpt lat="53.476858" lon="-1.738241"><ele>497</ele><time>2022-04-08T12:27:18Z</time><name>PT4781</name></trkpt>
<trkpt lat="53.476859" lon="-1.738238"><ele>497</ele><time>2022-04-08T12:27:19Z</time><name>PT4782</name></trkpt>
<trkpt lat="53.476859" lon="-1.738241"><ele>497</ele><time>2022-04-08T12:27:20Z</time><name>PT4783</name></trkpt>
<trkpt lat="53.476863" lon="-1.738245"><ele>497</ele><time>2022-04-08T12:27:21Z</time><name>PT4784</name></trkpt>
<trkpt lat="53.476867" lon="-1.738255"><ele>496</ele><time>2022-04-08T12:27:22Z</time><name>PT4785</name></trkpt>
<trkpt lat="53.476872" lon="-1.738262"><ele>496</ele><time>2022-04-08T12:27:23Z</time><name>PT4786</name></trkpt>
<trkpt lat="53.476875" lon="-1.738272"><ele>497</ele><time>2022-04-08T12:27:24Z</time><name>PT4787</name></trkpt>
<trkpt lat="53.476882" lon="-1.738278"><ele>497</ele><time>2022-04-08T12:27:25Z</time><name>PT4788</name></trkpt>
<trkpt lat="53.476889" lon="-1.738287"><ele>496</ele><time>2022-04-08T12:27:26Z</time><name>PT4789</name></trkpt>
<trkpt lat="53.476898" lon="-1.738297"><ele>496</ele><time>2022-04-08T12:27:27Z</time><name>PT4790</name></trkpt>
<trkpt lat="53.476904" lon="-1.738301"><ele>496</ele><time>2022-04-08T12:27:28Z</time><name>PT4791</name></trkpt>
<trkpt lat="53.476907" lon="-1.738303"><ele>496</ele><time>2022-04-08T12:27:29Z</time><name>PT4792</name></trkpt>
<trkpt lat="53.476911" lon="-1.738306"><ele>496</ele><time>2022-04-08T12:27:30Z</time><name>PT4793</name></trkpt>
<trkpt lat="53.476910" lon="-1.738308"><ele>497</ele><time>2022-04-08T12:27:32Z</time><name>PT4794</name></trkpt>
<trkpt lat="53.476921" lon="-1.738309"><ele>496</ele><time>2022-04-08T12:27:33Z</time><name>PT4795</name></trkpt>
<trkpt lat="53.476925" lon="-1.738305"><ele>496</ele><time>2022-04-08T12:27:34Z</time><name>PT4796</name></trkpt>
<trkpt lat="53.476933" lon="-1.738289"><ele>496</ele><time>2022-04-08T12:27:35Z</time><name>PT4797</name></trkpt>
<trkpt lat="53.476944" lon="-1.738283"><ele>496</ele><time>2022-04-08T12:27:36Z</time><name>PT4798</name></trkpt>
<trkpt lat="53.476953" lon="-1.738285"><ele>496</ele><time>2022-04-08T12:27:37Z</time><name>PT4799</name></trkpt>
<trkpt lat="53.476964" lon="-1.738289"><ele>496</ele><time>2022-04-08T12:27:38Z</time><name>PT4800</name></trkpt>
<trkpt lat="53.476976" lon="-1.738296"><ele>496</ele><time>2022-04-08T12:27:39Z</time><name>PT4801</name></trkpt>
<trkpt lat="53.476987" lon="-1.738301"><ele>496</ele><time>2022-04-08T12:27:40Z</time><name>PT4802</name></trkpt>
<trkpt lat="53.477000" lon="-1.738306"><ele>496</ele><time>2022-04-08T12:27:41Z</time><name>PT4803</name></trkpt>
<trkpt lat="53.477012" lon="-1.738316"><ele>496</ele><time>2022-04-08T12:27:42Z</time><name>PT4804</name></trkpt>
<trkpt lat="53.477019" lon="-1.738323"><ele>496</ele><time>2022-04-08T12:27:43Z</time><name>PT4805</name></trkpt>
<trkpt lat="53.477027" lon="-1.738331"><ele>496</ele><time>2022-04-08T12:27:44Z</time><name>PT4806</name></trkpt>
<trkpt lat="53.477035" lon="-1.738338"><ele>496</ele><time>2022-04-08T12:27:45Z</time><name>PT4807</name></trkpt>
<trkpt lat="53.477049" lon="-1.738345"><ele>496</ele><time>2022-04-08T12:27:46Z</time><name>PT4808</name></trkpt>
<trkpt lat="53.477056" lon="-1.738359"><ele>496</ele><time>2022-04-08T12:27:47Z</time><name>PT4809</name></trkpt>
<trkpt lat="53.477062" lon="-1.738374"><ele>496</ele><time>2022-04-08T12:27:48Z</time><name>PT4810</name></trkpt>
<trkpt lat="53.477069" lon="-1.738383"><ele>496</ele><time>2022-04-08T12:27:49Z</time><name>PT4811</name></trkpt>
<trkpt lat="53.477079" lon="-1.738379"><ele>496</ele><time>2022-04-08T12:27:50Z</time><name>PT4812</name></trkpt>
<trkpt lat="53.477094" lon="-1.738388"><ele>496</ele><time>2022-04-08T12:27:51Z</time><name>PT4813</name></trkpt>
<trkpt lat="53.477105" lon="-1.738399"><ele>496</ele><time>2022-04-08T12:27:52Z</time><name>PT4814</name></trkpt>
<trkpt lat="53.477114" lon="-1.738407"><ele>497</ele><time>2022-04-08T12:27:53Z</time><name>PT4815</name></trkpt>
<trkpt lat="53.477126" lon="-1.738412"><ele>497</ele><time>2022-04-08T12:27:54Z</time><name>PT4816</name></trkpt>
<trkpt lat="53.477137" lon="-1.738416"><ele>497</ele><time>2022-04-08T12:27:55Z</time><name>PT4817</name></trkpt>
<trkpt lat="53.477171" lon="-1.738436"><ele>497</ele><time>2022-04-08T12:27:59Z</time><name>PT4818</name></trkpt>
<trkpt lat="53.477212" lon="-1.738475"><ele>497</ele><time>2022-04-08T12:28:03Z</time><name>PT4819</name></trkpt>
<trkpt lat="53.477254" lon="-1.738484"><ele>497</ele><time>2022-04-08T12:28:07Z</time><name>PT4820</name></trkpt>
<trkpt lat="53.477260" lon="-1.738477"><ele>497</ele><time>2022-04-08T12:28:11Z</time><name>PT4821</name></trkpt>
<trkpt lat="53.477280" lon="-1.738486"><ele>497</ele><time>2022-04-08T12:28:15Z</time><name>PT4822</name></trkpt>
<trkpt lat="53.477324" lon="-1.738529"><ele>497</ele><time>2022-04-08T12:28:19Z</time><name>PT4823</name></trkpt>
<trkpt lat="53.477360" lon="-1.738584"><ele>497</ele><time>2022-04-08T12:28:23Z</time><name>PT4824</name></trkpt>
<trkpt lat="53.477391" lon="-1.738634"><ele>497</ele><time>2022-04-08T12:28:27Z</time><name>PT4825</name></trkpt>
<trkpt lat="53.477429" lon="-1.738675"><ele>496</ele><time>2022-04-08T12:28:31Z</time><name>PT4826</name></trkpt>
<trkpt lat="53.477457" lon="-1.738732"><ele>496</ele><time>2022-04-08T12:28:35Z</time><name>PT4827</name></trkpt>
<trkpt lat="53.477474" lon="-1.738776"><ele>496</ele><time>2022-04-08T12:28:39Z</time><name>PT4828</name></trkpt>
<trkpt lat="53.477513" lon="-1.738798"><ele>495</ele><time>2022-04-08T12:28:43Z</time><name>PT4829</name></trkpt>
<trkpt lat="53.477540" lon="-1.738853"><ele>495</ele><time>2022-04-08T12:28:47Z</time><name>PT4830</name></trkpt>
<trkpt lat="53.477549" lon="-1.738889"><ele>495</ele><time>2022-04-08T12:28:51Z</time><name>PT4831</name></trkpt>
<trkpt lat="53.477554" lon="-1.738920"><ele>494</ele><time>2022-04-08T12:28:55Z</time><name>PT4832</name></trkpt>
<trkpt lat="53.477565" lon="-1.738943"><ele>494</ele><time>2022-04-08T12:28:59Z</time><name>PT4833</name></trkpt>
<trkpt lat="53.477579" lon="-1.738999"><ele>495</ele><time>2022-04-08T12:29:03Z</time><name>PT4834</name></trkpt>
<trkpt lat="53.477596" lon="-1.739038"><ele>495</ele><time>2022-04-08T12:29:07Z</time><name>PT4835</name></trkpt>
<trkpt lat="53.477609" lon="-1.739050"><ele>495</ele><time>2022-04-08T12:29:11Z</time><name>PT4836</name></trkpt>
<trkpt lat="53.477651" lon="-1.739053"><ele>495</ele><time>2022-04-08T12:29:15Z</time><name>PT4837</name></trkpt>
<trkpt lat="53.477684" lon="-1.739084"><ele>495</ele><time>2022-04-08T12:29:19Z</time><name>PT4838</name></trkpt>
<trkpt lat="53.477711" lon="-1.739127"><ele>495</ele><time>2022-04-08T12:29:23Z</time><name>PT4839</name></trkpt>
<trkpt lat="53.477719" lon="-1.739167"><ele>494</ele><time>2022-04-08T12:29:27Z</time><name>PT4840</name></trkpt>
<trkpt lat="53.477701" lon="-1.739205"><ele>494</ele><time>2022-04-08T12:29:31Z</time><name>PT4841</name></trkpt>
<trkpt lat="53.477735" lon="-1.739247"><ele>494</ele><time>2022-04-08T12:29:35Z</time><name>PT4842</name></trkpt>
<trkpt lat="53.477765" lon="-1.739292"><ele>494</ele><time>2022-04-08T12:29:39Z</time><name>PT4843</name></trkpt>
<trkpt lat="53.477779" lon="-1.739308"><ele>494</ele><time>2022-04-08T12:29:43Z</time><name>PT4844</name></trkpt>
<trkpt lat="53.477772" lon="-1.739337"><ele>494</ele><time>2022-04-08T12:29:47Z</time><name>PT4845</name></trkpt>
<trkpt lat="53.477750" lon="-1.739362"><ele>493</ele><time>2022-04-08T12:29:51Z</time><name>PT4846</name></trkpt>
<trkpt lat="53.477747" lon="-1.739410"><ele>493</ele><time>2022-04-08T12:29:55Z</time><name>PT4847</name></trkpt>
<trkpt lat="53.477776" lon="-1.739430"><ele>493</ele><time>2022-04-08T12:29:59Z</time><name>PT4848</name></trkpt>
<trkpt lat="53.477812" lon="-1.739454"><ele>493</ele><time>2022-04-08T12:30:03Z</time><name>PT4849</name></trkpt>
<trkpt lat="53.477839" lon="-1.739501"><ele>493</ele><time>2022-04-08T12:30:07Z</time><name>PT4850</name></trkpt>
<trkpt lat="53.477868" lon="-1.739555"><ele>493</ele><time>2022-04-08T12:30:11Z</time><name>PT4851</name></trkpt>
<trkpt lat="53.477886" lon="-1.739586"><ele>493</ele><time>2022-04-08T12:30:15Z</time><name>PT4852</name></trkpt>
<trkpt lat="53.477890" lon="-1.739616"><ele>493</ele><time>2022-04-08T12:30:19Z</time><name>PT4853</name></trkpt>
<trkpt lat="53.477879" lon="-1.739629"><ele>493</ele><time>2022-04-08T12:30:23Z</time><name>PT4854</name></trkpt>
<trkpt lat="53.477855" lon="-1.739641"><ele>492</ele><time>2022-04-08T12:30:27Z</time><name>PT4855</name></trkpt>
<trkpt lat="53.477850" lon="-1.739688"><ele>492</ele><time>2022-04-08T12:30:31Z</time><name>PT4856</name></trkpt>
<trkpt lat="53.477880" lon="-1.739708"><ele>492</ele><time>2022-04-08T12:30:35Z</time><name>PT4857</name></trkpt>
<trkpt lat="53.477922" lon="-1.739713"><ele>493</ele><time>2022-04-08T12:30:39Z</time><name>PT4858</name></trkpt>
<trkpt lat="53.477968" lon="-1.739690"><ele>492</ele><time>2022-04-08T12:30:43Z</time><name>PT4859</name></trkpt>
<trkpt lat="53.478005" lon="-1.739710"><ele>493</ele><time>2022-04-08T12:30:47Z</time><name>PT4860</name></trkpt>
<trkpt lat="53.478048" lon="-1.739736"><ele>493</ele><time>2022-04-08T12:30:51Z</time><name>PT4861</name></trkpt>
<trkpt lat="53.478083" lon="-1.739781"><ele>493</ele><time>2022-04-08T12:30:55Z</time><name>PT4862</name></trkpt>
<trkpt lat="53.478120" lon="-1.739823"><ele>492</ele><time>2022-04-08T12:30:59Z</time><name>PT4863</name></trkpt>
<trkpt lat="53.478128" lon="-1.739900"><ele>493</ele><time>2022-04-08T12:31:03Z</time><name>PT4864</name></trkpt>
<trkpt lat="53.478155" lon="-1.739963"><ele>492</ele><time>2022-04-08T12:31:07Z</time><name>PT4865</name></trkpt>
<trkpt lat="53.478187" lon="-1.740002"><ele>493</ele><time>2022-04-08T12:31:11Z</time><name>PT4866</name></trkpt>
<trkpt lat="53.478217" lon="-1.740070"><ele>493</ele><time>2022-04-08T12:31:15Z</time><name>PT4867</name></trkpt>
<trkpt lat="53.478255" lon="-1.740122"><ele>492</ele><time>2022-04-08T12:31:19Z</time><name>PT4868</name></trkpt>
<trkpt lat="53.478289" lon="-1.740168"><ele>492</ele><time>2022-04-08T12:31:23Z</time><name>PT4869</name></trkpt>
<trkpt lat="53.478298" lon="-1.740178"><ele>492</ele><time>2022-04-08T12:31:27Z</time><name>PT4870</name></trkpt>
<trkpt lat="53.478323" lon="-1.740199"><ele>491</ele><time>2022-04-08T12:31:31Z</time><name>PT4871</name></trkpt>
<trkpt lat="53.478351" lon="-1.740222"><ele>491</ele><time>2022-04-08T12:31:35Z</time><name>PT4872</name></trkpt>
<trkpt lat="53.478382" lon="-1.740237"><ele>491</ele><time>2022-04-08T12:31:40Z</time><name>PT4873</name></trkpt>
<trkpt lat="53.478401" lon="-1.740277"><ele>491</ele><time>2022-04-08T12:31:43Z</time><name>PT4874</name></trkpt>
<trkpt lat="53.478421" lon="-1.740321"><ele>491</ele><time>2022-04-08T12:31:47Z</time><name>PT4875</name></trkpt>
<trkpt lat="53.478446" lon="-1.740369"><ele>491</ele><time>2022-04-08T12:31:51Z</time><name>PT4876</name></trkpt>
<trkpt lat="53.478458" lon="-1.740379"><ele>491</ele><time>2022-04-08T12:31:52Z</time><name>PT4877</name></trkpt>
<trkpt lat="53.478465" lon="-1.740394"><ele>491</ele><time>2022-04-08T12:31:53Z</time><name>PT4878</name></trkpt>
<trkpt lat="53.478473" lon="-1.740407"><ele>491</ele><time>2022-04-08T12:31:54Z</time><name>PT4879</name></trkpt>
<trkpt lat="53.478482" lon="-1.740420"><ele>491</ele><time>2022-04-08T12:31:55Z</time><name>PT4880</name></trkpt>
<trkpt lat="53.478489" lon="-1.740437"><ele>490</ele><time>2022-04-08T12:31:56Z</time><name>PT4881</name></trkpt>
<trkpt lat="53.478491" lon="-1.740451"><ele>490</ele><time>2022-04-08T12:31:57Z</time><name>PT4882</name></trkpt>
<trkpt lat="53.478495" lon="-1.740464"><ele>490</ele><time>2022-04-08T12:31:58Z</time><name>PT4883</name></trkpt>
<trkpt lat="53.478500" lon="-1.740481"><ele>489</ele><time>2022-04-08T12:31:59Z</time><name>PT4884</name></trkpt>
<trkpt lat="53.478502" lon="-1.740494"><ele>489</ele><time>2022-04-08T12:32:00Z</time><name>PT4885</name></trkpt>
<trkpt lat="53.478506" lon="-1.740505"><ele>489</ele><time>2022-04-08T12:32:01Z</time><name>PT4886</name></trkpt>
<trkpt lat="53.478508" lon="-1.740520"><ele>489</ele><time>2022-04-08T12:32:02Z</time><name>PT4887</name></trkpt>
<trkpt lat="53.478511" lon="-1.740534"><ele>489</ele><time>2022-04-08T12:32:03Z</time><name>PT4888</name></trkpt>
<trkpt lat="53.478514" lon="-1.740549"><ele>489</ele><time>2022-04-08T12:32:04Z</time><name>PT4889</name></trkpt>
<trkpt lat="53.478518" lon="-1.740568"><ele>489</ele><time>2022-04-08T12:32:05Z</time><name>PT4890</name></trkpt>
<trkpt lat="53.478522" lon="-1.740585"><ele>489</ele><time>2022-04-08T12:32:06Z</time><name>PT4891</name></trkpt>
<trkpt lat="53.478524" lon="-1.740604"><ele>489</ele><time>2022-04-08T12:32:07Z</time><name>PT4892</name></trkpt>
<trkpt lat="53.478524" lon="-1.740622"><ele>488</ele><time>2022-04-08T12:32:08Z</time><name>PT4893</name></trkpt>
<trkpt lat="53.478526" lon="-1.740639"><ele>488</ele><time>2022-04-08T12:32:09Z</time><name>PT4894</name></trkpt>
<trkpt lat="53.478530" lon="-1.740657"><ele>488</ele><time>2022-04-08T12:32:10Z</time><name>PT4895</name></trkpt>
<trkpt lat="53.478536" lon="-1.740674"><ele>488</ele><time>2022-04-08T12:32:11Z</time><name>PT4896</name></trkpt>
<trkpt lat="53.478540" lon="-1.740688"><ele>488</ele><time>2022-04-08T12:32:12Z</time><name>PT4897</name></trkpt>
<trkpt lat="53.478545" lon="-1.740702"><ele>489</ele><time>2022-04-08T12:32:13Z</time><name>PT4898</name></trkpt>
<trkpt lat="53.478551" lon="-1.740716"><ele>489</ele><time>2022-04-08T12:32:14Z</time><name>PT4899</name></trkpt>
<trkpt lat="53.478557" lon="-1.740730"><ele>489</ele><time>2022-04-08T12:32:15Z</time><name>PT4900</name></trkpt>
<trkpt lat="53.478558" lon="-1.740743"><ele>489</ele><time>2022-04-08T12:32:16Z</time><name>PT4901</name></trkpt>
<trkpt lat="53.478558" lon="-1.740758"><ele>488</ele><time>2022-04-08T12:32:17Z</time><name>PT4902</name></trkpt>
<trkpt lat="53.478560" lon="-1.740776"><ele>488</ele><time>2022-04-08T12:32:18Z</time><name>PT4903</name></trkpt>
<trkpt lat="53.478563" lon="-1.740792"><ele>489</ele><time>2022-04-08T12:32:19Z</time><name>PT4904</name></trkpt>
<trkpt lat="53.478567" lon="-1.740811"><ele>489</ele><time>2022-04-08T12:32:20Z</time><name>PT4905</name></trkpt>
<trkpt lat="53.478570" lon="-1.740824"><ele>489</ele><time>2022-04-08T12:32:21Z</time><name>PT4906</name></trkpt>
<trkpt lat="53.478573" lon="-1.740840"><ele>489</ele><time>2022-04-08T12:32:22Z</time><name>PT4907</name></trkpt>
<trkpt lat="53.478582" lon="-1.740854"><ele>489</ele><time>2022-04-08T12:32:23Z</time><name>PT4908</name></trkpt>
<trkpt lat="53.478589" lon="-1.740868"><ele>489</ele><time>2022-04-08T12:32:24Z</time><name>PT4909</name></trkpt>
<trkpt lat="53.478596" lon="-1.740878"><ele>489</ele><time>2022-04-08T12:32:25Z</time><name>PT4910</name></trkpt>
<trkpt lat="53.478605" lon="-1.740888"><ele>489</ele><time>2022-04-08T12:32:26Z</time><name>PT4911</name></trkpt>
<trkpt lat="53.478615" lon="-1.740896"><ele>489</ele><time>2022-04-08T12:32:27Z</time><name>PT4912</name></trkpt>
<trkpt lat="53.478625" lon="-1.740906"><ele>489</ele><time>2022-04-08T12:32:28Z</time><name>PT4913</name></trkpt>
<trkpt lat="53.478635" lon="-1.740914"><ele>490</ele><time>2022-04-08T12:32:29Z</time><name>PT4914</name></trkpt>
<trkpt lat="53.478643" lon="-1.740924"><ele>490</ele><time>2022-04-08T12:32:30Z</time><name>PT4915</name></trkpt>
<trkpt lat="53.478649" lon="-1.740931"><ele>490</ele><time>2022-04-08T12:32:31Z</time><name>PT4916</name></trkpt>
<trkpt lat="53.478655" lon="-1.740937"><ele>490</ele><time>2022-04-08T12:32:32Z</time><name>PT4917</name></trkpt>
<trkpt lat="53.478663" lon="-1.740942"><ele>490</ele><time>2022-04-08T12:32:33Z</time><name>PT4918</name></trkpt>
<trkpt lat="53.478671" lon="-1.740942"><ele>490</ele><time>2022-04-08T12:32:34Z</time><name>PT4919</name></trkpt>
<trkpt lat="53.478675" lon="-1.740943"><ele>490</ele><time>2022-04-08T12:32:35Z</time><name>PT4920</name></trkpt>
<trkpt lat="53.478675" lon="-1.740943"><ele>490</ele><time>2022-04-08T12:32:36Z</time><name>PT4921</name></trkpt>
<trkpt lat="53.478675" lon="-1.740943"><ele>490</ele><time>2022-04-08T12:32:37Z</time><name>PT4922</name></trkpt>
<trkpt lat="53.478671" lon="-1.740945"><ele>490</ele><time>2022-04-08T12:33:04Z</time><name>PT4923</name></trkpt>
<trkpt lat="53.478672" lon="-1.740947"><ele>490</ele><time>2022-04-08T12:33:05Z</time><name>PT4924</name></trkpt>
<trkpt lat="53.478673" lon="-1.740952"><ele>490</ele><time>2022-04-08T12:33:06Z</time><name>PT4925</name></trkpt>
<trkpt lat="53.478675" lon="-1.740955"><ele>490</ele><time>2022-04-08T12:33:07Z</time><name>PT4926</name></trkpt>
<trkpt lat="53.478673" lon="-1.740956"><ele>490</ele><time>2022-04-08T12:33:08Z</time><name>PT4927</name></trkpt>
<trkpt lat="53.478675" lon="-1.740949"><ele>490</ele><time>2022-04-08T12:33:09Z</time><name>PT4928</name></trkpt>
<trkpt lat="53.478673" lon="-1.740944"><ele>490</ele><time>2022-04-08T12:33:10Z</time><name>PT4929</name></trkpt>
<trkpt lat="53.478673" lon="-1.740940"><ele>490</ele><time>2022-04-08T12:33:11Z</time><name>PT4930</name></trkpt>
<trkpt lat="53.478671" lon="-1.740940"><ele>490</ele><time>2022-04-08T12:33:12Z</time><name>PT4931</name></trkpt>
<trkpt lat="53.478673" lon="-1.740949"><ele>490</ele><time>2022-04-08T12:33:16Z</time><name>PT4932</name></trkpt>
<trkpt lat="53.478671" lon="-1.740949"><ele>490</ele><time>2022-04-08T12:33:17Z</time><name>PT4933</name></trkpt>
<trkpt lat="53.478673" lon="-1.740950"><ele>490</ele><time>2022-04-08T12:33:18Z</time><name>PT4934</name></trkpt>
<trkpt lat="53.478672" lon="-1.740950"><ele>490</ele><time>2022-04-08T12:33:19Z</time><name>PT4935</name></trkpt>
<trkpt lat="53.478671" lon="-1.740949"><ele>490</ele><time>2022-04-08T12:33:20Z</time><name>PT4936</name></trkpt>
<trkpt lat="53.478667" lon="-1.740947"><ele>490</ele><time>2022-04-08T12:33:33Z</time><name>PT4937</name></trkpt>
<trkpt lat="53.478669" lon="-1.740947"><ele>490</ele><time>2022-04-08T12:33:34Z</time><name>PT4938</name></trkpt>
<trkpt lat="53.478668" lon="-1.740947"><ele>489</ele><time>2022-04-08T12:33:35Z</time><name>PT4939</name></trkpt>
<trkpt lat="53.478666" lon="-1.740945"><ele>489</ele><time>2022-04-08T12:33:36Z</time><name>PT4940</name></trkpt>
<trkpt lat="53.478664" lon="-1.740945"><ele>489</ele><time>2022-04-08T12:33:37Z</time><name>PT4941</name></trkpt>
<trkpt lat="53.478669" lon="-1.740945"><ele>490</ele><time>2022-04-08T12:33:47Z</time><name>PT4942</name></trkpt>
<trkpt lat="53.478671" lon="-1.740942"><ele>490</ele><time>2022-04-08T12:33:48Z</time><name>PT4943</name></trkpt>
<trkpt lat="53.478671" lon="-1.740936"><ele>490</ele><time>2022-04-08T12:33:49Z</time><name>PT4944</name></trkpt>
<trkpt lat="53.478678" lon="-1.740942"><ele>490</ele><time>2022-04-08T12:33:57Z</time><name>PT4945</name></trkpt>
<trkpt lat="53.478677" lon="-1.740941"><ele>490</ele><time>2022-04-08T12:33:58Z</time><name>PT4946</name></trkpt>
<trkpt lat="53.478677" lon="-1.740939"><ele>490</ele><time>2022-04-08T12:33:59Z</time><name>PT4947</name></trkpt>
<trkpt lat="53.478676" lon="-1.740939"><ele>490</ele><time>2022-04-08T12:34:00Z</time><name>PT4948</name></trkpt>
<trkpt lat="53.478681" lon="-1.740937"><ele>491</ele><time>2022-04-08T12:34:04Z</time><name>PT4949</name></trkpt>
<trkpt lat="53.478688" lon="-1.740931"><ele>491</ele><time>2022-04-08T12:34:05Z</time><name>PT4950</name></trkpt>
<trkpt lat="53.478696" lon="-1.740932"><ele>490</ele><time>2022-04-08T12:34:06Z</time><name>PT4951</name></trkpt>
<trkpt lat="53.478707" lon="-1.740930"><ele>491</ele><time>2022-04-08T12:34:07Z</time><name>PT4952</name></trkpt>
<trkpt lat="53.478719" lon="-1.740928"><ele>491</ele><time>2022-04-08T12:34:08Z</time><name>PT4953</name></trkpt>
<trkpt lat="53.478731" lon="-1.740926"><ele>491</ele><time>2022-04-08T12:34:09Z</time><name>PT4954</name></trkpt>
<trkpt lat="53.478742" lon="-1.740927"><ele>491</ele><time>2022-04-08T12:34:10Z</time><name>PT4955</name></trkpt>
<trkpt lat="53.478754" lon="-1.740923"><ele>491</ele><time>2022-04-08T12:34:11Z</time><name>PT4956</name></trkpt>
<trkpt lat="53.478766" lon="-1.740924"><ele>491</ele><time>2022-04-08T12:34:12Z</time><name>PT4957</name></trkpt>
<trkpt lat="53.478778" lon="-1.740923"><ele>490</ele><time>2022-04-08T12:34:13Z</time><name>PT4958</name></trkpt>
<trkpt lat="53.478787" lon="-1.740918"><ele>490</ele><time>2022-04-08T12:34:14Z</time><name>PT4959</name></trkpt>
<trkpt lat="53.478795" lon="-1.740915"><ele>490</ele><time>2022-04-08T12:34:15Z</time><name>PT4960</name></trkpt>
<trkpt lat="53.478803" lon="-1.740916"><ele>490</ele><time>2022-04-08T12:34:16Z</time><name>PT4961</name></trkpt>
<trkpt lat="53.478812" lon="-1.740922"><ele>489</ele><time>2022-04-08T12:34:17Z</time><name>PT4962</name></trkpt>
<trkpt lat="53.478821" lon="-1.740925"><ele>489</ele><time>2022-04-08T12:34:18Z</time><name>PT4963</name></trkpt>
<trkpt lat="53.478832" lon="-1.740928"><ele>489</ele><time>2022-04-08T12:34:19Z</time><name>PT4964</name></trkpt>
<trkpt lat="53.478847" lon="-1.740931"><ele>488</ele><time>2022-04-08T12:34:20Z</time><name>PT4965</name></trkpt>
<trkpt lat="53.478859" lon="-1.740933"><ele>488</ele><time>2022-04-08T12:34:21Z</time><name>PT4966</name></trkpt>
<trkpt lat="53.478869" lon="-1.740941"><ele>489</ele><time>2022-04-08T12:34:22Z</time><name>PT4967</name></trkpt>
<trkpt lat="53.478880" lon="-1.740950"><ele>489</ele><time>2022-04-08T12:34:23Z</time><name>PT4968</name></trkpt>
<trkpt lat="53.478890" lon="-1.740956"><ele>489</ele><time>2022-04-08T12:34:24Z</time><name>PT4969</name></trkpt>
<trkpt lat="53.478900" lon="-1.740957"><ele>488</ele><time>2022-04-08T12:34:25Z</time><name>PT4970</name></trkpt>
<trkpt lat="53.478911" lon="-1.740959"><ele>488</ele><time>2022-04-08T12:34:26Z</time><name>PT4971</name></trkpt>
<trkpt lat="53.478921" lon="-1.740964"><ele>488</ele><time>2022-04-08T12:34:27Z</time><name>PT4972</name></trkpt>
<trkpt lat="53.478932" lon="-1.740969"><ele>488</ele><time>2022-04-08T12:34:28Z</time><name>PT4973</name></trkpt>
<trkpt lat="53.478943" lon="-1.740972"><ele>488</ele><time>2022-04-08T12:34:29Z</time><name>PT4974</name></trkpt>
<trkpt lat="53.478956" lon="-1.740971"><ele>488</ele><time>2022-04-08T12:34:30Z</time><name>PT4975</name></trkpt>
<trkpt lat="53.478967" lon="-1.740967"><ele>488</ele><time>2022-04-08T12:34:31Z</time><name>PT4976</name></trkpt>
<trkpt lat="53.478974" lon="-1.740962"><ele>488</ele><time>2022-04-08T12:34:32Z</time><name>PT4977</name></trkpt>
<trkpt lat="53.478983" lon="-1.740958"><ele>488</ele><time>2022-04-08T12:34:33Z</time><name>PT4978</name></trkpt>
<trkpt lat="53.478995" lon="-1.740952"><ele>488</ele><time>2022-04-08T12:34:34Z</time><name>PT4979</name></trkpt>
<trkpt lat="53.479008" lon="-1.740950"><ele>488</ele><time>2022-04-08T12:34:35Z</time><name>PT4980</name></trkpt>
<trkpt lat="53.479020" lon="-1.740952"><ele>489</ele><time>2022-04-08T12:34:36Z</time><name>PT4981</name></trkpt>
<trkpt lat="53.479033" lon="-1.740952"><ele>489</ele><time>2022-04-08T12:34:37Z</time><name>PT4982</name></trkpt>
<trkpt lat="53.479045" lon="-1.740949"><ele>489</ele><time>2022-04-08T12:34:38Z</time><name>PT4983</name></trkpt>
<trkpt lat="53.479056" lon="-1.740942"><ele>489</ele><time>2022-04-08T12:34:39Z</time><name>PT4984</name></trkpt>
<trkpt lat="53.479066" lon="-1.740934"><ele>489</ele><time>2022-04-08T12:34:40Z</time><name>PT4985</name></trkpt>
<trkpt lat="53.479076" lon="-1.740926"><ele>489</ele><time>2022-04-08T12:34:41Z</time><name>PT4986</name></trkpt>
<trkpt lat="53.479088" lon="-1.740918"><ele>489</ele><time>2022-04-08T12:34:42Z</time><name>PT4987</name></trkpt>
<trkpt lat="53.479099" lon="-1.740912"><ele>488</ele><time>2022-04-08T12:34:43Z</time><name>PT4988</name></trkpt>
<trkpt lat="53.479109" lon="-1.740904"><ele>488</ele><time>2022-04-08T12:34:44Z</time><name>PT4989</name></trkpt>
<trkpt lat="53.479117" lon="-1.740897"><ele>488</ele><time>2022-04-08T12:34:45Z</time><name>PT4990</name></trkpt>
<trkpt lat="53.479128" lon="-1.740888"><ele>488</ele><time>2022-04-08T12:34:46Z</time><name>PT4991</name></trkpt>
<trkpt lat="53.479140" lon="-1.740881"><ele>488</ele><time>2022-04-08T12:34:47Z</time><name>PT4992</name></trkpt>
<trkpt lat="53.479154" lon="-1.740874"><ele>488</ele><time>2022-04-08T12:34:48Z</time><name>PT4993</name></trkpt>
<trkpt lat="53.479168" lon="-1.740864"><ele>488</ele><time>2022-04-08T12:34:49Z</time><name>PT4994</name></trkpt>
<trkpt lat="53.479179" lon="-1.740855"><ele>488</ele><time>2022-04-08T12:34:50Z</time><name>PT4995</name></trkpt>
<trkpt lat="53.479189" lon="-1.740843"><ele>489</ele><time>2022-04-08T12:34:51Z</time><name>PT4996</name></trkpt>
<trkpt lat="53.479198" lon="-1.740831"><ele>488</ele><time>2022-04-08T12:34:52Z</time><name>PT4997</name></trkpt>
<trkpt lat="53.479208" lon="-1.740825"><ele>488</ele><time>2022-04-08T12:34:53Z</time><name>PT4998</name></trkpt>
<trkpt lat="53.479221" lon="-1.740819"><ele>488</ele><time>2022-04-08T12:34:54Z</time><name>PT4999</name></trkpt>
<trkpt lat="53.479231" lon="-1.740809"><ele>488</ele><time>2022-04-08T12:34:55Z</time><name>PT5000</name></trkpt>
<trkpt lat="53.479239" lon="-1.740797"><ele>488</ele><time>2022-04-08T12:34:56Z</time><name>PT5001</name></trkpt>
<trkpt lat="53.479245" lon="-1.740782"><ele>488</ele><time>2022-04-08T12:34:57Z</time><name>PT5002</name></trkpt>
<trkpt lat="53.479254" lon="-1.740765"><ele>488</ele><time>2022-04-08T12:34:58Z</time><name>PT5003</name></trkpt>
<trkpt lat="53.479260" lon="-1.740753"><ele>488</ele><time>2022-04-08T12:34:59Z</time><name>PT5004</name></trkpt>
<trkpt lat="53.479268" lon="-1.740738"><ele>487</ele><time>2022-04-08T12:35:00Z</time><name>PT5005</name></trkpt>
<trkpt lat="53.479277" lon="-1.740725"><ele>487</ele><time>2022-04-08T12:35:01Z</time><name>PT5006</name></trkpt>
<trkpt lat="53.479288" lon="-1.740717"><ele>487</ele><time>2022-04-08T12:35:02Z</time><name>PT5007</name></trkpt>
<trkpt lat="53.479317" lon="-1.740663"><ele>487</ele><time>2022-04-08T12:35:06Z</time><name>PT5008</name></trkpt>
<trkpt lat="53.479357" lon="-1.740624"><ele>487</ele><time>2022-04-08T12:35:10Z</time><name>PT5009</name></trkpt>
<trkpt lat="53.479398" lon="-1.740612"><ele>486</ele><time>2022-04-08T12:35:14Z</time><name>PT5010</name></trkpt>
<trkpt lat="53.479445" lon="-1.740611"><ele>486</ele><time>2022-04-08T12:35:18Z</time><name>PT5011</name></trkpt>
<trkpt lat="53.479499" lon="-1.740597"><ele>487</ele><time>2022-04-08T12:35:22Z</time><name>PT5012</name></trkpt>
<trkpt lat="53.479541" lon="-1.740574"><ele>486</ele><time>2022-04-08T12:35:26Z</time><name>PT5013</name></trkpt>
<trkpt lat="53.479583" lon="-1.740547"><ele>485</ele><time>2022-04-08T12:35:30Z</time><name>PT5014</name></trkpt>
<trkpt lat="53.479630" lon="-1.740511"><ele>485</ele><time>2022-04-08T12:35:34Z</time><name>PT5015</name></trkpt>
<trkpt lat="53.479666" lon="-1.740470"><ele>485</ele><time>2022-04-08T12:35:38Z</time><name>PT5016</name></trkpt>
<trkpt lat="53.479705" lon="-1.740457"><ele>484</ele><time>2022-04-08T12:35:42Z</time><name>PT5017</name></trkpt>
<trkpt lat="53.479751" lon="-1.740448"><ele>483</ele><time>2022-04-08T12:35:46Z</time><name>PT5018</name></trkpt>
<trkpt lat="53.479797" lon="-1.740433"><ele>483</ele><time>2022-04-08T12:35:50Z</time><name>PT5019</name></trkpt>
<trkpt lat="53.479852" lon="-1.740420"><ele>484</ele><time>2022-04-08T12:35:54Z</time><name>PT5020</name></trkpt>
<trkpt lat="53.479893" lon="-1.740408"><ele>483</ele><time>2022-04-08T12:35:58Z</time><name>PT5021</name></trkpt>
<trkpt lat="53.479942" lon="-1.740389"><ele>483</ele><time>2022-04-08T12:36:02Z</time><name>PT5022</name></trkpt>
<trkpt lat="53.479989" lon="-1.740380"><ele>484</ele><time>2022-04-08T12:36:06Z</time><name>PT5023</name></trkpt>
<trkpt lat="53.480036" lon="-1.740392"><ele>484</ele><time>2022-04-08T12:36:10Z</time><name>PT5024</name></trkpt>
<trkpt lat="53.480081" lon="-1.740370"><ele>484</ele><time>2022-04-08T12:36:14Z</time><name>PT5025</name></trkpt>
<trkpt lat="53.480122" lon="-1.740358"><ele>483</ele><time>2022-04-08T12:36:18Z</time><name>PT5026</name></trkpt>
<trkpt lat="53.480145" lon="-1.740338"><ele>483</ele><time>2022-04-08T12:36:22Z</time><name>PT5027</name></trkpt>
<trkpt lat="53.480187" lon="-1.740319"><ele>483</ele><time>2022-04-08T12:36:26Z</time><name>PT5028</name></trkpt>
<trkpt lat="53.480233" lon="-1.740343"><ele>483</ele><time>2022-04-08T12:36:30Z</time><name>PT5029</name></trkpt>
<trkpt lat="53.480279" lon="-1.740339"><ele>483</ele><time>2022-04-08T12:36:34Z</time><name>PT5030</name></trkpt>
<trkpt lat="53.480326" lon="-1.740348"><ele>483</ele><time>2022-04-08T12:36:38Z</time><name>PT5031</name></trkpt>
<trkpt lat="53.480370" lon="-1.740377"><ele>483</ele><time>2022-04-08T12:36:42Z</time><name>PT5032</name></trkpt>
<trkpt lat="53.480416" lon="-1.740407"><ele>483</ele><time>2022-04-08T12:36:46Z</time><name>PT5033</name></trkpt>
<trkpt lat="53.480466" lon="-1.740437"><ele>483</ele><time>2022-04-08T12:36:50Z</time><name>PT5034</name></trkpt>
<trkpt lat="53.480482" lon="-1.740448"><ele>483</ele><time>2022-04-08T12:36:51Z</time><name>PT5035</name></trkpt>
<trkpt lat="53.480496" lon="-1.740457"><ele>483</ele><time>2022-04-08T12:36:53Z</time><name>PT5036</name></trkpt>
<trkpt lat="53.480507" lon="-1.740463"><ele>483</ele><time>2022-04-08T12:36:53Z</time><name>PT5037</name></trkpt>
<trkpt lat="53.480517" lon="-1.740473"><ele>482</ele><time>2022-04-08T12:36:54Z</time><name>PT5038</name></trkpt>
<trkpt lat="53.480524" lon="-1.740479"><ele>482</ele><time>2022-04-08T12:36:55Z</time><name>PT5039</name></trkpt>
<trkpt lat="53.480535" lon="-1.740491"><ele>482</ele><time>2022-04-08T12:36:56Z</time><name>PT5040</name></trkpt>
<trkpt lat="53.480543" lon="-1.740503"><ele>482</ele><time>2022-04-08T12:36:57Z</time><name>PT5041</name></trkpt>
<trkpt lat="53.480549" lon="-1.740517"><ele>482</ele><time>2022-04-08T12:36:58Z</time><name>PT5042</name></trkpt>
<trkpt lat="53.480557" lon="-1.740530"><ele>482</ele><time>2022-04-08T12:36:59Z</time><name>PT5043</name></trkpt>
<trkpt lat="53.480567" lon="-1.740545"><ele>482</ele><time>2022-04-08T12:37:00Z</time><name>PT5044</name></trkpt>
<trkpt lat="53.480576" lon="-1.740559"><ele>482</ele><time>2022-04-08T12:37:01Z</time><name>PT5045</name></trkpt>
<trkpt lat="53.480584" lon="-1.740570"><ele>482</ele><time>2022-04-08T12:37:03Z</time><name>PT5046</name></trkpt>
<trkpt lat="53.480590" lon="-1.740583"><ele>482</ele><time>2022-04-08T12:37:03Z</time><name>PT5047</name></trkpt>
<trkpt lat="53.480598" lon="-1.740600"><ele>482</ele><time>2022-04-08T12:37:04Z</time><name>PT5048</name></trkpt>
<trkpt lat="53.480607" lon="-1.740614"><ele>482</ele><time>2022-04-08T12:37:05Z</time><name>PT5049</name></trkpt>
<trkpt lat="53.480615" lon="-1.740628"><ele>482</ele><time>2022-04-08T12:37:06Z</time><name>PT5050</name></trkpt>
<trkpt lat="53.480625" lon="-1.740646"><ele>482</ele><time>2022-04-08T12:37:07Z</time><name>PT5051</name></trkpt>
<trkpt lat="53.480636" lon="-1.740661"><ele>482</ele><time>2022-04-08T12:37:08Z</time><name>PT5052</name></trkpt>
<trkpt lat="53.480647" lon="-1.740669"><ele>481</ele><time>2022-04-08T12:37:09Z</time><name>PT5053</name></trkpt>
<trkpt lat="53.480657" lon="-1.740674"><ele>481</ele><time>2022-04-08T12:37:10Z</time><name>PT5054</name></trkpt>
<trkpt lat="53.480670" lon="-1.740678"><ele>481</ele><time>2022-04-08T12:37:11Z</time><name>PT5055</name></trkpt>
<trkpt lat="53.480684" lon="-1.740684"><ele>481</ele><time>2022-04-08T12:37:12Z</time><name>PT5056</name></trkpt>
<trkpt lat="53.480694" lon="-1.740690"><ele>481</ele><time>2022-04-08T12:37:13Z</time><name>PT5057</name></trkpt>
<trkpt lat="53.480705" lon="-1.740701"><ele>481</ele><time>2022-04-08T12:37:14Z</time><name>PT5058</name></trkpt>
<trkpt lat="53.480715" lon="-1.740709"><ele>480</ele><time>2022-04-08T12:37:15Z</time><name>PT5059</name></trkpt>
<trkpt lat="53.480726" lon="-1.740713"><ele>480</ele><time>2022-04-08T12:37:16Z</time><name>PT5060</name></trkpt>
<trkpt lat="53.480740" lon="-1.740713"><ele>481</ele><time>2022-04-08T12:37:17Z</time><name>PT5061</name></trkpt>
<trkpt lat="53.480753" lon="-1.740717"><ele>480</ele><time>2022-04-08T12:37:18Z</time><name>PT5062</name></trkpt>
<trkpt lat="53.480764" lon="-1.740720"><ele>481</ele><time>2022-04-08T12:37:19Z</time><name>PT5063</name></trkpt>
<trkpt lat="53.480772" lon="-1.740718"><ele>480</ele><time>2022-04-08T12:37:20Z</time><name>PT5064</name></trkpt>
<trkpt lat="53.480787" lon="-1.740714"><ele>480</ele><time>2022-04-08T12:37:21Z</time><name>PT5065</name></trkpt>
<trkpt lat="53.480800" lon="-1.740712"><ele>480</ele><time>2022-04-08T12:37:22Z</time><name>PT5066</name></trkpt>
<trkpt lat="53.480809" lon="-1.740713"><ele>480</ele><time>2022-04-08T12:37:23Z</time><name>PT5067</name></trkpt>
<trkpt lat="53.480822" lon="-1.740711"><ele>480</ele><time>2022-04-08T12:37:24Z</time><name>PT5068</name></trkpt>
<trkpt lat="53.480836" lon="-1.740710"><ele>480</ele><time>2022-04-08T12:37:25Z</time><name>PT5069</name></trkpt>
<trkpt lat="53.480846" lon="-1.740710"><ele>481</ele><time>2022-04-08T12:37:26Z</time><name>PT5070</name></trkpt>
<trkpt lat="53.480858" lon="-1.740713"><ele>481</ele><time>2022-04-08T12:37:27Z</time><name>PT5071</name></trkpt>
<trkpt lat="53.480871" lon="-1.740718"><ele>481</ele><time>2022-04-08T12:37:28Z</time><name>PT5072</name></trkpt>
<trkpt lat="53.480881" lon="-1.740727"><ele>481</ele><time>2022-04-08T12:37:29Z</time><name>PT5073</name></trkpt>
<trkpt lat="53.480892" lon="-1.740742"><ele>481</ele><time>2022-04-08T12:37:30Z</time><name>PT5074</name></trkpt>
<trkpt lat="53.480901" lon="-1.740755"><ele>481</ele><time>2022-04-08T12:37:31Z</time><name>PT5075</name></trkpt>
<trkpt lat="53.480911" lon="-1.740766"><ele>481</ele><time>2022-04-08T12:37:32Z</time><name>PT5076</name></trkpt>
<trkpt lat="53.480921" lon="-1.740778"><ele>481</ele><time>2022-04-08T12:37:33Z</time><name>PT5077</name></trkpt>
<trkpt lat="53.480930" lon="-1.740786"><ele>481</ele><time>2022-04-08T12:37:34Z</time><name>PT5078</name></trkpt>
<trkpt lat="53.480940" lon="-1.740791"><ele>481</ele><time>2022-04-08T12:37:35Z</time><name>PT5079</name></trkpt>
<trkpt lat="53.480950" lon="-1.740797"><ele>480</ele><time>2022-04-08T12:37:36Z</time><name>PT5080</name></trkpt>
<trkpt lat="53.480960" lon="-1.740806"><ele>480</ele><time>2022-04-08T12:37:37Z</time><name>PT5081</name></trkpt>
<trkpt lat="53.480971" lon="-1.740816"><ele>480</ele><time>2022-04-08T12:37:38Z</time><name>PT5082</name></trkpt>
<trkpt lat="53.480979" lon="-1.740825"><ele>480</ele><time>2022-04-08T12:37:39Z</time><name>PT5083</name></trkpt>
<trkpt lat="53.480987" lon="-1.740831"><ele>480</ele><time>2022-04-08T12:37:40Z</time><name>PT5084</name></trkpt>
<trkpt lat="53.480997" lon="-1.740839"><ele>479</ele><time>2022-04-08T12:37:41Z</time><name>PT5085</name></trkpt>
<trkpt lat="53.481007" lon="-1.740844"><ele>479</ele><time>2022-04-08T12:37:42Z</time><name>PT5086</name></trkpt>
<trkpt lat="53.481014" lon="-1.740847"><ele>478</ele><time>2022-04-08T12:37:43Z</time><name>PT5087</name></trkpt>
<trkpt lat="53.481024" lon="-1.740852"><ele>478</ele><time>2022-04-08T12:37:44Z</time><name>PT5088</name></trkpt>
<trkpt lat="53.481036" lon="-1.740860"><ele>478</ele><time>2022-04-08T12:37:45Z</time><name>PT5089</name></trkpt>
<trkpt lat="53.481048" lon="-1.740868"><ele>478</ele><time>2022-04-08T12:37:46Z</time><name>PT5090</name></trkpt>
<trkpt lat="53.481060" lon="-1.740877"><ele>478</ele><time>2022-04-08T12:37:47Z</time><name>PT5091</name></trkpt>
<trkpt lat="53.481072" lon="-1.740883"><ele>479</ele><time>2022-04-08T12:37:48Z</time><name>PT5092</name></trkpt>
<trkpt lat="53.481082" lon="-1.740888"><ele>479</ele><time>2022-04-08T12:37:49Z</time><name>PT5093</name></trkpt>
<trkpt lat="53.481096" lon="-1.740893"><ele>479</ele><time>2022-04-08T12:37:50Z</time><name>PT5094</name></trkpt>
<trkpt lat="53.481108" lon="-1.740897"><ele>478</ele><time>2022-04-08T12:37:51Z</time><name>PT5095</name></trkpt>
<trkpt lat="53.481118" lon="-1.740898"><ele>478</ele><time>2022-04-08T12:37:52Z</time><name>PT5096</name></trkpt>
<trkpt lat="53.481131" lon="-1.740899"><ele>478</ele><time>2022-04-08T12:37:53Z</time><name>PT5097</name></trkpt>
<trkpt lat="53.481144" lon="-1.740900"><ele>478</ele><time>2022-04-08T12:37:54Z</time><name>PT5098</name></trkpt>
<trkpt lat="53.481154" lon="-1.740902"><ele>478</ele><time>2022-04-08T12:37:55Z</time><name>PT5099</name></trkpt>
<trkpt lat="53.481165" lon="-1.740904"><ele>478</ele><time>2022-04-08T12:37:56Z</time><name>PT5100</name></trkpt>
<trkpt lat="53.481177" lon="-1.740904"><ele>477</ele><time>2022-04-08T12:37:57Z</time><name>PT5101</name></trkpt>
<trkpt lat="53.481190" lon="-1.740905"><ele>477</ele><time>2022-04-08T12:37:58Z</time><name>PT5102</name></trkpt>
<trkpt lat="53.481205" lon="-1.740903"><ele>477</ele><time>2022-04-08T12:37:59Z</time><name>PT5103</name></trkpt>
<trkpt lat="53.481215" lon="-1.740903"><ele>478</ele><time>2022-04-08T12:38:00Z</time><name>PT5104</name></trkpt>
<trkpt lat="53.481225" lon="-1.740901"><ele>477</ele><time>2022-04-08T12:38:01Z</time><name>PT5105</name></trkpt>
<trkpt lat="53.481234" lon="-1.740899"><ele>476</ele><time>2022-04-08T12:38:02Z</time><name>PT5106</name></trkpt>
<trkpt lat="53.481244" lon="-1.740894"><ele>476</ele><time>2022-04-08T12:38:03Z</time><name>PT5107</name></trkpt>
<trkpt lat="53.481254" lon="-1.740889"><ele>476</ele><time>2022-04-08T12:38:04Z</time><name>PT5108</name></trkpt>
<trkpt lat="53.481267" lon="-1.740887"><ele>476</ele><time>2022-04-08T12:38:05Z</time><name>PT5109</name></trkpt>
<trkpt lat="53.481280" lon="-1.740886"><ele>476</ele><time>2022-04-08T12:38:06Z</time><name>PT5110</name></trkpt>
<trkpt lat="53.481291" lon="-1.740889"><ele>476</ele><time>2022-04-08T12:38:07Z</time><name>PT5111</name></trkpt>
<trkpt lat="53.481305" lon="-1.740893"><ele>476</ele><time>2022-04-08T12:38:08Z</time><name>PT5112</name></trkpt>
<trkpt lat="53.481318" lon="-1.740901"><ele>476</ele><time>2022-04-08T12:38:09Z</time><name>PT5113</name></trkpt>
<trkpt lat="53.481331" lon="-1.740910"><ele>476</ele><time>2022-04-08T12:38:10Z</time><name>PT5114</name></trkpt>
<trkpt lat="53.481343" lon="-1.740919"><ele>476</ele><time>2022-04-08T12:38:11Z</time><name>PT5115</name></trkpt>
<trkpt lat="53.481354" lon="-1.740923"><ele>476</ele><time>2022-04-08T12:38:12Z</time><name>PT5116</name></trkpt>
<trkpt lat="53.481363" lon="-1.740923"><ele>475</ele><time>2022-04-08T12:38:13Z</time><name>PT5117</name></trkpt>
<trkpt lat="53.481375" lon="-1.740924"><ele>475</ele><time>2022-04-08T12:38:14Z</time><name>PT5118</name></trkpt>
<trkpt lat="53.481387" lon="-1.740923"><ele>474</ele><time>2022-04-08T12:38:15Z</time><name>PT5119</name></trkpt>
<trkpt lat="53.481400" lon="-1.740923"><ele>474</ele><time>2022-04-08T12:38:16Z</time><name>PT5120</name></trkpt>
<trkpt lat="53.481414" lon="-1.740921"><ele>473</ele><time>2022-04-08T12:38:17Z</time><name>PT5121</name></trkpt>
<trkpt lat="53.481425" lon="-1.740920"><ele>474</ele><time>2022-04-08T12:38:18Z</time><name>PT5122</name></trkpt>
<trkpt lat="53.481436" lon="-1.740917"><ele>474</ele><time>2022-04-08T12:38:19Z</time><name>PT5123</name></trkpt>
<trkpt lat="53.481450" lon="-1.740908"><ele>474</ele><time>2022-04-08T12:38:20Z</time><name>PT5124</name></trkpt>
<trkpt lat="53.481459" lon="-1.740900"><ele>473</ele><time>2022-04-08T12:38:21Z</time><name>PT5125</name></trkpt>
<trkpt lat="53.481470" lon="-1.740892"><ele>473</ele><time>2022-04-08T12:38:22Z</time><name>PT5126</name></trkpt>
<trkpt lat="53.481483" lon="-1.740891"><ele>473</ele><time>2022-04-08T12:38:23Z</time><name>PT5127</name></trkpt>
<trkpt lat="53.481495" lon="-1.740892"><ele>473</ele><time>2022-04-08T12:38:24Z</time><name>PT5128</name></trkpt>
<trkpt lat="53.481506" lon="-1.740894"><ele>473</ele><time>2022-04-08T12:38:25Z</time><name>PT5129</name></trkpt>
<trkpt lat="53.481517" lon="-1.740896"><ele>473</ele><time>2022-04-08T12:38:26Z</time><name>PT5130</name></trkpt>
<trkpt lat="53.481531" lon="-1.740900"><ele>473</ele><time>2022-04-08T12:38:27Z</time><name>PT5131</name></trkpt>
<trkpt lat="53.481545" lon="-1.740903"><ele>472</ele><time>2022-04-08T12:38:28Z</time><name>PT5132</name></trkpt>
<trkpt lat="53.481555" lon="-1.740904"><ele>472</ele><time>2022-04-08T12:38:29Z</time><name>PT5133</name></trkpt>
<trkpt lat="53.481565" lon="-1.740908"><ele>471</ele><time>2022-04-08T12:38:30Z</time><name>PT5134</name></trkpt>
<trkpt lat="53.481577" lon="-1.740916"><ele>471</ele><time>2022-04-08T12:38:31Z</time><name>PT5135</name></trkpt>
<trkpt lat="53.481590" lon="-1.740921"><ele>470</ele><time>2022-04-08T12:38:32Z</time><name>PT5136</name></trkpt>
<trkpt lat="53.481601" lon="-1.740927"><ele>470</ele><time>2022-04-08T12:38:33Z</time><name>PT5137</name></trkpt>
<trkpt lat="53.481611" lon="-1.740930"><ele>470</ele><time>2022-04-08T12:38:34Z</time><name>PT5138</name></trkpt>
<trkpt lat="53.481621" lon="-1.740931"><ele>470</ele><time>2022-04-08T12:38:35Z</time><name>PT5139</name></trkpt>
<trkpt lat="53.481625" lon="-1.740931"><ele>470</ele><time>2022-04-08T12:38:36Z</time><name>PT5140</name></trkpt>
<trkpt lat="53.481627" lon="-1.740932"><ele>471</ele><time>2022-04-08T12:38:37Z</time><name>PT5141</name></trkpt>
<trkpt lat="53.481628" lon="-1.740932"><ele>471</ele><time>2022-04-08T12:38:38Z</time><name>PT5142</name></trkpt>
<trkpt lat="53.481628" lon="-1.740934"><ele>471</ele><time>2022-04-08T12:38:44Z</time><name>PT5143</name></trkpt>
<trkpt lat="53.481636" lon="-1.740937"><ele>471</ele><time>2022-04-08T12:38:45Z</time><name>PT5144</name></trkpt>
<trkpt lat="53.481644" lon="-1.740939"><ele>470</ele><time>2022-04-08T12:38:46Z</time><name>PT5145</name></trkpt>
<trkpt lat="53.481651" lon="-1.740941"><ele>470</ele><time>2022-04-08T12:38:47Z</time><name>PT5146</name></trkpt>
<trkpt lat="53.481661" lon="-1.740946"><ele>470</ele><time>2022-04-08T12:38:48Z</time><name>PT5147</name></trkpt>
<trkpt lat="53.481674" lon="-1.740953"><ele>470</ele><time>2022-04-08T12:38:49Z</time><name>PT5148</name></trkpt>
<trkpt lat="53.481710" lon="-1.740978"><ele>470</ele><time>2022-04-08T12:38:52Z</time><name>PT5149</name></trkpt>
<trkpt lat="53.481755" lon="-1.741009"><ele>469</ele><time>2022-04-08T12:38:56Z</time><name>PT5150</name></trkpt>
<trkpt lat="53.481801" lon="-1.741029"><ele>469</ele><time>2022-04-08T12:39:00Z</time><name>PT5151</name></trkpt>
<trkpt lat="53.481845" lon="-1.741075"><ele>469</ele><time>2022-04-08T12:39:04Z</time><name>PT5152</name></trkpt>
<trkpt lat="53.481896" lon="-1.741099"><ele>469</ele><time>2022-04-08T12:39:08Z</time><name>PT5153</name></trkpt>
<trkpt lat="53.481946" lon="-1.741110"><ele>468</ele><time>2022-04-08T12:39:12Z</time><name>PT5154</name></trkpt>
<trkpt lat="53.481989" lon="-1.741070"><ele>468</ele><time>2022-04-08T12:39:16Z</time><name>PT5155</name></trkpt>
<trkpt lat="53.482032" lon="-1.741096"><ele>468</ele><time>2022-04-08T12:39:20Z</time><name>PT5156</name></trkpt>
<trkpt lat="53.482081" lon="-1.741106"><ele>467</ele><time>2022-04-08T12:39:24Z</time><name>PT5157</name></trkpt>
<trkpt lat="53.482130" lon="-1.741077"><ele>467</ele><time>2022-04-08T12:39:28Z</time><name>PT5158</name></trkpt>
<trkpt lat="53.482176" lon="-1.741049"><ele>466</ele><time>2022-04-08T12:39:32Z</time><name>PT5159</name></trkpt>
<trkpt lat="53.482220" lon="-1.741014"><ele>466</ele><time>2022-04-08T12:39:36Z</time><name>PT5160</name></trkpt>
<trkpt lat="53.482268" lon="-1.740991"><ele>466</ele><time>2022-04-08T12:39:40Z</time><name>PT5161</name></trkpt>
<trkpt lat="53.482318" lon="-1.741006"><ele>465</ele><time>2022-04-08T12:39:44Z</time><name>PT5162</name></trkpt>
<trkpt lat="53.482369" lon="-1.741027"><ele>465</ele><time>2022-04-08T12:39:48Z</time><name>PT5163</name></trkpt>
<trkpt lat="53.482406" lon="-1.741080"><ele>465</ele><time>2022-04-08T12:39:52Z</time><name>PT5164</name></trkpt>
<trkpt lat="53.482447" lon="-1.741122"><ele>466</ele><time>2022-04-08T12:39:56Z</time><name>PT5165</name></trkpt>
<trkpt lat="53.482490" lon="-1.741164"><ele>466</ele><time>2022-04-08T12:40:00Z</time><name>PT5166</name></trkpt>
<trkpt lat="53.482534" lon="-1.741196"><ele>465</ele><time>2022-04-08T12:40:04Z</time><name>PT5167</name></trkpt>
<trkpt lat="53.482573" lon="-1.741247"><ele>465</ele><time>2022-04-08T12:40:08Z</time><name>PT5168</name></trkpt>
<trkpt lat="53.482614" lon="-1.741271"><ele>464</ele><time>2022-04-08T12:40:12Z</time><name>PT5169</name></trkpt>
<trkpt lat="53.482656" lon="-1.741303"><ele>464</ele><time>2022-04-08T12:40:16Z</time><name>PT5170</name></trkpt>
<trkpt lat="53.482699" lon="-1.741323"><ele>463</ele><time>2022-04-08T12:40:20Z</time><name>PT5171</name></trkpt>
<trkpt lat="53.482745" lon="-1.741329"><ele>464</ele><time>2022-04-08T12:40:24Z</time><name>PT5172</name></trkpt>
<trkpt lat="53.482758" lon="-1.741355"><ele>464</ele><time>2022-04-08T12:40:28Z</time><name>PT5173</name></trkpt>
<trkpt lat="53.482758" lon="-1.741355"><ele>464</ele><time>2022-04-08T12:40:32Z</time><name>PT5174</name></trkpt>
<trkpt lat="53.482764" lon="-1.741356"><ele>464</ele><time>2022-04-08T12:40:48Z</time><name>PT5175</name></trkpt>
<trkpt lat="53.482808" lon="-1.741389"><ele>463</ele><time>2022-04-08T12:40:52Z</time><name>PT5176</name></trkpt>
<trkpt lat="53.482858" lon="-1.741426"><ele>463</ele><time>2022-04-08T12:40:56Z</time><name>PT5177</name></trkpt>
<trkpt lat="53.482893" lon="-1.741459"><ele>463</ele><time>2022-04-08T12:40:59Z</time><name>PT5178</name></trkpt>
<trkpt lat="53.482901" lon="-1.741470"><ele>463</ele><time>2022-04-08T12:41:00Z</time><name>PT5179</name></trkpt>
<trkpt lat="53.482908" lon="-1.741479"><ele>463</ele><time>2022-04-08T12:41:01Z</time><name>PT5180</name></trkpt>
<trkpt lat="53.482917" lon="-1.741487"><ele>463</ele><time>2022-04-08T12:41:02Z</time><name>PT5181</name></trkpt>
<trkpt lat="53.482928" lon="-1.741498"><ele>463</ele><time>2022-04-08T12:41:03Z</time><name>PT5182</name></trkpt>
<trkpt lat="53.482939" lon="-1.741508"><ele>463</ele><time>2022-04-08T12:41:04Z</time><name>PT5183</name></trkpt>
<trkpt lat="53.482948" lon="-1.741516"><ele>463</ele><time>2022-04-08T12:41:05Z</time><name>PT5184</name></trkpt>
<trkpt lat="53.482957" lon="-1.741523"><ele>463</ele><time>2022-04-08T12:41:06Z</time><name>PT5185</name></trkpt>
<trkpt lat="53.482970" lon="-1.741529"><ele>463</ele><time>2022-04-08T12:41:07Z</time><name>PT5186</name></trkpt>
<trkpt lat="53.482982" lon="-1.741533"><ele>462</ele><time>2022-04-08T12:41:08Z</time><name>PT5187</name></trkpt>
<trkpt lat="53.482993" lon="-1.741537"><ele>463</ele><time>2022-04-08T12:41:09Z</time><name>PT5188</name></trkpt>
<trkpt lat="53.483006" lon="-1.741539"><ele>463</ele><time>2022-04-08T12:41:10Z</time><name>PT5189</name></trkpt>
<trkpt lat="53.483019" lon="-1.741539"><ele>463</ele><time>2022-04-08T12:41:11Z</time><name>PT5190</name></trkpt>
<trkpt lat="53.483031" lon="-1.741535"><ele>462</ele><time>2022-04-08T12:41:12Z</time><name>PT5191</name></trkpt>
<trkpt lat="53.483043" lon="-1.741534"><ele>463</ele><time>2022-04-08T12:41:13Z</time><name>PT5192</name></trkpt>
<trkpt lat="53.483054" lon="-1.741535"><ele>463</ele><time>2022-04-08T12:41:14Z</time><name>PT5193</name></trkpt>
<trkpt lat="53.483066" lon="-1.741541"><ele>463</ele><time>2022-04-08T12:41:15Z</time><name>PT5194</name></trkpt>
<trkpt lat="53.483076" lon="-1.741548"><ele>463</ele><time>2022-04-08T12:41:16Z</time><name>PT5195</name></trkpt>
<trkpt lat="53.483085" lon="-1.741556"><ele>464</ele><time>2022-04-08T12:41:17Z</time><name>PT5196</name></trkpt>
<trkpt lat="53.483093" lon="-1.741569"><ele>464</ele><time>2022-04-08T12:41:18Z</time><name>PT5197</name></trkpt>
<trkpt lat="53.483104" lon="-1.741578"><ele>463</ele><time>2022-04-08T12:41:19Z</time><name>PT5198</name></trkpt>
<trkpt lat="53.483117" lon="-1.741583"><ele>463</ele><time>2022-04-08T12:41:20Z</time><name>PT5199</name></trkpt>
<trkpt lat="53.483129" lon="-1.741585"><ele>463</ele><time>2022-04-08T12:41:21Z</time><name>PT5200</name></trkpt>
<trkpt lat="53.483137" lon="-1.741583"><ele>463</ele><time>2022-04-08T12:41:22Z</time><name>PT5201</name></trkpt>
<trkpt lat="53.483148" lon="-1.741581"><ele>463</ele><time>2022-04-08T12:41:24Z</time><name>PT5202</name></trkpt>
<trkpt lat="53.483160" lon="-1.741581"><ele>463</ele><time>2022-04-08T12:41:24Z</time><name>PT5203</name></trkpt>
<trkpt lat="53.483173" lon="-1.741583"><ele>463</ele><time>2022-04-08T12:41:25Z</time><name>PT5204</name></trkpt>
<trkpt lat="53.483183" lon="-1.741587"><ele>463</ele><time>2022-04-08T12:41:26Z</time><name>PT5205</name></trkpt>
<trkpt lat="53.483190" lon="-1.741595"><ele>462</ele><time>2022-04-08T12:41:27Z</time><name>PT5206</name></trkpt>
<trkpt lat="53.483201" lon="-1.741607"><ele>462</ele><time>2022-04-08T12:41:28Z</time><name>PT5207</name></trkpt>
<trkpt lat="53.483208" lon="-1.741618"><ele>462</ele><time>2022-04-08T12:41:29Z</time><name>PT5208</name></trkpt>
<trkpt lat="53.483218" lon="-1.741629"><ele>461</ele><time>2022-04-08T12:41:30Z</time><name>PT5209</name></trkpt>
<trkpt lat="53.483228" lon="-1.741638"><ele>461</ele><time>2022-04-08T12:41:31Z</time><name>PT5210</name></trkpt>
<trkpt lat="53.483240" lon="-1.741649"><ele>461</ele><time>2022-04-08T12:41:32Z</time><name>PT5211</name></trkpt>
<trkpt lat="53.483253" lon="-1.741660"><ele>461</ele><time>2022-04-08T12:41:33Z</time><name>PT5212</name></trkpt>
<trkpt lat="53.483267" lon="-1.741667"><ele>461</ele><time>2022-04-08T12:41:34Z</time><name>PT5213</name></trkpt>
<trkpt lat="53.483279" lon="-1.741671"><ele>461</ele><time>2022-04-08T12:41:35Z</time><name>PT5214</name></trkpt>
<trkpt lat="53.483291" lon="-1.741677"><ele>461</ele><time>2022-04-08T12:41:36Z</time><name>PT5215</name></trkpt>
<trkpt lat="53.483304" lon="-1.741682"><ele>460</ele><time>2022-04-08T12:41:37Z</time><name>PT5216</name></trkpt>
<trkpt lat="53.483315" lon="-1.741687"><ele>460</ele><time>2022-04-08T12:41:38Z</time><name>PT5217</name></trkpt>
<trkpt lat="53.483326" lon="-1.741695"><ele>460</ele><time>2022-04-08T12:41:39Z</time><name>PT5218</name></trkpt>
<trkpt lat="53.483338" lon="-1.741703"><ele>460</ele><time>2022-04-08T12:41:40Z</time><name>PT5219</name></trkpt>
<trkpt lat="53.483353" lon="-1.741709"><ele>460</ele><time>2022-04-08T12:41:41Z</time><name>PT5220</name></trkpt>
<trkpt lat="53.483366" lon="-1.741713"><ele>459</ele><time>2022-04-08T12:41:42Z</time><name>PT5221</name></trkpt>
<trkpt lat="53.483378" lon="-1.741716"><ele>459</ele><time>2022-04-08T12:41:43Z</time><name>PT5222</name></trkpt>
<trkpt lat="53.483390" lon="-1.741714"><ele>459</ele><time>2022-04-08T12:41:44Z</time><name>PT5223</name></trkpt>
<trkpt lat="53.483402" lon="-1.741720"><ele>459</ele><time>2022-04-08T12:41:45Z</time><name>PT5224</name></trkpt>
<trkpt lat="53.483413" lon="-1.741728"><ele>459</ele><time>2022-04-08T12:41:46Z</time><name>PT5225</name></trkpt>
<trkpt lat="53.483425" lon="-1.741737"><ele>459</ele><time>2022-04-08T12:41:47Z</time><name>PT5226</name></trkpt>
<trkpt lat="53.483437" lon="-1.741747"><ele>459</ele><time>2022-04-08T12:41:48Z</time><name>PT5227</name></trkpt>
<trkpt lat="53.483450" lon="-1.741754"><ele>459</ele><time>2022-04-08T12:41:49Z</time><name>PT5228</name></trkpt>
<trkpt lat="53.483460" lon="-1.741764"><ele>459</ele><time>2022-04-08T12:41:50Z</time><name>PT5229</name></trkpt>
<trkpt lat="53.483470" lon="-1.741767"><ele>458</ele><time>2022-04-08T12:41:51Z</time><name>PT5230</name></trkpt>
<trkpt lat="53.483481" lon="-1.741770"><ele>458</ele><time>2022-04-08T12:41:52Z</time><name>PT5231</name></trkpt>
<trkpt lat="53.483496" lon="-1.741772"><ele>458</ele><time>2022-04-08T12:41:53Z</time><name>PT5232</name></trkpt>
<trkpt lat="53.483507" lon="-1.741778"><ele>458</ele><time>2022-04-08T12:41:54Z</time><name>PT5233</name></trkpt>
<trkpt lat="53.483518" lon="-1.741786"><ele>458</ele><time>2022-04-08T12:41:55Z</time><name>PT5234</name></trkpt>
<trkpt lat="53.483528" lon="-1.741793"><ele>457</ele><time>2022-04-08T12:41:56Z</time><name>PT5235</name></trkpt>
<trkpt lat="53.483541" lon="-1.741794"><ele>457</ele><time>2022-04-08T12:41:57Z</time><name>PT5236</name></trkpt>
<trkpt lat="53.483551" lon="-1.741791"><ele>457</ele><time>2022-04-08T12:41:58Z</time><name>PT5237</name></trkpt>
<trkpt lat="53.483562" lon="-1.741788"><ele>457</ele><time>2022-04-08T12:41:59Z</time><name>PT5238</name></trkpt>
<trkpt lat="53.483571" lon="-1.741782"><ele>457</ele><time>2022-04-08T12:42:00Z</time><name>PT5239</name></trkpt>
<trkpt lat="53.483580" lon="-1.741778"><ele>457</ele><time>2022-04-08T12:42:01Z</time><name>PT5240</name></trkpt>
<trkpt lat="53.483589" lon="-1.741771"><ele>456</ele><time>2022-04-08T12:42:02Z</time><name>PT5241</name></trkpt>
<trkpt lat="53.483598" lon="-1.741765"><ele>456</ele><time>2022-04-08T12:42:03Z</time><name>PT5242</name></trkpt>
<trkpt lat="53.483606" lon="-1.741759"><ele>456</ele><time>2022-04-08T12:42:04Z</time><name>PT5243</name></trkpt>
<trkpt lat="53.483615" lon="-1.741754"><ele>456</ele><time>2022-04-08T12:42:05Z</time><name>PT5244</name></trkpt>
<trkpt lat="53.483622" lon="-1.741752"><ele>456</ele><time>2022-04-08T12:42:06Z</time><name>PT5245</name></trkpt>
<trkpt lat="53.483630" lon="-1.741749"><ele>456</ele><time>2022-04-08T12:42:07Z</time><name>PT5246</name></trkpt>
<trkpt lat="53.483640" lon="-1.741746"><ele>456</ele><time>2022-04-08T12:42:08Z</time><name>PT5247</name></trkpt>
<trkpt lat="53.483644" lon="-1.741742"><ele>456</ele><time>2022-04-08T12:42:09Z</time><name>PT5248</name></trkpt>
<trkpt lat="53.483652" lon="-1.741737"><ele>456</ele><time>2022-04-08T12:42:10Z</time><name>PT5249</name></trkpt>
<trkpt lat="53.483662" lon="-1.741731"><ele>455</ele><time>2022-04-08T12:42:11Z</time><name>PT5250</name></trkpt>
<trkpt lat="53.483673" lon="-1.741726"><ele>455</ele><time>2022-04-08T12:42:12Z</time><name>PT5251</name></trkpt>
<trkpt lat="53.483681" lon="-1.741722"><ele>455</ele><time>2022-04-08T12:42:13Z</time><name>PT5252</name></trkpt>
<trkpt lat="53.483683" lon="-1.741725"><ele>454</ele><time>2022-04-08T12:42:14Z</time><name>PT5253</name></trkpt>
<trkpt lat="53.483692" lon="-1.741722"><ele>454</ele><time>2022-04-08T12:42:15Z</time><name>PT5254</name></trkpt>
<trkpt lat="53.483704" lon="-1.741714"><ele>454</ele><time>2022-04-08T12:42:16Z</time><name>PT5255</name></trkpt>
<trkpt lat="53.483707" lon="-1.741715"><ele>453</ele><time>2022-04-08T12:42:17Z</time><name>PT5256</name></trkpt>
<trkpt lat="53.483712" lon="-1.741712"><ele>452</ele><time>2022-04-08T12:42:18Z</time><name>PT5257</name></trkpt>
<trkpt lat="53.483723" lon="-1.741707"><ele>452</ele><time>2022-04-08T12:42:19Z</time><name>PT5258</name></trkpt>
<trkpt lat="53.483730" lon="-1.741699"><ele>452</ele><time>2022-04-08T12:42:20Z</time><name>PT5259</name></trkpt>
<trkpt lat="53.483738" lon="-1.741692"><ele>452</ele><time>2022-04-08T12:42:21Z</time><name>PT5260</name></trkpt>
<trkpt lat="53.483749" lon="-1.741686"><ele>452</ele><time>2022-04-08T12:42:22Z</time><name>PT5261</name></trkpt>
<trkpt lat="53.483761" lon="-1.741675"><ele>452</ele><time>2022-04-08T12:42:23Z</time><name>PT5262</name></trkpt>
<trkpt lat="53.483772" lon="-1.741662"><ele>452</ele><time>2022-04-08T12:42:24Z</time><name>PT5263</name></trkpt>
<trkpt lat="53.483779" lon="-1.741652"><ele>452</ele><time>2022-04-08T12:42:25Z</time><name>PT5264</name></trkpt>
<trkpt lat="53.483786" lon="-1.741646"><ele>452</ele><time>2022-04-08T12:42:26Z</time><name>PT5265</name></trkpt>
<trkpt lat="53.483795" lon="-1.741642"><ele>452</ele><time>2022-04-08T12:42:27Z</time><name>PT5266</name></trkpt>
<trkpt lat="53.483806" lon="-1.741634"><ele>451</ele><time>2022-04-08T12:42:28Z</time><name>PT5267</name></trkpt>
<trkpt lat="53.483817" lon="-1.741624"><ele>451</ele><time>2022-04-08T12:42:29Z</time><name>PT5268</name></trkpt>
<trkpt lat="53.483827" lon="-1.741614"><ele>451</ele><time>2022-04-08T12:42:30Z</time><name>PT5269</name></trkpt>
<trkpt lat="53.483836" lon="-1.741605"><ele>451</ele><time>2022-04-08T12:42:31Z</time><name>PT5270</name></trkpt>
<trkpt lat="53.483845" lon="-1.741596"><ele>450</ele><time>2022-04-08T12:42:32Z</time><name>PT5271</name></trkpt>
<trkpt lat="53.483856" lon="-1.741586"><ele>450</ele><time>2022-04-08T12:42:33Z</time><name>PT5272</name></trkpt>
<trkpt lat="53.483866" lon="-1.741582"><ele>450</ele><time>2022-04-08T12:42:34Z</time><name>PT5273</name></trkpt>
<trkpt lat="53.483880" lon="-1.741584"><ele>449</ele><time>2022-04-08T12:42:35Z</time><name>PT5274</name></trkpt>
<trkpt lat="53.483894" lon="-1.741588"><ele>450</ele><time>2022-04-08T12:42:36Z</time><name>PT5275</name></trkpt>
<trkpt lat="53.483905" lon="-1.741593"><ele>450</ele><time>2022-04-08T12:42:37Z</time><name>PT5276</name></trkpt>
<trkpt lat="53.483914" lon="-1.741595"><ele>449</ele><time>2022-04-08T12:42:38Z</time><name>PT5277</name></trkpt>
<trkpt lat="53.483920" lon="-1.741591"><ele>449</ele><time>2022-04-08T12:42:39Z</time><name>PT5278</name></trkpt>
<trkpt lat="53.483926" lon="-1.741581"><ele>449</ele><time>2022-04-08T12:42:40Z</time><name>PT5279</name></trkpt>
<trkpt lat="53.483932" lon="-1.741565"><ele>449</ele><time>2022-04-08T12:42:41Z</time><name>PT5280</name></trkpt>
<trkpt lat="53.483940" lon="-1.741554"><ele>449</ele><time>2022-04-08T12:42:42Z</time><name>PT5281</name></trkpt>
<trkpt lat="53.483954" lon="-1.741547"><ele>449</ele><time>2022-04-08T12:42:44Z</time><name>PT5282</name></trkpt>
<trkpt lat="53.483968" lon="-1.741541"><ele>449</ele><time>2022-04-08T12:42:44Z</time><name>PT5283</name></trkpt>
<trkpt lat="53.483980" lon="-1.741539"><ele>449</ele><time>2022-04-08T12:42:45Z</time><name>PT5284</name></trkpt>
<trkpt lat="53.483991" lon="-1.741538"><ele>449</ele><time>2022-04-08T12:42:46Z</time><name>PT5285</name></trkpt>
<trkpt lat="53.484004" lon="-1.741541"><ele>449</ele><time>2022-04-08T12:42:47Z</time><name>PT5286</name></trkpt>
<trkpt lat="53.484014" lon="-1.741553"><ele>449</ele><time>2022-04-08T12:42:48Z</time><name>PT5287</name></trkpt>
<trkpt lat="53.484023" lon="-1.741567"><ele>449</ele><time>2022-04-08T12:42:49Z</time><name>PT5288</name></trkpt>
<trkpt lat="53.484028" lon="-1.741582"><ele>449</ele><time>2022-04-08T12:42:50Z</time><name>PT5289</name></trkpt>
<trkpt lat="53.484034" lon="-1.741594"><ele>449</ele><time>2022-04-08T12:42:51Z</time><name>PT5290</name></trkpt>
<trkpt lat="53.484040" lon="-1.741602"><ele>449</ele><time>2022-04-08T12:42:52Z</time><name>PT5291</name></trkpt>
<trkpt lat="53.484050" lon="-1.741611"><ele>449</ele><time>2022-04-08T12:42:53Z</time><name>PT5292</name></trkpt>
<trkpt lat="53.484055" lon="-1.741620"><ele>449</ele><time>2022-04-08T12:42:54Z</time><name>PT5293</name></trkpt>
<trkpt lat="53.484059" lon="-1.741629"><ele>449</ele><time>2022-04-08T12:42:55Z</time><name>PT5294</name></trkpt>
<trkpt lat="53.484063" lon="-1.741643"><ele>449</ele><time>2022-04-08T12:42:56Z</time><name>PT5295</name></trkpt>
<trkpt lat="53.484067" lon="-1.741660"><ele>450</ele><time>2022-04-08T12:42:57Z</time><name>PT5296</name></trkpt>
<trkpt lat="53.484074" lon="-1.741668"><ele>449</ele><time>2022-04-08T12:42:58Z</time><name>PT5297</name></trkpt>
<trkpt lat="53.484082" lon="-1.741670"><ele>449</ele><time>2022-04-08T12:42:59Z</time><name>PT5298</name></trkpt>
<trkpt lat="53.484092" lon="-1.741669"><ele>449</ele><time>2022-04-08T12:43:00Z</time><name>PT5299</name></trkpt>
<trkpt lat="53.484100" lon="-1.741665"><ele>449</ele><time>2022-04-08T12:43:01Z</time><name>PT5300</name></trkpt>
<trkpt lat="53.484110" lon="-1.741666"><ele>449</ele><time>2022-04-08T12:43:03Z</time><name>PT5301</name></trkpt>
<trkpt lat="53.484109" lon="-1.741665"><ele>446</ele><time>2022-04-08T12:43:03Z</time><name>PT5302</name></trkpt>
<trkpt lat="53.484117" lon="-1.741665"><ele>446</ele><time>2022-04-08T12:43:04Z</time><name>PT5303</name></trkpt>
<trkpt lat="53.484125" lon="-1.741667"><ele>445</ele><time>2022-04-08T12:43:05Z</time><name>PT5304</name></trkpt>
<trkpt lat="53.484134" lon="-1.741671"><ele>445</ele><time>2022-04-08T12:43:06Z</time><name>PT5305</name></trkpt>
<trkpt lat="53.484145" lon="-1.741674"><ele>445</ele><time>2022-04-08T12:43:07Z</time><name>PT5306</name></trkpt>
<trkpt lat="53.484155" lon="-1.741678"><ele>445</ele><time>2022-04-08T12:43:08Z</time><name>PT5307</name></trkpt>
<trkpt lat="53.484166" lon="-1.741679"><ele>445</ele><time>2022-04-08T12:43:09Z</time><name>PT5308</name></trkpt>
<trkpt lat="53.484176" lon="-1.741678"><ele>445</ele><time>2022-04-08T12:43:10Z</time><name>PT5309</name></trkpt>
<trkpt lat="53.484187" lon="-1.741676"><ele>445</ele><time>2022-04-08T12:43:11Z</time><name>PT5310</name></trkpt>
<trkpt lat="53.484197" lon="-1.741671"><ele>445</ele><time>2022-04-08T12:43:12Z</time><name>PT5311</name></trkpt>
<trkpt lat="53.484208" lon="-1.741666"><ele>444</ele><time>2022-04-08T12:43:13Z</time><name>PT5312</name></trkpt>
<trkpt lat="53.484217" lon="-1.741661"><ele>444</ele><time>2022-04-08T12:43:14Z</time><name>PT5313</name></trkpt>
<trkpt lat="53.484224" lon="-1.741656"><ele>444</ele><time>2022-04-08T12:43:15Z</time><name>PT5314</name></trkpt>
<trkpt lat="53.484232" lon="-1.741653"><ele>444</ele><time>2022-04-08T12:43:16Z</time><name>PT5315</name></trkpt>
<trkpt lat="53.484241" lon="-1.741649"><ele>444</ele><time>2022-04-08T12:43:17Z</time><name>PT5316</name></trkpt>
<trkpt lat="53.484252" lon="-1.741647"><ele>444</ele><time>2022-04-08T12:43:19Z</time><name>PT5317</name></trkpt>
<trkpt lat="53.484260" lon="-1.741648"><ele>444</ele><time>2022-04-08T12:43:19Z</time><name>PT5318</name></trkpt>
<trkpt lat="53.484270" lon="-1.741652"><ele>444</ele><time>2022-04-08T12:43:20Z</time><name>PT5319</name></trkpt>
<trkpt lat="53.484282" lon="-1.741653"><ele>444</ele><time>2022-04-08T12:43:21Z</time><name>PT5320</name></trkpt>
<trkpt lat="53.484295" lon="-1.741647"><ele>444</ele><time>2022-04-08T12:43:22Z</time><name>PT5321</name></trkpt>
<trkpt lat="53.484305" lon="-1.741640"><ele>444</ele><time>2022-04-08T12:43:23Z</time><name>PT5322</name></trkpt>
<trkpt lat="53.484317" lon="-1.741636"><ele>444</ele><time>2022-04-08T12:43:24Z</time><name>PT5323</name></trkpt>
<trkpt lat="53.484329" lon="-1.741632"><ele>443</ele><time>2022-04-08T12:43:25Z</time><name>PT5324</name></trkpt>
<trkpt lat="53.484341" lon="-1.741628"><ele>443</ele><time>2022-04-08T12:43:26Z</time><name>PT5325</name></trkpt>
<trkpt lat="53.484351" lon="-1.741628"><ele>443</ele><time>2022-04-08T12:43:27Z</time><name>PT5326</name></trkpt>
<trkpt lat="53.484359" lon="-1.741630"><ele>443</ele><time>2022-04-08T12:43:29Z</time><name>PT5327</name></trkpt>
<trkpt lat="53.484368" lon="-1.741633"><ele>443</ele><time>2022-04-08T12:43:29Z</time><name>PT5328</name></trkpt>
<trkpt lat="53.484377" lon="-1.741631"><ele>443</ele><time>2022-04-08T12:43:30Z</time><name>PT5329</name></trkpt>
<trkpt lat="53.484386" lon="-1.741633"><ele>443</ele><time>2022-04-08T12:43:31Z</time><name>PT5330</name></trkpt>
<trkpt lat="53.484396" lon="-1.741638"><ele>443</ele><time>2022-04-08T12:43:32Z</time><name>PT5331</name></trkpt>
<trkpt lat="53.484406" lon="-1.741638"><ele>443</ele><time>2022-04-08T12:43:33Z</time><name>PT5332</name></trkpt>
<trkpt lat="53.484415" lon="-1.741636"><ele>443</ele><time>2022-04-08T12:43:34Z</time><name>PT5333</name></trkpt>
<trkpt lat="53.484424" lon="-1.741634"><ele>443</ele><time>2022-04-08T12:43:35Z</time><name>PT5334</name></trkpt>
<trkpt lat="53.484435" lon="-1.741632"><ele>443</ele><time>2022-04-08T12:43:36Z</time><name>PT5335</name></trkpt>
<trkpt lat="53.484446" lon="-1.741629"><ele>443</ele><time>2022-04-08T12:43:37Z</time><name>PT5336</name></trkpt>
<trkpt lat="53.484457" lon="-1.741627"><ele>443</ele><time>2022-04-08T12:43:38Z</time><name>PT5337</name></trkpt>
<trkpt lat="53.484467" lon="-1.741626"><ele>443</ele><time>2022-04-08T12:43:40Z</time><name>PT5338</name></trkpt>
<trkpt lat="53.484477" lon="-1.741625"><ele>443</ele><time>2022-04-08T12:43:40Z</time><name>PT5339</name></trkpt>
<trkpt lat="53.484488" lon="-1.741621"><ele>442</ele><time>2022-04-08T12:43:41Z</time><name>PT5340</name></trkpt>
<trkpt lat="53.484499" lon="-1.741617"><ele>442</ele><time>2022-04-08T12:43:42Z</time><name>PT5341</name></trkpt>
<trkpt lat="53.484511" lon="-1.741616"><ele>442</ele><time>2022-04-08T12:43:43Z</time><name>PT5342</name></trkpt>
<trkpt lat="53.484521" lon="-1.741613"><ele>442</ele><time>2022-04-08T12:43:44Z</time><name>PT5343</name></trkpt>
<trkpt lat="53.484530" lon="-1.741608"><ele>441</ele><time>2022-04-08T12:43:45Z</time><name>PT5344</name></trkpt>
<trkpt lat="53.484539" lon="-1.741600"><ele>441</ele><time>2022-04-08T12:43:46Z</time><name>PT5345</name></trkpt>
<trkpt lat="53.484552" lon="-1.741596"><ele>441</ele><time>2022-04-08T12:43:47Z</time><name>PT5346</name></trkpt>
<trkpt lat="53.484565" lon="-1.741593"><ele>441</ele><time>2022-04-08T12:43:48Z</time><name>PT5347</name></trkpt>
<trkpt lat="53.484577" lon="-1.741593"><ele>441</ele><time>2022-04-08T12:43:49Z</time><name>PT5348</name></trkpt>
<trkpt lat="53.484588" lon="-1.741593"><ele>441</ele><time>2022-04-08T12:43:50Z</time><name>PT5349</name></trkpt>
<trkpt lat="53.484597" lon="-1.741591"><ele>440</ele><time>2022-04-08T12:43:51Z</time><name>PT5350</name></trkpt>
<trkpt lat="53.484606" lon="-1.741591"><ele>440</ele><time>2022-04-08T12:43:52Z</time><name>PT5351</name></trkpt>
<trkpt lat="53.484616" lon="-1.741593"><ele>440</ele><time>2022-04-08T12:43:53Z</time><name>PT5352</name></trkpt>
<trkpt lat="53.484625" lon="-1.741594"><ele>440</ele><time>2022-04-08T12:43:54Z</time><name>PT5353</name></trkpt>
<trkpt lat="53.484633" lon="-1.741595"><ele>440</ele><time>2022-04-08T12:43:55Z</time><name>PT5354</name></trkpt>
<trkpt lat="53.484639" lon="-1.741597"><ele>439</ele><time>2022-04-08T12:43:56Z</time><name>PT5355</name></trkpt>
<trkpt lat="53.484648" lon="-1.741594"><ele>439</ele><time>2022-04-08T12:43:57Z</time><name>PT5356</name></trkpt>
<trkpt lat="53.484654" lon="-1.741597"><ele>439</ele><time>2022-04-08T12:43:58Z</time><name>PT5357</name></trkpt>
<trkpt lat="53.484663" lon="-1.741606"><ele>439</ele><time>2022-04-08T12:43:59Z</time><name>PT5358</name></trkpt>
<trkpt lat="53.484672" lon="-1.741610"><ele>439</ele><time>2022-04-08T12:44:00Z</time><name>PT5359</name></trkpt>
<trkpt lat="53.484680" lon="-1.741610"><ele>439</ele><time>2022-04-08T12:44:01Z</time><name>PT5360</name></trkpt>
<trkpt lat="53.484690" lon="-1.741610"><ele>438</ele><time>2022-04-08T12:44:02Z</time><name>PT5361</name></trkpt>
<trkpt lat="53.484700" lon="-1.741609"><ele>438</ele><time>2022-04-08T12:44:03Z</time><name>PT5362</name></trkpt>
<trkpt lat="53.484710" lon="-1.741604"><ele>438</ele><time>2022-04-08T12:44:04Z</time><name>PT5363</name></trkpt>
<trkpt lat="53.484721" lon="-1.741598"><ele>438</ele><time>2022-04-08T12:44:05Z</time><name>PT5364</name></trkpt>
<trkpt lat="53.484729" lon="-1.741592"><ele>437</ele><time>2022-04-08T12:44:06Z</time><name>PT5365</name></trkpt>
<trkpt lat="53.484737" lon="-1.741588"><ele>437</ele><time>2022-04-08T12:44:07Z</time><name>PT5366</name></trkpt>
<trkpt lat="53.484745" lon="-1.741586"><ele>437</ele><time>2022-04-08T12:44:08Z</time><name>PT5367</name></trkpt>
<trkpt lat="53.484753" lon="-1.741589"><ele>437</ele><time>2022-04-08T12:44:09Z</time><name>PT5368</name></trkpt>
<trkpt lat="53.484761" lon="-1.741593"><ele>437</ele><time>2022-04-08T12:44:10Z</time><name>PT5369</name></trkpt>
<trkpt lat="53.484768" lon="-1.741596"><ele>437</ele><time>2022-04-08T12:44:11Z</time><name>PT5370</name></trkpt>
<trkpt lat="53.484775" lon="-1.741597"><ele>437</ele><time>2022-04-08T12:44:12Z</time><name>PT5371</name></trkpt>
<trkpt lat="53.484784" lon="-1.741594"><ele>436</ele><time>2022-04-08T12:44:13Z</time><name>PT5372</name></trkpt>
<trkpt lat="53.484793" lon="-1.741590"><ele>436</ele><time>2022-04-08T12:44:14Z</time><name>PT5373</name></trkpt>
<trkpt lat="53.484802" lon="-1.741586"><ele>436</ele><time>2022-04-08T12:44:15Z</time><name>PT5374</name></trkpt>
<trkpt lat="53.484806" lon="-1.741583"><ele>435</ele><time>2022-04-08T12:44:16Z</time><name>PT5375</name></trkpt>
<trkpt lat="53.484807" lon="-1.741583"><ele>436</ele><time>2022-04-08T12:44:17Z</time><name>PT5376</name></trkpt>
<trkpt lat="53.484807" lon="-1.741584"><ele>435</ele><time>2022-04-08T12:44:18Z</time><name>PT5377</name></trkpt>
<trkpt lat="53.484808" lon="-1.741583"><ele>436</ele><time>2022-04-08T12:44:19Z</time><name>PT5378</name></trkpt>
<trkpt lat="53.484809" lon="-1.741584"><ele>435</ele><time>2022-04-08T12:44:34Z</time><name>PT5379</name></trkpt>
<trkpt lat="53.484808" lon="-1.741588"><ele>435</ele><time>2022-04-08T12:44:35Z</time><name>PT5380</name></trkpt>
<trkpt lat="53.484807" lon="-1.741588"><ele>435</ele><time>2022-04-08T12:44:36Z</time><name>PT5381</name></trkpt>
<trkpt lat="53.484806" lon="-1.741588"><ele>435</ele><time>2022-04-08T12:44:37Z</time><name>PT5382</name></trkpt>
<trkpt lat="53.484804" lon="-1.741586"><ele>435</ele><time>2022-04-08T12:44:38Z</time><name>PT5383</name></trkpt>
<trkpt lat="53.484803" lon="-1.741589"><ele>435</ele><time>2022-04-08T12:44:39Z</time><name>PT5384</name></trkpt>
<trkpt lat="53.484801" lon="-1.741590"><ele>435</ele><time>2022-04-08T12:44:40Z</time><name>PT5385</name></trkpt>
<trkpt lat="53.484800" lon="-1.741592"><ele>435</ele><time>2022-04-08T12:44:48Z</time><name>PT5386</name></trkpt>
<trkpt lat="53.484795" lon="-1.741602"><ele>435</ele><time>2022-04-08T12:44:49Z</time><name>PT5387</name></trkpt>
<trkpt lat="53.484792" lon="-1.741608"><ele>435</ele><time>2022-04-08T12:44:50Z</time><name>PT5388</name></trkpt>
<trkpt lat="53.484790" lon="-1.741609"><ele>435</ele><time>2022-04-08T12:44:51Z</time><name>PT5389</name></trkpt>
<trkpt lat="53.484790" lon="-1.741610"><ele>435</ele><time>2022-04-08T12:44:52Z</time><name>PT5390</name></trkpt>
<trkpt lat="53.484789" lon="-1.741612"><ele>436</ele><time>2022-04-08T12:45:15Z</time><name>PT5391</name></trkpt>
<trkpt lat="53.484788" lon="-1.741609"><ele>436</ele><time>2022-04-08T12:45:19Z</time><name>PT5392</name></trkpt>
<trkpt lat="53.484789" lon="-1.741611"><ele>436</ele><time>2022-04-08T12:45:23Z</time><name>PT5393</name></trkpt>
<trkpt lat="53.484787" lon="-1.741620"><ele>436</ele><time>2022-04-08T12:47:15Z</time><name>PT5394</name></trkpt>
<trkpt lat="53.484785" lon="-1.741624"><ele>435</ele><time>2022-04-08T12:47:19Z</time><name>PT5395</name></trkpt>
<trkpt lat="53.484788" lon="-1.741629"><ele>435</ele><time>2022-04-08T12:55:56Z</time><name>PT5396</name></trkpt>
<trkpt lat="53.484790" lon="-1.741635"><ele>436</ele><time>2022-04-08T12:55:57Z</time><name>PT5397</name></trkpt>
<trkpt lat="53.484789" lon="-1.741636"><ele>436</ele><time>2022-04-08T12:56:32Z</time><name>PT5398</name></trkpt>
<trkpt lat="53.484792" lon="-1.741636"><ele>436</ele><time>2022-04-08T12:56:33Z</time><name>PT5399</name></trkpt>
<trkpt lat="53.484790" lon="-1.741639"><ele>436</ele><time>2022-04-08T12:57:07Z</time><name>PT5400</name></trkpt>
<trkpt lat="53.484786" lon="-1.741646"><ele>436</ele><time>2022-04-08T12:57:08Z</time><name>PT5401</name></trkpt>
<trkpt lat="53.484784" lon="-1.741649"><ele>436</ele><time>2022-04-08T12:57:09Z</time><name>PT5402</name></trkpt>
<trkpt lat="53.484784" lon="-1.741652"><ele>437</ele><time>2022-04-08T12:57:25Z</time><name>PT5403</name></trkpt>
<trkpt lat="53.484782" lon="-1.741657"><ele>437</ele><time>2022-04-08T12:57:26Z</time><name>PT5404</name></trkpt>
<trkpt lat="53.484779" lon="-1.741648"><ele>437</ele><time>2022-04-08T13:00:01Z</time><name>PT5405</name></trkpt>
<trkpt lat="53.484780" lon="-1.741648"><ele>437</ele><time>2022-04-08T13:00:05Z</time><name>PT5406</name></trkpt>
<trkpt lat="53.484776" lon="-1.741643"><ele>437</ele><time>2022-04-08T13:00:21Z</time><name>PT5407</name></trkpt>
<trkpt lat="53.484777" lon="-1.741625"><ele>437</ele><time>2022-04-08T13:00:37Z</time><name>PT5408</name></trkpt>
<trkpt lat="53.484779" lon="-1.741623"><ele>437</ele><time>2022-04-08T13:00:41Z</time><name>PT5409</name></trkpt>
<trkpt lat="53.484791" lon="-1.741621"><ele>437</ele><time>2022-04-08T13:01:05Z</time><name>PT5410</name></trkpt>
<trkpt lat="53.484796" lon="-1.741623"><ele>437</ele><time>2022-04-08T13:01:09Z</time><name>PT5411</name></trkpt>
<trkpt lat="53.484798" lon="-1.741622"><ele>437</ele><time>2022-04-08T13:01:20Z</time><name>PT5412</name></trkpt>
<trkpt lat="53.484800" lon="-1.741637"><ele>437</ele><time>2022-04-08T13:01:21Z</time><name>PT5413</name></trkpt>
<trkpt lat="53.484804" lon="-1.741644"><ele>437</ele><time>2022-04-08T13:01:22Z</time><name>PT5414</name></trkpt>
<trkpt lat="53.484808" lon="-1.741633"><ele>437</ele><time>2022-04-08T13:01:23Z</time><name>PT5415</name></trkpt>
<trkpt lat="53.484802" lon="-1.741639"><ele>437</ele><time>2022-04-08T13:01:27Z</time><name>PT5416</name></trkpt>
<trkpt lat="53.484800" lon="-1.741643"><ele>437</ele><time>2022-04-08T13:01:28Z</time><name>PT5417</name></trkpt>
<trkpt lat="53.484808" lon="-1.741623"><ele>437</ele><time>2022-04-08T13:02:21Z</time><name>PT5418</name></trkpt>
<trkpt lat="53.484814" lon="-1.741610"><ele>437</ele><time>2022-04-08T13:02:22Z</time><name>PT5419</name></trkpt>
<trkpt lat="53.484821" lon="-1.741595"><ele>437</ele><time>2022-04-08T13:02:23Z</time><name>PT5420</name></trkpt>
<trkpt lat="53.484827" lon="-1.741588"><ele>437</ele><time>2022-04-08T13:02:24Z</time><name>PT5421</name></trkpt>
<trkpt lat="53.484833" lon="-1.741579"><ele>437</ele><time>2022-04-08T13:02:25Z</time><name>PT5422</name></trkpt>
<trkpt lat="53.484831" lon="-1.741567"><ele>437</ele><time>2022-04-08T13:02:26Z</time><name>PT5423</name></trkpt>
<trkpt lat="53.484835" lon="-1.741557"><ele>437</ele><time>2022-04-08T13:02:27Z</time><name>PT5424</name></trkpt>
<trkpt lat="53.484843" lon="-1.741553"><ele>437</ele><time>2022-04-08T13:02:28Z</time><name>PT5425</name></trkpt>
<trkpt lat="53.484847" lon="-1.741545"><ele>438</ele><time>2022-04-08T13:02:29Z</time><name>PT5426</name></trkpt>
<trkpt lat="53.484853" lon="-1.741545"><ele>438</ele><time>2022-04-08T13:02:30Z</time><name>PT5427</name></trkpt>
<trkpt lat="53.484856" lon="-1.741542"><ele>437</ele><time>2022-04-08T13:02:31Z</time><name>PT5428</name></trkpt>
<trkpt lat="53.484861" lon="-1.741534"><ele>438</ele><time>2022-04-08T13:02:32Z</time><name>PT5429</name></trkpt>
<trkpt lat="53.484864" lon="-1.741531"><ele>438</ele><time>2022-04-08T13:02:33Z</time><name>PT5430</name></trkpt>
<trkpt lat="53.484870" lon="-1.741528"><ele>438</ele><time>2022-04-08T13:02:34Z</time><name>PT5431</name></trkpt>
<trkpt lat="53.484875" lon="-1.741527"><ele>437</ele><time>2022-04-08T13:02:35Z</time><name>PT5432</name></trkpt>
<trkpt lat="53.484879" lon="-1.741523"><ele>437</ele><time>2022-04-08T13:02:36Z</time><name>PT5433</name></trkpt>
<trkpt lat="53.484883" lon="-1.741521"><ele>437</ele><time>2022-04-08T13:02:37Z</time><name>PT5434</name></trkpt>
<trkpt lat="53.484890" lon="-1.741519"><ele>437</ele><time>2022-04-08T13:02:38Z</time><name>PT5435</name></trkpt>
<trkpt lat="53.484896" lon="-1.741521"><ele>437</ele><time>2022-04-08T13:02:39Z</time><name>PT5436</name></trkpt>
<trkpt lat="53.484904" lon="-1.741520"><ele>437</ele><time>2022-04-08T13:02:40Z</time><name>PT5437</name></trkpt>
<trkpt lat="53.484914" lon="-1.741520"><ele>437</ele><time>2022-04-08T13:02:41Z</time><name>PT5438</name></trkpt>
<trkpt lat="53.484922" lon="-1.741518"><ele>437</ele><time>2022-04-08T13:02:42Z</time><name>PT5439</name></trkpt>
<trkpt lat="53.484932" lon="-1.741519"><ele>437</ele><time>2022-04-08T13:02:43Z</time><name>PT5440</name></trkpt>
<trkpt lat="53.484943" lon="-1.741518"><ele>437</ele><time>2022-04-08T13:02:44Z</time><name>PT5441</name></trkpt>
<trkpt lat="53.484953" lon="-1.741520"><ele>437</ele><time>2022-04-08T13:02:45Z</time><name>PT5442</name></trkpt>
<trkpt lat="53.484962" lon="-1.741521"><ele>437</ele><time>2022-04-08T13:02:46Z</time><name>PT5443</name></trkpt>
<trkpt lat="53.484972" lon="-1.741519"><ele>436</ele><time>2022-04-08T13:02:47Z</time><name>PT5444</name></trkpt>
<trkpt lat="53.484982" lon="-1.741520"><ele>436</ele><time>2022-04-08T13:02:48Z</time><name>PT5445</name></trkpt>
<trkpt lat="53.484991" lon="-1.741521"><ele>436</ele><time>2022-04-08T13:02:49Z</time><name>PT5446</name></trkpt>
<trkpt lat="53.484998" lon="-1.741521"><ele>436</ele><time>2022-04-08T13:02:50Z</time><name>PT5447</name></trkpt>
<trkpt lat="53.485004" lon="-1.741517"><ele>436</ele><time>2022-04-08T13:02:51Z</time><name>PT5448</name></trkpt>
<trkpt lat="53.485014" lon="-1.741513"><ele>436</ele><time>2022-04-08T13:02:52Z</time><name>PT5449</name></trkpt>
<trkpt lat="53.485024" lon="-1.741509"><ele>436</ele><time>2022-04-08T13:02:53Z</time><name>PT5450</name></trkpt>
<trkpt lat="53.485035" lon="-1.741498"><ele>436</ele><time>2022-04-08T13:02:54Z</time><name>PT5451</name></trkpt>
<trkpt lat="53.485044" lon="-1.741485"><ele>436</ele><time>2022-04-08T13:02:55Z</time><name>PT5452</name></trkpt>
<trkpt lat="53.485053" lon="-1.741480"><ele>435</ele><time>2022-04-08T13:02:56Z</time><name>PT5453</name></trkpt>
<trkpt lat="53.485062" lon="-1.741479"><ele>435</ele><time>2022-04-08T13:02:57Z</time><name>PT5454</name></trkpt>
<trkpt lat="53.485073" lon="-1.741478"><ele>435</ele><time>2022-04-08T13:02:58Z</time><name>PT5455</name></trkpt>
<trkpt lat="53.485081" lon="-1.741473"><ele>435</ele><time>2022-04-08T13:02:59Z</time><name>PT5456</name></trkpt>
<trkpt lat="53.485089" lon="-1.741472"><ele>434</ele><time>2022-04-08T13:03:00Z</time><name>PT5457</name></trkpt>
<trkpt lat="53.485100" lon="-1.741471"><ele>434</ele><time>2022-04-08T13:03:01Z</time><name>PT5458</name></trkpt>
<trkpt lat="53.485110" lon="-1.741467"><ele>434</ele><time>2022-04-08T13:03:02Z</time><name>PT5459</name></trkpt>
<trkpt lat="53.485120" lon="-1.741464"><ele>434</ele><time>2022-04-08T13:03:03Z</time><name>PT5460</name></trkpt>
<trkpt lat="53.485130" lon="-1.741459"><ele>434</ele><time>2022-04-08T13:03:04Z</time><name>PT5461</name></trkpt>
<trkpt lat="53.485145" lon="-1.741453"><ele>434</ele><time>2022-04-08T13:03:05Z</time><name>PT5462</name></trkpt>
<trkpt lat="53.485156" lon="-1.741449"><ele>435</ele><time>2022-04-08T13:03:06Z</time><name>PT5463</name></trkpt>
<trkpt lat="53.485170" lon="-1.741439"><ele>434</ele><time>2022-04-08T13:03:07Z</time><name>PT5464</name></trkpt>
<trkpt lat="53.485182" lon="-1.741427"><ele>434</ele><time>2022-04-08T13:03:08Z</time><name>PT5465</name></trkpt>
<trkpt lat="53.485193" lon="-1.741421"><ele>434</ele><time>2022-04-08T13:03:09Z</time><name>PT5466</name></trkpt>
<trkpt lat="53.485201" lon="-1.741418"><ele>435</ele><time>2022-04-08T13:03:10Z</time><name>PT5467</name></trkpt>
<trkpt lat="53.485211" lon="-1.741415"><ele>434</ele><time>2022-04-08T13:03:11Z</time><name>PT5468</name></trkpt>
<trkpt lat="53.485221" lon="-1.741411"><ele>434</ele><time>2022-04-08T13:03:12Z</time><name>PT5469</name></trkpt>
<trkpt lat="53.485228" lon="-1.741403"><ele>434</ele><time>2022-04-08T13:03:13Z</time><name>PT5470</name></trkpt>
<trkpt lat="53.485237" lon="-1.741396"><ele>434</ele><time>2022-04-08T13:03:14Z</time><name>PT5471</name></trkpt>
<trkpt lat="53.485249" lon="-1.741391"><ele>434</ele><time>2022-04-08T13:03:15Z</time><name>PT5472</name></trkpt>
<trkpt lat="53.485261" lon="-1.741383"><ele>434</ele><time>2022-04-08T13:03:16Z</time><name>PT5473</name></trkpt>
<trkpt lat="53.485274" lon="-1.741377"><ele>433</ele><time>2022-04-08T13:03:17Z</time><name>PT5474</name></trkpt>
<trkpt lat="53.485285" lon="-1.741374"><ele>433</ele><time>2022-04-08T13:03:18Z</time><name>PT5475</name></trkpt>
<trkpt lat="53.485294" lon="-1.741369"><ele>433</ele><time>2022-04-08T13:03:19Z</time><name>PT5476</name></trkpt>
<trkpt lat="53.485303" lon="-1.741363"><ele>433</ele><time>2022-04-08T13:03:20Z</time><name>PT5477</name></trkpt>
<trkpt lat="53.485310" lon="-1.741356"><ele>433</ele><time>2022-04-08T13:03:21Z</time><name>PT5478</name></trkpt>
<trkpt lat="53.485318" lon="-1.741353"><ele>432</ele><time>2022-04-08T13:03:22Z</time><name>PT5479</name></trkpt>
<trkpt lat="53.485328" lon="-1.741358"><ele>432</ele><time>2022-04-08T13:03:23Z</time><name>PT5480</name></trkpt>
<trkpt lat="53.485337" lon="-1.741365"><ele>432</ele><time>2022-04-08T13:03:24Z</time><name>PT5481</name></trkpt>
<trkpt lat="53.485349" lon="-1.741364"><ele>431</ele><time>2022-04-08T13:03:25Z</time><name>PT5482</name></trkpt>
<trkpt lat="53.485357" lon="-1.741359"><ele>431</ele><time>2022-04-08T13:03:26Z</time><name>PT5483</name></trkpt>
<trkpt lat="53.485368" lon="-1.741350"><ele>431</ele><time>2022-04-08T13:03:27Z</time><name>PT5484</name></trkpt>
<trkpt lat="53.485381" lon="-1.741341"><ele>431</ele><time>2022-04-08T13:03:28Z</time><name>PT5485</name></trkpt>
<trkpt lat="53.485392" lon="-1.741334"><ele>431</ele><time>2022-04-08T13:03:29Z</time><name>PT5486</name></trkpt>
<trkpt lat="53.485403" lon="-1.741328"><ele>431</ele><time>2022-04-08T13:03:30Z</time><name>PT5487</name></trkpt>
<trkpt lat="53.485413" lon="-1.741324"><ele>431</ele><time>2022-04-08T13:03:31Z</time><name>PT5488</name></trkpt>
<trkpt lat="53.485423" lon="-1.741322"><ele>430</ele><time>2022-04-08T13:03:32Z</time><name>PT5489</name></trkpt>
<trkpt lat="53.485435" lon="-1.741321"><ele>430</ele><time>2022-04-08T13:03:33Z</time><name>PT5490</name></trkpt>
<trkpt lat="53.485445" lon="-1.741316"><ele>430</ele><time>2022-04-08T13:03:34Z</time><name>PT5491</name></trkpt>
<trkpt lat="53.485451" lon="-1.741309"><ele>430</ele><time>2022-04-08T13:03:35Z</time><name>PT5492</name></trkpt>
<trkpt lat="53.485453" lon="-1.741297"><ele>429</ele><time>2022-04-08T13:03:36Z</time><name>PT5493</name></trkpt>
<trkpt lat="53.485455" lon="-1.741286"><ele>429</ele><time>2022-04-08T13:03:37Z</time><name>PT5494</name></trkpt>
<trkpt lat="53.485457" lon="-1.741271"><ele>429</ele><time>2022-04-08T13:03:38Z</time><name>PT5495</name></trkpt>
<trkpt lat="53.485462" lon="-1.741256"><ele>429</ele><time>2022-04-08T13:03:39Z</time><name>PT5496</name></trkpt>
<trkpt lat="53.485468" lon="-1.741245"><ele>429</ele><time>2022-04-08T13:03:40Z</time><name>PT5497</name></trkpt>
<trkpt lat="53.485477" lon="-1.741237"><ele>429</ele><time>2022-04-08T13:03:41Z</time><name>PT5498</name></trkpt>
<trkpt lat="53.485489" lon="-1.741231"><ele>429</ele><time>2022-04-08T13:03:42Z</time><name>PT5499</name></trkpt>
<trkpt lat="53.485502" lon="-1.741225"><ele>429</ele><time>2022-04-08T13:03:43Z</time><name>PT5500</name></trkpt>
<trkpt lat="53.485514" lon="-1.741217"><ele>429</ele><time>2022-04-08T13:03:44Z</time><name>PT5501</name></trkpt>
<trkpt lat="53.485524" lon="-1.741212"><ele>428</ele><time>2022-04-08T13:03:45Z</time><name>PT5502</name></trkpt>
<trkpt lat="53.485533" lon="-1.741205"><ele>428</ele><time>2022-04-08T13:03:46Z</time><name>PT5503</name></trkpt>
<trkpt lat="53.485543" lon="-1.741199"><ele>428</ele><time>2022-04-08T13:03:47Z</time><name>PT5504</name></trkpt>
<trkpt lat="53.485553" lon="-1.741195"><ele>428</ele><time>2022-04-08T13:03:48Z</time><name>PT5505</name></trkpt>
<trkpt lat="53.485562" lon="-1.741192"><ele>428</ele><time>2022-04-08T13:03:49Z</time><name>PT5506</name></trkpt>
<trkpt lat="53.485573" lon="-1.741188"><ele>428</ele><time>2022-04-08T13:03:50Z</time><name>PT5507</name></trkpt>
<trkpt lat="53.485581" lon="-1.741183"><ele>427</ele><time>2022-04-08T13:03:51Z</time><name>PT5508</name></trkpt>
<trkpt lat="53.485592" lon="-1.741174"><ele>427</ele><time>2022-04-08T13:03:52Z</time><name>PT5509</name></trkpt>
<trkpt lat="53.485602" lon="-1.741164"><ele>427</ele><time>2022-04-08T13:03:53Z</time><name>PT5510</name></trkpt>
<trkpt lat="53.485609" lon="-1.741156"><ele>427</ele><time>2022-04-08T13:03:54Z</time><name>PT5511</name></trkpt>
<trkpt lat="53.485619" lon="-1.741151"><ele>426</ele><time>2022-04-08T13:03:55Z</time><name>PT5512</name></trkpt>
<trkpt lat="53.485628" lon="-1.741144"><ele>426</ele><time>2022-04-08T13:03:56Z</time><name>PT5513</name></trkpt>
<trkpt lat="53.485639" lon="-1.741145"><ele>426</ele><time>2022-04-08T13:03:57Z</time><name>PT5514</name></trkpt>
<trkpt lat="53.485652" lon="-1.741143"><ele>425</ele><time>2022-04-08T13:03:58Z</time><name>PT5515</name></trkpt>
<trkpt lat="53.485663" lon="-1.741138"><ele>425</ele><time>2022-04-08T13:03:59Z</time><name>PT5516</name></trkpt>
<trkpt lat="53.485673" lon="-1.741132"><ele>425</ele><time>2022-04-08T13:04:00Z</time><name>PT5517</name></trkpt>
<trkpt lat="53.485684" lon="-1.741127"><ele>425</ele><time>2022-04-08T13:04:01Z</time><name>PT5518</name></trkpt>
<trkpt lat="53.485694" lon="-1.741118"><ele>425</ele><time>2022-04-08T13:04:02Z</time><name>PT5519</name></trkpt>
<trkpt lat="53.485702" lon="-1.741106"><ele>425</ele><time>2022-04-08T13:04:03Z</time><name>PT5520</name></trkpt>
<trkpt lat="53.485713" lon="-1.741095"><ele>424</ele><time>2022-04-08T13:04:04Z</time><name>PT5521</name></trkpt>
<trkpt lat="53.485724" lon="-1.741089"><ele>424</ele><time>2022-04-08T13:04:05Z</time><name>PT5522</name></trkpt>
<trkpt lat="53.485735" lon="-1.741080"><ele>423</ele><time>2022-04-08T13:04:06Z</time><name>PT5523</name></trkpt>
<trkpt lat="53.485750" lon="-1.741070"><ele>423</ele><time>2022-04-08T13:04:07Z</time><name>PT5524</name></trkpt>
<trkpt lat="53.485765" lon="-1.741062"><ele>423</ele><time>2022-04-08T13:04:08Z</time><name>PT5525</name></trkpt>
<trkpt lat="53.485776" lon="-1.741057"><ele>423</ele><time>2022-04-08T13:04:09Z</time><name>PT5526</name></trkpt>
<trkpt lat="53.485821" lon="-1.741046"><ele>422</ele><time>2022-04-08T13:04:13Z</time><name>PT5527</name></trkpt>
<trkpt lat="53.485875" lon="-1.741046"><ele>421</ele><time>2022-04-08T13:04:17Z</time><name>PT5528</name></trkpt>
<trkpt lat="53.485923" lon="-1.741041"><ele>420</ele><time>2022-04-08T13:04:21Z</time><name>PT5529</name></trkpt>
<trkpt lat="53.485975" lon="-1.741043"><ele>419</ele><time>2022-04-08T13:04:25Z</time><name>PT5530</name></trkpt>
<trkpt lat="53.486004" lon="-1.741041"><ele>419</ele><time>2022-04-08T13:04:29Z</time><name>PT5531</name></trkpt>
<trkpt lat="53.486018" lon="-1.741004"><ele>419</ele><time>2022-04-08T13:04:33Z</time><name>PT5532</name></trkpt>
<trkpt lat="53.486022" lon="-1.740984"><ele>419</ele><time>2022-04-08T13:04:37Z</time><name>PT5533</name></trkpt>
<trkpt lat="53.486043" lon="-1.740955"><ele>419</ele><time>2022-04-08T13:04:41Z</time><name>PT5534</name></trkpt>
<trkpt lat="53.486079" lon="-1.740932"><ele>417</ele><time>2022-04-08T13:04:45Z</time><name>PT5535</name></trkpt>
<trkpt lat="53.486121" lon="-1.740911"><ele>417</ele><time>2022-04-08T13:04:49Z</time><name>PT5536</name></trkpt>
<trkpt lat="53.486167" lon="-1.740890"><ele>416</ele><time>2022-04-08T13:04:53Z</time><name>PT5537</name></trkpt>
<trkpt lat="53.486215" lon="-1.740888"><ele>416</ele><time>2022-04-08T13:04:57Z</time><name>PT5538</name></trkpt>
<trkpt lat="53.486267" lon="-1.740887"><ele>414</ele><time>2022-04-08T13:05:01Z</time><name>PT5539</name></trkpt>
<trkpt lat="53.486314" lon="-1.740881"><ele>413</ele><time>2022-04-08T13:05:05Z</time><name>PT5540</name></trkpt>
<trkpt lat="53.486355" lon="-1.740877"><ele>413</ele><time>2022-04-08T13:05:09Z</time><name>PT5541</name></trkpt>
<trkpt lat="53.486397" lon="-1.740860"><ele>413</ele><time>2022-04-08T13:05:13Z</time><name>PT5542</name></trkpt>
<trkpt lat="53.486409" lon="-1.740858"><ele>413</ele><time>2022-04-08T13:05:14Z</time><name>PT5543</name></trkpt>
<trkpt lat="53.486423" lon="-1.740855"><ele>413</ele><time>2022-04-08T13:05:15Z</time><name>PT5544</name></trkpt>
<trkpt lat="53.486433" lon="-1.740853"><ele>412</ele><time>2022-04-08T13:05:16Z</time><name>PT5545</name></trkpt>
<trkpt lat="53.486451" lon="-1.740849"><ele>413</ele><time>2022-04-08T13:05:17Z</time><name>PT5546</name></trkpt>
<trkpt lat="53.486470" lon="-1.740847"><ele>413</ele><time>2022-04-08T13:05:18Z</time><name>PT5547</name></trkpt>
<trkpt lat="53.486485" lon="-1.740855"><ele>412</ele><time>2022-04-08T13:05:19Z</time><name>PT5548</name></trkpt>
<trkpt lat="53.486497" lon="-1.740852"><ele>412</ele><time>2022-04-08T13:05:21Z</time><name>PT5549</name></trkpt>
<trkpt lat="53.486509" lon="-1.740851"><ele>411</ele><time>2022-04-08T13:05:21Z</time><name>PT5550</name></trkpt>
<trkpt lat="53.486522" lon="-1.740850"><ele>411</ele><time>2022-04-08T13:05:22Z</time><name>PT5551</name></trkpt>
<trkpt lat="53.486530" lon="-1.740854"><ele>411</ele><time>2022-04-08T13:05:23Z</time><name>PT5552</name></trkpt>
<trkpt lat="53.486539" lon="-1.740857"><ele>412</ele><time>2022-04-08T13:05:24Z</time><name>PT5553</name></trkpt>
<trkpt lat="53.486549" lon="-1.740859"><ele>411</ele><time>2022-04-08T13:05:25Z</time><name>PT5554</name></trkpt>
<trkpt lat="53.486561" lon="-1.740861"><ele>411</ele><time>2022-04-08T13:05:26Z</time><name>PT5555</name></trkpt>
<trkpt lat="53.486576" lon="-1.740860"><ele>410</ele><time>2022-04-08T13:05:27Z</time><name>PT5556</name></trkpt>
<trkpt lat="53.486589" lon="-1.740860"><ele>410</ele><time>2022-04-08T13:05:28Z</time><name>PT5557</name></trkpt>
<trkpt lat="53.486601" lon="-1.740855"><ele>410</ele><time>2022-04-08T13:05:29Z</time><name>PT5558</name></trkpt>
<trkpt lat="53.486613" lon="-1.740849"><ele>410</ele><time>2022-04-08T13:05:30Z</time><name>PT5559</name></trkpt>
<trkpt lat="53.486624" lon="-1.740847"><ele>410</ele><time>2022-04-08T13:05:31Z</time><name>PT5560</name></trkpt>
<trkpt lat="53.486633" lon="-1.740847"><ele>410</ele><time>2022-04-08T13:05:32Z</time><name>PT5561</name></trkpt>
<trkpt lat="53.486642" lon="-1.740846"><ele>410</ele><time>2022-04-08T13:05:33Z</time><name>PT5562</name></trkpt>
<trkpt lat="53.486645" lon="-1.740841"><ele>410</ele><time>2022-04-08T13:05:34Z</time><name>PT5563</name></trkpt>
<trkpt lat="53.486650" lon="-1.740828"><ele>410</ele><time>2022-04-08T13:05:35Z</time><name>PT5564</name></trkpt>
<trkpt lat="53.486658" lon="-1.740817"><ele>409</ele><time>2022-04-08T13:05:37Z</time><name>PT5565</name></trkpt>
<trkpt lat="53.486664" lon="-1.740805"><ele>409</ele><time>2022-04-08T13:05:37Z</time><name>PT5566</name></trkpt>
<trkpt lat="53.486674" lon="-1.740794"><ele>409</ele><time>2022-04-08T13:05:38Z</time><name>PT5567</name></trkpt>
<trkpt lat="53.486684" lon="-1.740791"><ele>409</ele><time>2022-04-08T13:05:39Z</time><name>PT5568</name></trkpt>
<trkpt lat="53.486694" lon="-1.740789"><ele>409</ele><time>2022-04-08T13:05:40Z</time><name>PT5569</name></trkpt>
<trkpt lat="53.486707" lon="-1.740787"><ele>409</ele><time>2022-04-08T13:05:41Z</time><name>PT5570</name></trkpt>
<trkpt lat="53.486718" lon="-1.740793"><ele>408</ele><time>2022-04-08T13:05:42Z</time><name>PT5571</name></trkpt>
<trkpt lat="53.486727" lon="-1.740799"><ele>408</ele><time>2022-04-08T13:05:43Z</time><name>PT5572</name></trkpt>
<trkpt lat="53.486733" lon="-1.740810"><ele>408</ele><time>2022-04-08T13:05:44Z</time><name>PT5573</name></trkpt>
<trkpt lat="53.486741" lon="-1.740810"><ele>408</ele><time>2022-04-08T13:05:45Z</time><name>PT5574</name></trkpt>
<trkpt lat="53.486750" lon="-1.740807"><ele>408</ele><time>2022-04-08T13:05:46Z</time><name>PT5575</name></trkpt>
<trkpt lat="53.486760" lon="-1.740807"><ele>407</ele><time>2022-04-08T13:05:47Z</time><name>PT5576</name></trkpt>
<trkpt lat="53.486769" lon="-1.740806"><ele>407</ele><time>2022-04-08T13:05:48Z</time><name>PT5577</name></trkpt>
<trkpt lat="53.486775" lon="-1.740802"><ele>407</ele><time>2022-04-08T13:05:49Z</time><name>PT5578</name></trkpt>
<trkpt lat="53.486785" lon="-1.740796"><ele>407</ele><time>2022-04-08T13:05:50Z</time><name>PT5579</name></trkpt>
<trkpt lat="53.486801" lon="-1.740798"><ele>407</ele><time>2022-04-08T13:05:51Z</time><name>PT5580</name></trkpt>
<trkpt lat="53.486812" lon="-1.740800"><ele>407</ele><time>2022-04-08T13:05:52Z</time><name>PT5581</name></trkpt>
<trkpt lat="53.486818" lon="-1.740806"><ele>406</ele><time>2022-04-08T13:05:53Z</time><name>PT5582</name></trkpt>
<trkpt lat="53.486825" lon="-1.740809"><ele>406</ele><time>2022-04-08T13:05:54Z</time><name>PT5583</name></trkpt>
<trkpt lat="53.486835" lon="-1.740818"><ele>406</ele><time>2022-04-08T13:05:55Z</time><name>PT5584</name></trkpt>
<trkpt lat="53.486843" lon="-1.740830"><ele>406</ele><time>2022-04-08T13:05:56Z</time><name>PT5585</name></trkpt>
<trkpt lat="53.486853" lon="-1.740833"><ele>406</ele><time>2022-04-08T13:05:57Z</time><name>PT5586</name></trkpt>
<trkpt lat="53.486863" lon="-1.740835"><ele>406</ele><time>2022-04-08T13:05:58Z</time><name>PT5587</name></trkpt>
<trkpt lat="53.486872" lon="-1.740833"><ele>406</ele><time>2022-04-08T13:05:59Z</time><name>PT5588</name></trkpt>
<trkpt lat="53.486882" lon="-1.740830"><ele>405</ele><time>2022-04-08T13:06:00Z</time><name>PT5589</name></trkpt>
<trkpt lat="53.486892" lon="-1.740829"><ele>405</ele><time>2022-04-08T13:06:01Z</time><name>PT5590</name></trkpt>
<trkpt lat="53.486904" lon="-1.740823"><ele>404</ele><time>2022-04-08T13:06:02Z</time><name>PT5591</name></trkpt>
<trkpt lat="53.486915" lon="-1.740818"><ele>404</ele><time>2022-04-08T13:06:03Z</time><name>PT5592</name></trkpt>
<trkpt lat="53.486926" lon="-1.740814"><ele>404</ele><time>2022-04-08T13:06:04Z</time><name>PT5593</name></trkpt>
<trkpt lat="53.486934" lon="-1.740807"><ele>404</ele><time>2022-04-08T13:06:05Z</time><name>PT5594</name></trkpt>
<trkpt lat="53.486943" lon="-1.740800"><ele>404</ele><time>2022-04-08T13:06:06Z</time><name>PT5595</name></trkpt>
<trkpt lat="53.486952" lon="-1.740794"><ele>404</ele><time>2022-04-08T13:06:07Z</time><name>PT5596</name></trkpt>
<trkpt lat="53.486962" lon="-1.740789"><ele>404</ele><time>2022-04-08T13:06:08Z</time><name>PT5597</name></trkpt>
<trkpt lat="53.486971" lon="-1.740781"><ele>404</ele><time>2022-04-08T13:06:09Z</time><name>PT5598</name></trkpt>
<trkpt lat="53.486980" lon="-1.740773"><ele>403</ele><time>2022-04-08T13:06:10Z</time><name>PT5599</name></trkpt>
<trkpt lat="53.486987" lon="-1.740763"><ele>403</ele><time>2022-04-08T13:06:11Z</time><name>PT5600</name></trkpt>
<trkpt lat="53.486995" lon="-1.740760"><ele>403</ele><time>2022-04-08T13:06:12Z</time><name>PT5601</name></trkpt>
<trkpt lat="53.487003" lon="-1.740756"><ele>402</ele><time>2022-04-08T13:06:13Z</time><name>PT5602</name></trkpt>
<trkpt lat="53.487013" lon="-1.740748"><ele>403</ele><time>2022-04-08T13:06:14Z</time><name>PT5603</name></trkpt>
<trkpt lat="53.487027" lon="-1.740745"><ele>403</ele><time>2022-04-08T13:06:15Z</time><name>PT5604</name></trkpt>
<trkpt lat="53.487039" lon="-1.740743"><ele>403</ele><time>2022-04-08T13:06:16Z</time><name>PT5605</name></trkpt>
<trkpt lat="53.487047" lon="-1.740738"><ele>403</ele><time>2022-04-08T13:06:17Z</time><name>PT5606</name></trkpt>
<trkpt lat="53.487052" lon="-1.740725"><ele>403</ele><time>2022-04-08T13:06:18Z</time><name>PT5607</name></trkpt>
<trkpt lat="53.487058" lon="-1.740710"><ele>403</ele><time>2022-04-08T13:06:19Z</time><name>PT5608</name></trkpt>
<trkpt lat="53.487066" lon="-1.740699"><ele>402</ele><time>2022-04-08T13:06:20Z</time><name>PT5609</name></trkpt>
<trkpt lat="53.487078" lon="-1.740695"><ele>403</ele><time>2022-04-08T13:06:21Z</time><name>PT5610</name></trkpt>
<trkpt lat="53.487086" lon="-1.740696"><ele>403</ele><time>2022-04-08T13:06:22Z</time><name>PT5611</name></trkpt>
<trkpt lat="53.487096" lon="-1.740695"><ele>402</ele><time>2022-04-08T13:06:23Z</time><name>PT5612</name></trkpt>
<trkpt lat="53.487108" lon="-1.740690"><ele>402</ele><time>2022-04-08T13:06:24Z</time><name>PT5613</name></trkpt>
<trkpt lat="53.487119" lon="-1.740684"><ele>402</ele><time>2022-04-08T13:06:25Z</time><name>PT5614</name></trkpt>
<trkpt lat="53.487129" lon="-1.740680"><ele>402</ele><time>2022-04-08T13:06:26Z</time><name>PT5615</name></trkpt>
<trkpt lat="53.487136" lon="-1.740680"><ele>402</ele><time>2022-04-08T13:06:27Z</time><name>PT5616</name></trkpt>
<trkpt lat="53.487144" lon="-1.740680"><ele>402</ele><time>2022-04-08T13:06:28Z</time><name>PT5617</name></trkpt>
<trkpt lat="53.487155" lon="-1.740677"><ele>402</ele><time>2022-04-08T13:06:29Z</time><name>PT5618</name></trkpt>
<trkpt lat="53.487164" lon="-1.740674"><ele>401</ele><time>2022-04-08T13:06:30Z</time><name>PT5619</name></trkpt>
<trkpt lat="53.487174" lon="-1.740665"><ele>401</ele><time>2022-04-08T13:06:31Z</time><name>PT5620</name></trkpt>
<trkpt lat="53.487180" lon="-1.740652"><ele>400</ele><time>2022-04-08T13:06:32Z</time><name>PT5621</name></trkpt>
<trkpt lat="53.487191" lon="-1.740636"><ele>400</ele><time>2022-04-08T13:06:33Z</time><name>PT5622</name></trkpt>
<trkpt lat="53.487199" lon="-1.740625"><ele>400</ele><time>2022-04-08T13:06:34Z</time><name>PT5623</name></trkpt>
<trkpt lat="53.487205" lon="-1.740624"><ele>400</ele><time>2022-04-08T13:06:35Z</time><name>PT5624</name></trkpt>
<trkpt lat="53.487214" lon="-1.740626"><ele>399</ele><time>2022-04-08T13:06:36Z</time><name>PT5625</name></trkpt>
<trkpt lat="53.487222" lon="-1.740622"><ele>399</ele><time>2022-04-08T13:06:37Z</time><name>PT5626</name></trkpt>
<trkpt lat="53.487228" lon="-1.740621"><ele>399</ele><time>2022-04-08T13:06:38Z</time><name>PT5627</name></trkpt>
<trkpt lat="53.487237" lon="-1.740622"><ele>399</ele><time>2022-04-08T13:06:39Z</time><name>PT5628</name></trkpt>
<trkpt lat="53.487247" lon="-1.740620"><ele>399</ele><time>2022-04-08T13:06:40Z</time><name>PT5629</name></trkpt>
<trkpt lat="53.487258" lon="-1.740617"><ele>399</ele><time>2022-04-08T13:06:41Z</time><name>PT5630</name></trkpt>
<trkpt lat="53.487269" lon="-1.740623"><ele>400</ele><time>2022-04-08T13:06:42Z</time><name>PT5631</name></trkpt>
<trkpt lat="53.487275" lon="-1.740632"><ele>400</ele><time>2022-04-08T13:06:43Z</time><name>PT5632</name></trkpt>
<trkpt lat="53.487283" lon="-1.740645"><ele>399</ele><time>2022-04-08T13:06:44Z</time><name>PT5633</name></trkpt>
<trkpt lat="53.487291" lon="-1.740651"><ele>399</ele><time>2022-04-08T13:06:45Z</time><name>PT5634</name></trkpt>
<trkpt lat="53.487305" lon="-1.740648"><ele>399</ele><time>2022-04-08T13:06:46Z</time><name>PT5635</name></trkpt>
<trkpt lat="53.487317" lon="-1.740640"><ele>399</ele><time>2022-04-08T13:06:47Z</time><name>PT5636</name></trkpt>
<trkpt lat="53.487327" lon="-1.740630"><ele>398</ele><time>2022-04-08T13:06:48Z</time><name>PT5637</name></trkpt>
<trkpt lat="53.487337" lon="-1.740621"><ele>398</ele><time>2022-04-08T13:06:49Z</time><name>PT5638</name></trkpt>
<trkpt lat="53.487345" lon="-1.740608"><ele>398</ele><time>2022-04-08T13:06:50Z</time><name>PT5639</name></trkpt>
<trkpt lat="53.487353" lon="-1.740594"><ele>397</ele><time>2022-04-08T13:06:51Z</time><name>PT5640</name></trkpt>
<trkpt lat="53.487362" lon="-1.740580"><ele>398</ele><time>2022-04-08T13:06:52Z</time><name>PT5641</name></trkpt>
<trkpt lat="53.487371" lon="-1.740569"><ele>398</ele><time>2022-04-08T13:06:53Z</time><name>PT5642</name></trkpt>
<trkpt lat="53.487382" lon="-1.740562"><ele>397</ele><time>2022-04-08T13:06:54Z</time><name>PT5643</name></trkpt>
<trkpt lat="53.487392" lon="-1.740557"><ele>397</ele><time>2022-04-08T13:06:55Z</time><name>PT5644</name></trkpt>
<trkpt lat="53.487400" lon="-1.740555"><ele>397</ele><time>2022-04-08T13:06:56Z</time><name>PT5645</name></trkpt>
<trkpt lat="53.487409" lon="-1.740559"><ele>397</ele><time>2022-04-08T13:06:57Z</time><name>PT5646</name></trkpt>
<trkpt lat="53.487417" lon="-1.740561"><ele>397</ele><time>2022-04-08T13:06:58Z</time><name>PT5647</name></trkpt>
<trkpt lat="53.487427" lon="-1.740561"><ele>397</ele><time>2022-04-08T13:06:59Z</time><name>PT5648</name></trkpt>
<trkpt lat="53.487439" lon="-1.740561"><ele>397</ele><time>2022-04-08T13:07:00Z</time><name>PT5649</name></trkpt>
<trkpt lat="53.487451" lon="-1.740557"><ele>397</ele><time>2022-04-08T13:07:01Z</time><name>PT5650</name></trkpt>
<trkpt lat="53.487461" lon="-1.740553"><ele>396</ele><time>2022-04-08T13:07:02Z</time><name>PT5651</name></trkpt>
<trkpt lat="53.487470" lon="-1.740552"><ele>396</ele><time>2022-04-08T13:07:03Z</time><name>PT5652</name></trkpt>
<trkpt lat="53.487480" lon="-1.740547"><ele>396</ele><time>2022-04-08T13:07:04Z</time><name>PT5653</name></trkpt>
<trkpt lat="53.487492" lon="-1.740540"><ele>396</ele><time>2022-04-08T13:07:05Z</time><name>PT5654</name></trkpt>
<trkpt lat="53.487501" lon="-1.740528"><ele>396</ele><time>2022-04-08T13:07:06Z</time><name>PT5655</name></trkpt>
<trkpt lat="53.487509" lon="-1.740517"><ele>395</ele><time>2022-04-08T13:07:07Z</time><name>PT5656</name></trkpt>
<trkpt lat="53.487519" lon="-1.740508"><ele>395</ele><time>2022-04-08T13:07:08Z</time><name>PT5657</name></trkpt>
<trkpt lat="53.487531" lon="-1.740502"><ele>395</ele><time>2022-04-08T13:07:09Z</time><name>PT5658</name></trkpt>
<trkpt lat="53.487542" lon="-1.740498"><ele>395</ele><time>2022-04-08T13:07:10Z</time><name>PT5659</name></trkpt>
<trkpt lat="53.487551" lon="-1.740495"><ele>394</ele><time>2022-04-08T13:07:11Z</time><name>PT5660</name></trkpt>
<trkpt lat="53.487557" lon="-1.740492"><ele>394</ele><time>2022-04-08T13:07:12Z</time><name>PT5661</name></trkpt>
<trkpt lat="53.487565" lon="-1.740462"><ele>395</ele><time>2022-04-08T13:07:16Z</time><name>PT5662</name></trkpt>
<trkpt lat="53.487591" lon="-1.740441"><ele>394</ele><time>2022-04-08T13:07:20Z</time><name>PT5663</name></trkpt>
<trkpt lat="53.487620" lon="-1.740452"><ele>394</ele><time>2022-04-08T13:07:24Z</time><name>PT5664</name></trkpt>
<trkpt lat="53.487652" lon="-1.740466"><ele>393</ele><time>2022-04-08T13:07:28Z</time><name>PT5665</name></trkpt>
<trkpt lat="53.487695" lon="-1.740475"><ele>392</ele><time>2022-04-08T13:07:32Z</time><name>PT5666</name></trkpt>
<trkpt lat="53.487733" lon="-1.740474"><ele>391</ele><time>2022-04-08T13:07:36Z</time><name>PT5667</name></trkpt>
<trkpt lat="53.487764" lon="-1.740470"><ele>391</ele><time>2022-04-08T13:07:40Z</time><name>PT5668</name></trkpt>
<trkpt lat="53.487795" lon="-1.740479"><ele>390</ele><time>2022-04-08T13:07:44Z</time><name>PT5669</name></trkpt>
<trkpt lat="53.487826" lon="-1.740462"><ele>390</ele><time>2022-04-08T13:07:48Z</time><name>PT5670</name></trkpt>
<trkpt lat="53.487872" lon="-1.740452"><ele>389</ele><time>2022-04-08T13:07:52Z</time><name>PT5671</name></trkpt>
<trkpt lat="53.487905" lon="-1.740446"><ele>389</ele><time>2022-04-08T13:07:56Z</time><name>PT5672</name></trkpt>
<trkpt lat="53.487943" lon="-1.740418"><ele>389</ele><time>2022-04-08T13:08:00Z</time><name>PT5673</name></trkpt>
<trkpt lat="53.487979" lon="-1.740415"><ele>388</ele><time>2022-04-08T13:08:04Z</time><name>PT5674</name></trkpt>
<trkpt lat="53.488011" lon="-1.740398"><ele>387</ele><time>2022-04-08T13:08:08Z</time><name>PT5675</name></trkpt>
<trkpt lat="53.488056" lon="-1.740378"><ele>387</ele><time>2022-04-08T13:08:12Z</time><name>PT5676</name></trkpt>
<trkpt lat="53.488089" lon="-1.740377"><ele>386</ele><time>2022-04-08T13:08:16Z</time><name>PT5677</name></trkpt>
<trkpt lat="53.488127" lon="-1.740386"><ele>385</ele><time>2022-04-08T13:08:20Z</time><name>PT5678</name></trkpt>
<trkpt lat="53.488159" lon="-1.740395"><ele>385</ele><time>2022-04-08T13:08:24Z</time><name>PT5679</name></trkpt>
<trkpt lat="53.488189" lon="-1.740401"><ele>384</ele><time>2022-04-08T13:08:28Z</time><name>PT5680</name></trkpt>
<trkpt lat="53.488199" lon="-1.740400"><ele>383</ele><time>2022-04-08T13:08:32Z</time><name>PT5681</name></trkpt>
<trkpt lat="53.488234" lon="-1.740397"><ele>382</ele><time>2022-04-08T13:08:40Z</time><name>PT5682</name></trkpt>
<trkpt lat="53.488275" lon="-1.740406"><ele>381</ele><time>2022-04-08T13:08:44Z</time><name>PT5683</name></trkpt>
<trkpt lat="53.488309" lon="-1.740378"><ele>380</ele><time>2022-04-08T13:08:48Z</time><name>PT5684</name></trkpt>
<trkpt lat="53.488331" lon="-1.740339"><ele>379</ele><time>2022-04-08T13:08:52Z</time><name>PT5685</name></trkpt>
<trkpt lat="53.488363" lon="-1.740304"><ele>379</ele><time>2022-04-08T13:08:56Z</time><name>PT5686</name></trkpt>
<trkpt lat="53.488407" lon="-1.740288"><ele>378</ele><time>2022-04-08T13:09:00Z</time><name>PT5687</name></trkpt>
<trkpt lat="53.488439" lon="-1.740247"><ele>378</ele><time>2022-04-08T13:09:04Z</time><name>PT5688</name></trkpt>
<trkpt lat="53.488454" lon="-1.740201"><ele>379</ele><time>2022-04-08T13:09:07Z</time><name>PT5689</name></trkpt>
<trkpt lat="53.488461" lon="-1.740191"><ele>378</ele><time>2022-04-08T13:09:08Z</time><name>PT5690</name></trkpt>
<trkpt lat="53.488470" lon="-1.740181"><ele>378</ele><time>2022-04-08T13:09:09Z</time><name>PT5691</name></trkpt>
<trkpt lat="53.488478" lon="-1.740170"><ele>378</ele><time>2022-04-08T13:09:10Z</time><name>PT5692</name></trkpt>
<trkpt lat="53.488484" lon="-1.740156"><ele>378</ele><time>2022-04-08T13:09:11Z</time><name>PT5693</name></trkpt>
<trkpt lat="53.488490" lon="-1.740143"><ele>377</ele><time>2022-04-08T13:09:12Z</time><name>PT5694</name></trkpt>
<trkpt lat="53.488498" lon="-1.740126"><ele>377</ele><time>2022-04-08T13:09:13Z</time><name>PT5695</name></trkpt>
<trkpt lat="53.488504" lon="-1.740108"><ele>377</ele><time>2022-04-08T13:09:14Z</time><name>PT5696</name></trkpt>
<trkpt lat="53.488509" lon="-1.740097"><ele>377</ele><time>2022-04-08T13:09:15Z</time><name>PT5697</name></trkpt>
<trkpt lat="53.488516" lon="-1.740084"><ele>376</ele><time>2022-04-08T13:09:16Z</time><name>PT5698</name></trkpt>
<trkpt lat="53.488521" lon="-1.740072"><ele>376</ele><time>2022-04-08T13:09:17Z</time><name>PT5699</name></trkpt>
<trkpt lat="53.488524" lon="-1.740061"><ele>376</ele><time>2022-04-08T13:09:18Z</time><name>PT5700</name></trkpt>
<trkpt lat="53.488527" lon="-1.740051"><ele>376</ele><time>2022-04-08T13:09:19Z</time><name>PT5701</name></trkpt>
<trkpt lat="53.488533" lon="-1.740041"><ele>376</ele><time>2022-04-08T13:09:20Z</time><name>PT5702</name></trkpt>
<trkpt lat="53.488537" lon="-1.740039"><ele>376</ele><time>2022-04-08T13:09:21Z</time><name>PT5703</name></trkpt>
<trkpt lat="53.488540" lon="-1.740037"><ele>376</ele><time>2022-04-08T13:09:22Z</time><name>PT5704</name></trkpt>
<trkpt lat="53.488542" lon="-1.740033"><ele>376</ele><time>2022-04-08T13:09:23Z</time><name>PT5705</name></trkpt>
<trkpt lat="53.488546" lon="-1.740031"><ele>376</ele><time>2022-04-08T13:09:25Z</time><name>PT5706</name></trkpt>
<trkpt lat="53.488548" lon="-1.740028"><ele>376</ele><time>2022-04-08T13:09:25Z</time><name>PT5707</name></trkpt>
<trkpt lat="53.488548" lon="-1.740026"><ele>376</ele><time>2022-04-08T13:09:26Z</time><name>PT5708</name></trkpt>
<trkpt lat="53.488550" lon="-1.740027"><ele>377</ele><time>2022-04-08T13:09:27Z</time><name>PT5709</name></trkpt>
<trkpt lat="53.488555" lon="-1.740025"><ele>377</ele><time>2022-04-08T13:09:28Z</time><name>PT5710</name></trkpt>
<trkpt lat="53.488560" lon="-1.740022"><ele>377</ele><time>2022-04-08T13:09:29Z</time><name>PT5711</name></trkpt>
<trkpt lat="53.488561" lon="-1.740022"><ele>377</ele><time>2022-04-08T13:09:30Z</time><name>PT5712</name></trkpt>
<trkpt lat="53.488564" lon="-1.740022"><ele>377</ele><time>2022-04-08T13:09:31Z</time><name>PT5713</name></trkpt>
<trkpt lat="53.488567" lon="-1.740019"><ele>377</ele><time>2022-04-08T13:09:35Z</time><name>PT5714</name></trkpt>
<trkpt lat="53.488578" lon="-1.740010"><ele>376</ele><time>2022-04-08T13:09:36Z</time><name>PT5715</name></trkpt>
<trkpt lat="53.488585" lon="-1.740000"><ele>376</ele><time>2022-04-08T13:09:37Z</time><name>PT5716</name></trkpt>
<trkpt lat="53.488587" lon="-1.739993"><ele>376</ele><time>2022-04-08T13:09:38Z</time><name>PT5717</name></trkpt>
<trkpt lat="53.488594" lon="-1.739981"><ele>375</ele><time>2022-04-08T13:09:39Z</time><name>PT5718</name></trkpt>
<trkpt lat="53.488601" lon="-1.739971"><ele>375</ele><time>2022-04-08T13:09:40Z</time><name>PT5719</name></trkpt>
<trkpt lat="53.488606" lon="-1.739962"><ele>375</ele><time>2022-04-08T13:09:41Z</time><name>PT5720</name></trkpt>
<trkpt lat="53.488613" lon="-1.739954"><ele>375</ele><time>2022-04-08T13:09:42Z</time><name>PT5721</name></trkpt>
<trkpt lat="53.488621" lon="-1.739945"><ele>374</ele><time>2022-04-08T13:09:43Z</time><name>PT5722</name></trkpt>
<trkpt lat="53.488630" lon="-1.739934"><ele>374</ele><time>2022-04-08T13:09:44Z</time><name>PT5723</name></trkpt>
<trkpt lat="53.488640" lon="-1.739923"><ele>374</ele><time>2022-04-08T13:09:45Z</time><name>PT5724</name></trkpt>
<trkpt lat="53.488652" lon="-1.739911"><ele>373</ele><time>2022-04-08T13:09:46Z</time><name>PT5725</name></trkpt>
<trkpt lat="53.488663" lon="-1.739899"><ele>373</ele><time>2022-04-08T13:09:47Z</time><name>PT5726</name></trkpt>
<trkpt lat="53.488674" lon="-1.739888"><ele>372</ele><time>2022-04-08T13:09:48Z</time><name>PT5727</name></trkpt>
<trkpt lat="53.488683" lon="-1.739872"><ele>372</ele><time>2022-04-08T13:09:49Z</time><name>PT5728</name></trkpt>
<trkpt lat="53.488692" lon="-1.739857"><ele>372</ele><time>2022-04-08T13:09:50Z</time><name>PT5729</name></trkpt>
<trkpt lat="53.488700" lon="-1.739846"><ele>372</ele><time>2022-04-08T13:09:51Z</time><name>PT5730</name></trkpt>
<trkpt lat="53.488710" lon="-1.739837"><ele>372</ele><time>2022-04-08T13:09:52Z</time><name>PT5731</name></trkpt>
<trkpt lat="53.488720" lon="-1.739828"><ele>372</ele><time>2022-04-08T13:09:53Z</time><name>PT5732</name></trkpt>
<trkpt lat="53.488732" lon="-1.739819"><ele>371</ele><time>2022-04-08T13:09:54Z</time><name>PT5733</name></trkpt>
<trkpt lat="53.488742" lon="-1.739806"><ele>371</ele><time>2022-04-08T13:09:55Z</time><name>PT5734</name></trkpt>
<trkpt lat="53.488749" lon="-1.739789"><ele>371</ele><time>2022-04-08T13:09:56Z</time><name>PT5735</name></trkpt>
<trkpt lat="53.488754" lon="-1.739773"><ele>370</ele><time>2022-04-08T13:09:57Z</time><name>PT5736</name></trkpt>
<trkpt lat="53.488759" lon="-1.739756"><ele>370</ele><time>2022-04-08T13:09:58Z</time><name>PT5737</name></trkpt>
<trkpt lat="53.488764" lon="-1.739744"><ele>370</ele><time>2022-04-08T13:09:59Z</time><name>PT5738</name></trkpt>
<trkpt lat="53.488769" lon="-1.739731"><ele>370</ele><time>2022-04-08T13:10:00Z</time><name>PT5739</name></trkpt>
<trkpt lat="53.488777" lon="-1.739718"><ele>370</ele><time>2022-04-08T13:10:01Z</time><name>PT5740</name></trkpt>
<trkpt lat="53.488784" lon="-1.739707"><ele>370</ele><time>2022-04-08T13:10:02Z</time><name>PT5741</name></trkpt>
<trkpt lat="53.488789" lon="-1.739699"><ele>370</ele><time>2022-04-08T13:10:03Z</time><name>PT5742</name></trkpt>
<trkpt lat="53.488794" lon="-1.739689"><ele>369</ele><time>2022-04-08T13:10:04Z</time><name>PT5743</name></trkpt>
<trkpt lat="53.488801" lon="-1.739676"><ele>369</ele><time>2022-04-08T13:10:05Z</time><name>PT5744</name></trkpt>
<trkpt lat="53.488807" lon="-1.739666"><ele>369</ele><time>2022-04-08T13:10:06Z</time><name>PT5745</name></trkpt>
<trkpt lat="53.488811" lon="-1.739648"><ele>369</ele><time>2022-04-08T13:10:07Z</time><name>PT5746</name></trkpt>
<trkpt lat="53.488815" lon="-1.739631"><ele>369</ele><time>2022-04-08T13:10:08Z</time><name>PT5747</name></trkpt>
<trkpt lat="53.488819" lon="-1.739617"><ele>369</ele><time>2022-04-08T13:10:09Z</time><name>PT5748</name></trkpt>
<trkpt lat="53.488825" lon="-1.739605"><ele>368</ele><time>2022-04-08T13:10:10Z</time><name>PT5749</name></trkpt>
<trkpt lat="53.488832" lon="-1.739595"><ele>368</ele><time>2022-04-08T13:10:11Z</time><name>PT5750</name></trkpt>
<trkpt lat="53.488839" lon="-1.739587"><ele>368</ele><time>2022-04-08T13:10:12Z</time><name>PT5751</name></trkpt>
<trkpt lat="53.488849" lon="-1.739577"><ele>368</ele><time>2022-04-08T13:10:13Z</time><name>PT5752</name></trkpt>
<trkpt lat="53.488857" lon="-1.739564"><ele>368</ele><time>2022-04-08T13:10:14Z</time><name>PT5753</name></trkpt>
<trkpt lat="53.488865" lon="-1.739554"><ele>367</ele><time>2022-04-08T13:10:15Z</time><name>PT5754</name></trkpt>
<trkpt lat="53.488871" lon="-1.739549"><ele>367</ele><time>2022-04-08T13:10:16Z</time><name>PT5755</name></trkpt>
<trkpt lat="53.488874" lon="-1.739546"><ele>367</ele><time>2022-04-08T13:10:17Z</time><name>PT5756</name></trkpt>
<trkpt lat="53.488876" lon="-1.739537"><ele>366</ele><time>2022-04-08T13:10:18Z</time><name>PT5757</name></trkpt>
<trkpt lat="53.488877" lon="-1.739524"><ele>366</ele><time>2022-04-08T13:10:19Z</time><name>PT5758</name></trkpt>
<trkpt lat="53.488879" lon="-1.739515"><ele>367</ele><time>2022-04-08T13:10:20Z</time><name>PT5759</name></trkpt>
<trkpt lat="53.488883" lon="-1.739507"><ele>367</ele><time>2022-04-08T13:10:21Z</time><name>PT5760</name></trkpt>
<trkpt lat="53.488887" lon="-1.739499"><ele>367</ele><time>2022-04-08T13:10:22Z</time><name>PT5761</name></trkpt>
<trkpt lat="53.488889" lon="-1.739491"><ele>367</ele><time>2022-04-08T13:10:23Z</time><name>PT5762</name></trkpt>
<trkpt lat="53.488893" lon="-1.739484"><ele>366</ele><time>2022-04-08T13:10:24Z</time><name>PT5763</name></trkpt>
<trkpt lat="53.488902" lon="-1.739474"><ele>366</ele><time>2022-04-08T13:10:25Z</time><name>PT5764</name></trkpt>
<trkpt lat="53.488909" lon="-1.739466"><ele>366</ele><time>2022-04-08T13:10:26Z</time><name>PT5765</name></trkpt>
<trkpt lat="53.488914" lon="-1.739461"><ele>366</ele><time>2022-04-08T13:10:27Z</time><name>PT5766</name></trkpt>
<trkpt lat="53.488921" lon="-1.739454"><ele>366</ele><time>2022-04-08T13:10:28Z</time><name>PT5767</name></trkpt>
<trkpt lat="53.488931" lon="-1.739441"><ele>366</ele><time>2022-04-08T13:10:29Z</time><name>PT5768</name></trkpt>
<trkpt lat="53.488938" lon="-1.739431"><ele>366</ele><time>2022-04-08T13:10:30Z</time><name>PT5769</name></trkpt>
<trkpt lat="53.488943" lon="-1.739420"><ele>366</ele><time>2022-04-08T13:10:31Z</time><name>PT5770</name></trkpt>
<trkpt lat="53.488948" lon="-1.739408"><ele>366</ele><time>2022-04-08T13:10:32Z</time><name>PT5771</name></trkpt>
<trkpt lat="53.488954" lon="-1.739403"><ele>366</ele><time>2022-04-08T13:10:33Z</time><name>PT5772</name></trkpt>
<trkpt lat="53.488961" lon="-1.739400"><ele>366</ele><time>2022-04-08T13:10:34Z</time><name>PT5773</name></trkpt>
<trkpt lat="53.488970" lon="-1.739392"><ele>366</ele><time>2022-04-08T13:10:35Z</time><name>PT5774</name></trkpt>
<trkpt lat="53.488977" lon="-1.739384"><ele>366</ele><time>2022-04-08T13:10:36Z</time><name>PT5775</name></trkpt>
<trkpt lat="53.488983" lon="-1.739376"><ele>366</ele><time>2022-04-08T13:10:37Z</time><name>PT5776</name></trkpt>
<trkpt lat="53.488993" lon="-1.739371"><ele>365</ele><time>2022-04-08T13:10:38Z</time><name>PT5777</name></trkpt>
<trkpt lat="53.489002" lon="-1.739371"><ele>365</ele><time>2022-04-08T13:10:39Z</time><name>PT5778</name></trkpt>
<trkpt lat="53.489010" lon="-1.739371"><ele>366</ele><time>2022-04-08T13:10:40Z</time><name>PT5779</name></trkpt>
<trkpt lat="53.489018" lon="-1.739370"><ele>365</ele><time>2022-04-08T13:10:41Z</time><name>PT5780</name></trkpt>
<trkpt lat="53.489027" lon="-1.739368"><ele>365</ele><time>2022-04-08T13:10:42Z</time><name>PT5781</name></trkpt>
<trkpt lat="53.489034" lon="-1.739362"><ele>365</ele><time>2022-04-08T13:10:43Z</time><name>PT5782</name></trkpt>
<trkpt lat="53.489043" lon="-1.739348"><ele>365</ele><time>2022-04-08T13:10:44Z</time><name>PT5783</name></trkpt>
<trkpt lat="53.489051" lon="-1.739333"><ele>365</ele><time>2022-04-08T13:10:45Z</time><name>PT5784</name></trkpt>
<trkpt lat="53.489058" lon="-1.739321"><ele>364</ele><time>2022-04-08T13:10:46Z</time><name>PT5785</name></trkpt>
<trkpt lat="53.489068" lon="-1.739312"><ele>364</ele><time>2022-04-08T13:10:47Z</time><name>PT5786</name></trkpt>
<trkpt lat="53.489078" lon="-1.739303"><ele>364</ele><time>2022-04-08T13:10:48Z</time><name>PT5787</name></trkpt>
<trkpt lat="53.489089" lon="-1.739290"><ele>363</ele><time>2022-04-08T13:10:49Z</time><name>PT5788</name></trkpt>
<trkpt lat="53.489096" lon="-1.739281"><ele>363</ele><time>2022-04-08T13:10:50Z</time><name>PT5789</name></trkpt>
<trkpt lat="53.489098" lon="-1.739281"><ele>363</ele><time>2022-04-08T13:10:51Z</time><name>PT5790</name></trkpt>
<trkpt lat="53.489098" lon="-1.739281"><ele>363</ele><time>2022-04-08T13:10:52Z</time><name>PT5791</name></trkpt>
<trkpt lat="53.489099" lon="-1.739280"><ele>363</ele><time>2022-04-08T13:10:53Z</time><name>PT5792</name></trkpt>
<trkpt lat="53.489101" lon="-1.739282"><ele>363</ele><time>2022-04-08T13:10:57Z</time><name>PT5793</name></trkpt>
<trkpt lat="53.489109" lon="-1.739279"><ele>362</ele><time>2022-04-08T13:10:58Z</time><name>PT5794</name></trkpt>
<trkpt lat="53.489119" lon="-1.739273"><ele>362</ele><time>2022-04-08T13:10:59Z</time><name>PT5795</name></trkpt>
<trkpt lat="53.489128" lon="-1.739269"><ele>362</ele><time>2022-04-08T13:11:00Z</time><name>PT5796</name></trkpt>
<trkpt lat="53.489140" lon="-1.739264"><ele>361</ele><time>2022-04-08T13:11:01Z</time><name>PT5797</name></trkpt>
<trkpt lat="53.489153" lon="-1.739256"><ele>361</ele><time>2022-04-08T13:11:02Z</time><name>PT5798</name></trkpt>
<trkpt lat="53.489161" lon="-1.739247"><ele>361</ele><time>2022-04-08T13:11:03Z</time><name>PT5799</name></trkpt>
<trkpt lat="53.489167" lon="-1.739235"><ele>361</ele><time>2022-04-08T13:11:04Z</time><name>PT5800</name></trkpt>
<trkpt lat="53.489176" lon="-1.739221"><ele>361</ele><time>2022-04-08T13:11:05Z</time><name>PT5801</name></trkpt>
<trkpt lat="53.489184" lon="-1.739210"><ele>361</ele><time>2022-04-08T13:11:06Z</time><name>PT5802</name></trkpt>
<trkpt lat="53.489193" lon="-1.739198"><ele>361</ele><time>2022-04-08T13:11:07Z</time><name>PT5803</name></trkpt>
<trkpt lat="53.489215" lon="-1.739173"><ele>360</ele><time>2022-04-08T13:11:10Z</time><name>PT5804</name></trkpt>
<trkpt lat="53.489250" lon="-1.739132"><ele>359</ele><time>2022-04-08T13:11:14Z</time><name>PT5805</name></trkpt>
<trkpt lat="53.489286" lon="-1.739109"><ele>359</ele><time>2022-04-08T13:11:18Z</time><name>PT5806</name></trkpt>
<trkpt lat="53.489321" lon="-1.739079"><ele>358</ele><time>2022-04-08T13:11:22Z</time><name>PT5807</name></trkpt>
<trkpt lat="53.489360" lon="-1.739041"><ele>358</ele><time>2022-04-08T13:11:26Z</time><name>PT5808</name></trkpt>
<trkpt lat="53.489396" lon="-1.739032"><ele>358</ele><time>2022-04-08T13:11:30Z</time><name>PT5809</name></trkpt>
<trkpt lat="53.489421" lon="-1.739024"><ele>357</ele><time>2022-04-08T13:11:34Z</time><name>PT5810</name></trkpt>
<trkpt lat="53.489436" lon="-1.739022"><ele>357</ele><time>2022-04-08T13:11:38Z</time><name>PT5811</name></trkpt>
<trkpt lat="53.489470" lon="-1.739005"><ele>356</ele><time>2022-04-08T13:11:42Z</time><name>PT5812</name></trkpt>
<trkpt lat="53.489509" lon="-1.738983"><ele>355</ele><time>2022-04-08T13:11:46Z</time><name>PT5813</name></trkpt>
<trkpt lat="53.489534" lon="-1.738975"><ele>354</ele><time>2022-04-08T13:11:50Z</time><name>PT5814</name></trkpt>
<trkpt lat="53.489536" lon="-1.738975"><ele>354</ele><time>2022-04-08T13:11:54Z</time><name>PT5815</name></trkpt>
<trkpt lat="53.489559" lon="-1.738958"><ele>354</ele><time>2022-04-08T13:12:10Z</time><name>PT5816</name></trkpt>
<trkpt lat="53.489596" lon="-1.738908"><ele>354</ele><time>2022-04-08T13:12:14Z</time><name>PT5817</name></trkpt>
<trkpt lat="53.489632" lon="-1.738883"><ele>353</ele><time>2022-04-08T13:12:18Z</time><name>PT5818</name></trkpt>
<trkpt lat="53.489665" lon="-1.738867"><ele>353</ele><time>2022-04-08T13:12:22Z</time><name>PT5819</name></trkpt>
<trkpt lat="53.489704" lon="-1.738865"><ele>353</ele><time>2022-04-08T13:12:26Z</time><name>PT5820</name></trkpt>
<trkpt lat="53.489738" lon="-1.738843"><ele>352</ele><time>2022-04-08T13:12:30Z</time><name>PT5821</name></trkpt>
<trkpt lat="53.489765" lon="-1.738829"><ele>351</ele><time>2022-04-08T13:12:34Z</time><name>PT5822</name></trkpt>
<trkpt lat="53.489796" lon="-1.738818"><ele>350</ele><time>2022-04-08T13:12:38Z</time><name>PT5823</name></trkpt>
<trkpt lat="53.489826" lon="-1.738811"><ele>350</ele><time>2022-04-08T13:12:42Z</time><name>PT5824</name></trkpt>
<trkpt lat="53.489857" lon="-1.738798"><ele>349</ele><time>2022-04-08T13:12:46Z</time><name>PT5825</name></trkpt>
<trkpt lat="53.489890" lon="-1.738792"><ele>348</ele><time>2022-04-08T13:12:50Z</time><name>PT5826</name></trkpt>
<trkpt lat="53.489928" lon="-1.738795"><ele>347</ele><time>2022-04-08T13:12:54Z</time><name>PT5827</name></trkpt>
<trkpt lat="53.489961" lon="-1.738777"><ele>346</ele><time>2022-04-08T13:12:58Z</time><name>PT5828</name></trkpt>
<trkpt lat="53.489992" lon="-1.738755"><ele>345</ele><time>2022-04-08T13:13:02Z</time><name>PT5829</name></trkpt>
<trkpt lat="53.490017" lon="-1.738762"><ele>344</ele><time>2022-04-08T13:13:06Z</time><name>PT5830</name></trkpt>
<trkpt lat="53.490034" lon="-1.738769"><ele>343</ele><time>2022-04-08T13:13:10Z</time><name>PT5831</name></trkpt>
<trkpt lat="53.490063" lon="-1.738776"><ele>342</ele><time>2022-04-08T13:13:14Z</time><name>PT5832</name></trkpt>
<trkpt lat="53.490096" lon="-1.738783"><ele>342</ele><time>2022-04-08T13:13:18Z</time><name>PT5833</name></trkpt>
<trkpt lat="53.490124" lon="-1.738778"><ele>341</ele><time>2022-04-08T13:13:22Z</time><name>PT5834</name></trkpt>
<trkpt lat="53.490129" lon="-1.738781"><ele>341</ele><time>2022-04-08T13:13:26Z</time><name>PT5835</name></trkpt>
<trkpt lat="53.490149" lon="-1.738779"><ele>340</ele><time>2022-04-08T13:13:46Z</time><name>PT5836</name></trkpt>
<trkpt lat="53.490183" lon="-1.738767"><ele>339</ele><time>2022-04-08T13:13:50Z</time><name>PT5837</name></trkpt>
<trkpt lat="53.490216" lon="-1.738735"><ele>338</ele><time>2022-04-08T13:13:54Z</time><name>PT5838</name></trkpt>
<trkpt lat="53.490246" lon="-1.738697"><ele>337</ele><time>2022-04-08T13:13:58Z</time><name>PT5839</name></trkpt>
<trkpt lat="53.490275" lon="-1.738688"><ele>336</ele><time>2022-04-08T13:14:02Z</time><name>PT5840</name></trkpt>
<trkpt lat="53.490302" lon="-1.738687"><ele>334</ele><time>2022-04-08T13:14:06Z</time><name>PT5841</name></trkpt>
<trkpt lat="53.490312" lon="-1.738736"><ele>333</ele><time>2022-04-08T13:14:10Z</time><name>PT5842</name></trkpt>
<trkpt lat="53.490312" lon="-1.738781"><ele>333</ele><time>2022-04-08T13:14:14Z</time><name>PT5843</name></trkpt>
<trkpt lat="53.490326" lon="-1.738821"><ele>331</ele><time>2022-04-08T13:14:18Z</time><name>PT5844</name></trkpt>
<trkpt lat="53.490351" lon="-1.738820"><ele>330</ele><time>2022-04-08T13:14:22Z</time><name>PT5845</name></trkpt>
<trkpt lat="53.490369" lon="-1.738765"><ele>328</ele><time>2022-04-08T13:14:26Z</time><name>PT5846</name></trkpt>
<trkpt lat="53.490394" lon="-1.738708"><ele>327</ele><time>2022-04-08T13:14:30Z</time><name>PT5847</name></trkpt>
<trkpt lat="53.490408" lon="-1.738647"><ele>326</ele><time>2022-04-08T13:14:34Z</time><name>PT5848</name></trkpt>
<trkpt lat="53.490435" lon="-1.738608"><ele>326</ele><time>2022-04-08T13:14:38Z</time><name>PT5849</name></trkpt>
<trkpt lat="53.490452" lon="-1.738571"><ele>326</ele><time>2022-04-08T13:14:42Z</time><name>PT5850</name></trkpt>
<trkpt lat="53.490460" lon="-1.738571"><ele>326</ele><time>2022-04-08T13:14:46Z</time><name>PT5851</name></trkpt>
<trkpt lat="53.490470" lon="-1.738560"><ele>327</ele><time>2022-04-08T13:14:50Z</time><name>PT5852</name></trkpt>
<trkpt lat="53.490471" lon="-1.738562"><ele>326</ele><time>2022-04-08T13:14:53Z</time><name>PT5853</name></trkpt>
<trkpt lat="53.490472" lon="-1.738561"><ele>326</ele><time>2022-04-08T13:14:53Z</time><name>PT5854</name></trkpt>
<trkpt lat="53.490472" lon="-1.738562"><ele>326</ele><time>2022-04-08T13:14:54Z</time><name>PT5855</name></trkpt>
<trkpt lat="53.490471" lon="-1.738556"><ele>326</ele><time>2022-04-08T13:14:57Z</time><name>PT5856</name></trkpt>
<trkpt lat="53.490477" lon="-1.738560"><ele>326</ele><time>2022-04-08T13:14:58Z</time><name>PT5857</name></trkpt>
<trkpt lat="53.490481" lon="-1.738554"><ele>326</ele><time>2022-04-08T13:15:00Z</time><name>PT5858</name></trkpt>
<trkpt lat="53.490484" lon="-1.738549"><ele>325</ele><time>2022-04-08T13:15:01Z</time><name>PT5859</name></trkpt>
<trkpt lat="53.490492" lon="-1.738554"><ele>326</ele><time>2022-04-08T13:15:18Z</time><name>PT5860</name></trkpt>
<trkpt lat="53.490498" lon="-1.738554"><ele>326</ele><time>2022-04-08T13:15:19Z</time><name>PT5861</name></trkpt>
<trkpt lat="53.490505" lon="-1.738552"><ele>326</ele><time>2022-04-08T13:15:20Z</time><name>PT5862</name></trkpt>
<trkpt lat="53.490509" lon="-1.738550"><ele>326</ele><time>2022-04-08T13:15:21Z</time><name>PT5863</name></trkpt>
<trkpt lat="53.490514" lon="-1.738548"><ele>326</ele><time>2022-04-08T13:15:22Z</time><name>PT5864</name></trkpt>
<trkpt lat="53.490523" lon="-1.738551"><ele>325</ele><time>2022-04-08T13:15:23Z</time><name>PT5865</name></trkpt>
<trkpt lat="53.490528" lon="-1.738549"><ele>325</ele><time>2022-04-08T13:15:24Z</time><name>PT5866</name></trkpt>
<trkpt lat="53.490531" lon="-1.738550"><ele>325</ele><time>2022-04-08T13:15:25Z</time><name>PT5867</name></trkpt>
<trkpt lat="53.490532" lon="-1.738553"><ele>325</ele><time>2022-04-08T13:15:26Z</time><name>PT5868</name></trkpt>
<trkpt lat="53.490533" lon="-1.738553"><ele>325</ele><time>2022-04-08T13:15:27Z</time><name>PT5869</name></trkpt>
<trkpt lat="53.490537" lon="-1.738553"><ele>325</ele><time>2022-04-08T13:15:28Z</time><name>PT5870</name></trkpt>
<trkpt lat="53.490538" lon="-1.738553"><ele>325</ele><time>2022-04-08T13:15:29Z</time><name>PT5871</name></trkpt>
<trkpt lat="53.490546" lon="-1.738568"><ele>325</ele><time>2022-04-08T13:16:29Z</time><name>PT5872</name></trkpt>
<trkpt lat="53.490542" lon="-1.738581"><ele>325</ele><time>2022-04-08T13:16:30Z</time><name>PT5873</name></trkpt>
<trkpt lat="53.490534" lon="-1.738585"><ele>326</ele><time>2022-04-08T13:16:31Z</time><name>PT5874</name></trkpt>
<trkpt lat="53.490525" lon="-1.738584"><ele>326</ele><time>2022-04-08T13:16:32Z</time><name>PT5875</name></trkpt>
<trkpt lat="53.490518" lon="-1.738582"><ele>327</ele><time>2022-04-08T13:16:33Z</time><name>PT5876</name></trkpt>
<trkpt lat="53.490521" lon="-1.738581"><ele>327</ele><time>2022-04-08T13:16:34Z</time><name>PT5877</name></trkpt>
<trkpt lat="53.490517" lon="-1.738578"><ele>325</ele><time>2022-04-08T13:16:35Z</time><name>PT5878</name></trkpt>
<trkpt lat="53.490516" lon="-1.738581"><ele>326</ele><time>2022-04-08T13:16:36Z</time><name>PT5879</name></trkpt>
<trkpt lat="53.490515" lon="-1.738581"><ele>325</ele><time>2022-04-08T13:16:37Z</time><name>PT5880</name></trkpt>
<trkpt lat="53.490517" lon="-1.738585"><ele>326</ele><time>2022-04-08T13:16:59Z</time><name>PT5881</name></trkpt>
<trkpt lat="53.490524" lon="-1.738590"><ele>326</ele><time>2022-04-08T13:17:00Z</time><name>PT5882</name></trkpt>
<trkpt lat="53.490529" lon="-1.738592"><ele>326</ele><time>2022-04-08T13:17:01Z</time><name>PT5883</name></trkpt>
<trkpt lat="53.490534" lon="-1.738588"><ele>326</ele><time>2022-04-08T13:17:02Z</time><name>PT5884</name></trkpt>
<trkpt lat="53.490546" lon="-1.738589"><ele>326</ele><time>2022-04-08T13:17:03Z</time><name>PT5885</name></trkpt>
<trkpt lat="53.490553" lon="-1.738586"><ele>326</ele><time>2022-04-08T13:17:04Z</time><name>PT5886</name></trkpt>
<trkpt lat="53.490556" lon="-1.738578"><ele>326</ele><time>2022-04-08T13:17:05Z</time><name>PT5887</name></trkpt>
<trkpt lat="53.490557" lon="-1.738574"><ele>326</ele><time>2022-04-08T13:17:06Z</time><name>PT5888</name></trkpt>
<trkpt lat="53.490560" lon="-1.738572"><ele>326</ele><time>2022-04-08T13:17:07Z</time><name>PT5889</name></trkpt>
<trkpt lat="53.490562" lon="-1.738569"><ele>326</ele><time>2022-04-08T13:17:08Z</time><name>PT5890</name></trkpt>
<trkpt lat="53.490565" lon="-1.738566"><ele>326</ele><time>2022-04-08T13:17:09Z</time><name>PT5891</name></trkpt>
<trkpt lat="53.490564" lon="-1.738567"><ele>327</ele><time>2022-04-08T13:17:12Z</time><name>PT5892</name></trkpt>
<trkpt lat="53.490563" lon="-1.738575"><ele>327</ele><time>2022-04-08T13:17:13Z</time><name>PT5893</name></trkpt>
<trkpt lat="53.490565" lon="-1.738571"><ele>326</ele><time>2022-04-08T13:17:16Z</time><name>PT5894</name></trkpt>
<trkpt lat="53.490566" lon="-1.738568"><ele>327</ele><time>2022-04-08T13:17:17Z</time><name>PT5895</name></trkpt>
<trkpt lat="53.490561" lon="-1.738570"><ele>327</ele><time>2022-04-08T13:17:32Z</time><name>PT5896</name></trkpt>
<trkpt lat="53.490565" lon="-1.738573"><ele>326</ele><time>2022-04-08T13:17:36Z</time><name>PT5897</name></trkpt>
<trkpt lat="53.490588" lon="-1.738593"><ele>327</ele><time>2022-04-08T13:18:56Z</time><name>PT5898</name></trkpt>
<trkpt lat="53.490628" lon="-1.738589"><ele>326</ele><time>2022-04-08T13:19:00Z</time><name>PT5899</name></trkpt>
<trkpt lat="53.490661" lon="-1.738583"><ele>326</ele><time>2022-04-08T13:19:04Z</time><name>PT5900</name></trkpt>
<trkpt lat="53.490695" lon="-1.738572"><ele>326</ele><time>2022-04-08T13:19:08Z</time><name>PT5901</name></trkpt>
<trkpt lat="53.490731" lon="-1.738559"><ele>327</ele><time>2022-04-08T13:19:12Z</time><name>PT5902</name></trkpt>
<trkpt lat="53.490770" lon="-1.738543"><ele>326</ele><time>2022-04-08T13:19:16Z</time><name>PT5903</name></trkpt>
<trkpt lat="53.490804" lon="-1.738524"><ele>326</ele><time>2022-04-08T13:19:20Z</time><name>PT5904</name></trkpt>
<trkpt lat="53.490848" lon="-1.738513"><ele>327</ele><time>2022-04-08T13:19:24Z</time><name>PT5905</name></trkpt>
<trkpt lat="53.490885" lon="-1.738488"><ele>328</ele><time>2022-04-08T13:19:28Z</time><name>PT5906</name></trkpt>
<trkpt lat="53.490922" lon="-1.738473"><ele>329</ele><time>2022-04-08T13:19:32Z</time><name>PT5907</name></trkpt>
<trkpt lat="53.490956" lon="-1.738448"><ele>330</ele><time>2022-04-08T13:19:36Z</time><name>PT5908</name></trkpt>
<trkpt lat="53.490991" lon="-1.738427"><ele>330</ele><time>2022-04-08T13:19:40Z</time><name>PT5909</name></trkpt>
<trkpt lat="53.491022" lon="-1.738399"><ele>330</ele><time>2022-04-08T13:19:44Z</time><name>PT5910</name></trkpt>
<trkpt lat="53.491055" lon="-1.738363"><ele>330</ele><time>2022-04-08T13:19:48Z</time><name>PT5911</name></trkpt>
<trkpt lat="53.491083" lon="-1.738322"><ele>331</ele><time>2022-04-08T13:19:52Z</time><name>PT5912</name></trkpt>
<trkpt lat="53.491113" lon="-1.738275"><ele>332</ele><time>2022-04-08T13:19:56Z</time><name>PT5913</name></trkpt>
<trkpt lat="53.491137" lon="-1.738230"><ele>331</ele><time>2022-04-08T13:20:00Z</time><name>PT5914</name></trkpt>
<trkpt lat="53.491163" lon="-1.738175"><ele>332</ele><time>2022-04-08T13:20:04Z</time><name>PT5915</name></trkpt>
<trkpt lat="53.491186" lon="-1.738119"><ele>333</ele><time>2022-04-08T13:20:08Z</time><name>PT5916</name></trkpt>
<trkpt lat="53.491206" lon="-1.738058"><ele>334</ele><time>2022-04-08T13:20:12Z</time><name>PT5917</name></trkpt>
<trkpt lat="53.491223" lon="-1.738010"><ele>334</ele><time>2022-04-08T13:20:16Z</time><name>PT5918</name></trkpt>
<trkpt lat="53.491241" lon="-1.737951"><ele>334</ele><time>2022-04-08T13:20:20Z</time><name>PT5919</name></trkpt>
<trkpt lat="53.491260" lon="-1.737892"><ele>334</ele><time>2022-04-08T13:20:24Z</time><name>PT5920</name></trkpt>
<trkpt lat="53.491275" lon="-1.737838"><ele>335</ele><time>2022-04-08T13:20:28Z</time><name>PT5921</name></trkpt>
<trkpt lat="53.491292" lon="-1.737770"><ele>335</ele><time>2022-04-08T13:20:32Z</time><name>PT5922</name></trkpt>
<trkpt lat="53.491308" lon="-1.737708"><ele>335</ele><time>2022-04-08T13:20:36Z</time><name>PT5923</name></trkpt>
<trkpt lat="53.491320" lon="-1.737645"><ele>335</ele><time>2022-04-08T13:20:40Z</time><name>PT5924</name></trkpt>
<trkpt lat="53.491334" lon="-1.737568"><ele>336</ele><time>2022-04-08T13:20:44Z</time><name>PT5925</name></trkpt>
<trkpt lat="53.491354" lon="-1.737505"><ele>336</ele><time>2022-04-08T13:20:48Z</time><name>PT5926</name></trkpt>
<trkpt lat="53.491378" lon="-1.737444"><ele>336</ele><time>2022-04-08T13:20:52Z</time><name>PT5927</name></trkpt>
<trkpt lat="53.491402" lon="-1.737386"><ele>337</ele><time>2022-04-08T13:20:56Z</time><name>PT5928</name></trkpt>
<trkpt lat="53.491423" lon="-1.737327"><ele>338</ele><time>2022-04-08T13:21:00Z</time><name>PT5929</name></trkpt>
<trkpt lat="53.491438" lon="-1.737272"><ele>339</ele><time>2022-04-08T13:21:04Z</time><name>PT5930</name></trkpt>
<trkpt lat="53.491461" lon="-1.737211"><ele>339</ele><time>2022-04-08T13:21:08Z</time><name>PT5931</name></trkpt>
<trkpt lat="53.491484" lon="-1.737137"><ele>340</ele><time>2022-04-08T13:21:12Z</time><name>PT5932</name></trkpt>
<trkpt lat="53.491497" lon="-1.737078"><ele>341</ele><time>2022-04-08T13:21:16Z</time><name>PT5933</name></trkpt>
<trkpt lat="53.491517" lon="-1.737013"><ele>342</ele><time>2022-04-08T13:21:20Z</time><name>PT5934</name></trkpt>
<trkpt lat="53.491535" lon="-1.736945"><ele>342</ele><time>2022-04-08T13:21:24Z</time><name>PT5935</name></trkpt>
<trkpt lat="53.491549" lon="-1.736883"><ele>342</ele><time>2022-04-08T13:21:28Z</time><name>PT5936</name></trkpt>
<trkpt lat="53.491567" lon="-1.736806"><ele>343</ele><time>2022-04-08T13:21:32Z</time><name>PT5937</name></trkpt>
<trkpt lat="53.491582" lon="-1.736747"><ele>343</ele><time>2022-04-08T13:21:36Z</time><name>PT5938</name></trkpt>
<trkpt lat="53.491596" lon="-1.736695"><ele>343</ele><time>2022-04-08T13:21:40Z</time><name>PT5939</name></trkpt>
<trkpt lat="53.491612" lon="-1.736648"><ele>344</ele><time>2022-04-08T13:21:44Z</time><name>PT5940</name></trkpt>
<trkpt lat="53.491632" lon="-1.736587"><ele>345</ele><time>2022-04-08T13:21:48Z</time><name>PT5941</name></trkpt>
<trkpt lat="53.491645" lon="-1.736533"><ele>345</ele><time>2022-04-08T13:21:52Z</time><name>PT5942</name></trkpt>
<trkpt lat="53.491657" lon="-1.736480"><ele>345</ele><time>2022-04-08T13:21:56Z</time><name>PT5943</name></trkpt>
<trkpt lat="53.491672" lon="-1.736418"><ele>345</ele><time>2022-04-08T13:22:00Z</time><name>PT5944</name></trkpt>
<trkpt lat="53.491685" lon="-1.736356"><ele>346</ele><time>2022-04-08T13:22:04Z</time><name>PT5945</name></trkpt>
<trkpt lat="53.491689" lon="-1.736302"><ele>346</ele><time>2022-04-08T13:22:08Z</time><name>PT5946</name></trkpt>
<trkpt lat="53.491690" lon="-1.736247"><ele>346</ele><time>2022-04-08T13:22:12Z</time><name>PT5947</name></trkpt>
<trkpt lat="53.491701" lon="-1.736189"><ele>346</ele><time>2022-04-08T13:22:16Z</time><name>PT5948</name></trkpt>
<trkpt lat="53.491705" lon="-1.736129"><ele>347</ele><time>2022-04-08T13:22:20Z</time><name>PT5949</name></trkpt>
<trkpt lat="53.491716" lon="-1.736063"><ele>347</ele><time>2022-04-08T13:22:24Z</time><name>PT5950</name></trkpt>
<trkpt lat="53.491729" lon="-1.735996"><ele>347</ele><time>2022-04-08T13:22:28Z</time><name>PT5951</name></trkpt>
<trkpt lat="53.491742" lon="-1.735938"><ele>349</ele><time>2022-04-08T13:22:32Z</time><name>PT5952</name></trkpt>
<trkpt lat="53.491755" lon="-1.735887"><ele>349</ele><time>2022-04-08T13:22:36Z</time><name>PT5953</name></trkpt>
<trkpt lat="53.491771" lon="-1.735837"><ele>348</ele><time>2022-04-08T13:22:40Z</time><name>PT5954</name></trkpt>
<trkpt lat="53.491786" lon="-1.735786"><ele>349</ele><time>2022-04-08T13:22:44Z</time><name>PT5955</name></trkpt>
<trkpt lat="53.491803" lon="-1.735737"><ele>350</ele><time>2022-04-08T13:22:48Z</time><name>PT5956</name></trkpt>
<trkpt lat="53.491824" lon="-1.735682"><ele>351</ele><time>2022-04-08T13:22:52Z</time><name>PT5957</name></trkpt>
<trkpt lat="53.491848" lon="-1.735636"><ele>351</ele><time>2022-04-08T13:22:56Z</time><name>PT5958</name></trkpt>
<trkpt lat="53.491873" lon="-1.735599"><ele>351</ele><time>2022-04-08T13:23:00Z</time><name>PT5959</name></trkpt>
<trkpt lat="53.491894" lon="-1.735559"><ele>350</ele><time>2022-04-08T13:23:04Z</time><name>PT5960</name></trkpt>
<trkpt lat="53.491917" lon="-1.735531"><ele>350</ele><time>2022-04-08T13:23:08Z</time><name>PT5961</name></trkpt>
<trkpt lat="53.491944" lon="-1.735506"><ele>351</ele><time>2022-04-08T13:23:12Z</time><name>PT5962</name></trkpt>
<trkpt lat="53.491977" lon="-1.735477"><ele>352</ele><time>2022-04-08T13:23:16Z</time><name>PT5963</name></trkpt>
<trkpt lat="53.492009" lon="-1.735455"><ele>353</ele><time>2022-04-08T13:23:20Z</time><name>PT5964</name></trkpt>
<trkpt lat="53.492038" lon="-1.735433"><ele>354</ele><time>2022-04-08T13:23:24Z</time><name>PT5965</name></trkpt>
<trkpt lat="53.492063" lon="-1.735415"><ele>354</ele><time>2022-04-08T13:23:28Z</time><name>PT5966</name></trkpt>
<trkpt lat="53.492089" lon="-1.735400"><ele>355</ele><time>2022-04-08T13:23:32Z</time><name>PT5967</name></trkpt>
<trkpt lat="53.492109" lon="-1.735388"><ele>356</ele><time>2022-04-08T13:23:36Z</time><name>PT5968</name></trkpt>
<trkpt lat="53.492137" lon="-1.735380"><ele>357</ele><time>2022-04-08T13:23:40Z</time><name>PT5969</name></trkpt>
<trkpt lat="53.492161" lon="-1.735366"><ele>357</ele><time>2022-04-08T13:23:44Z</time><name>PT5970</name></trkpt>
<trkpt lat="53.492185" lon="-1.735353"><ele>359</ele><time>2022-04-08T13:23:48Z</time><name>PT5971</name></trkpt>
<trkpt lat="53.492215" lon="-1.735342"><ele>359</ele><time>2022-04-08T13:23:52Z</time><name>PT5972</name></trkpt>
<trkpt lat="53.492252" lon="-1.735331"><ele>361</ele><time>2022-04-08T13:23:56Z</time><name>PT5973</name></trkpt>
<trkpt lat="53.492277" lon="-1.735316"><ele>361</ele><time>2022-04-08T13:24:00Z</time><name>PT5974</name></trkpt>
<trkpt lat="53.492305" lon="-1.735304"><ele>362</ele><time>2022-04-08T13:24:04Z</time><name>PT5975</name></trkpt>
<trkpt lat="53.492335" lon="-1.735291"><ele>363</ele><time>2022-04-08T13:24:08Z</time><name>PT5976</name></trkpt>
<trkpt lat="53.492369" lon="-1.735286"><ele>365</ele><time>2022-04-08T13:24:12Z</time><name>PT5977</name></trkpt>
<trkpt lat="53.492399" lon="-1.735292"><ele>366</ele><time>2022-04-08T13:24:16Z</time><name>PT5978</name></trkpt>
<trkpt lat="53.492427" lon="-1.735299"><ele>368</ele><time>2022-04-08T13:24:20Z</time><name>PT5979</name></trkpt>
<trkpt lat="53.492457" lon="-1.735319"><ele>369</ele><time>2022-04-08T13:24:24Z</time><name>PT5980</name></trkpt>
<trkpt lat="53.492477" lon="-1.735334"><ele>370</ele><time>2022-04-08T13:24:28Z</time><name>PT5981</name></trkpt>
<trkpt lat="53.492504" lon="-1.735353"><ele>370</ele><time>2022-04-08T13:24:32Z</time><name>PT5982</name></trkpt>
<trkpt lat="53.492540" lon="-1.735360"><ele>371</ele><time>2022-04-08T13:24:36Z</time><name>PT5983</name></trkpt>
<trkpt lat="53.492578" lon="-1.735356"><ele>371</ele><time>2022-04-08T13:24:40Z</time><name>PT5984</name></trkpt>
<trkpt lat="53.492619" lon="-1.735342"><ele>371</ele><time>2022-04-08T13:24:44Z</time><name>PT5985</name></trkpt>
<trkpt lat="53.492658" lon="-1.735317"><ele>372</ele><time>2022-04-08T13:24:48Z</time><name>PT5986</name></trkpt>
<trkpt lat="53.492703" lon="-1.735294"><ele>372</ele><time>2022-04-08T13:24:52Z</time><name>PT5987</name></trkpt>
<trkpt lat="53.492740" lon="-1.735281"><ele>372</ele><time>2022-04-08T13:24:56Z</time><name>PT5988</name></trkpt>
<trkpt lat="53.492773" lon="-1.735246"><ele>373</ele><time>2022-04-08T13:25:00Z</time><name>PT5989</name></trkpt>
<trkpt lat="53.492804" lon="-1.735209"><ele>373</ele><time>2022-04-08T13:25:04Z</time><name>PT5990</name></trkpt>
<trkpt lat="53.492839" lon="-1.735170"><ele>373</ele><time>2022-04-08T13:25:08Z</time><name>PT5991</name></trkpt>
<trkpt lat="53.492865" lon="-1.735125"><ele>373</ele><time>2022-04-08T13:25:12Z</time><name>PT5992</name></trkpt>
<trkpt lat="53.492886" lon="-1.735070"><ele>374</ele><time>2022-04-08T13:25:16Z</time><name>PT5993</name></trkpt>
<trkpt lat="53.492909" lon="-1.735017"><ele>374</ele><time>2022-04-08T13:25:20Z</time><name>PT5994</name></trkpt>
<trkpt lat="53.492931" lon="-1.734958"><ele>374</ele><time>2022-04-08T13:25:24Z</time><name>PT5995</name></trkpt>
<trkpt lat="53.492948" lon="-1.734900"><ele>374</ele><time>2022-04-08T13:25:28Z</time><name>PT5996</name></trkpt>
<trkpt lat="53.492959" lon="-1.734838"><ele>374</ele><time>2022-04-08T13:25:32Z</time><name>PT5997</name></trkpt>
<trkpt lat="53.492966" lon="-1.734787"><ele>373</ele><time>2022-04-08T13:25:36Z</time><name>PT5998</name></trkpt>
<trkpt lat="53.492978" lon="-1.734724"><ele>372</ele><time>2022-04-08T13:25:40Z</time><name>PT5999</name></trkpt>
<trkpt lat="53.492997" lon="-1.734665"><ele>372</ele><time>2022-04-08T13:25:44Z</time><name>PT6000</name></trkpt>
<trkpt lat="53.493016" lon="-1.734613"><ele>372</ele><time>2022-04-08T13:25:48Z</time><name>PT6001</name></trkpt>
<trkpt lat="53.493042" lon="-1.734562"><ele>372</ele><time>2022-04-08T13:25:52Z</time><name>PT6002</name></trkpt>
<trkpt lat="53.493067" lon="-1.734519"><ele>373</ele><time>2022-04-08T13:25:56Z</time><name>PT6003</name></trkpt>
<trkpt lat="53.493096" lon="-1.734495"><ele>373</ele><time>2022-04-08T13:26:00Z</time><name>PT6004</name></trkpt>
<trkpt lat="53.493127" lon="-1.734472"><ele>374</ele><time>2022-04-08T13:26:04Z</time><name>PT6005</name></trkpt>
<trkpt lat="53.493161" lon="-1.734453"><ele>374</ele><time>2022-04-08T13:26:08Z</time><name>PT6006</name></trkpt>
<trkpt lat="53.493196" lon="-1.734437"><ele>375</ele><time>2022-04-08T13:26:12Z</time><name>PT6007</name></trkpt>
<trkpt lat="53.493230" lon="-1.734436"><ele>376</ele><time>2022-04-08T13:26:16Z</time><name>PT6008</name></trkpt>
<trkpt lat="53.493269" lon="-1.734432"><ele>378</ele><time>2022-04-08T13:26:20Z</time><name>PT6009</name></trkpt>
<trkpt lat="53.493313" lon="-1.734401"><ele>379</ele><time>2022-04-08T13:26:24Z</time><name>PT6010</name></trkpt>
<trkpt lat="53.493335" lon="-1.734364"><ele>379</ele><time>2022-04-08T13:26:28Z</time><name>PT6011</name></trkpt>
<trkpt lat="53.493356" lon="-1.734304"><ele>379</ele><time>2022-04-08T13:26:32Z</time><name>PT6012</name></trkpt>
<trkpt lat="53.493363" lon="-1.734236"><ele>379</ele><time>2022-04-08T13:26:36Z</time><name>PT6013</name></trkpt>
<trkpt lat="53.493371" lon="-1.734160"><ele>379</ele><time>2022-04-08T13:26:40Z</time><name>PT6014</name></trkpt>
<trkpt lat="53.493373" lon="-1.734087"><ele>378</ele><time>2022-04-08T13:26:44Z</time><name>PT6015</name></trkpt>
<trkpt lat="53.493382" lon="-1.734010"><ele>379</ele><time>2022-04-08T13:26:48Z</time><name>PT6016</name></trkpt>
<trkpt lat="53.493390" lon="-1.733934"><ele>379</ele><time>2022-04-08T13:26:52Z</time><name>PT6017</name></trkpt>
<trkpt lat="53.493398" lon="-1.733857"><ele>378</ele><time>2022-04-08T13:26:56Z</time><name>PT6018</name></trkpt>
<trkpt lat="53.493406" lon="-1.733781"><ele>378</ele><time>2022-04-08T13:27:00Z</time><name>PT6019</name></trkpt>
<trkpt lat="53.493409" lon="-1.733698"><ele>378</ele><time>2022-04-08T13:27:04Z</time><name>PT6020</name></trkpt>
<trkpt lat="53.493414" lon="-1.733626"><ele>377</ele><time>2022-04-08T13:27:08Z</time><name>PT6021</name></trkpt>
<trkpt lat="53.493424" lon="-1.733547"><ele>378</ele><time>2022-04-08T13:27:12Z</time><name>PT6022</name></trkpt>
<trkpt lat="53.493434" lon="-1.733471"><ele>377</ele><time>2022-04-08T13:27:16Z</time><name>PT6023</name></trkpt>
<trkpt lat="53.493438" lon="-1.733398"><ele>376</ele><time>2022-04-08T13:27:20Z</time><name>PT6024</name></trkpt>
<trkpt lat="53.493448" lon="-1.733325"><ele>376</ele><time>2022-04-08T13:27:24Z</time><name>PT6025</name></trkpt>
<trkpt lat="53.493452" lon="-1.733242"><ele>376</ele><time>2022-04-08T13:27:28Z</time><name>PT6026</name></trkpt>
<trkpt lat="53.493463" lon="-1.733160"><ele>376</ele><time>2022-04-08T13:27:32Z</time><name>PT6027</name></trkpt>
<trkpt lat="53.493471" lon="-1.733074"><ele>376</ele><time>2022-04-08T13:27:36Z</time><name>PT6028</name></trkpt>
<trkpt lat="53.493476" lon="-1.732999"><ele>376</ele><time>2022-04-08T13:27:40Z</time><name>PT6029</name></trkpt>
<trkpt lat="53.493481" lon="-1.732919"><ele>376</ele><time>2022-04-08T13:27:44Z</time><name>PT6030</name></trkpt>
<trkpt lat="53.493484" lon="-1.732838"><ele>376</ele><time>2022-04-08T13:27:48Z</time><name>PT6031</name></trkpt>
<trkpt lat="53.493490" lon="-1.732744"><ele>376</ele><time>2022-04-08T13:27:52Z</time><name>PT6032</name></trkpt>
<trkpt lat="53.493493" lon="-1.732661"><ele>376</ele><time>2022-04-08T13:27:56Z</time><name>PT6033</name></trkpt>
<trkpt lat="53.493500" lon="-1.732574"><ele>376</ele><time>2022-04-08T13:28:00Z</time><name>PT6034</name></trkpt>
<trkpt lat="53.493505" lon="-1.732498"><ele>376</ele><time>2022-04-08T13:28:04Z</time><name>PT6035</name></trkpt>
<trkpt lat="53.493511" lon="-1.732418"><ele>376</ele><time>2022-04-08T13:28:08Z</time><name>PT6036</name></trkpt>
<trkpt lat="53.493516" lon="-1.732331"><ele>376</ele><time>2022-04-08T13:28:12Z</time><name>PT6037</name></trkpt>
<trkpt lat="53.493523" lon="-1.732248"><ele>376</ele><time>2022-04-08T13:28:16Z</time><name>PT6038</name></trkpt>
<trkpt lat="53.493531" lon="-1.732168"><ele>376</ele><time>2022-04-08T13:28:20Z</time><name>PT6039</name></trkpt>
<trkpt lat="53.493535" lon="-1.732083"><ele>375</ele><time>2022-04-08T13:28:24Z</time><name>PT6040</name></trkpt>
<trkpt lat="53.493544" lon="-1.731999"><ele>375</ele><time>2022-04-08T13:28:28Z</time><name>PT6041</name></trkpt>
<trkpt lat="53.493550" lon="-1.731920"><ele>374</ele><time>2022-04-08T13:28:32Z</time><name>PT6042</name></trkpt>
<trkpt lat="53.493555" lon="-1.731839"><ele>374</ele><time>2022-04-08T13:28:36Z</time><name>PT6043</name></trkpt>
<trkpt lat="53.493569" lon="-1.731756"><ele>373</ele><time>2022-04-08T13:28:40Z</time><name>PT6044</name></trkpt>
<trkpt lat="53.493575" lon="-1.731679"><ele>372</ele><time>2022-04-08T13:28:44Z</time><name>PT6045</name></trkpt>
<trkpt lat="53.493583" lon="-1.731593"><ele>372</ele><time>2022-04-08T13:28:48Z</time><name>PT6046</name></trkpt>
<trkpt lat="53.493591" lon="-1.731507"><ele>372</ele><time>2022-04-08T13:28:52Z</time><name>PT6047</name></trkpt>
<trkpt lat="53.493597" lon="-1.731422"><ele>372</ele><time>2022-04-08T13:28:56Z</time><name>PT6048</name></trkpt>
<trkpt lat="53.493608" lon="-1.731315"><ele>373</ele><time>2022-04-08T13:29:00Z</time><name>PT6049</name></trkpt>
<trkpt lat="53.493613" lon="-1.731240"><ele>372</ele><time>2022-04-08T13:29:04Z</time><name>PT6050</name></trkpt>
<trkpt lat="53.493624" lon="-1.731156"><ele>371</ele><time>2022-04-08T13:29:08Z</time><name>PT6051</name></trkpt>
<trkpt lat="53.493631" lon="-1.731077"><ele>370</ele><time>2022-04-08T13:29:12Z</time><name>PT6052</name></trkpt>
<trkpt lat="53.493642" lon="-1.730996"><ele>370</ele><time>2022-04-08T13:29:16Z</time><name>PT6053</name></trkpt>
<trkpt lat="53.493649" lon="-1.730917"><ele>369</ele><time>2022-04-08T13:29:20Z</time><name>PT6054</name></trkpt>
<trkpt lat="53.493656" lon="-1.730845"><ele>368</ele><time>2022-04-08T13:29:24Z</time><name>PT6055</name></trkpt>
<trkpt lat="53.493664" lon="-1.730759"><ele>368</ele><time>2022-04-08T13:29:28Z</time><name>PT6056</name></trkpt>
<trkpt lat="53.493671" lon="-1.730677"><ele>368</ele><time>2022-04-08T13:29:32Z</time><name>PT6057</name></trkpt>
<trkpt lat="53.493689" lon="-1.730590"><ele>368</ele><time>2022-04-08T13:29:36Z</time><name>PT6058</name></trkpt>
<trkpt lat="53.493699" lon="-1.730507"><ele>367</ele><time>2022-04-08T13:29:40Z</time><name>PT6059</name></trkpt>
<trkpt lat="53.493714" lon="-1.730418"><ele>367</ele><time>2022-04-08T13:29:44Z</time><name>PT6060</name></trkpt>
<trkpt lat="53.493723" lon="-1.730335"><ele>367</ele><time>2022-04-08T13:29:48Z</time><name>PT6061</name></trkpt>
<trkpt lat="53.493737" lon="-1.730254"><ele>367</ele><time>2022-04-08T13:29:52Z</time><name>PT6062</name></trkpt>
<trkpt lat="53.493744" lon="-1.730175"><ele>366</ele><time>2022-04-08T13:29:56Z</time><name>PT6063</name></trkpt>
<trkpt lat="53.493748" lon="-1.730135"><ele>366</ele><time>2022-04-08T13:29:58Z</time><name>PT6064</name></trkpt>
<trkpt lat="53.493752" lon="-1.730111"><ele>366</ele><time>2022-04-08T13:29:59Z</time><name>PT6065</name></trkpt>
<trkpt lat="53.493754" lon="-1.730089"><ele>366</ele><time>2022-04-08T13:30:00Z</time><name>PT6066</name></trkpt>
<trkpt lat="53.493757" lon="-1.730063"><ele>366</ele><time>2022-04-08T13:30:01Z</time><name>PT6067</name></trkpt>
<trkpt lat="53.493759" lon="-1.730045"><ele>366</ele><time>2022-04-08T13:30:02Z</time><name>PT6068</name></trkpt>
<trkpt lat="53.493762" lon="-1.730026"><ele>366</ele><time>2022-04-08T13:30:03Z</time><name>PT6069</name></trkpt>
<trkpt lat="53.493763" lon="-1.730007"><ele>366</ele><time>2022-04-08T13:30:04Z</time><name>PT6070</name></trkpt>
<trkpt lat="53.493765" lon="-1.729986"><ele>366</ele><time>2022-04-08T13:30:05Z</time><name>PT6071</name></trkpt>
<trkpt lat="53.493768" lon="-1.729963"><ele>366</ele><time>2022-04-08T13:30:06Z</time><name>PT6072</name></trkpt>
<trkpt lat="53.493768" lon="-1.729943"><ele>366</ele><time>2022-04-08T13:30:07Z</time><name>PT6073</name></trkpt>
<trkpt lat="53.493768" lon="-1.729920"><ele>366</ele><time>2022-04-08T13:30:08Z</time><name>PT6074</name></trkpt>
<trkpt lat="53.493769" lon="-1.729900"><ele>366</ele><time>2022-04-08T13:30:09Z</time><name>PT6075</name></trkpt>
<trkpt lat="53.493772" lon="-1.729882"><ele>366</ele><time>2022-04-08T13:30:10Z</time><name>PT6076</name></trkpt>
<trkpt lat="53.493773" lon="-1.729860"><ele>366</ele><time>2022-04-08T13:30:11Z</time><name>PT6077</name></trkpt>
<trkpt lat="53.493774" lon="-1.729838"><ele>366</ele><time>2022-04-08T13:30:12Z</time><name>PT6078</name></trkpt>
<trkpt lat="53.493778" lon="-1.729814"><ele>366</ele><time>2022-04-08T13:30:13Z</time><name>PT6079</name></trkpt>
<trkpt lat="53.493782" lon="-1.729791"><ele>366</ele><time>2022-04-08T13:30:14Z</time><name>PT6080</name></trkpt>
<trkpt lat="53.493785" lon="-1.729771"><ele>366</ele><time>2022-04-08T13:30:15Z</time><name>PT6081</name></trkpt>
<trkpt lat="53.493788" lon="-1.729751"><ele>365</ele><time>2022-04-08T13:30:16Z</time><name>PT6082</name></trkpt>
<trkpt lat="53.493792" lon="-1.729730"><ele>365</ele><time>2022-04-08T13:30:17Z</time><name>PT6083</name></trkpt>
<trkpt lat="53.493795" lon="-1.729715"><ele>365</ele><time>2022-04-08T13:30:18Z</time><name>PT6084</name></trkpt>
<trkpt lat="53.493798" lon="-1.729692"><ele>365</ele><time>2022-04-08T13:30:19Z</time><name>PT6085</name></trkpt>
<trkpt lat="53.493800" lon="-1.729670"><ele>365</ele><time>2022-04-08T13:30:20Z</time><name>PT6086</name></trkpt>
<trkpt lat="53.493803" lon="-1.729649"><ele>365</ele><time>2022-04-08T13:30:21Z</time><name>PT6087</name></trkpt>
<trkpt lat="53.493806" lon="-1.729628"><ele>365</ele><time>2022-04-08T13:30:22Z</time><name>PT6088</name></trkpt>
<trkpt lat="53.493809" lon="-1.729606"><ele>365</ele><time>2022-04-08T13:30:23Z</time><name>PT6089</name></trkpt>
<trkpt lat="53.493812" lon="-1.729584"><ele>365</ele><time>2022-04-08T13:30:24Z</time><name>PT6090</name></trkpt>
<trkpt lat="53.493816" lon="-1.729563"><ele>364</ele><time>2022-04-08T13:30:25Z</time><name>PT6091</name></trkpt>
<trkpt lat="53.493819" lon="-1.729542"><ele>364</ele><time>2022-04-08T13:30:26Z</time><name>PT6092</name></trkpt>
<trkpt lat="53.493823" lon="-1.729516"><ele>365</ele><time>2022-04-08T13:30:27Z</time><name>PT6093</name></trkpt>
<trkpt lat="53.493824" lon="-1.729495"><ele>365</ele><time>2022-04-08T13:30:28Z</time><name>PT6094</name></trkpt>
<trkpt lat="53.493826" lon="-1.729475"><ele>365</ele><time>2022-04-08T13:30:29Z</time><name>PT6095</name></trkpt>
<trkpt lat="53.493829" lon="-1.729451"><ele>365</ele><time>2022-04-08T13:30:30Z</time><name>PT6096</name></trkpt>
<trkpt lat="53.493832" lon="-1.729429"><ele>365</ele><time>2022-04-08T13:30:31Z</time><name>PT6097</name></trkpt>
<trkpt lat="53.493837" lon="-1.729409"><ele>364</ele><time>2022-04-08T13:30:32Z</time><name>PT6098</name></trkpt>
<trkpt lat="53.493841" lon="-1.729389"><ele>364</ele><time>2022-04-08T13:30:33Z</time><name>PT6099</name></trkpt>
<trkpt lat="53.493845" lon="-1.729368"><ele>364</ele><time>2022-04-08T13:30:34Z</time><name>PT6100</name></trkpt>
<trkpt lat="53.493846" lon="-1.729349"><ele>364</ele><time>2022-04-08T13:30:35Z</time><name>PT6101</name></trkpt>
<trkpt lat="53.493848" lon="-1.729328"><ele>363</ele><time>2022-04-08T13:30:36Z</time><name>PT6102</name></trkpt>
<trkpt lat="53.493852" lon="-1.729303"><ele>363</ele><time>2022-04-08T13:30:37Z</time><name>PT6103</name></trkpt>
<trkpt lat="53.493855" lon="-1.729281"><ele>363</ele><time>2022-04-08T13:30:38Z</time><name>PT6104</name></trkpt>
<trkpt lat="53.493859" lon="-1.729260"><ele>363</ele><time>2022-04-08T13:30:39Z</time><name>PT6105</name></trkpt>
<trkpt lat="53.493864" lon="-1.729238"><ele>363</ele><time>2022-04-08T13:30:40Z</time><name>PT6106</name></trkpt>
<trkpt lat="53.493868" lon="-1.729212"><ele>363</ele><time>2022-04-08T13:30:41Z</time><name>PT6107</name></trkpt>
<trkpt lat="53.493873" lon="-1.729189"><ele>363</ele><time>2022-04-08T13:30:42Z</time><name>PT6108</name></trkpt>
<trkpt lat="53.493876" lon="-1.729171"><ele>363</ele><time>2022-04-08T13:30:43Z</time><name>PT6109</name></trkpt>
<trkpt lat="53.493878" lon="-1.729150"><ele>363</ele><time>2022-04-08T13:30:44Z</time><name>PT6110</name></trkpt>
<trkpt lat="53.493881" lon="-1.729127"><ele>363</ele><time>2022-04-08T13:30:45Z</time><name>PT6111</name></trkpt>
<trkpt lat="53.493885" lon="-1.729104"><ele>363</ele><time>2022-04-08T13:30:46Z</time><name>PT6112</name></trkpt>
<trkpt lat="53.493888" lon="-1.729082"><ele>363</ele><time>2022-04-08T13:30:47Z</time><name>PT6113</name></trkpt>
<trkpt lat="53.493892" lon="-1.729064"><ele>363</ele><time>2022-04-08T13:30:48Z</time><name>PT6114</name></trkpt>
<trkpt lat="53.493897" lon="-1.729042"><ele>363</ele><time>2022-04-08T13:30:49Z</time><name>PT6115</name></trkpt>
<trkpt lat="53.493902" lon="-1.729019"><ele>363</ele><time>2022-04-08T13:30:50Z</time><name>PT6116</name></trkpt>
<trkpt lat="53.493906" lon="-1.728999"><ele>364</ele><time>2022-04-08T13:30:51Z</time><name>PT6117</name></trkpt>
<trkpt lat="53.493910" lon="-1.728981"><ele>364</ele><time>2022-04-08T13:30:52Z</time><name>PT6118</name></trkpt>
<trkpt lat="53.493913" lon="-1.728962"><ele>364</ele><time>2022-04-08T13:30:53Z</time><name>PT6119</name></trkpt>
<trkpt lat="53.493916" lon="-1.728940"><ele>364</ele><time>2022-04-08T13:30:54Z</time><name>PT6120</name></trkpt>
<trkpt lat="53.493918" lon="-1.728916"><ele>364</ele><time>2022-04-08T13:30:55Z</time><name>PT6121</name></trkpt>
<trkpt lat="53.493923" lon="-1.728895"><ele>364</ele><time>2022-04-08T13:30:56Z</time><name>PT6122</name></trkpt>
<trkpt lat="53.493928" lon="-1.728873"><ele>363</ele><time>2022-04-08T13:30:57Z</time><name>PT6123</name></trkpt>
<trkpt lat="53.493932" lon="-1.728858"><ele>363</ele><time>2022-04-08T13:30:58Z</time><name>PT6124</name></trkpt>
<trkpt lat="53.493936" lon="-1.728844"><ele>363</ele><time>2022-04-08T13:30:59Z</time><name>PT6125</name></trkpt>
<trkpt lat="53.493939" lon="-1.728826"><ele>363</ele><time>2022-04-08T13:31:00Z</time><name>PT6126</name></trkpt>
<trkpt lat="53.493941" lon="-1.728804"><ele>363</ele><time>2022-04-08T13:31:01Z</time><name>PT6127</name></trkpt>
<trkpt lat="53.493943" lon="-1.728785"><ele>363</ele><time>2022-04-08T13:31:02Z</time><name>PT6128</name></trkpt>
<trkpt lat="53.493946" lon="-1.728768"><ele>363</ele><time>2022-04-08T13:31:03Z</time><name>PT6129</name></trkpt>
<trkpt lat="53.493952" lon="-1.728751"><ele>363</ele><time>2022-04-08T13:31:04Z</time><name>PT6130</name></trkpt>
<trkpt lat="53.493958" lon="-1.728726"><ele>363</ele><time>2022-04-08T13:31:05Z</time><name>PT6131</name></trkpt>
<trkpt lat="53.493964" lon="-1.728706"><ele>363</ele><time>2022-04-08T13:31:06Z</time><name>PT6132</name></trkpt>
<trkpt lat="53.493966" lon="-1.728687"><ele>363</ele><time>2022-04-08T13:31:07Z</time><name>PT6133</name></trkpt>
<trkpt lat="53.493968" lon="-1.728667"><ele>362</ele><time>2022-04-08T13:31:08Z</time><name>PT6134</name></trkpt>
<trkpt lat="53.493973" lon="-1.728642"><ele>362</ele><time>2022-04-08T13:31:09Z</time><name>PT6135</name></trkpt>
<trkpt lat="53.493977" lon="-1.728617"><ele>362</ele><time>2022-04-08T13:31:10Z</time><name>PT6136</name></trkpt>
<trkpt lat="53.493980" lon="-1.728600"><ele>362</ele><time>2022-04-08T13:31:11Z</time><name>PT6137</name></trkpt>
<trkpt lat="53.493986" lon="-1.728579"><ele>362</ele><time>2022-04-08T13:31:12Z</time><name>PT6138</name></trkpt>
<trkpt lat="53.493991" lon="-1.728553"><ele>363</ele><time>2022-04-08T13:31:13Z</time><name>PT6139</name></trkpt>
<trkpt lat="53.493994" lon="-1.728528"><ele>363</ele><time>2022-04-08T13:31:14Z</time><name>PT6140</name></trkpt>
<trkpt lat="53.493995" lon="-1.728507"><ele>363</ele><time>2022-04-08T13:31:15Z</time><name>PT6141</name></trkpt>
<trkpt lat="53.493997" lon="-1.728488"><ele>362</ele><time>2022-04-08T13:31:16Z</time><name>PT6142</name></trkpt>
<trkpt lat="53.494000" lon="-1.728463"><ele>362</ele><time>2022-04-08T13:31:17Z</time><name>PT6143</name></trkpt>
<trkpt lat="53.494004" lon="-1.728440"><ele>362</ele><time>2022-04-08T13:31:18Z</time><name>PT6144</name></trkpt>
<trkpt lat="53.494008" lon="-1.728418"><ele>362</ele><time>2022-04-08T13:31:19Z</time><name>PT6145</name></trkpt>
<trkpt lat="53.494014" lon="-1.728395"><ele>362</ele><time>2022-04-08T13:31:20Z</time><name>PT6146</name></trkpt>
<trkpt lat="53.494020" lon="-1.728371"><ele>362</ele><time>2022-04-08T13:31:21Z</time><name>PT6147</name></trkpt>
<trkpt lat="53.494024" lon="-1.728349"><ele>363</ele><time>2022-04-08T13:31:22Z</time><name>PT6148</name></trkpt>
<trkpt lat="53.494027" lon="-1.728327"><ele>363</ele><time>2022-04-08T13:31:23Z</time><name>PT6149</name></trkpt>
<trkpt lat="53.494031" lon="-1.728306"><ele>363</ele><time>2022-04-08T13:31:24Z</time><name>PT6150</name></trkpt>
<trkpt lat="53.494033" lon="-1.728284"><ele>363</ele><time>2022-04-08T13:31:25Z</time><name>PT6151</name></trkpt>
<trkpt lat="53.494036" lon="-1.728263"><ele>363</ele><time>2022-04-08T13:31:26Z</time><name>PT6152</name></trkpt>
<trkpt lat="53.494042" lon="-1.728239"><ele>363</ele><time>2022-04-08T13:31:27Z</time><name>PT6153</name></trkpt>
<trkpt lat="53.494046" lon="-1.728214"><ele>363</ele><time>2022-04-08T13:31:28Z</time><name>PT6154</name></trkpt>
<trkpt lat="53.494051" lon="-1.728201"><ele>363</ele><time>2022-04-08T13:31:29Z</time><name>PT6155</name></trkpt>
<trkpt lat="53.494054" lon="-1.728183"><ele>363</ele><time>2022-04-08T13:31:30Z</time><name>PT6156</name></trkpt>
<trkpt lat="53.494058" lon="-1.728162"><ele>363</ele><time>2022-04-08T13:31:31Z</time><name>PT6157</name></trkpt>
<trkpt lat="53.494063" lon="-1.728144"><ele>363</ele><time>2022-04-08T13:31:32Z</time><name>PT6158</name></trkpt>
<trkpt lat="53.494067" lon="-1.728125"><ele>363</ele><time>2022-04-08T13:31:33Z</time><name>PT6159</name></trkpt>
<trkpt lat="53.494072" lon="-1.728105"><ele>363</ele><time>2022-04-08T13:31:34Z</time><name>PT6160</name></trkpt>
<trkpt lat="53.494077" lon="-1.728082"><ele>363</ele><time>2022-04-08T13:31:35Z</time><name>PT6161</name></trkpt>
<trkpt lat="53.494079" lon="-1.728064"><ele>363</ele><time>2022-04-08T13:31:36Z</time><name>PT6162</name></trkpt>
<trkpt lat="53.494080" lon="-1.728046"><ele>363</ele><time>2022-04-08T13:31:37Z</time><name>PT6163</name></trkpt>
<trkpt lat="53.494082" lon="-1.728022"><ele>363</ele><time>2022-04-08T13:31:38Z</time><name>PT6164</name></trkpt>
<trkpt lat="53.494084" lon="-1.728004"><ele>362</ele><time>2022-04-08T13:31:39Z</time><name>PT6165</name></trkpt>
<trkpt lat="53.494089" lon="-1.727987"><ele>362</ele><time>2022-04-08T13:31:40Z</time><name>PT6166</name></trkpt>
<trkpt lat="53.494095" lon="-1.727966"><ele>362</ele><time>2022-04-08T13:31:41Z</time><name>PT6167</name></trkpt>
<trkpt lat="53.494098" lon="-1.727948"><ele>362</ele><time>2022-04-08T13:31:42Z</time><name>PT6168</name></trkpt>
<trkpt lat="53.494101" lon="-1.727930"><ele>362</ele><time>2022-04-08T13:31:43Z</time><name>PT6169</name></trkpt>
<trkpt lat="53.494102" lon="-1.727914"><ele>362</ele><time>2022-04-08T13:31:44Z</time><name>PT6170</name></trkpt>
<trkpt lat="53.494105" lon="-1.727889"><ele>362</ele><time>2022-04-08T13:31:45Z</time><name>PT6171</name></trkpt>
<trkpt lat="53.494110" lon="-1.727869"><ele>362</ele><time>2022-04-08T13:31:46Z</time><name>PT6172</name></trkpt>
<trkpt lat="53.494116" lon="-1.727846"><ele>362</ele><time>2022-04-08T13:31:47Z</time><name>PT6173</name></trkpt>
<trkpt lat="53.494120" lon="-1.727824"><ele>362</ele><time>2022-04-08T13:31:48Z</time><name>PT6174</name></trkpt>
<trkpt lat="53.494123" lon="-1.727799"><ele>362</ele><time>2022-04-08T13:31:49Z</time><name>PT6175</name></trkpt>
<trkpt lat="53.494125" lon="-1.727782"><ele>362</ele><time>2022-04-08T13:31:50Z</time><name>PT6176</name></trkpt>
<trkpt lat="53.494129" lon="-1.727757"><ele>362</ele><time>2022-04-08T13:31:51Z</time><name>PT6177</name></trkpt>
<trkpt lat="53.494139" lon="-1.727731"><ele>364</ele><time>2022-04-08T13:31:52Z</time><name>PT6178</name></trkpt>
<trkpt lat="53.494146" lon="-1.727709"><ele>364</ele><time>2022-04-08T13:31:53Z</time><name>PT6179</name></trkpt>
<trkpt lat="53.494153" lon="-1.727686"><ele>365</ele><time>2022-04-08T13:31:54Z</time><name>PT6180</name></trkpt>
<trkpt lat="53.494158" lon="-1.727659"><ele>365</ele><time>2022-04-08T13:31:55Z</time><name>PT6181</name></trkpt>
<trkpt lat="53.494161" lon="-1.727643"><ele>365</ele><time>2022-04-08T13:31:56Z</time><name>PT6182</name></trkpt>
<trkpt lat="53.494166" lon="-1.727627"><ele>364</ele><time>2022-04-08T13:31:57Z</time><name>PT6183</name></trkpt>
<trkpt lat="53.494183" lon="-1.727568"><ele>364</ele><time>2022-04-08T13:32:00Z</time><name>PT6184</name></trkpt>
<trkpt lat="53.494200" lon="-1.727497"><ele>364</ele><time>2022-04-08T13:32:04Z</time><name>PT6185</name></trkpt>
<trkpt lat="53.494223" lon="-1.727418"><ele>364</ele><time>2022-04-08T13:32:08Z</time><name>PT6186</name></trkpt>
<trkpt lat="53.494241" lon="-1.727336"><ele>363</ele><time>2022-04-08T13:32:12Z</time><name>PT6187</name></trkpt>
<trkpt lat="53.494247" lon="-1.727318"><ele>363</ele><time>2022-04-08T13:32:13Z</time><name>PT6188</name></trkpt>
<trkpt lat="53.494252" lon="-1.727304"><ele>362</ele><time>2022-04-08T13:32:14Z</time><name>PT6189</name></trkpt>
<trkpt lat="53.494259" lon="-1.727284"><ele>362</ele><time>2022-04-08T13:32:15Z</time><name>PT6190</name></trkpt>
<trkpt lat="53.494265" lon="-1.727262"><ele>362</ele><time>2022-04-08T13:32:16Z</time><name>PT6191</name></trkpt>
<trkpt lat="53.494271" lon="-1.727246"><ele>362</ele><time>2022-04-08T13:32:17Z</time><name>PT6192</name></trkpt>
<trkpt lat="53.494276" lon="-1.727229"><ele>362</ele><time>2022-04-08T13:32:18Z</time><name>PT6193</name></trkpt>
<trkpt lat="53.494283" lon="-1.727210"><ele>362</ele><time>2022-04-08T13:32:19Z</time><name>PT6194</name></trkpt>
<trkpt lat="53.494289" lon="-1.727189"><ele>363</ele><time>2022-04-08T13:32:20Z</time><name>PT6195</name></trkpt>
<trkpt lat="53.494297" lon="-1.727173"><ele>363</ele><time>2022-04-08T13:32:21Z</time><name>PT6196</name></trkpt>
<trkpt lat="53.494304" lon="-1.727157"><ele>362</ele><time>2022-04-08T13:32:22Z</time><name>PT6197</name></trkpt>
<trkpt lat="53.494310" lon="-1.727140"><ele>362</ele><time>2022-04-08T13:32:23Z</time><name>PT6198</name></trkpt>
<trkpt lat="53.494312" lon="-1.727122"><ele>362</ele><time>2022-04-08T13:32:24Z</time><name>PT6199</name></trkpt>
<trkpt lat="53.494314" lon="-1.727100"><ele>362</ele><time>2022-04-08T13:32:25Z</time><name>PT6200</name></trkpt>
<trkpt lat="53.494317" lon="-1.727079"><ele>362</ele><time>2022-04-08T13:32:26Z</time><name>PT6201</name></trkpt>
<trkpt lat="53.494321" lon="-1.727054"><ele>362</ele><time>2022-04-08T13:32:27Z</time><name>PT6202</name></trkpt>
<trkpt lat="53.494323" lon="-1.727030"><ele>362</ele><time>2022-04-08T13:32:28Z</time><name>PT6203</name></trkpt>
<trkpt lat="53.494327" lon="-1.727011"><ele>363</ele><time>2022-04-08T13:32:29Z</time><name>PT6204</name></trkpt>
<trkpt lat="53.494327" lon="-1.726987"><ele>363</ele><time>2022-04-08T13:32:30Z</time><name>PT6205</name></trkpt>
<trkpt lat="53.494331" lon="-1.726961"><ele>363</ele><time>2022-04-08T13:32:31Z</time><name>PT6206</name></trkpt>
<trkpt lat="53.494332" lon="-1.726938"><ele>363</ele><time>2022-04-08T13:32:32Z</time><name>PT6207</name></trkpt>
<trkpt lat="53.494334" lon="-1.726917"><ele>363</ele><time>2022-04-08T13:32:33Z</time><name>PT6208</name></trkpt>
<trkpt lat="53.494336" lon="-1.726898"><ele>363</ele><time>2022-04-08T13:32:34Z</time><name>PT6209</name></trkpt>
<trkpt lat="53.494339" lon="-1.726881"><ele>362</ele><time>2022-04-08T13:32:35Z</time><name>PT6210</name></trkpt>
<trkpt lat="53.494343" lon="-1.726860"><ele>363</ele><time>2022-04-08T13:32:36Z</time><name>PT6211</name></trkpt>
<trkpt lat="53.494347" lon="-1.726839"><ele>363</ele><time>2022-04-08T13:32:37Z</time><name>PT6212</name></trkpt>
<trkpt lat="53.494350" lon="-1.726821"><ele>362</ele><time>2022-04-08T13:32:38Z</time><name>PT6213</name></trkpt>
<trkpt lat="53.494354" lon="-1.726803"><ele>362</ele><time>2022-04-08T13:32:39Z</time><name>PT6214</name></trkpt>
<trkpt lat="53.494359" lon="-1.726784"><ele>362</ele><time>2022-04-08T13:32:40Z</time><name>PT6215</name></trkpt>
<trkpt lat="53.494363" lon="-1.726761"><ele>362</ele><time>2022-04-08T13:32:41Z</time><name>PT6216</name></trkpt>
<trkpt lat="53.494366" lon="-1.726736"><ele>363</ele><time>2022-04-08T13:32:42Z</time><name>PT6217</name></trkpt>
<trkpt lat="53.494369" lon="-1.726717"><ele>362</ele><time>2022-04-08T13:32:43Z</time><name>PT6218</name></trkpt>
<trkpt lat="53.494373" lon="-1.726695"><ele>362</ele><time>2022-04-08T13:32:44Z</time><name>PT6219</name></trkpt>
<trkpt lat="53.494376" lon="-1.726672"><ele>362</ele><time>2022-04-08T13:32:45Z</time><name>PT6220</name></trkpt>
<trkpt lat="53.494378" lon="-1.726651"><ele>362</ele><time>2022-04-08T13:32:46Z</time><name>PT6221</name></trkpt>
<trkpt lat="53.494380" lon="-1.726631"><ele>362</ele><time>2022-04-08T13:32:47Z</time><name>PT6222</name></trkpt>
<trkpt lat="53.494380" lon="-1.726609"><ele>362</ele><time>2022-04-08T13:32:48Z</time><name>PT6223</name></trkpt>
<trkpt lat="53.494383" lon="-1.726587"><ele>363</ele><time>2022-04-08T13:32:49Z</time><name>PT6224</name></trkpt>
<trkpt lat="53.494384" lon="-1.726565"><ele>363</ele><time>2022-04-08T13:32:50Z</time><name>PT6225</name></trkpt>
<trkpt lat="53.494385" lon="-1.726538"><ele>363</ele><time>2022-04-08T13:32:51Z</time><name>PT6226</name></trkpt>
<trkpt lat="53.494385" lon="-1.726513"><ele>363</ele><time>2022-04-08T13:32:52Z</time><name>PT6227</name></trkpt>
<trkpt lat="53.494385" lon="-1.726496"><ele>363</ele><time>2022-04-08T13:32:53Z</time><name>PT6228</name></trkpt>
<trkpt lat="53.494384" lon="-1.726476"><ele>363</ele><time>2022-04-08T13:32:54Z</time><name>PT6229</name></trkpt>
<trkpt lat="53.494383" lon="-1.726456"><ele>362</ele><time>2022-04-08T13:32:55Z</time><name>PT6230</name></trkpt>
<trkpt lat="53.494382" lon="-1.726436"><ele>362</ele><time>2022-04-08T13:32:56Z</time><name>PT6231</name></trkpt>
<trkpt lat="53.494380" lon="-1.726415"><ele>362</ele><time>2022-04-08T13:32:57Z</time><name>PT6232</name></trkpt>
<trkpt lat="53.494381" lon="-1.726389"><ele>362</ele><time>2022-04-08T13:32:58Z</time><name>PT6233</name></trkpt>
<trkpt lat="53.494379" lon="-1.726365"><ele>362</ele><time>2022-04-08T13:32:59Z</time><name>PT6234</name></trkpt>
<trkpt lat="53.494376" lon="-1.726345"><ele>362</ele><time>2022-04-08T13:33:00Z</time><name>PT6235</name></trkpt>
<trkpt lat="53.494371" lon="-1.726330"><ele>362</ele><time>2022-04-08T13:33:01Z</time><name>PT6236</name></trkpt>
<trkpt lat="53.494366" lon="-1.726314"><ele>362</ele><time>2022-04-08T13:33:03Z</time><name>PT6237</name></trkpt>
<trkpt lat="53.494362" lon="-1.726295"><ele>362</ele><time>2022-04-08T13:33:03Z</time><name>PT6238</name></trkpt>
<trkpt lat="53.494360" lon="-1.726275"><ele>362</ele><time>2022-04-08T13:33:04Z</time><name>PT6239</name></trkpt>
<trkpt lat="53.494355" lon="-1.726252"><ele>362</ele><time>2022-04-08T13:33:05Z</time><name>PT6240</name></trkpt>
<trkpt lat="53.494351" lon="-1.726234"><ele>362</ele><time>2022-04-08T13:33:06Z</time><name>PT6241</name></trkpt>
<trkpt lat="53.494348" lon="-1.726216"><ele>362</ele><time>2022-04-08T13:33:07Z</time><name>PT6242</name></trkpt>
<trkpt lat="53.494345" lon="-1.726194"><ele>362</ele><time>2022-04-08T13:33:08Z</time><name>PT6243</name></trkpt>
<trkpt lat="53.494342" lon="-1.726173"><ele>362</ele><time>2022-04-08T13:33:09Z</time><name>PT6244</name></trkpt>
<trkpt lat="53.494340" lon="-1.726155"><ele>362</ele><time>2022-04-08T13:33:10Z</time><name>PT6245</name></trkpt>
<trkpt lat="53.494340" lon="-1.726133"><ele>362</ele><time>2022-04-08T13:33:11Z</time><name>PT6246</name></trkpt>
<trkpt lat="53.494339" lon="-1.726114"><ele>362</ele><time>2022-04-08T13:33:12Z</time><name>PT6247</name></trkpt>
<trkpt lat="53.494343" lon="-1.726091"><ele>363</ele><time>2022-04-08T13:33:13Z</time><name>PT6248</name></trkpt>
<trkpt lat="53.494346" lon="-1.726069"><ele>363</ele><time>2022-04-08T13:33:14Z</time><name>PT6249</name></trkpt>
<trkpt lat="53.494346" lon="-1.726050"><ele>363</ele><time>2022-04-08T13:33:15Z</time><name>PT6250</name></trkpt>
<trkpt lat="53.494345" lon="-1.726029"><ele>363</ele><time>2022-04-08T13:33:16Z</time><name>PT6251</name></trkpt>
<trkpt lat="53.494346" lon="-1.726006"><ele>363</ele><time>2022-04-08T13:33:17Z</time><name>PT6252</name></trkpt>
<trkpt lat="53.494350" lon="-1.725984"><ele>363</ele><time>2022-04-08T13:33:18Z</time><name>PT6253</name></trkpt>
<trkpt lat="53.494354" lon="-1.725965"><ele>362</ele><time>2022-04-08T13:33:19Z</time><name>PT6254</name></trkpt>
<trkpt lat="53.494357" lon="-1.725947"><ele>362</ele><time>2022-04-08T13:33:20Z</time><name>PT6255</name></trkpt>
<trkpt lat="53.494361" lon="-1.725930"><ele>362</ele><time>2022-04-08T13:33:21Z</time><name>PT6256</name></trkpt>
<trkpt lat="53.494366" lon="-1.725915"><ele>362</ele><time>2022-04-08T13:33:22Z</time><name>PT6257</name></trkpt>
<trkpt lat="53.494369" lon="-1.725898"><ele>362</ele><time>2022-04-08T13:33:23Z</time><name>PT6258</name></trkpt>
<trkpt lat="53.494371" lon="-1.725884"><ele>362</ele><time>2022-04-08T13:33:24Z</time><name>PT6259</name></trkpt>
<trkpt lat="53.494373" lon="-1.725870"><ele>362</ele><time>2022-04-08T13:33:25Z</time><name>PT6260</name></trkpt>
<trkpt lat="53.494378" lon="-1.725854"><ele>362</ele><time>2022-04-08T13:33:26Z</time><name>PT6261</name></trkpt>
<trkpt lat="53.494381" lon="-1.725839"><ele>362</ele><time>2022-04-08T13:33:27Z</time><name>PT6262</name></trkpt>
<trkpt lat="53.494380" lon="-1.725831"><ele>361</ele><time>2022-04-08T13:33:28Z</time><name>PT6263</name></trkpt>
<trkpt lat="53.494378" lon="-1.725818"><ele>361</ele><time>2022-04-08T13:33:29Z</time><name>PT6264</name></trkpt>
<trkpt lat="53.494376" lon="-1.725816"><ele>361</ele><time>2022-04-08T13:33:30Z</time><name>PT6265</name></trkpt>
<trkpt lat="53.494377" lon="-1.725816"><ele>361</ele><time>2022-04-08T13:33:31Z</time><name>PT6266</name></trkpt>
<trkpt lat="53.494378" lon="-1.725812"><ele>362</ele><time>2022-04-08T13:33:32Z</time><name>PT6267</name></trkpt>
<trkpt lat="53.494378" lon="-1.725814"><ele>362</ele><time>2022-04-08T13:33:33Z</time><name>PT6268</name></trkpt>
<trkpt lat="53.494377" lon="-1.725817"><ele>362</ele><time>2022-04-08T13:33:43Z</time><name>PT6269</name></trkpt>
<trkpt lat="53.494383" lon="-1.725811"><ele>362</ele><time>2022-04-08T13:33:44Z</time><name>PT6270</name></trkpt>
<trkpt lat="53.494392" lon="-1.725800"><ele>362</ele><time>2022-04-08T13:33:45Z</time><name>PT6271</name></trkpt>
<trkpt lat="53.494402" lon="-1.725794"><ele>362</ele><time>2022-04-08T13:33:46Z</time><name>PT6272</name></trkpt>
<trkpt lat="53.494412" lon="-1.725788"><ele>361</ele><time>2022-04-08T13:33:47Z</time><name>PT6273</name></trkpt>
<trkpt lat="53.494421" lon="-1.725779"><ele>362</ele><time>2022-04-08T13:33:48Z</time><name>PT6274</name></trkpt>
<trkpt lat="53.494429" lon="-1.725769"><ele>362</ele><time>2022-04-08T13:33:49Z</time><name>PT6275</name></trkpt>
<trkpt lat="53.494439" lon="-1.725762"><ele>361</ele><time>2022-04-08T13:33:50Z</time><name>PT6276</name></trkpt>
<trkpt lat="53.494449" lon="-1.725755"><ele>361</ele><time>2022-04-08T13:33:51Z</time><name>PT6277</name></trkpt>
<trkpt lat="53.494460" lon="-1.725743"><ele>362</ele><time>2022-04-08T13:33:52Z</time><name>PT6278</name></trkpt>
<trkpt lat="53.494470" lon="-1.725731"><ele>362</ele><time>2022-04-08T13:33:53Z</time><name>PT6279</name></trkpt>
<trkpt lat="53.494478" lon="-1.725723"><ele>362</ele><time>2022-04-08T13:33:54Z</time><name>PT6280</name></trkpt>
<trkpt lat="53.494486" lon="-1.725709"><ele>362</ele><time>2022-04-08T13:33:55Z</time><name>PT6281</name></trkpt>
<trkpt lat="53.494496" lon="-1.725696"><ele>361</ele><time>2022-04-08T13:33:56Z</time><name>PT6282</name></trkpt>
<trkpt lat="53.494505" lon="-1.725683"><ele>361</ele><time>2022-04-08T13:33:57Z</time><name>PT6283</name></trkpt>
<trkpt lat="53.494516" lon="-1.725670"><ele>361</ele><time>2022-04-08T13:33:58Z</time><name>PT6284</name></trkpt>
<trkpt lat="53.494525" lon="-1.725655"><ele>361</ele><time>2022-04-08T13:33:59Z</time><name>PT6285</name></trkpt>
<trkpt lat="53.494533" lon="-1.725641"><ele>361</ele><time>2022-04-08T13:34:00Z</time><name>PT6286</name></trkpt>
<trkpt lat="53.494541" lon="-1.725630"><ele>361</ele><time>2022-04-08T13:34:01Z</time><name>PT6287</name></trkpt>
<trkpt lat="53.494550" lon="-1.725618"><ele>361</ele><time>2022-04-08T13:34:02Z</time><name>PT6288</name></trkpt>
<trkpt lat="53.494561" lon="-1.725604"><ele>361</ele><time>2022-04-08T13:34:03Z</time><name>PT6289</name></trkpt>
<trkpt lat="53.494569" lon="-1.725590"><ele>361</ele><time>2022-04-08T13:34:04Z</time><name>PT6290</name></trkpt>
<trkpt lat="53.494579" lon="-1.725579"><ele>361</ele><time>2022-04-08T13:34:05Z</time><name>PT6291</name></trkpt>
<trkpt lat="53.494590" lon="-1.725568"><ele>360</ele><time>2022-04-08T13:34:06Z</time><name>PT6292</name></trkpt>
<trkpt lat="53.494599" lon="-1.725555"><ele>361</ele><time>2022-04-08T13:34:07Z</time><name>PT6293</name></trkpt>
<trkpt lat="53.494608" lon="-1.725543"><ele>361</ele><time>2022-04-08T13:34:08Z</time><name>PT6294</name></trkpt>
<trkpt lat="53.494617" lon="-1.725531"><ele>360</ele><time>2022-04-08T13:34:09Z</time><name>PT6295</name></trkpt>
<trkpt lat="53.494626" lon="-1.725518"><ele>360</ele><time>2022-04-08T13:34:10Z</time><name>PT6296</name></trkpt>
<trkpt lat="53.494636" lon="-1.725504"><ele>360</ele><time>2022-04-08T13:34:11Z</time><name>PT6297</name></trkpt>
<trkpt lat="53.494647" lon="-1.725490"><ele>360</ele><time>2022-04-08T13:34:12Z</time><name>PT6298</name></trkpt>
<trkpt lat="53.494657" lon="-1.725477"><ele>359</ele><time>2022-04-08T13:34:13Z</time><name>PT6299</name></trkpt>
<trkpt lat="53.494667" lon="-1.725466"><ele>359</ele><time>2022-04-08T13:34:14Z</time><name>PT6300</name></trkpt>
<trkpt lat="53.494676" lon="-1.725455"><ele>359</ele><time>2022-04-08T13:34:15Z</time><name>PT6301</name></trkpt>
<trkpt lat="53.494686" lon="-1.725443"><ele>359</ele><time>2022-04-08T13:34:16Z</time><name>PT6302</name></trkpt>
<trkpt lat="53.494695" lon="-1.725428"><ele>359</ele><time>2022-04-08T13:34:17Z</time><name>PT6303</name></trkpt>
<trkpt lat="53.494705" lon="-1.725414"><ele>359</ele><time>2022-04-08T13:34:18Z</time><name>PT6304</name></trkpt>
<trkpt lat="53.494715" lon="-1.725402"><ele>359</ele><time>2022-04-08T13:34:19Z</time><name>PT6305</name></trkpt>
<trkpt lat="53.494725" lon="-1.725390"><ele>359</ele><time>2022-04-08T13:34:20Z</time><name>PT6306</name></trkpt>
<trkpt lat="53.494734" lon="-1.725379"><ele>358</ele><time>2022-04-08T13:34:21Z</time><name>PT6307</name></trkpt>
<trkpt lat="53.494740" lon="-1.725370"><ele>358</ele><time>2022-04-08T13:34:22Z</time><name>PT6308</name></trkpt>
<trkpt lat="53.494750" lon="-1.725359"><ele>358</ele><time>2022-04-08T13:34:23Z</time><name>PT6309</name></trkpt>
<trkpt lat="53.494762" lon="-1.725343"><ele>358</ele><time>2022-04-08T13:34:24Z</time><name>PT6310</name></trkpt>
<trkpt lat="53.494770" lon="-1.725334"><ele>358</ele><time>2022-04-08T13:34:25Z</time><name>PT6311</name></trkpt>
<trkpt lat="53.494780" lon="-1.725321"><ele>358</ele><time>2022-04-08T13:34:26Z</time><name>PT6312</name></trkpt>
<trkpt lat="53.494791" lon="-1.725305"><ele>358</ele><time>2022-04-08T13:34:27Z</time><name>PT6313</name></trkpt>
<trkpt lat="53.494803" lon="-1.725292"><ele>358</ele><time>2022-04-08T13:34:28Z</time><name>PT6314</name></trkpt>
<trkpt lat="53.494815" lon="-1.725279"><ele>358</ele><time>2022-04-08T13:34:29Z</time><name>PT6315</name></trkpt>
<trkpt lat="53.494822" lon="-1.725267"><ele>358</ele><time>2022-04-08T13:34:30Z</time><name>PT6316</name></trkpt>
<trkpt lat="53.494829" lon="-1.725254"><ele>358</ele><time>2022-04-08T13:34:31Z</time><name>PT6317</name></trkpt>
<trkpt lat="53.494838" lon="-1.725238"><ele>358</ele><time>2022-04-08T13:34:32Z</time><name>PT6318</name></trkpt>
<trkpt lat="53.494850" lon="-1.725224"><ele>357</ele><time>2022-04-08T13:34:33Z</time><name>PT6319</name></trkpt>
<trkpt lat="53.494859" lon="-1.725215"><ele>357</ele><time>2022-04-08T13:34:34Z</time><name>PT6320</name></trkpt>
<trkpt lat="53.494869" lon="-1.725206"><ele>357</ele><time>2022-04-08T13:34:35Z</time><name>PT6321</name></trkpt>
<trkpt lat="53.494878" lon="-1.725195"><ele>357</ele><time>2022-04-08T13:34:36Z</time><name>PT6322</name></trkpt>
<trkpt lat="53.494886" lon="-1.725181"><ele>356</ele><time>2022-04-08T13:34:37Z</time><name>PT6323</name></trkpt>
<trkpt lat="53.494893" lon="-1.725169"><ele>356</ele><time>2022-04-08T13:34:38Z</time><name>PT6324</name></trkpt>
<trkpt lat="53.494901" lon="-1.725155"><ele>356</ele><time>2022-04-08T13:34:39Z</time><name>PT6325</name></trkpt>
<trkpt lat="53.494910" lon="-1.725143"><ele>356</ele><time>2022-04-08T13:34:40Z</time><name>PT6326</name></trkpt>
<trkpt lat="53.494920" lon="-1.725129"><ele>356</ele><time>2022-04-08T13:34:41Z</time><name>PT6327</name></trkpt>
<trkpt lat="53.494929" lon="-1.725116"><ele>356</ele><time>2022-04-08T13:34:42Z</time><name>PT6328</name></trkpt>
<trkpt lat="53.494938" lon="-1.725104"><ele>356</ele><time>2022-04-08T13:34:43Z</time><name>PT6329</name></trkpt>
<trkpt lat="53.494947" lon="-1.725093"><ele>356</ele><time>2022-04-08T13:34:44Z</time><name>PT6330</name></trkpt>
<trkpt lat="53.494957" lon="-1.725079"><ele>356</ele><time>2022-04-08T13:34:45Z</time><name>PT6331</name></trkpt>
<trkpt lat="53.494965" lon="-1.725065"><ele>356</ele><time>2022-04-08T13:34:46Z</time><name>PT6332</name></trkpt>
<trkpt lat="53.494972" lon="-1.725052"><ele>357</ele><time>2022-04-08T13:34:47Z</time><name>PT6333</name></trkpt>
<trkpt lat="53.494984" lon="-1.725038"><ele>357</ele><time>2022-04-08T13:34:48Z</time><name>PT6334</name></trkpt>
<trkpt lat="53.494996" lon="-1.725024"><ele>356</ele><time>2022-04-08T13:34:49Z</time><name>PT6335</name></trkpt>
<trkpt lat="53.495006" lon="-1.725010"><ele>356</ele><time>2022-04-08T13:34:50Z</time><name>PT6336</name></trkpt>
<trkpt lat="53.495015" lon="-1.724999"><ele>356</ele><time>2022-04-08T13:34:51Z</time><name>PT6337</name></trkpt>
<trkpt lat="53.495025" lon="-1.724989"><ele>356</ele><time>2022-04-08T13:34:52Z</time><name>PT6338</name></trkpt>
<trkpt lat="53.495035" lon="-1.724982"><ele>355</ele><time>2022-04-08T13:34:53Z</time><name>PT6339</name></trkpt>
<trkpt lat="53.495046" lon="-1.724970"><ele>354</ele><time>2022-04-08T13:34:54Z</time><name>PT6340</name></trkpt>
<trkpt lat="53.495055" lon="-1.724959"><ele>354</ele><time>2022-04-08T13:34:55Z</time><name>PT6341</name></trkpt>
<trkpt lat="53.495063" lon="-1.724947"><ele>354</ele><time>2022-04-08T13:34:56Z</time><name>PT6342</name></trkpt>
<trkpt lat="53.495071" lon="-1.724937"><ele>353</ele><time>2022-04-08T13:34:57Z</time><name>PT6343</name></trkpt>
<trkpt lat="53.495080" lon="-1.724923"><ele>353</ele><time>2022-04-08T13:34:58Z</time><name>PT6344</name></trkpt>
<trkpt lat="53.495091" lon="-1.724909"><ele>353</ele><time>2022-04-08T13:34:59Z</time><name>PT6345</name></trkpt>
<trkpt lat="53.495100" lon="-1.724894"><ele>353</ele><time>2022-04-08T13:35:00Z</time><name>PT6346</name></trkpt>
<trkpt lat="53.495108" lon="-1.724883"><ele>353</ele><time>2022-04-08T13:35:01Z</time><name>PT6347</name></trkpt>
<trkpt lat="53.495117" lon="-1.724872"><ele>352</ele><time>2022-04-08T13:35:02Z</time><name>PT6348</name></trkpt>
<trkpt lat="53.495126" lon="-1.724857"><ele>353</ele><time>2022-04-08T13:35:03Z</time><name>PT6349</name></trkpt>
<trkpt lat="53.495136" lon="-1.724842"><ele>352</ele><time>2022-04-08T13:35:04Z</time><name>PT6350</name></trkpt>
<trkpt lat="53.495145" lon="-1.724830"><ele>352</ele><time>2022-04-08T13:35:05Z</time><name>PT6351</name></trkpt>
<trkpt lat="53.495154" lon="-1.724818"><ele>352</ele><time>2022-04-08T13:35:06Z</time><name>PT6352</name></trkpt>
<trkpt lat="53.495163" lon="-1.724806"><ele>352</ele><time>2022-04-08T13:35:07Z</time><name>PT6353</name></trkpt>
<trkpt lat="53.495173" lon="-1.724791"><ele>352</ele><time>2022-04-08T13:35:08Z</time><name>PT6354</name></trkpt>
<trkpt lat="53.495183" lon="-1.724777"><ele>352</ele><time>2022-04-08T13:35:09Z</time><name>PT6355</name></trkpt>
<trkpt lat="53.495191" lon="-1.724766"><ele>351</ele><time>2022-04-08T13:35:10Z</time><name>PT6356</name></trkpt>
<trkpt lat="53.495201" lon="-1.724752"><ele>352</ele><time>2022-04-08T13:35:11Z</time><name>PT6357</name></trkpt>
<trkpt lat="53.495211" lon="-1.724740"><ele>352</ele><time>2022-04-08T13:35:12Z</time><name>PT6358</name></trkpt>
<trkpt lat="53.495221" lon="-1.724727"><ele>351</ele><time>2022-04-08T13:35:13Z</time><name>PT6359</name></trkpt>
<trkpt lat="53.495230" lon="-1.724715"><ele>352</ele><time>2022-04-08T13:35:14Z</time><name>PT6360</name></trkpt>
<trkpt lat="53.495237" lon="-1.724703"><ele>351</ele><time>2022-04-08T13:35:15Z</time><name>PT6361</name></trkpt>
<trkpt lat="53.495246" lon="-1.724690"><ele>352</ele><time>2022-04-08T13:35:16Z</time><name>PT6362</name></trkpt>
<trkpt lat="53.495256" lon="-1.724676"><ele>351</ele><time>2022-04-08T13:35:17Z</time><name>PT6363</name></trkpt>
<trkpt lat="53.495267" lon="-1.724659"><ele>351</ele><time>2022-04-08T13:35:18Z</time><name>PT6364</name></trkpt>
<trkpt lat="53.495276" lon="-1.724645"><ele>352</ele><time>2022-04-08T13:35:19Z</time><name>PT6365</name></trkpt>
<trkpt lat="53.495284" lon="-1.724635"><ele>351</ele><time>2022-04-08T13:35:20Z</time><name>PT6366</name></trkpt>
<trkpt lat="53.495293" lon="-1.724625"><ele>351</ele><time>2022-04-08T13:35:21Z</time><name>PT6367</name></trkpt>
<trkpt lat="53.495303" lon="-1.724611"><ele>351</ele><time>2022-04-08T13:35:22Z</time><name>PT6368</name></trkpt>
<trkpt lat="53.495310" lon="-1.724598"><ele>351</ele><time>2022-04-08T13:35:23Z</time><name>PT6369</name></trkpt>
<trkpt lat="53.495318" lon="-1.724586"><ele>351</ele><time>2022-04-08T13:35:24Z</time><name>PT6370</name></trkpt>
<trkpt lat="53.495325" lon="-1.724575"><ele>350</ele><time>2022-04-08T13:35:25Z</time><name>PT6371</name></trkpt>
<trkpt lat="53.495335" lon="-1.724560"><ele>350</ele><time>2022-04-08T13:35:26Z</time><name>PT6372</name></trkpt>
<trkpt lat="53.495345" lon="-1.724547"><ele>350</ele><time>2022-04-08T13:35:27Z</time><name>PT6373</name></trkpt>
<trkpt lat="53.495355" lon="-1.724536"><ele>350</ele><time>2022-04-08T13:35:28Z</time><name>PT6374</name></trkpt>
<trkpt lat="53.495363" lon="-1.724526"><ele>350</ele><time>2022-04-08T13:35:29Z</time><name>PT6375</name></trkpt>
<trkpt lat="53.495371" lon="-1.724514"><ele>350</ele><time>2022-04-08T13:35:30Z</time><name>PT6376</name></trkpt>
<trkpt lat="53.495382" lon="-1.724501"><ele>350</ele><time>2022-04-08T13:35:31Z</time><name>PT6377</name></trkpt>
<trkpt lat="53.495391" lon="-1.724489"><ele>350</ele><time>2022-04-08T13:35:32Z</time><name>PT6378</name></trkpt>
<trkpt lat="53.495397" lon="-1.724482"><ele>350</ele><time>2022-04-08T13:35:33Z</time><name>PT6379</name></trkpt>
<trkpt lat="53.495405" lon="-1.724471"><ele>350</ele><time>2022-04-08T13:35:34Z</time><name>PT6380</name></trkpt>
<trkpt lat="53.495412" lon="-1.724458"><ele>350</ele><time>2022-04-08T13:35:35Z</time><name>PT6381</name></trkpt>
<trkpt lat="53.495424" lon="-1.724446"><ele>350</ele><time>2022-04-08T13:35:36Z</time><name>PT6382</name></trkpt>
<trkpt lat="53.495434" lon="-1.724432"><ele>350</ele><time>2022-04-08T13:35:37Z</time><name>PT6383</name></trkpt>
<trkpt lat="53.495444" lon="-1.724420"><ele>350</ele><time>2022-04-08T13:35:38Z</time><name>PT6384</name></trkpt>
<trkpt lat="53.495455" lon="-1.724410"><ele>350</ele><time>2022-04-08T13:35:39Z</time><name>PT6385</name></trkpt>
<trkpt lat="53.495465" lon="-1.724399"><ele>350</ele><time>2022-04-08T13:35:40Z</time><name>PT6386</name></trkpt>
<trkpt lat="53.495474" lon="-1.724387"><ele>350</ele><time>2022-04-08T13:35:41Z</time><name>PT6387</name></trkpt>
<trkpt lat="53.495482" lon="-1.724376"><ele>349</ele><time>2022-04-08T13:35:42Z</time><name>PT6388</name></trkpt>
<trkpt lat="53.495488" lon="-1.724363"><ele>349</ele><time>2022-04-08T13:35:43Z</time><name>PT6389</name></trkpt>
<trkpt lat="53.495496" lon="-1.724351"><ele>349</ele><time>2022-04-08T13:35:44Z</time><name>PT6390</name></trkpt>
<trkpt lat="53.495506" lon="-1.724338"><ele>349</ele><time>2022-04-08T13:35:45Z</time><name>PT6391</name></trkpt>
<trkpt lat="53.495517" lon="-1.724326"><ele>349</ele><time>2022-04-08T13:35:46Z</time><name>PT6392</name></trkpt>
<trkpt lat="53.495526" lon="-1.724312"><ele>349</ele><time>2022-04-08T13:35:47Z</time><name>PT6393</name></trkpt>
<trkpt lat="53.495536" lon="-1.724302"><ele>348</ele><time>2022-04-08T13:35:48Z</time><name>PT6394</name></trkpt>
<trkpt lat="53.495547" lon="-1.724292"><ele>348</ele><time>2022-04-08T13:35:49Z</time><name>PT6395</name></trkpt>
<trkpt lat="53.495558" lon="-1.724281"><ele>348</ele><time>2022-04-08T13:35:50Z</time><name>PT6396</name></trkpt>
<trkpt lat="53.495565" lon="-1.724267"><ele>348</ele><time>2022-04-08T13:35:51Z</time><name>PT6397</name></trkpt>
<trkpt lat="53.495571" lon="-1.724255"><ele>348</ele><time>2022-04-08T13:35:52Z</time><name>PT6398</name></trkpt>
<trkpt lat="53.495578" lon="-1.724244"><ele>347</ele><time>2022-04-08T13:35:53Z</time><name>PT6399</name></trkpt>
<trkpt lat="53.495608" lon="-1.724201"><ele>347</ele><time>2022-04-08T13:35:56Z</time><name>PT6400</name></trkpt>
<trkpt lat="53.495649" lon="-1.724149"><ele>347</ele><time>2022-04-08T13:36:00Z</time><name>PT6401</name></trkpt>
<trkpt lat="53.495684" lon="-1.724092"><ele>348</ele><time>2022-04-08T13:36:04Z</time><name>PT6402</name></trkpt>
<trkpt lat="53.495721" lon="-1.724041"><ele>347</ele><time>2022-04-08T13:36:08Z</time><name>PT6403</name></trkpt>
<trkpt lat="53.495767" lon="-1.723991"><ele>346</ele><time>2022-04-08T13:36:12Z</time><name>PT6404</name></trkpt>
<trkpt lat="53.495811" lon="-1.723941"><ele>345</ele><time>2022-04-08T13:36:16Z</time><name>PT6405</name></trkpt>
<trkpt lat="53.495857" lon="-1.723898"><ele>344</ele><time>2022-04-08T13:36:20Z</time><name>PT6406</name></trkpt>
<trkpt lat="53.495896" lon="-1.723844"><ele>343</ele><time>2022-04-08T13:36:24Z</time><name>PT6407</name></trkpt>
<trkpt lat="53.495938" lon="-1.723793"><ele>343</ele><time>2022-04-08T13:36:28Z</time><name>PT6408</name></trkpt>
<trkpt lat="53.495981" lon="-1.723740"><ele>342</ele><time>2022-04-08T13:36:32Z</time><name>PT6409</name></trkpt>
<trkpt lat="53.496020" lon="-1.723688"><ele>341</ele><time>2022-04-08T13:36:36Z</time><name>PT6410</name></trkpt>
<trkpt lat="53.496059" lon="-1.723635"><ele>340</ele><time>2022-04-08T13:36:40Z</time><name>PT6411</name></trkpt>
<trkpt lat="53.496094" lon="-1.723583"><ele>338</ele><time>2022-04-08T13:36:44Z</time><name>PT6412</name></trkpt>
<trkpt lat="53.496137" lon="-1.723531"><ele>338</ele><time>2022-04-08T13:36:48Z</time><name>PT6413</name></trkpt>
<trkpt lat="53.496172" lon="-1.723472"><ele>337</ele><time>2022-04-08T13:36:52Z</time><name>PT6414</name></trkpt>
<trkpt lat="53.496210" lon="-1.723418"><ele>336</ele><time>2022-04-08T13:36:56Z</time><name>PT6415</name></trkpt>
<trkpt lat="53.496245" lon="-1.723372"><ele>336</ele><time>2022-04-08T13:37:00Z</time><name>PT6416</name></trkpt>
<trkpt lat="53.496283" lon="-1.723317"><ele>336</ele><time>2022-04-08T13:37:04Z</time><name>PT6417</name></trkpt>
<trkpt lat="53.496324" lon="-1.723262"><ele>337</ele><time>2022-04-08T13:37:08Z</time><name>PT6418</name></trkpt>
<trkpt lat="53.496362" lon="-1.723207"><ele>336</ele><time>2022-04-08T13:37:12Z</time><name>PT6419</name></trkpt>
<trkpt lat="53.496407" lon="-1.723159"><ele>335</ele><time>2022-04-08T13:37:16Z</time><name>PT6420</name></trkpt>
<trkpt lat="53.496446" lon="-1.723119"><ele>335</ele><time>2022-04-08T13:37:20Z</time><name>PT6421</name></trkpt>
<trkpt lat="53.496492" lon="-1.723074"><ele>334</ele><time>2022-04-08T13:37:24Z</time><name>PT6422</name></trkpt>
<trkpt lat="53.496530" lon="-1.723077"><ele>332</ele><time>2022-04-08T13:37:28Z</time><name>PT6423</name></trkpt>
<trkpt lat="53.496572" lon="-1.723083"><ele>330</ele><time>2022-04-08T13:37:32Z</time><name>PT6424</name></trkpt>
<trkpt lat="53.496618" lon="-1.723100"><ele>329</ele><time>2022-04-08T13:37:36Z</time><name>PT6425</name></trkpt>
<trkpt lat="53.496660" lon="-1.723134"><ele>327</ele><time>2022-04-08T13:37:40Z</time><name>PT6426</name></trkpt>
<trkpt lat="53.496697" lon="-1.723175"><ele>327</ele><time>2022-04-08T13:37:44Z</time><name>PT6427</name></trkpt>
<trkpt lat="53.496724" lon="-1.723221"><ele>325</ele><time>2022-04-08T13:37:48Z</time><name>PT6428</name></trkpt>
<trkpt lat="53.496751" lon="-1.723279"><ele>326</ele><time>2022-04-08T13:37:52Z</time><name>PT6429</name></trkpt>
<trkpt lat="53.496774" lon="-1.723352"><ele>327</ele><time>2022-04-08T13:37:56Z</time><name>PT6430</name></trkpt>
<trkpt lat="53.496793" lon="-1.723421"><ele>326</ele><time>2022-04-08T13:38:00Z</time><name>PT6431</name></trkpt>
<trkpt lat="53.496808" lon="-1.723487"><ele>323</ele><time>2022-04-08T13:38:04Z</time><name>PT6432</name></trkpt>
<trkpt lat="53.496820" lon="-1.723551"><ele>322</ele><time>2022-04-08T13:38:08Z</time><name>PT6433</name></trkpt>
<trkpt lat="53.496820" lon="-1.723599"><ele>322</ele><time>2022-04-08T13:38:12Z</time><name>PT6434</name></trkpt>
<trkpt lat="53.496829" lon="-1.723635"><ele>323</ele><time>2022-04-08T13:38:16Z</time><name>PT6435</name></trkpt>
<trkpt lat="53.496851" lon="-1.723693"><ele>323</ele><time>2022-04-08T13:38:20Z</time><name>PT6436</name></trkpt>
<trkpt lat="53.496869" lon="-1.723752"><ele>324</ele><time>2022-04-08T13:38:24Z</time><name>PT6437</name></trkpt>
<trkpt lat="53.496888" lon="-1.723817"><ele>325</ele><time>2022-04-08T13:38:28Z</time><name>PT6438</name></trkpt>
<trkpt lat="53.496923" lon="-1.723862"><ele>326</ele><time>2022-04-08T13:38:32Z</time><name>PT6439</name></trkpt>
<trkpt lat="53.496957" lon="-1.723866"><ele>326</ele><time>2022-04-08T13:38:36Z</time><name>PT6440</name></trkpt>
<trkpt lat="53.497003" lon="-1.723846"><ele>327</ele><time>2022-04-08T13:38:40Z</time><name>PT6441</name></trkpt>
<trkpt lat="53.497038" lon="-1.723806"><ele>328</ele><time>2022-04-08T13:38:44Z</time><name>PT6442</name></trkpt>
<trkpt lat="53.497060" lon="-1.723764"><ele>328</ele><time>2022-04-08T13:38:48Z</time><name>PT6443</name></trkpt>
<trkpt lat="53.497073" lon="-1.723724"><ele>327</ele><time>2022-04-08T13:38:52Z</time><name>PT6444</name></trkpt>
<trkpt lat="53.497095" lon="-1.723673"><ele>327</ele><time>2022-04-08T13:38:56Z</time><name>PT6445</name></trkpt>
<trkpt lat="53.497121" lon="-1.723614"><ele>328</ele><time>2022-04-08T13:39:00Z</time><name>PT6446</name></trkpt>
<trkpt lat="53.497149" lon="-1.723561"><ele>328</ele><time>2022-04-08T13:39:04Z</time><name>PT6447</name></trkpt>
<trkpt lat="53.497173" lon="-1.723508"><ele>329</ele><time>2022-04-08T13:39:08Z</time><name>PT6448</name></trkpt>
<trkpt lat="53.497203" lon="-1.723452"><ele>329</ele><time>2022-04-08T13:39:12Z</time><name>PT6449</name></trkpt>
<trkpt lat="53.497237" lon="-1.723398"><ele>330</ele><time>2022-04-08T13:39:16Z</time><name>PT6450</name></trkpt>
<trkpt lat="53.497276" lon="-1.723353"><ele>331</ele><time>2022-04-08T13:39:20Z</time><name>PT6451</name></trkpt>
<trkpt lat="53.497305" lon="-1.723301"><ele>332</ele><time>2022-04-08T13:39:24Z</time><name>PT6452</name></trkpt>
<trkpt lat="53.497318" lon="-1.723284"><ele>332</ele><time>2022-04-08T13:39:25Z</time><name>PT6453</name></trkpt>
<trkpt lat="53.497327" lon="-1.723272"><ele>333</ele><time>2022-04-08T13:39:26Z</time><name>PT6454</name></trkpt>
<trkpt lat="53.497333" lon="-1.723256"><ele>333</ele><time>2022-04-08T13:39:27Z</time><name>PT6455</name></trkpt>
<trkpt lat="53.497341" lon="-1.723240"><ele>334</ele><time>2022-04-08T13:39:28Z</time><name>PT6456</name></trkpt>
<trkpt lat="53.497348" lon="-1.723226"><ele>334</ele><time>2022-04-08T13:39:29Z</time><name>PT6457</name></trkpt>
<trkpt lat="53.497355" lon="-1.723214"><ele>334</ele><time>2022-04-08T13:39:30Z</time><name>PT6458</name></trkpt>
<trkpt lat="53.497361" lon="-1.723202"><ele>334</ele><time>2022-04-08T13:39:31Z</time><name>PT6459</name></trkpt>
<trkpt lat="53.497365" lon="-1.723187"><ele>334</ele><time>2022-04-08T13:39:32Z</time><name>PT6460</name></trkpt>
<trkpt lat="53.497371" lon="-1.723172"><ele>334</ele><time>2022-04-08T13:39:33Z</time><name>PT6461</name></trkpt>
<trkpt lat="53.497374" lon="-1.723157"><ele>334</ele><time>2022-04-08T13:39:34Z</time><name>PT6462</name></trkpt>
<trkpt lat="53.497373" lon="-1.723141"><ele>334</ele><time>2022-04-08T13:39:35Z</time><name>PT6463</name></trkpt>
<trkpt lat="53.497376" lon="-1.723122"><ele>334</ele><time>2022-04-08T13:39:36Z</time><name>PT6464</name></trkpt>
<trkpt lat="53.497379" lon="-1.723108"><ele>334</ele><time>2022-04-08T13:39:37Z</time><name>PT6465</name></trkpt>
<trkpt lat="53.497381" lon="-1.723089"><ele>334</ele><time>2022-04-08T13:39:38Z</time><name>PT6466</name></trkpt>
<trkpt lat="53.497383" lon="-1.723077"><ele>334</ele><time>2022-04-08T13:39:39Z</time><name>PT6467</name></trkpt>
<trkpt lat="53.497387" lon="-1.723060"><ele>334</ele><time>2022-04-08T13:39:40Z</time><name>PT6468</name></trkpt>
<trkpt lat="53.497392" lon="-1.723051"><ele>333</ele><time>2022-04-08T13:39:41Z</time><name>PT6469</name></trkpt>
<trkpt lat="53.497397" lon="-1.723035"><ele>333</ele><time>2022-04-08T13:39:42Z</time><name>PT6470</name></trkpt>
<trkpt lat="53.497403" lon="-1.723019"><ele>333</ele><time>2022-04-08T13:39:43Z</time><name>PT6471</name></trkpt>
<trkpt lat="53.497406" lon="-1.723006"><ele>333</ele><time>2022-04-08T13:39:44Z</time><name>PT6472</name></trkpt>
<trkpt lat="53.497410" lon="-1.722991"><ele>333</ele><time>2022-04-08T13:39:45Z</time><name>PT6473</name></trkpt>
<trkpt lat="53.497416" lon="-1.722971"><ele>333</ele><time>2022-04-08T13:39:46Z</time><name>PT6474</name></trkpt>
<trkpt lat="53.497421" lon="-1.722956"><ele>333</ele><time>2022-04-08T13:39:47Z</time><name>PT6475</name></trkpt>
<trkpt lat="53.497425" lon="-1.722941"><ele>333</ele><time>2022-04-08T13:39:48Z</time><name>PT6476</name></trkpt>
<trkpt lat="53.497432" lon="-1.722920"><ele>333</ele><time>2022-04-08T13:39:49Z</time><name>PT6477</name></trkpt>
<trkpt lat="53.497435" lon="-1.722903"><ele>333</ele><time>2022-04-08T13:39:50Z</time><name>PT6478</name></trkpt>
<trkpt lat="53.497439" lon="-1.722884"><ele>333</ele><time>2022-04-08T13:39:51Z</time><name>PT6479</name></trkpt>
<trkpt lat="53.497442" lon="-1.722862"><ele>333</ele><time>2022-04-08T13:39:52Z</time><name>PT6480</name></trkpt>
<trkpt lat="53.497445" lon="-1.722841"><ele>333</ele><time>2022-04-08T13:39:53Z</time><name>PT6481</name></trkpt>
<trkpt lat="53.497446" lon="-1.722822"><ele>333</ele><time>2022-04-08T13:39:54Z</time><name>PT6482</name></trkpt>
<trkpt lat="53.497446" lon="-1.722802"><ele>333</ele><time>2022-04-08T13:39:55Z</time><name>PT6483</name></trkpt>
<trkpt lat="53.497445" lon="-1.722784"><ele>333</ele><time>2022-04-08T13:39:56Z</time><name>PT6484</name></trkpt>
<trkpt lat="53.497443" lon="-1.722773"><ele>333</ele><time>2022-04-08T13:39:57Z</time><name>PT6485</name></trkpt>
<trkpt lat="53.497441" lon="-1.722751"><ele>332</ele><time>2022-04-08T13:39:58Z</time><name>PT6486</name></trkpt>
<trkpt lat="53.497440" lon="-1.722726"><ele>332</ele><time>2022-04-08T13:39:59Z</time><name>PT6487</name></trkpt>
<trkpt lat="53.497441" lon="-1.722707"><ele>332</ele><time>2022-04-08T13:40:00Z</time><name>PT6488</name></trkpt>
<trkpt lat="53.497441" lon="-1.722689"><ele>332</ele><time>2022-04-08T13:40:01Z</time><name>PT6489</name></trkpt>
<trkpt lat="53.497439" lon="-1.722666"><ele>332</ele><time>2022-04-08T13:40:02Z</time><name>PT6490</name></trkpt>
<trkpt lat="53.497437" lon="-1.722647"><ele>332</ele><time>2022-04-08T13:40:03Z</time><name>PT6491</name></trkpt>
<trkpt lat="53.497437" lon="-1.722629"><ele>332</ele><time>2022-04-08T13:40:04Z</time><name>PT6492</name></trkpt>
<trkpt lat="53.497437" lon="-1.722609"><ele>332</ele><time>2022-04-08T13:40:05Z</time><name>PT6493</name></trkpt>
<trkpt lat="53.497437" lon="-1.722592"><ele>331</ele><time>2022-04-08T13:40:06Z</time><name>PT6494</name></trkpt>
<trkpt lat="53.497438" lon="-1.722572"><ele>331</ele><time>2022-04-08T13:40:07Z</time><name>PT6495</name></trkpt>
<trkpt lat="53.497438" lon="-1.722550"><ele>331</ele><time>2022-04-08T13:40:08Z</time><name>PT6496</name></trkpt>
<trkpt lat="53.497438" lon="-1.722523"><ele>331</ele><time>2022-04-08T13:40:09Z</time><name>PT6497</name></trkpt>
<trkpt lat="53.497438" lon="-1.722500"><ele>331</ele><time>2022-04-08T13:40:10Z</time><name>PT6498</name></trkpt>
<trkpt lat="53.497436" lon="-1.722482"><ele>331</ele><time>2022-04-08T13:40:11Z</time><name>PT6499</name></trkpt>
<trkpt lat="53.497435" lon="-1.722459"><ele>331</ele><time>2022-04-08T13:40:12Z</time><name>PT6500</name></trkpt>
<trkpt lat="53.497434" lon="-1.722438"><ele>331</ele><time>2022-04-08T13:40:13Z</time><name>PT6501</name></trkpt>
<trkpt lat="53.497435" lon="-1.722414"><ele>331</ele><time>2022-04-08T13:40:14Z</time><name>PT6502</name></trkpt>
<trkpt lat="53.497436" lon="-1.722392"><ele>331</ele><time>2022-04-08T13:40:15Z</time><name>PT6503</name></trkpt>
<trkpt lat="53.497437" lon="-1.722370"><ele>331</ele><time>2022-04-08T13:40:16Z</time><name>PT6504</name></trkpt>
<trkpt lat="53.497438" lon="-1.722351"><ele>331</ele><time>2022-04-08T13:40:17Z</time><name>PT6505</name></trkpt>
<trkpt lat="53.497439" lon="-1.722330"><ele>331</ele><time>2022-04-08T13:40:18Z</time><name>PT6506</name></trkpt>
<trkpt lat="53.497442" lon="-1.722310"><ele>331</ele><time>2022-04-08T13:40:19Z</time><name>PT6507</name></trkpt>
<trkpt lat="53.497442" lon="-1.722288"><ele>331</ele><time>2022-04-08T13:40:20Z</time><name>PT6508</name></trkpt>
<trkpt lat="53.497444" lon="-1.722266"><ele>331</ele><time>2022-04-08T13:40:21Z</time><name>PT6509</name></trkpt>
<trkpt lat="53.497447" lon="-1.722243"><ele>331</ele><time>2022-04-08T13:40:22Z</time><name>PT6510</name></trkpt>
<trkpt lat="53.497449" lon="-1.722223"><ele>331</ele><time>2022-04-08T13:40:23Z</time><name>PT6511</name></trkpt>
<trkpt lat="53.497448" lon="-1.722204"><ele>331</ele><time>2022-04-08T13:40:24Z</time><name>PT6512</name></trkpt>
<trkpt lat="53.497446" lon="-1.722184"><ele>331</ele><time>2022-04-08T13:40:25Z</time><name>PT6513</name></trkpt>
<trkpt lat="53.497446" lon="-1.722168"><ele>331</ele><time>2022-04-08T13:40:26Z</time><name>PT6514</name></trkpt>
<trkpt lat="53.497447" lon="-1.722151"><ele>331</ele><time>2022-04-08T13:40:27Z</time><name>PT6515</name></trkpt>
<trkpt lat="53.497449" lon="-1.722128"><ele>331</ele><time>2022-04-08T13:40:28Z</time><name>PT6516</name></trkpt>
<trkpt lat="53.497450" lon="-1.722112"><ele>331</ele><time>2022-04-08T13:40:29Z</time><name>PT6517</name></trkpt>
<trkpt lat="53.497449" lon="-1.722093"><ele>330</ele><time>2022-04-08T13:40:30Z</time><name>PT6518</name></trkpt>
<trkpt lat="53.497451" lon="-1.722072"><ele>330</ele><time>2022-04-08T13:40:31Z</time><name>PT6519</name></trkpt>
<trkpt lat="53.497455" lon="-1.722050"><ele>331</ele><time>2022-04-08T13:40:32Z</time><name>PT6520</name></trkpt>
<trkpt lat="53.497459" lon="-1.722037"><ele>330</ele><time>2022-04-08T13:40:33Z</time><name>PT6521</name></trkpt>
<trkpt lat="53.497462" lon="-1.722005"><ele>331</ele><time>2022-04-08T13:40:34Z</time><name>PT6522</name></trkpt>
<trkpt lat="53.497463" lon="-1.721983"><ele>331</ele><time>2022-04-08T13:40:35Z</time><name>PT6523</name></trkpt>
<trkpt lat="53.497462" lon="-1.721962"><ele>331</ele><time>2022-04-08T13:40:36Z</time><name>PT6524</name></trkpt>
<trkpt lat="53.497464" lon="-1.721938"><ele>331</ele><time>2022-04-08T13:40:37Z</time><name>PT6525</name></trkpt>
<trkpt lat="53.497468" lon="-1.721915"><ele>331</ele><time>2022-04-08T13:40:38Z</time><name>PT6526</name></trkpt>
<trkpt lat="53.497471" lon="-1.721892"><ele>331</ele><time>2022-04-08T13:40:39Z</time><name>PT6527</name></trkpt>
<trkpt lat="53.497472" lon="-1.721870"><ele>331</ele><time>2022-04-08T13:40:40Z</time><name>PT6528</name></trkpt>
<trkpt lat="53.497475" lon="-1.721849"><ele>331</ele><time>2022-04-08T13:40:41Z</time><name>PT6529</name></trkpt>
<trkpt lat="53.497478" lon="-1.721828"><ele>331</ele><time>2022-04-08T13:40:42Z</time><name>PT6530</name></trkpt>
<trkpt lat="53.497480" lon="-1.721805"><ele>331</ele><time>2022-04-08T13:40:43Z</time><name>PT6531</name></trkpt>
<trkpt lat="53.497486" lon="-1.721781"><ele>331</ele><time>2022-04-08T13:40:44Z</time><name>PT6532</name></trkpt>
<trkpt lat="53.497490" lon="-1.721760"><ele>331</ele><time>2022-04-08T13:40:45Z</time><name>PT6533</name></trkpt>
<trkpt lat="53.497492" lon="-1.721739"><ele>331</ele><time>2022-04-08T13:40:46Z</time><name>PT6534</name></trkpt>
<trkpt lat="53.497492" lon="-1.721720"><ele>331</ele><time>2022-04-08T13:40:47Z</time><name>PT6535</name></trkpt>
<trkpt lat="53.497493" lon="-1.721701"><ele>331</ele><time>2022-04-08T13:40:48Z</time><name>PT6536</name></trkpt>
<trkpt lat="53.497495" lon="-1.721680"><ele>331</ele><time>2022-04-08T13:40:49Z</time><name>PT6537</name></trkpt>
<trkpt lat="53.497498" lon="-1.721660"><ele>331</ele><time>2022-04-08T13:40:50Z</time><name>PT6538</name></trkpt>
<trkpt lat="53.497502" lon="-1.721639"><ele>331</ele><time>2022-04-08T13:40:51Z</time><name>PT6539</name></trkpt>
<trkpt lat="53.497501" lon="-1.721621"><ele>331</ele><time>2022-04-08T13:40:52Z</time><name>PT6540</name></trkpt>
<trkpt lat="53.497502" lon="-1.721610"><ele>330</ele><time>2022-04-08T13:40:53Z</time><name>PT6541</name></trkpt>
<trkpt lat="53.497504" lon="-1.721598"><ele>330</ele><time>2022-04-08T13:40:54Z</time><name>PT6542</name></trkpt>
<trkpt lat="53.497505" lon="-1.721582"><ele>330</ele><time>2022-04-08T13:40:55Z</time><name>PT6543</name></trkpt>
<trkpt lat="53.497506" lon="-1.721562"><ele>330</ele><time>2022-04-08T13:40:56Z</time><name>PT6544</name></trkpt>
<trkpt lat="53.497507" lon="-1.721535"><ele>331</ele><time>2022-04-08T13:40:57Z</time><name>PT6545</name></trkpt>
<trkpt lat="53.497509" lon="-1.721515"><ele>331</ele><time>2022-04-08T13:40:58Z</time><name>PT6546</name></trkpt>
<trkpt lat="53.497513" lon="-1.721490"><ele>331</ele><time>2022-04-08T13:40:59Z</time><name>PT6547</name></trkpt>
<trkpt lat="53.497516" lon="-1.721464"><ele>331</ele><time>2022-04-08T13:41:00Z</time><name>PT6548</name></trkpt>
<trkpt lat="53.497516" lon="-1.721444"><ele>330</ele><time>2022-04-08T13:41:01Z</time><name>PT6549</name></trkpt>
<trkpt lat="53.497519" lon="-1.721425"><ele>331</ele><time>2022-04-08T13:41:02Z</time><name>PT6550</name></trkpt>
<trkpt lat="53.497521" lon="-1.721404"><ele>330</ele><time>2022-04-08T13:41:03Z</time><name>PT6551</name></trkpt>
<trkpt lat="53.497522" lon="-1.721387"><ele>330</ele><time>2022-04-08T13:41:04Z</time><name>PT6552</name></trkpt>
<trkpt lat="53.497520" lon="-1.721366"><ele>330</ele><time>2022-04-08T13:41:05Z</time><name>PT6553</name></trkpt>
<trkpt lat="53.497522" lon="-1.721347"><ele>329</ele><time>2022-04-08T13:41:06Z</time><name>PT6554</name></trkpt>
<trkpt lat="53.497522" lon="-1.721327"><ele>330</ele><time>2022-04-08T13:41:07Z</time><name>PT6555</name></trkpt>
<trkpt lat="53.497527" lon="-1.721297"><ele>330</ele><time>2022-04-08T13:41:08Z</time><name>PT6556</name></trkpt>
<trkpt lat="53.497531" lon="-1.721272"><ele>330</ele><time>2022-04-08T13:41:09Z</time><name>PT6557</name></trkpt>
<trkpt lat="53.497534" lon="-1.721250"><ele>331</ele><time>2022-04-08T13:41:10Z</time><name>PT6558</name></trkpt>
<trkpt lat="53.497537" lon="-1.721228"><ele>331</ele><time>2022-04-08T13:41:11Z</time><name>PT6559</name></trkpt>
<trkpt lat="53.497537" lon="-1.721209"><ele>331</ele><time>2022-04-08T13:41:12Z</time><name>PT6560</name></trkpt>
<trkpt lat="53.497540" lon="-1.721185"><ele>331</ele><time>2022-04-08T13:41:13Z</time><name>PT6561</name></trkpt>
<trkpt lat="53.497543" lon="-1.721161"><ele>331</ele><time>2022-04-08T13:41:14Z</time><name>PT6562</name></trkpt>
<trkpt lat="53.497546" lon="-1.721144"><ele>331</ele><time>2022-04-08T13:41:15Z</time><name>PT6563</name></trkpt>
<trkpt lat="53.497550" lon="-1.721124"><ele>331</ele><time>2022-04-08T13:41:16Z</time><name>PT6564</name></trkpt>
<trkpt lat="53.497554" lon="-1.721103"><ele>331</ele><time>2022-04-08T13:41:17Z</time><name>PT6565</name></trkpt>
<trkpt lat="53.497557" lon="-1.721086"><ele>331</ele><time>2022-04-08T13:41:18Z</time><name>PT6566</name></trkpt>
<trkpt lat="53.497562" lon="-1.721068"><ele>330</ele><time>2022-04-08T13:41:19Z</time><name>PT6567</name></trkpt>
<trkpt lat="53.497567" lon="-1.721050"><ele>330</ele><time>2022-04-08T13:41:20Z</time><name>PT6568</name></trkpt>
<trkpt lat="53.497571" lon="-1.721028"><ele>331</ele><time>2022-04-08T13:41:21Z</time><name>PT6569</name></trkpt>
<trkpt lat="53.497575" lon="-1.721010"><ele>330</ele><time>2022-04-08T13:41:22Z</time><name>PT6570</name></trkpt>
<trkpt lat="53.497578" lon="-1.720989"><ele>330</ele><time>2022-04-08T13:41:23Z</time><name>PT6571</name></trkpt>
<trkpt lat="53.497591" lon="-1.720927"><ele>331</ele><time>2022-04-08T13:41:26Z</time><name>PT6572</name></trkpt>
<trkpt lat="53.497611" lon="-1.720849"><ele>331</ele><time>2022-04-08T13:41:30Z</time><name>PT6573</name></trkpt>
<trkpt lat="53.497630" lon="-1.720779"><ele>330</ele><time>2022-04-08T13:41:34Z</time><name>PT6574</name></trkpt>
<trkpt lat="53.497649" lon="-1.720708"><ele>330</ele><time>2022-04-08T13:41:38Z</time><name>PT6575</name></trkpt>
<trkpt lat="53.497675" lon="-1.720651"><ele>330</ele><time>2022-04-08T13:41:42Z</time><name>PT6576</name></trkpt>
<trkpt lat="53.497706" lon="-1.720577"><ele>330</ele><time>2022-04-08T13:41:46Z</time><name>PT6577</name></trkpt>
<trkpt lat="53.497727" lon="-1.720501"><ele>330</ele><time>2022-04-08T13:41:50Z</time><name>PT6578</name></trkpt>
<trkpt lat="53.497741" lon="-1.720426"><ele>330</ele><time>2022-04-08T13:41:54Z</time><name>PT6579</name></trkpt>
<trkpt lat="53.497754" lon="-1.720347"><ele>330</ele><time>2022-04-08T13:41:58Z</time><name>PT6580</name></trkpt>
<trkpt lat="53.497768" lon="-1.720266"><ele>330</ele><time>2022-04-08T13:42:02Z</time><name>PT6581</name></trkpt>
<trkpt lat="53.497785" lon="-1.720189"><ele>330</ele><time>2022-04-08T13:42:06Z</time><name>PT6582</name></trkpt>
<trkpt lat="53.497802" lon="-1.720108"><ele>330</ele><time>2022-04-08T13:42:10Z</time><name>PT6583</name></trkpt>
<trkpt lat="53.497819" lon="-1.720046"><ele>329</ele><time>2022-04-08T13:42:14Z</time><name>PT6584</name></trkpt>
<trkpt lat="53.497839" lon="-1.719982"><ele>328</ele><time>2022-04-08T13:42:18Z</time><name>PT6585</name></trkpt>
<trkpt lat="53.497857" lon="-1.719915"><ele>328</ele><time>2022-04-08T13:42:22Z</time><name>PT6586</name></trkpt>
<trkpt lat="53.497883" lon="-1.719862"><ele>328</ele><time>2022-04-08T13:42:26Z</time><name>PT6587</name></trkpt>
<trkpt lat="53.497899" lon="-1.719787"><ele>326</ele><time>2022-04-08T13:42:30Z</time><name>PT6588</name></trkpt>
<trkpt lat="53.497917" lon="-1.719718"><ele>326</ele><time>2022-04-08T13:42:34Z</time><name>PT6589</name></trkpt>
<trkpt lat="53.497935" lon="-1.719642"><ele>325</ele><time>2022-04-08T13:42:38Z</time><name>PT6590</name></trkpt>
<trkpt lat="53.497949" lon="-1.719558"><ele>325</ele><time>2022-04-08T13:42:42Z</time><name>PT6591</name></trkpt>
<trkpt lat="53.497968" lon="-1.719471"><ele>326</ele><time>2022-04-08T13:42:46Z</time><name>PT6592</name></trkpt>
<trkpt lat="53.497979" lon="-1.719384"><ele>326</ele><time>2022-04-08T13:42:50Z</time><name>PT6593</name></trkpt>
<trkpt lat="53.497992" lon="-1.719296"><ele>326</ele><time>2022-04-08T13:42:54Z</time><name>PT6594</name></trkpt>
<trkpt lat="53.498004" lon="-1.719212"><ele>325</ele><time>2022-04-08T13:42:58Z</time><name>PT6595</name></trkpt>
<trkpt lat="53.498012" lon="-1.719137"><ele>325</ele><time>2022-04-08T13:43:02Z</time><name>PT6596</name></trkpt>
<trkpt lat="53.498021" lon="-1.719061"><ele>324</ele><time>2022-04-08T13:43:06Z</time><name>PT6597</name></trkpt>
<trkpt lat="53.498023" lon="-1.718978"><ele>324</ele><time>2022-04-08T13:43:10Z</time><name>PT6598</name></trkpt>
<trkpt lat="53.498028" lon="-1.718901"><ele>323</ele><time>2022-04-08T13:43:14Z</time><name>PT6599</name></trkpt>
<trkpt lat="53.498031" lon="-1.718836"><ele>323</ele><time>2022-04-08T13:43:18Z</time><name>PT6600</name></trkpt>
<trkpt lat="53.498038" lon="-1.718748"><ele>323</ele><time>2022-04-08T13:43:22Z</time><name>PT6601</name></trkpt>
<trkpt lat="53.498042" lon="-1.718665"><ele>321</ele><time>2022-04-08T13:43:26Z</time><name>PT6602</name></trkpt>
<trkpt lat="53.498055" lon="-1.718585"><ele>322</ele><time>2022-04-08T13:43:30Z</time><name>PT6603</name></trkpt>
<trkpt lat="53.498066" lon="-1.718502"><ele>322</ele><time>2022-04-08T13:43:34Z</time><name>PT6604</name></trkpt>
<trkpt lat="53.498075" lon="-1.718413"><ele>322</ele><time>2022-04-08T13:43:38Z</time><name>PT6605</name></trkpt>
<trkpt lat="53.498089" lon="-1.718323"><ele>322</ele><time>2022-04-08T13:43:42Z</time><name>PT6606</name></trkpt>
<trkpt lat="53.498103" lon="-1.718231"><ele>323</ele><time>2022-04-08T13:43:46Z</time><name>PT6607</name></trkpt>
<trkpt lat="53.498109" lon="-1.718146"><ele>322</ele><time>2022-04-08T13:43:50Z</time><name>PT6608</name></trkpt>
<trkpt lat="53.498117" lon="-1.718063"><ele>322</ele><time>2022-04-08T13:43:54Z</time><name>PT6609</name></trkpt>
<trkpt lat="53.498125" lon="-1.717984"><ele>323</ele><time>2022-04-08T13:43:58Z</time><name>PT6610</name></trkpt>
<trkpt lat="53.498139" lon="-1.717893"><ele>323</ele><time>2022-04-08T13:44:02Z</time><name>PT6611</name></trkpt>
<trkpt lat="53.498154" lon="-1.717800"><ele>323</ele><time>2022-04-08T13:44:06Z</time><name>PT6612</name></trkpt>
<trkpt lat="53.498168" lon="-1.717719"><ele>323</ele><time>2022-04-08T13:44:10Z</time><name>PT6613</name></trkpt>
<trkpt lat="53.498180" lon="-1.717657"><ele>323</ele><time>2022-04-08T13:44:13Z</time><name>PT6614</name></trkpt>
<trkpt lat="53.498184" lon="-1.717639"><ele>323</ele><time>2022-04-08T13:44:14Z</time><name>PT6615</name></trkpt>
<trkpt lat="53.498188" lon="-1.717617"><ele>323</ele><time>2022-04-08T13:44:15Z</time><name>PT6616</name></trkpt>
<trkpt lat="53.498191" lon="-1.717597"><ele>323</ele><time>2022-04-08T13:44:16Z</time><name>PT6617</name></trkpt>
<trkpt lat="53.498193" lon="-1.717575"><ele>323</ele><time>2022-04-08T13:44:17Z</time><name>PT6618</name></trkpt>
<trkpt lat="53.498197" lon="-1.717553"><ele>323</ele><time>2022-04-08T13:44:18Z</time><name>PT6619</name></trkpt>
<trkpt lat="53.498201" lon="-1.717531"><ele>323</ele><time>2022-04-08T13:44:19Z</time><name>PT6620</name></trkpt>
<trkpt lat="53.498205" lon="-1.717509"><ele>323</ele><time>2022-04-08T13:44:20Z</time><name>PT6621</name></trkpt>
<trkpt lat="53.498209" lon="-1.717488"><ele>322</ele><time>2022-04-08T13:44:21Z</time><name>PT6622</name></trkpt>
<trkpt lat="53.498212" lon="-1.717468"><ele>322</ele><time>2022-04-08T13:44:22Z</time><name>PT6623</name></trkpt>
<trkpt lat="53.498215" lon="-1.717449"><ele>322</ele><time>2022-04-08T13:44:23Z</time><name>PT6624</name></trkpt>
<trkpt lat="53.498217" lon="-1.717429"><ele>322</ele><time>2022-04-08T13:44:24Z</time><name>PT6625</name></trkpt>
<trkpt lat="53.498218" lon="-1.717408"><ele>322</ele><time>2022-04-08T13:44:25Z</time><name>PT6626</name></trkpt>
<trkpt lat="53.498219" lon="-1.717387"><ele>322</ele><time>2022-04-08T13:44:26Z</time><name>PT6627</name></trkpt>
<trkpt lat="53.498220" lon="-1.717365"><ele>322</ele><time>2022-04-08T13:44:27Z</time><name>PT6628</name></trkpt>
<trkpt lat="53.498225" lon="-1.717343"><ele>321</ele><time>2022-04-08T13:44:28Z</time><name>PT6629</name></trkpt>
<trkpt lat="53.498232" lon="-1.717324"><ele>321</ele><time>2022-04-08T13:44:29Z</time><name>PT6630</name></trkpt>
<trkpt lat="53.498235" lon="-1.717301"><ele>321</ele><time>2022-04-08T13:44:30Z</time><name>PT6631</name></trkpt>
<trkpt lat="53.498238" lon="-1.717282"><ele>322</ele><time>2022-04-08T13:44:31Z</time><name>PT6632</name></trkpt>
<trkpt lat="53.498235" lon="-1.717269"><ele>320</ele><time>2022-04-08T13:44:32Z</time><name>PT6633</name></trkpt>
<trkpt lat="53.498236" lon="-1.717247"><ele>320</ele><time>2022-04-08T13:44:33Z</time><name>PT6634</name></trkpt>
<trkpt lat="53.498238" lon="-1.717224"><ele>321</ele><time>2022-04-08T13:44:34Z</time><name>PT6635</name></trkpt>
<trkpt lat="53.498240" lon="-1.717203"><ele>320</ele><time>2022-04-08T13:44:35Z</time><name>PT6636</name></trkpt>
<trkpt lat="53.498238" lon="-1.717188"><ele>318</ele><time>2022-04-08T13:44:36Z</time><name>PT6637</name></trkpt>
<trkpt lat="53.498239" lon="-1.717170"><ele>318</ele><time>2022-04-08T13:44:37Z</time><name>PT6638</name></trkpt>
<trkpt lat="53.498240" lon="-1.717152"><ele>318</ele><time>2022-04-08T13:44:38Z</time><name>PT6639</name></trkpt>
<trkpt lat="53.498242" lon="-1.717134"><ele>318</ele><time>2022-04-08T13:44:39Z</time><name>PT6640</name></trkpt>
<trkpt lat="53.498245" lon="-1.717113"><ele>317</ele><time>2022-04-08T13:44:40Z</time><name>PT6641</name></trkpt>
<trkpt lat="53.498248" lon="-1.717099"><ele>317</ele><time>2022-04-08T13:44:41Z</time><name>PT6642</name></trkpt>
<trkpt lat="53.498252" lon="-1.717085"><ele>317</ele><time>2022-04-08T13:44:42Z</time><name>PT6643</name></trkpt>
<trkpt lat="53.498258" lon="-1.717063"><ele>317</ele><time>2022-04-08T13:44:43Z</time><name>PT6644</name></trkpt>
<trkpt lat="53.498261" lon="-1.717051"><ele>317</ele><time>2022-04-08T13:44:44Z</time><name>PT6645</name></trkpt>
<trkpt lat="53.498267" lon="-1.717030"><ele>317</ele><time>2022-04-08T13:44:45Z</time><name>PT6646</name></trkpt>
<trkpt lat="53.498270" lon="-1.717013"><ele>317</ele><time>2022-04-08T13:44:46Z</time><name>PT6647</name></trkpt>
<trkpt lat="53.498275" lon="-1.716994"><ele>317</ele><time>2022-04-08T13:44:47Z</time><name>PT6648</name></trkpt>
<trkpt lat="53.498281" lon="-1.716976"><ele>317</ele><time>2022-04-08T13:44:48Z</time><name>PT6649</name></trkpt>
<trkpt lat="53.498288" lon="-1.716959"><ele>317</ele><time>2022-04-08T13:44:49Z</time><name>PT6650</name></trkpt>
<trkpt lat="53.498294" lon="-1.716941"><ele>316</ele><time>2022-04-08T13:44:50Z</time><name>PT6651</name></trkpt>
<trkpt lat="53.498301" lon="-1.716922"><ele>316</ele><time>2022-04-08T13:44:51Z</time><name>PT6652</name></trkpt>
<trkpt lat="53.498308" lon="-1.716900"><ele>316</ele><time>2022-04-08T13:44:52Z</time><name>PT6653</name></trkpt>
<trkpt lat="53.498312" lon="-1.716880"><ele>316</ele><time>2022-04-08T13:44:53Z</time><name>PT6654</name></trkpt>
<trkpt lat="53.498319" lon="-1.716856"><ele>316</ele><time>2022-04-08T13:44:54Z</time><name>PT6655</name></trkpt>
<trkpt lat="53.498326" lon="-1.716833"><ele>316</ele><time>2022-04-08T13:44:55Z</time><name>PT6656</name></trkpt>
<trkpt lat="53.498334" lon="-1.716815"><ele>316</ele><time>2022-04-08T13:44:56Z</time><name>PT6657</name></trkpt>
<trkpt lat="53.498341" lon="-1.716794"><ele>317</ele><time>2022-04-08T13:44:57Z</time><name>PT6658</name></trkpt>
<trkpt lat="53.498349" lon="-1.716777"><ele>317</ele><time>2022-04-08T13:44:58Z</time><name>PT6659</name></trkpt>
<trkpt lat="53.498355" lon="-1.716760"><ele>316</ele><time>2022-04-08T13:44:59Z</time><name>PT6660</name></trkpt>
<trkpt lat="53.498359" lon="-1.716743"><ele>316</ele><time>2022-04-08T13:45:00Z</time><name>PT6661</name></trkpt>
<trkpt lat="53.498362" lon="-1.716720"><ele>316</ele><time>2022-04-08T13:45:01Z</time><name>PT6662</name></trkpt>
<trkpt lat="53.498367" lon="-1.716700"><ele>316</ele><time>2022-04-08T13:45:02Z</time><name>PT6663</name></trkpt>
<trkpt lat="53.498372" lon="-1.716683"><ele>316</ele><time>2022-04-08T13:45:03Z</time><name>PT6664</name></trkpt>
<trkpt lat="53.498379" lon="-1.716665"><ele>316</ele><time>2022-04-08T13:45:04Z</time><name>PT6665</name></trkpt>
<trkpt lat="53.498389" lon="-1.716642"><ele>316</ele><time>2022-04-08T13:45:05Z</time><name>PT6666</name></trkpt>
<trkpt lat="53.498395" lon="-1.716624"><ele>316</ele><time>2022-04-08T13:45:06Z</time><name>PT6667</name></trkpt>
<trkpt lat="53.498403" lon="-1.716602"><ele>317</ele><time>2022-04-08T13:45:07Z</time><name>PT6668</name></trkpt>
<trkpt lat="53.498408" lon="-1.716584"><ele>316</ele><time>2022-04-08T13:45:08Z</time><name>PT6669</name></trkpt>
<trkpt lat="53.498416" lon="-1.716564"><ele>316</ele><time>2022-04-08T13:45:09Z</time><name>PT6670</name></trkpt>
<trkpt lat="53.498423" lon="-1.716544"><ele>317</ele><time>2022-04-08T13:45:10Z</time><name>PT6671</name></trkpt>
<trkpt lat="53.498429" lon="-1.716529"><ele>316</ele><time>2022-04-08T13:45:11Z</time><name>PT6672</name></trkpt>
<trkpt lat="53.498437" lon="-1.716513"><ele>316</ele><time>2022-04-08T13:45:12Z</time><name>PT6673</name></trkpt>
<trkpt lat="53.498443" lon="-1.716496"><ele>316</ele><time>2022-04-08T13:45:13Z</time><name>PT6674</name></trkpt>
<trkpt lat="53.498451" lon="-1.716475"><ele>317</ele><time>2022-04-08T13:45:14Z</time><name>PT6675</name></trkpt>
<trkpt lat="53.498458" lon="-1.716455"><ele>316</ele><time>2022-04-08T13:45:15Z</time><name>PT6676</name></trkpt>
<trkpt lat="53.498469" lon="-1.716432"><ele>317</ele><time>2022-04-08T13:45:16Z</time><name>PT6677</name></trkpt>
<trkpt lat="53.498478" lon="-1.716417"><ele>317</ele><time>2022-04-08T13:45:17Z</time><name>PT6678</name></trkpt>
<trkpt lat="53.498487" lon="-1.716400"><ele>316</ele><time>2022-04-08T13:45:18Z</time><name>PT6679</name></trkpt>
<trkpt lat="53.498495" lon="-1.716381"><ele>316</ele><time>2022-04-08T13:45:19Z</time><name>PT6680</name></trkpt>
<trkpt lat="53.498501" lon="-1.716367"><ele>316</ele><time>2022-04-08T13:45:20Z</time><name>PT6681</name></trkpt>
<trkpt lat="53.498507" lon="-1.716349"><ele>316</ele><time>2022-04-08T13:45:21Z</time><name>PT6682</name></trkpt>
<trkpt lat="53.498516" lon="-1.716332"><ele>316</ele><time>2022-04-08T13:45:22Z</time><name>PT6683</name></trkpt>
<trkpt lat="53.498524" lon="-1.716317"><ele>316</ele><time>2022-04-08T13:45:23Z</time><name>PT6684</name></trkpt>
<trkpt lat="53.498530" lon="-1.716303"><ele>315</ele><time>2022-04-08T13:45:24Z</time><name>PT6685</name></trkpt>
<trkpt lat="53.498538" lon="-1.716286"><ele>315</ele><time>2022-04-08T13:45:25Z</time><name>PT6686</name></trkpt>
<trkpt lat="53.498545" lon="-1.716270"><ele>315</ele><time>2022-04-08T13:45:26Z</time><name>PT6687</name></trkpt>
<trkpt lat="53.498555" lon="-1.716248"><ele>315</ele><time>2022-04-08T13:45:27Z</time><name>PT6688</name></trkpt>
<trkpt lat="53.498563" lon="-1.716228"><ele>315</ele><time>2022-04-08T13:45:28Z</time><name>PT6689</name></trkpt>
<trkpt lat="53.498574" lon="-1.716207"><ele>316</ele><time>2022-04-08T13:45:29Z</time><name>PT6690</name></trkpt>
<trkpt lat="53.498583" lon="-1.716193"><ele>316</ele><time>2022-04-08T13:45:30Z</time><name>PT6691</name></trkpt>
<trkpt lat="53.498593" lon="-1.716180"><ele>316</ele><time>2022-04-08T13:45:31Z</time><name>PT6692</name></trkpt>
<trkpt lat="53.498604" lon="-1.716165"><ele>315</ele><time>2022-04-08T13:45:32Z</time><name>PT6693</name></trkpt>
<trkpt lat="53.498614" lon="-1.716151"><ele>315</ele><time>2022-04-08T13:45:33Z</time><name>PT6694</name></trkpt>
<trkpt lat="53.498624" lon="-1.716137"><ele>315</ele><time>2022-04-08T13:45:34Z</time><name>PT6695</name></trkpt>
<trkpt lat="53.498634" lon="-1.716119"><ele>316</ele><time>2022-04-08T13:45:35Z</time><name>PT6696</name></trkpt>
<trkpt lat="53.498643" lon="-1.716103"><ele>316</ele><time>2022-04-08T13:45:36Z</time><name>PT6697</name></trkpt>
<trkpt lat="53.498653" lon="-1.716090"><ele>316</ele><time>2022-04-08T13:45:37Z</time><name>PT6698</name></trkpt>
<trkpt lat="53.498664" lon="-1.716076"><ele>315</ele><time>2022-04-08T13:45:38Z</time><name>PT6699</name></trkpt>
<trkpt lat="53.498673" lon="-1.716063"><ele>314</ele><time>2022-04-08T13:45:39Z</time><name>PT6700</name></trkpt>
<trkpt lat="53.498679" lon="-1.716052"><ele>314</ele><time>2022-04-08T13:45:40Z</time><name>PT6701</name></trkpt>
<trkpt lat="53.498691" lon="-1.716035"><ele>314</ele><time>2022-04-08T13:45:41Z</time><name>PT6702</name></trkpt>
<trkpt lat="53.498702" lon="-1.716019"><ele>314</ele><time>2022-04-08T13:45:42Z</time><name>PT6703</name></trkpt>
<trkpt lat="53.498712" lon="-1.716006"><ele>314</ele><time>2022-04-08T13:45:43Z</time><name>PT6704</name></trkpt>
<trkpt lat="53.498723" lon="-1.715993"><ele>314</ele><time>2022-04-08T13:45:44Z</time><name>PT6705</name></trkpt>
<trkpt lat="53.498735" lon="-1.715983"><ele>314</ele><time>2022-04-08T13:45:45Z</time><name>PT6706</name></trkpt>
<trkpt lat="53.498748" lon="-1.715972"><ele>314</ele><time>2022-04-08T13:45:46Z</time><name>PT6707</name></trkpt>
<trkpt lat="53.498756" lon="-1.715961"><ele>314</ele><time>2022-04-08T13:45:47Z</time><name>PT6708</name></trkpt>
<trkpt lat="53.498765" lon="-1.715950"><ele>314</ele><time>2022-04-08T13:45:48Z</time><name>PT6709</name></trkpt>
<trkpt lat="53.498773" lon="-1.715939"><ele>314</ele><time>2022-04-08T13:45:49Z</time><name>PT6710</name></trkpt>
<trkpt lat="53.498778" lon="-1.715929"><ele>314</ele><time>2022-04-08T13:45:50Z</time><name>PT6711</name></trkpt>
<trkpt lat="53.498790" lon="-1.715917"><ele>314</ele><time>2022-04-08T13:45:51Z</time><name>PT6712</name></trkpt>
<trkpt lat="53.498804" lon="-1.715909"><ele>314</ele><time>2022-04-08T13:45:52Z</time><name>PT6713</name></trkpt>
<trkpt lat="53.498817" lon="-1.715901"><ele>314</ele><time>2022-04-08T13:45:53Z</time><name>PT6714</name></trkpt>
<trkpt lat="53.498831" lon="-1.715892"><ele>314</ele><time>2022-04-08T13:45:54Z</time><name>PT6715</name></trkpt>
<trkpt lat="53.498843" lon="-1.715883"><ele>314</ele><time>2022-04-08T13:45:55Z</time><name>PT6716</name></trkpt>
<trkpt lat="53.498854" lon="-1.715876"><ele>314</ele><time>2022-04-08T13:45:56Z</time><name>PT6717</name></trkpt>
<trkpt lat="53.498865" lon="-1.715867"><ele>314</ele><time>2022-04-08T13:45:57Z</time><name>PT6718</name></trkpt>
<trkpt lat="53.498879" lon="-1.715857"><ele>315</ele><time>2022-04-08T13:45:58Z</time><name>PT6719</name></trkpt>
<trkpt lat="53.498891" lon="-1.715851"><ele>315</ele><time>2022-04-08T13:45:59Z</time><name>PT6720</name></trkpt>
<trkpt lat="53.498900" lon="-1.715846"><ele>315</ele><time>2022-04-08T13:46:00Z</time><name>PT6721</name></trkpt>
<trkpt lat="53.498911" lon="-1.715835"><ele>315</ele><time>2022-04-08T13:46:01Z</time><name>PT6722</name></trkpt>
<trkpt lat="53.498924" lon="-1.715822"><ele>315</ele><time>2022-04-08T13:46:02Z</time><name>PT6723</name></trkpt>
<trkpt lat="53.498937" lon="-1.715809"><ele>316</ele><time>2022-04-08T13:46:03Z</time><name>PT6724</name></trkpt>
<trkpt lat="53.498947" lon="-1.715796"><ele>316</ele><time>2022-04-08T13:46:04Z</time><name>PT6725</name></trkpt>
<trkpt lat="53.498958" lon="-1.715781"><ele>316</ele><time>2022-04-08T13:46:05Z</time><name>PT6726</name></trkpt>
<trkpt lat="53.498966" lon="-1.715766"><ele>316</ele><time>2022-04-08T13:46:06Z</time><name>PT6727</name></trkpt>
<trkpt lat="53.498974" lon="-1.715752"><ele>316</ele><time>2022-04-08T13:46:07Z</time><name>PT6728</name></trkpt>
<trkpt lat="53.498983" lon="-1.715736"><ele>316</ele><time>2022-04-08T13:46:08Z</time><name>PT6729</name></trkpt>
<trkpt lat="53.498992" lon="-1.715720"><ele>315</ele><time>2022-04-08T13:46:09Z</time><name>PT6730</name></trkpt>
<trkpt lat="53.498998" lon="-1.715706"><ele>315</ele><time>2022-04-08T13:46:10Z</time><name>PT6731</name></trkpt>
<trkpt lat="53.499004" lon="-1.715691"><ele>315</ele><time>2022-04-08T13:46:11Z</time><name>PT6732</name></trkpt>
<trkpt lat="53.499009" lon="-1.715673"><ele>314</ele><time>2022-04-08T13:46:12Z</time><name>PT6733</name></trkpt>
<trkpt lat="53.499036" lon="-1.715611"><ele>314</ele><time>2022-04-08T13:46:16Z</time><name>PT6734</name></trkpt>
<trkpt lat="53.499070" lon="-1.715546"><ele>314</ele><time>2022-04-08T13:46:20Z</time><name>PT6735</name></trkpt>
<trkpt lat="53.499105" lon="-1.715490"><ele>314</ele><time>2022-04-08T13:46:24Z</time><name>PT6736</name></trkpt>
<trkpt lat="53.499140" lon="-1.715437"><ele>313</ele><time>2022-04-08T13:46:28Z</time><name>PT6737</name></trkpt>
<trkpt lat="53.499178" lon="-1.715392"><ele>312</ele><time>2022-04-08T13:46:32Z</time><name>PT6738</name></trkpt>
<trkpt lat="53.499221" lon="-1.715345"><ele>311</ele><time>2022-04-08T13:46:36Z</time><name>PT6739</name></trkpt>
<trkpt lat="53.499243" lon="-1.715325"><ele>311</ele><time>2022-04-08T13:46:38Z</time><name>PT6740</name></trkpt>
<trkpt lat="53.499247" lon="-1.715317"><ele>311</ele><time>2022-04-08T13:46:39Z</time><name>PT6741</name></trkpt>
<trkpt lat="53.499260" lon="-1.715306"><ele>311</ele><time>2022-04-08T13:46:40Z</time><name>PT6742</name></trkpt>
<trkpt lat="53.499276" lon="-1.715293"><ele>311</ele><time>2022-04-08T13:46:41Z</time><name>PT6743</name></trkpt>
<trkpt lat="53.499288" lon="-1.715281"><ele>312</ele><time>2022-04-08T13:46:42Z</time><name>PT6744</name></trkpt>
<trkpt lat="53.499295" lon="-1.715273"><ele>312</ele><time>2022-04-08T13:46:43Z</time><name>PT6745</name></trkpt>
<trkpt lat="53.499304" lon="-1.715264"><ele>312</ele><time>2022-04-08T13:46:44Z</time><name>PT6746</name></trkpt>
<trkpt lat="53.499313" lon="-1.715256"><ele>312</ele><time>2022-04-08T13:46:45Z</time><name>PT6747</name></trkpt>
<trkpt lat="53.499323" lon="-1.715247"><ele>312</ele><time>2022-04-08T13:46:46Z</time><name>PT6748</name></trkpt>
<trkpt lat="53.499333" lon="-1.715235"><ele>312</ele><time>2022-04-08T13:46:47Z</time><name>PT6749</name></trkpt>
<trkpt lat="53.499343" lon="-1.715224"><ele>312</ele><time>2022-04-08T13:46:48Z</time><name>PT6750</name></trkpt>
<trkpt lat="53.499354" lon="-1.715213"><ele>312</ele><time>2022-04-08T13:46:49Z</time><name>PT6751</name></trkpt>
<trkpt lat="53.499366" lon="-1.715198"><ele>312</ele><time>2022-04-08T13:46:50Z</time><name>PT6752</name></trkpt>
<trkpt lat="53.499377" lon="-1.715187"><ele>312</ele><time>2022-04-08T13:46:51Z</time><name>PT6753</name></trkpt>
<trkpt lat="53.499390" lon="-1.715178"><ele>312</ele><time>2022-04-08T13:46:52Z</time><name>PT6754</name></trkpt>
<trkpt lat="53.499401" lon="-1.715165"><ele>312</ele><time>2022-04-08T13:46:53Z</time><name>PT6755</name></trkpt>
<trkpt lat="53.499411" lon="-1.715151"><ele>312</ele><time>2022-04-08T13:46:54Z</time><name>PT6756</name></trkpt>
<trkpt lat="53.499422" lon="-1.715140"><ele>311</ele><time>2022-04-08T13:46:55Z</time><name>PT6757</name></trkpt>
<trkpt lat="53.499432" lon="-1.715131"><ele>311</ele><time>2022-04-08T13:46:56Z</time><name>PT6758</name></trkpt>
<trkpt lat="53.499443" lon="-1.715119"><ele>311</ele><time>2022-04-08T13:46:57Z</time><name>PT6759</name></trkpt>
<trkpt lat="53.499454" lon="-1.715110"><ele>311</ele><time>2022-04-08T13:46:58Z</time><name>PT6760</name></trkpt>
<trkpt lat="53.499466" lon="-1.715100"><ele>311</ele><time>2022-04-08T13:46:59Z</time><name>PT6761</name></trkpt>
<trkpt lat="53.499477" lon="-1.715091"><ele>311</ele><time>2022-04-08T13:47:00Z</time><name>PT6762</name></trkpt>
<trkpt lat="53.499489" lon="-1.715081"><ele>311</ele><time>2022-04-08T13:47:01Z</time><name>PT6763</name></trkpt>
<trkpt lat="53.499501" lon="-1.715072"><ele>310</ele><time>2022-04-08T13:47:02Z</time><name>PT6764</name></trkpt>
<trkpt lat="53.499513" lon="-1.715063"><ele>310</ele><time>2022-04-08T13:47:03Z</time><name>PT6765</name></trkpt>
<trkpt lat="53.499524" lon="-1.715054"><ele>310</ele><time>2022-04-08T13:47:04Z</time><name>PT6766</name></trkpt>
<trkpt lat="53.499535" lon="-1.715049"><ele>310</ele><time>2022-04-08T13:47:05Z</time><name>PT6767</name></trkpt>
<trkpt lat="53.499546" lon="-1.715043"><ele>310</ele><time>2022-04-08T13:47:06Z</time><name>PT6768</name></trkpt>
<trkpt lat="53.499557" lon="-1.715038"><ele>310</ele><time>2022-04-08T13:47:07Z</time><name>PT6769</name></trkpt>
<trkpt lat="53.499570" lon="-1.715030"><ele>310</ele><time>2022-04-08T13:47:08Z</time><name>PT6770</name></trkpt>
<trkpt lat="53.499582" lon="-1.715017"><ele>310</ele><time>2022-04-08T13:47:09Z</time><name>PT6771</name></trkpt>
<trkpt lat="53.499596" lon="-1.715009"><ele>310</ele><time>2022-04-08T13:47:10Z</time><name>PT6772</name></trkpt>
<trkpt lat="53.499605" lon="-1.715002"><ele>310</ele><time>2022-04-08T13:47:11Z</time><name>PT6773</name></trkpt>
<trkpt lat="53.499616" lon="-1.714991"><ele>309</ele><time>2022-04-08T13:47:12Z</time><name>PT6774</name></trkpt>
<trkpt lat="53.499626" lon="-1.714977"><ele>309</ele><time>2022-04-08T13:47:13Z</time><name>PT6775</name></trkpt>
<trkpt lat="53.499638" lon="-1.714962"><ele>309</ele><time>2022-04-08T13:47:14Z</time><name>PT6776</name></trkpt>
<trkpt lat="53.499651" lon="-1.714951"><ele>309</ele><time>2022-04-08T13:47:15Z</time><name>PT6777</name></trkpt>
<trkpt lat="53.499662" lon="-1.714945"><ele>309</ele><time>2022-04-08T13:47:16Z</time><name>PT6778</name></trkpt>
<trkpt lat="53.499674" lon="-1.714937"><ele>309</ele><time>2022-04-08T13:47:17Z</time><name>PT6779</name></trkpt>
<trkpt lat="53.499687" lon="-1.714928"><ele>309</ele><time>2022-04-08T13:47:18Z</time><name>PT6780</name></trkpt>
<trkpt lat="53.499701" lon="-1.714919"><ele>310</ele><time>2022-04-08T13:47:19Z</time><name>PT6781</name></trkpt>
<trkpt lat="53.499711" lon="-1.714910"><ele>309</ele><time>2022-04-08T13:47:20Z</time><name>PT6782</name></trkpt>
<trkpt lat="53.499722" lon="-1.714899"><ele>309</ele><time>2022-04-08T13:47:21Z</time><name>PT6783</name></trkpt>
<trkpt lat="53.499733" lon="-1.714887"><ele>309</ele><time>2022-04-08T13:47:22Z</time><name>PT6784</name></trkpt>
<trkpt lat="53.499747" lon="-1.714874"><ele>309</ele><time>2022-04-08T13:47:23Z</time><name>PT6785</name></trkpt>
<trkpt lat="53.499759" lon="-1.714866"><ele>309</ele><time>2022-04-08T13:47:24Z</time><name>PT6786</name></trkpt>
<trkpt lat="53.499771" lon="-1.714858"><ele>309</ele><time>2022-04-08T13:47:25Z</time><name>PT6787</name></trkpt>
<trkpt lat="53.499783" lon="-1.714851"><ele>309</ele><time>2022-04-08T13:47:26Z</time><name>PT6788</name></trkpt>
<trkpt lat="53.499794" lon="-1.714842"><ele>309</ele><time>2022-04-08T13:47:27Z</time><name>PT6789</name></trkpt>
<trkpt lat="53.499804" lon="-1.714833"><ele>308</ele><time>2022-04-08T13:47:28Z</time><name>PT6790</name></trkpt>
<trkpt lat="53.499816" lon="-1.714825"><ele>309</ele><time>2022-04-08T13:47:29Z</time><name>PT6791</name></trkpt>
<trkpt lat="53.499829" lon="-1.714814"><ele>308</ele><time>2022-04-08T13:47:30Z</time><name>PT6792</name></trkpt>
<trkpt lat="53.499842" lon="-1.714805"><ele>308</ele><time>2022-04-08T13:47:31Z</time><name>PT6793</name></trkpt>
<trkpt lat="53.499853" lon="-1.714798"><ele>309</ele><time>2022-04-08T13:47:32Z</time><name>PT6794</name></trkpt>
<trkpt lat="53.499863" lon="-1.714791"><ele>308</ele><time>2022-04-08T13:47:33Z</time><name>PT6795</name></trkpt>
<trkpt lat="53.499877" lon="-1.714784"><ele>308</ele><time>2022-04-08T13:47:34Z</time><name>PT6796</name></trkpt>
<trkpt lat="53.499888" lon="-1.714774"><ele>308</ele><time>2022-04-08T13:47:35Z</time><name>PT6797</name></trkpt>
<trkpt lat="53.499894" lon="-1.714765"><ele>307</ele><time>2022-04-08T13:47:36Z</time><name>PT6798</name></trkpt>
<trkpt lat="53.499906" lon="-1.714754"><ele>307</ele><time>2022-04-08T13:47:37Z</time><name>PT6799</name></trkpt>
<trkpt lat="53.499918" lon="-1.714745"><ele>307</ele><time>2022-04-08T13:47:38Z</time><name>PT6800</name></trkpt>
<trkpt lat="53.499929" lon="-1.714737"><ele>307</ele><time>2022-04-08T13:47:39Z</time><name>PT6801</name></trkpt>
<trkpt lat="53.499942" lon="-1.714728"><ele>306</ele><time>2022-04-08T13:47:40Z</time><name>PT6802</name></trkpt>
<trkpt lat="53.499954" lon="-1.714718"><ele>307</ele><time>2022-04-08T13:47:41Z</time><name>PT6803</name></trkpt>
<trkpt lat="53.499965" lon="-1.714713"><ele>307</ele><time>2022-04-08T13:47:42Z</time><name>PT6804</name></trkpt>
<trkpt lat="53.499975" lon="-1.714708"><ele>308</ele><time>2022-04-08T13:47:43Z</time><name>PT6805</name></trkpt>
<trkpt lat="53.499986" lon="-1.714700"><ele>308</ele><time>2022-04-08T13:47:44Z</time><name>PT6806</name></trkpt>
<trkpt lat="53.499996" lon="-1.714691"><ele>308</ele><time>2022-04-08T13:47:45Z</time><name>PT6807</name></trkpt>
<trkpt lat="53.500007" lon="-1.714681"><ele>307</ele><time>2022-04-08T13:47:46Z</time><name>PT6808</name></trkpt>
<trkpt lat="53.500015" lon="-1.714669"><ele>307</ele><time>2022-04-08T13:47:47Z</time><name>PT6809</name></trkpt>
<trkpt lat="53.500025" lon="-1.714658"><ele>307</ele><time>2022-04-08T13:47:48Z</time><name>PT6810</name></trkpt>
<trkpt lat="53.500035" lon="-1.714644"><ele>307</ele><time>2022-04-08T13:47:49Z</time><name>PT6811</name></trkpt>
<trkpt lat="53.500043" lon="-1.714634"><ele>306</ele><time>2022-04-08T13:47:50Z</time><name>PT6812</name></trkpt>
<trkpt lat="53.500050" lon="-1.714624"><ele>306</ele><time>2022-04-08T13:47:51Z</time><name>PT6813</name></trkpt>
<trkpt lat="53.500061" lon="-1.714607"><ele>307</ele><time>2022-04-08T13:47:52Z</time><name>PT6814</name></trkpt>
<trkpt lat="53.500073" lon="-1.714591"><ele>307</ele><time>2022-04-08T13:47:53Z</time><name>PT6815</name></trkpt>
<trkpt lat="53.500081" lon="-1.714582"><ele>307</ele><time>2022-04-08T13:47:54Z</time><name>PT6816</name></trkpt>
<trkpt lat="53.500087" lon="-1.714572"><ele>306</ele><time>2022-04-08T13:47:55Z</time><name>PT6817</name></trkpt>
<trkpt lat="53.500094" lon="-1.714557"><ele>306</ele><time>2022-04-08T13:47:56Z</time><name>PT6818</name></trkpt>
<trkpt lat="53.500099" lon="-1.714541"><ele>305</ele><time>2022-04-08T13:47:57Z</time><name>PT6819</name></trkpt>
<trkpt lat="53.500108" lon="-1.714525"><ele>305</ele><time>2022-04-08T13:47:58Z</time><name>PT6820</name></trkpt>
<trkpt lat="53.500113" lon="-1.714509"><ele>304</ele><time>2022-04-08T13:47:59Z</time><name>PT6821</name></trkpt>
<trkpt lat="53.500114" lon="-1.714497"><ele>304</ele><time>2022-04-08T13:48:00Z</time><name>PT6822</name></trkpt>
<trkpt lat="53.500114" lon="-1.714489"><ele>303</ele><time>2022-04-08T13:48:01Z</time><name>PT6823</name></trkpt>
<trkpt lat="53.500117" lon="-1.714473"><ele>303</ele><time>2022-04-08T13:48:02Z</time><name>PT6824</name></trkpt>
<trkpt lat="53.500122" lon="-1.714463"><ele>303</ele><time>2022-04-08T13:48:03Z</time><name>PT6825</name></trkpt>
<trkpt lat="53.500123" lon="-1.714457"><ele>303</ele><time>2022-04-08T13:48:04Z</time><name>PT6826</name></trkpt>
<trkpt lat="53.500125" lon="-1.714454"><ele>303</ele><time>2022-04-08T13:48:05Z</time><name>PT6827</name></trkpt>
<trkpt lat="53.500125" lon="-1.714454"><ele>303</ele><time>2022-04-08T13:48:06Z</time><name>PT6828</name></trkpt>
<trkpt lat="53.500128" lon="-1.714456"><ele>303</ele><time>2022-04-08T13:48:15Z</time><name>PT6829</name></trkpt>
<trkpt lat="53.500129" lon="-1.714453"><ele>303</ele><time>2022-04-08T13:48:16Z</time><name>PT6830</name></trkpt>
<trkpt lat="53.500130" lon="-1.714448"><ele>303</ele><time>2022-04-08T13:48:17Z</time><name>PT6831</name></trkpt>
<trkpt lat="53.500131" lon="-1.714439"><ele>302</ele><time>2022-04-08T13:48:18Z</time><name>PT6832</name></trkpt>
<trkpt lat="53.500129" lon="-1.714439"><ele>303</ele><time>2022-04-08T13:48:50Z</time><name>PT6833</name></trkpt>
<trkpt lat="53.500128" lon="-1.714435"><ele>302</ele><time>2022-04-08T13:48:51Z</time><name>PT6834</name></trkpt>
<trkpt lat="53.500129" lon="-1.714430"><ele>302</ele><time>2022-04-08T13:48:52Z</time><name>PT6835</name></trkpt>
<trkpt lat="53.500129" lon="-1.714429"><ele>302</ele><time>2022-04-08T13:48:53Z</time><name>PT6836</name></trkpt>
<trkpt lat="53.500129" lon="-1.714416"><ele>302</ele><time>2022-04-08T13:49:46Z</time><name>PT6837</name></trkpt>
<trkpt lat="53.500139" lon="-1.714433"><ele>303</ele><time>2022-04-08T13:49:50Z</time><name>PT6838</name></trkpt>
<trkpt lat="53.500141" lon="-1.714425"><ele>303</ele><time>2022-04-08T13:49:51Z</time><name>PT6839</name></trkpt>
<trkpt lat="53.500145" lon="-1.714418"><ele>302</ele><time>2022-04-08T13:49:52Z</time><name>PT6840</name></trkpt>
<trkpt lat="53.500147" lon="-1.714413"><ele>302</ele><time>2022-04-08T13:49:53Z</time><name>PT6841</name></trkpt>
<trkpt lat="53.500151" lon="-1.714409"><ele>302</ele><time>2022-04-08T13:49:54Z</time><name>PT6842</name></trkpt>
<trkpt lat="53.500157" lon="-1.714412"><ele>301</ele><time>2022-04-08T13:49:55Z</time><name>PT6843</name></trkpt>
<trkpt lat="53.500155" lon="-1.714413"><ele>301</ele><time>2022-04-08T13:49:56Z</time><name>PT6844</name></trkpt>
<trkpt lat="53.500154" lon="-1.714409"><ele>301</ele><time>2022-04-08T13:49:57Z</time><name>PT6845</name></trkpt>
<trkpt lat="53.500155" lon="-1.714406"><ele>301</ele><time>2022-04-08T13:49:58Z</time><name>PT6846</name></trkpt>
<trkpt lat="53.500156" lon="-1.714405"><ele>301</ele><time>2022-04-08T13:49:59Z</time><name>PT6847</name></trkpt>
<trkpt lat="53.500158" lon="-1.714399"><ele>301</ele><time>2022-04-08T13:50:07Z</time><name>PT6848</name></trkpt>
<trkpt lat="53.500164" lon="-1.714378"><ele>300</ele><time>2022-04-08T13:50:08Z</time><name>PT6849</name></trkpt>
<trkpt lat="53.500169" lon="-1.714361"><ele>300</ele><time>2022-04-08T13:50:09Z</time><name>PT6850</name></trkpt>
<trkpt lat="53.500174" lon="-1.714346"><ele>300</ele><time>2022-04-08T13:50:10Z</time><name>PT6851</name></trkpt>
<trkpt lat="53.500178" lon="-1.714332"><ele>300</ele><time>2022-04-08T13:50:11Z</time><name>PT6852</name></trkpt>
<trkpt lat="53.500181" lon="-1.714314"><ele>299</ele><time>2022-04-08T13:50:12Z</time><name>PT6853</name></trkpt>
<trkpt lat="53.500182" lon="-1.714305"><ele>299</ele><time>2022-04-08T13:50:13Z</time><name>PT6854</name></trkpt>
<trkpt lat="53.500182" lon="-1.714288"><ele>299</ele><time>2022-04-08T13:50:14Z</time><name>PT6855</name></trkpt>
<trkpt lat="53.500182" lon="-1.714272"><ele>299</ele><time>2022-04-08T13:50:15Z</time><name>PT6856</name></trkpt>
<trkpt lat="53.500185" lon="-1.714254"><ele>299</ele><time>2022-04-08T13:50:16Z</time><name>PT6857</name></trkpt>
<trkpt lat="53.500188" lon="-1.714239"><ele>298</ele><time>2022-04-08T13:50:17Z</time><name>PT6858</name></trkpt>
<trkpt lat="53.500193" lon="-1.714225"><ele>298</ele><time>2022-04-08T13:50:18Z</time><name>PT6859</name></trkpt>
<trkpt lat="53.500196" lon="-1.714210"><ele>298</ele><time>2022-04-08T13:50:19Z</time><name>PT6860</name></trkpt>
<trkpt lat="53.500196" lon="-1.714202"><ele>297</ele><time>2022-04-08T13:50:20Z</time><name>PT6861</name></trkpt>
<trkpt lat="53.500197" lon="-1.714191"><ele>297</ele><time>2022-04-08T13:50:21Z</time><name>PT6862</name></trkpt>
<trkpt lat="53.500197" lon="-1.714178"><ele>297</ele><time>2022-04-08T13:50:22Z</time><name>PT6863</name></trkpt>
<trkpt lat="53.500199" lon="-1.714168"><ele>298</ele><time>2022-04-08T13:50:27Z</time><name>PT6864</name></trkpt>
<trkpt lat="53.500200" lon="-1.714154"><ele>297</ele><time>2022-04-08T13:50:28Z</time><name>PT6865</name></trkpt>
<trkpt lat="53.500203" lon="-1.714141"><ele>297</ele><time>2022-04-08T13:50:29Z</time><name>PT6866</name></trkpt>
<trkpt lat="53.500202" lon="-1.714124"><ele>296</ele><time>2022-04-08T13:50:30Z</time><name>PT6867</name></trkpt>
<trkpt lat="53.500203" lon="-1.714106"><ele>296</ele><time>2022-04-08T13:50:31Z</time><name>PT6868</name></trkpt>
<trkpt lat="53.500203" lon="-1.714096"><ele>295</ele><time>2022-04-08T13:50:32Z</time><name>PT6869</name></trkpt>
<trkpt lat="53.500202" lon="-1.714083"><ele>295</ele><time>2022-04-08T13:50:33Z</time><name>PT6870</name></trkpt>
<trkpt lat="53.500202" lon="-1.714070"><ele>295</ele><time>2022-04-08T13:50:34Z</time><name>PT6871</name></trkpt>
<trkpt lat="53.500202" lon="-1.714057"><ele>295</ele><time>2022-04-08T13:50:35Z</time><name>PT6872</name></trkpt>
<trkpt lat="53.500204" lon="-1.714046"><ele>295</ele><time>2022-04-08T13:50:36Z</time><name>PT6873</name></trkpt>
<trkpt lat="53.500204" lon="-1.714036"><ele>294</ele><time>2022-04-08T13:50:37Z</time><name>PT6874</name></trkpt>
<trkpt lat="53.500202" lon="-1.714022"><ele>294</ele><time>2022-04-08T13:50:38Z</time><name>PT6875</name></trkpt>
<trkpt lat="53.500201" lon="-1.714012"><ele>293</ele><time>2022-04-08T13:50:39Z</time><name>PT6876</name></trkpt>
<trkpt lat="53.500201" lon="-1.714001"><ele>292</ele><time>2022-04-08T13:50:40Z</time><name>PT6877</name></trkpt>
<trkpt lat="53.500199" lon="-1.713985"><ele>292</ele><time>2022-04-08T13:50:41Z</time><name>PT6878</name></trkpt>
<trkpt lat="53.500198" lon="-1.713966"><ele>292</ele><time>2022-04-08T13:50:42Z</time><name>PT6879</name></trkpt>
<trkpt lat="53.500197" lon="-1.713955"><ele>292</ele><time>2022-04-08T13:50:43Z</time><name>PT6880</name></trkpt>
<trkpt lat="53.500196" lon="-1.713938"><ele>292</ele><time>2022-04-08T13:50:44Z</time><name>PT6881</name></trkpt>
<trkpt lat="53.500193" lon="-1.713925"><ele>292</ele><time>2022-04-08T13:50:45Z</time><name>PT6882</name></trkpt>
<trkpt lat="53.500190" lon="-1.713912"><ele>292</ele><time>2022-04-08T13:50:46Z</time><name>PT6883</name></trkpt>
<trkpt lat="53.500188" lon="-1.713897"><ele>292</ele><time>2022-04-08T13:50:47Z</time><name>PT6884</name></trkpt>
<trkpt lat="53.500186" lon="-1.713882"><ele>291</ele><time>2022-04-08T13:50:48Z</time><name>PT6885</name></trkpt>
<trkpt lat="53.500185" lon="-1.713866"><ele>291</ele><time>2022-04-08T13:50:49Z</time><name>PT6886</name></trkpt>
<trkpt lat="53.500181" lon="-1.713853"><ele>291</ele><time>2022-04-08T13:50:50Z</time><name>PT6887</name></trkpt>
<trkpt lat="53.500180" lon="-1.713839"><ele>291</ele><time>2022-04-08T13:50:51Z</time><name>PT6888</name></trkpt>
<trkpt lat="53.500179" lon="-1.713833"><ele>290</ele><time>2022-04-08T13:50:52Z</time><name>PT6889</name></trkpt>
<trkpt lat="53.500178" lon="-1.713817"><ele>290</ele><time>2022-04-08T13:50:53Z</time><name>PT6890</name></trkpt>
<trkpt lat="53.500179" lon="-1.713802"><ele>290</ele><time>2022-04-08T13:50:54Z</time><name>PT6891</name></trkpt>
<trkpt lat="53.500177" lon="-1.713786"><ele>289</ele><time>2022-04-08T13:50:55Z</time><name>PT6892</name></trkpt>
<trkpt lat="53.500177" lon="-1.713770"><ele>289</ele><time>2022-04-08T13:50:56Z</time><name>PT6893</name></trkpt>
<trkpt lat="53.500179" lon="-1.713761"><ele>289</ele><time>2022-04-08T13:50:57Z</time><name>PT6894</name></trkpt>
<trkpt lat="53.500182" lon="-1.713747"><ele>289</ele><time>2022-04-08T13:50:58Z</time><name>PT6895</name></trkpt>
<trkpt lat="53.500183" lon="-1.713735"><ele>289</ele><time>2022-04-08T13:50:59Z</time><name>PT6896</name></trkpt>
<trkpt lat="53.500183" lon="-1.713716"><ele>289</ele><time>2022-04-08T13:51:00Z</time><name>PT6897</name></trkpt>
<trkpt lat="53.500183" lon="-1.713700"><ele>289</ele><time>2022-04-08T13:51:01Z</time><name>PT6898</name></trkpt>
<trkpt lat="53.500183" lon="-1.713690"><ele>288</ele><time>2022-04-08T13:51:02Z</time><name>PT6899</name></trkpt>
<trkpt lat="53.500182" lon="-1.713682"><ele>288</ele><time>2022-04-08T13:51:03Z</time><name>PT6900</name></trkpt>
<trkpt lat="53.500184" lon="-1.713674"><ele>287</ele><time>2022-04-08T13:51:04Z</time><name>PT6901</name></trkpt>
<trkpt lat="53.500187" lon="-1.713663"><ele>287</ele><time>2022-04-08T13:51:05Z</time><name>PT6902</name></trkpt>
<trkpt lat="53.500187" lon="-1.713651"><ele>286</ele><time>2022-04-08T13:51:06Z</time><name>PT6903</name></trkpt>
<trkpt lat="53.500186" lon="-1.713639"><ele>286</ele><time>2022-04-08T13:51:07Z</time><name>PT6904</name></trkpt>
<trkpt lat="53.500187" lon="-1.713627"><ele>285</ele><time>2022-04-08T13:51:08Z</time><name>PT6905</name></trkpt>
<trkpt lat="53.500186" lon="-1.713616"><ele>285</ele><time>2022-04-08T13:51:09Z</time><name>PT6906</name></trkpt>
<trkpt lat="53.500187" lon="-1.713592"><ele>285</ele><time>2022-04-08T13:51:10Z</time><name>PT6907</name></trkpt>
<trkpt lat="53.500193" lon="-1.713576"><ele>285</ele><time>2022-04-08T13:51:11Z</time><name>PT6908</name></trkpt>
<trkpt lat="53.500197" lon="-1.713564"><ele>284</ele><time>2022-04-08T13:51:12Z</time><name>PT6909</name></trkpt>
<trkpt lat="53.500201" lon="-1.713555"><ele>284</ele><time>2022-04-08T13:51:13Z</time><name>PT6910</name></trkpt>
<trkpt lat="53.500205" lon="-1.713542"><ele>284</ele><time>2022-04-08T13:51:14Z</time><name>PT6911</name></trkpt>
<trkpt lat="53.500207" lon="-1.713530"><ele>284</ele><time>2022-04-08T13:51:15Z</time><name>PT6912</name></trkpt>
<trkpt lat="53.500209" lon="-1.713515"><ele>284</ele><time>2022-04-08T13:51:16Z</time><name>PT6913</name></trkpt>
<trkpt lat="53.500211" lon="-1.713502"><ele>284</ele><time>2022-04-08T13:51:17Z</time><name>PT6914</name></trkpt>
<trkpt lat="53.500214" lon="-1.713485"><ele>284</ele><time>2022-04-08T13:51:18Z</time><name>PT6915</name></trkpt>
<trkpt lat="53.500215" lon="-1.713472"><ele>285</ele><time>2022-04-08T13:51:19Z</time><name>PT6916</name></trkpt>
<trkpt lat="53.500216" lon="-1.713471"><ele>285</ele><time>2022-04-08T13:51:20Z</time><name>PT6917</name></trkpt>
<trkpt lat="53.500219" lon="-1.713453"><ele>285</ele><time>2022-04-08T13:51:21Z</time><name>PT6918</name></trkpt>
<trkpt lat="53.500222" lon="-1.713441"><ele>285</ele><time>2022-04-08T13:51:22Z</time><name>PT6919</name></trkpt>
<trkpt lat="53.500224" lon="-1.713430"><ele>284</ele><time>2022-04-08T13:51:23Z</time><name>PT6920</name></trkpt>
<trkpt lat="53.500228" lon="-1.713418"><ele>285</ele><time>2022-04-08T13:51:24Z</time><name>PT6921</name></trkpt>
<trkpt lat="53.500230" lon="-1.713407"><ele>284</ele><time>2022-04-08T13:51:25Z</time><name>PT6922</name></trkpt>
<trkpt lat="53.500230" lon="-1.713397"><ele>284</ele><time>2022-04-08T13:51:26Z</time><name>PT6923</name></trkpt>
<trkpt lat="53.500229" lon="-1.713394"><ele>282</ele><time>2022-04-08T13:51:27Z</time><name>PT6924</name></trkpt>
<trkpt lat="53.500230" lon="-1.713394"><ele>282</ele><time>2022-04-08T13:51:28Z</time><name>PT6925</name></trkpt>
<trkpt lat="53.500233" lon="-1.713378"><ele>282</ele><time>2022-04-08T13:51:29Z</time><name>PT6926</name></trkpt>
<trkpt lat="53.500234" lon="-1.713370"><ele>282</ele><time>2022-04-08T13:51:30Z</time><name>PT6927</name></trkpt>
<trkpt lat="53.500241" lon="-1.713342"><ele>283</ele><time>2022-04-08T13:51:31Z</time><name>PT6928</name></trkpt>
<trkpt lat="53.500246" lon="-1.713329"><ele>282</ele><time>2022-04-08T13:51:32Z</time><name>PT6929</name></trkpt>
<trkpt lat="53.500249" lon="-1.713312"><ele>281</ele><time>2022-04-08T13:51:33Z</time><name>PT6930</name></trkpt>
<trkpt lat="53.500253" lon="-1.713297"><ele>281</ele><time>2022-04-08T13:51:34Z</time><name>PT6931</name></trkpt>
<trkpt lat="53.500256" lon="-1.713290"><ele>280</ele><time>2022-04-08T13:51:35Z</time><name>PT6932</name></trkpt>
<trkpt lat="53.500260" lon="-1.713283"><ele>279</ele><time>2022-04-08T13:51:36Z</time><name>PT6933</name></trkpt>
<trkpt lat="53.500265" lon="-1.713272"><ele>278</ele><time>2022-04-08T13:51:37Z</time><name>PT6934</name></trkpt>
<trkpt lat="53.500268" lon="-1.713267"><ele>277</ele><time>2022-04-08T13:51:38Z</time><name>PT6935</name></trkpt>
<trkpt lat="53.500273" lon="-1.713264"><ele>276</ele><time>2022-04-08T13:51:39Z</time><name>PT6936</name></trkpt>
<trkpt lat="53.500280" lon="-1.713250"><ele>275</ele><time>2022-04-08T13:51:40Z</time><name>PT6937</name></trkpt>
<trkpt lat="53.500290" lon="-1.713246"><ele>274</ele><time>2022-04-08T13:51:41Z</time><name>PT6938</name></trkpt>
<trkpt lat="53.500296" lon="-1.713225"><ele>274</ele><time>2022-04-08T13:51:42Z</time><name>PT6939</name></trkpt>
<trkpt lat="53.500301" lon="-1.713212"><ele>273</ele><time>2022-04-08T13:51:43Z</time><name>PT6940</name></trkpt>
<trkpt lat="53.500305" lon="-1.713198"><ele>273</ele><time>2022-04-08T13:51:44Z</time><name>PT6941</name></trkpt>
<trkpt lat="53.500310" lon="-1.713183"><ele>272</ele><time>2022-04-08T13:51:45Z</time><name>PT6942</name></trkpt>
<trkpt lat="53.500313" lon="-1.713161"><ele>272</ele><time>2022-04-08T13:51:46Z</time><name>PT6943</name></trkpt>
<trkpt lat="53.500316" lon="-1.713150"><ele>272</ele><time>2022-04-08T13:51:47Z</time><name>PT6944</name></trkpt>
<trkpt lat="53.500320" lon="-1.713139"><ele>271</ele><time>2022-04-08T13:51:48Z</time><name>PT6945</name></trkpt>
<trkpt lat="53.500323" lon="-1.713122"><ele>271</ele><time>2022-04-08T13:51:49Z</time><name>PT6946</name></trkpt>
<trkpt lat="53.500328" lon="-1.713078"><ele>270</ele><time>2022-04-08T13:51:52Z</time><name>PT6947</name></trkpt>
<trkpt lat="53.500353" lon="-1.712999"><ele>272</ele><time>2022-04-08T13:51:56Z</time><name>PT6948</name></trkpt>
<trkpt lat="53.500364" lon="-1.712935"><ele>272</ele><time>2022-04-08T13:52:00Z</time><name>PT6949</name></trkpt>
<trkpt lat="53.500377" lon="-1.712876"><ele>271</ele><time>2022-04-08T13:52:04Z</time><name>PT6950</name></trkpt>
<trkpt lat="53.500395" lon="-1.712831"><ele>268</ele><time>2022-04-08T13:52:08Z</time><name>PT6951</name></trkpt>
<trkpt lat="53.500409" lon="-1.712801"><ele>266</ele><time>2022-04-08T13:52:12Z</time><name>PT6952</name></trkpt>
<trkpt lat="53.500426" lon="-1.712744"><ele>265</ele><time>2022-04-08T13:52:16Z</time><name>PT6953</name></trkpt>
<trkpt lat="53.500433" lon="-1.712730"><ele>265</ele><time>2022-04-08T13:52:17Z</time><name>PT6954</name></trkpt>
<trkpt lat="53.500442" lon="-1.712704"><ele>265</ele><time>2022-04-08T13:52:18Z</time><name>PT6955</name></trkpt>
<trkpt lat="53.500456" lon="-1.712676"><ele>266</ele><time>2022-04-08T13:52:19Z</time><name>PT6956</name></trkpt>
<trkpt lat="53.500467" lon="-1.712641"><ele>267</ele><time>2022-04-08T13:52:20Z</time><name>PT6957</name></trkpt>
<trkpt lat="53.500472" lon="-1.712638"><ele>267</ele><time>2022-04-08T13:52:21Z</time><name>PT6958</name></trkpt>
<trkpt lat="53.500478" lon="-1.712627"><ele>266</ele><time>2022-04-08T13:52:22Z</time><name>PT6959</name></trkpt>
<trkpt lat="53.500479" lon="-1.712615"><ele>266</ele><time>2022-04-08T13:52:23Z</time><name>PT6960</name></trkpt>
<trkpt lat="53.500482" lon="-1.712593"><ele>266</ele><time>2022-04-08T13:52:24Z</time><name>PT6961</name></trkpt>
<trkpt lat="53.500485" lon="-1.712579"><ele>266</ele><time>2022-04-08T13:52:25Z</time><name>PT6962</name></trkpt>
<trkpt lat="53.500488" lon="-1.712565"><ele>266</ele><time>2022-04-08T13:52:26Z</time><name>PT6963</name></trkpt>
<trkpt lat="53.500489" lon="-1.712541"><ele>267</ele><time>2022-04-08T13:52:27Z</time><name>PT6964</name></trkpt>
<trkpt lat="53.500491" lon="-1.712520"><ele>267</ele><time>2022-04-08T13:52:28Z</time><name>PT6965</name></trkpt>
<trkpt lat="53.500492" lon="-1.712502"><ele>267</ele><time>2022-04-08T13:52:29Z</time><name>PT6966</name></trkpt>
<trkpt lat="53.500492" lon="-1.712482"><ele>267</ele><time>2022-04-08T13:52:30Z</time><name>PT6967</name></trkpt>
<trkpt lat="53.500494" lon="-1.712463"><ele>267</ele><time>2022-04-08T13:52:31Z</time><name>PT6968</name></trkpt>
<trkpt lat="53.500494" lon="-1.712447"><ele>267</ele><time>2022-04-08T13:52:33Z</time><name>PT6969</name></trkpt>
<trkpt lat="53.500495" lon="-1.712428"><ele>266</ele><time>2022-04-08T13:52:33Z</time><name>PT6970</name></trkpt>
<trkpt lat="53.500496" lon="-1.712410"><ele>266</ele><time>2022-04-08T13:52:34Z</time><name>PT6971</name></trkpt>
<trkpt lat="53.500497" lon="-1.712393"><ele>266</ele><time>2022-04-08T13:52:35Z</time><name>PT6972</name></trkpt>
<trkpt lat="53.500496" lon="-1.712375"><ele>266</ele><time>2022-04-08T13:52:36Z</time><name>PT6973</name></trkpt>
<trkpt lat="53.500494" lon="-1.712359"><ele>266</ele><time>2022-04-08T13:52:37Z</time><name>PT6974</name></trkpt>
<trkpt lat="53.500495" lon="-1.712339"><ele>266</ele><time>2022-04-08T13:52:38Z</time><name>PT6975</name></trkpt>
<trkpt lat="53.500496" lon="-1.712320"><ele>266</ele><time>2022-04-08T13:52:39Z</time><name>PT6976</name></trkpt>
<trkpt lat="53.500497" lon="-1.712304"><ele>266</ele><time>2022-04-08T13:52:40Z</time><name>PT6977</name></trkpt>
<trkpt lat="53.500498" lon="-1.712280"><ele>266</ele><time>2022-04-08T13:52:41Z</time><name>PT6978</name></trkpt>
<trkpt lat="53.500502" lon="-1.712257"><ele>265</ele><time>2022-04-08T13:52:42Z</time><name>PT6979</name></trkpt>
<trkpt lat="53.500502" lon="-1.712238"><ele>265</ele><time>2022-04-08T13:52:43Z</time><name>PT6980</name></trkpt>
<trkpt lat="53.500502" lon="-1.712221"><ele>265</ele><time>2022-04-08T13:52:44Z</time><name>PT6981</name></trkpt>
<trkpt lat="53.500501" lon="-1.712205"><ele>264</ele><time>2022-04-08T13:52:45Z</time><name>PT6982</name></trkpt>
<trkpt lat="53.500501" lon="-1.712186"><ele>264</ele><time>2022-04-08T13:52:46Z</time><name>PT6983</name></trkpt>
<trkpt lat="53.500503" lon="-1.712168"><ele>264</ele><time>2022-04-08T13:52:47Z</time><name>PT6984</name></trkpt>
<trkpt lat="53.500503" lon="-1.712157"><ele>264</ele><time>2022-04-08T13:52:48Z</time><name>PT6985</name></trkpt>
<trkpt lat="53.500505" lon="-1.712149"><ele>264</ele><time>2022-04-08T13:52:49Z</time><name>PT6986</name></trkpt>
<trkpt lat="53.500505" lon="-1.712148"><ele>264</ele><time>2022-04-08T13:52:50Z</time><name>PT6987</name></trkpt>
<trkpt lat="53.500504" lon="-1.712145"><ele>264</ele><time>2022-04-08T13:52:51Z</time><name>PT6988</name></trkpt>
<trkpt lat="53.500504" lon="-1.712144"><ele>264</ele><time>2022-04-08T13:52:52Z</time><name>PT6989</name></trkpt>
<trkpt lat="53.500504" lon="-1.712145"><ele>263</ele><time>2022-04-08T13:52:53Z</time><name>PT6990</name></trkpt>
<trkpt lat="53.500505" lon="-1.712135"><ele>263</ele><time>2022-04-08T13:52:58Z</time><name>PT6991</name></trkpt>
<trkpt lat="53.500512" lon="-1.712116"><ele>263</ele><time>2022-04-08T13:52:59Z</time><name>PT6992</name></trkpt>
<trkpt lat="53.500517" lon="-1.712097"><ele>263</ele><time>2022-04-08T13:53:00Z</time><name>PT6993</name></trkpt>
<trkpt lat="53.500524" lon="-1.712088"><ele>263</ele><time>2022-04-08T13:53:01Z</time><name>PT6994</name></trkpt>
<trkpt lat="53.500532" lon="-1.712081"><ele>263</ele><time>2022-04-08T13:53:02Z</time><name>PT6995</name></trkpt>
<trkpt lat="53.500540" lon="-1.712072"><ele>263</ele><time>2022-04-08T13:53:03Z</time><name>PT6996</name></trkpt>
<trkpt lat="53.500548" lon="-1.712066"><ele>264</ele><time>2022-04-08T13:53:04Z</time><name>PT6997</name></trkpt>
<trkpt lat="53.500560" lon="-1.712057"><ele>263</ele><time>2022-04-08T13:53:05Z</time><name>PT6998</name></trkpt>
<trkpt lat="53.500565" lon="-1.712045"><ele>263</ele><time>2022-04-08T13:53:06Z</time><name>PT6999</name></trkpt>
<trkpt lat="53.500575" lon="-1.712037"><ele>263</ele><time>2022-04-08T13:53:07Z</time><name>PT7000</name></trkpt>
<trkpt lat="53.500587" lon="-1.712024"><ele>263</ele><time>2022-04-08T13:53:08Z</time><name>PT7001</name></trkpt>
<trkpt lat="53.500597" lon="-1.712011"><ele>262</ele><time>2022-04-08T13:53:09Z</time><name>PT7002</name></trkpt>
<trkpt lat="53.500609" lon="-1.711997"><ele>262</ele><time>2022-04-08T13:53:10Z</time><name>PT7003</name></trkpt>
<trkpt lat="53.500619" lon="-1.711982"><ele>262</ele><time>2022-04-08T13:53:11Z</time><name>PT7004</name></trkpt>
<trkpt lat="53.500631" lon="-1.711967"><ele>262</ele><time>2022-04-08T13:53:12Z</time><name>PT7005</name></trkpt>
<trkpt lat="53.500643" lon="-1.711951"><ele>262</ele><time>2022-04-08T13:53:13Z</time><name>PT7006</name></trkpt>
<trkpt lat="53.500652" lon="-1.711936"><ele>263</ele><time>2022-04-08T13:53:14Z</time><name>PT7007</name></trkpt>
<trkpt lat="53.500658" lon="-1.711925"><ele>263</ele><time>2022-04-08T13:53:15Z</time><name>PT7008</name></trkpt>
<trkpt lat="53.500667" lon="-1.711916"><ele>262</ele><time>2022-04-08T13:53:16Z</time><name>PT7009</name></trkpt>
<trkpt lat="53.500675" lon="-1.711906"><ele>262</ele><time>2022-04-08T13:53:17Z</time><name>PT7010</name></trkpt>
<trkpt lat="53.500684" lon="-1.711894"><ele>262</ele><time>2022-04-08T13:53:18Z</time><name>PT7011</name></trkpt>
<trkpt lat="53.500696" lon="-1.711879"><ele>263</ele><time>2022-04-08T13:53:19Z</time><name>PT7012</name></trkpt>
<trkpt lat="53.500704" lon="-1.711864"><ele>263</ele><time>2022-04-08T13:53:20Z</time><name>PT7013</name></trkpt>
<trkpt lat="53.500712" lon="-1.711853"><ele>263</ele><time>2022-04-08T13:53:21Z</time><name>PT7014</name></trkpt>
<trkpt lat="53.500721" lon="-1.711841"><ele>263</ele><time>2022-04-08T13:53:22Z</time><name>PT7015</name></trkpt>
<trkpt lat="53.500729" lon="-1.711833"><ele>263</ele><time>2022-04-08T13:53:23Z</time><name>PT7016</name></trkpt>
<trkpt lat="53.500733" lon="-1.711828"><ele>263</ele><time>2022-04-08T13:53:24Z</time><name>PT7017</name></trkpt>
<trkpt lat="53.500735" lon="-1.711828"><ele>263</ele><time>2022-04-08T13:53:25Z</time><name>PT7018</name></trkpt>
<trkpt lat="53.500740" lon="-1.711827"><ele>263</ele><time>2022-04-08T13:53:26Z</time><name>PT7019</name></trkpt>
<trkpt lat="53.500742" lon="-1.711819"><ele>263</ele><time>2022-04-08T13:53:27Z</time><name>PT7020</name></trkpt>
<trkpt lat="53.500743" lon="-1.711804"><ele>264</ele><time>2022-04-08T13:53:28Z</time><name>PT7021</name></trkpt>
<trkpt lat="53.500743" lon="-1.711794"><ele>264</ele><time>2022-04-08T13:53:29Z</time><name>PT7022</name></trkpt>
<trkpt lat="53.500744" lon="-1.711793"><ele>264</ele><time>2022-04-08T13:53:30Z</time><name>PT7023</name></trkpt>
<trkpt lat="53.500745" lon="-1.711795"><ele>264</ele><time>2022-04-08T13:53:31Z</time><name>PT7024</name></trkpt>
<trkpt lat="53.500747" lon="-1.711798"><ele>263</ele><time>2022-04-08T13:53:38Z</time><name>PT7025</name></trkpt>
<trkpt lat="53.500752" lon="-1.711815"><ele>263</ele><time>2022-04-08T13:53:39Z</time><name>PT7026</name></trkpt>
<trkpt lat="53.500752" lon="-1.711815"><ele>262</ele><time>2022-04-08T13:53:40Z</time><name>PT7027</name></trkpt>
<trkpt lat="53.500759" lon="-1.711819"><ele>262</ele><time>2022-04-08T13:53:41Z</time><name>PT7028</name></trkpt>
<trkpt lat="53.500768" lon="-1.711828"><ele>262</ele><time>2022-04-08T13:53:42Z</time><name>PT7029</name></trkpt>
<trkpt lat="53.500775" lon="-1.711836"><ele>262</ele><time>2022-04-08T13:53:43Z</time><name>PT7030</name></trkpt>
<trkpt lat="53.500780" lon="-1.711838"><ele>262</ele><time>2022-04-08T13:53:44Z</time><name>PT7031</name></trkpt>
<trkpt lat="53.500777" lon="-1.711839"><ele>261</ele><time>2022-04-08T13:53:45Z</time><name>PT7032</name></trkpt>
<trkpt lat="53.500782" lon="-1.711840"><ele>260</ele><time>2022-04-08T13:53:46Z</time><name>PT7033</name></trkpt>
<trkpt lat="53.500784" lon="-1.711841"><ele>259</ele><time>2022-04-08T13:53:59Z</time><name>PT7034</name></trkpt>
<trkpt lat="53.500792" lon="-1.711830"><ele>258</ele><time>2022-04-08T13:54:00Z</time><name>PT7035</name></trkpt>
<trkpt lat="53.500799" lon="-1.711826"><ele>258</ele><time>2022-04-08T13:54:01Z</time><name>PT7036</name></trkpt>
<trkpt lat="53.500812" lon="-1.711820"><ele>259</ele><time>2022-04-08T13:54:02Z</time><name>PT7037</name></trkpt>
<trkpt lat="53.500822" lon="-1.711826"><ele>259</ele><time>2022-04-08T13:54:03Z</time><name>PT7038</name></trkpt>
<trkpt lat="53.500822" lon="-1.711839"><ele>259</ele><time>2022-04-08T13:54:04Z</time><name>PT7039</name></trkpt>
<trkpt lat="53.500829" lon="-1.711854"><ele>259</ele><time>2022-04-08T13:54:05Z</time><name>PT7040</name></trkpt>
<trkpt lat="53.500834" lon="-1.711867"><ele>260</ele><time>2022-04-08T13:54:06Z</time><name>PT7041</name></trkpt>
<trkpt lat="53.500837" lon="-1.711877"><ele>259</ele><time>2022-04-08T13:54:07Z</time><name>PT7042</name></trkpt>
<trkpt lat="53.500840" lon="-1.711883"><ele>259</ele><time>2022-04-08T13:54:08Z</time><name>PT7043</name></trkpt>
<trkpt lat="53.500849" lon="-1.711883"><ele>259</ele><time>2022-04-08T13:54:09Z</time><name>PT7044</name></trkpt>
<trkpt lat="53.500860" lon="-1.711873"><ele>261</ele><time>2022-04-08T13:54:10Z</time><name>PT7045</name></trkpt>
<trkpt lat="53.500863" lon="-1.711877"><ele>262</ele><time>2022-04-08T13:54:11Z</time><name>PT7046</name></trkpt>
<trkpt lat="53.500869" lon="-1.711881"><ele>262</ele><time>2022-04-08T13:54:12Z</time><name>PT7047</name></trkpt>
<trkpt lat="53.500874" lon="-1.711891"><ele>262</ele><time>2022-04-08T13:54:13Z</time><name>PT7048</name></trkpt>
<trkpt lat="53.500879" lon="-1.711896"><ele>262</ele><time>2022-04-08T13:54:14Z</time><name>PT7049</name></trkpt>
<trkpt lat="53.500883" lon="-1.711896"><ele>262</ele><time>2022-04-08T13:54:15Z</time><name>PT7050</name></trkpt>
<trkpt lat="53.500890" lon="-1.711898"><ele>261</ele><time>2022-04-08T13:54:16Z</time><name>PT7051</name></trkpt>
<trkpt lat="53.500893" lon="-1.711895"><ele>261</ele><time>2022-04-08T13:54:17Z</time><name>PT7052</name></trkpt>
<trkpt lat="53.500903" lon="-1.711880"><ele>263</ele><time>2022-04-08T13:54:18Z</time><name>PT7053</name></trkpt>
<trkpt lat="53.500911" lon="-1.711870"><ele>265</ele><time>2022-04-08T13:54:19Z</time><name>PT7054</name></trkpt>
<trkpt lat="53.500919" lon="-1.711855"><ele>267</ele><time>2022-04-08T13:54:20Z</time><name>PT7055</name></trkpt>
<trkpt lat="53.500933" lon="-1.711837"><ele>268</ele><time>2022-04-08T13:54:21Z</time><name>PT7056</name></trkpt>
<trkpt lat="53.500941" lon="-1.711819"><ele>271</ele><time>2022-04-08T13:54:22Z</time><name>PT7057</name></trkpt>
<trkpt lat="53.500949" lon="-1.711802"><ele>273</ele><time>2022-04-08T13:54:23Z</time><name>PT7058</name></trkpt>
<trkpt lat="53.500957" lon="-1.711796"><ele>273</ele><time>2022-04-08T13:54:24Z</time><name>PT7059</name></trkpt>
<trkpt lat="53.500966" lon="-1.711783"><ele>274</ele><time>2022-04-08T13:54:25Z</time><name>PT7060</name></trkpt>
<trkpt lat="53.500971" lon="-1.711767"><ele>274</ele><time>2022-04-08T13:54:26Z</time><name>PT7061</name></trkpt>
<trkpt lat="53.500978" lon="-1.711756"><ele>276</ele><time>2022-04-08T13:54:27Z</time><name>PT7062</name></trkpt>
<trkpt lat="53.500982" lon="-1.711749"><ele>276</ele><time>2022-04-08T13:54:28Z</time><name>PT7063</name></trkpt>
<trkpt lat="53.500984" lon="-1.711739"><ele>276</ele><time>2022-04-08T13:54:29Z</time><name>PT7064</name></trkpt>
<trkpt lat="53.500992" lon="-1.711725"><ele>276</ele><time>2022-04-08T13:54:30Z</time><name>PT7065</name></trkpt>
<trkpt lat="53.500998" lon="-1.711716"><ele>275</ele><time>2022-04-08T13:54:31Z</time><name>PT7066</name></trkpt>
<trkpt lat="53.500997" lon="-1.711713"><ele>275</ele><time>2022-04-08T13:54:32Z</time><name>PT7067</name></trkpt>
<trkpt lat="53.500996" lon="-1.711710"><ele>275</ele><time>2022-04-08T13:54:33Z</time><name>PT7068</name></trkpt>
<trkpt lat="53.501002" lon="-1.711693"><ele>275</ele><time>2022-04-08T13:54:34Z</time><name>PT7069</name></trkpt>
<trkpt lat="53.501006" lon="-1.711679"><ele>274</ele><time>2022-04-08T13:54:35Z</time><name>PT7070</name></trkpt>
<trkpt lat="53.501010" lon="-1.711656"><ele>274</ele><time>2022-04-08T13:54:36Z</time><name>PT7071</name></trkpt>
<trkpt lat="53.501019" lon="-1.711645"><ele>273</ele><time>2022-04-08T13:54:37Z</time><name>PT7072</name></trkpt>
<trkpt lat="53.501030" lon="-1.711636"><ele>272</ele><time>2022-04-08T13:54:38Z</time><name>PT7073</name></trkpt>
<trkpt lat="53.501035" lon="-1.711638"><ele>271</ele><time>2022-04-08T13:54:39Z</time><name>PT7074</name></trkpt>
<trkpt lat="53.501040" lon="-1.711634"><ele>270</ele><time>2022-04-08T13:54:40Z</time><name>PT7075</name></trkpt>
<trkpt lat="53.501045" lon="-1.711626"><ele>270</ele><time>2022-04-08T13:54:41Z</time><name>PT7076</name></trkpt>
<trkpt lat="53.501052" lon="-1.711622"><ele>270</ele><time>2022-04-08T13:54:42Z</time><name>PT7077</name></trkpt>
<trkpt lat="53.501056" lon="-1.711612"><ele>270</ele><time>2022-04-08T13:54:43Z</time><name>PT7078</name></trkpt>
<trkpt lat="53.501062" lon="-1.711604"><ele>270</ele><time>2022-04-08T13:54:44Z</time><name>PT7079</name></trkpt>
<trkpt lat="53.501073" lon="-1.711595"><ele>269</ele><time>2022-04-08T13:54:45Z</time><name>PT7080</name></trkpt>
<trkpt lat="53.501080" lon="-1.711589"><ele>269</ele><time>2022-04-08T13:54:46Z</time><name>PT7081</name></trkpt>
<trkpt lat="53.501089" lon="-1.711583"><ele>269</ele><time>2022-04-08T13:54:47Z</time><name>PT7082</name></trkpt>
<trkpt lat="53.501103" lon="-1.711571"><ele>269</ele><time>2022-04-08T13:54:48Z</time><name>PT7083</name></trkpt>
<trkpt lat="53.501111" lon="-1.711556"><ele>269</ele><time>2022-04-08T13:54:49Z</time><name>PT7084</name></trkpt>
<trkpt lat="53.501116" lon="-1.711560"><ele>268</ele><time>2022-04-08T13:54:50Z</time><name>PT7085</name></trkpt>
<trkpt lat="53.501126" lon="-1.711559"><ele>267</ele><time>2022-04-08T13:54:51Z</time><name>PT7086</name></trkpt>
<trkpt lat="53.501130" lon="-1.711546"><ele>268</ele><time>2022-04-08T13:54:52Z</time><name>PT7087</name></trkpt>
<trkpt lat="53.501136" lon="-1.711533"><ele>268</ele><time>2022-04-08T13:54:53Z</time><name>PT7088</name></trkpt>
<trkpt lat="53.501141" lon="-1.711523"><ele>268</ele><time>2022-04-08T13:54:54Z</time><name>PT7089</name></trkpt>
<trkpt lat="53.501148" lon="-1.711517"><ele>267</ele><time>2022-04-08T13:54:55Z</time><name>PT7090</name></trkpt>
<trkpt lat="53.501149" lon="-1.711509"><ele>267</ele><time>2022-04-08T13:54:56Z</time><name>PT7091</name></trkpt>
<trkpt lat="53.501155" lon="-1.711499"><ele>267</ele><time>2022-04-08T13:54:57Z</time><name>PT7092</name></trkpt>
<trkpt lat="53.501163" lon="-1.711494"><ele>267</ele><time>2022-04-08T13:54:58Z</time><name>PT7093</name></trkpt>
<trkpt lat="53.501168" lon="-1.711488"><ele>266</ele><time>2022-04-08T13:54:59Z</time><name>PT7094</name></trkpt>
<trkpt lat="53.501173" lon="-1.711478"><ele>267</ele><time>2022-04-08T13:55:00Z</time><name>PT7095</name></trkpt>
<trkpt lat="53.501177" lon="-1.711474"><ele>267</ele><time>2022-04-08T13:55:01Z</time><name>PT7096</name></trkpt>
<trkpt lat="53.501173" lon="-1.711472"><ele>264</ele><time>2022-04-08T13:55:02Z</time><name>PT7097</name></trkpt>
<trkpt lat="53.501172" lon="-1.711456"><ele>265</ele><time>2022-04-08T13:55:03Z</time><name>PT7098</name></trkpt>
<trkpt lat="53.501177" lon="-1.711445"><ele>265</ele><time>2022-04-08T13:55:04Z</time><name>PT7099</name></trkpt>
<trkpt lat="53.501182" lon="-1.711440"><ele>265</ele><time>2022-04-08T13:55:05Z</time><name>PT7100</name></trkpt>
<trkpt lat="53.501186" lon="-1.711435"><ele>265</ele><time>2022-04-08T13:55:06Z</time><name>PT7101</name></trkpt>
<trkpt lat="53.501190" lon="-1.711425"><ele>265</ele><time>2022-04-08T13:55:07Z</time><name>PT7102</name></trkpt>
<trkpt lat="53.501200" lon="-1.711414"><ele>265</ele><time>2022-04-08T13:55:08Z</time><name>PT7103</name></trkpt>
<trkpt lat="53.501212" lon="-1.711394"><ele>266</ele><time>2022-04-08T13:55:09Z</time><name>PT7104</name></trkpt>
<trkpt lat="53.501219" lon="-1.711407"><ele>266</ele><time>2022-04-08T13:55:10Z</time><name>PT7105</name></trkpt>
<trkpt lat="53.501225" lon="-1.711403"><ele>266</ele><time>2022-04-08T13:55:11Z</time><name>PT7106</name></trkpt>
<trkpt lat="53.501228" lon="-1.711399"><ele>266</ele><time>2022-04-08T13:55:12Z</time><name>PT7107</name></trkpt>
<trkpt lat="53.501235" lon="-1.711397"><ele>266</ele><time>2022-04-08T13:55:13Z</time><name>PT7108</name></trkpt>
<trkpt lat="53.501238" lon="-1.711393"><ele>265</ele><time>2022-04-08T13:55:14Z</time><name>PT7109</name></trkpt>
<trkpt lat="53.501247" lon="-1.711376"><ele>266</ele><time>2022-04-08T13:55:15Z</time><name>PT7110</name></trkpt>
<trkpt lat="53.501254" lon="-1.711372"><ele>266</ele><time>2022-04-08T13:55:16Z</time><name>PT7111</name></trkpt>
<trkpt lat="53.501258" lon="-1.711357"><ele>267</ele><time>2022-04-08T13:55:17Z</time><name>PT7112</name></trkpt>
<trkpt lat="53.501259" lon="-1.711346"><ele>266</ele><time>2022-04-08T13:55:18Z</time><name>PT7113</name></trkpt>
<trkpt lat="53.501265" lon="-1.711337"><ele>267</ele><time>2022-04-08T13:55:19Z</time><name>PT7114</name></trkpt>
<trkpt lat="53.501275" lon="-1.711314"><ele>269</ele><time>2022-04-08T13:55:20Z</time><name>PT7115</name></trkpt>
<trkpt lat="53.501286" lon="-1.711297"><ele>270</ele><time>2022-04-08T13:55:21Z</time><name>PT7116</name></trkpt>
<trkpt lat="53.501295" lon="-1.711291"><ele>270</ele><time>2022-04-08T13:55:22Z</time><name>PT7117</name></trkpt>
<trkpt lat="53.501302" lon="-1.711286"><ele>270</ele><time>2022-04-08T13:55:23Z</time><name>PT7118</name></trkpt>
<trkpt lat="53.501307" lon="-1.711279"><ele>270</ele><time>2022-04-08T13:55:24Z</time><name>PT7119</name></trkpt>
<trkpt lat="53.501314" lon="-1.711269"><ele>270</ele><time>2022-04-08T13:55:25Z</time><name>PT7120</name></trkpt>
<trkpt lat="53.501322" lon="-1.711257"><ele>271</ele><time>2022-04-08T13:55:26Z</time><name>PT7121</name></trkpt>
<trkpt lat="53.501330" lon="-1.711254"><ele>271</ele><time>2022-04-08T13:55:27Z</time><name>PT7122</name></trkpt>
<trkpt lat="53.501337" lon="-1.711258"><ele>271</ele><time>2022-04-08T13:55:28Z</time><name>PT7123</name></trkpt>
<trkpt lat="53.501342" lon="-1.711253"><ele>270</ele><time>2022-04-08T13:55:29Z</time><name>PT7124</name></trkpt>
<trkpt lat="53.501346" lon="-1.711245"><ele>270</ele><time>2022-04-08T13:55:30Z</time><name>PT7125</name></trkpt>
<trkpt lat="53.501356" lon="-1.711242"><ele>270</ele><time>2022-04-08T13:55:31Z</time><name>PT7126</name></trkpt>
<trkpt lat="53.501364" lon="-1.711234"><ele>270</ele><time>2022-04-08T13:55:32Z</time><name>PT7127</name></trkpt>
<trkpt lat="53.501369" lon="-1.711224"><ele>270</ele><time>2022-04-08T13:55:33Z</time><name>PT7128</name></trkpt>
<trkpt lat="53.501379" lon="-1.711214"><ele>271</ele><time>2022-04-08T13:55:34Z</time><name>PT7129</name></trkpt>
<trkpt lat="53.501387" lon="-1.711207"><ele>271</ele><time>2022-04-08T13:55:35Z</time><name>PT7130</name></trkpt>
<trkpt lat="53.501394" lon="-1.711196"><ele>271</ele><time>2022-04-08T13:55:36Z</time><name>PT7131</name></trkpt>
<trkpt lat="53.501401" lon="-1.711185"><ele>272</ele><time>2022-04-08T13:55:37Z</time><name>PT7132</name></trkpt>
<trkpt lat="53.501406" lon="-1.711176"><ele>272</ele><time>2022-04-08T13:55:38Z</time><name>PT7133</name></trkpt>
<trkpt lat="53.501407" lon="-1.711143"><ele>274</ele><time>2022-04-08T13:55:39Z</time><name>PT7134</name></trkpt>
<trkpt lat="53.501406" lon="-1.711113"><ele>276</ele><time>2022-04-08T13:55:40Z</time><name>PT7135</name></trkpt>
<trkpt lat="53.501403" lon="-1.711077"><ele>279</ele><time>2022-04-08T13:55:59Z</time><name>PT7136</name></trkpt>
<trkpt lat="53.501404" lon="-1.711063"><ele>279</ele><time>2022-04-08T13:56:00Z</time><name>PT7137</name></trkpt>
<trkpt lat="53.501423" lon="-1.711015"><ele>278</ele><time>2022-04-08T13:56:10Z</time><name>PT7138</name></trkpt>
<trkpt lat="53.501446" lon="-1.710962"><ele>276</ele><time>2022-04-08T13:56:14Z</time><name>PT7139</name></trkpt>
<trkpt lat="53.501462" lon="-1.710897"><ele>277</ele><time>2022-04-08T13:56:18Z</time><name>PT7140</name></trkpt>
<trkpt lat="53.501487" lon="-1.710841"><ele>278</ele><time>2022-04-08T13:56:22Z</time><name>PT7141</name></trkpt>
<trkpt lat="53.501517" lon="-1.710786"><ele>277</ele><time>2022-04-08T13:56:26Z</time><name>PT7142</name></trkpt>
<trkpt lat="53.501538" lon="-1.710737"><ele>276</ele><time>2022-04-08T13:56:30Z</time><name>PT7143</name></trkpt>
<trkpt lat="53.501546" lon="-1.710700"><ele>276</ele><time>2022-04-08T13:56:34Z</time><name>PT7144</name></trkpt>
<trkpt lat="53.501559" lon="-1.710631"><ele>275</ele><time>2022-04-08T13:56:38Z</time><name>PT7145</name></trkpt>
<trkpt lat="53.501562" lon="-1.710631"><ele>275</ele><time>2022-04-08T13:56:42Z</time><name>PT7146</name></trkpt>
<trkpt lat="53.501577" lon="-1.710597"><ele>274</ele><time>2022-04-08T13:56:46Z</time><name>PT7147</name></trkpt>
<trkpt lat="53.501604" lon="-1.710529"><ele>273</ele><time>2022-04-08T13:56:50Z</time><name>PT7148</name></trkpt>
<trkpt lat="53.501625" lon="-1.710477"><ele>271</ele><time>2022-04-08T13:56:54Z</time><name>PT7149</name></trkpt>
<trkpt lat="53.501650" lon="-1.710413"><ele>269</ele><time>2022-04-08T13:56:58Z</time><name>PT7150</name></trkpt>
<trkpt lat="53.501658" lon="-1.710298"><ele>272</ele><time>2022-04-08T13:57:03Z</time><name>PT7151</name></trkpt>
<trkpt lat="53.501662" lon="-1.710284"><ele>272</ele><time>2022-04-08T13:57:03Z</time><name>PT7152</name></trkpt>
<trkpt lat="53.501667" lon="-1.710269"><ele>272</ele><time>2022-04-08T13:57:04Z</time><name>PT7153</name></trkpt>
<trkpt lat="53.501668" lon="-1.710253"><ele>272</ele><time>2022-04-08T13:57:05Z</time><name>PT7154</name></trkpt>
<trkpt lat="53.501682" lon="-1.710228"><ele>272</ele><time>2022-04-08T13:57:06Z</time><name>PT7155</name></trkpt>
<trkpt lat="53.501698" lon="-1.710184"><ele>273</ele><time>2022-04-08T13:57:07Z</time><name>PT7156</name></trkpt>
<trkpt lat="53.501703" lon="-1.710148"><ele>274</ele><time>2022-04-08T13:57:08Z</time><name>PT7157</name></trkpt>
<trkpt lat="53.501710" lon="-1.710128"><ele>275</ele><time>2022-04-08T13:57:09Z</time><name>PT7158</name></trkpt>
<trkpt lat="53.501713" lon="-1.710119"><ele>275</ele><time>2022-04-08T13:57:10Z</time><name>PT7159</name></trkpt>
<trkpt lat="53.501719" lon="-1.710109"><ele>274</ele><time>2022-04-08T13:57:11Z</time><name>PT7160</name></trkpt>
<trkpt lat="53.501724" lon="-1.710090"><ele>274</ele><time>2022-04-08T13:57:12Z</time><name>PT7161</name></trkpt>
<trkpt lat="53.501726" lon="-1.710061"><ele>275</ele><time>2022-04-08T13:57:13Z</time><name>PT7162</name></trkpt>
<trkpt lat="53.501727" lon="-1.710038"><ele>276</ele><time>2022-04-08T13:57:14Z</time><name>PT7163</name></trkpt>
<trkpt lat="53.501729" lon="-1.710015"><ele>276</ele><time>2022-04-08T13:57:15Z</time><name>PT7164</name></trkpt>
<trkpt lat="53.501731" lon="-1.709997"><ele>276</ele><time>2022-04-08T13:57:16Z</time><name>PT7165</name></trkpt>
<trkpt lat="53.501727" lon="-1.709960"><ele>278</ele><time>2022-04-08T13:57:17Z</time><name>PT7166</name></trkpt>
<trkpt lat="53.501727" lon="-1.709927"><ele>278</ele><time>2022-04-08T13:57:18Z</time><name>PT7167</name></trkpt>
<trkpt lat="53.501727" lon="-1.709896"><ele>278</ele><time>2022-04-08T13:57:19Z</time><name>PT7168</name></trkpt>
<trkpt lat="53.501723" lon="-1.709866"><ele>279</ele><time>2022-04-08T13:57:20Z</time><name>PT7169</name></trkpt>
<trkpt lat="53.501723" lon="-1.709844"><ele>278</ele><time>2022-04-08T13:57:21Z</time><name>PT7170</name></trkpt>
<trkpt lat="53.501720" lon="-1.709816"><ele>279</ele><time>2022-04-08T13:57:22Z</time><name>PT7171</name></trkpt>
<trkpt lat="53.501721" lon="-1.709798"><ele>279</ele><time>2022-04-08T13:57:23Z</time><name>PT7172</name></trkpt>
<trkpt lat="53.501720" lon="-1.709779"><ele>279</ele><time>2022-04-08T13:57:24Z</time><name>PT7173</name></trkpt>
<trkpt lat="53.501722" lon="-1.709759"><ele>279</ele><time>2022-04-08T13:57:25Z</time><name>PT7174</name></trkpt>
<trkpt lat="53.501710" lon="-1.709752"><ele>279</ele><time>2022-04-08T13:57:26Z</time><name>PT7175</name></trkpt>
<trkpt lat="53.501705" lon="-1.709744"><ele>280</ele><time>2022-04-08T13:57:27Z</time><name>PT7176</name></trkpt>
<trkpt lat="53.501704" lon="-1.709729"><ele>279</ele><time>2022-04-08T13:57:28Z</time><name>PT7177</name></trkpt>
<trkpt lat="53.501710" lon="-1.709715"><ele>280</ele><time>2022-04-08T13:57:29Z</time><name>PT7178</name></trkpt>
<trkpt lat="53.501715" lon="-1.709715"><ele>279</ele><time>2022-04-08T13:57:30Z</time><name>PT7179</name></trkpt>
<trkpt lat="53.501718" lon="-1.709698"><ele>279</ele><time>2022-04-08T13:57:31Z</time><name>PT7180</name></trkpt>
<trkpt lat="53.501717" lon="-1.709671"><ele>279</ele><time>2022-04-08T13:57:32Z</time><name>PT7181</name></trkpt>
<trkpt lat="53.501719" lon="-1.709650"><ele>279</ele><time>2022-04-08T13:57:33Z</time><name>PT7182</name></trkpt>
<trkpt lat="53.501726" lon="-1.709623"><ele>280</ele><time>2022-04-08T13:57:34Z</time><name>PT7183</name></trkpt>
<trkpt lat="53.501733" lon="-1.709613"><ele>279</ele><time>2022-04-08T13:57:35Z</time><name>PT7184</name></trkpt>
<trkpt lat="53.501741" lon="-1.709603"><ele>279</ele><time>2022-04-08T13:57:36Z</time><name>PT7185</name></trkpt>
<trkpt lat="53.501758" lon="-1.709590"><ele>279</ele><time>2022-04-08T13:57:37Z</time><name>PT7186</name></trkpt>
<trkpt lat="53.501769" lon="-1.709569"><ele>279</ele><time>2022-04-08T13:57:38Z</time><name>PT7187</name></trkpt>
<trkpt lat="53.501772" lon="-1.709564"><ele>278</ele><time>2022-04-08T13:57:39Z</time><name>PT7188</name></trkpt>
<trkpt lat="53.501779" lon="-1.709567"><ele>277</ele><time>2022-04-08T13:57:40Z</time><name>PT7189</name></trkpt>
<trkpt lat="53.501792" lon="-1.709562"><ele>275</ele><time>2022-04-08T13:57:41Z</time><name>PT7190</name></trkpt>
<trkpt lat="53.501802" lon="-1.709546"><ele>275</ele><time>2022-04-08T13:57:42Z</time><name>PT7191</name></trkpt>
<trkpt lat="53.501809" lon="-1.709543"><ele>274</ele><time>2022-04-08T13:57:43Z</time><name>PT7192</name></trkpt>
<trkpt lat="53.501809" lon="-1.709528"><ele>274</ele><time>2022-04-08T13:57:44Z</time><name>PT7193</name></trkpt>
<trkpt lat="53.501807" lon="-1.709519"><ele>273</ele><time>2022-04-08T13:57:45Z</time><name>PT7194</name></trkpt>
<trkpt lat="53.501808" lon="-1.709502"><ele>272</ele><time>2022-04-08T13:57:46Z</time><name>PT7195</name></trkpt>
<trkpt lat="53.501813" lon="-1.709487"><ele>271</ele><time>2022-04-08T13:57:47Z</time><name>PT7196</name></trkpt>
<trkpt lat="53.501822" lon="-1.709462"><ele>271</ele><time>2022-04-08T13:57:48Z</time><name>PT7197</name></trkpt>
<trkpt lat="53.501831" lon="-1.709448"><ele>270</ele><time>2022-04-08T13:57:49Z</time><name>PT7198</name></trkpt>
<trkpt lat="53.501838" lon="-1.709438"><ele>270</ele><time>2022-04-08T13:57:50Z</time><name>PT7199</name></trkpt>
<trkpt lat="53.501833" lon="-1.709416"><ele>270</ele><time>2022-04-08T13:57:51Z</time><name>PT7200</name></trkpt>
<trkpt lat="53.501841" lon="-1.709382"><ele>271</ele><time>2022-04-08T13:57:52Z</time><name>PT7201</name></trkpt>
<trkpt lat="53.501847" lon="-1.709371"><ele>271</ele><time>2022-04-08T13:57:53Z</time><name>PT7202</name></trkpt>
<trkpt lat="53.501842" lon="-1.709366"><ele>271</ele><time>2022-04-08T13:57:54Z</time><name>PT7203</name></trkpt>
<trkpt lat="53.501832" lon="-1.709361"><ele>270</ele><time>2022-04-08T13:57:55Z</time><name>PT7204</name></trkpt>
<trkpt lat="53.501835" lon="-1.709346"><ele>270</ele><time>2022-04-08T13:57:56Z</time><name>PT7205</name></trkpt>
<trkpt lat="53.501847" lon="-1.709338"><ele>269</ele><time>2022-04-08T13:57:57Z</time><name>PT7206</name></trkpt>
<trkpt lat="53.501855" lon="-1.709324"><ele>268</ele><time>2022-04-08T13:57:58Z</time><name>PT7207</name></trkpt>
<trkpt lat="53.501863" lon="-1.709303"><ele>268</ele><time>2022-04-08T13:57:59Z</time><name>PT7208</name></trkpt>
<trkpt lat="53.501868" lon="-1.709278"><ele>267</ele><time>2022-04-08T13:58:00Z</time><name>PT7209</name></trkpt>
<trkpt lat="53.501866" lon="-1.709253"><ele>268</ele><time>2022-04-08T13:58:01Z</time><name>PT7210</name></trkpt>
<trkpt lat="53.501868" lon="-1.709234"><ele>268</ele><time>2022-04-08T13:58:02Z</time><name>PT7211</name></trkpt>
<trkpt lat="53.501873" lon="-1.709227"><ele>266</ele><time>2022-04-08T13:58:03Z</time><name>PT7212</name></trkpt>
<trkpt lat="53.501875" lon="-1.709211"><ele>266</ele><time>2022-04-08T13:58:04Z</time><name>PT7213</name></trkpt>
<trkpt lat="53.501876" lon="-1.709192"><ele>266</ele><time>2022-04-08T13:58:05Z</time><name>PT7214</name></trkpt>
<trkpt lat="53.501887" lon="-1.709178"><ele>265</ele><time>2022-04-08T13:58:06Z</time><name>PT7215</name></trkpt>
<trkpt lat="53.501888" lon="-1.709163"><ele>265</ele><time>2022-04-08T13:58:07Z</time><name>PT7216</name></trkpt>
<trkpt lat="53.501888" lon="-1.709151"><ele>265</ele><time>2022-04-08T13:58:08Z</time><name>PT7217</name></trkpt>
<trkpt lat="53.501892" lon="-1.709132"><ele>265</ele><time>2022-04-08T13:58:09Z</time><name>PT7218</name></trkpt>
<trkpt lat="53.501901" lon="-1.709117"><ele>264</ele><time>2022-04-08T13:58:10Z</time><name>PT7219</name></trkpt>
<trkpt lat="53.501905" lon="-1.709108"><ele>263</ele><time>2022-04-08T13:58:11Z</time><name>PT7220</name></trkpt>
<trkpt lat="53.501914" lon="-1.709102"><ele>262</ele><time>2022-04-08T13:58:12Z</time><name>PT7221</name></trkpt>
<trkpt lat="53.501918" lon="-1.709074"><ele>262</ele><time>2022-04-08T13:58:13Z</time><name>PT7222</name></trkpt>
<trkpt lat="53.501911" lon="-1.709037"><ele>263</ele><time>2022-04-08T13:58:14Z</time><name>PT7223</name></trkpt>
<trkpt lat="53.501913" lon="-1.709030"><ele>263</ele><time>2022-04-08T13:58:15Z</time><name>PT7224</name></trkpt>
<trkpt lat="53.501923" lon="-1.709011"><ele>262</ele><time>2022-04-08T13:58:16Z</time><name>PT7225</name></trkpt>
<trkpt lat="53.501928" lon="-1.708986"><ele>262</ele><time>2022-04-08T13:58:17Z</time><name>PT7226</name></trkpt>
<trkpt lat="53.501931" lon="-1.708976"><ele>262</ele><time>2022-04-08T13:58:18Z</time><name>PT7227</name></trkpt>
<trkpt lat="53.501933" lon="-1.708967"><ele>261</ele><time>2022-04-08T13:58:19Z</time><name>PT7228</name></trkpt>
<trkpt lat="53.501936" lon="-1.708942"><ele>260</ele><time>2022-04-08T13:58:20Z</time><name>PT7229</name></trkpt>
<trkpt lat="53.501930" lon="-1.708918"><ele>261</ele><time>2022-04-08T13:58:21Z</time><name>PT7230</name></trkpt>
<trkpt lat="53.501938" lon="-1.708891"><ele>261</ele><time>2022-04-08T13:58:22Z</time><name>PT7231</name></trkpt>
<trkpt lat="53.501942" lon="-1.708865"><ele>261</ele><time>2022-04-08T13:58:23Z</time><name>PT7232</name></trkpt>
<trkpt lat="53.501949" lon="-1.708844"><ele>262</ele><time>2022-04-08T13:58:24Z</time><name>PT7233</name></trkpt>
<trkpt lat="53.501951" lon="-1.708828"><ele>262</ele><time>2022-04-08T13:58:25Z</time><name>PT7234</name></trkpt>
<trkpt lat="53.501959" lon="-1.708818"><ele>261</ele><time>2022-04-08T13:58:26Z</time><name>PT7235</name></trkpt>
<trkpt lat="53.501971" lon="-1.708828"><ele>258</ele><time>2022-04-08T13:58:27Z</time><name>PT7236</name></trkpt>
<trkpt lat="53.501969" lon="-1.708799"><ele>259</ele><time>2022-04-08T13:58:28Z</time><name>PT7237</name></trkpt>
<trkpt lat="53.501971" lon="-1.708754"><ele>260</ele><time>2022-04-08T13:58:29Z</time><name>PT7238</name></trkpt>
<trkpt lat="53.501978" lon="-1.708713"><ele>261</ele><time>2022-04-08T13:58:30Z</time><name>PT7239</name></trkpt>
<trkpt lat="53.501980" lon="-1.708691"><ele>260</ele><time>2022-04-08T13:58:31Z</time><name>PT7240</name></trkpt>
<trkpt lat="53.501987" lon="-1.708684"><ele>259</ele><time>2022-04-08T13:58:32Z</time><name>PT7241</name></trkpt>
<trkpt lat="53.501989" lon="-1.708672"><ele>259</ele><time>2022-04-08T13:58:33Z</time><name>PT7242</name></trkpt>
<trkpt lat="53.501992" lon="-1.708653"><ele>258</ele><time>2022-04-08T13:58:34Z</time><name>PT7243</name></trkpt>
<trkpt lat="53.501997" lon="-1.708639"><ele>258</ele><time>2022-04-08T13:58:35Z</time><name>PT7244</name></trkpt>
<trkpt lat="53.501993" lon="-1.708607"><ele>259</ele><time>2022-04-08T13:58:36Z</time><name>PT7245</name></trkpt>
<trkpt lat="53.502003" lon="-1.708598"><ele>257</ele><time>2022-04-08T13:58:37Z</time><name>PT7246</name></trkpt>
<trkpt lat="53.502003" lon="-1.708585"><ele>257</ele><time>2022-04-08T13:58:38Z</time><name>PT7247</name></trkpt>
<trkpt lat="53.501999" lon="-1.708562"><ele>258</ele><time>2022-04-08T13:58:39Z</time><name>PT7248</name></trkpt>
<trkpt lat="53.502005" lon="-1.708540"><ele>258</ele><time>2022-04-08T13:58:40Z</time><name>PT7249</name></trkpt>
<trkpt lat="53.502004" lon="-1.708515"><ele>258</ele><time>2022-04-08T13:58:41Z</time><name>PT7250</name></trkpt>
<trkpt lat="53.502009" lon="-1.708462"><ele>260</ele><time>2022-04-08T13:58:42Z</time><name>PT7251</name></trkpt>
<trkpt lat="53.502013" lon="-1.708447"><ele>259</ele><time>2022-04-08T13:58:43Z</time><name>PT7252</name></trkpt>
<trkpt lat="53.502015" lon="-1.708431"><ele>259</ele><time>2022-04-08T13:58:44Z</time><name>PT7253</name></trkpt>
<trkpt lat="53.502021" lon="-1.708424"><ele>258</ele><time>2022-04-08T13:58:45Z</time><name>PT7254</name></trkpt>
<trkpt lat="53.502023" lon="-1.708403"><ele>258</ele><time>2022-04-08T13:58:46Z</time><name>PT7255</name></trkpt>
<trkpt lat="53.502024" lon="-1.708377"><ele>259</ele><time>2022-04-08T13:58:47Z</time><name>PT7256</name></trkpt>
<trkpt lat="53.502024" lon="-1.708346"><ele>259</ele><time>2022-04-08T13:58:48Z</time><name>PT7257</name></trkpt>
<trkpt lat="53.502025" lon="-1.708337"><ele>258</ele><time>2022-04-08T13:58:49Z</time><name>PT7258</name></trkpt>
<trkpt lat="53.502017" lon="-1.708323"><ele>258</ele><time>2022-04-08T13:58:50Z</time><name>PT7259</name></trkpt>
<trkpt lat="53.502018" lon="-1.708308"><ele>257</ele><time>2022-04-08T13:58:51Z</time><name>PT7260</name></trkpt>
<trkpt lat="53.502025" lon="-1.708298"><ele>256</ele><time>2022-04-08T13:58:52Z</time><name>PT7261</name></trkpt>
<trkpt lat="53.502033" lon="-1.708273"><ele>255</ele><time>2022-04-08T13:58:53Z</time><name>PT7262</name></trkpt>
<trkpt lat="53.502036" lon="-1.708267"><ele>255</ele><time>2022-04-08T13:58:54Z</time><name>PT7263</name></trkpt>
<trkpt lat="53.502042" lon="-1.708261"><ele>254</ele><time>2022-04-08T13:58:55Z</time><name>PT7264</name></trkpt>
<trkpt lat="53.502049" lon="-1.708246"><ele>253</ele><time>2022-04-08T13:58:56Z</time><name>PT7265</name></trkpt>
<trkpt lat="53.502043" lon="-1.708203"><ele>255</ele><time>2022-04-08T13:58:57Z</time><name>PT7266</name></trkpt>
<trkpt lat="53.502040" lon="-1.708159"><ele>258</ele><time>2022-04-08T13:58:58Z</time><name>PT7267</name></trkpt>
<trkpt lat="53.502032" lon="-1.708117"><ele>259</ele><time>2022-04-08T13:58:59Z</time><name>PT7268</name></trkpt>
<trkpt lat="53.502034" lon="-1.708094"><ele>259</ele><time>2022-04-08T13:59:00Z</time><name>PT7269</name></trkpt>
<trkpt lat="53.502022" lon="-1.708059"><ele>260</ele><time>2022-04-08T13:59:01Z</time><name>PT7270</name></trkpt>
<trkpt lat="53.502018" lon="-1.708021"><ele>263</ele><time>2022-04-08T13:59:02Z</time><name>PT7271</name></trkpt>
<trkpt lat="53.502024" lon="-1.707995"><ele>263</ele><time>2022-04-08T13:59:03Z</time><name>PT7272</name></trkpt>
<trkpt lat="53.502026" lon="-1.707976"><ele>263</ele><time>2022-04-08T13:59:04Z</time><name>PT7273</name></trkpt>
<trkpt lat="53.502032" lon="-1.707947"><ele>263</ele><time>2022-04-08T13:59:05Z</time><name>PT7274</name></trkpt>
<trkpt lat="53.502033" lon="-1.707921"><ele>264</ele><time>2022-04-08T13:59:06Z</time><name>PT7275</name></trkpt>
<trkpt lat="53.502035" lon="-1.707894"><ele>264</ele><time>2022-04-08T13:59:07Z</time><name>PT7276</name></trkpt>
<trkpt lat="53.502038" lon="-1.707877"><ele>264</ele><time>2022-04-08T13:59:08Z</time><name>PT7277</name></trkpt>
<trkpt lat="53.502042" lon="-1.707869"><ele>264</ele><time>2022-04-08T13:59:09Z</time><name>PT7278</name></trkpt>
<trkpt lat="53.502041" lon="-1.707866"><ele>263</ele><time>2022-04-08T13:59:10Z</time><name>PT7279</name></trkpt>
<trkpt lat="53.502042" lon="-1.707854"><ele>262</ele><time>2022-04-08T13:59:11Z</time><name>PT7280</name></trkpt>
<trkpt lat="53.502041" lon="-1.707851"><ele>262</ele><time>2022-04-08T13:59:12Z</time><name>PT7281</name></trkpt>
<trkpt lat="53.502038" lon="-1.707836"><ele>261</ele><time>2022-04-08T13:59:13Z</time><name>PT7282</name></trkpt>
<trkpt lat="53.502035" lon="-1.707834"><ele>261</ele><time>2022-04-08T13:59:14Z</time><name>PT7283</name></trkpt>
<trkpt lat="53.502027" lon="-1.707828"><ele>261</ele><time>2022-04-08T13:59:15Z</time><name>PT7284</name></trkpt>
<trkpt lat="53.502014" lon="-1.707837"><ele>260</ele><time>2022-04-08T13:59:16Z</time><name>PT7285</name></trkpt>
<trkpt lat="53.502010" lon="-1.707827"><ele>261</ele><time>2022-04-08T13:59:17Z</time><name>PT7286</name></trkpt>
<trkpt lat="53.502006" lon="-1.707809"><ele>262</ele><time>2022-04-08T13:59:18Z</time><name>PT7287</name></trkpt>
<trkpt lat="53.502003" lon="-1.707796"><ele>261</ele><time>2022-04-08T13:59:19Z</time><name>PT7288</name></trkpt>
<trkpt lat="53.502000" lon="-1.707783"><ele>261</ele><time>2022-04-08T13:59:20Z</time><name>PT7289</name></trkpt>
<trkpt lat="53.502012" lon="-1.707767"><ele>255</ele><time>2022-04-08T13:59:21Z</time><name>PT7290</name></trkpt>
<trkpt lat="53.502008" lon="-1.707747"><ele>254</ele><time>2022-04-08T13:59:22Z</time><name>PT7291</name></trkpt>
<trkpt lat="53.502001" lon="-1.707717"><ele>256</ele><time>2022-04-08T13:59:23Z</time><name>PT7292</name></trkpt>
<trkpt lat="53.501993" lon="-1.707708"><ele>256</ele><time>2022-04-08T13:59:25Z</time><name>PT7293</name></trkpt>
<trkpt lat="53.501988" lon="-1.707699"><ele>255</ele><time>2022-04-08T13:59:25Z</time><name>PT7294</name></trkpt>
<trkpt lat="53.501983" lon="-1.707677"><ele>256</ele><time>2022-04-08T13:59:26Z</time><name>PT7295</name></trkpt>
<trkpt lat="53.501981" lon="-1.707657"><ele>256</ele><time>2022-04-08T13:59:27Z</time><name>PT7296</name></trkpt>
<trkpt lat="53.501973" lon="-1.707638"><ele>256</ele><time>2022-04-08T13:59:28Z</time><name>PT7297</name></trkpt>
<trkpt lat="53.501970" lon="-1.707612"><ele>257</ele><time>2022-04-08T13:59:29Z</time><name>PT7298</name></trkpt>
<trkpt lat="53.501966" lon="-1.707596"><ele>257</ele><time>2022-04-08T13:59:30Z</time><name>PT7299</name></trkpt>
<trkpt lat="53.501961" lon="-1.707581"><ele>257</ele><time>2022-04-08T13:59:31Z</time><name>PT7300</name></trkpt>
<trkpt lat="53.501954" lon="-1.707562"><ele>257</ele><time>2022-04-08T13:59:32Z</time><name>PT7301</name></trkpt>
<trkpt lat="53.501946" lon="-1.707545"><ele>256</ele><time>2022-04-08T13:59:33Z</time><name>PT7302</name></trkpt>
<trkpt lat="53.501941" lon="-1.707538"><ele>256</ele><time>2022-04-08T13:59:34Z</time><name>PT7303</name></trkpt>
<trkpt lat="53.501947" lon="-1.707537"><ele>254</ele><time>2022-04-08T13:59:35Z</time><name>PT7304</name></trkpt>
<trkpt lat="53.501948" lon="-1.707531"><ele>253</ele><time>2022-04-08T13:59:36Z</time><name>PT7305</name></trkpt>
<trkpt lat="53.501948" lon="-1.707520"><ele>252</ele><time>2022-04-08T13:59:37Z</time><name>PT7306</name></trkpt>
<trkpt lat="53.501937" lon="-1.707508"><ele>253</ele><time>2022-04-08T13:59:38Z</time><name>PT7307</name></trkpt>
<trkpt lat="53.501935" lon="-1.707481"><ele>254</ele><time>2022-04-08T13:59:39Z</time><name>PT7308</name></trkpt>
<trkpt lat="53.501930" lon="-1.707467"><ele>253</ele><time>2022-04-08T13:59:40Z</time><name>PT7309</name></trkpt>
<trkpt lat="53.501925" lon="-1.707453"><ele>253</ele><time>2022-04-08T13:59:41Z</time><name>PT7310</name></trkpt>
<trkpt lat="53.501925" lon="-1.707435"><ele>253</ele><time>2022-04-08T13:59:42Z</time><name>PT7311</name></trkpt>
<trkpt lat="53.501921" lon="-1.707418"><ele>252</ele><time>2022-04-08T13:59:43Z</time><name>PT7312</name></trkpt>
<trkpt lat="53.501917" lon="-1.707414"><ele>252</ele><time>2022-04-08T13:59:44Z</time><name>PT7313</name></trkpt>
<trkpt lat="53.501913" lon="-1.707402"><ele>251</ele><time>2022-04-08T13:59:45Z</time><name>PT7314</name></trkpt>
<trkpt lat="53.501915" lon="-1.707393"><ele>251</ele><time>2022-04-08T13:59:46Z</time><name>PT7315</name></trkpt>
<trkpt lat="53.501914" lon="-1.707380"><ele>250</ele><time>2022-04-08T13:59:47Z</time><name>PT7316</name></trkpt>
<trkpt lat="53.501913" lon="-1.707362"><ele>249</ele><time>2022-04-08T13:59:48Z</time><name>PT7317</name></trkpt>
<trkpt lat="53.501912" lon="-1.707347"><ele>249</ele><time>2022-04-08T13:59:49Z</time><name>PT7318</name></trkpt>
<trkpt lat="53.501906" lon="-1.707333"><ele>248</ele><time>2022-04-08T13:59:50Z</time><name>PT7319</name></trkpt>
<trkpt lat="53.501909" lon="-1.707311"><ele>247</ele><time>2022-04-08T13:59:51Z</time><name>PT7320</name></trkpt>
<trkpt lat="53.501910" lon="-1.707295"><ele>246</ele><time>2022-04-08T13:59:52Z</time><name>PT7321</name></trkpt>
<trkpt lat="53.501911" lon="-1.707286"><ele>245</ele><time>2022-04-08T13:59:53Z</time><name>PT7322</name></trkpt>
<trkpt lat="53.501915" lon="-1.707275"><ele>244</ele><time>2022-04-08T13:59:54Z</time><name>PT7323</name></trkpt>
<trkpt lat="53.501918" lon="-1.707251"><ele>244</ele><time>2022-04-08T13:59:55Z</time><name>PT7324</name></trkpt>
<trkpt lat="53.501915" lon="-1.707233"><ele>244</ele><time>2022-04-08T13:59:56Z</time><name>PT7325</name></trkpt>
<trkpt lat="53.501915" lon="-1.707222"><ele>243</ele><time>2022-04-08T13:59:57Z</time><name>PT7326</name></trkpt>
<trkpt lat="53.501901" lon="-1.707207"><ele>242</ele><time>2022-04-08T13:59:58Z</time><name>PT7327</name></trkpt>
<trkpt lat="53.501895" lon="-1.707183"><ele>243</ele><time>2022-04-08T13:59:59Z</time><name>PT7328</name></trkpt>
<trkpt lat="53.501893" lon="-1.707165"><ele>243</ele><time>2022-04-08T14:00:00Z</time><name>PT7329</name></trkpt>
<trkpt lat="53.501891" lon="-1.707131"><ele>244</ele><time>2022-04-08T14:00:01Z</time><name>PT7330</name></trkpt>
<trkpt lat="53.501882" lon="-1.707115"><ele>244</ele><time>2022-04-08T14:00:02Z</time><name>PT7331</name></trkpt>
<trkpt lat="53.501879" lon="-1.707096"><ele>244</ele><time>2022-04-08T14:00:03Z</time><name>PT7332</name></trkpt>
<trkpt lat="53.501874" lon="-1.707074"><ele>246</ele><time>2022-04-08T14:00:04Z</time><name>PT7333</name></trkpt>
<trkpt lat="53.501877" lon="-1.707062"><ele>245</ele><time>2022-04-08T14:00:05Z</time><name>PT7334</name></trkpt>
<trkpt lat="53.501878" lon="-1.707044"><ele>245</ele><time>2022-04-08T14:00:06Z</time><name>PT7335</name></trkpt>
<trkpt lat="53.501873" lon="-1.707024"><ele>245</ele><time>2022-04-08T14:00:07Z</time><name>PT7336</name></trkpt>
<trkpt lat="53.501871" lon="-1.706997"><ele>245</ele><time>2022-04-08T14:00:08Z</time><name>PT7337</name></trkpt>
<trkpt lat="53.501866" lon="-1.706963"><ele>247</ele><time>2022-04-08T14:00:09Z</time><name>PT7338</name></trkpt>
<trkpt lat="53.501857" lon="-1.706939"><ele>247</ele><time>2022-04-08T14:00:10Z</time><name>PT7339</name></trkpt>
<trkpt lat="53.501854" lon="-1.706926"><ele>247</ele><time>2022-04-08T14:00:11Z</time><name>PT7340</name></trkpt>
<trkpt lat="53.501846" lon="-1.706899"><ele>248</ele><time>2022-04-08T14:00:12Z</time><name>PT7341</name></trkpt>
<trkpt lat="53.501843" lon="-1.706878"><ele>247</ele><time>2022-04-08T14:00:13Z</time><name>PT7342</name></trkpt>
<trkpt lat="53.501844" lon="-1.706860"><ele>247</ele><time>2022-04-08T14:00:14Z</time><name>PT7343</name></trkpt>
<trkpt lat="53.501840" lon="-1.706838"><ele>247</ele><time>2022-04-08T14:00:15Z</time><name>PT7344</name></trkpt>
<trkpt lat="53.501844" lon="-1.706823"><ele>247</ele><time>2022-04-08T14:00:16Z</time><name>PT7345</name></trkpt>
<trkpt lat="53.501838" lon="-1.706806"><ele>247</ele><time>2022-04-08T14:00:17Z</time><name>PT7346</name></trkpt>
<trkpt lat="53.501840" lon="-1.706798"><ele>246</ele><time>2022-04-08T14:00:18Z</time><name>PT7347</name></trkpt>
<trkpt lat="53.501846" lon="-1.706792"><ele>246</ele><time>2022-04-08T14:00:19Z</time><name>PT7348</name></trkpt>
<trkpt lat="53.501852" lon="-1.706786"><ele>245</ele><time>2022-04-08T14:00:20Z</time><name>PT7349</name></trkpt>
<trkpt lat="53.501853" lon="-1.706783"><ele>246</ele><time>2022-04-08T14:00:21Z</time><name>PT7350</name></trkpt>
<trkpt lat="53.501871" lon="-1.706786"><ele>245</ele><time>2022-04-08T14:00:22Z</time><name>PT7351</name></trkpt>
<trkpt lat="53.501880" lon="-1.706772"><ele>245</ele><time>2022-04-08T14:00:23Z</time><name>PT7352</name></trkpt>
<trkpt lat="53.501877" lon="-1.706757"><ele>245</ele><time>2022-04-08T14:00:24Z</time><name>PT7353</name></trkpt>
<trkpt lat="53.501883" lon="-1.706747"><ele>245</ele><time>2022-04-08T14:00:25Z</time><name>PT7354</name></trkpt>
<trkpt lat="53.501886" lon="-1.706738"><ele>245</ele><time>2022-04-08T14:00:26Z</time><name>PT7355</name></trkpt>
<trkpt lat="53.501890" lon="-1.706726"><ele>245</ele><time>2022-04-08T14:00:27Z</time><name>PT7356</name></trkpt>
<trkpt lat="53.501894" lon="-1.706713"><ele>245</ele><time>2022-04-08T14:00:28Z</time><name>PT7357</name></trkpt>
<trkpt lat="53.501896" lon="-1.706693"><ele>245</ele><time>2022-04-08T14:00:29Z</time><name>PT7358</name></trkpt>
<trkpt lat="53.501898" lon="-1.706683"><ele>245</ele><time>2022-04-08T14:00:30Z</time><name>PT7359</name></trkpt>
<trkpt lat="53.501900" lon="-1.706682"><ele>244</ele><time>2022-04-08T14:00:31Z</time><name>PT7360</name></trkpt>
<trkpt lat="53.501901" lon="-1.706668"><ele>243</ele><time>2022-04-08T14:00:32Z</time><name>PT7361</name></trkpt>
<trkpt lat="53.501911" lon="-1.706659"><ele>242</ele><time>2022-04-08T14:00:33Z</time><name>PT7362</name></trkpt>
<trkpt lat="53.501907" lon="-1.706641"><ele>242</ele><time>2022-04-08T14:00:34Z</time><name>PT7363</name></trkpt>
<trkpt lat="53.501915" lon="-1.706609"><ele>242</ele><time>2022-04-08T14:00:35Z</time><name>PT7364</name></trkpt>
<trkpt lat="53.501906" lon="-1.706580"><ele>244</ele><time>2022-04-08T14:00:36Z</time><name>PT7365</name></trkpt>
<trkpt lat="53.501906" lon="-1.706569"><ele>243</ele><time>2022-04-08T14:00:37Z</time><name>PT7366</name></trkpt>
<trkpt lat="53.501900" lon="-1.706541"><ele>243</ele><time>2022-04-08T14:00:38Z</time><name>PT7367</name></trkpt>
<trkpt lat="53.501900" lon="-1.706510"><ele>244</ele><time>2022-04-08T14:00:39Z</time><name>PT7368</name></trkpt>
<trkpt lat="53.501903" lon="-1.706487"><ele>244</ele><time>2022-04-08T14:00:40Z</time><name>PT7369</name></trkpt>
<trkpt lat="53.501898" lon="-1.706467"><ele>243</ele><time>2022-04-08T14:00:41Z</time><name>PT7370</name></trkpt>
<trkpt lat="53.501900" lon="-1.706455"><ele>243</ele><time>2022-04-08T14:00:42Z</time><name>PT7371</name></trkpt>
<trkpt lat="53.501896" lon="-1.706440"><ele>244</ele><time>2022-04-08T14:00:43Z</time><name>PT7372</name></trkpt>
<trkpt lat="53.501896" lon="-1.706420"><ele>244</ele><time>2022-04-08T14:00:44Z</time><name>PT7373</name></trkpt>
<trkpt lat="53.501891" lon="-1.706407"><ele>244</ele><time>2022-04-08T14:00:45Z</time><name>PT7374</name></trkpt>
<trkpt lat="53.501895" lon="-1.706385"><ele>244</ele><time>2022-04-08T14:00:46Z</time><name>PT7375</name></trkpt>
<trkpt lat="53.501892" lon="-1.706355"><ele>245</ele><time>2022-04-08T14:00:47Z</time><name>PT7376</name></trkpt>
<trkpt lat="53.501890" lon="-1.706329"><ele>244</ele><time>2022-04-08T14:00:48Z</time><name>PT7377</name></trkpt>
<trkpt lat="53.501891" lon="-1.706310"><ele>244</ele><time>2022-04-08T14:00:49Z</time><name>PT7378</name></trkpt>
<trkpt lat="53.501890" lon="-1.706283"><ele>245</ele><time>2022-04-08T14:00:50Z</time><name>PT7379</name></trkpt>
<trkpt lat="53.501890" lon="-1.706262"><ele>246</ele><time>2022-04-08T14:00:51Z</time><name>PT7380</name></trkpt>
<trkpt lat="53.501888" lon="-1.706250"><ele>246</ele><time>2022-04-08T14:00:52Z</time><name>PT7381</name></trkpt>
<trkpt lat="53.501887" lon="-1.706210"><ele>246</ele><time>2022-04-08T14:00:53Z</time><name>PT7382</name></trkpt>
<trkpt lat="53.501881" lon="-1.706184"><ele>247</ele><time>2022-04-08T14:00:54Z</time><name>PT7383</name></trkpt>
<trkpt lat="53.501875" lon="-1.706163"><ele>247</ele><time>2022-04-08T14:00:55Z</time><name>PT7384</name></trkpt>
<trkpt lat="53.501867" lon="-1.706138"><ele>248</ele><time>2022-04-08T14:00:56Z</time><name>PT7385</name></trkpt>
<trkpt lat="53.501856" lon="-1.706116"><ele>250</ele><time>2022-04-08T14:00:57Z</time><name>PT7386</name></trkpt>
<trkpt lat="53.501852" lon="-1.706102"><ele>250</ele><time>2022-04-08T14:00:58Z</time><name>PT7387</name></trkpt>
<trkpt lat="53.501850" lon="-1.706092"><ele>251</ele><time>2022-04-08T14:00:59Z</time><name>PT7388</name></trkpt>
<trkpt lat="53.501840" lon="-1.706076"><ele>252</ele><time>2022-04-08T14:01:00Z</time><name>PT7389</name></trkpt>
<trkpt lat="53.501834" lon="-1.706069"><ele>252</ele><time>2022-04-08T14:01:01Z</time><name>PT7390</name></trkpt>
<trkpt lat="53.501828" lon="-1.706050"><ele>254</ele><time>2022-04-08T14:01:02Z</time><name>PT7391</name></trkpt>
<trkpt lat="53.501828" lon="-1.706034"><ele>255</ele><time>2022-04-08T14:01:03Z</time><name>PT7392</name></trkpt>
<trkpt lat="53.501839" lon="-1.706035"><ele>253</ele><time>2022-04-08T14:01:04Z</time><name>PT7393</name></trkpt>
<trkpt lat="53.501839" lon="-1.706025"><ele>253</ele><time>2022-04-08T14:01:05Z</time><name>PT7394</name></trkpt>
<trkpt lat="53.501839" lon="-1.706021"><ele>253</ele><time>2022-04-08T14:01:06Z</time><name>PT7395</name></trkpt>
<trkpt lat="53.501838" lon="-1.706016"><ele>253</ele><time>2022-04-08T14:01:07Z</time><name>PT7396</name></trkpt>
<trkpt lat="53.501840" lon="-1.706008"><ele>254</ele><time>2022-04-08T14:01:08Z</time><name>PT7397</name></trkpt>
<trkpt lat="53.501836" lon="-1.705997"><ele>254</ele><time>2022-04-08T14:01:09Z</time><name>PT7398</name></trkpt>
<trkpt lat="53.501829" lon="-1.705986"><ele>254</ele><time>2022-04-08T14:01:10Z</time><name>PT7399</name></trkpt>
<trkpt lat="53.501825" lon="-1.705968"><ele>254</ele><time>2022-04-08T14:01:11Z</time><name>PT7400</name></trkpt>
<trkpt lat="53.501817" lon="-1.705946"><ele>255</ele><time>2022-04-08T14:01:12Z</time><name>PT7401</name></trkpt>
<trkpt lat="53.501817" lon="-1.705932"><ele>255</ele><time>2022-04-08T14:01:13Z</time><name>PT7402</name></trkpt>
<trkpt lat="53.501817" lon="-1.705925"><ele>255</ele><time>2022-04-08T14:01:14Z</time><name>PT7403</name></trkpt>
<trkpt lat="53.501814" lon="-1.705915"><ele>256</ele><time>2022-04-08T14:01:15Z</time><name>PT7404</name></trkpt>
<trkpt lat="53.501815" lon="-1.705909"><ele>256</ele><time>2022-04-08T14:01:16Z</time><name>PT7405</name></trkpt>
<trkpt lat="53.501809" lon="-1.705871"><ele>258</ele><time>2022-04-08T14:01:23Z</time><name>PT7406</name></trkpt>
<trkpt lat="53.501807" lon="-1.705827"><ele>257</ele><time>2022-04-08T14:01:24Z</time><name>PT7407</name></trkpt>
<trkpt lat="53.501809" lon="-1.705805"><ele>257</ele><time>2022-04-08T14:01:25Z</time><name>PT7408</name></trkpt>
<trkpt lat="53.501811" lon="-1.705785"><ele>256</ele><time>2022-04-08T14:01:26Z</time><name>PT7409</name></trkpt>
<trkpt lat="53.501809" lon="-1.705759"><ele>256</ele><time>2022-04-08T14:01:27Z</time><name>PT7410</name></trkpt>
<trkpt lat="53.501798" lon="-1.705738"><ele>256</ele><time>2022-04-08T14:01:28Z</time><name>PT7411</name></trkpt>
<trkpt lat="53.501797" lon="-1.705725"><ele>256</ele><time>2022-04-08T14:01:29Z</time><name>PT7412</name></trkpt>
<trkpt lat="53.501799" lon="-1.705708"><ele>256</ele><time>2022-04-08T14:01:30Z</time><name>PT7413</name></trkpt>
<trkpt lat="53.501801" lon="-1.705697"><ele>256</ele><time>2022-04-08T14:01:31Z</time><name>PT7414</name></trkpt>
<trkpt lat="53.501804" lon="-1.705682"><ele>256</ele><time>2022-04-08T14:01:32Z</time><name>PT7415</name></trkpt>
<trkpt lat="53.501803" lon="-1.705676"><ele>256</ele><time>2022-04-08T14:01:33Z</time><name>PT7416</name></trkpt>
<trkpt lat="53.501807" lon="-1.705649"><ele>255</ele><time>2022-04-08T14:01:34Z</time><name>PT7417</name></trkpt>
<trkpt lat="53.501805" lon="-1.705630"><ele>255</ele><time>2022-04-08T14:01:35Z</time><name>PT7418</name></trkpt>
<trkpt lat="53.501805" lon="-1.705612"><ele>255</ele><time>2022-04-08T14:01:36Z</time><name>PT7419</name></trkpt>
<trkpt lat="53.501813" lon="-1.705590"><ele>255</ele><time>2022-04-08T14:01:37Z</time><name>PT7420</name></trkpt>
<trkpt lat="53.501814" lon="-1.705565"><ele>255</ele><time>2022-04-08T14:01:38Z</time><name>PT7421</name></trkpt>
<trkpt lat="53.501812" lon="-1.705555"><ele>255</ele><time>2022-04-08T14:01:39Z</time><name>PT7422</name></trkpt>
<trkpt lat="53.501811" lon="-1.705550"><ele>254</ele><time>2022-04-08T14:01:40Z</time><name>PT7423</name></trkpt>
<trkpt lat="53.501808" lon="-1.705530"><ele>254</ele><time>2022-04-08T14:01:41Z</time><name>PT7424</name></trkpt>
<trkpt lat="53.501811" lon="-1.705504"><ele>253</ele><time>2022-04-08T14:01:42Z</time><name>PT7425</name></trkpt>
<trkpt lat="53.501808" lon="-1.705489"><ele>253</ele><time>2022-04-08T14:01:43Z</time><name>PT7426</name></trkpt>
<trkpt lat="53.501807" lon="-1.705469"><ele>253</ele><time>2022-04-08T14:01:44Z</time><name>PT7427</name></trkpt>
<trkpt lat="53.501803" lon="-1.705447"><ele>253</ele><time>2022-04-08T14:01:45Z</time><name>PT7428</name></trkpt>
<trkpt lat="53.501802" lon="-1.705432"><ele>253</ele><time>2022-04-08T14:01:46Z</time><name>PT7429</name></trkpt>
<trkpt lat="53.501803" lon="-1.705411"><ele>252</ele><time>2022-04-08T14:01:47Z</time><name>PT7430</name></trkpt>
<trkpt lat="53.501808" lon="-1.705397"><ele>252</ele><time>2022-04-08T14:01:48Z</time><name>PT7431</name></trkpt>
<trkpt lat="53.501810" lon="-1.705383"><ele>252</ele><time>2022-04-08T14:01:49Z</time><name>PT7432</name></trkpt>
<trkpt lat="53.501805" lon="-1.705373"><ele>251</ele><time>2022-04-08T14:01:50Z</time><name>PT7433</name></trkpt>
<trkpt lat="53.501805" lon="-1.705361"><ele>251</ele><time>2022-04-08T14:01:51Z</time><name>PT7434</name></trkpt>
<trkpt lat="53.501808" lon="-1.705347"><ele>251</ele><time>2022-04-08T14:01:52Z</time><name>PT7435</name></trkpt>
<trkpt lat="53.501813" lon="-1.705331"><ele>251</ele><time>2022-04-08T14:01:53Z</time><name>PT7436</name></trkpt>
<trkpt lat="53.501818" lon="-1.705330"><ele>250</ele><time>2022-04-08T14:01:54Z</time><name>PT7437</name></trkpt>
<trkpt lat="53.501818" lon="-1.705324"><ele>249</ele><time>2022-04-08T14:01:55Z</time><name>PT7438</name></trkpt>
<trkpt lat="53.501820" lon="-1.705320"><ele>248</ele><time>2022-04-08T14:01:56Z</time><name>PT7439</name></trkpt>
<trkpt lat="53.501814" lon="-1.705305"><ele>247</ele><time>2022-04-08T14:01:58Z</time><name>PT7440</name></trkpt>
<trkpt lat="53.501816" lon="-1.705283"><ele>245</ele><time>2022-04-08T14:01:59Z</time><name>PT7441</name></trkpt>
<trkpt lat="53.501815" lon="-1.705267"><ele>244</ele><time>2022-04-08T14:02:00Z</time><name>PT7442</name></trkpt>
<trkpt lat="53.501817" lon="-1.705248"><ele>244</ele><time>2022-04-08T14:02:01Z</time><name>PT7443</name></trkpt>
<trkpt lat="53.501823" lon="-1.705225"><ele>243</ele><time>2022-04-08T14:02:02Z</time><name>PT7444</name></trkpt>
<trkpt lat="53.501822" lon="-1.705201"><ele>243</ele><time>2022-04-08T14:02:03Z</time><name>PT7445</name></trkpt>
<trkpt lat="53.501817" lon="-1.705179"><ele>242</ele><time>2022-04-08T14:02:04Z</time><name>PT7446</name></trkpt>
<trkpt lat="53.501812" lon="-1.705155"><ele>241</ele><time>2022-04-08T14:02:05Z</time><name>PT7447</name></trkpt>
<trkpt lat="53.501811" lon="-1.705135"><ele>241</ele><time>2022-04-08T14:02:06Z</time><name>PT7448</name></trkpt>
<trkpt lat="53.501819" lon="-1.705110"><ele>241</ele><time>2022-04-08T14:02:07Z</time><name>PT7449</name></trkpt>
<trkpt lat="53.501821" lon="-1.705091"><ele>240</ele><time>2022-04-08T14:02:08Z</time><name>PT7450</name></trkpt>
<trkpt lat="53.501825" lon="-1.705062"><ele>240</ele><time>2022-04-08T14:02:09Z</time><name>PT7451</name></trkpt>
<trkpt lat="53.501824" lon="-1.705043"><ele>240</ele><time>2022-04-08T14:02:10Z</time><name>PT7452</name></trkpt>
<trkpt lat="53.501824" lon="-1.705025"><ele>240</ele><time>2022-04-08T14:02:11Z</time><name>PT7453</name></trkpt>
<trkpt lat="53.501821" lon="-1.705010"><ele>239</ele><time>2022-04-08T14:02:12Z</time><name>PT7454</name></trkpt>
<trkpt lat="53.501820" lon="-1.705002"><ele>239</ele><time>2022-04-08T14:02:13Z</time><name>PT7455</name></trkpt>
<trkpt lat="53.501824" lon="-1.704985"><ele>238</ele><time>2022-04-08T14:02:14Z</time><name>PT7456</name></trkpt>
<trkpt lat="53.501825" lon="-1.704962"><ele>238</ele><time>2022-04-08T14:02:15Z</time><name>PT7457</name></trkpt>
<trkpt lat="53.501832" lon="-1.704949"><ele>238</ele><time>2022-04-08T14:02:16Z</time><name>PT7458</name></trkpt>
<trkpt lat="53.501839" lon="-1.704942"><ele>238</ele><time>2022-04-08T14:02:17Z</time><name>PT7459</name></trkpt>
<trkpt lat="53.501848" lon="-1.704927"><ele>238</ele><time>2022-04-08T14:02:18Z</time><name>PT7460</name></trkpt>
<trkpt lat="53.501857" lon="-1.704921"><ele>238</ele><time>2022-04-08T14:02:19Z</time><name>PT7461</name></trkpt>
<trkpt lat="53.501869" lon="-1.704908"><ele>238</ele><time>2022-04-08T14:02:20Z</time><name>PT7462</name></trkpt>
<trkpt lat="53.501880" lon="-1.704904"><ele>238</ele><time>2022-04-08T14:02:21Z</time><name>PT7463</name></trkpt>
<trkpt lat="53.501889" lon="-1.704890"><ele>238</ele><time>2022-04-08T14:02:22Z</time><name>PT7464</name></trkpt>
<trkpt lat="53.501897" lon="-1.704885"><ele>238</ele><time>2022-04-08T14:02:23Z</time><name>PT7465</name></trkpt>
<trkpt lat="53.501903" lon="-1.704884"><ele>237</ele><time>2022-04-08T14:02:24Z</time><name>PT7466</name></trkpt>
<trkpt lat="53.501910" lon="-1.704874"><ele>238</ele><time>2022-04-08T14:02:25Z</time><name>PT7467</name></trkpt>
<trkpt lat="53.501917" lon="-1.704856"><ele>239</ele><time>2022-04-08T14:02:26Z</time><name>PT7468</name></trkpt>
<trkpt lat="53.501925" lon="-1.704844"><ele>239</ele><time>2022-04-08T14:02:27Z</time><name>PT7469</name></trkpt>
<trkpt lat="53.501929" lon="-1.704853"><ele>237</ele><time>2022-04-08T14:02:28Z</time><name>PT7470</name></trkpt>
<trkpt lat="53.501937" lon="-1.704851"><ele>237</ele><time>2022-04-08T14:02:29Z</time><name>PT7471</name></trkpt>
<trkpt lat="53.501945" lon="-1.704848"><ele>237</ele><time>2022-04-08T14:02:30Z</time><name>PT7472</name></trkpt>
<trkpt lat="53.501953" lon="-1.704837"><ele>238</ele><time>2022-04-08T14:02:31Z</time><name>PT7473</name></trkpt>
<trkpt lat="53.501958" lon="-1.704825"><ele>237</ele><time>2022-04-08T14:02:32Z</time><name>PT7474</name></trkpt>
<trkpt lat="53.501966" lon="-1.704813"><ele>238</ele><time>2022-04-08T14:02:33Z</time><name>PT7475</name></trkpt>
<trkpt lat="53.501974" lon="-1.704804"><ele>238</ele><time>2022-04-08T14:02:34Z</time><name>PT7476</name></trkpt>
<trkpt lat="53.501981" lon="-1.704797"><ele>238</ele><time>2022-04-08T14:02:35Z</time><name>PT7477</name></trkpt>
<trkpt lat="53.501981" lon="-1.704805"><ele>237</ele><time>2022-04-08T14:02:36Z</time><name>PT7478</name></trkpt>
<trkpt lat="53.501989" lon="-1.704799"><ele>238</ele><time>2022-04-08T14:02:37Z</time><name>PT7479</name></trkpt>
<trkpt lat="53.501994" lon="-1.704784"><ele>238</ele><time>2022-04-08T14:02:38Z</time><name>PT7480</name></trkpt>
<trkpt lat="53.501999" lon="-1.704783"><ele>238</ele><time>2022-04-08T14:02:39Z</time><name>PT7481</name></trkpt>
<trkpt lat="53.502004" lon="-1.704773"><ele>238</ele><time>2022-04-08T14:02:40Z</time><name>PT7482</name></trkpt>
<trkpt lat="53.502016" lon="-1.704750"><ele>238</ele><time>2022-04-08T14:02:41Z</time><name>PT7483</name></trkpt>
<trkpt lat="53.502024" lon="-1.704713"><ele>239</ele><time>2022-04-08T14:02:42Z</time><name>PT7484</name></trkpt>
<trkpt lat="53.502033" lon="-1.704678"><ele>241</ele><time>2022-04-08T14:02:43Z</time><name>PT7485</name></trkpt>
<trkpt lat="53.502039" lon="-1.704657"><ele>242</ele><time>2022-04-08T14:02:44Z</time><name>PT7486</name></trkpt>
<trkpt lat="53.502050" lon="-1.704633"><ele>242</ele><time>2022-04-08T14:02:45Z</time><name>PT7487</name></trkpt>
<trkpt lat="53.502057" lon="-1.704629"><ele>242</ele><time>2022-04-08T14:02:46Z</time><name>PT7488</name></trkpt>
<trkpt lat="53.502065" lon="-1.704623"><ele>242</ele><time>2022-04-08T14:02:47Z</time><name>PT7489</name></trkpt>
<trkpt lat="53.502070" lon="-1.704609"><ele>242</ele><time>2022-04-08T14:02:48Z</time><name>PT7490</name></trkpt>
<trkpt lat="53.502076" lon="-1.704605"><ele>242</ele><time>2022-04-08T14:02:49Z</time><name>PT7491</name></trkpt>
<trkpt lat="53.502075" lon="-1.704594"><ele>243</ele><time>2022-04-08T14:02:50Z</time><name>PT7492</name></trkpt>
<trkpt lat="53.502077" lon="-1.704602"><ele>243</ele><time>2022-04-08T14:02:51Z</time><name>PT7493</name></trkpt>
<trkpt lat="53.502083" lon="-1.704585"><ele>244</ele><time>2022-04-08T14:02:52Z</time><name>PT7494</name></trkpt>
<trkpt lat="53.502087" lon="-1.704583"><ele>244</ele><time>2022-04-08T14:02:53Z</time><name>PT7495</name></trkpt>
<trkpt lat="53.502098" lon="-1.704575"><ele>244</ele><time>2022-04-08T14:02:54Z</time><name>PT7496</name></trkpt>
<trkpt lat="53.502104" lon="-1.704564"><ele>245</ele><time>2022-04-08T14:02:55Z</time><name>PT7497</name></trkpt>
<trkpt lat="53.502113" lon="-1.704560"><ele>245</ele><time>2022-04-08T14:02:56Z</time><name>PT7498</name></trkpt>
<trkpt lat="53.502127" lon="-1.704554"><ele>245</ele><time>2022-04-08T14:02:57Z</time><name>PT7499</name></trkpt>
<trkpt lat="53.502135" lon="-1.704550"><ele>245</ele><time>2022-04-08T14:02:58Z</time><name>PT7500</name></trkpt>
<trkpt lat="53.502143" lon="-1.704551"><ele>245</ele><time>2022-04-08T14:03:00Z</time><name>PT7501</name></trkpt>
<trkpt lat="53.502152" lon="-1.704544"><ele>245</ele><time>2022-04-08T14:03:00Z</time><name>PT7502</name></trkpt>
<trkpt lat="53.502162" lon="-1.704542"><ele>245</ele><time>2022-04-08T14:03:01Z</time><name>PT7503</name></trkpt>
<trkpt lat="53.502167" lon="-1.704515"><ele>246</ele><time>2022-04-08T14:03:02Z</time><name>PT7504</name></trkpt>
<trkpt lat="53.502179" lon="-1.704511"><ele>246</ele><time>2022-04-08T14:03:03Z</time><name>PT7505</name></trkpt>
<trkpt lat="53.502188" lon="-1.704497"><ele>247</ele><time>2022-04-08T14:03:04Z</time><name>PT7506</name></trkpt>
<trkpt lat="53.502199" lon="-1.704497"><ele>247</ele><time>2022-04-08T14:03:05Z</time><name>PT7507</name></trkpt>
<trkpt lat="53.502210" lon="-1.704489"><ele>248</ele><time>2022-04-08T14:03:06Z</time><name>PT7508</name></trkpt>
<trkpt lat="53.502216" lon="-1.704479"><ele>248</ele><time>2022-04-08T14:03:07Z</time><name>PT7509</name></trkpt>
<trkpt lat="53.502227" lon="-1.704472"><ele>249</ele><time>2022-04-08T14:03:08Z</time><name>PT7510</name></trkpt>
<trkpt lat="53.502235" lon="-1.704474"><ele>249</ele><time>2022-04-08T14:03:09Z</time><name>PT7511</name></trkpt>
<trkpt lat="53.502243" lon="-1.704461"><ele>249</ele><time>2022-04-08T14:03:10Z</time><name>PT7512</name></trkpt>
<trkpt lat="53.502251" lon="-1.704461"><ele>249</ele><time>2022-04-08T14:03:11Z</time><name>PT7513</name></trkpt>
<trkpt lat="53.502261" lon="-1.704456"><ele>249</ele><time>2022-04-08T14:03:12Z</time><name>PT7514</name></trkpt>
<trkpt lat="53.502272" lon="-1.704449"><ele>250</ele><time>2022-04-08T14:03:13Z</time><name>PT7515</name></trkpt>
<trkpt lat="53.502280" lon="-1.704432"><ele>250</ele><time>2022-04-08T14:03:14Z</time><name>PT7516</name></trkpt>
<trkpt lat="53.502284" lon="-1.704423"><ele>250</ele><time>2022-04-08T14:03:15Z</time><name>PT7517</name></trkpt>
<trkpt lat="53.502293" lon="-1.704399"><ele>250</ele><time>2022-04-08T14:03:16Z</time><name>PT7518</name></trkpt>
<trkpt lat="53.502301" lon="-1.704393"><ele>250</ele><time>2022-04-08T14:03:17Z</time><name>PT7519</name></trkpt>
<trkpt lat="53.502313" lon="-1.704377"><ele>250</ele><time>2022-04-08T14:03:18Z</time><name>PT7520</name></trkpt>
<trkpt lat="53.502315" lon="-1.704365"><ele>250</ele><time>2022-04-08T14:03:19Z</time><name>PT7521</name></trkpt>
<trkpt lat="53.502322" lon="-1.704353"><ele>251</ele><time>2022-04-08T14:03:20Z</time><name>PT7522</name></trkpt>
<trkpt lat="53.502329" lon="-1.704337"><ele>251</ele><time>2022-04-08T14:03:21Z</time><name>PT7523</name></trkpt>
<trkpt lat="53.502335" lon="-1.704321"><ele>252</ele><time>2022-04-08T14:03:22Z</time><name>PT7524</name></trkpt>
<trkpt lat="53.502334" lon="-1.704308"><ele>253</ele><time>2022-04-08T14:03:23Z</time><name>PT7525</name></trkpt>
<trkpt lat="53.502335" lon="-1.704299"><ele>253</ele><time>2022-04-08T14:03:24Z</time><name>PT7526</name></trkpt>
<trkpt lat="53.502345" lon="-1.704288"><ele>254</ele><time>2022-04-08T14:03:25Z</time><name>PT7527</name></trkpt>
<trkpt lat="53.502348" lon="-1.704278"><ele>254</ele><time>2022-04-08T14:03:26Z</time><name>PT7528</name></trkpt>
<trkpt lat="53.502356" lon="-1.704261"><ele>255</ele><time>2022-04-08T14:03:27Z</time><name>PT7529</name></trkpt>
<trkpt lat="53.502363" lon="-1.704255"><ele>255</ele><time>2022-04-08T14:03:28Z</time><name>PT7530</name></trkpt>
<trkpt lat="53.502366" lon="-1.704235"><ele>256</ele><time>2022-04-08T14:03:29Z</time><name>PT7531</name></trkpt>
<trkpt lat="53.502372" lon="-1.704223"><ele>257</ele><time>2022-04-08T14:03:30Z</time><name>PT7532</name></trkpt>
<trkpt lat="53.502384" lon="-1.704211"><ele>257</ele><time>2022-04-08T14:03:31Z</time><name>PT7533</name></trkpt>
<trkpt lat="53.502394" lon="-1.704191"><ele>259</ele><time>2022-04-08T14:03:32Z</time><name>PT7534</name></trkpt>
<trkpt lat="53.502400" lon="-1.704177"><ele>260</ele><time>2022-04-08T14:03:33Z</time><name>PT7535</name></trkpt>
<trkpt lat="53.502406" lon="-1.704171"><ele>260</ele><time>2022-04-08T14:03:34Z</time><name>PT7536</name></trkpt>
<trkpt lat="53.502411" lon="-1.704169"><ele>260</ele><time>2022-04-08T14:03:36Z</time><name>PT7537</name></trkpt>
<trkpt lat="53.502425" lon="-1.704163"><ele>258</ele><time>2022-04-08T14:03:37Z</time><name>PT7538</name></trkpt>
<trkpt lat="53.502444" lon="-1.704147"><ele>257</ele><time>2022-04-08T14:03:38Z</time><name>PT7539</name></trkpt>
<trkpt lat="53.502457" lon="-1.704134"><ele>258</ele><time>2022-04-08T14:03:39Z</time><name>PT7540</name></trkpt>
<trkpt lat="53.502467" lon="-1.704124"><ele>258</ele><time>2022-04-08T14:03:40Z</time><name>PT7541</name></trkpt>
<trkpt lat="53.502482" lon="-1.704111"><ele>258</ele><time>2022-04-08T14:03:41Z</time><name>PT7542</name></trkpt>
<trkpt lat="53.502490" lon="-1.704102"><ele>258</ele><time>2022-04-08T14:03:42Z</time><name>PT7543</name></trkpt>
<trkpt lat="53.502514" lon="-1.704092"><ele>258</ele><time>2022-04-08T14:03:43Z</time><name>PT7544</name></trkpt>
<trkpt lat="53.502529" lon="-1.704081"><ele>259</ele><time>2022-04-08T14:03:44Z</time><name>PT7545</name></trkpt>
<trkpt lat="53.502538" lon="-1.704077"><ele>259</ele><time>2022-04-08T14:03:45Z</time><name>PT7546</name></trkpt>
<trkpt lat="53.502545" lon="-1.704068"><ele>259</ele><time>2022-04-08T14:03:46Z</time><name>PT7547</name></trkpt>
<trkpt lat="53.502560" lon="-1.704060"><ele>259</ele><time>2022-04-08T14:03:47Z</time><name>PT7548</name></trkpt>
<trkpt lat="53.502567" lon="-1.704048"><ele>259</ele><time>2022-04-08T14:03:48Z</time><name>PT7549</name></trkpt>
<trkpt lat="53.502577" lon="-1.704037"><ele>259</ele><time>2022-04-08T14:03:49Z</time><name>PT7550</name></trkpt>
<trkpt lat="53.502591" lon="-1.704023"><ele>260</ele><time>2022-04-08T14:03:50Z</time><name>PT7551</name></trkpt>
<trkpt lat="53.502593" lon="-1.704009"><ele>260</ele><time>2022-04-08T14:03:51Z</time><name>PT7552</name></trkpt>
<trkpt lat="53.502603" lon="-1.703994"><ele>260</ele><time>2022-04-08T14:03:52Z</time><name>PT7553</name></trkpt>
<trkpt lat="53.502611" lon="-1.703976"><ele>260</ele><time>2022-04-08T14:03:53Z</time><name>PT7554</name></trkpt>
<trkpt lat="53.502636" lon="-1.703959"><ele>261</ele><time>2022-04-08T14:03:54Z</time><name>PT7555</name></trkpt>
<trkpt lat="53.502650" lon="-1.703940"><ele>262</ele><time>2022-04-08T14:03:55Z</time><name>PT7556</name></trkpt>
<trkpt lat="53.502668" lon="-1.703923"><ele>262</ele><time>2022-04-08T14:03:56Z</time><name>PT7557</name></trkpt>
<trkpt lat="53.502679" lon="-1.703904"><ele>263</ele><time>2022-04-08T14:03:57Z</time><name>PT7558</name></trkpt>
<trkpt lat="53.502687" lon="-1.703884"><ele>263</ele><time>2022-04-08T14:03:58Z</time><name>PT7559</name></trkpt>
<trkpt lat="53.502699" lon="-1.703858"><ele>264</ele><time>2022-04-08T14:03:59Z</time><name>PT7560</name></trkpt>
<trkpt lat="53.502712" lon="-1.703836"><ele>264</ele><time>2022-04-08T14:04:00Z</time><name>PT7561</name></trkpt>
<trkpt lat="53.502719" lon="-1.703815"><ele>264</ele><time>2022-04-08T14:04:01Z</time><name>PT7562</name></trkpt>
<trkpt lat="53.502727" lon="-1.703798"><ele>265</ele><time>2022-04-08T14:04:02Z</time><name>PT7563</name></trkpt>
<trkpt lat="53.502739" lon="-1.703783"><ele>265</ele><time>2022-04-08T14:04:03Z</time><name>PT7564</name></trkpt>
<trkpt lat="53.502747" lon="-1.703768"><ele>265</ele><time>2022-04-08T14:04:04Z</time><name>PT7565</name></trkpt>
<trkpt lat="53.502753" lon="-1.703757"><ele>266</ele><time>2022-04-08T14:04:05Z</time><name>PT7566</name></trkpt>
<trkpt lat="53.502755" lon="-1.703744"><ele>266</ele><time>2022-04-08T14:04:06Z</time><name>PT7567</name></trkpt>
<trkpt lat="53.502758" lon="-1.703734"><ele>266</ele><time>2022-04-08T14:04:07Z</time><name>PT7568</name></trkpt>
<trkpt lat="53.502762" lon="-1.703726"><ele>267</ele><time>2022-04-08T14:04:08Z</time><name>PT7569</name></trkpt>
<trkpt lat="53.502766" lon="-1.703716"><ele>267</ele><time>2022-04-08T14:04:10Z</time><name>PT7570</name></trkpt>
<trkpt lat="53.502774" lon="-1.703708"><ele>267</ele><time>2022-04-08T14:04:10Z</time><name>PT7571</name></trkpt>
<trkpt lat="53.502778" lon="-1.703698"><ele>267</ele><time>2022-04-08T14:04:11Z</time><name>PT7572</name></trkpt>
<trkpt lat="53.502789" lon="-1.703687"><ele>268</ele><time>2022-04-08T14:04:12Z</time><name>PT7573</name></trkpt>
<trkpt lat="53.502796" lon="-1.703676"><ele>268</ele><time>2022-04-08T14:04:13Z</time><name>PT7574</name></trkpt>
<trkpt lat="53.502801" lon="-1.703659"><ele>268</ele><time>2022-04-08T14:04:14Z</time><name>PT7575</name></trkpt>
<trkpt lat="53.502806" lon="-1.703644"><ele>268</ele><time>2022-04-08T14:04:15Z</time><name>PT7576</name></trkpt>
<trkpt lat="53.502807" lon="-1.703630"><ele>268</ele><time>2022-04-08T14:04:16Z</time><name>PT7577</name></trkpt>
<trkpt lat="53.502811" lon="-1.703610"><ele>269</ele><time>2022-04-08T14:04:17Z</time><name>PT7578</name></trkpt>
<trkpt lat="53.502814" lon="-1.703598"><ele>269</ele><time>2022-04-08T14:04:18Z</time><name>PT7579</name></trkpt>
<trkpt lat="53.502819" lon="-1.703583"><ele>270</ele><time>2022-04-08T14:04:20Z</time><name>PT7580</name></trkpt>
<trkpt lat="53.502822" lon="-1.703567"><ele>270</ele><time>2022-04-08T14:04:20Z</time><name>PT7581</name></trkpt>
<trkpt lat="53.502821" lon="-1.703554"><ele>270</ele><time>2022-04-08T14:04:21Z</time><name>PT7582</name></trkpt>
<trkpt lat="53.502821" lon="-1.703537"><ele>270</ele><time>2022-04-08T14:04:22Z</time><name>PT7583</name></trkpt>
<trkpt lat="53.502823" lon="-1.703522"><ele>271</ele><time>2022-04-08T14:04:23Z</time><name>PT7584</name></trkpt>
<trkpt lat="53.502825" lon="-1.703511"><ele>271</ele><time>2022-04-08T14:04:24Z</time><name>PT7585</name></trkpt>
<trkpt lat="53.502827" lon="-1.703499"><ele>271</ele><time>2022-04-08T14:04:25Z</time><name>PT7586</name></trkpt>
<trkpt lat="53.502831" lon="-1.703494"><ele>271</ele><time>2022-04-08T14:04:26Z</time><name>PT7587</name></trkpt>
<trkpt lat="53.502831" lon="-1.703475"><ele>271</ele><time>2022-04-08T14:04:27Z</time><name>PT7588</name></trkpt>
<trkpt lat="53.502827" lon="-1.703455"><ele>272</ele><time>2022-04-08T14:04:28Z</time><name>PT7589</name></trkpt>
<trkpt lat="53.502831" lon="-1.703441"><ele>272</ele><time>2022-04-08T14:04:29Z</time><name>PT7590</name></trkpt>
<trkpt lat="53.502832" lon="-1.703422"><ele>272</ele><time>2022-04-08T14:04:30Z</time><name>PT7591</name></trkpt>
<trkpt lat="53.502839" lon="-1.703404"><ele>273</ele><time>2022-04-08T14:04:31Z</time><name>PT7592</name></trkpt>
<trkpt lat="53.502842" lon="-1.703388"><ele>273</ele><time>2022-04-08T14:04:32Z</time><name>PT7593</name></trkpt>
<trkpt lat="53.502844" lon="-1.703377"><ele>273</ele><time>2022-04-08T14:04:33Z</time><name>PT7594</name></trkpt>
<trkpt lat="53.502843" lon="-1.703362"><ele>273</ele><time>2022-04-08T14:04:34Z</time><name>PT7595</name></trkpt>
<trkpt lat="53.502849" lon="-1.703329"><ele>273</ele><time>2022-04-08T14:04:35Z</time><name>PT7596</name></trkpt>
<trkpt lat="53.502853" lon="-1.703300"><ele>273</ele><time>2022-04-08T14:04:36Z</time><name>PT7597</name></trkpt>
<trkpt lat="53.502854" lon="-1.703272"><ele>273</ele><time>2022-04-08T14:04:37Z</time><name>PT7598</name></trkpt>
<trkpt lat="53.502853" lon="-1.703244"><ele>273</ele><time>2022-04-08T14:04:38Z</time><name>PT7599</name></trkpt>
<trkpt lat="53.502853" lon="-1.703226"><ele>273</ele><time>2022-04-08T14:04:39Z</time><name>PT7600</name></trkpt>
<trkpt lat="53.502853" lon="-1.703207"><ele>273</ele><time>2022-04-08T14:04:40Z</time><name>PT7601</name></trkpt>
<trkpt lat="53.502852" lon="-1.703185"><ele>273</ele><time>2022-04-08T14:04:41Z</time><name>PT7602</name></trkpt>
<trkpt lat="53.502851" lon="-1.703164"><ele>274</ele><time>2022-04-08T14:04:42Z</time><name>PT7603</name></trkpt>
<trkpt lat="53.502851" lon="-1.703141"><ele>274</ele><time>2022-04-08T14:04:43Z</time><name>PT7604</name></trkpt>
<trkpt lat="53.502851" lon="-1.703120"><ele>274</ele><time>2022-04-08T14:04:44Z</time><name>PT7605</name></trkpt>
<trkpt lat="53.502849" lon="-1.703098"><ele>274</ele><time>2022-04-08T14:04:45Z</time><name>PT7606</name></trkpt>
<trkpt lat="53.502845" lon="-1.703080"><ele>274</ele><time>2022-04-08T14:04:46Z</time><name>PT7607</name></trkpt>
<trkpt lat="53.502840" lon="-1.703064"><ele>275</ele><time>2022-04-08T14:04:47Z</time><name>PT7608</name></trkpt>
<trkpt lat="53.502835" lon="-1.703051"><ele>275</ele><time>2022-04-08T14:04:48Z</time><name>PT7609</name></trkpt>
<trkpt lat="53.502839" lon="-1.703035"><ele>275</ele><time>2022-04-08T14:04:49Z</time><name>PT7610</name></trkpt>
<trkpt lat="53.502831" lon="-1.703030"><ele>275</ele><time>2022-04-08T14:04:50Z</time><name>PT7611</name></trkpt>
<trkpt lat="53.502830" lon="-1.703019"><ele>275</ele><time>2022-04-08T14:04:51Z</time><name>PT7612</name></trkpt>
<trkpt lat="53.502826" lon="-1.703009"><ele>275</ele><time>2022-04-08T14:04:52Z</time><name>PT7613</name></trkpt>
<trkpt lat="53.502821" lon="-1.702999"><ele>275</ele><time>2022-04-08T14:04:53Z</time><name>PT7614</name></trkpt>
<trkpt lat="53.502821" lon="-1.702982"><ele>275</ele><time>2022-04-08T14:04:54Z</time><name>PT7615</name></trkpt>
<trkpt lat="53.502816" lon="-1.702970"><ele>275</ele><time>2022-04-08T14:04:55Z</time><name>PT7616</name></trkpt>
<trkpt lat="53.502815" lon="-1.702958"><ele>275</ele><time>2022-04-08T14:04:56Z</time><name>PT7617</name></trkpt>
<trkpt lat="53.502814" lon="-1.702935"><ele>275</ele><time>2022-04-08T14:04:57Z</time><name>PT7618</name></trkpt>
<trkpt lat="53.502814" lon="-1.702921"><ele>275</ele><time>2022-04-08T14:04:58Z</time><name>PT7619</name></trkpt>
<trkpt lat="53.502813" lon="-1.702907"><ele>275</ele><time>2022-04-08T14:04:59Z</time><name>PT7620</name></trkpt>
<trkpt lat="53.502817" lon="-1.702896"><ele>274</ele><time>2022-04-08T14:05:00Z</time><name>PT7621</name></trkpt>
<trkpt lat="53.502817" lon="-1.702873"><ele>274</ele><time>2022-04-08T14:05:01Z</time><name>PT7622</name></trkpt>
<trkpt lat="53.502819" lon="-1.702857"><ele>274</ele><time>2022-04-08T14:05:02Z</time><name>PT7623</name></trkpt>
<trkpt lat="53.502817" lon="-1.702841"><ele>274</ele><time>2022-04-08T14:05:03Z</time><name>PT7624</name></trkpt>
<trkpt lat="53.502818" lon="-1.702825"><ele>274</ele><time>2022-04-08T14:05:04Z</time><name>PT7625</name></trkpt>
<trkpt lat="53.502817" lon="-1.702813"><ele>274</ele><time>2022-04-08T14:05:05Z</time><name>PT7626</name></trkpt>
<trkpt lat="53.502819" lon="-1.702796"><ele>273</ele><time>2022-04-08T14:05:06Z</time><name>PT7627</name></trkpt>
<trkpt lat="53.502822" lon="-1.702774"><ele>274</ele><time>2022-04-08T14:05:07Z</time><name>PT7628</name></trkpt>
<trkpt lat="53.502827" lon="-1.702760"><ele>273</ele><time>2022-04-08T14:05:08Z</time><name>PT7629</name></trkpt>
<trkpt lat="53.502829" lon="-1.702748"><ele>273</ele><time>2022-04-08T14:05:09Z</time><name>PT7630</name></trkpt>
<trkpt lat="53.502830" lon="-1.702742"><ele>273</ele><time>2022-04-08T14:05:10Z</time><name>PT7631</name></trkpt>
<trkpt lat="53.502837" lon="-1.702729"><ele>273</ele><time>2022-04-08T14:05:11Z</time><name>PT7632</name></trkpt>
<trkpt lat="53.502844" lon="-1.702717"><ele>273</ele><time>2022-04-08T14:05:12Z</time><name>PT7633</name></trkpt>
<trkpt lat="53.502846" lon="-1.702698"><ele>273</ele><time>2022-04-08T14:05:13Z</time><name>PT7634</name></trkpt>
<trkpt lat="53.502847" lon="-1.702684"><ele>272</ele><time>2022-04-08T14:05:14Z</time><name>PT7635</name></trkpt>
<trkpt lat="53.502845" lon="-1.702675"><ele>272</ele><time>2022-04-08T14:05:15Z</time><name>PT7636</name></trkpt>
<trkpt lat="53.502852" lon="-1.702666"><ele>272</ele><time>2022-04-08T14:05:16Z</time><name>PT7637</name></trkpt>
<trkpt lat="53.502850" lon="-1.702647"><ele>271</ele><time>2022-04-08T14:05:17Z</time><name>PT7638</name></trkpt>
<trkpt lat="53.502857" lon="-1.702642"><ele>271</ele><time>2022-04-08T14:05:18Z</time><name>PT7639</name></trkpt>
<trkpt lat="53.502862" lon="-1.702625"><ele>271</ele><time>2022-04-08T14:05:19Z</time><name>PT7640</name></trkpt>
<trkpt lat="53.502863" lon="-1.702596"><ele>272</ele><time>2022-04-08T14:05:20Z</time><name>PT7641</name></trkpt>
<trkpt lat="53.502864" lon="-1.702584"><ele>271</ele><time>2022-04-08T14:05:21Z</time><name>PT7642</name></trkpt>
<trkpt lat="53.502864" lon="-1.702574"><ele>272</ele><time>2022-04-08T14:05:22Z</time><name>PT7643</name></trkpt>
<trkpt lat="53.502863" lon="-1.702563"><ele>271</ele><time>2022-04-08T14:05:23Z</time><name>PT7644</name></trkpt>
<trkpt lat="53.502864" lon="-1.702553"><ele>271</ele><time>2022-04-08T14:05:24Z</time><name>PT7645</name></trkpt>
<trkpt lat="53.502863" lon="-1.702541"><ele>271</ele><time>2022-04-08T14:05:25Z</time><name>PT7646</name></trkpt>
<trkpt lat="53.502869" lon="-1.702513"><ele>270</ele><time>2022-04-08T14:05:36Z</time><name>PT7647</name></trkpt>
<trkpt lat="53.502877" lon="-1.702475"><ele>270</ele><time>2022-04-08T14:05:37Z</time><name>PT7648</name></trkpt>
<trkpt lat="53.502881" lon="-1.702459"><ele>270</ele><time>2022-04-08T14:05:38Z</time><name>PT7649</name></trkpt>
<trkpt lat="53.502884" lon="-1.702437"><ele>270</ele><time>2022-04-08T14:05:39Z</time><name>PT7650</name></trkpt>
<trkpt lat="53.502889" lon="-1.702406"><ele>269</ele><time>2022-04-08T14:05:40Z</time><name>PT7651</name></trkpt>
<trkpt lat="53.502894" lon="-1.702378"><ele>269</ele><time>2022-04-08T14:05:42Z</time><name>PT7652</name></trkpt>
<trkpt lat="53.502895" lon="-1.702342"><ele>268</ele><time>2022-04-08T14:05:43Z</time><name>PT7653</name></trkpt>
<trkpt lat="53.502898" lon="-1.702319"><ele>268</ele><time>2022-04-08T14:05:44Z</time><name>PT7654</name></trkpt>
<trkpt lat="53.502900" lon="-1.702262"><ele>266</ele><time>2022-04-08T14:05:45Z</time><name>PT7655</name></trkpt>
<trkpt lat="53.502906" lon="-1.702231"><ele>266</ele><time>2022-04-08T14:05:46Z</time><name>PT7656</name></trkpt>
<trkpt lat="53.502913" lon="-1.702190"><ele>265</ele><time>2022-04-08T14:05:47Z</time><name>PT7657</name></trkpt>
<trkpt lat="53.502916" lon="-1.702157"><ele>265</ele><time>2022-04-08T14:05:48Z</time><name>PT7658</name></trkpt>
<trkpt lat="53.502918" lon="-1.702137"><ele>265</ele><time>2022-04-08T14:05:49Z</time><name>PT7659</name></trkpt>
<trkpt lat="53.502925" lon="-1.702101"><ele>265</ele><time>2022-04-08T14:05:50Z</time><name>PT7660</name></trkpt>
<trkpt lat="53.502930" lon="-1.702071"><ele>265</ele><time>2022-04-08T14:05:51Z</time><name>PT7661</name></trkpt>
<trkpt lat="53.502931" lon="-1.702050"><ele>265</ele><time>2022-04-08T14:05:52Z</time><name>PT7662</name></trkpt>
<trkpt lat="53.502945" lon="-1.701991"><ele>264</ele><time>2022-04-08T14:05:55Z</time><name>PT7663</name></trkpt>
<trkpt lat="53.502945" lon="-1.701912"><ele>265</ele><time>2022-04-08T14:05:59Z</time><name>PT7664</name></trkpt>
<trkpt lat="53.502951" lon="-1.701865"><ele>266</ele><time>2022-04-08T14:06:03Z</time><name>PT7665</name></trkpt>
<trkpt lat="53.502962" lon="-1.701753"><ele>264</ele><time>2022-04-08T14:06:07Z</time><name>PT7666</name></trkpt>
<trkpt lat="53.502975" lon="-1.701660"><ele>264</ele><time>2022-04-08T14:06:11Z</time><name>PT7667</name></trkpt>
<trkpt lat="53.502991" lon="-1.701576"><ele>264</ele><time>2022-04-08T14:06:15Z</time><name>PT7668</name></trkpt>
<trkpt lat="53.503003" lon="-1.701507"><ele>264</ele><time>2022-04-08T14:06:19Z</time><name>PT7669</name></trkpt>
<trkpt lat="53.503014" lon="-1.701453"><ele>265</ele><time>2022-04-08T14:06:23Z</time><name>PT7670</name></trkpt>
<trkpt lat="53.503025" lon="-1.701378"><ele>265</ele><time>2022-04-08T14:06:27Z</time><name>PT7671</name></trkpt>
<trkpt lat="53.503034" lon="-1.701310"><ele>266</ele><time>2022-04-08T14:06:31Z</time><name>PT7672</name></trkpt>
<trkpt lat="53.503045" lon="-1.701249"><ele>267</ele><time>2022-04-08T14:06:35Z</time><name>PT7673</name></trkpt>
<trkpt lat="53.503049" lon="-1.701161"><ele>267</ele><time>2022-04-08T14:06:39Z</time><name>PT7674</name></trkpt>
<trkpt lat="53.503053" lon="-1.701105"><ele>269</ele><time>2022-04-08T14:06:43Z</time><name>PT7675</name></trkpt>
<trkpt lat="53.503057" lon="-1.701044"><ele>272</ele><time>2022-04-08T14:06:47Z</time><name>PT7676</name></trkpt>
<trkpt lat="53.503056" lon="-1.700980"><ele>271</ele><time>2022-04-08T14:06:51Z</time><name>PT7677</name></trkpt>
<trkpt lat="53.503057" lon="-1.700907"><ele>271</ele><time>2022-04-08T14:06:55Z</time><name>PT7678</name></trkpt>
<trkpt lat="53.503054" lon="-1.700823"><ele>270</ele><time>2022-04-08T14:06:59Z</time><name>PT7679</name></trkpt>
<trkpt lat="53.503047" lon="-1.700742"><ele>271</ele><time>2022-04-08T14:07:03Z</time><name>PT7680</name></trkpt>
<trkpt lat="53.503045" lon="-1.700662"><ele>271</ele><time>2022-04-08T14:07:07Z</time><name>PT7681</name></trkpt>
<trkpt lat="53.503042" lon="-1.700629"><ele>271</ele><time>2022-04-08T14:07:09Z</time><name>PT7682</name></trkpt>
<trkpt lat="53.503042" lon="-1.700609"><ele>272</ele><time>2022-04-08T14:07:10Z</time><name>PT7683</name></trkpt>
<trkpt lat="53.503034" lon="-1.700593"><ele>272</ele><time>2022-04-08T14:07:11Z</time><name>PT7684</name></trkpt>
<trkpt lat="53.503030" lon="-1.700567"><ele>272</ele><time>2022-04-08T14:07:12Z</time><name>PT7685</name></trkpt>
<trkpt lat="53.503027" lon="-1.700549"><ele>272</ele><time>2022-04-08T14:07:13Z</time><name>PT7686</name></trkpt>
<trkpt lat="53.503027" lon="-1.700524"><ele>272</ele><time>2022-04-08T14:07:14Z</time><name>PT7687</name></trkpt>
<trkpt lat="53.503027" lon="-1.700497"><ele>271</ele><time>2022-04-08T14:07:15Z</time><name>PT7688</name></trkpt>
<trkpt lat="53.503026" lon="-1.700472"><ele>271</ele><time>2022-04-08T14:07:16Z</time><name>PT7689</name></trkpt>
<trkpt lat="53.503024" lon="-1.700446"><ele>272</ele><time>2022-04-08T14:07:17Z</time><name>PT7690</name></trkpt>
<trkpt lat="53.503022" lon="-1.700423"><ele>272</ele><time>2022-04-08T14:07:18Z</time><name>PT7691</name></trkpt>
<trkpt lat="53.503019" lon="-1.700395"><ele>272</ele><time>2022-04-08T14:07:19Z</time><name>PT7692</name></trkpt>
<trkpt lat="53.503015" lon="-1.700367"><ele>272</ele><time>2022-04-08T14:07:20Z</time><name>PT7693</name></trkpt>
<trkpt lat="53.503010" lon="-1.700343"><ele>272</ele><time>2022-04-08T14:07:21Z</time><name>PT7694</name></trkpt>
<trkpt lat="53.503007" lon="-1.700319"><ele>272</ele><time>2022-04-08T14:07:22Z</time><name>PT7695</name></trkpt>
<trkpt lat="53.502999" lon="-1.700300"><ele>272</ele><time>2022-04-08T14:07:23Z</time><name>PT7696</name></trkpt>
<trkpt lat="53.502993" lon="-1.700284"><ele>271</ele><time>2022-04-08T14:07:24Z</time><name>PT7697</name></trkpt>
<trkpt lat="53.502987" lon="-1.700262"><ele>271</ele><time>2022-04-08T14:07:25Z</time><name>PT7698</name></trkpt>
<trkpt lat="53.502983" lon="-1.700239"><ele>271</ele><time>2022-04-08T14:07:26Z</time><name>PT7699</name></trkpt>
<trkpt lat="53.502978" lon="-1.700215"><ele>271</ele><time>2022-04-08T14:07:27Z</time><name>PT7700</name></trkpt>
<trkpt lat="53.502971" lon="-1.700195"><ele>270</ele><time>2022-04-08T14:07:28Z</time><name>PT7701</name></trkpt>
<trkpt lat="53.502968" lon="-1.700179"><ele>270</ele><time>2022-04-08T14:07:29Z</time><name>PT7702</name></trkpt>
<trkpt lat="53.502964" lon="-1.700164"><ele>270</ele><time>2022-04-08T14:07:30Z</time><name>PT7703</name></trkpt>
<trkpt lat="53.502961" lon="-1.700149"><ele>271</ele><time>2022-04-08T14:07:31Z</time><name>PT7704</name></trkpt>
<trkpt lat="53.502960" lon="-1.700140"><ele>270</ele><time>2022-04-08T14:07:32Z</time><name>PT7705</name></trkpt>
<trkpt lat="53.502967" lon="-1.700135"><ele>271</ele><time>2022-04-08T14:07:33Z</time><name>PT7706</name></trkpt>
<trkpt lat="53.502964" lon="-1.700131"><ele>271</ele><time>2022-04-08T14:07:34Z</time><name>PT7707</name></trkpt>
<trkpt lat="53.502965" lon="-1.700119"><ele>271</ele><time>2022-04-08T14:07:35Z</time><name>PT7708</name></trkpt>
<trkpt lat="53.502963" lon="-1.700103"><ele>271</ele><time>2022-04-08T14:07:36Z</time><name>PT7709</name></trkpt>
<trkpt lat="53.502959" lon="-1.700086"><ele>272</ele><time>2022-04-08T14:07:37Z</time><name>PT7710</name></trkpt>
<trkpt lat="53.502953" lon="-1.700071"><ele>272</ele><time>2022-04-08T14:07:38Z</time><name>PT7711</name></trkpt>
<trkpt lat="53.502956" lon="-1.700038"><ele>272</ele><time>2022-04-08T14:07:39Z</time><name>PT7712</name></trkpt>
<trkpt lat="53.502952" lon="-1.700023"><ele>272</ele><time>2022-04-08T14:07:40Z</time><name>PT7713</name></trkpt>
<trkpt lat="53.502948" lon="-1.700007"><ele>273</ele><time>2022-04-08T14:07:41Z</time><name>PT7714</name></trkpt>
<trkpt lat="53.502945" lon="-1.699989"><ele>274</ele><time>2022-04-08T14:07:42Z</time><name>PT7715</name></trkpt>
<trkpt lat="53.502941" lon="-1.699975"><ele>273</ele><time>2022-04-08T14:07:43Z</time><name>PT7716</name></trkpt>
<trkpt lat="53.502931" lon="-1.699968"><ele>273</ele><time>2022-04-08T14:07:44Z</time><name>PT7717</name></trkpt>
<trkpt lat="53.502924" lon="-1.699953"><ele>273</ele><time>2022-04-08T14:07:45Z</time><name>PT7718</name></trkpt>
<trkpt lat="53.502917" lon="-1.699936"><ele>272</ele><time>2022-04-08T14:07:46Z</time><name>PT7719</name></trkpt>
<trkpt lat="53.502909" lon="-1.699915"><ele>272</ele><time>2022-04-08T14:07:47Z</time><name>PT7720</name></trkpt>
<trkpt lat="53.502903" lon="-1.699906"><ele>271</ele><time>2022-04-08T14:07:48Z</time><name>PT7721</name></trkpt>
<trkpt lat="53.502896" lon="-1.699891"><ele>271</ele><time>2022-04-08T14:07:49Z</time><name>PT7722</name></trkpt>
<trkpt lat="53.502891" lon="-1.699877"><ele>270</ele><time>2022-04-08T14:07:50Z</time><name>PT7723</name></trkpt>
<trkpt lat="53.502894" lon="-1.699857"><ele>270</ele><time>2022-04-08T14:07:51Z</time><name>PT7724</name></trkpt>
<trkpt lat="53.502888" lon="-1.699834"><ele>269</ele><time>2022-04-08T14:07:52Z</time><name>PT7725</name></trkpt>
<trkpt lat="53.502891" lon="-1.699810"><ele>269</ele><time>2022-04-08T14:07:53Z</time><name>PT7726</name></trkpt>
<trkpt lat="53.502887" lon="-1.699790"><ele>269</ele><time>2022-04-08T14:07:54Z</time><name>PT7727</name></trkpt>
<trkpt lat="53.502884" lon="-1.699768"><ele>269</ele><time>2022-04-08T14:07:55Z</time><name>PT7728</name></trkpt>
<trkpt lat="53.502878" lon="-1.699747"><ele>270</ele><time>2022-04-08T14:07:56Z</time><name>PT7729</name></trkpt>
<trkpt lat="53.502876" lon="-1.699732"><ele>269</ele><time>2022-04-08T14:07:57Z</time><name>PT7730</name></trkpt>
<trkpt lat="53.502872" lon="-1.699713"><ele>269</ele><time>2022-04-08T14:07:58Z</time><name>PT7731</name></trkpt>
<trkpt lat="53.502867" lon="-1.699704"><ele>268</ele><time>2022-04-08T14:07:59Z</time><name>PT7732</name></trkpt>
<trkpt lat="53.502863" lon="-1.699693"><ele>268</ele><time>2022-04-08T14:08:00Z</time><name>PT7733</name></trkpt>
<trkpt lat="53.502858" lon="-1.699680"><ele>266</ele><time>2022-04-08T14:08:01Z</time><name>PT7734</name></trkpt>
<trkpt lat="53.502853" lon="-1.699665"><ele>265</ele><time>2022-04-08T14:08:02Z</time><name>PT7735</name></trkpt>
<trkpt lat="53.502851" lon="-1.699655"><ele>265</ele><time>2022-04-08T14:08:03Z</time><name>PT7736</name></trkpt>
<trkpt lat="53.502845" lon="-1.699651"><ele>264</ele><time>2022-04-08T14:08:04Z</time><name>PT7737</name></trkpt>
<trkpt lat="53.502838" lon="-1.699633"><ele>264</ele><time>2022-04-08T14:08:05Z</time><name>PT7738</name></trkpt>
<trkpt lat="53.502834" lon="-1.699606"><ele>264</ele><time>2022-04-08T14:08:06Z</time><name>PT7739</name></trkpt>
<trkpt lat="53.502826" lon="-1.699582"><ele>264</ele><time>2022-04-08T14:08:07Z</time><name>PT7740</name></trkpt>
<trkpt lat="53.502821" lon="-1.699565"><ele>263</ele><time>2022-04-08T14:08:08Z</time><name>PT7741</name></trkpt>
<trkpt lat="53.502819" lon="-1.699554"><ele>262</ele><time>2022-04-08T14:08:09Z</time><name>PT7742</name></trkpt>
<trkpt lat="53.502808" lon="-1.699526"><ele>263</ele><time>2022-04-08T14:08:10Z</time><name>PT7743</name></trkpt>
<trkpt lat="53.502804" lon="-1.699509"><ele>263</ele><time>2022-04-08T14:08:11Z</time><name>PT7744</name></trkpt>
<trkpt lat="53.502803" lon="-1.699489"><ele>263</ele><time>2022-04-08T14:08:12Z</time><name>PT7745</name></trkpt>
<trkpt lat="53.502799" lon="-1.699467"><ele>264</ele><time>2022-04-08T14:08:13Z</time><name>PT7746</name></trkpt>
<trkpt lat="53.502791" lon="-1.699442"><ele>265</ele><time>2022-04-08T14:08:14Z</time><name>PT7747</name></trkpt>
<trkpt lat="53.502789" lon="-1.699418"><ele>265</ele><time>2022-04-08T14:08:15Z</time><name>PT7748</name></trkpt>
<trkpt lat="53.502779" lon="-1.699401"><ele>265</ele><time>2022-04-08T14:08:16Z</time><name>PT7749</name></trkpt>
<trkpt lat="53.502776" lon="-1.699367"><ele>266</ele><time>2022-04-08T14:08:17Z</time><name>PT7750</name></trkpt>
<trkpt lat="53.502776" lon="-1.699362"><ele>266</ele><time>2022-04-08T14:08:18Z</time><name>PT7751</name></trkpt>
<trkpt lat="53.502778" lon="-1.699352"><ele>266</ele><time>2022-04-08T14:08:19Z</time><name>PT7752</name></trkpt>
<trkpt lat="53.502778" lon="-1.699337"><ele>266</ele><time>2022-04-08T14:08:20Z</time><name>PT7753</name></trkpt>
<trkpt lat="53.502779" lon="-1.699322"><ele>266</ele><time>2022-04-08T14:08:21Z</time><name>PT7754</name></trkpt>
<trkpt lat="53.502774" lon="-1.699309"><ele>266</ele><time>2022-04-08T14:08:22Z</time><name>PT7755</name></trkpt>
<trkpt lat="53.502764" lon="-1.699290"><ele>266</ele><time>2022-04-08T14:08:23Z</time><name>PT7756</name></trkpt>
<trkpt lat="53.502755" lon="-1.699270"><ele>267</ele><time>2022-04-08T14:08:24Z</time><name>PT7757</name></trkpt>
<trkpt lat="53.502755" lon="-1.699258"><ele>267</ele><time>2022-04-08T14:08:25Z</time><name>PT7758</name></trkpt>
<trkpt lat="53.502750" lon="-1.699253"><ele>267</ele><time>2022-04-08T14:08:26Z</time><name>PT7759</name></trkpt>
<trkpt lat="53.502744" lon="-1.699249"><ele>267</ele><time>2022-04-08T14:08:27Z</time><name>PT7760</name></trkpt>
<trkpt lat="53.502743" lon="-1.699242"><ele>266</ele><time>2022-04-08T14:08:28Z</time><name>PT7761</name></trkpt>
<trkpt lat="53.502732" lon="-1.699226"><ele>267</ele><time>2022-04-08T14:08:29Z</time><name>PT7762</name></trkpt>
<trkpt lat="53.502730" lon="-1.699227"><ele>266</ele><time>2022-04-08T14:08:30Z</time><name>PT7763</name></trkpt>
<trkpt lat="53.502722" lon="-1.699211"><ele>266</ele><time>2022-04-08T14:08:31Z</time><name>PT7764</name></trkpt>
<trkpt lat="53.502716" lon="-1.699192"><ele>266</ele><time>2022-04-08T14:08:32Z</time><name>PT7765</name></trkpt>
<trkpt lat="53.502712" lon="-1.699164"><ele>266</ele><time>2022-04-08T14:08:33Z</time><name>PT7766</name></trkpt>
<trkpt lat="53.502709" lon="-1.699135"><ele>266</ele><time>2022-04-08T14:08:34Z</time><name>PT7767</name></trkpt>
<trkpt lat="53.502704" lon="-1.699109"><ele>266</ele><time>2022-04-08T14:08:35Z</time><name>PT7768</name></trkpt>
<trkpt lat="53.502700" lon="-1.699094"><ele>266</ele><time>2022-04-08T14:08:36Z</time><name>PT7769</name></trkpt>
<trkpt lat="53.502692" lon="-1.699080"><ele>266</ele><time>2022-04-08T14:08:37Z</time><name>PT7770</name></trkpt>
<trkpt lat="53.502686" lon="-1.699064"><ele>266</ele><time>2022-04-08T14:08:38Z</time><name>PT7771</name></trkpt>
<trkpt lat="53.502682" lon="-1.699049"><ele>265</ele><time>2022-04-08T14:08:39Z</time><name>PT7772</name></trkpt>
<trkpt lat="53.502680" lon="-1.699040"><ele>263</ele><time>2022-04-08T14:08:40Z</time><name>PT7773</name></trkpt>
<trkpt lat="53.502667" lon="-1.699023"><ele>263</ele><time>2022-04-08T14:08:41Z</time><name>PT7774</name></trkpt>
<trkpt lat="53.502658" lon="-1.699003"><ele>264</ele><time>2022-04-08T14:08:42Z</time><name>PT7775</name></trkpt>
<trkpt lat="53.502654" lon="-1.698989"><ele>264</ele><time>2022-04-08T14:08:43Z</time><name>PT7776</name></trkpt>
<trkpt lat="53.502648" lon="-1.698983"><ele>265</ele><time>2022-04-08T14:08:44Z</time><name>PT7777</name></trkpt>
<trkpt lat="53.502644" lon="-1.698976"><ele>265</ele><time>2022-04-08T14:08:45Z</time><name>PT7778</name></trkpt>
<trkpt lat="53.502633" lon="-1.698935"><ele>266</ele><time>2022-04-08T14:08:46Z</time><name>PT7779</name></trkpt>
<trkpt lat="53.502629" lon="-1.698905"><ele>267</ele><time>2022-04-08T14:08:47Z</time><name>PT7780</name></trkpt>
<trkpt lat="53.502617" lon="-1.698870"><ele>267</ele><time>2022-04-08T14:08:48Z</time><name>PT7781</name></trkpt>
<trkpt lat="53.502608" lon="-1.698834"><ele>268</ele><time>2022-04-08T14:08:49Z</time><name>PT7782</name></trkpt>
<trkpt lat="53.502597" lon="-1.698804"><ele>269</ele><time>2022-04-08T14:08:50Z</time><name>PT7783</name></trkpt>
<trkpt lat="53.502592" lon="-1.698776"><ele>270</ele><time>2022-04-08T14:08:51Z</time><name>PT7784</name></trkpt>
<trkpt lat="53.502586" lon="-1.698749"><ele>270</ele><time>2022-04-08T14:08:52Z</time><name>PT7785</name></trkpt>
<trkpt lat="53.502577" lon="-1.698726"><ele>272</ele><time>2022-04-08T14:08:53Z</time><name>PT7786</name></trkpt>
<trkpt lat="53.502575" lon="-1.698699"><ele>272</ele><time>2022-04-08T14:08:54Z</time><name>PT7787</name></trkpt>
<trkpt lat="53.502574" lon="-1.698673"><ele>273</ele><time>2022-04-08T14:08:55Z</time><name>PT7788</name></trkpt>
<trkpt lat="53.502571" lon="-1.698645"><ele>273</ele><time>2022-04-08T14:08:56Z</time><name>PT7789</name></trkpt>
<trkpt lat="53.502565" lon="-1.698625"><ele>273</ele><time>2022-04-08T14:08:57Z</time><name>PT7790</name></trkpt>
<trkpt lat="53.502559" lon="-1.698609"><ele>274</ele><time>2022-04-08T14:08:58Z</time><name>PT7791</name></trkpt>
<trkpt lat="53.502550" lon="-1.698591"><ele>275</ele><time>2022-04-08T14:08:59Z</time><name>PT7792</name></trkpt>
<trkpt lat="53.502545" lon="-1.698591"><ele>275</ele><time>2022-04-08T14:09:00Z</time><name>PT7793</name></trkpt>
<trkpt lat="53.502544" lon="-1.698581"><ele>275</ele><time>2022-04-08T14:09:01Z</time><name>PT7794</name></trkpt>
<trkpt lat="53.502544" lon="-1.698567"><ele>275</ele><time>2022-04-08T14:09:02Z</time><name>PT7795</name></trkpt>
<trkpt lat="53.502538" lon="-1.698561"><ele>275</ele><time>2022-04-08T14:09:03Z</time><name>PT7796</name></trkpt>
<trkpt lat="53.502524" lon="-1.698518"><ele>275</ele><time>2022-04-08T14:09:04Z</time><name>PT7797</name></trkpt>
<trkpt lat="53.502513" lon="-1.698492"><ele>276</ele><time>2022-04-08T14:09:05Z</time><name>PT7798</name></trkpt>
<trkpt lat="53.502503" lon="-1.698477"><ele>276</ele><time>2022-04-08T14:09:06Z</time><name>PT7799</name></trkpt>
<trkpt lat="53.502495" lon="-1.698460"><ele>277</ele><time>2022-04-08T14:09:07Z</time><name>PT7800</name></trkpt>
<trkpt lat="53.502495" lon="-1.698448"><ele>277</ele><time>2022-04-08T14:09:08Z</time><name>PT7801</name></trkpt>
<trkpt lat="53.502487" lon="-1.698436"><ele>277</ele><time>2022-04-08T14:09:09Z</time><name>PT7802</name></trkpt>
<trkpt lat="53.502475" lon="-1.698414"><ele>278</ele><time>2022-04-08T14:09:10Z</time><name>PT7803</name></trkpt>
<trkpt lat="53.502462" lon="-1.698397"><ele>278</ele><time>2022-04-08T14:09:11Z</time><name>PT7804</name></trkpt>
<trkpt lat="53.502451" lon="-1.698381"><ele>279</ele><time>2022-04-08T14:09:12Z</time><name>PT7805</name></trkpt>
<trkpt lat="53.502448" lon="-1.698362"><ele>279</ele><time>2022-04-08T14:09:13Z</time><name>PT7806</name></trkpt>
<trkpt lat="53.502439" lon="-1.698351"><ele>280</ele><time>2022-04-08T14:09:14Z</time><name>PT7807</name></trkpt>
<trkpt lat="53.502434" lon="-1.698336"><ele>280</ele><time>2022-04-08T14:09:15Z</time><name>PT7808</name></trkpt>
<trkpt lat="53.502430" lon="-1.698327"><ele>280</ele><time>2022-04-08T14:09:16Z</time><name>PT7809</name></trkpt>
<trkpt lat="53.502428" lon="-1.698312"><ele>280</ele><time>2022-04-08T14:09:17Z</time><name>PT7810</name></trkpt>
<trkpt lat="53.502422" lon="-1.698298"><ele>281</ele><time>2022-04-08T14:09:18Z</time><name>PT7811</name></trkpt>
<trkpt lat="53.502409" lon="-1.698277"><ele>281</ele><time>2022-04-08T14:09:19Z</time><name>PT7812</name></trkpt>
<trkpt lat="53.502400" lon="-1.698258"><ele>281</ele><time>2022-04-08T14:09:20Z</time><name>PT7813</name></trkpt>
<trkpt lat="53.502393" lon="-1.698246"><ele>282</ele><time>2022-04-08T14:09:21Z</time><name>PT7814</name></trkpt>
<trkpt lat="53.502385" lon="-1.698232"><ele>282</ele><time>2022-04-08T14:09:22Z</time><name>PT7815</name></trkpt>
<trkpt lat="53.502373" lon="-1.698224"><ele>283</ele><time>2022-04-08T14:09:23Z</time><name>PT7816</name></trkpt>
<trkpt lat="53.502362" lon="-1.698209"><ele>283</ele><time>2022-04-08T14:09:24Z</time><name>PT7817</name></trkpt>
<trkpt lat="53.502356" lon="-1.698190"><ele>284</ele><time>2022-04-08T14:09:25Z</time><name>PT7818</name></trkpt>
<trkpt lat="53.502347" lon="-1.698175"><ele>286</ele><time>2022-04-08T14:09:26Z</time><name>PT7819</name></trkpt>
<trkpt lat="53.502338" lon="-1.698159"><ele>287</ele><time>2022-04-08T14:09:27Z</time><name>PT7820</name></trkpt>
<trkpt lat="53.502324" lon="-1.698149"><ele>287</ele><time>2022-04-08T14:09:28Z</time><name>PT7821</name></trkpt>
<trkpt lat="53.502315" lon="-1.698120"><ele>288</ele><time>2022-04-08T14:09:29Z</time><name>PT7822</name></trkpt>
<trkpt lat="53.502312" lon="-1.698103"><ele>288</ele><time>2022-04-08T14:09:30Z</time><name>PT7823</name></trkpt>
<trkpt lat="53.502303" lon="-1.698086"><ele>289</ele><time>2022-04-08T14:09:31Z</time><name>PT7824</name></trkpt>
<trkpt lat="53.502297" lon="-1.698075"><ele>290</ele><time>2022-04-08T14:09:32Z</time><name>PT7825</name></trkpt>
<trkpt lat="53.502294" lon="-1.698065"><ele>291</ele><time>2022-04-08T14:09:33Z</time><name>PT7826</name></trkpt>
<trkpt lat="53.502288" lon="-1.698056"><ele>291</ele><time>2022-04-08T14:09:34Z</time><name>PT7827</name></trkpt>
<trkpt lat="53.502275" lon="-1.698020"><ele>290</ele><time>2022-04-08T14:09:42Z</time><name>PT7828</name></trkpt>
<trkpt lat="53.502259" lon="-1.697996"><ele>290</ele><time>2022-04-08T14:09:43Z</time><name>PT7829</name></trkpt>
<trkpt lat="53.502241" lon="-1.697964"><ele>290</ele><time>2022-04-08T14:09:44Z</time><name>PT7830</name></trkpt>
<trkpt lat="53.502222" lon="-1.697934"><ele>291</ele><time>2022-04-08T14:09:45Z</time><name>PT7831</name></trkpt>
<trkpt lat="53.502204" lon="-1.697903"><ele>290</ele><time>2022-04-08T14:09:46Z</time><name>PT7832</name></trkpt>
<trkpt lat="53.502187" lon="-1.697874"><ele>290</ele><time>2022-04-08T14:09:47Z</time><name>PT7833</name></trkpt>
<trkpt lat="53.502180" lon="-1.697849"><ele>290</ele><time>2022-04-08T14:09:48Z</time><name>PT7834</name></trkpt>
<trkpt lat="53.502165" lon="-1.697827"><ele>290</ele><time>2022-04-08T14:09:49Z</time><name>PT7835</name></trkpt>
<trkpt lat="53.502157" lon="-1.697806"><ele>290</ele><time>2022-04-08T14:09:50Z</time><name>PT7836</name></trkpt>
<trkpt lat="53.502150" lon="-1.697789"><ele>290</ele><time>2022-04-08T14:09:51Z</time><name>PT7837</name></trkpt>
<trkpt lat="53.502145" lon="-1.697775"><ele>289</ele><time>2022-04-08T14:09:52Z</time><name>PT7838</name></trkpt>
<trkpt lat="53.502132" lon="-1.697746"><ele>289</ele><time>2022-04-08T14:09:53Z</time><name>PT7839</name></trkpt>
<trkpt lat="53.502115" lon="-1.697721"><ele>289</ele><time>2022-04-08T14:09:54Z</time><name>PT7840</name></trkpt>
<trkpt lat="53.502105" lon="-1.697711"><ele>289</ele><time>2022-04-08T14:09:55Z</time><name>PT7841</name></trkpt>
<trkpt lat="53.502090" lon="-1.697695"><ele>289</ele><time>2022-04-08T14:09:56Z</time><name>PT7842</name></trkpt>
<trkpt lat="53.502084" lon="-1.697680"><ele>289</ele><time>2022-04-08T14:09:57Z</time><name>PT7843</name></trkpt>
<trkpt lat="53.502072" lon="-1.697659"><ele>289</ele><time>2022-04-08T14:09:58Z</time><name>PT7844</name></trkpt>
<trkpt lat="53.502064" lon="-1.697641"><ele>289</ele><time>2022-04-08T14:09:59Z</time><name>PT7845</name></trkpt>
<trkpt lat="53.502054" lon="-1.697625"><ele>289</ele><time>2022-04-08T14:10:00Z</time><name>PT7846</name></trkpt>
<trkpt lat="53.502042" lon="-1.697602"><ele>290</ele><time>2022-04-08T14:10:01Z</time><name>PT7847</name></trkpt>
<trkpt lat="53.502032" lon="-1.697583"><ele>290</ele><time>2022-04-08T14:10:02Z</time><name>PT7848</name></trkpt>
<trkpt lat="53.502022" lon="-1.697569"><ele>290</ele><time>2022-04-08T14:10:03Z</time><name>PT7849</name></trkpt>
<trkpt lat="53.502014" lon="-1.697553"><ele>290</ele><time>2022-04-08T14:10:04Z</time><name>PT7850</name></trkpt>
<trkpt lat="53.502011" lon="-1.697541"><ele>291</ele><time>2022-04-08T14:10:05Z</time><name>PT7851</name></trkpt>
<trkpt lat="53.502000" lon="-1.697521"><ele>291</ele><time>2022-04-08T14:10:06Z</time><name>PT7852</name></trkpt>
<trkpt lat="53.501992" lon="-1.697494"><ele>291</ele><time>2022-04-08T14:10:07Z</time><name>PT7853</name></trkpt>
<trkpt lat="53.501980" lon="-1.697468"><ele>291</ele><time>2022-04-08T14:10:08Z</time><name>PT7854</name></trkpt>
<trkpt lat="53.501974" lon="-1.697452"><ele>292</ele><time>2022-04-08T14:10:09Z</time><name>PT7855</name></trkpt>
<trkpt lat="53.501970" lon="-1.697447"><ele>291</ele><time>2022-04-08T14:10:10Z</time><name>PT7856</name></trkpt>
<trkpt lat="53.501964" lon="-1.697425"><ele>292</ele><time>2022-04-08T14:10:11Z</time><name>PT7857</name></trkpt>
<trkpt lat="53.501951" lon="-1.697411"><ele>292</ele><time>2022-04-08T14:10:12Z</time><name>PT7858</name></trkpt>
<trkpt lat="53.501944" lon="-1.697396"><ele>291</ele><time>2022-04-08T14:10:13Z</time><name>PT7859</name></trkpt>
<trkpt lat="53.501935" lon="-1.697383"><ele>291</ele><time>2022-04-08T14:10:14Z</time><name>PT7860</name></trkpt>
<trkpt lat="53.501928" lon="-1.697366"><ele>291</ele><time>2022-04-08T14:10:15Z</time><name>PT7861</name></trkpt>
<trkpt lat="53.501917" lon="-1.697354"><ele>291</ele><time>2022-04-08T14:10:16Z</time><name>PT7862</name></trkpt>
<trkpt lat="53.501905" lon="-1.697338"><ele>291</ele><time>2022-04-08T14:10:17Z</time><name>PT7863</name></trkpt>
<trkpt lat="53.501896" lon="-1.697323"><ele>291</ele><time>2022-04-08T14:10:18Z</time><name>PT7864</name></trkpt>
<trkpt lat="53.501884" lon="-1.697308"><ele>290</ele><time>2022-04-08T14:10:19Z</time><name>PT7865</name></trkpt>
<trkpt lat="53.501871" lon="-1.697301"><ele>290</ele><time>2022-04-08T14:10:20Z</time><name>PT7866</name></trkpt>
<trkpt lat="53.501863" lon="-1.697298"><ele>289</ele><time>2022-04-08T14:10:21Z</time><name>PT7867</name></trkpt>
<trkpt lat="53.501859" lon="-1.697290"><ele>289</ele><time>2022-04-08T14:10:22Z</time><name>PT7868</name></trkpt>
<trkpt lat="53.501845" lon="-1.697268"><ele>288</ele><time>2022-04-08T14:10:23Z</time><name>PT7869</name></trkpt>
<trkpt lat="53.501840" lon="-1.697248"><ele>288</ele><time>2022-04-08T14:10:24Z</time><name>PT7870</name></trkpt>
<trkpt lat="53.501832" lon="-1.697237"><ele>288</ele><time>2022-04-08T14:10:25Z</time><name>PT7871</name></trkpt>
<trkpt lat="53.501826" lon="-1.697221"><ele>287</ele><time>2022-04-08T14:10:26Z</time><name>PT7872</name></trkpt>
<trkpt lat="53.501819" lon="-1.697206"><ele>287</ele><time>2022-04-08T14:10:27Z</time><name>PT7873</name></trkpt>
<trkpt lat="53.501811" lon="-1.697194"><ele>286</ele><time>2022-04-08T14:10:28Z</time><name>PT7874</name></trkpt>
<trkpt lat="53.501806" lon="-1.697179"><ele>287</ele><time>2022-04-08T14:10:29Z</time><name>PT7875</name></trkpt>
<trkpt lat="53.501801" lon="-1.697160"><ele>286</ele><time>2022-04-08T14:10:30Z</time><name>PT7876</name></trkpt>
<trkpt lat="53.501799" lon="-1.697130"><ele>286</ele><time>2022-04-08T14:10:31Z</time><name>PT7877</name></trkpt>
<trkpt lat="53.501795" lon="-1.697110"><ele>286</ele><time>2022-04-08T14:10:32Z</time><name>PT7878</name></trkpt>
<trkpt lat="53.501792" lon="-1.697095"><ele>286</ele><time>2022-04-08T14:10:33Z</time><name>PT7879</name></trkpt>
<trkpt lat="53.501788" lon="-1.697090"><ele>285</ele><time>2022-04-08T14:10:34Z</time><name>PT7880</name></trkpt>
<trkpt lat="53.501782" lon="-1.697081"><ele>285</ele><time>2022-04-08T14:10:35Z</time><name>PT7881</name></trkpt>
<trkpt lat="53.501773" lon="-1.697071"><ele>285</ele><time>2022-04-08T14:10:36Z</time><name>PT7882</name></trkpt>
<trkpt lat="53.501766" lon="-1.697047"><ele>285</ele><time>2022-04-08T14:10:38Z</time><name>PT7883</name></trkpt>
<trkpt lat="53.501752" lon="-1.697008"><ele>284</ele><time>2022-04-08T14:10:39Z</time><name>PT7884</name></trkpt>
<trkpt lat="53.501738" lon="-1.696979"><ele>284</ele><time>2022-04-08T14:10:40Z</time><name>PT7885</name></trkpt>
<trkpt lat="53.501729" lon="-1.696966"><ele>283</ele><time>2022-04-08T14:10:41Z</time><name>PT7886</name></trkpt>
<trkpt lat="53.501713" lon="-1.696936"><ele>282</ele><time>2022-04-08T14:10:42Z</time><name>PT7887</name></trkpt>
<trkpt lat="53.501700" lon="-1.696911"><ele>282</ele><time>2022-04-08T14:10:43Z</time><name>PT7888</name></trkpt>
<trkpt lat="53.501690" lon="-1.696885"><ele>282</ele><time>2022-04-08T14:10:44Z</time><name>PT7889</name></trkpt>
<trkpt lat="53.501677" lon="-1.696862"><ele>281</ele><time>2022-04-08T14:10:45Z</time><name>PT7890</name></trkpt>
<trkpt lat="53.501674" lon="-1.696848"><ele>281</ele><time>2022-04-08T14:10:46Z</time><name>PT7891</name></trkpt>
<trkpt lat="53.501662" lon="-1.696815"><ele>281</ele><time>2022-04-08T14:10:47Z</time><name>PT7892</name></trkpt>
<trkpt lat="53.501655" lon="-1.696794"><ele>281</ele><time>2022-04-08T14:10:48Z</time><name>PT7893</name></trkpt>
<trkpt lat="53.501646" lon="-1.696773"><ele>281</ele><time>2022-04-08T14:10:50Z</time><name>PT7894</name></trkpt>
<trkpt lat="53.501635" lon="-1.696740"><ele>281</ele><time>2022-04-08T14:10:50Z</time><name>PT7895</name></trkpt>
<trkpt lat="53.501628" lon="-1.696717"><ele>281</ele><time>2022-04-08T14:10:51Z</time><name>PT7896</name></trkpt>
<trkpt lat="53.501621" lon="-1.696688"><ele>281</ele><time>2022-04-08T14:10:52Z</time><name>PT7897</name></trkpt>
<trkpt lat="53.501606" lon="-1.696662"><ele>281</ele><time>2022-04-08T14:10:53Z</time><name>PT7898</name></trkpt>
<trkpt lat="53.501595" lon="-1.696633"><ele>281</ele><time>2022-04-08T14:10:54Z</time><name>PT7899</name></trkpt>
<trkpt lat="53.501588" lon="-1.696610"><ele>281</ele><time>2022-04-08T14:10:55Z</time><name>PT7900</name></trkpt>
<trkpt lat="53.501579" lon="-1.696584"><ele>281</ele><time>2022-04-08T14:10:56Z</time><name>PT7901</name></trkpt>
<trkpt lat="53.501571" lon="-1.696556"><ele>281</ele><time>2022-04-08T14:10:57Z</time><name>PT7902</name></trkpt>
<trkpt lat="53.501564" lon="-1.696529"><ele>281</ele><time>2022-04-08T14:10:58Z</time><name>PT7903</name></trkpt>
<trkpt lat="53.501554" lon="-1.696506"><ele>281</ele><time>2022-04-08T14:10:59Z</time><name>PT7904</name></trkpt>
<trkpt lat="53.501547" lon="-1.696482"><ele>281</ele><time>2022-04-08T14:11:00Z</time><name>PT7905</name></trkpt>
<trkpt lat="53.501539" lon="-1.696463"><ele>281</ele><time>2022-04-08T14:11:01Z</time><name>PT7906</name></trkpt>
<trkpt lat="53.501532" lon="-1.696442"><ele>281</ele><time>2022-04-08T14:11:02Z</time><name>PT7907</name></trkpt>
<trkpt lat="53.501526" lon="-1.696423"><ele>281</ele><time>2022-04-08T14:11:03Z</time><name>PT7908</name></trkpt>
<trkpt lat="53.501521" lon="-1.696405"><ele>281</ele><time>2022-04-08T14:11:04Z</time><name>PT7909</name></trkpt>
<trkpt lat="53.501519" lon="-1.696385"><ele>281</ele><time>2022-04-08T14:11:05Z</time><name>PT7910</name></trkpt>
<trkpt lat="53.501518" lon="-1.696371"><ele>281</ele><time>2022-04-08T14:11:06Z</time><name>PT7911</name></trkpt>
<trkpt lat="53.501514" lon="-1.696354"><ele>281</ele><time>2022-04-08T14:11:07Z</time><name>PT7912</name></trkpt>
<trkpt lat="53.501511" lon="-1.696334"><ele>281</ele><time>2022-04-08T14:11:08Z</time><name>PT7913</name></trkpt>
<trkpt lat="53.501507" lon="-1.696324"><ele>280</ele><time>2022-04-08T14:11:09Z</time><name>PT7914</name></trkpt>
<trkpt lat="53.501505" lon="-1.696308"><ele>279</ele><time>2022-04-08T14:11:10Z</time><name>PT7915</name></trkpt>
<trkpt lat="53.501499" lon="-1.696286"><ele>278</ele><time>2022-04-08T14:11:11Z</time><name>PT7916</name></trkpt>
<trkpt lat="53.501499" lon="-1.696269"><ele>278</ele><time>2022-04-08T14:11:12Z</time><name>PT7917</name></trkpt>
<trkpt lat="53.501490" lon="-1.696247"><ele>277</ele><time>2022-04-08T14:11:13Z</time><name>PT7918</name></trkpt>
<trkpt lat="53.501485" lon="-1.696234"><ele>276</ele><time>2022-04-08T14:11:14Z</time><name>PT7919</name></trkpt>
<trkpt lat="53.501477" lon="-1.696214"><ele>276</ele><time>2022-04-08T14:11:15Z</time><name>PT7920</name></trkpt>
<trkpt lat="53.501472" lon="-1.696197"><ele>276</ele><time>2022-04-08T14:11:16Z</time><name>PT7921</name></trkpt>
<trkpt lat="53.501463" lon="-1.696185"><ele>276</ele><time>2022-04-08T14:11:17Z</time><name>PT7922</name></trkpt>
<trkpt lat="53.501457" lon="-1.696176"><ele>276</ele><time>2022-04-08T14:11:18Z</time><name>PT7923</name></trkpt>
<trkpt lat="53.501456" lon="-1.696166"><ele>275</ele><time>2022-04-08T14:11:19Z</time><name>PT7924</name></trkpt>
<trkpt lat="53.501449" lon="-1.696149"><ele>275</ele><time>2022-04-08T14:11:20Z</time><name>PT7925</name></trkpt>
<trkpt lat="53.501445" lon="-1.696139"><ele>275</ele><time>2022-04-08T14:11:21Z</time><name>PT7926</name></trkpt>
<trkpt lat="53.501441" lon="-1.696130"><ele>274</ele><time>2022-04-08T14:11:22Z</time><name>PT7927</name></trkpt>
<trkpt lat="53.501437" lon="-1.696121"><ele>275</ele><time>2022-04-08T14:11:23Z</time><name>PT7928</name></trkpt>
<trkpt lat="53.501431" lon="-1.696113"><ele>274</ele><time>2022-04-08T14:11:25Z</time><name>PT7929</name></trkpt>
<trkpt lat="53.501417" lon="-1.696108"><ele>273</ele><time>2022-04-08T14:11:26Z</time><name>PT7930</name></trkpt>
<trkpt lat="53.501409" lon="-1.696103"><ele>273</ele><time>2022-04-08T14:11:27Z</time><name>PT7931</name></trkpt>
<trkpt lat="53.501403" lon="-1.696097"><ele>273</ele><time>2022-04-08T14:11:28Z</time><name>PT7932</name></trkpt>
<trkpt lat="53.501396" lon="-1.696090"><ele>272</ele><time>2022-04-08T14:11:29Z</time><name>PT7933</name></trkpt>
<trkpt lat="53.501389" lon="-1.696071"><ele>272</ele><time>2022-04-08T14:11:37Z</time><name>PT7934</name></trkpt>
<trkpt lat="53.501377" lon="-1.696051"><ele>272</ele><time>2022-04-08T14:11:38Z</time><name>PT7935</name></trkpt>
<trkpt lat="53.501358" lon="-1.696015"><ele>272</ele><time>2022-04-08T14:11:39Z</time><name>PT7936</name></trkpt>
<trkpt lat="53.501348" lon="-1.695995"><ele>272</ele><time>2022-04-08T14:11:40Z</time><name>PT7937</name></trkpt>
<trkpt lat="53.501341" lon="-1.695978"><ele>272</ele><time>2022-04-08T14:11:42Z</time><name>PT7938</name></trkpt>
<trkpt lat="53.501330" lon="-1.695961"><ele>272</ele><time>2022-04-08T14:11:42Z</time><name>PT7939</name></trkpt>
<trkpt lat="53.501325" lon="-1.695954"><ele>272</ele><time>2022-04-08T14:11:44Z</time><name>PT7940</name></trkpt>
<trkpt lat="53.501316" lon="-1.695940"><ele>272</ele><time>2022-04-08T14:11:44Z</time><name>PT7941</name></trkpt>
<trkpt lat="53.501310" lon="-1.695925"><ele>272</ele><time>2022-04-08T14:11:45Z</time><name>PT7942</name></trkpt>
<trkpt lat="53.501306" lon="-1.695918"><ele>272</ele><time>2022-04-08T14:11:46Z</time><name>PT7943</name></trkpt>
<trkpt lat="53.501293" lon="-1.695901"><ele>272</ele><time>2022-04-08T14:11:47Z</time><name>PT7944</name></trkpt>
<trkpt lat="53.501286" lon="-1.695892"><ele>272</ele><time>2022-04-08T14:11:48Z</time><name>PT7945</name></trkpt>
<trkpt lat="53.501278" lon="-1.695880"><ele>272</ele><time>2022-04-08T14:11:49Z</time><name>PT7946</name></trkpt>
<trkpt lat="53.501268" lon="-1.695866"><ele>272</ele><time>2022-04-08T14:11:50Z</time><name>PT7947</name></trkpt>
<trkpt lat="53.501259" lon="-1.695852"><ele>272</ele><time>2022-04-08T14:11:51Z</time><name>PT7948</name></trkpt>
<trkpt lat="53.501248" lon="-1.695840"><ele>271</ele><time>2022-04-08T14:11:52Z</time><name>PT7949</name></trkpt>
<trkpt lat="53.501239" lon="-1.695825"><ele>271</ele><time>2022-04-08T14:11:53Z</time><name>PT7950</name></trkpt>
<trkpt lat="53.501228" lon="-1.695814"><ele>271</ele><time>2022-04-08T14:11:54Z</time><name>PT7951</name></trkpt>
<trkpt lat="53.501216" lon="-1.695813"><ele>271</ele><time>2022-04-08T14:11:55Z</time><name>PT7952</name></trkpt>
<trkpt lat="53.501204" lon="-1.695810"><ele>271</ele><time>2022-04-08T14:11:56Z</time><name>PT7953</name></trkpt>
<trkpt lat="53.501193" lon="-1.695806"><ele>270</ele><time>2022-04-08T14:11:57Z</time><name>PT7954</name></trkpt>
<trkpt lat="53.501184" lon="-1.695807"><ele>270</ele><time>2022-04-08T14:11:58Z</time><name>PT7955</name></trkpt>
<trkpt lat="53.501171" lon="-1.695797"><ele>269</ele><time>2022-04-08T14:11:59Z</time><name>PT7956</name></trkpt>
<trkpt lat="53.501154" lon="-1.695793"><ele>268</ele><time>2022-04-08T14:12:00Z</time><name>PT7957</name></trkpt>
<trkpt lat="53.501144" lon="-1.695781"><ele>268</ele><time>2022-04-08T14:12:01Z</time><name>PT7958</name></trkpt>
<trkpt lat="53.501141" lon="-1.695771"><ele>267</ele><time>2022-04-08T14:12:02Z</time><name>PT7959</name></trkpt>
<trkpt lat="53.501124" lon="-1.695767"><ele>267</ele><time>2022-04-08T14:12:03Z</time><name>PT7960</name></trkpt>
<trkpt lat="53.501115" lon="-1.695754"><ele>267</ele><time>2022-04-08T14:12:04Z</time><name>PT7961</name></trkpt>
<trkpt lat="53.501111" lon="-1.695739"><ele>267</ele><time>2022-04-08T14:12:05Z</time><name>PT7962</name></trkpt>
<trkpt lat="53.501100" lon="-1.695729"><ele>267</ele><time>2022-04-08T14:12:06Z</time><name>PT7963</name></trkpt>
<trkpt lat="53.501092" lon="-1.695723"><ele>267</ele><time>2022-04-08T14:12:07Z</time><name>PT7964</name></trkpt>
<trkpt lat="53.501082" lon="-1.695707"><ele>267</ele><time>2022-04-08T14:12:08Z</time><name>PT7965</name></trkpt>
<trkpt lat="53.501074" lon="-1.695692"><ele>267</ele><time>2022-04-08T14:12:09Z</time><name>PT7966</name></trkpt>
<trkpt lat="53.501056" lon="-1.695687"><ele>267</ele><time>2022-04-08T14:12:10Z</time><name>PT7967</name></trkpt>
<trkpt lat="53.501047" lon="-1.695685"><ele>266</ele><time>2022-04-08T14:12:11Z</time><name>PT7968</name></trkpt>
<trkpt lat="53.501037" lon="-1.695679"><ele>266</ele><time>2022-04-08T14:12:12Z</time><name>PT7969</name></trkpt>
<trkpt lat="53.501027" lon="-1.695666"><ele>267</ele><time>2022-04-08T14:12:13Z</time><name>PT7970</name></trkpt>
<trkpt lat="53.501021" lon="-1.695661"><ele>267</ele><time>2022-04-08T14:12:14Z</time><name>PT7971</name></trkpt>
<trkpt lat="53.501008" lon="-1.695645"><ele>268</ele><time>2022-04-08T14:12:15Z</time><name>PT7972</name></trkpt>
<trkpt lat="53.500999" lon="-1.695636"><ele>268</ele><time>2022-04-08T14:12:16Z</time><name>PT7973</name></trkpt>
<trkpt lat="53.500990" lon="-1.695626"><ele>267</ele><time>2022-04-08T14:12:17Z</time><name>PT7974</name></trkpt>
<trkpt lat="53.500977" lon="-1.695614"><ele>267</ele><time>2022-04-08T14:12:18Z</time><name>PT7975</name></trkpt>
<trkpt lat="53.500966" lon="-1.695604"><ele>267</ele><time>2022-04-08T14:12:19Z</time><name>PT7976</name></trkpt>
<trkpt lat="53.500956" lon="-1.695592"><ele>267</ele><time>2022-04-08T14:12:20Z</time><name>PT7977</name></trkpt>
<trkpt lat="53.500951" lon="-1.695587"><ele>268</ele><time>2022-04-08T14:12:21Z</time><name>PT7978</name></trkpt>
<trkpt lat="53.500939" lon="-1.695570"><ele>268</ele><time>2022-04-08T14:12:22Z</time><name>PT7979</name></trkpt>
<trkpt lat="53.500929" lon="-1.695549"><ele>268</ele><time>2022-04-08T14:12:23Z</time><name>PT7980</name></trkpt>
<trkpt lat="53.500920" lon="-1.695539"><ele>268</ele><time>2022-04-08T14:12:24Z</time><name>PT7981</name></trkpt>
<trkpt lat="53.500908" lon="-1.695526"><ele>268</ele><time>2022-04-08T14:12:25Z</time><name>PT7982</name></trkpt>
<trkpt lat="53.500899" lon="-1.695521"><ele>268</ele><time>2022-04-08T14:12:26Z</time><name>PT7983</name></trkpt>
<trkpt lat="53.500887" lon="-1.695498"><ele>268</ele><time>2022-04-08T14:12:27Z</time><name>PT7984</name></trkpt>
<trkpt lat="53.500880" lon="-1.695485"><ele>268</ele><time>2022-04-08T14:12:28Z</time><name>PT7985</name></trkpt>
<trkpt lat="53.500872" lon="-1.695474"><ele>267</ele><time>2022-04-08T14:12:29Z</time><name>PT7986</name></trkpt>
<trkpt lat="53.500859" lon="-1.695450"><ele>268</ele><time>2022-04-08T14:12:30Z</time><name>PT7987</name></trkpt>
<trkpt lat="53.500850" lon="-1.695437"><ele>268</ele><time>2022-04-08T14:12:31Z</time><name>PT7988</name></trkpt>
<trkpt lat="53.500844" lon="-1.695424"><ele>268</ele><time>2022-04-08T14:12:32Z</time><name>PT7989</name></trkpt>
<trkpt lat="53.500835" lon="-1.695408"><ele>268</ele><time>2022-04-08T14:12:33Z</time><name>PT7990</name></trkpt>
<trkpt lat="53.500825" lon="-1.695386"><ele>268</ele><time>2022-04-08T14:12:34Z</time><name>PT7991</name></trkpt>
<trkpt lat="53.500819" lon="-1.695366"><ele>268</ele><time>2022-04-08T14:12:35Z</time><name>PT7992</name></trkpt>
<trkpt lat="53.500810" lon="-1.695345"><ele>268</ele><time>2022-04-08T14:12:36Z</time><name>PT7993</name></trkpt>
<trkpt lat="53.500801" lon="-1.695322"><ele>269</ele><time>2022-04-08T14:12:37Z</time><name>PT7994</name></trkpt>
<trkpt lat="53.500789" lon="-1.695304"><ele>269</ele><time>2022-04-08T14:12:38Z</time><name>PT7995</name></trkpt>
<trkpt lat="53.500781" lon="-1.695291"><ele>269</ele><time>2022-04-08T14:12:39Z</time><name>PT7996</name></trkpt>
<trkpt lat="53.500768" lon="-1.695269"><ele>270</ele><time>2022-04-08T14:12:40Z</time><name>PT7997</name></trkpt>
<trkpt lat="53.500760" lon="-1.695255"><ele>270</ele><time>2022-04-08T14:12:41Z</time><name>PT7998</name></trkpt>
<trkpt lat="53.500752" lon="-1.695237"><ele>270</ele><time>2022-04-08T14:12:42Z</time><name>PT7999</name></trkpt>
<trkpt lat="53.500746" lon="-1.695225"><ele>270</ele><time>2022-04-08T14:12:43Z</time><name>PT8000</name></trkpt>
<trkpt lat="53.500738" lon="-1.695205"><ele>270</ele><time>2022-04-08T14:12:44Z</time><name>PT8001</name></trkpt>
<trkpt lat="53.500731" lon="-1.695188"><ele>270</ele><time>2022-04-08T14:12:45Z</time><name>PT8002</name></trkpt>
<trkpt lat="53.500720" lon="-1.695166"><ele>271</ele><time>2022-04-08T14:12:46Z</time><name>PT8003</name></trkpt>
<trkpt lat="53.500711" lon="-1.695147"><ele>271</ele><time>2022-04-08T14:12:47Z</time><name>PT8004</name></trkpt>
<trkpt lat="53.500700" lon="-1.695135"><ele>271</ele><time>2022-04-08T14:12:48Z</time><name>PT8005</name></trkpt>
<trkpt lat="53.500691" lon="-1.695122"><ele>271</ele><time>2022-04-08T14:12:49Z</time><name>PT8006</name></trkpt>
<trkpt lat="53.500681" lon="-1.695104"><ele>271</ele><time>2022-04-08T14:12:50Z</time><name>PT8007</name></trkpt>
<trkpt lat="53.500673" lon="-1.695083"><ele>271</ele><time>2022-04-08T14:12:51Z</time><name>PT8008</name></trkpt>
<trkpt lat="53.500667" lon="-1.695067"><ele>271</ele><time>2022-04-08T14:12:52Z</time><name>PT8009</name></trkpt>
<trkpt lat="53.500659" lon="-1.695045"><ele>271</ele><time>2022-04-08T14:12:53Z</time><name>PT8010</name></trkpt>
<trkpt lat="53.500654" lon="-1.695029"><ele>272</ele><time>2022-04-08T14:12:54Z</time><name>PT8011</name></trkpt>
<trkpt lat="53.500647" lon="-1.695004"><ele>273</ele><time>2022-04-08T14:12:55Z</time><name>PT8012</name></trkpt>
<trkpt lat="53.500648" lon="-1.694993"><ele>273</ele><time>2022-04-08T14:12:56Z</time><name>PT8013</name></trkpt>
<trkpt lat="53.500643" lon="-1.694981"><ele>273</ele><time>2022-04-08T14:12:57Z</time><name>PT8014</name></trkpt>
<trkpt lat="53.500635" lon="-1.694967"><ele>273</ele><time>2022-04-08T14:12:58Z</time><name>PT8015</name></trkpt>
<trkpt lat="53.500623" lon="-1.694940"><ele>274</ele><time>2022-04-08T14:12:59Z</time><name>PT8016</name></trkpt>
<trkpt lat="53.500616" lon="-1.694929"><ele>274</ele><time>2022-04-08T14:13:00Z</time><name>PT8017</name></trkpt>
<trkpt lat="53.500609" lon="-1.694921"><ele>275</ele><time>2022-04-08T14:13:01Z</time><name>PT8018</name></trkpt>
<trkpt lat="53.500592" lon="-1.694898"><ele>275</ele><time>2022-04-08T14:13:02Z</time><name>PT8019</name></trkpt>
<trkpt lat="53.500582" lon="-1.694889"><ele>275</ele><time>2022-04-08T14:13:03Z</time><name>PT8020</name></trkpt>
<trkpt lat="53.500572" lon="-1.694878"><ele>275</ele><time>2022-04-08T14:13:04Z</time><name>PT8021</name></trkpt>
<trkpt lat="53.500570" lon="-1.694866"><ele>276</ele><time>2022-04-08T14:13:05Z</time><name>PT8022</name></trkpt>
<trkpt lat="53.500566" lon="-1.694854"><ele>275</ele><time>2022-04-08T14:13:06Z</time><name>PT8023</name></trkpt>
<trkpt lat="53.500559" lon="-1.694838"><ele>275</ele><time>2022-04-08T14:13:07Z</time><name>PT8024</name></trkpt>
<trkpt lat="53.500552" lon="-1.694826"><ele>276</ele><time>2022-04-08T14:13:08Z</time><name>PT8025</name></trkpt>
<trkpt lat="53.500546" lon="-1.694819"><ele>276</ele><time>2022-04-08T14:13:09Z</time><name>PT8026</name></trkpt>
<trkpt lat="53.500539" lon="-1.694797"><ele>277</ele><time>2022-04-08T14:13:10Z</time><name>PT8027</name></trkpt>
<trkpt lat="53.500532" lon="-1.694786"><ele>277</ele><time>2022-04-08T14:13:11Z</time><name>PT8028</name></trkpt>
<trkpt lat="53.500526" lon="-1.694772"><ele>277</ele><time>2022-04-08T14:13:12Z</time><name>PT8029</name></trkpt>
<trkpt lat="53.500523" lon="-1.694755"><ele>277</ele><time>2022-04-08T14:13:13Z</time><name>PT8030</name></trkpt>
<trkpt lat="53.500508" lon="-1.694708"><ele>279</ele><time>2022-04-08T14:13:14Z</time><name>PT8031</name></trkpt>
<trkpt lat="53.500494" lon="-1.694673"><ele>280</ele><time>2022-04-08T14:13:15Z</time><name>PT8032</name></trkpt>
<trkpt lat="53.500487" lon="-1.694657"><ele>280</ele><time>2022-04-08T14:13:16Z</time><name>PT8033</name></trkpt>
<trkpt lat="53.500478" lon="-1.694634"><ele>281</ele><time>2022-04-08T14:13:17Z</time><name>PT8034</name></trkpt>
<trkpt lat="53.500469" lon="-1.694611"><ele>281</ele><time>2022-04-08T14:13:18Z</time><name>PT8035</name></trkpt>
<trkpt lat="53.500462" lon="-1.694593"><ele>281</ele><time>2022-04-08T14:13:19Z</time><name>PT8036</name></trkpt>
<trkpt lat="53.500459" lon="-1.694583"><ele>281</ele><time>2022-04-08T14:13:20Z</time><name>PT8037</name></trkpt>
<trkpt lat="53.500452" lon="-1.694580"><ele>281</ele><time>2022-04-08T14:13:21Z</time><name>PT8038</name></trkpt>
<trkpt lat="53.500445" lon="-1.694558"><ele>281</ele><time>2022-04-08T14:13:22Z</time><name>PT8039</name></trkpt>
<trkpt lat="53.500435" lon="-1.694542"><ele>282</ele><time>2022-04-08T14:13:23Z</time><name>PT8040</name></trkpt>
<trkpt lat="53.500431" lon="-1.694522"><ele>282</ele><time>2022-04-08T14:13:24Z</time><name>PT8041</name></trkpt>
<trkpt lat="53.500427" lon="-1.694504"><ele>283</ele><time>2022-04-08T14:13:25Z</time><name>PT8042</name></trkpt>
<trkpt lat="53.500417" lon="-1.694474"><ele>283</ele><time>2022-04-08T14:13:26Z</time><name>PT8043</name></trkpt>
<trkpt lat="53.500415" lon="-1.694473"><ele>283</ele><time>2022-04-08T14:13:27Z</time><name>PT8044</name></trkpt>
<trkpt lat="53.500406" lon="-1.694453"><ele>283</ele><time>2022-04-08T14:13:28Z</time><name>PT8045</name></trkpt>
<trkpt lat="53.500398" lon="-1.694437"><ele>283</ele><time>2022-04-08T14:13:29Z</time><name>PT8046</name></trkpt>
<trkpt lat="53.500388" lon="-1.694406"><ele>284</ele><time>2022-04-08T14:13:30Z</time><name>PT8047</name></trkpt>
<trkpt lat="53.500382" lon="-1.694376"><ele>285</ele><time>2022-04-08T14:13:31Z</time><name>PT8048</name></trkpt>
<trkpt lat="53.500376" lon="-1.694347"><ele>286</ele><time>2022-04-08T14:13:32Z</time><name>PT8049</name></trkpt>
<trkpt lat="53.500372" lon="-1.694319"><ele>287</ele><time>2022-04-08T14:13:33Z</time><name>PT8050</name></trkpt>
<trkpt lat="53.500367" lon="-1.694306"><ele>288</ele><time>2022-04-08T14:13:34Z</time><name>PT8051</name></trkpt>
<trkpt lat="53.500363" lon="-1.694267"><ele>289</ele><time>2022-04-08T14:13:36Z</time><name>PT8052</name></trkpt>
<trkpt lat="53.500356" lon="-1.694244"><ele>289</ele><time>2022-04-08T14:13:36Z</time><name>PT8053</name></trkpt>
<trkpt lat="53.500351" lon="-1.694224"><ele>289</ele><time>2022-04-08T14:13:37Z</time><name>PT8054</name></trkpt>
<trkpt lat="53.500349" lon="-1.694204"><ele>289</ele><time>2022-04-08T14:13:38Z</time><name>PT8055</name></trkpt>
<trkpt lat="53.500347" lon="-1.694182"><ele>289</ele><time>2022-04-08T14:13:39Z</time><name>PT8056</name></trkpt>
<trkpt lat="53.500344" lon="-1.694166"><ele>289</ele><time>2022-04-08T14:13:40Z</time><name>PT8057</name></trkpt>
<trkpt lat="53.500336" lon="-1.694143"><ele>289</ele><time>2022-04-08T14:13:41Z</time><name>PT8058</name></trkpt>
<trkpt lat="53.500326" lon="-1.694126"><ele>289</ele><time>2022-04-08T14:13:42Z</time><name>PT8059</name></trkpt>
<trkpt lat="53.500316" lon="-1.694110"><ele>289</ele><time>2022-04-08T14:13:43Z</time><name>PT8060</name></trkpt>
<trkpt lat="53.500312" lon="-1.694095"><ele>290</ele><time>2022-04-08T14:13:44Z</time><name>PT8061</name></trkpt>
<trkpt lat="53.500309" lon="-1.694081"><ele>290</ele><time>2022-04-08T14:13:45Z</time><name>PT8062</name></trkpt>
<trkpt lat="53.500305" lon="-1.694063"><ele>290</ele><time>2022-04-08T14:13:46Z</time><name>PT8063</name></trkpt>
<trkpt lat="53.500295" lon="-1.694054"><ele>290</ele><time>2022-04-08T14:13:47Z</time><name>PT8064</name></trkpt>
<trkpt lat="53.500288" lon="-1.694038"><ele>289</ele><time>2022-04-08T14:13:48Z</time><name>PT8065</name></trkpt>
<trkpt lat="53.500279" lon="-1.694023"><ele>289</ele><time>2022-04-08T14:13:49Z</time><name>PT8066</name></trkpt>
<trkpt lat="53.500273" lon="-1.694011"><ele>289</ele><time>2022-04-08T14:13:50Z</time><name>PT8067</name></trkpt>
<trkpt lat="53.500271" lon="-1.693992"><ele>288</ele><time>2022-04-08T14:13:51Z</time><name>PT8068</name></trkpt>
<trkpt lat="53.500265" lon="-1.693971"><ele>288</ele><time>2022-04-08T14:13:52Z</time><name>PT8069</name></trkpt>
<trkpt lat="53.500260" lon="-1.693955"><ele>288</ele><time>2022-04-08T14:13:53Z</time><name>PT8070</name></trkpt>
<trkpt lat="53.500253" lon="-1.693934"><ele>287</ele><time>2022-04-08T14:13:54Z</time><name>PT8071</name></trkpt>
<trkpt lat="53.500247" lon="-1.693916"><ele>287</ele><time>2022-04-08T14:13:55Z</time><name>PT8072</name></trkpt>
<trkpt lat="53.500242" lon="-1.693894"><ele>287</ele><time>2022-04-08T14:13:56Z</time><name>PT8073</name></trkpt>
<trkpt lat="53.500241" lon="-1.693869"><ele>286</ele><time>2022-04-08T14:13:57Z</time><name>PT8074</name></trkpt>
<trkpt lat="53.500236" lon="-1.693847"><ele>286</ele><time>2022-04-08T14:13:58Z</time><name>PT8075</name></trkpt>
<trkpt lat="53.500234" lon="-1.693830"><ele>286</ele><time>2022-04-08T14:13:59Z</time><name>PT8076</name></trkpt>
<trkpt lat="53.500236" lon="-1.693833"><ele>286</ele><time>2022-04-08T14:14:00Z</time><name>PT8077</name></trkpt>
<trkpt lat="53.500231" lon="-1.693815"><ele>286</ele><time>2022-04-08T14:14:01Z</time><name>PT8078</name></trkpt>
<trkpt lat="53.500228" lon="-1.693798"><ele>285</ele><time>2022-04-08T14:14:02Z</time><name>PT8079</name></trkpt>
<trkpt lat="53.500220" lon="-1.693781"><ele>285</ele><time>2022-04-08T14:14:03Z</time><name>PT8080</name></trkpt>
<trkpt lat="53.500210" lon="-1.693759"><ele>285</ele><time>2022-04-08T14:14:04Z</time><name>PT8081</name></trkpt>
<trkpt lat="53.500197" lon="-1.693740"><ele>285</ele><time>2022-04-08T14:14:05Z</time><name>PT8082</name></trkpt>
<trkpt lat="53.500191" lon="-1.693726"><ele>284</ele><time>2022-04-08T14:14:06Z</time><name>PT8083</name></trkpt>
<trkpt lat="53.500188" lon="-1.693709"><ele>284</ele><time>2022-04-08T14:14:07Z</time><name>PT8084</name></trkpt>
<trkpt lat="53.500177" lon="-1.693692"><ele>284</ele><time>2022-04-08T14:14:08Z</time><name>PT8085</name></trkpt>
<trkpt lat="53.500168" lon="-1.693673"><ele>284</ele><time>2022-04-08T14:14:09Z</time><name>PT8086</name></trkpt>
<trkpt lat="53.500162" lon="-1.693652"><ele>285</ele><time>2022-04-08T14:14:10Z</time><name>PT8087</name></trkpt>
<trkpt lat="53.500159" lon="-1.693640"><ele>284</ele><time>2022-04-08T14:14:11Z</time><name>PT8088</name></trkpt>
<trkpt lat="53.500151" lon="-1.693626"><ele>284</ele><time>2022-04-08T14:14:12Z</time><name>PT8089</name></trkpt>
<trkpt lat="53.500144" lon="-1.693618"><ele>284</ele><time>2022-04-08T14:14:13Z</time><name>PT8090</name></trkpt>
<trkpt lat="53.500136" lon="-1.693606"><ele>283</ele><time>2022-04-08T14:14:14Z</time><name>PT8091</name></trkpt>
<trkpt lat="53.500122" lon="-1.693576"><ele>284</ele><time>2022-04-08T14:14:15Z</time><name>PT8092</name></trkpt>
<trkpt lat="53.500115" lon="-1.693557"><ele>284</ele><time>2022-04-08T14:14:16Z</time><name>PT8093</name></trkpt>
<trkpt lat="53.500105" lon="-1.693531"><ele>283</ele><time>2022-04-08T14:14:17Z</time><name>PT8094</name></trkpt>
<trkpt lat="53.500103" lon="-1.693505"><ele>284</ele><time>2022-04-08T14:14:18Z</time><name>PT8095</name></trkpt>
<trkpt lat="53.500093" lon="-1.693477"><ele>284</ele><time>2022-04-08T14:14:19Z</time><name>PT8096</name></trkpt>
<trkpt lat="53.500087" lon="-1.693459"><ele>284</ele><time>2022-04-08T14:14:20Z</time><name>PT8097</name></trkpt>
<trkpt lat="53.500081" lon="-1.693433"><ele>285</ele><time>2022-04-08T14:14:21Z</time><name>PT8098</name></trkpt>
<trkpt lat="53.500077" lon="-1.693410"><ele>286</ele><time>2022-04-08T14:14:22Z</time><name>PT8099</name></trkpt>
<trkpt lat="53.500075" lon="-1.693397"><ele>286</ele><time>2022-04-08T14:14:23Z</time><name>PT8100</name></trkpt>
<trkpt lat="53.500071" lon="-1.693383"><ele>285</ele><time>2022-04-08T14:14:24Z</time><name>PT8101</name></trkpt>
<trkpt lat="53.500064" lon="-1.693372"><ele>285</ele><time>2022-04-08T14:14:25Z</time><name>PT8102</name></trkpt>
<trkpt lat="53.500057" lon="-1.693359"><ele>285</ele><time>2022-04-08T14:14:26Z</time><name>PT8103</name></trkpt>
<trkpt lat="53.500050" lon="-1.693343"><ele>285</ele><time>2022-04-08T14:14:27Z</time><name>PT8104</name></trkpt>
<trkpt lat="53.500045" lon="-1.693312"><ele>285</ele><time>2022-04-08T14:14:28Z</time><name>PT8105</name></trkpt>
<trkpt lat="53.500033" lon="-1.693287"><ele>285</ele><time>2022-04-08T14:14:29Z</time><name>PT8106</name></trkpt>
<trkpt lat="53.500029" lon="-1.693265"><ele>285</ele><time>2022-04-08T14:14:30Z</time><name>PT8107</name></trkpt>
<trkpt lat="53.500023" lon="-1.693254"><ele>285</ele><time>2022-04-08T14:14:31Z</time><name>PT8108</name></trkpt>
<trkpt lat="53.500012" lon="-1.693245"><ele>284</ele><time>2022-04-08T14:14:32Z</time><name>PT8109</name></trkpt>
<trkpt lat="53.500004" lon="-1.693230"><ele>284</ele><time>2022-04-08T14:14:33Z</time><name>PT8110</name></trkpt>
<trkpt lat="53.500001" lon="-1.693208"><ele>285</ele><time>2022-04-08T14:14:34Z</time><name>PT8111</name></trkpt>
<trkpt lat="53.499998" lon="-1.693195"><ele>284</ele><time>2022-04-08T14:14:35Z</time><name>PT8112</name></trkpt>
<trkpt lat="53.499997" lon="-1.693179"><ele>284</ele><time>2022-04-08T14:14:36Z</time><name>PT8113</name></trkpt>
<trkpt lat="53.499988" lon="-1.693159"><ele>283</ele><time>2022-04-08T14:14:37Z</time><name>PT8114</name></trkpt>
<trkpt lat="53.499984" lon="-1.693146"><ele>282</ele><time>2022-04-08T14:14:38Z</time><name>PT8115</name></trkpt>
<trkpt lat="53.499995" lon="-1.693114"><ele>278</ele><time>2022-04-08T14:14:39Z</time><name>PT8116</name></trkpt>
<trkpt lat="53.499995" lon="-1.693086"><ele>278</ele><time>2022-04-08T14:14:40Z</time><name>PT8117</name></trkpt>
<trkpt lat="53.499994" lon="-1.693071"><ele>278</ele><time>2022-04-08T14:14:41Z</time><name>PT8118</name></trkpt>
<trkpt lat="53.499988" lon="-1.693060"><ele>278</ele><time>2022-04-08T14:14:42Z</time><name>PT8119</name></trkpt>
<trkpt lat="53.499986" lon="-1.693057"><ele>278</ele><time>2022-04-08T14:14:43Z</time><name>PT8120</name></trkpt>
<trkpt lat="53.499980" lon="-1.693052"><ele>277</ele><time>2022-04-08T14:14:44Z</time><name>PT8121</name></trkpt>
<trkpt lat="53.499974" lon="-1.693040"><ele>277</ele><time>2022-04-08T14:14:45Z</time><name>PT8122</name></trkpt>
<trkpt lat="53.499964" lon="-1.693024"><ele>276</ele><time>2022-04-08T14:14:46Z</time><name>PT8123</name></trkpt>
<trkpt lat="53.499959" lon="-1.693009"><ele>276</ele><time>2022-04-08T14:14:47Z</time><name>PT8124</name></trkpt>
<trkpt lat="53.499950" lon="-1.692992"><ele>277</ele><time>2022-04-08T14:14:48Z</time><name>PT8125</name></trkpt>
<trkpt lat="53.499942" lon="-1.692976"><ele>276</ele><time>2022-04-08T14:14:49Z</time><name>PT8126</name></trkpt>
<trkpt lat="53.499934" lon="-1.692952"><ele>276</ele><time>2022-04-08T14:14:50Z</time><name>PT8127</name></trkpt>
<trkpt lat="53.499929" lon="-1.692937"><ele>275</ele><time>2022-04-08T14:14:51Z</time><name>PT8128</name></trkpt>
<trkpt lat="53.499919" lon="-1.692926"><ele>275</ele><time>2022-04-08T14:14:52Z</time><name>PT8129</name></trkpt>
<trkpt lat="53.499910" lon="-1.692902"><ele>275</ele><time>2022-04-08T14:14:53Z</time><name>PT8130</name></trkpt>
<trkpt lat="53.499898" lon="-1.692878"><ele>275</ele><time>2022-04-08T14:14:54Z</time><name>PT8131</name></trkpt>
<trkpt lat="53.499886" lon="-1.692847"><ele>275</ele><time>2022-04-08T14:14:55Z</time><name>PT8132</name></trkpt>
<trkpt lat="53.499874" lon="-1.692824"><ele>275</ele><time>2022-04-08T14:14:56Z</time><name>PT8133</name></trkpt>
<trkpt lat="53.499871" lon="-1.692802"><ele>276</ele><time>2022-04-08T14:14:57Z</time><name>PT8134</name></trkpt>
<trkpt lat="53.499864" lon="-1.692786"><ele>275</ele><time>2022-04-08T14:14:58Z</time><name>PT8135</name></trkpt>
<trkpt lat="53.499854" lon="-1.692765"><ele>275</ele><time>2022-04-08T14:14:59Z</time><name>PT8136</name></trkpt>
<trkpt lat="53.499844" lon="-1.692738"><ele>276</ele><time>2022-04-08T14:15:00Z</time><name>PT8137</name></trkpt>
<trkpt lat="53.499828" lon="-1.692712"><ele>276</ele><time>2022-04-08T14:15:01Z</time><name>PT8138</name></trkpt>
<trkpt lat="53.499813" lon="-1.692689"><ele>276</ele><time>2022-04-08T14:15:02Z</time><name>PT8139</name></trkpt>
<trkpt lat="53.499806" lon="-1.692676"><ele>275</ele><time>2022-04-08T14:15:03Z</time><name>PT8140</name></trkpt>
<trkpt lat="53.499794" lon="-1.692653"><ele>275</ele><time>2022-04-08T14:15:04Z</time><name>PT8141</name></trkpt>
<trkpt lat="53.499788" lon="-1.692638"><ele>275</ele><time>2022-04-08T14:15:05Z</time><name>PT8142</name></trkpt>
<trkpt lat="53.499779" lon="-1.692612"><ele>276</ele><time>2022-04-08T14:15:06Z</time><name>PT8143</name></trkpt>
<trkpt lat="53.499774" lon="-1.692589"><ele>275</ele><time>2022-04-08T14:15:07Z</time><name>PT8144</name></trkpt>
<trkpt lat="53.499766" lon="-1.692567"><ele>275</ele><time>2022-04-08T14:15:08Z</time><name>PT8145</name></trkpt>
<trkpt lat="53.499761" lon="-1.692550"><ele>273</ele><time>2022-04-08T14:15:09Z</time><name>PT8146</name></trkpt>
<trkpt lat="53.499755" lon="-1.692526"><ele>274</ele><time>2022-04-08T14:15:10Z</time><name>PT8147</name></trkpt>
<trkpt lat="53.499747" lon="-1.692502"><ele>274</ele><time>2022-04-08T14:15:11Z</time><name>PT8148</name></trkpt>
<trkpt lat="53.499708" lon="-1.692420"><ele>273</ele><time>2022-04-08T14:15:15Z</time><name>PT8149</name></trkpt>
<trkpt lat="53.499680" lon="-1.692365"><ele>272</ele><time>2022-04-08T14:15:19Z</time><name>PT8150</name></trkpt>
<trkpt lat="53.499650" lon="-1.692283"><ele>275</ele><time>2022-04-08T14:15:23Z</time><name>PT8151</name></trkpt>
<trkpt lat="53.499627" lon="-1.692185"><ele>278</ele><time>2022-04-08T14:15:27Z</time><name>PT8152</name></trkpt>
<trkpt lat="53.499598" lon="-1.692134"><ele>278</ele><time>2022-04-08T14:15:31Z</time><name>PT8153</name></trkpt>
<trkpt lat="53.499569" lon="-1.692053"><ele>278</ele><time>2022-04-08T14:15:35Z</time><name>PT8154</name></trkpt>
<trkpt lat="53.499550" lon="-1.691980"><ele>279</ele><time>2022-04-08T14:15:39Z</time><name>PT8155</name></trkpt>
<trkpt lat="53.499532" lon="-1.691910"><ele>278</ele><time>2022-04-08T14:15:43Z</time><name>PT8156</name></trkpt>
<trkpt lat="53.499522" lon="-1.691812"><ele>282</ele><time>2022-04-08T14:15:47Z</time><name>PT8157</name></trkpt>
<trkpt lat="53.499499" lon="-1.691692"><ele>285</ele><time>2022-04-08T14:15:51Z</time><name>PT8158</name></trkpt>
<trkpt lat="53.499462" lon="-1.691605"><ele>284</ele><time>2022-04-08T14:15:55Z</time><name>PT8159</name></trkpt>
<trkpt lat="53.499434" lon="-1.691504"><ele>285</ele><time>2022-04-08T14:15:59Z</time><name>PT8160</name></trkpt>
<trkpt lat="53.499409" lon="-1.691419"><ele>285</ele><time>2022-04-08T14:16:03Z</time><name>PT8161</name></trkpt>
<trkpt lat="53.499390" lon="-1.691344"><ele>285</ele><time>2022-04-08T14:16:07Z</time><name>PT8162</name></trkpt>
<trkpt lat="53.499358" lon="-1.691261"><ele>285</ele><time>2022-04-08T14:16:11Z</time><name>PT8163</name></trkpt>
<trkpt lat="53.499336" lon="-1.691169"><ele>284</ele><time>2022-04-08T14:16:15Z</time><name>PT8164</name></trkpt>
<trkpt lat="53.499311" lon="-1.691079"><ele>282</ele><time>2022-04-08T14:16:19Z</time><name>PT8165</name></trkpt>
<trkpt lat="53.499288" lon="-1.691004"><ele>279</ele><time>2022-04-08T14:16:23Z</time><name>PT8166</name></trkpt>
<trkpt lat="53.499266" lon="-1.690933"><ele>278</ele><time>2022-04-08T14:16:27Z</time><name>PT8167</name></trkpt>
<trkpt lat="53.499238" lon="-1.690873"><ele>277</ele><time>2022-04-08T14:16:31Z</time><name>PT8168</name></trkpt>
<trkpt lat="53.499233" lon="-1.690773"><ele>278</ele><time>2022-04-08T14:16:35Z</time><name>PT8169</name></trkpt>
<trkpt lat="53.499217" lon="-1.690689"><ele>278</ele><time>2022-04-08T14:16:39Z</time><name>PT8170</name></trkpt>
<trkpt lat="53.499198" lon="-1.690604"><ele>277</ele><time>2022-04-08T14:16:43Z</time><name>PT8171</name></trkpt>
<trkpt lat="53.499190" lon="-1.690526"><ele>277</ele><time>2022-04-08T14:16:47Z</time><name>PT8172</name></trkpt>
<trkpt lat="53.499169" lon="-1.690444"><ele>276</ele><time>2022-04-08T14:16:51Z</time><name>PT8173</name></trkpt>
<trkpt lat="53.499158" lon="-1.690387"><ele>274</ele><time>2022-04-08T14:16:55Z</time><name>PT8174</name></trkpt>
<trkpt lat="53.499139" lon="-1.690310"><ele>273</ele><time>2022-04-08T14:16:59Z</time><name>PT8175</name></trkpt>
<trkpt lat="53.499124" lon="-1.690229"><ele>273</ele><time>2022-04-08T14:17:03Z</time><name>PT8176</name></trkpt>
<trkpt lat="53.499117" lon="-1.690147"><ele>273</ele><time>2022-04-08T14:17:07Z</time><name>PT8177</name></trkpt>
<trkpt lat="53.499101" lon="-1.690041"><ele>276</ele><time>2022-04-08T14:17:11Z</time><name>PT8178</name></trkpt>
<trkpt lat="53.499079" lon="-1.689934"><ele>277</ele><time>2022-04-08T14:17:15Z</time><name>PT8179</name></trkpt>
<trkpt lat="53.499063" lon="-1.689829"><ele>279</ele><time>2022-04-08T14:17:19Z</time><name>PT8180</name></trkpt>
<trkpt lat="53.499037" lon="-1.689765"><ele>280</ele><time>2022-04-08T14:17:39Z</time><name>PT8181</name></trkpt>
<trkpt lat="53.499032" lon="-1.689754"><ele>280</ele><time>2022-04-08T14:17:43Z</time><name>PT8182</name></trkpt>
<trkpt lat="53.499033" lon="-1.689743"><ele>280</ele><time>2022-04-08T14:18:15Z</time><name>PT8183</name></trkpt>
<trkpt lat="53.499040" lon="-1.689707"><ele>281</ele><time>2022-04-08T14:18:19Z</time><name>PT8184</name></trkpt>
<trkpt lat="53.499039" lon="-1.689653"><ele>282</ele><time>2022-04-08T14:18:35Z</time><name>PT8185</name></trkpt>
<trkpt lat="53.499022" lon="-1.689542"><ele>282</ele><time>2022-04-08T14:18:39Z</time><name>PT8186</name></trkpt>
<trkpt lat="53.499004" lon="-1.689439"><ele>281</ele><time>2022-04-08T14:18:43Z</time><name>PT8187</name></trkpt>
<trkpt lat="53.499005" lon="-1.689344"><ele>281</ele><time>2022-04-08T14:18:47Z</time><name>PT8188</name></trkpt>
<trkpt lat="53.498996" lon="-1.689246"><ele>281</ele><time>2022-04-08T14:18:51Z</time><name>PT8189</name></trkpt>
<trkpt lat="53.498991" lon="-1.689161"><ele>279</ele><time>2022-04-08T14:18:55Z</time><name>PT8190</name></trkpt>
<trkpt lat="53.498984" lon="-1.689048"><ele>279</ele><time>2022-04-08T14:18:59Z</time><name>PT8191</name></trkpt>
<trkpt lat="53.498977" lon="-1.688956"><ele>278</ele><time>2022-04-08T14:19:03Z</time><name>PT8192</name></trkpt>
<trkpt lat="53.498972" lon="-1.688886"><ele>278</ele><time>2022-04-08T14:19:07Z</time><name>PT8193</name></trkpt>
<trkpt lat="53.498974" lon="-1.688794"><ele>277</ele><time>2022-04-08T14:19:11Z</time><name>PT8194</name></trkpt>
<trkpt lat="53.498976" lon="-1.688709"><ele>278</ele><time>2022-04-08T14:19:15Z</time><name>PT8195</name></trkpt>
<trkpt lat="53.498978" lon="-1.688621"><ele>278</ele><time>2022-04-08T14:19:19Z</time><name>PT8196</name></trkpt>
<trkpt lat="53.498981" lon="-1.688539"><ele>279</ele><time>2022-04-08T14:19:23Z</time><name>PT8197</name></trkpt>
<trkpt lat="53.498979" lon="-1.688462"><ele>280</ele><time>2022-04-08T14:19:27Z</time><name>PT8198</name></trkpt>
<trkpt lat="53.498962" lon="-1.688383"><ele>282</ele><time>2022-04-08T14:19:31Z</time><name>PT8199</name></trkpt>
<trkpt lat="53.498949" lon="-1.688287"><ele>282</ele><time>2022-04-08T14:19:35Z</time><name>PT8200</name></trkpt>
<trkpt lat="53.498950" lon="-1.688204"><ele>282</ele><time>2022-04-08T14:19:39Z</time><name>PT8201</name></trkpt>
<trkpt lat="53.498957" lon="-1.688103"><ele>281</ele><time>2022-04-08T14:19:43Z</time><name>PT8202</name></trkpt>
<trkpt lat="53.498972" lon="-1.688026"><ele>281</ele><time>2022-04-08T14:19:47Z</time><name>PT8203</name></trkpt>
<trkpt lat="53.498988" lon="-1.687971"><ele>281</ele><time>2022-04-08T14:19:51Z</time><name>PT8204</name></trkpt>
<trkpt lat="53.499000" lon="-1.687898"><ele>281</ele><time>2022-04-08T14:19:55Z</time><name>PT8205</name></trkpt>
<trkpt lat="53.499005" lon="-1.687844"><ele>282</ele><time>2022-04-08T14:19:59Z</time><name>PT8206</name></trkpt>
<trkpt lat="53.499019" lon="-1.687759"><ele>283</ele><time>2022-04-08T14:20:03Z</time><name>PT8207</name></trkpt>
<trkpt lat="53.499025" lon="-1.687673"><ele>283</ele><time>2022-04-08T14:20:07Z</time><name>PT8208</name></trkpt>
<trkpt lat="53.499026" lon="-1.687598"><ele>282</ele><time>2022-04-08T14:20:11Z</time><name>PT8209</name></trkpt>
<trkpt lat="53.499042" lon="-1.687510"><ele>282</ele><time>2022-04-08T14:20:15Z</time><name>PT8210</name></trkpt>
<trkpt lat="53.499049" lon="-1.687428"><ele>282</ele><time>2022-04-08T14:20:19Z</time><name>PT8211</name></trkpt>
<trkpt lat="53.499063" lon="-1.687363"><ele>282</ele><time>2022-04-08T14:20:23Z</time><name>PT8212</name></trkpt>
<trkpt lat="53.499072" lon="-1.687275"><ele>282</ele><time>2022-04-08T14:20:27Z</time><name>PT8213</name></trkpt>
<trkpt lat="53.499074" lon="-1.687210"><ele>281</ele><time>2022-04-08T14:20:31Z</time><name>PT8214</name></trkpt>
<trkpt lat="53.499072" lon="-1.687195"><ele>280</ele><time>2022-04-08T14:20:32Z</time><name>PT8215</name></trkpt>
<trkpt lat="53.499077" lon="-1.687182"><ele>280</ele><time>2022-04-08T14:20:34Z</time><name>PT8216</name></trkpt>
<trkpt lat="53.499082" lon="-1.687172"><ele>280</ele><time>2022-04-08T14:20:34Z</time><name>PT8217</name></trkpt>
<trkpt lat="53.499087" lon="-1.687154"><ele>280</ele><time>2022-04-08T14:20:36Z</time><name>PT8218</name></trkpt>
<trkpt lat="53.499092" lon="-1.687138"><ele>280</ele><time>2022-04-08T14:20:36Z</time><name>PT8219</name></trkpt>
<trkpt lat="53.499090" lon="-1.687079"><ele>280</ele><time>2022-04-08T14:20:37Z</time><name>PT8220</name></trkpt>
<trkpt lat="53.499096" lon="-1.687053"><ele>281</ele><time>2022-04-08T14:20:38Z</time><name>PT8221</name></trkpt>
<trkpt lat="53.499102" lon="-1.687028"><ele>281</ele><time>2022-04-08T14:20:39Z</time><name>PT8222</name></trkpt>
<trkpt lat="53.499103" lon="-1.687004"><ele>281</ele><time>2022-04-08T14:20:40Z</time><name>PT8223</name></trkpt>
<trkpt lat="53.499106" lon="-1.686969"><ele>281</ele><time>2022-04-08T14:20:41Z</time><name>PT8224</name></trkpt>
<trkpt lat="53.499102" lon="-1.686939"><ele>281</ele><time>2022-04-08T14:20:42Z</time><name>PT8225</name></trkpt>
<trkpt lat="53.499102" lon="-1.686917"><ele>281</ele><time>2022-04-08T14:20:43Z</time><name>PT8226</name></trkpt>
<trkpt lat="53.499105" lon="-1.686893"><ele>281</ele><time>2022-04-08T14:20:44Z</time><name>PT8227</name></trkpt>
<trkpt lat="53.499105" lon="-1.686869"><ele>280</ele><time>2022-04-08T14:20:45Z</time><name>PT8228</name></trkpt>
<trkpt lat="53.499106" lon="-1.686852"><ele>280</ele><time>2022-04-08T14:20:46Z</time><name>PT8229</name></trkpt>
<trkpt lat="53.499105" lon="-1.686832"><ele>280</ele><time>2022-04-08T14:20:47Z</time><name>PT8230</name></trkpt>
<trkpt lat="53.499106" lon="-1.686810"><ele>280</ele><time>2022-04-08T14:20:48Z</time><name>PT8231</name></trkpt>
<trkpt lat="53.499105" lon="-1.686797"><ele>280</ele><time>2022-04-08T14:20:49Z</time><name>PT8232</name></trkpt>
<trkpt lat="53.499102" lon="-1.686786"><ele>280</ele><time>2022-04-08T14:20:50Z</time><name>PT8233</name></trkpt>
<trkpt lat="53.499098" lon="-1.686773"><ele>280</ele><time>2022-04-08T14:20:51Z</time><name>PT8234</name></trkpt>
<trkpt lat="53.499104" lon="-1.686752"><ele>281</ele><time>2022-04-08T14:20:52Z</time><name>PT8235</name></trkpt>
<trkpt lat="53.499103" lon="-1.686731"><ele>281</ele><time>2022-04-08T14:20:53Z</time><name>PT8236</name></trkpt>
<trkpt lat="53.499106" lon="-1.686715"><ele>281</ele><time>2022-04-08T14:20:54Z</time><name>PT8237</name></trkpt>
<trkpt lat="53.499112" lon="-1.686702"><ele>281</ele><time>2022-04-08T14:20:55Z</time><name>PT8238</name></trkpt>
<trkpt lat="53.499117" lon="-1.686685"><ele>280</ele><time>2022-04-08T14:20:56Z</time><name>PT8239</name></trkpt>
<trkpt lat="53.499118" lon="-1.686663"><ele>280</ele><time>2022-04-08T14:20:57Z</time><name>PT8240</name></trkpt>
<trkpt lat="53.499119" lon="-1.686642"><ele>279</ele><time>2022-04-08T14:20:58Z</time><name>PT8241</name></trkpt>
<trkpt lat="53.499118" lon="-1.686625"><ele>280</ele><time>2022-04-08T14:20:59Z</time><name>PT8242</name></trkpt>
<trkpt lat="53.499118" lon="-1.686614"><ele>280</ele><time>2022-04-08T14:21:00Z</time><name>PT8243</name></trkpt>
<trkpt lat="53.499120" lon="-1.686597"><ele>280</ele><time>2022-04-08T14:21:01Z</time><name>PT8244</name></trkpt>
<trkpt lat="53.499125" lon="-1.686576"><ele>280</ele><time>2022-04-08T14:21:02Z</time><name>PT8245</name></trkpt>
<trkpt lat="53.499128" lon="-1.686550"><ele>280</ele><time>2022-04-08T14:21:03Z</time><name>PT8246</name></trkpt>
<trkpt lat="53.499132" lon="-1.686534"><ele>280</ele><time>2022-04-08T14:21:04Z</time><name>PT8247</name></trkpt>
<trkpt lat="53.499136" lon="-1.686524"><ele>281</ele><time>2022-04-08T14:21:05Z</time><name>PT8248</name></trkpt>
<trkpt lat="53.499136" lon="-1.686515"><ele>281</ele><time>2022-04-08T14:21:06Z</time><name>PT8249</name></trkpt>
<trkpt lat="53.499135" lon="-1.686499"><ele>280</ele><time>2022-04-08T14:21:07Z</time><name>PT8250</name></trkpt>
<trkpt lat="53.499139" lon="-1.686480"><ele>281</ele><time>2022-04-08T14:21:08Z</time><name>PT8251</name></trkpt>
<trkpt lat="53.499143" lon="-1.686464"><ele>281</ele><time>2022-04-08T14:21:09Z</time><name>PT8252</name></trkpt>
<trkpt lat="53.499147" lon="-1.686452"><ele>280</ele><time>2022-04-08T14:21:10Z</time><name>PT8253</name></trkpt>
<trkpt lat="53.499148" lon="-1.686429"><ele>280</ele><time>2022-04-08T14:21:11Z</time><name>PT8254</name></trkpt>
<trkpt lat="53.499153" lon="-1.686411"><ele>280</ele><time>2022-04-08T14:21:12Z</time><name>PT8255</name></trkpt>
<trkpt lat="53.499157" lon="-1.686392"><ele>280</ele><time>2022-04-08T14:21:13Z</time><name>PT8256</name></trkpt>
<trkpt lat="53.499158" lon="-1.686404"><ele>277</ele><time>2022-04-08T14:21:14Z</time><name>PT8257</name></trkpt>
<trkpt lat="53.499162" lon="-1.686394"><ele>277</ele><time>2022-04-08T14:21:15Z</time><name>PT8258</name></trkpt>
<trkpt lat="53.499166" lon="-1.686379"><ele>276</ele><time>2022-04-08T14:21:16Z</time><name>PT8259</name></trkpt>
<trkpt lat="53.499170" lon="-1.686360"><ele>276</ele><time>2022-04-08T14:21:17Z</time><name>PT8260</name></trkpt>
<trkpt lat="53.499170" lon="-1.686348"><ele>276</ele><time>2022-04-08T14:21:18Z</time><name>PT8261</name></trkpt>
<trkpt lat="53.499173" lon="-1.686338"><ele>276</ele><time>2022-04-08T14:21:19Z</time><name>PT8262</name></trkpt>
<trkpt lat="53.499177" lon="-1.686323"><ele>276</ele><time>2022-04-08T14:21:20Z</time><name>PT8263</name></trkpt>
<trkpt lat="53.499181" lon="-1.686296"><ele>276</ele><time>2022-04-08T14:21:21Z</time><name>PT8264</name></trkpt>
<trkpt lat="53.499183" lon="-1.686280"><ele>275</ele><time>2022-04-08T14:21:22Z</time><name>PT8265</name></trkpt>
<trkpt lat="53.499185" lon="-1.686266"><ele>274</ele><time>2022-04-08T14:21:23Z</time><name>PT8266</name></trkpt>
<trkpt lat="53.499183" lon="-1.686237"><ele>274</ele><time>2022-04-08T14:21:24Z</time><name>PT8267</name></trkpt>
<trkpt lat="53.499182" lon="-1.686223"><ele>272</ele><time>2022-04-08T14:21:25Z</time><name>PT8268</name></trkpt>
<trkpt lat="53.499187" lon="-1.686211"><ele>272</ele><time>2022-04-08T14:21:26Z</time><name>PT8269</name></trkpt>
<trkpt lat="53.499192" lon="-1.686201"><ele>271</ele><time>2022-04-08T14:21:27Z</time><name>PT8270</name></trkpt>
<trkpt lat="53.499196" lon="-1.686184"><ele>271</ele><time>2022-04-08T14:21:28Z</time><name>PT8271</name></trkpt>
<trkpt lat="53.499198" lon="-1.686160"><ele>272</ele><time>2022-04-08T14:21:29Z</time><name>PT8272</name></trkpt>
<trkpt lat="53.499201" lon="-1.686143"><ele>272</ele><time>2022-04-08T14:21:30Z</time><name>PT8273</name></trkpt>
<trkpt lat="53.499199" lon="-1.686113"><ele>272</ele><time>2022-04-08T14:21:31Z</time><name>PT8274</name></trkpt>
<trkpt lat="53.499197" lon="-1.686096"><ele>272</ele><time>2022-04-08T14:21:32Z</time><name>PT8275</name></trkpt>
<trkpt lat="53.499196" lon="-1.686078"><ele>272</ele><time>2022-04-08T14:21:33Z</time><name>PT8276</name></trkpt>
<trkpt lat="53.499195" lon="-1.686054"><ele>272</ele><time>2022-04-08T14:21:34Z</time><name>PT8277</name></trkpt>
<trkpt lat="53.499196" lon="-1.686038"><ele>272</ele><time>2022-04-08T14:21:35Z</time><name>PT8278</name></trkpt>
<trkpt lat="53.499196" lon="-1.686017"><ele>272</ele><time>2022-04-08T14:21:36Z</time><name>PT8279</name></trkpt>
<trkpt lat="53.499200" lon="-1.685986"><ele>272</ele><time>2022-04-08T14:21:37Z</time><name>PT8280</name></trkpt>
<trkpt lat="53.499205" lon="-1.685969"><ele>272</ele><time>2022-04-08T14:21:38Z</time><name>PT8281</name></trkpt>
<trkpt lat="53.499207" lon="-1.685953"><ele>272</ele><time>2022-04-08T14:21:39Z</time><name>PT8282</name></trkpt>
<trkpt lat="53.499206" lon="-1.685958"><ele>271</ele><time>2022-04-08T14:21:40Z</time><name>PT8283</name></trkpt>
<trkpt lat="53.499208" lon="-1.685943"><ele>271</ele><time>2022-04-08T14:21:41Z</time><name>PT8284</name></trkpt>
<trkpt lat="53.499207" lon="-1.685925"><ele>270</ele><time>2022-04-08T14:21:42Z</time><name>PT8285</name></trkpt>
<trkpt lat="53.499206" lon="-1.685905"><ele>269</ele><time>2022-04-08T14:21:43Z</time><name>PT8286</name></trkpt>
<trkpt lat="53.499203" lon="-1.685892"><ele>269</ele><time>2022-04-08T14:21:44Z</time><name>PT8287</name></trkpt>
<trkpt lat="53.499204" lon="-1.685888"><ele>266</ele><time>2022-04-08T14:21:45Z</time><name>PT8288</name></trkpt>
<trkpt lat="53.499205" lon="-1.685868"><ele>266</ele><time>2022-04-08T14:21:46Z</time><name>PT8289</name></trkpt>
<trkpt lat="53.499209" lon="-1.685848"><ele>265</ele><time>2022-04-08T14:21:47Z</time><name>PT8290</name></trkpt>
<trkpt lat="53.499209" lon="-1.685812"><ele>266</ele><time>2022-04-08T14:21:48Z</time><name>PT8291</name></trkpt>
<trkpt lat="53.499210" lon="-1.685790"><ele>266</ele><time>2022-04-08T14:21:49Z</time><name>PT8292</name></trkpt>
<trkpt lat="53.499213" lon="-1.685772"><ele>266</ele><time>2022-04-08T14:21:50Z</time><name>PT8293</name></trkpt>
<trkpt lat="53.499217" lon="-1.685752"><ele>266</ele><time>2022-04-08T14:21:51Z</time><name>PT8294</name></trkpt>
<trkpt lat="53.499218" lon="-1.685718"><ele>268</ele><time>2022-04-08T14:21:52Z</time><name>PT8295</name></trkpt>
<trkpt lat="53.499219" lon="-1.685697"><ele>269</ele><time>2022-04-08T14:21:53Z</time><name>PT8296</name></trkpt>
<trkpt lat="53.499219" lon="-1.685672"><ele>268</ele><time>2022-04-08T14:21:54Z</time><name>PT8297</name></trkpt>
<trkpt lat="53.499221" lon="-1.685647"><ele>268</ele><time>2022-04-08T14:21:55Z</time><name>PT8298</name></trkpt>
<trkpt lat="53.499227" lon="-1.685623"><ele>270</ele><time>2022-04-08T14:21:56Z</time><name>PT8299</name></trkpt>
<trkpt lat="53.499230" lon="-1.685594"><ele>272</ele><time>2022-04-08T14:21:57Z</time><name>PT8300</name></trkpt>
<trkpt lat="53.499227" lon="-1.685581"><ele>271</ele><time>2022-04-08T14:21:58Z</time><name>PT8301</name></trkpt>
<trkpt lat="53.499233" lon="-1.685561"><ele>271</ele><time>2022-04-08T14:21:59Z</time><name>PT8302</name></trkpt>
<trkpt lat="53.499238" lon="-1.685536"><ele>272</ele><time>2022-04-08T14:22:00Z</time><name>PT8303</name></trkpt>
<trkpt lat="53.499244" lon="-1.685528"><ele>272</ele><time>2022-04-08T14:22:01Z</time><name>PT8304</name></trkpt>
<trkpt lat="53.499250" lon="-1.685506"><ele>273</ele><time>2022-04-08T14:22:02Z</time><name>PT8305</name></trkpt>
<trkpt lat="53.499252" lon="-1.685486"><ele>272</ele><time>2022-04-08T14:22:03Z</time><name>PT8306</name></trkpt>
<trkpt lat="53.499257" lon="-1.685477"><ele>272</ele><time>2022-04-08T14:22:04Z</time><name>PT8307</name></trkpt>
<trkpt lat="53.499260" lon="-1.685464"><ele>271</ele><time>2022-04-08T14:22:05Z</time><name>PT8308</name></trkpt>
<trkpt lat="53.499263" lon="-1.685447"><ele>271</ele><time>2022-04-08T14:22:06Z</time><name>PT8309</name></trkpt>
<trkpt lat="53.499264" lon="-1.685430"><ele>270</ele><time>2022-04-08T14:22:07Z</time><name>PT8310</name></trkpt>
<trkpt lat="53.499267" lon="-1.685415"><ele>269</ele><time>2022-04-08T14:22:08Z</time><name>PT8311</name></trkpt>
<trkpt lat="53.499271" lon="-1.685398"><ele>269</ele><time>2022-04-08T14:22:09Z</time><name>PT8312</name></trkpt>
<trkpt lat="53.499271" lon="-1.685359"><ele>268</ele><time>2022-04-08T14:22:10Z</time><name>PT8313</name></trkpt>
<trkpt lat="53.499277" lon="-1.685336"><ele>268</ele><time>2022-04-08T14:22:11Z</time><name>PT8314</name></trkpt>
<trkpt lat="53.499278" lon="-1.685320"><ele>268</ele><time>2022-04-08T14:22:12Z</time><name>PT8315</name></trkpt>
<trkpt lat="53.499279" lon="-1.685302"><ele>268</ele><time>2022-04-08T14:22:13Z</time><name>PT8316</name></trkpt>
<trkpt lat="53.499280" lon="-1.685279"><ele>269</ele><time>2022-04-08T14:22:14Z</time><name>PT8317</name></trkpt>
<trkpt lat="53.499284" lon="-1.685258"><ele>268</ele><time>2022-04-08T14:22:15Z</time><name>PT8318</name></trkpt>
<trkpt lat="53.499288" lon="-1.685244"><ele>268</ele><time>2022-04-08T14:22:16Z</time><name>PT8319</name></trkpt>
<trkpt lat="53.499293" lon="-1.685228"><ele>268</ele><time>2022-04-08T14:22:17Z</time><name>PT8320</name></trkpt>
<trkpt lat="53.499302" lon="-1.685202"><ele>269</ele><time>2022-04-08T14:22:18Z</time><name>PT8321</name></trkpt>
<trkpt lat="53.499306" lon="-1.685183"><ele>268</ele><time>2022-04-08T14:22:19Z</time><name>PT8322</name></trkpt>
<trkpt lat="53.499310" lon="-1.685167"><ele>268</ele><time>2022-04-08T14:22:20Z</time><name>PT8323</name></trkpt>
<trkpt lat="53.499314" lon="-1.685148"><ele>267</ele><time>2022-04-08T14:22:21Z</time><name>PT8324</name></trkpt>
<trkpt lat="53.499312" lon="-1.685131"><ele>266</ele><time>2022-04-08T14:22:22Z</time><name>PT8325</name></trkpt>
<trkpt lat="53.499314" lon="-1.685111"><ele>266</ele><time>2022-04-08T14:22:23Z</time><name>PT8326</name></trkpt>
<trkpt lat="53.499315" lon="-1.685089"><ele>266</ele><time>2022-04-08T14:22:24Z</time><name>PT8327</name></trkpt>
<trkpt lat="53.499316" lon="-1.685069"><ele>266</ele><time>2022-04-08T14:22:25Z</time><name>PT8328</name></trkpt>
<trkpt lat="53.499320" lon="-1.685047"><ele>266</ele><time>2022-04-08T14:22:26Z</time><name>PT8329</name></trkpt>
<trkpt lat="53.499319" lon="-1.685044"><ele>264</ele><time>2022-04-08T14:22:27Z</time><name>PT8330</name></trkpt>
<trkpt lat="53.499322" lon="-1.685030"><ele>263</ele><time>2022-04-08T14:22:28Z</time><name>PT8331</name></trkpt>
<trkpt lat="53.499324" lon="-1.685011"><ele>264</ele><time>2022-04-08T14:22:29Z</time><name>PT8332</name></trkpt>
<trkpt lat="53.499325" lon="-1.685001"><ele>263</ele><time>2022-04-08T14:22:30Z</time><name>PT8333</name></trkpt>
<trkpt lat="53.499324" lon="-1.684988"><ele>262</ele><time>2022-04-08T14:22:31Z</time><name>PT8334</name></trkpt>
<trkpt lat="53.499340" lon="-1.684935"><ele>263</ele><time>2022-04-08T14:22:35Z</time><name>PT8335</name></trkpt>
<trkpt lat="53.499361" lon="-1.684868"><ele>266</ele><time>2022-04-08T14:22:39Z</time><name>PT8336</name></trkpt>
<trkpt lat="53.499374" lon="-1.684770"><ele>269</ele><time>2022-04-08T14:22:43Z</time><name>PT8337</name></trkpt>
<trkpt lat="53.499390" lon="-1.684703"><ele>266</ele><time>2022-04-08T14:22:47Z</time><name>PT8338</name></trkpt>
<trkpt lat="53.499417" lon="-1.684630"><ele>264</ele><time>2022-04-08T14:22:51Z</time><name>PT8339</name></trkpt>
<trkpt lat="53.499446" lon="-1.684559"><ele>265</ele><time>2022-04-08T14:22:55Z</time><name>PT8340</name></trkpt>
<trkpt lat="53.499476" lon="-1.684473"><ele>266</ele><time>2022-04-08T14:22:59Z</time><name>PT8341</name></trkpt>
<trkpt lat="53.499499" lon="-1.684401"><ele>263</ele><time>2022-04-08T14:23:03Z</time><name>PT8342</name></trkpt>
<trkpt lat="53.499535" lon="-1.684319"><ele>264</ele><time>2022-04-08T14:23:07Z</time><name>PT8343</name></trkpt>
<trkpt lat="53.499575" lon="-1.684257"><ele>266</ele><time>2022-04-08T14:23:11Z</time><name>PT8344</name></trkpt>
<trkpt lat="53.499607" lon="-1.684211"><ele>267</ele><time>2022-04-08T14:23:15Z</time><name>PT8345</name></trkpt>
<trkpt lat="53.499628" lon="-1.684166"><ele>268</ele><time>2022-04-08T14:23:19Z</time><name>PT8346</name></trkpt>
<trkpt lat="53.499660" lon="-1.684126"><ele>269</ele><time>2022-04-08T14:23:23Z</time><name>PT8347</name></trkpt>
<trkpt lat="53.499690" lon="-1.684100"><ele>269</ele><time>2022-04-08T14:23:27Z</time><name>PT8348</name></trkpt>
<trkpt lat="53.499697" lon="-1.684087"><ele>270</ele><time>2022-04-08T14:23:28Z</time><name>PT8349</name></trkpt>
<trkpt lat="53.499708" lon="-1.684076"><ele>270</ele><time>2022-04-08T14:23:29Z</time><name>PT8350</name></trkpt>
<trkpt lat="53.499715" lon="-1.684064"><ele>269</ele><time>2022-04-08T14:23:30Z</time><name>PT8351</name></trkpt>
<trkpt lat="53.499727" lon="-1.684053"><ele>270</ele><time>2022-04-08T14:23:31Z</time><name>PT8352</name></trkpt>
<trkpt lat="53.499738" lon="-1.684041"><ele>269</ele><time>2022-04-08T14:23:32Z</time><name>PT8353</name></trkpt>
<trkpt lat="53.499750" lon="-1.684030"><ele>269</ele><time>2022-04-08T14:23:33Z</time><name>PT8354</name></trkpt>
<trkpt lat="53.499762" lon="-1.684019"><ele>269</ele><time>2022-04-08T14:23:34Z</time><name>PT8355</name></trkpt>
<trkpt lat="53.499767" lon="-1.684007"><ele>269</ele><time>2022-04-08T14:23:35Z</time><name>PT8356</name></trkpt>
<trkpt lat="53.499775" lon="-1.683997"><ele>269</ele><time>2022-04-08T14:23:36Z</time><name>PT8357</name></trkpt>
<trkpt lat="53.499778" lon="-1.683980"><ele>267</ele><time>2022-04-08T14:23:37Z</time><name>PT8358</name></trkpt>
<trkpt lat="53.499788" lon="-1.683965"><ele>267</ele><time>2022-04-08T14:23:38Z</time><name>PT8359</name></trkpt>
<trkpt lat="53.499797" lon="-1.683957"><ele>267</ele><time>2022-04-08T14:23:39Z</time><name>PT8360</name></trkpt>
<trkpt lat="53.499804" lon="-1.683950"><ele>267</ele><time>2022-04-08T14:23:40Z</time><name>PT8361</name></trkpt>
<trkpt lat="53.499814" lon="-1.683942"><ele>267</ele><time>2022-04-08T14:23:41Z</time><name>PT8362</name></trkpt>
<trkpt lat="53.499826" lon="-1.683931"><ele>267</ele><time>2022-04-08T14:23:42Z</time><name>PT8363</name></trkpt>
<trkpt lat="53.499832" lon="-1.683923"><ele>267</ele><time>2022-04-08T14:23:43Z</time><name>PT8364</name></trkpt>
<trkpt lat="53.499844" lon="-1.683924"><ele>267</ele><time>2022-04-08T14:23:44Z</time><name>PT8365</name></trkpt>
<trkpt lat="53.499855" lon="-1.683917"><ele>267</ele><time>2022-04-08T14:23:45Z</time><name>PT8366</name></trkpt>
<trkpt lat="53.499863" lon="-1.683912"><ele>267</ele><time>2022-04-08T14:23:46Z</time><name>PT8367</name></trkpt>
<trkpt lat="53.499872" lon="-1.683903"><ele>266</ele><time>2022-04-08T14:23:47Z</time><name>PT8368</name></trkpt>
<trkpt lat="53.499876" lon="-1.683903"><ele>265</ele><time>2022-04-08T14:23:48Z</time><name>PT8369</name></trkpt>
<trkpt lat="53.499884" lon="-1.683899"><ele>265</ele><time>2022-04-08T14:23:49Z</time><name>PT8370</name></trkpt>
<trkpt lat="53.499890" lon="-1.683893"><ele>264</ele><time>2022-04-08T14:23:50Z</time><name>PT8371</name></trkpt>
<trkpt lat="53.499902" lon="-1.683886"><ele>264</ele><time>2022-04-08T14:23:51Z</time><name>PT8372</name></trkpt>
<trkpt lat="53.499918" lon="-1.683881"><ele>265</ele><time>2022-04-08T14:23:52Z</time><name>PT8373</name></trkpt>
<trkpt lat="53.499926" lon="-1.683877"><ele>264</ele><time>2022-04-08T14:23:53Z</time><name>PT8374</name></trkpt>
<trkpt lat="53.499943" lon="-1.683868"><ele>264</ele><time>2022-04-08T14:23:54Z</time><name>PT8375</name></trkpt>
<trkpt lat="53.499947" lon="-1.683855"><ele>264</ele><time>2022-04-08T14:23:55Z</time><name>PT8376</name></trkpt>
<trkpt lat="53.499957" lon="-1.683847"><ele>264</ele><time>2022-04-08T14:23:56Z</time><name>PT8377</name></trkpt>
<trkpt lat="53.499961" lon="-1.683840"><ele>264</ele><time>2022-04-08T14:23:57Z</time><name>PT8378</name></trkpt>
<trkpt lat="53.499969" lon="-1.683827"><ele>264</ele><time>2022-04-08T14:23:58Z</time><name>PT8379</name></trkpt>
<trkpt lat="53.499977" lon="-1.683821"><ele>264</ele><time>2022-04-08T14:23:59Z</time><name>PT8380</name></trkpt>
<trkpt lat="53.499985" lon="-1.683807"><ele>264</ele><time>2022-04-08T14:24:00Z</time><name>PT8381</name></trkpt>
<trkpt lat="53.499997" lon="-1.683789"><ele>264</ele><time>2022-04-08T14:24:01Z</time><name>PT8382</name></trkpt>
<trkpt lat="53.500000" lon="-1.683780"><ele>264</ele><time>2022-04-08T14:24:02Z</time><name>PT8383</name></trkpt>
<trkpt lat="53.500014" lon="-1.683764"><ele>265</ele><time>2022-04-08T14:24:03Z</time><name>PT8384</name></trkpt>
<trkpt lat="53.500018" lon="-1.683748"><ele>264</ele><time>2022-04-08T14:24:04Z</time><name>PT8385</name></trkpt>
<trkpt lat="53.500021" lon="-1.683735"><ele>264</ele><time>2022-04-08T14:24:05Z</time><name>PT8386</name></trkpt>
<trkpt lat="53.500026" lon="-1.683722"><ele>264</ele><time>2022-04-08T14:24:06Z</time><name>PT8387</name></trkpt>
<trkpt lat="53.500029" lon="-1.683710"><ele>264</ele><time>2022-04-08T14:24:07Z</time><name>PT8388</name></trkpt>
<trkpt lat="53.500037" lon="-1.683699"><ele>263</ele><time>2022-04-08T14:24:08Z</time><name>PT8389</name></trkpt>
<trkpt lat="53.500042" lon="-1.683690"><ele>263</ele><time>2022-04-08T14:24:09Z</time><name>PT8390</name></trkpt>
<trkpt lat="53.500052" lon="-1.683670"><ele>263</ele><time>2022-04-08T14:24:10Z</time><name>PT8391</name></trkpt>
<trkpt lat="53.500058" lon="-1.683652"><ele>263</ele><time>2022-04-08T14:24:11Z</time><name>PT8392</name></trkpt>
<trkpt lat="53.500066" lon="-1.683627"><ele>263</ele><time>2022-04-08T14:24:12Z</time><name>PT8393</name></trkpt>
<trkpt lat="53.500074" lon="-1.683604"><ele>264</ele><time>2022-04-08T14:24:13Z</time><name>PT8394</name></trkpt>
<trkpt lat="53.500086" lon="-1.683587"><ele>264</ele><time>2022-04-08T14:24:14Z</time><name>PT8395</name></trkpt>
<trkpt lat="53.500095" lon="-1.683574"><ele>264</ele><time>2022-04-08T14:24:15Z</time><name>PT8396</name></trkpt>
<trkpt lat="53.500103" lon="-1.683561"><ele>264</ele><time>2022-04-08T14:24:16Z</time><name>PT8397</name></trkpt>
<trkpt lat="53.500111" lon="-1.683550"><ele>265</ele><time>2022-04-08T14:24:17Z</time><name>PT8398</name></trkpt>
<trkpt lat="53.500116" lon="-1.683544"><ele>265</ele><time>2022-04-08T14:24:18Z</time><name>PT8399</name></trkpt>
<trkpt lat="53.500119" lon="-1.683543"><ele>265</ele><time>2022-04-08T14:24:19Z</time><name>PT8400</name></trkpt>
<trkpt lat="53.500121" lon="-1.683536"><ele>265</ele><time>2022-04-08T14:24:20Z</time><name>PT8401</name></trkpt>
<trkpt lat="53.500125" lon="-1.683525"><ele>266</ele><time>2022-04-08T14:24:21Z</time><name>PT8402</name></trkpt>
<trkpt lat="53.500130" lon="-1.683524"><ele>267</ele><time>2022-04-08T14:24:25Z</time><name>PT8403</name></trkpt>
<trkpt lat="53.500138" lon="-1.683534"><ele>267</ele><time>2022-04-08T14:24:26Z</time><name>PT8404</name></trkpt>
<trkpt lat="53.500143" lon="-1.683541"><ele>267</ele><time>2022-04-08T14:24:27Z</time><name>PT8405</name></trkpt>
<trkpt lat="53.500145" lon="-1.683551"><ele>267</ele><time>2022-04-08T14:24:28Z</time><name>PT8406</name></trkpt>
<trkpt lat="53.500146" lon="-1.683558"><ele>267</ele><time>2022-04-08T14:24:29Z</time><name>PT8407</name></trkpt>
<trkpt lat="53.500148" lon="-1.683558"><ele>267</ele><time>2022-04-08T14:24:30Z</time><name>PT8408</name></trkpt></trkseg></trk></gpx>